<gpx xmlns="http://www.topografix.com/GPX/1/1" xmlns:xsi="http://www.w3.org/2001/XMLSchema-instance" version="1.1" xsi:schemaLocation="http://www.topografix.com/GPX/1/1 http://www.topografix.com/GPX/1/1/gpx.xsd" creator="MotionXGPSFull 24.1 Build 5049R64">
<trk>
<name>Mary Cairncross Run</name>
<desc>27 Dec 2015  8:48 am</desc>
<trkseg>
<trkpt lat="-27.3561635" lon="152.9569144">
<ele>24.670</ele>
<time>2015-12-26T23:25:11.000Z</time>
</trkpt>
<trkpt lat="-27.3558841" lon="152.9571005">
<ele>24.658</ele>
<time>2015-12-26T23:25:15.568Z</time>
</trkpt>
<trkpt lat="-27.3555966" lon="152.9572329">
<ele>24.469</ele>
<time>2015-12-26T23:25:18.599Z</time>
</trkpt>
<trkpt lat="-27.3553890" lon="152.9572903">
<ele>23.905</ele>
<time>2015-12-26T23:25:20.653Z</time>
</trkpt>
<trkpt lat="-27.3551157" lon="152.9573099">
<ele>23.125</ele>
<time>2015-12-26T23:25:23.613Z</time>
</trkpt>
<trkpt lat="-27.3549770" lon="152.9572687">
<ele>22.394</ele>
<time>2015-12-26T23:25:25.806Z</time>
</trkpt>
<trkpt lat="-27.3548388" lon="152.9572900">
<ele>21.663</ele>
<time>2015-12-26T23:25:28.466Z</time>
</trkpt>
<trkpt lat="-27.3548463" lon="152.9574096">
<ele>20.833</ele>
<time>2015-12-26T23:25:30.284Z</time>
</trkpt>
<trkpt lat="-27.3549136" lon="152.9576886">
<ele>20.077</ele>
<time>2015-12-26T23:25:33.566Z</time>
</trkpt>
<trkpt lat="-27.3549223" lon="152.9579229">
<ele>19.838</ele>
<time>2015-12-26T23:25:35.450Z</time>
</trkpt>
<trkpt lat="-27.3549381" lon="152.9583477">
<ele>20.479</ele>
<time>2015-12-26T23:25:38.503Z</time>
</trkpt>
<trkpt lat="-27.3549496" lon="152.9586571">
<ele>22.093</ele>
<time>2015-12-26T23:25:40.520Z</time>
</trkpt>
<trkpt lat="-27.3549762" lon="152.9591233">
<ele>24.470</ele>
<time>2015-12-26T23:25:43.546Z</time>
</trkpt>
<trkpt lat="-27.3549851" lon="152.9593315">
<ele>26.836</ele>
<time>2015-12-26T23:25:44.919Z</time>
</trkpt>
<trkpt lat="-27.3551135" lon="152.9597034">
<ele>28.196</ele>
<time>2015-12-26T23:25:47.598Z</time>
</trkpt>
<trkpt lat="-27.3552184" lon="152.9599657">
<ele>28.277</ele>
<time>2015-12-26T23:25:49.545Z</time>
</trkpt>
<trkpt lat="-27.3553311" lon="152.9602495">
<ele>27.650</ele>
<time>2015-12-26T23:25:51.617Z</time>
</trkpt>
<trkpt lat="-27.3554383" lon="152.9605194">
<ele>27.123</ele>
<time>2015-12-26T23:25:53.620Z</time>
</trkpt>
<trkpt lat="-27.3555924" lon="152.9609150">
<ele>27.074</ele>
<time>2015-12-26T23:25:56.717Z</time>
</trkpt>
<trkpt lat="-27.3556609" lon="152.9612777">
<ele>27.292</ele>
<time>2015-12-26T23:25:59.644Z</time>
</trkpt>
<trkpt lat="-27.3558140" lon="152.9614488">
<ele>27.244</ele>
<time>2015-12-26T23:26:01.570Z</time>
</trkpt>
<trkpt lat="-27.3559245" lon="152.9616959">
<ele>26.705</ele>
<time>2015-12-26T23:26:03.479Z</time>
</trkpt>
<trkpt lat="-27.3561133" lon="152.9621404">
<ele>26.292</ele>
<time>2015-12-26T23:26:06.540Z</time>
</trkpt>
<trkpt lat="-27.3563465" lon="152.9626073">
<ele>26.789</ele>
<time>2015-12-26T23:26:09.599Z</time>
</trkpt>
<trkpt lat="-27.3564998" lon="152.9629050">
<ele>28.110</ele>
<time>2015-12-26T23:26:11.540Z</time>
</trkpt>
<trkpt lat="-27.3567694" lon="152.9633372">
<ele>29.559</ele>
<time>2015-12-26T23:26:14.512Z</time>
</trkpt>
<trkpt lat="-27.3570965" lon="152.9637194">
<ele>30.593</ele>
<time>2015-12-26T23:26:17.481Z</time>
</trkpt>
<trkpt lat="-27.3574400" lon="152.9640874">
<ele>31.358</ele>
<time>2015-12-26T23:26:20.469Z</time>
</trkpt>
<trkpt lat="-27.3576620" lon="152.9643372">
<ele>32.643</ele>
<time>2015-12-26T23:26:22.462Z</time>
</trkpt>
<trkpt lat="-27.3578814" lon="152.9645883">
<ele>34.735</ele>
<time>2015-12-26T23:26:24.456Z</time>
</trkpt>
<trkpt lat="-27.3580997" lon="152.9648372">
<ele>37.045</ele>
<time>2015-12-26T23:26:26.430Z</time>
</trkpt>
<trkpt lat="-27.3584056" lon="152.9652503">
<ele>39.249</ele>
<time>2015-12-26T23:26:29.466Z</time>
</trkpt>
<trkpt lat="-27.3586188" lon="152.9657094">
<ele>41.441</ele>
<time>2015-12-26T23:26:32.408Z</time>
</trkpt>
<trkpt lat="-27.3586986" lon="152.9660494">
<ele>43.282</ele>
<time>2015-12-26T23:26:34.426Z</time>
</trkpt>
<trkpt lat="-27.3587143" lon="152.9665568">
<ele>44.056</ele>
<time>2015-12-26T23:26:37.396Z</time>
</trkpt>
<trkpt lat="-27.3586159" lon="152.9670352">
<ele>43.154</ele>
<time>2015-12-26T23:26:40.344Z</time>
</trkpt>
<trkpt lat="-27.3584940" lon="152.9673328">
<ele>40.773</ele>
<time>2015-12-26T23:26:42.346Z</time>
</trkpt>
<trkpt lat="-27.3583021" lon="152.9677556">
<ele>38.142</ele>
<time>2015-12-26T23:26:45.307Z</time>
</trkpt>
<trkpt lat="-27.3581764" lon="152.9680212">
<ele>36.315</ele>
<time>2015-12-26T23:26:47.343Z</time>
</trkpt>
<trkpt lat="-27.3580103" lon="152.9683775">
<ele>35.052</ele>
<time>2015-12-26T23:26:50.304Z</time>
</trkpt>
<trkpt lat="-27.3579270" lon="152.9685915">
<ele>33.645</ele>
<time>2015-12-26T23:26:52.420Z</time>
</trkpt>
<trkpt lat="-27.3578294" lon="152.9688168">
<ele>32.050</ele>
<time>2015-12-26T23:26:55.433Z</time>
</trkpt>
<trkpt lat="-27.3577795" lon="152.9689321">
<ele>30.380</ele>
<time>2015-12-26T23:26:57.664Z</time>
</trkpt>
<trkpt lat="-27.3579567" lon="152.9690662">
<ele>28.583</ele>
<time>2015-12-26T23:27:02.818Z</time>
</trkpt>
<trkpt lat="-27.3581085" lon="152.9691479">
<ele>27.050</ele>
<time>2015-12-26T23:27:06.047Z</time>
</trkpt>
<trkpt lat="-27.3582137" lon="152.9692046">
<ele>26.311</ele>
<time>2015-12-26T23:27:08.070Z</time>
</trkpt>
<trkpt lat="-27.3582965" lon="152.9692491">
<ele>26.285</ele>
<time>2015-12-26T23:27:09.812Z</time>
</trkpt>
<trkpt lat="-27.3582838" lon="152.9693855">
<ele>26.535</ele>
<time>2015-12-26T23:27:12.872Z</time>
</trkpt>
<trkpt lat="-27.3582230" lon="152.9694737">
<ele>26.668</ele>
<time>2015-12-26T23:27:16.000Z</time>
</trkpt>
<trkpt lat="-27.3582230" lon="152.9694737">
<ele>26.568</ele>
<time>2015-12-26T23:27:23.000Z</time>
</trkpt>
<trkpt lat="-27.3582230" lon="152.9694737">
<ele>26.422</ele>
<time>2015-12-26T23:38:00.552Z</time>
</trkpt>
<trkpt lat="-27.3579957" lon="152.9695135">
<ele>26.406</ele>
<time>2015-12-26T23:38:07.501Z</time>
</trkpt>
<trkpt lat="-27.3579212" lon="152.9695946">
<ele>26.387</ele>
<time>2015-12-26T23:38:09.000Z</time>
</trkpt>
<trkpt lat="-27.3579212" lon="152.9695946">
<ele>26.222</ele>
<time>2015-12-26T23:38:14.000Z</time>
</trkpt>
<trkpt lat="-27.3579212" lon="152.9695946">
<ele>26.055</ele>
<time>2015-12-26T23:38:21.052Z</time>
</trkpt>
<trkpt lat="-27.3577144" lon="152.9696383">
<ele>26.044</ele>
<time>2015-12-26T23:38:26.376Z</time>
</trkpt>
<trkpt lat="-27.3575498" lon="152.9695817">
<ele>26.119</ele>
<time>2015-12-26T23:38:28.234Z</time>
</trkpt>
<trkpt lat="-27.3571637" lon="152.9694698">
<ele>26.432</ele>
<time>2015-12-26T23:38:31.711Z</time>
</trkpt>
<trkpt lat="-27.3568789" lon="152.9694319">
<ele>27.445</ele>
<time>2015-12-26T23:38:33.736Z</time>
</trkpt>
<trkpt lat="-27.3564063" lon="152.9694187">
<ele>29.206</ele>
<time>2015-12-26T23:38:36.811Z</time>
</trkpt>
<trkpt lat="-27.3558997" lon="152.9694081">
<ele>31.401</ele>
<time>2015-12-26T23:38:39.801Z</time>
</trkpt>
<trkpt lat="-27.3553843" lon="152.9693100">
<ele>33.970</ele>
<time>2015-12-26T23:38:42.743Z</time>
</trkpt>
<trkpt lat="-27.3549029" lon="152.9691127">
<ele>36.909</ele>
<time>2015-12-26T23:38:45.630Z</time>
</trkpt>
<trkpt lat="-27.3544767" lon="152.9688275">
<ele>39.605</ele>
<time>2015-12-26T23:38:48.435Z</time>
</trkpt>
<trkpt lat="-27.3542126" lon="152.9685866">
<ele>41.143</ele>
<time>2015-12-26T23:38:50.322Z</time>
</trkpt>
<trkpt lat="-27.3538482" lon="152.9681675">
<ele>41.220</ele>
<time>2015-12-26T23:38:53.189Z</time>
</trkpt>
<trkpt lat="-27.3536098" lon="152.9678866">
<ele>40.299</ele>
<time>2015-12-26T23:38:55.087Z</time>
</trkpt>
<trkpt lat="-27.3532523" lon="152.9674682">
<ele>39.062</ele>
<time>2015-12-26T23:38:57.931Z</time>
</trkpt>
<trkpt lat="-27.3528604" lon="152.9670733">
<ele>38.108</ele>
<time>2015-12-26T23:39:00.833Z</time>
</trkpt>
<trkpt lat="-27.3525732" lon="152.9668591">
<ele>37.781</ele>
<time>2015-12-26T23:39:02.733Z</time>
</trkpt>
<trkpt lat="-27.3520924" lon="152.9665927">
<ele>38.290</ele>
<time>2015-12-26T23:39:05.683Z</time>
</trkpt>
<trkpt lat="-27.3515981" lon="152.9664264">
<ele>39.767</ele>
<time>2015-12-26T23:39:08.528Z</time>
</trkpt>
<trkpt lat="-27.3512523" lon="152.9663841">
<ele>42.047</ele>
<time>2015-12-26T23:39:10.443Z</time>
</trkpt>
<trkpt lat="-27.3508936" lon="152.9663802">
<ele>44.349</ele>
<time>2015-12-26T23:39:12.400Z</time>
</trkpt>
<trkpt lat="-27.3503722" lon="152.9663932">
<ele>45.660</ele>
<time>2015-12-26T23:39:15.288Z</time>
</trkpt>
<trkpt lat="-27.3501065" lon="152.9663978">
<ele>45.205</ele>
<time>2015-12-26T23:39:17.000Z</time>
</trkpt>
<trkpt lat="-27.3501065" lon="152.9663978">
<ele>43.318</ele>
<time>2015-12-26T23:39:23.000Z</time>
</trkpt>
<trkpt lat="-27.3501065" lon="152.9663978">
<ele>41.795</ele>
<time>2015-12-26T23:39:34.479Z</time>
</trkpt>
<trkpt lat="-27.3498610" lon="152.9663943">
<ele>41.810</ele>
<time>2015-12-26T23:39:39.266Z</time>
</trkpt>
<trkpt lat="-27.3495966" lon="152.9663639">
<ele>40.781</ele>
<time>2015-12-26T23:39:41.482Z</time>
</trkpt>
<trkpt lat="-27.3491397" lon="152.9662093">
<ele>36.649</ele>
<time>2015-12-26T23:39:44.607Z</time>
</trkpt>
<trkpt lat="-27.3488000" lon="152.9661070">
<ele>32.068</ele>
<time>2015-12-26T23:39:46.593Z</time>
</trkpt>
<trkpt lat="-27.3484267" lon="152.9659876">
<ele>29.996</ele>
<time>2015-12-26T23:39:48.719Z</time>
</trkpt>
<trkpt lat="-27.3480692" lon="152.9658499">
<ele>29.997</ele>
<time>2015-12-26T23:39:50.678Z</time>
</trkpt>
<trkpt lat="-27.3475504" lon="152.9655879">
<ele>30.619</ele>
<time>2015-12-26T23:39:53.567Z</time>
</trkpt>
<trkpt lat="-27.3472360" lon="152.9653701">
<ele>30.877</ele>
<time>2015-12-26T23:39:55.486Z</time>
</trkpt>
<trkpt lat="-27.3468308" lon="152.9649950">
<ele>30.699</ele>
<time>2015-12-26T23:39:58.337Z</time>
</trkpt>
<trkpt lat="-27.3464969" lon="152.9646090">
<ele>29.984</ele>
<time>2015-12-26T23:40:01.108Z</time>
</trkpt>
<trkpt lat="-27.3462976" lon="152.9643411">
<ele>28.363</ele>
<time>2015-12-26T23:40:03.044Z</time>
</trkpt>
<trkpt lat="-27.3461346" lon="152.9640878">
<ele>26.298</ele>
<time>2015-12-26T23:40:05.059Z</time>
</trkpt>
<trkpt lat="-27.3459779" lon="152.9637860">
<ele>24.745</ele>
<time>2015-12-26T23:40:07.994Z</time>
</trkpt>
<trkpt lat="-27.3458841" lon="152.9636586">
<ele>23.615</ele>
<time>2015-12-26T23:40:10.000Z</time>
</trkpt>
<trkpt lat="-27.3458841" lon="152.9636586">
<ele>22.467</ele>
<time>2015-12-26T23:40:14.000Z</time>
</trkpt>
<trkpt lat="-27.3458841" lon="152.9636586">
<ele>21.721</ele>
<time>2015-12-26T23:40:14.903Z</time>
</trkpt>
<trkpt lat="-27.3458125" lon="152.9634875">
<ele>21.750</ele>
<time>2015-12-26T23:40:19.025Z</time>
</trkpt>
<trkpt lat="-27.3456320" lon="152.9632218">
<ele>22.127</ele>
<time>2015-12-26T23:40:22.204Z</time>
</trkpt>
<trkpt lat="-27.3453825" lon="152.9628558">
<ele>22.652</ele>
<time>2015-12-26T23:40:25.366Z</time>
</trkpt>
<trkpt lat="-27.3450734" lon="152.9624388">
<ele>23.712</ele>
<time>2015-12-26T23:40:28.634Z</time>
</trkpt>
<trkpt lat="-27.3446804" lon="152.9620131">
<ele>25.278</ele>
<time>2015-12-26T23:40:32.025Z</time>
</trkpt>
<trkpt lat="-27.3442307" lon="152.9616764">
<ele>26.645</ele>
<time>2015-12-26T23:40:35.044Z</time>
</trkpt>
<trkpt lat="-27.3437229" lon="152.9614129">
<ele>27.032</ele>
<time>2015-12-26T23:40:38.015Z</time>
</trkpt>
<trkpt lat="-27.3433797" lon="152.9612765">
<ele>25.948</ele>
<time>2015-12-26T23:40:39.982Z</time>
</trkpt>
<trkpt lat="-27.3428717" lon="152.9611627">
<ele>23.543</ele>
<time>2015-12-26T23:40:42.841Z</time>
</trkpt>
<trkpt lat="-27.3425336" lon="152.9611170">
<ele>20.433</ele>
<time>2015-12-26T23:40:44.792Z</time>
</trkpt>
<trkpt lat="-27.3420402" lon="152.9610719">
<ele>17.455</ele>
<time>2015-12-26T23:40:47.644Z</time>
</trkpt>
<trkpt lat="-27.3415289" lon="152.9610191">
<ele>15.509</ele>
<time>2015-12-26T23:40:50.618Z</time>
</trkpt>
<trkpt lat="-27.3412014" lon="152.9609900">
<ele>15.001</ele>
<time>2015-12-26T23:40:52.541Z</time>
</trkpt>
<trkpt lat="-27.3407160" lon="152.9609631">
<ele>15.550</ele>
<time>2015-12-26T23:40:55.408Z</time>
</trkpt>
<trkpt lat="-27.3403978" lon="152.9609422">
<ele>16.723</ele>
<time>2015-12-26T23:40:57.380Z</time>
</trkpt>
<trkpt lat="-27.3401028" lon="152.9609094">
<ele>18.291</ele>
<time>2015-12-26T23:40:59.271Z</time>
</trkpt>
<trkpt lat="-27.3396668" lon="152.9608263">
<ele>19.886</ele>
<time>2015-12-26T23:41:02.118Z</time>
</trkpt>
<trkpt lat="-27.3392371" lon="152.9606719">
<ele>21.618</ele>
<time>2015-12-26T23:41:05.008Z</time>
</trkpt>
<trkpt lat="-27.3388272" lon="152.9605410">
<ele>24.122</ele>
<time>2015-12-26T23:41:08.014Z</time>
</trkpt>
<trkpt lat="-27.3385134" lon="152.9604828">
<ele>26.897</ele>
<time>2015-12-26T23:41:11.127Z</time>
</trkpt>
<trkpt lat="-27.3383844" lon="152.9604721">
<ele>28.592</ele>
<time>2015-12-26T23:41:13.000Z</time>
</trkpt>
<trkpt lat="-27.3383844" lon="152.9604721">
<ele>28.911</ele>
<time>2015-12-26T23:41:16.000Z</time>
</trkpt>
<trkpt lat="-27.3383844" lon="152.9604721">
<ele>28.639</ele>
<time>2015-12-26T23:41:17.790Z</time>
</trkpt>
<trkpt lat="-27.3381721" lon="152.9604778">
<ele>28.502</ele>
<time>2015-12-26T23:41:22.174Z</time>
</trkpt>
<trkpt lat="-27.3378585" lon="152.9605021">
<ele>28.702</ele>
<time>2015-12-26T23:41:25.423Z</time>
</trkpt>
<trkpt lat="-27.3376494" lon="152.9605446">
<ele>29.376</ele>
<time>2015-12-26T23:41:27.298Z</time>
</trkpt>
<trkpt lat="-27.3374198" lon="152.9605881">
<ele>30.440</ele>
<time>2015-12-26T23:41:29.287Z</time>
</trkpt>
<trkpt lat="-27.3370751" lon="152.9606078">
<ele>31.232</ele>
<time>2015-12-26T23:41:32.233Z</time>
</trkpt>
<trkpt lat="-27.3368522" lon="152.9606373">
<ele>31.137</ele>
<time>2015-12-26T23:41:34.247Z</time>
</trkpt>
<trkpt lat="-27.3366519" lon="152.9606703">
<ele>30.204</ele>
<time>2015-12-26T23:41:36.264Z</time>
</trkpt>
<trkpt lat="-27.3364054" lon="152.9606946">
<ele>28.928</ele>
<time>2015-12-26T23:41:39.025Z</time>
</trkpt>
<trkpt lat="-27.3362701" lon="152.9606461">
<ele>27.697</ele>
<time>2015-12-26T23:41:40.820Z</time>
</trkpt>
<trkpt lat="-27.3361663" lon="152.9604799">
<ele>26.672</ele>
<time>2015-12-26T23:41:42.892Z</time>
</trkpt>
<trkpt lat="-27.3360737" lon="152.9601100">
<ele>26.227</ele>
<time>2015-12-26T23:41:46.037Z</time>
</trkpt>
<trkpt lat="-27.3360401" lon="152.9598026">
<ele>26.702</ele>
<time>2015-12-26T23:41:48.063Z</time>
</trkpt>
<trkpt lat="-27.3359566" lon="152.9593180">
<ele>27.792</ele>
<time>2015-12-26T23:41:51.030Z</time>
</trkpt>
<trkpt lat="-27.3356758" lon="152.9588955">
<ele>28.835</ele>
<time>2015-12-26T23:41:53.958Z</time>
</trkpt>
<trkpt lat="-27.3354529" lon="152.9586176">
<ele>29.460</ele>
<time>2015-12-26T23:41:55.903Z</time>
</trkpt>
<trkpt lat="-27.3350988" lon="152.9582083">
<ele>29.683</ele>
<time>2015-12-26T23:41:58.824Z</time>
</trkpt>
<trkpt lat="-27.3348758" lon="152.9579435">
<ele>29.357</ele>
<time>2015-12-26T23:42:00.683Z</time>
</trkpt>
<trkpt lat="-27.3345129" lon="152.9575178">
<ele>28.360</ele>
<time>2015-12-26T23:42:03.637Z</time>
</trkpt>
<trkpt lat="-27.3342843" lon="152.9572405">
<ele>27.102</ele>
<time>2015-12-26T23:42:05.593Z</time>
</trkpt>
<trkpt lat="-27.3339986" lon="152.9568736">
<ele>26.139</ele>
<time>2015-12-26T23:42:08.406Z</time>
</trkpt>
<trkpt lat="-27.3337887" lon="152.9566009">
<ele>25.340</ele>
<time>2015-12-26T23:42:11.000Z</time>
</trkpt>
<trkpt lat="-27.3337887" lon="152.9566009">
<ele>24.415</ele>
<time>2015-12-26T23:42:18.000Z</time>
</trkpt>
<trkpt lat="-27.3337887" lon="152.9566009">
<ele>23.762</ele>
<time>2015-12-26T23:42:18.100Z</time>
</trkpt>
<trkpt lat="-27.3336090" lon="152.9563210">
<ele>23.777</ele>
<time>2015-12-26T23:42:28.933Z</time>
</trkpt>
<trkpt lat="-27.3335142" lon="152.9561606">
<ele>23.688</ele>
<time>2015-12-26T23:42:30.889Z</time>
</trkpt>
<trkpt lat="-27.3333299" lon="152.9559082">
<ele>22.841</ele>
<time>2015-12-26T23:42:33.404Z</time>
</trkpt>
<trkpt lat="-27.3331687" lon="152.9556602">
<ele>22.022</ele>
<time>2015-12-26T23:42:35.396Z</time>
</trkpt>
<trkpt lat="-27.3330014" lon="152.9553944">
<ele>22.384</ele>
<time>2015-12-26T23:42:37.371Z</time>
</trkpt>
<trkpt lat="-27.3327230" lon="152.9549735">
<ele>23.960</ele>
<time>2015-12-26T23:42:40.482Z</time>
</trkpt>
<trkpt lat="-27.3324719" lon="152.9545682">
<ele>25.939</ele>
<time>2015-12-26T23:42:43.395Z</time>
</trkpt>
<trkpt lat="-27.3323020" lon="152.9542962">
<ele>27.609</ele>
<time>2015-12-26T23:42:45.369Z</time>
</trkpt>
<trkpt lat="-27.3321304" lon="152.9540178">
<ele>28.846</ele>
<time>2015-12-26T23:42:47.365Z</time>
</trkpt>
<trkpt lat="-27.3318576" lon="152.9535893">
<ele>29.735</ele>
<time>2015-12-26T23:42:50.418Z</time>
</trkpt>
<trkpt lat="-27.3316038" lon="152.9531522">
<ele>30.411</ele>
<time>2015-12-26T23:42:53.416Z</time>
</trkpt>
<trkpt lat="-27.3314377" lon="152.9528553">
<ele>31.211</ele>
<time>2015-12-26T23:42:55.473Z</time>
</trkpt>
<trkpt lat="-27.3313135" lon="152.9526331">
<ele>32.225</ele>
<time>2015-12-26T23:42:57.024Z</time>
</trkpt>
<trkpt lat="-27.3310247" lon="152.9521661">
<ele>33.181</ele>
<time>2015-12-26T23:43:00.334Z</time>
</trkpt>
<trkpt lat="-27.3308557" lon="152.9518844">
<ele>34.047</ele>
<time>2015-12-26T23:43:02.281Z</time>
</trkpt>
<trkpt lat="-27.3306394" lon="152.9514363">
<ele>35.142</ele>
<time>2015-12-26T23:43:05.202Z</time>
</trkpt>
<trkpt lat="-27.3304591" lon="152.9509574">
<ele>36.665</ele>
<time>2015-12-26T23:43:08.203Z</time>
</trkpt>
<trkpt lat="-27.3303548" lon="152.9506305">
<ele>38.261</ele>
<time>2015-12-26T23:43:10.248Z</time>
</trkpt>
<trkpt lat="-27.3301751" lon="152.9501706">
<ele>39.384</ele>
<time>2015-12-26T23:43:13.239Z</time>
</trkpt>
<trkpt lat="-27.3300613" lon="152.9498680">
<ele>40.237</ele>
<time>2015-12-26T23:43:15.204Z</time>
</trkpt>
<trkpt lat="-27.3299434" lon="152.9495593">
<ele>41.424</ele>
<time>2015-12-26T23:43:17.189Z</time>
</trkpt>
<trkpt lat="-27.3297717" lon="152.9490947">
<ele>43.175</ele>
<time>2015-12-26T23:43:20.102Z</time>
</trkpt>
<trkpt lat="-27.3296501" lon="152.9487721">
<ele>45.325</ele>
<time>2015-12-26T23:43:22.068Z</time>
</trkpt>
<trkpt lat="-27.3294741" lon="152.9482591">
<ele>47.545</ele>
<time>2015-12-26T23:43:25.159Z</time>
</trkpt>
<trkpt lat="-27.3293680" lon="152.9479303">
<ele>49.350</ele>
<time>2015-12-26T23:43:27.136Z</time>
</trkpt>
<trkpt lat="-27.3292711" lon="152.9473999">
<ele>50.153</ele>
<time>2015-12-26T23:43:30.177Z</time>
</trkpt>
<trkpt lat="-27.3292261" lon="152.9470526">
<ele>49.586</ele>
<time>2015-12-26T23:43:32.160Z</time>
</trkpt>
<trkpt lat="-27.3292010" lon="152.9464983">
<ele>47.903</ele>
<time>2015-12-26T23:43:35.331Z</time>
</trkpt>
<trkpt lat="-27.3292082" lon="152.9461613">
<ele>46.001</ele>
<time>2015-12-26T23:43:37.235Z</time>
</trkpt>
<trkpt lat="-27.3292238" lon="152.9458079">
<ele>45.232</ele>
<time>2015-12-26T23:43:39.222Z</time>
</trkpt>
<trkpt lat="-27.3292598" lon="152.9454655">
<ele>46.409</ele>
<time>2015-12-26T23:43:41.189Z</time>
</trkpt>
<trkpt lat="-27.3292895" lon="152.9451062">
<ele>48.777</ele>
<time>2015-12-26T23:43:43.247Z</time>
</trkpt>
<trkpt lat="-27.3293358" lon="152.9446639">
<ele>50.798</ele>
<time>2015-12-26T23:43:45.752Z</time>
</trkpt>
<trkpt lat="-27.3293670" lon="152.9440487">
<ele>51.453</ele>
<time>2015-12-26T23:43:49.174Z</time>
</trkpt>
<trkpt lat="-27.3293817" lon="152.9437255">
<ele>50.519</ele>
<time>2015-12-26T23:43:50.968Z</time>
</trkpt>
<trkpt lat="-27.3294041" lon="152.9431581">
<ele>48.480</ele>
<time>2015-12-26T23:43:54.119Z</time>
</trkpt>
<trkpt lat="-27.3294381" lon="152.9426259">
<ele>46.079</ele>
<time>2015-12-26T23:43:57.080Z</time>
</trkpt>
<trkpt lat="-27.3294680" lon="152.9422740">
<ele>43.917</ele>
<time>2015-12-26T23:43:58.952Z</time>
</trkpt>
<trkpt lat="-27.3295046" lon="152.9416799">
<ele>42.484</ele>
<time>2015-12-26T23:44:02.022Z</time>
</trkpt>
<trkpt lat="-27.3295465" lon="152.9413006">
<ele>41.989</ele>
<time>2015-12-26T23:44:03.997Z</time>
</trkpt>
<trkpt lat="-27.3295952" lon="152.9407307">
<ele>42.301</ele>
<time>2015-12-26T23:44:06.975Z</time>
</trkpt>
<trkpt lat="-27.3296213" lon="152.9403526">
<ele>43.010</ele>
<time>2015-12-26T23:44:08.923Z</time>
</trkpt>
<trkpt lat="-27.3296508" lon="152.9399440">
<ele>43.662</ele>
<time>2015-12-26T23:44:10.976Z</time>
</trkpt>
<trkpt lat="-27.3296677" lon="152.9395462">
<ele>44.287</ele>
<time>2015-12-26T23:44:12.903Z</time>
</trkpt>
<trkpt lat="-27.3296964" lon="152.9391074">
<ele>45.559</ele>
<time>2015-12-26T23:44:14.990Z</time>
</trkpt>
<trkpt lat="-27.3297546" lon="152.9384822">
<ele>47.941</ele>
<time>2015-12-26T23:44:17.973Z</time>
</trkpt>
<trkpt lat="-27.3297816" lon="152.9378635">
<ele>51.263</ele>
<time>2015-12-26T23:44:20.985Z</time>
</trkpt>
<trkpt lat="-27.3297308" lon="152.9374738">
<ele>55.050</ele>
<time>2015-12-26T23:44:22.998Z</time>
</trkpt>
<trkpt lat="-27.3295790" lon="152.9369370">
<ele>58.681</ele>
<time>2015-12-26T23:44:25.944Z</time>
</trkpt>
<trkpt lat="-27.3292887" lon="152.9365011">
<ele>61.765</ele>
<time>2015-12-26T23:44:28.888Z</time>
</trkpt>
<trkpt lat="-27.3290449" lon="152.9362559">
<ele>64.186</ele>
<time>2015-12-26T23:44:30.849Z</time>
</trkpt>
<trkpt lat="-27.3286234" lon="152.9359287">
<ele>65.938</ele>
<time>2015-12-26T23:44:33.879Z</time>
</trkpt>
<trkpt lat="-27.3282260" lon="152.9355540">
<ele>67.381</ele>
<time>2015-12-26T23:44:36.909Z</time>
</trkpt>
<trkpt lat="-27.3280133" lon="152.9352367">
<ele>68.790</ele>
<time>2015-12-26T23:44:38.944Z</time>
</trkpt>
<trkpt lat="-27.3278567" lon="152.9346862">
<ele>69.888</ele>
<time>2015-12-26T23:44:41.918Z</time>
</trkpt>
<trkpt lat="-27.3278664" lon="152.9341072">
<ele>70.637</ele>
<time>2015-12-26T23:44:44.898Z</time>
</trkpt>
<trkpt lat="-27.3280017" lon="152.9337526">
<ele>71.866</ele>
<time>2015-12-26T23:44:46.758Z</time>
</trkpt>
<trkpt lat="-27.3282918" lon="152.9331920">
<ele>74.181</ele>
<time>2015-12-26T23:44:49.730Z</time>
</trkpt>
<trkpt lat="-27.3284877" lon="152.9327846">
<ele>77.167</ele>
<time>2015-12-26T23:44:51.769Z</time>
</trkpt>
<trkpt lat="-27.3286794" lon="152.9324063">
<ele>80.014</ele>
<time>2015-12-26T23:44:53.736Z</time>
</trkpt>
<trkpt lat="-27.3289405" lon="152.9318321">
<ele>81.987</ele>
<time>2015-12-26T23:44:56.693Z</time>
</trkpt>
<trkpt lat="-27.3291289" lon="152.9314615">
<ele>82.776</ele>
<time>2015-12-26T23:44:58.671Z</time>
</trkpt>
<trkpt lat="-27.3293296" lon="152.9310921">
<ele>82.908</ele>
<time>2015-12-26T23:45:00.677Z</time>
</trkpt>
<trkpt lat="-27.3296733" lon="152.9305808">
<ele>83.141</ele>
<time>2015-12-26T23:45:03.630Z</time>
</trkpt>
<trkpt lat="-27.3301192" lon="152.9301522">
<ele>84.005</ele>
<time>2015-12-26T23:45:06.644Z</time>
</trkpt>
<trkpt lat="-27.3304136" lon="152.9298603">
<ele>85.886</ele>
<time>2015-12-26T23:45:08.682Z</time>
</trkpt>
<trkpt lat="-27.3306814" lon="152.9295616">
<ele>88.583</ele>
<time>2015-12-26T23:45:10.677Z</time>
</trkpt>
<trkpt lat="-27.3309824" lon="152.9290376">
<ele>90.983</ele>
<time>2015-12-26T23:45:13.603Z</time>
</trkpt>
<trkpt lat="-27.3311493" lon="152.9286509">
<ele>92.083</ele>
<time>2015-12-26T23:45:15.554Z</time>
</trkpt>
<trkpt lat="-27.3312761" lon="152.9279846">
<ele>91.671</ele>
<time>2015-12-26T23:45:18.638Z</time>
</trkpt>
<trkpt lat="-27.3312771" lon="152.9275635">
<ele>90.325</ele>
<time>2015-12-26T23:45:20.612Z</time>
</trkpt>
<trkpt lat="-27.3313145" lon="152.9271406">
<ele>89.079</ele>
<time>2015-12-26T23:45:22.654Z</time>
</trkpt>
<trkpt lat="-27.3312412" lon="152.9267359">
<ele>88.564</ele>
<time>2015-12-26T23:45:24.623Z</time>
</trkpt>
<trkpt lat="-27.3310511" lon="152.9260874">
<ele>88.668</ele>
<time>2015-12-26T23:45:27.719Z</time>
</trkpt>
<trkpt lat="-27.3308689" lon="152.9254541">
<ele>89.564</ele>
<time>2015-12-26T23:45:30.663Z</time>
</trkpt>
<trkpt lat="-27.3308465" lon="152.9250262">
<ele>91.407</ele>
<time>2015-12-26T23:45:32.558Z</time>
</trkpt>
<trkpt lat="-27.3308333" lon="152.9245870">
<ele>93.408</ele>
<time>2015-12-26T23:45:34.483Z</time>
</trkpt>
<trkpt lat="-27.3308021" lon="152.9238902">
<ele>94.670</ele>
<time>2015-12-26T23:45:37.559Z</time>
</trkpt>
<trkpt lat="-27.3307113" lon="152.9232518">
<ele>95.291</ele>
<time>2015-12-26T23:45:40.489Z</time>
</trkpt>
<trkpt lat="-27.3305586" lon="152.9226470">
<ele>95.969</ele>
<time>2015-12-26T23:45:43.392Z</time>
</trkpt>
<trkpt lat="-27.3303906" lon="152.9219972">
<ele>97.262</ele>
<time>2015-12-26T23:45:46.520Z</time>
</trkpt>
<trkpt lat="-27.3303535" lon="152.9215759">
<ele>99.403</ele>
<time>2015-12-26T23:45:48.475Z</time>
</trkpt>
<trkpt lat="-27.3304888" lon="152.9209262">
<ele>101.991</ele>
<time>2015-12-26T23:45:51.540Z</time>
</trkpt>
<trkpt lat="-27.3308240" lon="152.9203946">
<ele>103.765</ele>
<time>2015-12-26T23:45:54.483Z</time>
</trkpt>
<trkpt lat="-27.3313673" lon="152.9200238">
<ele>104.027</ele>
<time>2015-12-26T23:45:57.677Z</time>
</trkpt>
<trkpt lat="-27.3317003" lon="152.9197997">
<ele>103.533</ele>
<time>2015-12-26T23:45:59.695Z</time>
</trkpt>
<trkpt lat="-27.3321374" lon="152.9194095">
<ele>103.430</ele>
<time>2015-12-26T23:46:02.676Z</time>
</trkpt>
<trkpt lat="-27.3323479" lon="152.9190819">
<ele>104.432</ele>
<time>2015-12-26T23:46:04.624Z</time>
</trkpt>
<trkpt lat="-27.3325506" lon="152.9184956">
<ele>106.123</ele>
<time>2015-12-26T23:46:07.654Z</time>
</trkpt>
<trkpt lat="-27.3326297" lon="152.9178820">
<ele>107.258</ele>
<time>2015-12-26T23:46:10.736Z</time>
</trkpt>
<trkpt lat="-27.3327169" lon="152.9173275">
<ele>107.298</ele>
<time>2015-12-26T23:46:13.799Z</time>
</trkpt>
<trkpt lat="-27.3329269" lon="152.9169108">
<ele>106.748</ele>
<time>2015-12-26T23:46:16.524Z</time>
</trkpt>
<trkpt lat="-27.3334735" lon="152.9167391">
<ele>106.158</ele>
<time>2015-12-26T23:46:19.969Z</time>
</trkpt>
<trkpt lat="-27.3338457" lon="152.9167986">
<ele>105.704</ele>
<time>2015-12-26T23:46:22.056Z</time>
</trkpt>
<trkpt lat="-27.3342322" lon="152.9169096">
<ele>105.386</ele>
<time>2015-12-26T23:46:24.219Z</time>
</trkpt>
<trkpt lat="-27.3347685" lon="152.9169733">
<ele>104.155</ele>
<time>2015-12-26T23:46:27.187Z</time>
</trkpt>
<trkpt lat="-27.3350947" lon="152.9168551">
<ele>101.316</ele>
<time>2015-12-26T23:46:29.021Z</time>
</trkpt>
<trkpt lat="-27.3356013" lon="152.9165194">
<ele>98.183</ele>
<time>2015-12-26T23:46:32.032Z</time>
</trkpt>
<trkpt lat="-27.3358686" lon="152.9161762">
<ele>95.543</ele>
<time>2015-12-26T23:46:34.013Z</time>
</trkpt>
<trkpt lat="-27.3361447" lon="152.9158138">
<ele>92.613</ele>
<time>2015-12-26T23:46:36.108Z</time>
</trkpt>
<trkpt lat="-27.3365864" lon="152.9153628">
<ele>89.418</ele>
<time>2015-12-26T23:46:39.113Z</time>
</trkpt>
<trkpt lat="-27.3369050" lon="152.9151420">
<ele>86.538</ele>
<time>2015-12-26T23:46:41.028Z</time>
</trkpt>
<trkpt lat="-27.3374758" lon="152.9149690">
<ele>84.227</ele>
<time>2015-12-26T23:46:44.106Z</time>
</trkpt>
<trkpt lat="-27.3380258" lon="152.9148729">
<ele>82.682</ele>
<time>2015-12-26T23:46:46.991Z</time>
</trkpt>
<trkpt lat="-27.3386277" lon="152.9151372">
<ele>81.958</ele>
<time>2015-12-26T23:46:50.212Z</time>
</trkpt>
<trkpt lat="-27.3390110" lon="152.9152515">
<ele>81.996</ele>
<time>2015-12-26T23:46:52.155Z</time>
</trkpt>
<trkpt lat="-27.3394107" lon="152.9153668">
<ele>82.580</ele>
<time>2015-12-26T23:46:54.199Z</time>
</trkpt>
<trkpt lat="-27.3397997" lon="152.9154849">
<ele>83.067</ele>
<time>2015-12-26T23:46:56.229Z</time>
</trkpt>
<trkpt lat="-27.3401766" lon="152.9156103">
<ele>82.835</ele>
<time>2015-12-26T23:46:58.257Z</time>
</trkpt>
<trkpt lat="-27.3407270" lon="152.9157973">
<ele>81.787</ele>
<time>2015-12-26T23:47:01.283Z</time>
</trkpt>
<trkpt lat="-27.3410921" lon="152.9159156">
<ele>80.033</ele>
<time>2015-12-26T23:47:03.339Z</time>
</trkpt>
<trkpt lat="-27.3416340" lon="152.9160102">
<ele>77.776</ele>
<time>2015-12-26T23:47:06.421Z</time>
</trkpt>
<trkpt lat="-27.3419801" lon="152.9159716">
<ele>75.095</ele>
<time>2015-12-26T23:47:08.471Z</time>
</trkpt>
<trkpt lat="-27.3422906" lon="152.9158717">
<ele>71.937</ele>
<time>2015-12-26T23:47:10.384Z</time>
</trkpt>
<trkpt lat="-27.3427549" lon="152.9156098">
<ele>68.483</ele>
<time>2015-12-26T23:47:13.477Z</time>
</trkpt>
<trkpt lat="-27.3429963" lon="152.9153638">
<ele>65.012</ele>
<time>2015-12-26T23:47:15.440Z</time>
</trkpt>
<trkpt lat="-27.3433085" lon="152.9149236">
<ele>61.810</ele>
<time>2015-12-26T23:47:18.460Z</time>
</trkpt>
<trkpt lat="-27.3434310" lon="152.9145795">
<ele>59.093</ele>
<time>2015-12-26T23:47:20.466Z</time>
</trkpt>
<trkpt lat="-27.3434914" lon="152.9142190">
<ele>56.727</ele>
<time>2015-12-26T23:47:22.397Z</time>
</trkpt>
<trkpt lat="-27.3435279" lon="152.9138355">
<ele>54.443</ele>
<time>2015-12-26T23:47:24.300Z</time>
</trkpt>
<trkpt lat="-27.3434510" lon="152.9132011">
<ele>51.982</ele>
<time>2015-12-26T23:47:27.268Z</time>
</trkpt>
<trkpt lat="-27.3433747" lon="152.9127550">
<ele>49.332</ele>
<time>2015-12-26T23:47:29.312Z</time>
</trkpt>
<trkpt lat="-27.3432740" lon="152.9121378">
<ele>46.686</ele>
<time>2015-12-26T23:47:32.198Z</time>
</trkpt>
<trkpt lat="-27.3432351" lon="152.9117092">
<ele>43.651</ele>
<time>2015-12-26T23:47:34.243Z</time>
</trkpt>
<trkpt lat="-27.3432325" lon="152.9112984">
<ele>39.870</ele>
<time>2015-12-26T23:47:36.186Z</time>
</trkpt>
<trkpt lat="-27.3433425" lon="152.9106798">
<ele>36.284</ele>
<time>2015-12-26T23:47:39.124Z</time>
</trkpt>
<trkpt lat="-27.3434658" lon="152.9102763">
<ele>34.408</ele>
<time>2015-12-26T23:47:41.092Z</time>
</trkpt>
<trkpt lat="-27.3437301" lon="152.9097094">
<ele>34.658</ele>
<time>2015-12-26T23:47:44.019Z</time>
</trkpt>
<trkpt lat="-27.3440025" lon="152.9093827">
<ele>36.769</ele>
<time>2015-12-26T23:47:46.037Z</time>
</trkpt>
<trkpt lat="-27.3444061" lon="152.9088922">
<ele>40.514</ele>
<time>2015-12-26T23:47:49.069Z</time>
</trkpt>
<trkpt lat="-27.3446777" lon="152.9085837">
<ele>45.433</ele>
<time>2015-12-26T23:47:51.077Z</time>
</trkpt>
<trkpt lat="-27.3449204" lon="152.9082698">
<ele>50.698</ele>
<time>2015-12-26T23:47:52.969Z</time>
</trkpt>
<trkpt lat="-27.3453494" lon="152.9077811">
<ele>55.466</ele>
<time>2015-12-26T23:47:56.038Z</time>
</trkpt>
<trkpt lat="-27.3456319" lon="152.9074551">
<ele>59.889</ele>
<time>2015-12-26T23:47:58.065Z</time>
</trkpt>
<trkpt lat="-27.3459021" lon="152.9071309">
<ele>64.838</ele>
<time>2015-12-26T23:48:00.060Z</time>
</trkpt>
<trkpt lat="-27.3461864" lon="152.9067938">
<ele>69.962</ele>
<time>2015-12-26T23:48:02.147Z</time>
</trkpt>
<trkpt lat="-27.3465821" lon="152.9063033">
<ele>74.475</ele>
<time>2015-12-26T23:48:05.107Z</time>
</trkpt>
<trkpt lat="-27.3469211" lon="152.9057454">
<ele>78.583</ele>
<time>2015-12-26T23:48:08.083Z</time>
</trkpt>
<trkpt lat="-27.3471442" lon="152.9053552">
<ele>82.839</ele>
<time>2015-12-26T23:48:10.106Z</time>
</trkpt>
<trkpt lat="-27.3474639" lon="152.9047774">
<ele>87.358</ele>
<time>2015-12-26T23:48:13.093Z</time>
</trkpt>
<trkpt lat="-27.3477919" lon="152.9042099">
<ele>91.290</ele>
<time>2015-12-26T23:48:16.129Z</time>
</trkpt>
<trkpt lat="-27.3479876" lon="152.9038608">
<ele>92.565</ele>
<time>2015-12-26T23:48:18.049Z</time>
</trkpt>
<trkpt lat="-27.3481500" lon="152.9034680">
<ele>90.585</ele>
<time>2015-12-26T23:48:20.096Z</time>
</trkpt>
<trkpt lat="-27.3482122" lon="152.9030481">
<ele>87.725</ele>
<time>2015-12-26T23:48:22.101Z</time>
</trkpt>
<trkpt lat="-27.3482229" lon="152.9024232">
<ele>86.553</ele>
<time>2015-12-26T23:48:25.006Z</time>
</trkpt>
<trkpt lat="-27.3481470" lon="152.9017670">
<ele>88.451</ele>
<time>2015-12-26T23:48:28.006Z</time>
</trkpt>
<trkpt lat="-27.3480301" lon="152.9011304">
<ele>93.458</ele>
<time>2015-12-26T23:48:30.889Z</time>
</trkpt>
<trkpt lat="-27.3479614" lon="152.9006873">
<ele>99.443</ele>
<time>2015-12-26T23:48:32.879Z</time>
</trkpt>
<trkpt lat="-27.3478869" lon="152.9000230">
<ele>104.072</ele>
<time>2015-12-26T23:48:35.847Z</time>
</trkpt>
<trkpt lat="-27.3478535" lon="152.8993593">
<ele>106.632</ele>
<time>2015-12-26T23:48:38.820Z</time>
</trkpt>
<trkpt lat="-27.3478550" lon="152.8987054">
<ele>106.993</ele>
<time>2015-12-26T23:48:41.807Z</time>
</trkpt>
<trkpt lat="-27.3478378" lon="152.8982687">
<ele>105.533</ele>
<time>2015-12-26T23:48:43.850Z</time>
</trkpt>
<trkpt lat="-27.3477957" lon="152.8978503">
<ele>103.573</ele>
<time>2015-12-26T23:48:45.792Z</time>
</trkpt>
<trkpt lat="-27.3476830" lon="152.8972225">
<ele>102.449</ele>
<time>2015-12-26T23:48:48.657Z</time>
</trkpt>
<trkpt lat="-27.3474870" lon="152.8965574">
<ele>102.737</ele>
<time>2015-12-26T23:48:51.697Z</time>
</trkpt>
<trkpt lat="-27.3472759" lon="152.8959048">
<ele>104.092</ele>
<time>2015-12-26T23:48:54.737Z</time>
</trkpt>
<trkpt lat="-27.3470780" lon="152.8952642">
<ele>104.940</ele>
<time>2015-12-26T23:48:57.792Z</time>
</trkpt>
<trkpt lat="-27.3470009" lon="152.8948438">
<ele>103.500</ele>
<time>2015-12-26T23:48:59.767Z</time>
</trkpt>
<trkpt lat="-27.3469285" lon="152.8942046">
<ele>100.142</ele>
<time>2015-12-26T23:49:02.739Z</time>
</trkpt>
<trkpt lat="-27.3469110" lon="152.8935576">
<ele>97.017</ele>
<time>2015-12-26T23:49:05.725Z</time>
</trkpt>
<trkpt lat="-27.3468914" lon="152.8931224">
<ele>95.167</ele>
<time>2015-12-26T23:49:07.722Z</time>
</trkpt>
<trkpt lat="-27.3467852" lon="152.8924772">
<ele>93.933</ele>
<time>2015-12-26T23:49:10.715Z</time>
</trkpt>
<trkpt lat="-27.3465961" lon="152.8918500">
<ele>92.560</ele>
<time>2015-12-26T23:49:13.728Z</time>
</trkpt>
<trkpt lat="-27.3465071" lon="152.8914250">
<ele>90.663</ele>
<time>2015-12-26T23:49:15.733Z</time>
</trkpt>
<trkpt lat="-27.3464593" lon="152.8909965">
<ele>88.500</ele>
<time>2015-12-26T23:49:17.729Z</time>
</trkpt>
<trkpt lat="-27.3464582" lon="152.8903688">
<ele>86.832</ele>
<time>2015-12-26T23:49:20.630Z</time>
</trkpt>
<trkpt lat="-27.3465240" lon="152.8899353">
<ele>86.048</ele>
<time>2015-12-26T23:49:22.638Z</time>
</trkpt>
<trkpt lat="-27.3466605" lon="152.8895079">
<ele>85.882</ele>
<time>2015-12-26T23:49:24.664Z</time>
</trkpt>
<trkpt lat="-27.3469529" lon="152.8889016">
<ele>85.871</ele>
<time>2015-12-26T23:49:27.696Z</time>
</trkpt>
<trkpt lat="-27.3472060" lon="152.8885412">
<ele>85.425</ele>
<time>2015-12-26T23:49:29.668Z</time>
</trkpt>
<trkpt lat="-27.3476632" lon="152.8880585">
<ele>84.257</ele>
<time>2015-12-26T23:49:32.696Z</time>
</trkpt>
<trkpt lat="-27.3481307" lon="152.8876288">
<ele>82.888</ele>
<time>2015-12-26T23:49:35.678Z</time>
</trkpt>
<trkpt lat="-27.3485069" lon="152.8871332">
<ele>82.019</ele>
<time>2015-12-26T23:49:38.621Z</time>
</trkpt>
<trkpt lat="-27.3488365" lon="152.8866058">
<ele>82.072</ele>
<time>2015-12-26T23:49:41.582Z</time>
</trkpt>
<trkpt lat="-27.3491606" lon="152.8860744">
<ele>83.371</ele>
<time>2015-12-26T23:49:44.589Z</time>
</trkpt>
<trkpt lat="-27.3494613" lon="152.8855423">
<ele>85.523</ele>
<time>2015-12-26T23:49:47.621Z</time>
</trkpt>
<trkpt lat="-27.3496375" lon="152.8851948">
<ele>87.401</ele>
<time>2015-12-26T23:49:49.712Z</time>
</trkpt>
<trkpt lat="-27.3498304" lon="152.8846876">
<ele>88.308</ele>
<time>2015-12-26T23:49:52.759Z</time>
</trkpt>
<trkpt lat="-27.3499199" lon="152.8841751">
<ele>88.261</ele>
<time>2015-12-26T23:49:55.771Z</time>
</trkpt>
<trkpt lat="-27.3499247" lon="152.8838360">
<ele>87.482</ele>
<time>2015-12-26T23:49:57.782Z</time>
</trkpt>
<trkpt lat="-27.3498710" lon="152.8833555">
<ele>86.148</ele>
<time>2015-12-26T23:50:00.750Z</time>
</trkpt>
<trkpt lat="-27.3497507" lon="152.8829192">
<ele>84.057</ele>
<time>2015-12-26T23:50:03.745Z</time>
</trkpt>
<trkpt lat="-27.3496559" lon="152.8826702">
<ele>81.000</ele>
<time>2015-12-26T23:50:05.782Z</time>
</trkpt>
<trkpt lat="-27.3495484" lon="152.8824652">
<ele>77.453</ele>
<time>2015-12-26T23:50:08.100Z</time>
</trkpt>
<trkpt lat="-27.3494399" lon="152.8822182">
<ele>74.009</ele>
<time>2015-12-26T23:50:11.900Z</time>
</trkpt>
<trkpt lat="-27.3494249" lon="152.8821075">
<ele>70.593</ele>
<time>2015-12-26T23:50:13.817Z</time>
</trkpt>
<trkpt lat="-27.3493837" lon="152.8819580">
<ele>67.317</ele>
<time>2015-12-26T23:50:15.883Z</time>
</trkpt>
<trkpt lat="-27.3491672" lon="152.8818049">
<ele>64.979</ele>
<time>2015-12-26T23:50:18.767Z</time>
</trkpt>
<trkpt lat="-27.3488797" lon="152.8816116">
<ele>64.193</ele>
<time>2015-12-26T23:50:21.581Z</time>
</trkpt>
<trkpt lat="-27.3486522" lon="152.8814093">
<ele>65.188</ele>
<time>2015-12-26T23:50:23.508Z</time>
</trkpt>
<trkpt lat="-27.3484033" lon="152.8811715">
<ele>67.946</ele>
<time>2015-12-26T23:50:25.492Z</time>
</trkpt>
<trkpt lat="-27.3481547" lon="152.8809003">
<ele>71.687</ele>
<time>2015-12-26T23:50:27.530Z</time>
</trkpt>
<trkpt lat="-27.3479270" lon="152.8806138">
<ele>75.207</ele>
<time>2015-12-26T23:50:29.530Z</time>
</trkpt>
<trkpt lat="-27.3475894" lon="152.8801831">
<ele>77.751</ele>
<time>2015-12-26T23:50:32.518Z</time>
</trkpt>
<trkpt lat="-27.3472491" lon="152.8797867">
<ele>79.181</ele>
<time>2015-12-26T23:50:35.402Z</time>
</trkpt>
<trkpt lat="-27.3470274" lon="152.8794885">
<ele>80.069</ele>
<time>2015-12-26T23:50:37.464Z</time>
</trkpt>
<trkpt lat="-27.3466980" lon="152.8790345">
<ele>81.225</ele>
<time>2015-12-26T23:50:40.595Z</time>
</trkpt>
<trkpt lat="-27.3463899" lon="152.8785835">
<ele>82.977</ele>
<time>2015-12-26T23:50:43.655Z</time>
</trkpt>
<trkpt lat="-27.3462096" lon="152.8780905">
<ele>85.038</ele>
<time>2015-12-26T23:50:46.478Z</time>
</trkpt>
<trkpt lat="-27.3461563" lon="152.8776756">
<ele>86.801</ele>
<time>2015-12-26T23:50:48.587Z</time>
</trkpt>
<trkpt lat="-27.3460823" lon="152.8773347">
<ele>87.783</ele>
<time>2015-12-26T23:50:50.322Z</time>
</trkpt>
<trkpt lat="-27.3458869" lon="152.8767697">
<ele>88.058</ele>
<time>2015-12-26T23:50:53.303Z</time>
</trkpt>
<trkpt lat="-27.3457503" lon="152.8763954">
<ele>87.829</ele>
<time>2015-12-26T23:50:55.286Z</time>
</trkpt>
<trkpt lat="-27.3455198" lon="152.8758277">
<ele>87.108</ele>
<time>2015-12-26T23:50:58.365Z</time>
</trkpt>
<trkpt lat="-27.3453820" lon="152.8754478">
<ele>85.860</ele>
<time>2015-12-26T23:51:00.424Z</time>
</trkpt>
<trkpt lat="-27.3452237" lon="152.8749056">
<ele>84.367</ele>
<time>2015-12-26T23:51:03.313Z</time>
</trkpt>
<trkpt lat="-27.3451530" lon="152.8743220">
<ele>83.206</ele>
<time>2015-12-26T23:51:06.312Z</time>
</trkpt>
<trkpt lat="-27.3450063" lon="152.8737776">
<ele>82.761</ele>
<time>2015-12-26T23:51:09.193Z</time>
</trkpt>
<trkpt lat="-27.3448141" lon="152.8734176">
<ele>82.876</ele>
<time>2015-12-26T23:51:11.190Z</time>
</trkpt>
<trkpt lat="-27.3442958" lon="152.8730041">
<ele>82.989</ele>
<time>2015-12-26T23:51:14.384Z</time>
</trkpt>
<trkpt lat="-27.3439463" lon="152.8727632">
<ele>82.531</ele>
<time>2015-12-26T23:51:16.388Z</time>
</trkpt>
<trkpt lat="-27.3435973" lon="152.8725204">
<ele>81.164</ele>
<time>2015-12-26T23:51:18.435Z</time>
</trkpt>
<trkpt lat="-27.3431193" lon="152.8721498">
<ele>79.240</ele>
<time>2015-12-26T23:51:21.408Z</time>
</trkpt>
<trkpt lat="-27.3427977" lon="152.8719432">
<ele>78.404</ele>
<time>2015-12-26T23:51:23.367Z</time>
</trkpt>
<trkpt lat="-27.3422613" lon="152.8717826">
<ele>79.749</ele>
<time>2015-12-26T23:51:26.271Z</time>
</trkpt>
<trkpt lat="-27.3418655" lon="152.8717108">
<ele>82.176</ele>
<time>2015-12-26T23:51:28.299Z</time>
</trkpt>
<trkpt lat="-27.3412587" lon="152.8716493">
<ele>84.087</ele>
<time>2015-12-26T23:51:31.367Z</time>
</trkpt>
<trkpt lat="-27.3406841" lon="152.8716296">
<ele>84.594</ele>
<time>2015-12-26T23:51:34.267Z</time>
</trkpt>
<trkpt lat="-27.3402937" lon="152.8715927">
<ele>83.533</ele>
<time>2015-12-26T23:51:36.244Z</time>
</trkpt>
<trkpt lat="-27.3398995" lon="152.8715548">
<ele>81.601</ele>
<time>2015-12-26T23:51:38.236Z</time>
</trkpt>
<trkpt lat="-27.3393008" lon="152.8715191">
<ele>79.629</ele>
<time>2015-12-26T23:51:41.253Z</time>
</trkpt>
<trkpt lat="-27.3389069" lon="152.8715072">
<ele>78.084</ele>
<time>2015-12-26T23:51:43.245Z</time>
</trkpt>
<trkpt lat="-27.3385219" lon="152.8714779">
<ele>77.079</ele>
<time>2015-12-26T23:51:45.206Z</time>
</trkpt>
<trkpt lat="-27.3379390" lon="152.8714860">
<ele>76.457</ele>
<time>2015-12-26T23:51:48.181Z</time>
</trkpt>
<trkpt lat="-27.3373559" lon="152.8714678">
<ele>76.410</ele>
<time>2015-12-26T23:51:51.193Z</time>
</trkpt>
<trkpt lat="-27.3367809" lon="152.8714515">
<ele>77.322</ele>
<time>2015-12-26T23:51:54.220Z</time>
</trkpt>
<trkpt lat="-27.3362268" lon="152.8714547">
<ele>78.917</ele>
<time>2015-12-26T23:51:57.152Z</time>
</trkpt>
<trkpt lat="-27.3356590" lon="152.8715740">
<ele>80.353</ele>
<time>2015-12-26T23:52:00.154Z</time>
</trkpt>
<trkpt lat="-27.3352773" lon="152.8716934">
<ele>81.075</ele>
<time>2015-12-26T23:52:02.195Z</time>
</trkpt>
<trkpt lat="-27.3347188" lon="152.8718301">
<ele>80.844</ele>
<time>2015-12-26T23:52:05.159Z</time>
</trkpt>
<trkpt lat="-27.3341451" lon="152.8718535">
<ele>79.129</ele>
<time>2015-12-26T23:52:08.143Z</time>
</trkpt>
<trkpt lat="-27.3335675" lon="152.8717092">
<ele>75.506</ele>
<time>2015-12-26T23:52:11.197Z</time>
</trkpt>
<trkpt lat="-27.3332258" lon="152.8714833">
<ele>70.688</ele>
<time>2015-12-26T23:52:13.237Z</time>
</trkpt>
<trkpt lat="-27.3327967" lon="152.8710494">
<ele>65.898</ele>
<time>2015-12-26T23:52:16.209Z</time>
</trkpt>
<trkpt lat="-27.3325216" lon="152.8705033">
<ele>62.142</ele>
<time>2015-12-26T23:52:19.075Z</time>
</trkpt>
<trkpt lat="-27.3323492" lon="152.8698828">
<ele>60.197</ele>
<time>2015-12-26T23:52:22.034Z</time>
</trkpt>
<trkpt lat="-27.3322254" lon="152.8694620">
<ele>61.000</ele>
<time>2015-12-26T23:52:24.116Z</time>
</trkpt>
<trkpt lat="-27.3320091" lon="152.8689313">
<ele>64.723</ele>
<time>2015-12-26T23:52:27.004Z</time>
</trkpt>
<trkpt lat="-27.3318185" lon="152.8686325">
<ele>69.583</ele>
<time>2015-12-26T23:52:28.921Z</time>
</trkpt>
<trkpt lat="-27.3314820" lon="152.8681886">
<ele>73.221</ele>
<time>2015-12-26T23:52:31.927Z</time>
</trkpt>
<trkpt lat="-27.3312308" lon="152.8678936">
<ele>75.048</ele>
<time>2015-12-26T23:52:33.887Z</time>
</trkpt>
<trkpt lat="-27.3307090" lon="152.8674929">
<ele>75.680</ele>
<time>2015-12-26T23:52:37.081Z</time>
</trkpt>
<trkpt lat="-27.3303649" lon="152.8672529">
<ele>75.774</ele>
<time>2015-12-26T23:52:39.048Z</time>
</trkpt>
<trkpt lat="-27.3297981" lon="152.8669666">
<ele>75.311</ele>
<time>2015-12-26T23:52:42.086Z</time>
</trkpt>
<trkpt lat="-27.3294203" lon="152.8668449">
<ele>73.646</ele>
<time>2015-12-26T23:52:44.054Z</time>
</trkpt>
<trkpt lat="-27.3290437" lon="152.8667339">
<ele>70.593</ele>
<time>2015-12-26T23:52:46.022Z</time>
</trkpt>
<trkpt lat="-27.3286484" lon="152.8666399">
<ele>67.011</ele>
<time>2015-12-26T23:52:48.049Z</time>
</trkpt>
<trkpt lat="-27.3282735" lon="152.8665062">
<ele>63.867</ele>
<time>2015-12-26T23:52:50.000Z</time>
</trkpt>
<trkpt lat="-27.3278969" lon="152.8663166">
<ele>61.631</ele>
<time>2015-12-26T23:52:52.030Z</time>
</trkpt>
<trkpt lat="-27.3273815" lon="152.8659422">
<ele>60.428</ele>
<time>2015-12-26T23:52:55.020Z</time>
</trkpt>
<trkpt lat="-27.3270578" lon="152.8656506">
<ele>60.109</ele>
<time>2015-12-26T23:52:57.038Z</time>
</trkpt>
<trkpt lat="-27.3267628" lon="152.8653368">
<ele>60.402</ele>
<time>2015-12-26T23:52:59.050Z</time>
</trkpt>
<trkpt lat="-27.3263707" lon="152.8648432">
<ele>60.977</ele>
<time>2015-12-26T23:53:02.023Z</time>
</trkpt>
<trkpt lat="-27.3259912" lon="152.8643121">
<ele>61.453</ele>
<time>2015-12-26T23:53:05.107Z</time>
</trkpt>
<trkpt lat="-27.3257405" lon="152.8639683">
<ele>61.696</ele>
<time>2015-12-26T23:53:07.101Z</time>
</trkpt>
<trkpt lat="-27.3253710" lon="152.8634533">
<ele>61.826</ele>
<time>2015-12-26T23:53:10.084Z</time>
</trkpt>
<trkpt lat="-27.3251333" lon="152.8631257">
<ele>61.941</ele>
<time>2015-12-26T23:53:12.030Z</time>
</trkpt>
<trkpt lat="-27.3247548" lon="152.8626427">
<ele>62.285</ele>
<time>2015-12-26T23:53:15.023Z</time>
</trkpt>
<trkpt lat="-27.3244728" lon="152.8623573">
<ele>63.045</ele>
<time>2015-12-26T23:53:17.002Z</time>
</trkpt>
<trkpt lat="-27.3241638" lon="152.8621021">
<ele>64.052</ele>
<time>2015-12-26T23:53:18.983Z</time>
</trkpt>
<trkpt lat="-27.3238304" lon="152.8618714">
<ele>65.088</ele>
<time>2015-12-26T23:53:20.981Z</time>
</trkpt>
<trkpt lat="-27.3234697" lon="152.8616781">
<ele>66.254</ele>
<time>2015-12-26T23:53:23.008Z</time>
</trkpt>
<trkpt lat="-27.3231044" lon="152.8615332">
<ele>67.699</ele>
<time>2015-12-26T23:53:24.969Z</time>
</trkpt>
<trkpt lat="-27.3227211" lon="152.8614372">
<ele>69.226</ele>
<time>2015-12-26T23:53:26.954Z</time>
</trkpt>
<trkpt lat="-27.3221376" lon="152.8612875">
<ele>70.363</ele>
<time>2015-12-26T23:53:29.968Z</time>
</trkpt>
<trkpt lat="-27.3217611" lon="152.8611949">
<ele>70.892</ele>
<time>2015-12-26T23:53:31.850Z</time>
</trkpt>
<trkpt lat="-27.3211237" lon="152.8610416">
<ele>71.274</ele>
<time>2015-12-26T23:53:34.869Z</time>
</trkpt>
<trkpt lat="-27.3206709" lon="152.8609135">
<ele>72.617</ele>
<time>2015-12-26T23:53:36.863Z</time>
</trkpt>
<trkpt lat="-27.3199334" lon="152.8607235">
<ele>75.457</ele>
<time>2015-12-26T23:53:39.976Z</time>
</trkpt>
<trkpt lat="-27.3191966" lon="152.8605384">
<ele>79.143</ele>
<time>2015-12-26T23:53:43.024Z</time>
</trkpt>
<trkpt lat="-27.3184850" lon="152.8603319">
<ele>82.536</ele>
<time>2015-12-26T23:53:45.991Z</time>
</trkpt>
<trkpt lat="-27.3180246" lon="152.8602033">
<ele>84.823</ele>
<time>2015-12-26T23:53:47.930Z</time>
</trkpt>
<trkpt lat="-27.3173673" lon="152.8599767">
<ele>85.973</ele>
<time>2015-12-26T23:53:50.763Z</time>
</trkpt>
<trkpt lat="-27.3167286" lon="152.8596012">
<ele>86.713</ele>
<time>2015-12-26T23:53:53.743Z</time>
</trkpt>
<trkpt lat="-27.3161691" lon="152.8590826">
<ele>87.571</ele>
<time>2015-12-26T23:53:56.717Z</time>
</trkpt>
<trkpt lat="-27.3158435" lon="152.8586647">
<ele>88.551</ele>
<time>2015-12-26T23:53:58.723Z</time>
</trkpt>
<trkpt lat="-27.3155265" lon="152.8582339">
<ele>89.545</ele>
<time>2015-12-26T23:54:00.733Z</time>
</trkpt>
<trkpt lat="-27.3151849" lon="152.8578404">
<ele>90.455</ele>
<time>2015-12-26T23:54:02.704Z</time>
</trkpt>
<trkpt lat="-27.3148000" lon="152.8575059">
<ele>91.056</ele>
<time>2015-12-26T23:54:04.665Z</time>
</trkpt>
<trkpt lat="-27.3141499" lon="152.8571175">
<ele>91.275</ele>
<time>2015-12-26T23:54:07.638Z</time>
</trkpt>
<trkpt lat="-27.3136770" lon="152.8569219">
<ele>90.928</ele>
<time>2015-12-26T23:54:09.670Z</time>
</trkpt>
<trkpt lat="-27.3129706" lon="152.8566620">
<ele>89.912</ele>
<time>2015-12-26T23:54:12.644Z</time>
</trkpt>
<trkpt lat="-27.3124993" lon="152.8563951">
<ele>88.773</ele>
<time>2015-12-26T23:54:14.722Z</time>
</trkpt>
<trkpt lat="-27.3118504" lon="152.8559290">
<ele>87.952</ele>
<time>2015-12-26T23:54:17.739Z</time>
</trkpt>
<trkpt lat="-27.3113415" lon="152.8553213">
<ele>86.718</ele>
<time>2015-12-26T23:54:20.676Z</time>
</trkpt>
<trkpt lat="-27.3110375" lon="152.8548826">
<ele>84.147</ele>
<time>2015-12-26T23:54:22.643Z</time>
</trkpt>
<trkpt lat="-27.3107904" lon="152.8543806">
<ele>80.759</ele>
<time>2015-12-26T23:54:24.668Z</time>
</trkpt>
<trkpt lat="-27.3105803" lon="152.8538775">
<ele>77.901</ele>
<time>2015-12-26T23:54:26.642Z</time>
</trkpt>
<trkpt lat="-27.3103621" lon="152.8530995">
<ele>75.655</ele>
<time>2015-12-26T23:54:29.556Z</time>
</trkpt>
<trkpt lat="-27.3103130" lon="152.8525289">
<ele>73.057</ele>
<time>2015-12-26T23:54:31.590Z</time>
</trkpt>
<trkpt lat="-27.3103166" lon="152.8519468">
<ele>69.787</ele>
<time>2015-12-26T23:54:33.644Z</time>
</trkpt>
<trkpt lat="-27.3104404" lon="152.8511234">
<ele>66.573</ele>
<time>2015-12-26T23:54:36.606Z</time>
</trkpt>
<trkpt lat="-27.3105640" lon="152.8505913">
<ele>63.909</ele>
<time>2015-12-26T23:54:38.573Z</time>
</trkpt>
<trkpt lat="-27.3107676" lon="152.8497912">
<ele>61.430</ele>
<time>2015-12-26T23:54:41.531Z</time>
</trkpt>
<trkpt lat="-27.3109512" lon="152.8489613">
<ele>59.135</ele>
<time>2015-12-26T23:54:44.528Z</time>
</trkpt>
<trkpt lat="-27.3110579" lon="152.8481289">
<ele>57.941</ele>
<time>2015-12-26T23:54:47.479Z</time>
</trkpt>
<trkpt lat="-27.3110579" lon="152.8475661">
<ele>58.369</ele>
<time>2015-12-26T23:54:49.476Z</time>
</trkpt>
<trkpt lat="-27.3110278" lon="152.8469936">
<ele>59.805</ele>
<time>2015-12-26T23:54:51.529Z</time>
</trkpt>
<trkpt lat="-27.3109281" lon="152.8464783">
<ele>61.170</ele>
<time>2015-12-26T23:54:53.442Z</time>
</trkpt>
<trkpt lat="-27.3107964" lon="152.8459499">
<ele>61.887</ele>
<time>2015-12-26T23:54:55.450Z</time>
</trkpt>
<trkpt lat="-27.3105302" lon="152.8451060">
<ele>62.303</ele>
<time>2015-12-26T23:54:58.633Z</time>
</trkpt>
<trkpt lat="-27.3102550" lon="152.8446497">
<ele>63.312</ele>
<time>2015-12-26T23:55:00.574Z</time>
</trkpt>
<trkpt lat="-27.3097684" lon="152.8440050">
<ele>65.172</ele>
<time>2015-12-26T23:55:03.568Z</time>
</trkpt>
<trkpt lat="-27.3094288" lon="152.8436095">
<ele>67.291</ele>
<time>2015-12-26T23:55:05.531Z</time>
</trkpt>
<trkpt lat="-27.3088232" lon="152.8431391">
<ele>69.058</ele>
<time>2015-12-26T23:55:08.511Z</time>
</trkpt>
<trkpt lat="-27.3081765" lon="152.8427623">
<ele>70.088</ele>
<time>2015-12-26T23:55:11.459Z</time>
</trkpt>
<trkpt lat="-27.3077149" lon="152.8425857">
<ele>70.038</ele>
<time>2015-12-26T23:55:13.430Z</time>
</trkpt>
<trkpt lat="-27.3069876" lon="152.8423960">
<ele>68.766</ele>
<time>2015-12-26T23:55:16.455Z</time>
</trkpt>
<trkpt lat="-27.3062471" lon="152.8423637">
<ele>66.309</ele>
<time>2015-12-26T23:55:19.479Z</time>
</trkpt>
<trkpt lat="-27.3055221" lon="152.8424393">
<ele>63.442</ele>
<time>2015-12-26T23:55:22.451Z</time>
</trkpt>
<trkpt lat="-27.3047801" lon="152.8425908">
<ele>61.509</ele>
<time>2015-12-26T23:55:25.485Z</time>
</trkpt>
<trkpt lat="-27.3042870" lon="152.8426932">
<ele>61.466</ele>
<time>2015-12-26T23:55:27.503Z</time>
</trkpt>
<trkpt lat="-27.3038129" lon="152.8427835">
<ele>62.910</ele>
<time>2015-12-26T23:55:29.472Z</time>
</trkpt>
<trkpt lat="-27.3030998" lon="152.8429221">
<ele>64.278</ele>
<time>2015-12-26T23:55:32.476Z</time>
</trkpt>
<trkpt lat="-27.3024013" lon="152.8430900">
<ele>64.195</ele>
<time>2015-12-26T23:55:35.475Z</time>
</trkpt>
<trkpt lat="-27.3019330" lon="152.8431920">
<ele>62.353</ele>
<time>2015-12-26T23:55:37.476Z</time>
</trkpt>
<trkpt lat="-27.3012121" lon="152.8433540">
<ele>59.139</ele>
<time>2015-12-26T23:55:40.494Z</time>
</trkpt>
<trkpt lat="-27.3004827" lon="152.8434131">
<ele>55.535</ele>
<time>2015-12-26T23:55:43.469Z</time>
</trkpt>
<trkpt lat="-27.2999894" lon="152.8433844">
<ele>52.243</ele>
<time>2015-12-26T23:55:45.466Z</time>
</trkpt>
<trkpt lat="-27.2994924" lon="152.8432951">
<ele>49.303</ele>
<time>2015-12-26T23:55:47.487Z</time>
</trkpt>
<trkpt lat="-27.2987706" lon="152.8431089">
<ele>46.926</ele>
<time>2015-12-26T23:55:50.476Z</time>
</trkpt>
<trkpt lat="-27.2983046" lon="152.8429913">
<ele>45.474</ele>
<time>2015-12-26T23:55:52.432Z</time>
</trkpt>
<trkpt lat="-27.2976008" lon="152.8428242">
<ele>44.863</ele>
<time>2015-12-26T23:55:55.382Z</time>
</trkpt>
<trkpt lat="-27.2968657" lon="152.8426600">
<ele>44.763</ele>
<time>2015-12-26T23:55:58.428Z</time>
</trkpt>
<trkpt lat="-27.2963908" lon="152.8426077">
<ele>45.050</ele>
<time>2015-12-26T23:56:00.368Z</time>
</trkpt>
<trkpt lat="-27.2959213" lon="152.8424826">
<ele>45.647</ele>
<time>2015-12-26T23:56:02.350Z</time>
</trkpt>
<trkpt lat="-27.2952203" lon="152.8423217">
<ele>46.183</ele>
<time>2015-12-26T23:56:05.339Z</time>
</trkpt>
<trkpt lat="-27.2947578" lon="152.8422298">
<ele>46.194</ele>
<time>2015-12-26T23:56:07.330Z</time>
</trkpt>
<trkpt lat="-27.2940581" lon="152.8421301">
<ele>45.687</ele>
<time>2015-12-26T23:56:10.305Z</time>
</trkpt>
<trkpt lat="-27.2933233" lon="152.8420693">
<ele>45.235</ele>
<time>2015-12-26T23:56:13.362Z</time>
</trkpt>
<trkpt lat="-27.2928406" lon="152.8420943">
<ele>45.334</ele>
<time>2015-12-26T23:56:15.358Z</time>
</trkpt>
<trkpt lat="-27.2923558" lon="152.8421269">
<ele>45.802</ele>
<time>2015-12-26T23:56:17.369Z</time>
</trkpt>
<trkpt lat="-27.2916463" lon="152.8422437">
<ele>46.189</ele>
<time>2015-12-26T23:56:20.339Z</time>
</trkpt>
<trkpt lat="-27.2911604" lon="152.8423540">
<ele>46.312</ele>
<time>2015-12-26T23:56:22.370Z</time>
</trkpt>
<trkpt lat="-27.2906760" lon="152.8424648">
<ele>46.356</ele>
<time>2015-12-26T23:56:24.368Z</time>
</trkpt>
<trkpt lat="-27.2899555" lon="152.8426469">
<ele>46.592</ele>
<time>2015-12-26T23:56:27.337Z</time>
</trkpt>
<trkpt lat="-27.2894676" lon="152.8427493">
<ele>47.002</ele>
<time>2015-12-26T23:56:29.341Z</time>
</trkpt>
<trkpt lat="-27.2889896" lon="152.8428450">
<ele>47.333</ele>
<time>2015-12-26T23:56:31.319Z</time>
</trkpt>
<trkpt lat="-27.2882810" lon="152.8430221">
<ele>47.403</ele>
<time>2015-12-26T23:56:34.308Z</time>
</trkpt>
<trkpt lat="-27.2875775" lon="152.8432077">
<ele>47.386</ele>
<time>2015-12-26T23:56:37.267Z</time>
</trkpt>
<trkpt lat="-27.2870879" lon="152.8433198">
<ele>47.666</ele>
<time>2015-12-26T23:56:39.288Z</time>
</trkpt>
<trkpt lat="-27.2866098" lon="152.8434327">
<ele>48.433</ele>
<time>2015-12-26T23:56:41.258Z</time>
</trkpt>
<trkpt lat="-27.2858923" lon="152.8436757">
<ele>49.408</ele>
<time>2015-12-26T23:56:44.269Z</time>
</trkpt>
<trkpt lat="-27.2852000" lon="152.8439797">
<ele>49.978</ele>
<time>2015-12-26T23:56:47.242Z</time>
</trkpt>
<trkpt lat="-27.2847445" lon="152.8442158">
<ele>49.705</ele>
<time>2015-12-26T23:56:49.260Z</time>
</trkpt>
<trkpt lat="-27.2840690" lon="152.8445630">
<ele>48.575</ele>
<time>2015-12-26T23:56:52.273Z</time>
</trkpt>
<trkpt lat="-27.2836376" lon="152.8448002">
<ele>46.688</ele>
<time>2015-12-26T23:56:54.221Z</time>
</trkpt>
<trkpt lat="-27.2829668" lon="152.8451594">
<ele>44.544</ele>
<time>2015-12-26T23:56:57.231Z</time>
</trkpt>
<trkpt lat="-27.2825178" lon="152.8454025">
<ele>42.998</ele>
<time>2015-12-26T23:56:59.245Z</time>
</trkpt>
<trkpt lat="-27.2820715" lon="152.8456373">
<ele>42.452</ele>
<time>2015-12-26T23:57:01.232Z</time>
</trkpt>
<trkpt lat="-27.2814021" lon="152.8460058">
<ele>42.694</ele>
<time>2015-12-26T23:57:04.215Z</time>
</trkpt>
<trkpt lat="-27.2807242" lon="152.8463715">
<ele>43.459</ele>
<time>2015-12-26T23:57:07.213Z</time>
</trkpt>
<trkpt lat="-27.2802816" lon="152.8466211">
<ele>44.512</ele>
<time>2015-12-26T23:57:09.216Z</time>
</trkpt>
<trkpt lat="-27.2796199" lon="152.8469879">
<ele>45.496</ele>
<time>2015-12-26T23:57:12.214Z</time>
</trkpt>
<trkpt lat="-27.2791748" lon="152.8472336">
<ele>46.171</ele>
<time>2015-12-26T23:57:14.218Z</time>
</trkpt>
<trkpt lat="-27.2787392" lon="152.8474716">
<ele>46.634</ele>
<time>2015-12-26T23:57:16.190Z</time>
</trkpt>
<trkpt lat="-27.2780933" lon="152.8477995">
<ele>47.039</ele>
<time>2015-12-26T23:57:19.118Z</time>
</trkpt>
<trkpt lat="-27.2776578" lon="152.8480059">
<ele>47.632</ele>
<time>2015-12-26T23:57:21.089Z</time>
</trkpt>
<trkpt lat="-27.2772176" lon="152.8481983">
<ele>48.483</ele>
<time>2015-12-26T23:57:23.063Z</time>
</trkpt>
<trkpt lat="-27.2767791" lon="152.8483921">
<ele>49.205</ele>
<time>2015-12-26T23:57:25.051Z</time>
</trkpt>
<trkpt lat="-27.2763327" lon="152.8485758">
<ele>49.413</ele>
<time>2015-12-26T23:57:27.055Z</time>
</trkpt>
<trkpt lat="-27.2758687" lon="152.8487397">
<ele>49.360</ele>
<time>2015-12-26T23:57:29.078Z</time>
</trkpt>
<trkpt lat="-27.2751414" lon="152.8489823">
<ele>49.517</ele>
<time>2015-12-26T23:57:32.123Z</time>
</trkpt>
<trkpt lat="-27.2746374" lon="152.8491413">
<ele>49.894</ele>
<time>2015-12-26T23:57:34.124Z</time>
</trkpt>
<trkpt lat="-27.2740912" lon="152.8492915">
<ele>50.098</ele>
<time>2015-12-26T23:57:36.168Z</time>
</trkpt>
<trkpt lat="-27.2731868" lon="152.8495201">
<ele>50.002</ele>
<time>2015-12-26T23:57:39.277Z</time>
</trkpt>
<trkpt lat="-27.2725394" lon="152.8496580">
<ele>50.741</ele>
<time>2015-12-26T23:57:41.329Z</time>
</trkpt>
<trkpt lat="-27.2718740" lon="152.8497788">
<ele>53.531</ele>
<time>2015-12-26T23:57:43.375Z</time>
</trkpt>
<trkpt lat="-27.2709034" lon="152.8499273">
<ele>57.209</ele>
<time>2015-12-26T23:57:46.420Z</time>
</trkpt>
<trkpt lat="-27.2703303" lon="152.8500206">
<ele>59.295</ele>
<time>2015-12-26T23:57:48.357Z</time>
</trkpt>
<trkpt lat="-27.2695396" lon="152.8501629">
<ele>58.637</ele>
<time>2015-12-26T23:57:51.241Z</time>
</trkpt>
<trkpt lat="-27.2687879" lon="152.8503166">
<ele>55.741</ele>
<time>2015-12-26T23:57:54.167Z</time>
</trkpt>
<trkpt lat="-27.2682894" lon="152.8504153">
<ele>52.363</ele>
<time>2015-12-26T23:57:56.160Z</time>
</trkpt>
<trkpt lat="-27.2675554" lon="152.8505655">
<ele>50.214</ele>
<time>2015-12-26T23:57:59.124Z</time>
</trkpt>
<trkpt lat="-27.2670595" lon="152.8506664">
<ele>49.599</ele>
<time>2015-12-26T23:58:01.132Z</time>
</trkpt>
<trkpt lat="-27.2665705" lon="152.8507543">
<ele>49.919</ele>
<time>2015-12-26T23:58:03.113Z</time>
</trkpt>
<trkpt lat="-27.2660760" lon="152.8508520">
<ele>50.777</ele>
<time>2015-12-26T23:58:05.122Z</time>
</trkpt>
<trkpt lat="-27.2653355" lon="152.8509798">
<ele>51.791</ele>
<time>2015-12-26T23:58:08.116Z</time>
</trkpt>
<trkpt lat="-27.2645940" lon="152.8511109">
<ele>52.537</ele>
<time>2015-12-26T23:58:11.113Z</time>
</trkpt>
<trkpt lat="-27.2640967" lon="152.8511933">
<ele>52.971</ele>
<time>2015-12-26T23:58:13.118Z</time>
</trkpt>
<trkpt lat="-27.2636082" lon="152.8512897">
<ele>53.249</ele>
<time>2015-12-26T23:58:15.093Z</time>
</trkpt>
<trkpt lat="-27.2628665" lon="152.8514341">
<ele>53.031</ele>
<time>2015-12-26T23:58:18.088Z</time>
</trkpt>
<trkpt lat="-27.2623715" lon="152.8515285">
<ele>51.612</ele>
<time>2015-12-26T23:58:20.080Z</time>
</trkpt>
<trkpt lat="-27.2616384" lon="152.8516755">
<ele>48.784</ele>
<time>2015-12-26T23:58:23.034Z</time>
</trkpt>
<trkpt lat="-27.2611304" lon="152.8517283">
<ele>45.218</ele>
<time>2015-12-26T23:58:25.056Z</time>
</trkpt>
<trkpt lat="-27.2606259" lon="152.8517430">
<ele>42.138</ele>
<time>2015-12-26T23:58:27.056Z</time>
</trkpt>
<trkpt lat="-27.2601354" lon="152.8517387">
<ele>40.461</ele>
<time>2015-12-26T23:58:29.009Z</time>
</trkpt>
<trkpt lat="-27.2593934" lon="152.8516558">
<ele>40.083</ele>
<time>2015-12-26T23:58:31.998Z</time>
</trkpt>
<trkpt lat="-27.2589007" lon="152.8515613">
<ele>40.421</ele>
<time>2015-12-26T23:58:34.010Z</time>
</trkpt>
<trkpt lat="-27.2584280" lon="152.8514348">
<ele>41.201</ele>
<time>2015-12-26T23:58:35.989Z</time>
</trkpt>
<trkpt lat="-27.2577476" lon="152.8511991">
<ele>42.359</ele>
<time>2015-12-26T23:58:38.927Z</time>
</trkpt>
<trkpt lat="-27.2572942" lon="152.8510016">
<ele>43.694</ele>
<time>2015-12-26T23:58:40.935Z</time>
</trkpt>
<trkpt lat="-27.2568557" lon="152.8507627">
<ele>45.088</ele>
<time>2015-12-26T23:58:42.940Z</time>
</trkpt>
<trkpt lat="-27.2564238" lon="152.8504928">
<ele>46.485</ele>
<time>2015-12-26T23:58:44.965Z</time>
</trkpt>
<trkpt lat="-27.2558057" lon="152.8500262">
<ele>47.711</ele>
<time>2015-12-26T23:58:47.988Z</time>
</trkpt>
<trkpt lat="-27.2554023" lon="152.8497003">
<ele>48.589</ele>
<time>2015-12-26T23:58:49.984Z</time>
</trkpt>
<trkpt lat="-27.2550254" lon="152.8493370">
<ele>48.996</ele>
<time>2015-12-26T23:58:51.969Z</time>
</trkpt>
<trkpt lat="-27.2545210" lon="152.8487280">
<ele>48.920</ele>
<time>2015-12-26T23:58:54.959Z</time>
</trkpt>
<trkpt lat="-27.2540601" lon="152.8480976">
<ele>48.089</ele>
<time>2015-12-26T23:58:57.927Z</time>
</trkpt>
<trkpt lat="-27.2537304" lon="152.8476809">
<ele>46.244</ele>
<time>2015-12-26T23:58:59.952Z</time>
</trkpt>
<trkpt lat="-27.2532727" lon="152.8470492">
<ele>44.199</ele>
<time>2015-12-26T23:59:02.896Z</time>
</trkpt>
<trkpt lat="-27.2528007" lon="152.8463861">
<ele>42.904</ele>
<time>2015-12-26T23:59:05.950Z</time>
</trkpt>
<trkpt lat="-27.2523234" lon="152.8457404">
<ele>42.304</ele>
<time>2015-12-26T23:59:08.958Z</time>
</trkpt>
<trkpt lat="-27.2519909" lon="152.8453216">
<ele>42.074</ele>
<time>2015-12-26T23:59:10.983Z</time>
</trkpt>
<trkpt lat="-27.2515409" lon="152.8446858">
<ele>41.933</ele>
<time>2015-12-26T23:59:13.944Z</time>
</trkpt>
<trkpt lat="-27.2512757" lon="152.8442386">
<ele>41.689</ele>
<time>2015-12-26T23:59:15.904Z</time>
</trkpt>
<trkpt lat="-27.2509001" lon="152.8435152">
<ele>41.548</ele>
<time>2015-12-26T23:59:18.907Z</time>
</trkpt>
<trkpt lat="-27.2506922" lon="152.8430013">
<ele>42.054</ele>
<time>2015-12-26T23:59:20.894Z</time>
</trkpt>
<trkpt lat="-27.2504952" lon="152.8424692">
<ele>43.403</ele>
<time>2015-12-26T23:59:22.906Z</time>
</trkpt>
<trkpt lat="-27.2503688" lon="152.8419352">
<ele>45.275</ele>
<time>2015-12-26T23:59:24.841Z</time>
</trkpt>
<trkpt lat="-27.2502639" lon="152.8413990">
<ele>47.423</ele>
<time>2015-12-26T23:59:26.782Z</time>
</trkpt>
<trkpt lat="-27.2501311" lon="152.8405739">
<ele>50.054</ele>
<time>2015-12-26T23:59:29.775Z</time>
</trkpt>
<trkpt lat="-27.2500454" lon="152.8400441">
<ele>53.109</ele>
<time>2015-12-26T23:59:31.718Z</time>
</trkpt>
<trkpt lat="-27.2499245" lon="152.8395086">
<ele>55.810</ele>
<time>2015-12-26T23:59:33.724Z</time>
</trkpt>
<trkpt lat="-27.2497659" lon="152.8389924">
<ele>57.394</ele>
<time>2015-12-26T23:59:35.696Z</time>
</trkpt>
<trkpt lat="-27.2494549" lon="152.8381824">
<ele>57.769</ele>
<time>2015-12-26T23:59:38.827Z</time>
</trkpt>
<trkpt lat="-27.2491956" lon="152.8377173">
<ele>57.092</ele>
<time>2015-12-26T23:59:40.756Z</time>
</trkpt>
<trkpt lat="-27.2487150" lon="152.8370881">
<ele>55.483</ele>
<time>2015-12-26T23:59:43.720Z</time>
</trkpt>
<trkpt lat="-27.2483734" lon="152.8367127">
<ele>52.686</ele>
<time>2015-12-26T23:59:45.680Z</time>
</trkpt>
<trkpt lat="-27.2480259" lon="152.8363256">
<ele>49.137</ele>
<time>2015-12-26T23:59:47.700Z</time>
</trkpt>
<trkpt lat="-27.2474976" lon="152.8357592">
<ele>46.424</ele>
<time>2015-12-26T23:59:50.705Z</time>
</trkpt>
<trkpt lat="-27.2471606" lon="152.8353820">
<ele>45.898</ele>
<time>2015-12-26T23:59:52.661Z</time>
</trkpt>
<trkpt lat="-27.2468239" lon="152.8350133">
<ele>47.459</ele>
<time>2015-12-26T23:59:54.617Z</time>
</trkpt>
<trkpt lat="-27.2462740" lon="152.8344987">
<ele>50.014</ele>
<time>2015-12-26T23:59:57.619Z</time>
</trkpt>
<trkpt lat="-27.2456392" lon="152.8340606">
<ele>52.869</ele>
<time>2015-12-27T00:00:00.677Z</time>
</trkpt>
<trkpt lat="-27.2449277" lon="152.8338015">
<ele>56.706</ele>
<time>2015-12-27T00:00:03.677Z</time>
</trkpt>
<trkpt lat="-27.2441842" lon="152.8336420">
<ele>61.253</ele>
<time>2015-12-27T00:00:06.683Z</time>
</trkpt>
<trkpt lat="-27.2436813" lon="152.8335544">
<ele>64.698</ele>
<time>2015-12-27T00:00:08.689Z</time>
</trkpt>
<trkpt lat="-27.2429207" lon="152.8333798">
<ele>66.055</ele>
<time>2015-12-27T00:00:11.735Z</time>
</trkpt>
<trkpt lat="-27.2424339" lon="152.8331893">
<ele>66.087</ele>
<time>2015-12-27T00:00:13.752Z</time>
</trkpt>
<trkpt lat="-27.2417301" lon="152.8328952">
<ele>65.873</ele>
<time>2015-12-27T00:00:16.723Z</time>
</trkpt>
<trkpt lat="-27.2412772" lon="152.8327165">
<ele>65.936</ele>
<time>2015-12-27T00:00:18.670Z</time>
</trkpt>
<trkpt lat="-27.2405769" lon="152.8325405">
<ele>66.212</ele>
<time>2015-12-27T00:00:21.637Z</time>
</trkpt>
<trkpt lat="-27.2400877" lon="152.8324777">
<ele>66.562</ele>
<time>2015-12-27T00:00:23.668Z</time>
</trkpt>
<trkpt lat="-27.2393332" lon="152.8324688">
<ele>66.887</ele>
<time>2015-12-27T00:00:26.725Z</time>
</trkpt>
<trkpt lat="-27.2385899" lon="152.8324439">
<ele>67.414</ele>
<time>2015-12-27T00:00:29.715Z</time>
</trkpt>
<trkpt lat="-27.2380986" lon="152.8323917">
<ele>68.270</ele>
<time>2015-12-27T00:00:31.708Z</time>
</trkpt>
<trkpt lat="-27.2373761" lon="152.8322327">
<ele>69.167</ele>
<time>2015-12-27T00:00:34.692Z</time>
</trkpt>
<trkpt lat="-27.2369379" lon="152.8321277">
<ele>70.140</ele>
<time>2015-12-27T00:00:36.530Z</time>
</trkpt>
<trkpt lat="-27.2362517" lon="152.8317979">
<ele>71.385</ele>
<time>2015-12-27T00:00:39.628Z</time>
</trkpt>
<trkpt lat="-27.2355885" lon="152.8314388">
<ele>72.739</ele>
<time>2015-12-27T00:00:42.656Z</time>
</trkpt>
<trkpt lat="-27.2349332" lon="152.8310737">
<ele>74.466</ele>
<time>2015-12-27T00:00:45.648Z</time>
</trkpt>
<trkpt lat="-27.2345048" lon="152.8308625">
<ele>76.848</ele>
<time>2015-12-27T00:00:47.588Z</time>
</trkpt>
<trkpt lat="-27.2338499" lon="152.8305722">
<ele>79.110</ele>
<time>2015-12-27T00:00:50.548Z</time>
</trkpt>
<trkpt lat="-27.2333768" lon="152.8304022">
<ele>80.354</ele>
<time>2015-12-27T00:00:52.606Z</time>
</trkpt>
<trkpt lat="-27.2328941" lon="152.8302412">
<ele>80.624</ele>
<time>2015-12-27T00:00:54.638Z</time>
</trkpt>
<trkpt lat="-27.2321645" lon="152.8300657">
<ele>80.435</ele>
<time>2015-12-27T00:00:57.625Z</time>
</trkpt>
<trkpt lat="-27.2314371" lon="152.8299620">
<ele>80.162</ele>
<time>2015-12-27T00:01:00.594Z</time>
</trkpt>
<trkpt lat="-27.2307121" lon="152.8298790">
<ele>79.557</ele>
<time>2015-12-27T00:01:03.584Z</time>
</trkpt>
<trkpt lat="-27.2300014" lon="152.8298388">
<ele>77.971</ele>
<time>2015-12-27T00:01:06.530Z</time>
</trkpt>
<trkpt lat="-27.2295154" lon="152.8298077">
<ele>75.440</ele>
<time>2015-12-27T00:01:08.539Z</time>
</trkpt>
<trkpt lat="-27.2287806" lon="152.8297642">
<ele>72.746</ele>
<time>2015-12-27T00:01:11.553Z</time>
</trkpt>
<trkpt lat="-27.2280523" lon="152.8297293">
<ele>70.443</ele>
<time>2015-12-27T00:01:14.523Z</time>
</trkpt>
<trkpt lat="-27.2273115" lon="152.8296923">
<ele>68.514</ele>
<time>2015-12-27T00:01:17.546Z</time>
</trkpt>
<trkpt lat="-27.2265824" lon="152.8296657">
<ele>66.799</ele>
<time>2015-12-27T00:01:20.528Z</time>
</trkpt>
<trkpt lat="-27.2260869" lon="152.8296932">
<ele>65.455</ele>
<time>2015-12-27T00:01:22.549Z</time>
</trkpt>
<trkpt lat="-27.2253447" lon="152.8297973">
<ele>64.773</ele>
<time>2015-12-27T00:01:25.568Z</time>
</trkpt>
<trkpt lat="-27.2248635" lon="152.8299144">
<ele>64.674</ele>
<time>2015-12-27T00:01:27.545Z</time>
</trkpt>
<trkpt lat="-27.2243893" lon="152.8300415">
<ele>64.513</ele>
<time>2015-12-27T00:01:29.501Z</time>
</trkpt>
<trkpt lat="-27.2236603" lon="152.8303407">
<ele>63.438</ele>
<time>2015-12-27T00:01:32.579Z</time>
</trkpt>
<trkpt lat="-27.2229647" lon="152.8306404">
<ele>61.273</ele>
<time>2015-12-27T00:01:35.497Z</time>
</trkpt>
<trkpt lat="-27.2224974" lon="152.8308663">
<ele>58.330</ele>
<time>2015-12-27T00:01:37.497Z</time>
</trkpt>
<trkpt lat="-27.2220422" lon="152.8310887">
<ele>54.909</ele>
<time>2015-12-27T00:01:39.468Z</time>
</trkpt>
<trkpt lat="-27.2215888" lon="152.8313275">
<ele>51.706</ele>
<time>2015-12-27T00:01:41.460Z</time>
</trkpt>
<trkpt lat="-27.2209107" lon="152.8316511">
<ele>49.374</ele>
<time>2015-12-27T00:01:44.413Z</time>
</trkpt>
<trkpt lat="-27.2203043" lon="152.8319499">
<ele>47.749</ele>
<time>2015-12-27T00:01:47.183Z</time>
</trkpt>
<trkpt lat="-27.2198992" lon="152.8321611">
<ele>46.189</ele>
<time>2015-12-27T00:01:49.131Z</time>
</trkpt>
<trkpt lat="-27.2194867" lon="152.8323698">
<ele>44.539</ele>
<time>2015-12-27T00:01:51.155Z</time>
</trkpt>
<trkpt lat="-27.2188862" lon="152.8326474">
<ele>43.375</ele>
<time>2015-12-27T00:01:54.070Z</time>
</trkpt>
<trkpt lat="-27.2184654" lon="152.8328332">
<ele>43.016</ele>
<time>2015-12-27T00:01:56.107Z</time>
</trkpt>
<trkpt lat="-27.2180479" lon="152.8329780">
<ele>43.063</ele>
<time>2015-12-27T00:01:58.092Z</time>
</trkpt>
<trkpt lat="-27.2174397" lon="152.8331328">
<ele>42.975</ele>
<time>2015-12-27T00:02:00.993Z</time>
</trkpt>
<trkpt lat="-27.2168730" lon="152.8332213">
<ele>42.511</ele>
<time>2015-12-27T00:02:03.798Z</time>
</trkpt>
<trkpt lat="-27.2165083" lon="152.8332399">
<ele>41.721</ele>
<time>2015-12-27T00:02:05.670Z</time>
</trkpt>
<trkpt lat="-27.2159436" lon="152.8332476">
<ele>40.700</ele>
<time>2015-12-27T00:02:08.693Z</time>
</trkpt>
<trkpt lat="-27.2155743" lon="152.8332096">
<ele>39.716</ele>
<time>2015-12-27T00:02:10.683Z</time>
</trkpt>
<trkpt lat="-27.2152041" lon="152.8331737">
<ele>39.158</ele>
<time>2015-12-27T00:02:12.673Z</time>
</trkpt>
<trkpt lat="-27.2146616" lon="152.8330543">
<ele>39.057</ele>
<time>2015-12-27T00:02:15.643Z</time>
</trkpt>
<trkpt lat="-27.2141416" lon="152.8328960">
<ele>39.092</ele>
<time>2015-12-27T00:02:18.558Z</time>
</trkpt>
<trkpt lat="-27.2137745" lon="152.8327579">
<ele>38.958</ele>
<time>2015-12-27T00:02:20.649Z</time>
</trkpt>
<trkpt lat="-27.2132172" lon="152.8325402">
<ele>38.666</ele>
<time>2015-12-27T00:02:23.760Z</time>
</trkpt>
<trkpt lat="-27.2127031" lon="152.8323276">
<ele>38.388</ele>
<time>2015-12-27T00:02:26.651Z</time>
</trkpt>
<trkpt lat="-27.2123653" lon="152.8321918">
<ele>38.172</ele>
<time>2015-12-27T00:02:28.581Z</time>
</trkpt>
<trkpt lat="-27.2120188" lon="152.8320650">
<ele>38.006</ele>
<time>2015-12-27T00:02:30.588Z</time>
</trkpt>
<trkpt lat="-27.2115086" lon="152.8318530">
<ele>38.008</ele>
<time>2015-12-27T00:02:33.587Z</time>
</trkpt>
<trkpt lat="-27.2111727" lon="152.8317221">
<ele>38.320</ele>
<time>2015-12-27T00:02:35.559Z</time>
</trkpt>
<trkpt lat="-27.2108434" lon="152.8315837">
<ele>38.841</ele>
<time>2015-12-27T00:02:37.532Z</time>
</trkpt>
<trkpt lat="-27.2103477" lon="152.8313645">
<ele>39.445</ele>
<time>2015-12-27T00:02:40.526Z</time>
</trkpt>
<trkpt lat="-27.2100182" lon="152.8312104">
<ele>40.397</ele>
<time>2015-12-27T00:02:42.528Z</time>
</trkpt>
<trkpt lat="-27.2095150" lon="152.8309526">
<ele>41.799</ele>
<time>2015-12-27T00:02:45.586Z</time>
</trkpt>
<trkpt lat="-27.2091908" lon="152.8307763">
<ele>43.352</ele>
<time>2015-12-27T00:02:47.559Z</time>
</trkpt>
<trkpt lat="-27.2087257" lon="152.8305249">
<ele>44.699</ele>
<time>2015-12-27T00:02:50.412Z</time>
</trkpt>
<trkpt lat="-27.2082776" lon="152.8302722">
<ele>45.444</ele>
<time>2015-12-27T00:02:53.275Z</time>
</trkpt>
<trkpt lat="-27.2079742" lon="152.8300703">
<ele>45.453</ele>
<time>2015-12-27T00:02:55.337Z</time>
</trkpt>
<trkpt lat="-27.2075069" lon="152.8297698">
<ele>44.959</ele>
<time>2015-12-27T00:02:58.451Z</time>
</trkpt>
<trkpt lat="-27.2070685" lon="152.8294485">
<ele>44.122</ele>
<time>2015-12-27T00:03:01.421Z</time>
</trkpt>
<trkpt lat="-27.2067851" lon="152.8292068">
<ele>43.166</ele>
<time>2015-12-27T00:03:03.434Z</time>
</trkpt>
<trkpt lat="-27.2063384" lon="152.8288754">
<ele>42.405</ele>
<time>2015-12-27T00:03:06.489Z</time>
</trkpt>
<trkpt lat="-27.2058588" lon="152.8286263">
<ele>41.969</ele>
<time>2015-12-27T00:03:09.487Z</time>
</trkpt>
<trkpt lat="-27.2054019" lon="152.8283396">
<ele>41.635</ele>
<time>2015-12-27T00:03:12.449Z</time>
</trkpt>
<trkpt lat="-27.2051296" lon="152.8281405">
<ele>41.097</ele>
<time>2015-12-27T00:03:14.302Z</time>
</trkpt>
<trkpt lat="-27.2047314" lon="152.8278067">
<ele>40.464</ele>
<time>2015-12-27T00:03:17.242Z</time>
</trkpt>
<trkpt lat="-27.2044649" lon="152.8275861">
<ele>40.059</ele>
<time>2015-12-27T00:03:19.226Z</time>
</trkpt>
<trkpt lat="-27.2042070" lon="152.8273573">
<ele>40.017</ele>
<time>2015-12-27T00:03:21.206Z</time>
</trkpt>
<trkpt lat="-27.2038096" lon="152.8269870">
<ele>40.297</ele>
<time>2015-12-27T00:03:24.303Z</time>
</trkpt>
<trkpt lat="-27.2035459" lon="152.8267482">
<ele>40.839</ele>
<time>2015-12-27T00:03:26.306Z</time>
</trkpt>
<trkpt lat="-27.2033217" lon="152.8265043">
<ele>41.514</ele>
<time>2015-12-27T00:03:28.134Z</time>
</trkpt>
<trkpt lat="-27.2029675" lon="152.8261692">
<ele>41.749</ele>
<time>2015-12-27T00:03:30.983Z</time>
</trkpt>
<trkpt lat="-27.2026176" lon="152.8258457">
<ele>40.989</ele>
<time>2015-12-27T00:03:33.902Z</time>
</trkpt>
<trkpt lat="-27.2024037" lon="152.8256586">
<ele>39.648</ele>
<time>2015-12-27T00:03:35.698Z</time>
</trkpt>
<trkpt lat="-27.2022035" lon="152.8254876">
<ele>38.530</ele>
<time>2015-12-27T00:03:37.437Z</time>
</trkpt>
<trkpt lat="-27.2019124" lon="152.8251985">
<ele>37.912</ele>
<time>2015-12-27T00:03:40.333Z</time>
</trkpt>
<trkpt lat="-27.2017069" lon="152.8250082">
<ele>37.746</ele>
<time>2015-12-27T00:03:42.411Z</time>
</trkpt>
<trkpt lat="-27.2014204" lon="152.8247466">
<ele>37.913</ele>
<time>2015-12-27T00:03:45.267Z</time>
</trkpt>
<trkpt lat="-27.2012389" lon="152.8245693">
<ele>38.170</ele>
<time>2015-12-27T00:03:47.175Z</time>
</trkpt>
<trkpt lat="-27.2009594" lon="152.8242895">
<ele>38.332</ele>
<time>2015-12-27T00:03:50.201Z</time>
</trkpt>
<trkpt lat="-27.2007685" lon="152.8241101">
<ele>38.508</ele>
<time>2015-12-27T00:03:52.199Z</time>
</trkpt>
<trkpt lat="-27.2005064" lon="152.8238689">
<ele>38.841</ele>
<time>2015-12-27T00:03:54.911Z</time>
</trkpt>
<trkpt lat="-27.2003506" lon="152.8237107">
<ele>39.187</ele>
<time>2015-12-27T00:03:56.674Z</time>
</trkpt>
<trkpt lat="-27.2000537" lon="152.8235472">
<ele>39.364</ele>
<time>2015-12-27T00:03:59.582Z</time>
</trkpt>
<trkpt lat="-27.1998075" lon="152.8235040">
<ele>39.669</ele>
<time>2015-12-27T00:04:01.869Z</time>
</trkpt>
<trkpt lat="-27.1995545" lon="152.8234477">
<ele>40.567</ele>
<time>2015-12-27T00:04:04.165Z</time>
</trkpt>
<trkpt lat="-27.1991951" lon="152.8233623">
<ele>42.086</ele>
<time>2015-12-27T00:04:07.215Z</time>
</trkpt>
<trkpt lat="-27.1989651" lon="152.8232908">
<ele>43.673</ele>
<time>2015-12-27T00:04:09.154Z</time>
</trkpt>
<trkpt lat="-27.1985983" lon="152.8232065">
<ele>44.710</ele>
<time>2015-12-27T00:04:12.228Z</time>
</trkpt>
<trkpt lat="-27.1982429" lon="152.8231272">
<ele>45.060</ele>
<time>2015-12-27T00:04:15.175Z</time>
</trkpt>
<trkpt lat="-27.1980228" lon="152.8230721">
<ele>45.069</ele>
<time>2015-12-27T00:04:17.017Z</time>
</trkpt>
<trkpt lat="-27.1978310" lon="152.8229995">
<ele>45.128</ele>
<time>2015-12-27T00:04:18.701Z</time>
</trkpt>
<trkpt lat="-27.1975824" lon="152.8228773">
<ele>45.548</ele>
<time>2015-12-27T00:04:21.101Z</time>
</trkpt>
<trkpt lat="-27.1973477" lon="152.8227381">
<ele>46.263</ele>
<time>2015-12-27T00:04:23.726Z</time>
</trkpt>
<trkpt lat="-27.1971468" lon="152.8226208">
<ele>46.687</ele>
<time>2015-12-27T00:04:26.157Z</time>
</trkpt>
<trkpt lat="-27.1970504" lon="152.8226792">
<ele>46.214</ele>
<time>2015-12-27T00:04:27.393Z</time>
</trkpt>
<trkpt lat="-27.1969715" lon="152.8228331">
<ele>44.988</ele>
<time>2015-12-27T00:04:29.302Z</time>
</trkpt>
<trkpt lat="-27.1968893" lon="152.8229775">
<ele>43.726</ele>
<time>2015-12-27T00:04:31.279Z</time>
</trkpt>
<trkpt lat="-27.1967362" lon="152.8232776">
<ele>42.876</ele>
<time>2015-12-27T00:04:36.660Z</time>
</trkpt>
<trkpt lat="-27.1966055" lon="152.8235019">
<ele>42.423</ele>
<time>2015-12-27T00:04:39.535Z</time>
</trkpt>
<trkpt lat="-27.1964701" lon="152.8237420">
<ele>42.337</ele>
<time>2015-12-27T00:04:42.097Z</time>
</trkpt>
<trkpt lat="-27.1962761" lon="152.8240790">
<ele>42.532</ele>
<time>2015-12-27T00:04:45.210Z</time>
</trkpt>
<trkpt lat="-27.1961273" lon="152.8243695">
<ele>42.744</ele>
<time>2015-12-27T00:04:47.770Z</time>
</trkpt>
<trkpt lat="-27.1960304" lon="152.8245512">
<ele>42.762</ele>
<time>2015-12-27T00:04:49.536Z</time>
</trkpt>
<trkpt lat="-27.1959395" lon="152.8248303">
<ele>42.660</ele>
<time>2015-12-27T00:04:52.158Z</time>
</trkpt>
<trkpt lat="-27.1959087" lon="152.8251186">
<ele>42.604</ele>
<time>2015-12-27T00:04:54.951Z</time>
</trkpt>
<trkpt lat="-27.1958897" lon="152.8253078">
<ele>42.626</ele>
<time>2015-12-27T00:04:56.833Z</time>
</trkpt>
<trkpt lat="-27.1958655" lon="152.8255967">
<ele>42.704</ele>
<time>2015-12-27T00:04:59.773Z</time>
</trkpt>
<trkpt lat="-27.1958087" lon="152.8257597">
<ele>42.873</ele>
<time>2015-12-27T00:05:01.590Z</time>
</trkpt>
<trkpt lat="-27.1956496" lon="152.8258950">
<ele>43.123</ele>
<time>2015-12-27T00:05:03.933Z</time>
</trkpt>
<trkpt lat="-27.1954771" lon="152.8259433">
<ele>43.389</ele>
<time>2015-12-27T00:05:06.097Z</time>
</trkpt>
<trkpt lat="-27.1951558" lon="152.8260150">
<ele>43.782</ele>
<time>2015-12-27T00:05:10.423Z</time>
</trkpt>
<trkpt lat="-27.1949071" lon="152.8260752">
<ele>44.696</ele>
<time>2015-12-27T00:05:13.113Z</time>
</trkpt>
<trkpt lat="-27.1944894" lon="152.8262049">
<ele>46.169</ele>
<time>2015-12-27T00:05:16.839Z</time>
</trkpt>
<trkpt lat="-27.1941879" lon="152.8262776">
<ele>47.771</ele>
<time>2015-12-27T00:05:19.124Z</time>
</trkpt>
<trkpt lat="-27.1938820" lon="152.8263419">
<ele>49.193</ele>
<time>2015-12-27T00:05:21.192Z</time>
</trkpt>
<trkpt lat="-27.1934655" lon="152.8264790">
<ele>50.240</ele>
<time>2015-12-27T00:05:24.024Z</time>
</trkpt>
<trkpt lat="-27.1930420" lon="152.8266143">
<ele>50.771</ele>
<time>2015-12-27T00:05:26.997Z</time>
</trkpt>
<trkpt lat="-27.1927478" lon="152.8265973">
<ele>51.019</ele>
<time>2015-12-27T00:05:29.037Z</time>
</trkpt>
<trkpt lat="-27.1924465" lon="152.8265810">
<ele>51.274</ele>
<time>2015-12-27T00:05:31.144Z</time>
</trkpt>
<trkpt lat="-27.1921365" lon="152.8265433">
<ele>51.589</ele>
<time>2015-12-27T00:05:33.253Z</time>
</trkpt>
<trkpt lat="-27.1916514" lon="152.8265356">
<ele>51.870</ele>
<time>2015-12-27T00:05:36.383Z</time>
</trkpt>
<trkpt lat="-27.1911906" lon="152.8265000">
<ele>52.116</ele>
<time>2015-12-27T00:05:39.328Z</time>
</trkpt>
<trkpt lat="-27.1908780" lon="152.8264839">
<ele>52.450</ele>
<time>2015-12-27T00:05:41.328Z</time>
</trkpt>
<trkpt lat="-27.1904261" lon="152.8264737">
<ele>52.882</ele>
<time>2015-12-27T00:05:44.249Z</time>
</trkpt>
<trkpt lat="-27.1901177" lon="152.8264365">
<ele>53.212</ele>
<time>2015-12-27T00:05:46.261Z</time>
</trkpt>
<trkpt lat="-27.1896622" lon="152.8263967">
<ele>53.335</ele>
<time>2015-12-27T00:05:49.234Z</time>
</trkpt>
<trkpt lat="-27.1892238" lon="152.8263603">
<ele>53.352</ele>
<time>2015-12-27T00:05:52.144Z</time>
</trkpt>
<trkpt lat="-27.1887921" lon="152.8263839">
<ele>53.444</ele>
<time>2015-12-27T00:05:55.067Z</time>
</trkpt>
<trkpt lat="-27.1883759" lon="152.8265468">
<ele>53.674</ele>
<time>2015-12-27T00:05:58.091Z</time>
</trkpt>
<trkpt lat="-27.1880119" lon="152.8268576">
<ele>53.928</ele>
<time>2015-12-27T00:06:01.206Z</time>
</trkpt>
<trkpt lat="-27.1876595" lon="152.8272477">
<ele>54.217</ele>
<time>2015-12-27T00:06:04.380Z</time>
</trkpt>
<trkpt lat="-27.1874040" lon="152.8275062">
<ele>54.945</ele>
<time>2015-12-27T00:06:06.454Z</time>
</trkpt>
<trkpt lat="-27.1869785" lon="152.8278178">
<ele>56.124</ele>
<time>2015-12-27T00:06:09.379Z</time>
</trkpt>
<trkpt lat="-27.1865397" lon="152.8281194">
<ele>56.870</ele>
<time>2015-12-27T00:06:12.338Z</time>
</trkpt>
<trkpt lat="-27.1861015" lon="152.8284231">
<ele>56.611</ele>
<time>2015-12-27T00:06:15.309Z</time>
</trkpt>
<trkpt lat="-27.1858029" lon="152.8286215">
<ele>55.876</ele>
<time>2015-12-27T00:06:17.315Z</time>
</trkpt>
<trkpt lat="-27.1855190" lon="152.8288012">
<ele>55.338</ele>
<time>2015-12-27T00:06:19.221Z</time>
</trkpt>
<trkpt lat="-27.1852112" lon="152.8288890">
<ele>55.207</ele>
<time>2015-12-27T00:06:21.144Z</time>
</trkpt>
<trkpt lat="-27.1848952" lon="152.8288980">
<ele>55.501</ele>
<time>2015-12-27T00:06:23.138Z</time>
</trkpt>
<trkpt lat="-27.1844581" lon="152.8286397">
<ele>56.344</ele>
<time>2015-12-27T00:06:26.325Z</time>
</trkpt>
<trkpt lat="-27.1840346" lon="152.8282971">
<ele>57.830</ele>
<time>2015-12-27T00:06:29.561Z</time>
</trkpt>
<trkpt lat="-27.1835973" lon="152.8280464">
<ele>59.889</ele>
<time>2015-12-27T00:06:32.501Z</time>
</trkpt>
<trkpt lat="-27.1832739" lon="152.8279480">
<ele>62.095</ele>
<time>2015-12-27T00:06:34.513Z</time>
</trkpt>
<trkpt lat="-27.1829460" lon="152.8278615">
<ele>63.813</ele>
<time>2015-12-27T00:06:36.556Z</time>
</trkpt>
<trkpt lat="-27.1826101" lon="152.8277830">
<ele>64.842</ele>
<time>2015-12-27T00:06:38.591Z</time>
</trkpt>
<trkpt lat="-27.1821233" lon="152.8276631">
<ele>65.712</ele>
<time>2015-12-27T00:06:41.518Z</time>
</trkpt>
<trkpt lat="-27.1818051" lon="152.8275977">
<ele>66.712</ele>
<time>2015-12-27T00:06:43.433Z</time>
</trkpt>
<trkpt lat="-27.1813265" lon="152.8275707">
<ele>67.544</ele>
<time>2015-12-27T00:06:46.353Z</time>
</trkpt>
<trkpt lat="-27.1808285" lon="152.8275205">
<ele>68.119</ele>
<time>2015-12-27T00:06:49.426Z</time>
</trkpt>
<trkpt lat="-27.1805060" lon="152.8274761">
<ele>69.020</ele>
<time>2015-12-27T00:06:51.403Z</time>
</trkpt>
<trkpt lat="-27.1800026" lon="152.8273450">
<ele>70.483</ele>
<time>2015-12-27T00:06:54.460Z</time>
</trkpt>
<trkpt lat="-27.1796810" lon="152.8272636">
<ele>71.986</ele>
<time>2015-12-27T00:06:56.396Z</time>
</trkpt>
<trkpt lat="-27.1793649" lon="152.8271710">
<ele>73.011</ele>
<time>2015-12-27T00:06:58.329Z</time>
</trkpt>
<trkpt lat="-27.1788947" lon="152.8270549">
<ele>73.736</ele>
<time>2015-12-27T00:07:01.246Z</time>
</trkpt>
<trkpt lat="-27.1784249" lon="152.8269243">
<ele>74.716</ele>
<time>2015-12-27T00:07:04.222Z</time>
</trkpt>
<trkpt lat="-27.1781000" lon="152.8268700">
<ele>76.052</ele>
<time>2015-12-27T00:07:06.251Z</time>
</trkpt>
<trkpt lat="-27.1777562" lon="152.8267650">
<ele>77.233</ele>
<time>2015-12-27T00:07:08.400Z</time>
</trkpt>
<trkpt lat="-27.1772374" lon="152.8266474">
<ele>77.872</ele>
<time>2015-12-27T00:07:11.466Z</time>
</trkpt>
<trkpt lat="-27.1768983" lon="152.8265535">
<ele>78.012</ele>
<time>2015-12-27T00:07:13.466Z</time>
</trkpt>
<trkpt lat="-27.1763673" lon="152.8264239">
<ele>77.893</ele>
<time>2015-12-27T00:07:16.536Z</time>
</trkpt>
<trkpt lat="-27.1760183" lon="152.8263436">
<ele>77.739</ele>
<time>2015-12-27T00:07:18.534Z</time>
</trkpt>
<trkpt lat="-27.1755082" lon="152.8261952">
<ele>77.681</ele>
<time>2015-12-27T00:07:21.504Z</time>
</trkpt>
<trkpt lat="-27.1752095" lon="152.8259081">
<ele>77.854</ele>
<time>2015-12-27T00:07:23.747Z</time>
</trkpt>
<trkpt lat="-27.1749807" lon="152.8256921">
<ele>78.319</ele>
<time>2015-12-27T00:07:25.500Z</time>
</trkpt>
<trkpt lat="-27.1746833" lon="152.8253610">
<ele>78.933</ele>
<time>2015-12-27T00:07:28.139Z</time>
</trkpt>
<trkpt lat="-27.1744791" lon="152.8251580">
<ele>79.612</ele>
<time>2015-12-27T00:07:29.954Z</time>
</trkpt>
<trkpt lat="-27.1740906" lon="152.8249909">
<ele>80.527</ele>
<time>2015-12-27T00:07:32.952Z</time>
</trkpt>
<trkpt lat="-27.1737057" lon="152.8249505">
<ele>81.886</ele>
<time>2015-12-27T00:07:35.828Z</time>
</trkpt>
<trkpt lat="-27.1734434" lon="152.8249632">
<ele>83.820</ele>
<time>2015-12-27T00:07:37.791Z</time>
</trkpt>
<trkpt lat="-27.1730910" lon="152.8249103">
<ele>86.092</ele>
<time>2015-12-27T00:07:40.429Z</time>
</trkpt>
<trkpt lat="-27.1727283" lon="152.8249546">
<ele>88.012</ele>
<time>2015-12-27T00:07:43.269Z</time>
</trkpt>
<trkpt lat="-27.1724926" lon="152.8250050">
<ele>89.301</ele>
<time>2015-12-27T00:07:45.251Z</time>
</trkpt>
<trkpt lat="-27.1721240" lon="152.8251320">
<ele>90.451</ele>
<time>2015-12-27T00:07:48.424Z</time>
</trkpt>
<trkpt lat="-27.1718570" lon="152.8251783">
<ele>92.137</ele>
<time>2015-12-27T00:07:50.570Z</time>
</trkpt>
<trkpt lat="-27.1715603" lon="152.8251455">
<ele>94.682</ele>
<time>2015-12-27T00:07:52.839Z</time>
</trkpt>
<trkpt lat="-27.1711240" lon="152.8250607">
<ele>97.779</ele>
<time>2015-12-27T00:07:55.992Z</time>
</trkpt>
<trkpt lat="-27.1708585" lon="152.8250322">
<ele>100.891</ele>
<time>2015-12-27T00:07:57.830Z</time>
</trkpt>
<trkpt lat="-27.1704756" lon="152.8251285">
<ele>103.551</ele>
<time>2015-12-27T00:08:00.624Z</time>
</trkpt>
<trkpt lat="-27.1701262" lon="152.8253496">
<ele>105.671</ele>
<time>2015-12-27T00:08:03.641Z</time>
</trkpt>
<trkpt lat="-27.1698307" lon="152.8255817">
<ele>107.561</ele>
<time>2015-12-27T00:08:06.389Z</time>
</trkpt>
<trkpt lat="-27.1695863" lon="152.8257951">
<ele>109.198</ele>
<time>2015-12-27T00:08:08.817Z</time>
</trkpt>
<trkpt lat="-27.1694485" lon="152.8259828">
<ele>110.331</ele>
<time>2015-12-27T00:08:10.684Z</time>
</trkpt>
<trkpt lat="-27.1693736" lon="152.8262361">
<ele>111.112</ele>
<time>2015-12-27T00:08:12.810Z</time>
</trkpt>
<trkpt lat="-27.1693267" lon="152.8267122">
<ele>111.972</ele>
<time>2015-12-27T00:08:16.581Z</time>
</trkpt>
<trkpt lat="-27.1691566" lon="152.8269745">
<ele>113.649</ele>
<time>2015-12-27T00:08:18.817Z</time>
</trkpt>
<trkpt lat="-27.1689100" lon="152.8271920">
<ele>116.341</ele>
<time>2015-12-27T00:08:21.114Z</time>
</trkpt>
<trkpt lat="-27.1686071" lon="152.8271732">
<ele>119.501</ele>
<time>2015-12-27T00:08:23.274Z</time>
</trkpt>
<trkpt lat="-27.1681730" lon="152.8269539">
<ele>122.550</ele>
<time>2015-12-27T00:08:26.560Z</time>
</trkpt>
<trkpt lat="-27.1678853" lon="152.8267782">
<ele>125.276</ele>
<time>2015-12-27T00:08:28.720Z</time>
</trkpt>
<trkpt lat="-27.1674345" lon="152.8265711">
<ele>127.705</ele>
<time>2015-12-27T00:08:31.728Z</time>
</trkpt>
<trkpt lat="-27.1669625" lon="152.8265315">
<ele>129.916</ele>
<time>2015-12-27T00:08:34.641Z</time>
</trkpt>
<trkpt lat="-27.1666305" lon="152.8265904">
<ele>132.066</ele>
<time>2015-12-27T00:08:36.706Z</time>
</trkpt>
<trkpt lat="-27.1662921" lon="152.8266906">
<ele>134.462</ele>
<time>2015-12-27T00:08:38.805Z</time>
</trkpt>
<trkpt lat="-27.1658066" lon="152.8268395">
<ele>137.135</ele>
<time>2015-12-27T00:08:41.763Z</time>
</trkpt>
<trkpt lat="-27.1654752" lon="152.8269403">
<ele>139.770</ele>
<time>2015-12-27T00:08:43.790Z</time>
</trkpt>
<trkpt lat="-27.1650190" lon="152.8270211">
<ele>142.100</ele>
<time>2015-12-27T00:08:46.610Z</time>
</trkpt>
<trkpt lat="-27.1645827" lon="152.8269160">
<ele>143.950</ele>
<time>2015-12-27T00:08:49.463Z</time>
</trkpt>
<trkpt lat="-27.1642946" lon="152.8268195">
<ele>145.478</ele>
<time>2015-12-27T00:08:51.447Z</time>
</trkpt>
<trkpt lat="-27.1639703" lon="152.8266270">
<ele>146.881</ele>
<time>2015-12-27T00:08:54.006Z</time>
</trkpt>
<trkpt lat="-27.1638966" lon="152.8264241">
<ele>147.927</ele>
<time>2015-12-27T00:08:55.455Z</time>
</trkpt>
<trkpt lat="-27.1639156" lon="152.8261999">
<ele>148.370</ele>
<time>2015-12-27T00:08:57.116Z</time>
</trkpt>
<trkpt lat="-27.1640150" lon="152.8259442">
<ele>148.699</ele>
<time>2015-12-27T00:08:59.408Z</time>
</trkpt>
<trkpt lat="-27.1641728" lon="152.8254891">
<ele>149.798</ele>
<time>2015-12-27T00:09:03.081Z</time>
</trkpt>
<trkpt lat="-27.1643357" lon="152.8250084">
<ele>152.348</ele>
<time>2015-12-27T00:09:06.328Z</time>
</trkpt>
<trkpt lat="-27.1644332" lon="152.8247346">
<ele>156.150</ele>
<time>2015-12-27T00:09:08.098Z</time>
</trkpt>
<trkpt lat="-27.1641859" lon="152.8243070">
<ele>160.032</ele>
<time>2015-12-27T00:09:11.408Z</time>
</trkpt>
<trkpt lat="-27.1638768" lon="152.8239930">
<ele>162.997</ele>
<time>2015-12-27T00:09:14.553Z</time>
</trkpt>
<trkpt lat="-27.1635936" lon="152.8237487">
<ele>165.483</ele>
<time>2015-12-27T00:09:17.089Z</time>
</trkpt>
<trkpt lat="-27.1632109" lon="152.8233740">
<ele>168.280</ele>
<time>2015-12-27T00:09:20.293Z</time>
</trkpt>
<trkpt lat="-27.1629601" lon="152.8231759">
<ele>171.129</ele>
<time>2015-12-27T00:09:22.205Z</time>
</trkpt>
<trkpt lat="-27.1625182" lon="152.8230643">
<ele>173.483</ele>
<time>2015-12-27T00:09:25.140Z</time>
</trkpt>
<trkpt lat="-27.1620662" lon="152.8231502">
<ele>175.328</ele>
<time>2015-12-27T00:09:28.185Z</time>
</trkpt>
<trkpt lat="-27.1617964" lon="152.8232947">
<ele>177.109</ele>
<time>2015-12-27T00:09:30.177Z</time>
</trkpt>
<trkpt lat="-27.1614036" lon="152.8236274">
<ele>179.131</ele>
<time>2015-12-27T00:09:33.448Z</time>
</trkpt>
<trkpt lat="-27.1611212" lon="152.8240303">
<ele>181.192</ele>
<time>2015-12-27T00:09:36.462Z</time>
</trkpt>
<trkpt lat="-27.1609203" lon="152.8241645">
<ele>183.102</ele>
<time>2015-12-27T00:09:38.057Z</time>
</trkpt>
<trkpt lat="-27.1605510" lon="152.8242742">
<ele>184.875</ele>
<time>2015-12-27T00:09:40.868Z</time>
</trkpt>
<trkpt lat="-27.1602898" lon="152.8244638">
<ele>186.604</ele>
<time>2015-12-27T00:09:43.190Z</time>
</trkpt>
<trkpt lat="-27.1599504" lon="152.8248133">
<ele>188.604</ele>
<time>2015-12-27T00:09:46.319Z</time>
</trkpt>
<trkpt lat="-27.1596972" lon="152.8250278">
<ele>191.197</ele>
<time>2015-12-27T00:09:48.356Z</time>
</trkpt>
<trkpt lat="-27.1593403" lon="152.8252354">
<ele>194.236</ele>
<time>2015-12-27T00:09:51.061Z</time>
</trkpt>
<trkpt lat="-27.1590404" lon="152.8251726">
<ele>196.920</ele>
<time>2015-12-27T00:09:53.434Z</time>
</trkpt>
<trkpt lat="-27.1588135" lon="152.8249033">
<ele>198.488</ele>
<time>2015-12-27T00:09:56.407Z</time>
</trkpt>
<trkpt lat="-27.1585289" lon="152.8247669">
<ele>199.372</ele>
<time>2015-12-27T00:09:59.364Z</time>
</trkpt>
<trkpt lat="-27.1581784" lon="152.8248838">
<ele>200.504</ele>
<time>2015-12-27T00:10:02.760Z</time>
</trkpt>
<trkpt lat="-27.1579396" lon="152.8248916">
<ele>202.389</ele>
<time>2015-12-27T00:10:04.875Z</time>
</trkpt>
<trkpt lat="-27.1577068" lon="152.8248120">
<ele>204.805</ele>
<time>2015-12-27T00:10:06.945Z</time>
</trkpt>
<trkpt lat="-27.1574718" lon="152.8246666">
<ele>207.305</ele>
<time>2015-12-27T00:10:09.134Z</time>
</trkpt>
<trkpt lat="-27.1572250" lon="152.8245844">
<ele>209.817</ele>
<time>2015-12-27T00:10:11.118Z</time>
</trkpt>
<trkpt lat="-27.1568531" lon="152.8245628">
<ele>212.243</ele>
<time>2015-12-27T00:10:14.060Z</time>
</trkpt>
<trkpt lat="-27.1565482" lon="152.8244457">
<ele>214.180</ele>
<time>2015-12-27T00:10:16.786Z</time>
</trkpt>
<trkpt lat="-27.1562273" lon="152.8245344">
<ele>215.855</ele>
<time>2015-12-27T00:10:19.722Z</time>
</trkpt>
<trkpt lat="-27.1560839" lon="152.8247229">
<ele>217.983</ele>
<time>2015-12-27T00:10:21.705Z</time>
</trkpt>
<trkpt lat="-27.1559435" lon="152.8251117">
<ele>220.837</ele>
<time>2015-12-27T00:10:24.946Z</time>
</trkpt>
<trkpt lat="-27.1557987" lon="152.8253167">
<ele>224.317</ele>
<time>2015-12-27T00:10:26.941Z</time>
</trkpt>
<trkpt lat="-27.1554777" lon="152.8254096">
<ele>227.942</ele>
<time>2015-12-27T00:10:29.891Z</time>
</trkpt>
<trkpt lat="-27.1551056" lon="152.8253811">
<ele>231.329</ele>
<time>2015-12-27T00:10:33.123Z</time>
</trkpt>
<trkpt lat="-27.1547165" lon="152.8255196">
<ele>234.539</ele>
<time>2015-12-27T00:10:36.343Z</time>
</trkpt>
<trkpt lat="-27.1545096" lon="152.8256974">
<ele>237.787</ele>
<time>2015-12-27T00:10:38.322Z</time>
</trkpt>
<trkpt lat="-27.1543337" lon="152.8258791">
<ele>241.006</ele>
<time>2015-12-27T00:10:40.199Z</time>
</trkpt>
<trkpt lat="-27.1541068" lon="152.8259234">
<ele>243.735</ele>
<time>2015-12-27T00:10:42.140Z</time>
</trkpt>
<trkpt lat="-27.1538129" lon="152.8257491">
<ele>245.422</ele>
<time>2015-12-27T00:10:45.097Z</time>
</trkpt>
<trkpt lat="-27.1536998" lon="152.8254907">
<ele>246.565</ele>
<time>2015-12-27T00:10:47.333Z</time>
</trkpt>
<trkpt lat="-27.1534776" lon="152.8250889">
<ele>248.101</ele>
<time>2015-12-27T00:10:50.609Z</time>
</trkpt>
<trkpt lat="-27.1531892" lon="152.8246259">
<ele>250.588</ele>
<time>2015-12-27T00:10:54.073Z</time>
</trkpt>
<trkpt lat="-27.1528386" lon="152.8242984">
<ele>254.030</ele>
<time>2015-12-27T00:10:57.028Z</time>
</trkpt>
<trkpt lat="-27.1525684" lon="152.8240762">
<ele>257.777</ele>
<time>2015-12-27T00:10:59.121Z</time>
</trkpt>
<trkpt lat="-27.1521741" lon="152.8237589">
<ele>261.312</ele>
<time>2015-12-27T00:11:02.107Z</time>
</trkpt>
<trkpt lat="-27.1519730" lon="152.8233295">
<ele>264.638</ele>
<time>2015-12-27T00:11:04.902Z</time>
</trkpt>
<trkpt lat="-27.1519157" lon="152.8229609">
<ele>267.323</ele>
<time>2015-12-27T00:11:07.027Z</time>
</trkpt>
<trkpt lat="-27.1518181" lon="152.8223691">
<ele>269.374</ele>
<time>2015-12-27T00:11:10.014Z</time>
</trkpt>
<trkpt lat="-27.1517594" lon="152.8219305">
<ele>272.223</ele>
<time>2015-12-27T00:11:12.037Z</time>
</trkpt>
<trkpt lat="-27.1517086" lon="152.8215092">
<ele>276.689</ele>
<time>2015-12-27T00:11:13.986Z</time>
</trkpt>
<trkpt lat="-27.1517236" lon="152.8209412">
<ele>281.276</ele>
<time>2015-12-27T00:11:16.852Z</time>
</trkpt>
<trkpt lat="-27.1516996" lon="152.8204731">
<ele>284.121</ele>
<time>2015-12-27T00:11:19.580Z</time>
</trkpt>
<trkpt lat="-27.1514560" lon="152.8201691">
<ele>285.058</ele>
<time>2015-12-27T00:11:22.099Z</time>
</trkpt>
<trkpt lat="-27.1510905" lon="152.8197978">
<ele>285.311</ele>
<time>2015-12-27T00:11:25.414Z</time>
</trkpt>
<trkpt lat="-27.1508465" lon="152.8194530">
<ele>286.390</ele>
<time>2015-12-27T00:11:28.187Z</time>
</trkpt>
<trkpt lat="-27.1508246" lon="152.8191779">
<ele>288.553</ele>
<time>2015-12-27T00:11:30.080Z</time>
</trkpt>
<trkpt lat="-27.1509595" lon="152.8187542">
<ele>290.927</ele>
<time>2015-12-27T00:11:33.126Z</time>
</trkpt>
<trkpt lat="-27.1509565" lon="152.8184840">
<ele>293.106</ele>
<time>2015-12-27T00:11:35.003Z</time>
</trkpt>
<trkpt lat="-27.1508580" lon="152.8182296">
<ele>294.864</ele>
<time>2015-12-27T00:11:37.059Z</time>
</trkpt>
<trkpt lat="-27.1504949" lon="152.8180268">
<ele>295.765</ele>
<time>2015-12-27T00:11:40.294Z</time>
</trkpt>
<trkpt lat="-27.1500425" lon="152.8178564">
<ele>296.560</ele>
<time>2015-12-27T00:11:43.608Z</time>
</trkpt>
<trkpt lat="-27.1497716" lon="152.8177470">
<ele>298.648</ele>
<time>2015-12-27T00:11:45.553Z</time>
</trkpt>
<trkpt lat="-27.1494409" lon="152.8174628">
<ele>301.811</ele>
<time>2015-12-27T00:11:48.504Z</time>
</trkpt>
<trkpt lat="-27.1492804" lon="152.8172059">
<ele>304.702</ele>
<time>2015-12-27T00:11:50.464Z</time>
</trkpt>
<trkpt lat="-27.1491970" lon="152.8168592">
<ele>307.039</ele>
<time>2015-12-27T00:11:52.572Z</time>
</trkpt>
<trkpt lat="-27.1491280" lon="152.8165378">
<ele>309.443</ele>
<time>2015-12-27T00:11:54.457Z</time>
</trkpt>
<trkpt lat="-27.1489860" lon="152.8160610">
<ele>312.037</ele>
<time>2015-12-27T00:11:57.432Z</time>
</trkpt>
<trkpt lat="-27.1486941" lon="152.8157675">
<ele>314.190</ele>
<time>2015-12-27T00:12:00.249Z</time>
</trkpt>
<trkpt lat="-27.1482967" lon="152.8156588">
<ele>315.602</ele>
<time>2015-12-27T00:12:03.284Z</time>
</trkpt>
<trkpt lat="-27.1479127" lon="152.8155213">
<ele>317.080</ele>
<time>2015-12-27T00:12:06.258Z</time>
</trkpt>
<trkpt lat="-27.1477219" lon="152.8152839">
<ele>319.272</ele>
<time>2015-12-27T00:12:08.365Z</time>
</trkpt>
<trkpt lat="-27.1475704" lon="152.8148289">
<ele>321.777</ele>
<time>2015-12-27T00:12:11.425Z</time>
</trkpt>
<trkpt lat="-27.1475809" lon="152.8144734">
<ele>324.064</ele>
<time>2015-12-27T00:12:13.514Z</time>
</trkpt>
<trkpt lat="-27.1476132" lon="152.8140900">
<ele>326.017</ele>
<time>2015-12-27T00:12:15.694Z</time>
</trkpt>
<trkpt lat="-27.1475998" lon="152.8135921">
<ele>327.513</ele>
<time>2015-12-27T00:12:18.551Z</time>
</trkpt>
<trkpt lat="-27.1474402" lon="152.8133106">
<ele>328.767</ele>
<time>2015-12-27T00:12:20.516Z</time>
</trkpt>
<trkpt lat="-27.1470548" lon="152.8129848">
<ele>330.337</ele>
<time>2015-12-27T00:12:23.557Z</time>
</trkpt>
<trkpt lat="-27.1466203" lon="152.8126556">
<ele>332.526</ele>
<time>2015-12-27T00:12:26.640Z</time>
</trkpt>
<trkpt lat="-27.1461975" lon="152.8123207">
<ele>335.064</ele>
<time>2015-12-27T00:12:29.635Z</time>
</trkpt>
<trkpt lat="-27.1458365" lon="152.8119369">
<ele>337.559</ele>
<time>2015-12-27T00:12:32.592Z</time>
</trkpt>
<trkpt lat="-27.1456208" lon="152.8117079">
<ele>340.099</ele>
<time>2015-12-27T00:12:34.490Z</time>
</trkpt>
<trkpt lat="-27.1452253" lon="152.8115022">
<ele>342.662</ele>
<time>2015-12-27T00:12:37.469Z</time>
</trkpt>
<trkpt lat="-27.1447696" lon="152.8114028">
<ele>344.765</ele>
<time>2015-12-27T00:12:40.642Z</time>
</trkpt>
<trkpt lat="-27.1445016" lon="152.8112618">
<ele>346.756</ele>
<time>2015-12-27T00:12:42.650Z</time>
</trkpt>
<trkpt lat="-27.1442918" lon="152.8110500">
<ele>349.248</ele>
<time>2015-12-27T00:12:44.625Z</time>
</trkpt>
<trkpt lat="-27.1440592" lon="152.8106908">
<ele>351.899</ele>
<time>2015-12-27T00:12:47.545Z</time>
</trkpt>
<trkpt lat="-27.1438775" lon="152.8105380">
<ele>354.049</ele>
<time>2015-12-27T00:12:49.420Z</time>
</trkpt>
<trkpt lat="-27.1436578" lon="152.8105313">
<ele>355.453</ele>
<time>2015-12-27T00:12:51.404Z</time>
</trkpt>
<trkpt lat="-27.1433225" lon="152.8105429">
<ele>356.218</ele>
<time>2015-12-27T00:12:54.525Z</time>
</trkpt>
<trkpt lat="-27.1430895" lon="152.8103108">
<ele>356.974</ele>
<time>2015-12-27T00:12:57.459Z</time>
</trkpt>
<trkpt lat="-27.1429802" lon="152.8099289">
<ele>358.504</ele>
<time>2015-12-27T00:13:00.610Z</time>
</trkpt>
<trkpt lat="-27.1428115" lon="152.8095996">
<ele>360.962</ele>
<time>2015-12-27T00:13:03.481Z</time>
</trkpt>
<trkpt lat="-27.1425490" lon="152.8095445">
<ele>363.611</ele>
<time>2015-12-27T00:13:05.794Z</time>
</trkpt>
<trkpt lat="-27.1423056" lon="152.8095131">
<ele>365.721</ele>
<time>2015-12-27T00:13:07.906Z</time>
</trkpt>
<trkpt lat="-27.1420252" lon="152.8093135">
<ele>367.317</ele>
<time>2015-12-27T00:13:10.794Z</time>
</trkpt>
<trkpt lat="-27.1418824" lon="152.8089386">
<ele>368.807</ele>
<time>2015-12-27T00:13:13.920Z</time>
</trkpt>
<trkpt lat="-27.1415922" lon="152.8087179">
<ele>370.392</ele>
<time>2015-12-27T00:13:16.902Z</time>
</trkpt>
<trkpt lat="-27.1413534" lon="152.8086910">
<ele>371.989</ele>
<time>2015-12-27T00:13:18.926Z</time>
</trkpt>
<trkpt lat="-27.1411087" lon="152.8087692">
<ele>373.482</ele>
<time>2015-12-27T00:13:20.987Z</time>
</trkpt>
<trkpt lat="-27.1408713" lon="152.8088742">
<ele>375.047</ele>
<time>2015-12-27T00:13:22.978Z</time>
</trkpt>
<trkpt lat="-27.1406094" lon="152.8089143">
<ele>376.979</ele>
<time>2015-12-27T00:13:24.997Z</time>
</trkpt>
<trkpt lat="-27.1402172" lon="152.8087960">
<ele>379.155</ele>
<time>2015-12-27T00:13:28.022Z</time>
</trkpt>
<trkpt lat="-27.1399460" lon="152.8086496">
<ele>381.402</ele>
<time>2015-12-27T00:13:30.123Z</time>
</trkpt>
<trkpt lat="-27.1396620" lon="152.8085175">
<ele>383.768</ele>
<time>2015-12-27T00:13:32.172Z</time>
</trkpt>
<trkpt lat="-27.1392429" lon="152.8083240">
<ele>386.160</ele>
<time>2015-12-27T00:13:35.154Z</time>
</trkpt>
<trkpt lat="-27.1389777" lon="152.8081609">
<ele>388.728</ele>
<time>2015-12-27T00:13:37.156Z</time>
</trkpt>
<trkpt lat="-27.1385843" lon="152.8079420">
<ele>391.578</ele>
<time>2015-12-27T00:13:40.113Z</time>
</trkpt>
<trkpt lat="-27.1383119" lon="152.8078810">
<ele>394.240</ele>
<time>2015-12-27T00:13:42.033Z</time>
</trkpt>
<trkpt lat="-27.1378740" lon="152.8078808">
<ele>396.445</ele>
<time>2015-12-27T00:13:45.044Z</time>
</trkpt>
<trkpt lat="-27.1374249" lon="152.8079715">
<ele>398.462</ele>
<time>2015-12-27T00:13:48.081Z</time>
</trkpt>
<trkpt lat="-27.1371195" lon="152.8080309">
<ele>400.723</ele>
<time>2015-12-27T00:13:50.087Z</time>
</trkpt>
<trkpt lat="-27.1368125" lon="152.8080637">
<ele>403.532</ele>
<time>2015-12-27T00:13:52.040Z</time>
</trkpt>
<trkpt lat="-27.1363282" lon="152.8080225">
<ele>406.305</ele>
<time>2015-12-27T00:13:55.043Z</time>
</trkpt>
<trkpt lat="-27.1360020" lon="152.8079430">
<ele>407.735</ele>
<time>2015-12-27T00:13:57.061Z</time>
</trkpt>
<trkpt lat="-27.1355136" lon="152.8078199">
<ele>407.307</ele>
<time>2015-12-27T00:14:00.082Z</time>
</trkpt>
<trkpt lat="-27.1352000" lon="152.8077466">
<ele>405.426</ele>
<time>2015-12-27T00:14:02.043Z</time>
</trkpt>
<trkpt lat="-27.1347418" lon="152.8076133">
<ele>402.731</ele>
<time>2015-12-27T00:14:04.995Z</time>
</trkpt>
<trkpt lat="-27.1342996" lon="152.8074138">
<ele>399.824</ele>
<time>2015-12-27T00:14:08.034Z</time>
</trkpt>
<trkpt lat="-27.1340346" lon="152.8072382">
<ele>396.841</ele>
<time>2015-12-27T00:14:10.027Z</time>
</trkpt>
<trkpt lat="-27.1336483" lon="152.8069483">
<ele>393.875</ele>
<time>2015-12-27T00:14:13.089Z</time>
</trkpt>
<trkpt lat="-27.1332641" lon="152.8067390">
<ele>391.128</ele>
<time>2015-12-27T00:14:16.028Z</time>
</trkpt>
<trkpt lat="-27.1329940" lon="152.8067264">
<ele>388.639</ele>
<time>2015-12-27T00:14:17.939Z</time>
</trkpt>
<trkpt lat="-27.1325517" lon="152.8067732">
<ele>386.877</ele>
<time>2015-12-27T00:14:21.030Z</time>
</trkpt>
<trkpt lat="-27.1321263" lon="152.8068294">
<ele>386.204</ele>
<time>2015-12-27T00:14:24.003Z</time>
</trkpt>
<trkpt lat="-27.1318605" lon="152.8069207">
<ele>386.223</ele>
<time>2015-12-27T00:14:26.104Z</time>
</trkpt>
<trkpt lat="-27.1315325" lon="152.8070598">
<ele>386.442</ele>
<time>2015-12-27T00:14:29.049Z</time>
</trkpt>
<trkpt lat="-27.1313187" lon="152.8070614">
<ele>386.677</ele>
<time>2015-12-27T00:14:30.966Z</time>
</trkpt>
<trkpt lat="-27.1310206" lon="152.8067824">
<ele>386.945</ele>
<time>2015-12-27T00:14:34.182Z</time>
</trkpt>
<trkpt lat="-27.1308574" lon="152.8065553">
<ele>387.409</ele>
<time>2015-12-27T00:14:36.029Z</time>
</trkpt>
<trkpt lat="-27.1307217" lon="152.8062200">
<ele>388.123</ele>
<time>2015-12-27T00:14:38.209Z</time>
</trkpt>
<trkpt lat="-27.1305666" lon="152.8057560">
<ele>388.537</ele>
<time>2015-12-27T00:14:41.165Z</time>
</trkpt>
<trkpt lat="-27.1304791" lon="152.8054582">
<ele>388.094</ele>
<time>2015-12-27T00:14:43.123Z</time>
</trkpt>
<trkpt lat="-27.1303575" lon="152.8051968">
<ele>387.165</ele>
<time>2015-12-27T00:14:44.983Z</time>
</trkpt>
<trkpt lat="-27.1301277" lon="152.8049883">
<ele>386.668</ele>
<time>2015-12-27T00:14:47.047Z</time>
</trkpt>
<trkpt lat="-27.1297358" lon="152.8047889">
<ele>387.114</ele>
<time>2015-12-27T00:14:49.993Z</time>
</trkpt>
<trkpt lat="-27.1294889" lon="152.8046031">
<ele>388.431</ele>
<time>2015-12-27T00:14:51.957Z</time>
</trkpt>
<trkpt lat="-27.1291898" lon="152.8041812">
<ele>390.283</ele>
<time>2015-12-27T00:14:55.049Z</time>
</trkpt>
<trkpt lat="-27.1290344" lon="152.8038958">
<ele>392.491</ele>
<time>2015-12-27T00:14:56.986Z</time>
</trkpt>
<trkpt lat="-27.1288710" lon="152.8036194">
<ele>394.900</ele>
<time>2015-12-27T00:14:58.963Z</time>
</trkpt>
<trkpt lat="-27.1285805" lon="152.8032526">
<ele>397.219</ele>
<time>2015-12-27T00:15:01.912Z</time>
</trkpt>
<trkpt lat="-27.1281859" lon="152.8029993">
<ele>399.374</ele>
<time>2015-12-27T00:15:04.882Z</time>
</trkpt>
<trkpt lat="-27.1277416" lon="152.8027145">
<ele>401.433</ele>
<time>2015-12-27T00:15:08.012Z</time>
</trkpt>
<trkpt lat="-27.1274333" lon="152.8025515">
<ele>403.089</ele>
<time>2015-12-27T00:15:10.082Z</time>
</trkpt>
<trkpt lat="-27.1270102" lon="152.8023220">
<ele>404.159</ele>
<time>2015-12-27T00:15:13.097Z</time>
</trkpt>
<trkpt lat="-27.1267749" lon="152.8021488">
<ele>404.894</ele>
<time>2015-12-27T00:15:15.041Z</time>
</trkpt>
<trkpt lat="-27.1264326" lon="152.8018770">
<ele>405.631</ele>
<time>2015-12-27T00:15:17.992Z</time>
</trkpt>
<trkpt lat="-27.1262124" lon="152.8014643">
<ele>406.669</ele>
<time>2015-12-27T00:15:21.040Z</time>
</trkpt>
<trkpt lat="-27.1261363" lon="152.8011822">
<ele>408.204</ele>
<time>2015-12-27T00:15:22.963Z</time>
</trkpt>
<trkpt lat="-27.1261939" lon="152.8007397">
<ele>410.031</ele>
<time>2015-12-27T00:15:25.949Z</time>
</trkpt>
<trkpt lat="-27.1262790" lon="152.8003376">
<ele>411.902</ele>
<time>2015-12-27T00:15:28.783Z</time>
</trkpt>
<trkpt lat="-27.1262884" lon="152.7999144">
<ele>413.738</ele>
<time>2015-12-27T00:15:31.802Z</time>
</trkpt>
<trkpt lat="-27.1262394" lon="152.7996535">
<ele>415.643</ele>
<time>2015-12-27T00:15:33.755Z</time>
</trkpt>
<trkpt lat="-27.1261502" lon="152.7992596">
<ele>417.796</ele>
<time>2015-12-27T00:15:36.806Z</time>
</trkpt>
<trkpt lat="-27.1260265" lon="152.7989169">
<ele>419.823</ele>
<time>2015-12-27T00:15:39.851Z</time>
</trkpt>
<trkpt lat="-27.1258827" lon="152.7988031">
<ele>421.174</ele>
<time>2015-12-27T00:15:41.649Z</time>
</trkpt>
<trkpt lat="-27.1255513" lon="152.7987755">
<ele>421.917</ele>
<time>2015-12-27T00:15:45.003Z</time>
</trkpt>
<trkpt lat="-27.1253573" lon="152.7985842">
<ele>422.534</ele>
<time>2015-12-27T00:15:47.350Z</time>
</trkpt>
<trkpt lat="-27.1252378" lon="152.7983693">
<ele>423.623</ele>
<time>2015-12-27T00:15:49.270Z</time>
</trkpt>
<trkpt lat="-27.1250836" lon="152.7980203">
<ele>425.290</ele>
<time>2015-12-27T00:15:52.142Z</time>
</trkpt>
<trkpt lat="-27.1248895" lon="152.7976645">
<ele>426.917</ele>
<time>2015-12-27T00:15:55.197Z</time>
</trkpt>
<trkpt lat="-27.1247668" lon="152.7974579">
<ele>428.030</ele>
<time>2015-12-27T00:15:57.087Z</time>
</trkpt>
<trkpt lat="-27.1244885" lon="152.7971599">
<ele>428.606</ele>
<time>2015-12-27T00:16:00.397Z</time>
</trkpt>
<trkpt lat="-27.1241366" lon="152.7969794">
<ele>428.792</ele>
<time>2015-12-27T00:16:03.618Z</time>
</trkpt>
<trkpt lat="-27.1239240" lon="152.7968494">
<ele>429.063</ele>
<time>2015-12-27T00:16:05.669Z</time>
</trkpt>
<trkpt lat="-27.1237173" lon="152.7965346">
<ele>429.879</ele>
<time>2015-12-27T00:16:08.771Z</time>
</trkpt>
<trkpt lat="-27.1236777" lon="152.7963133">
<ele>431.106</ele>
<time>2015-12-27T00:16:10.665Z</time>
</trkpt>
<trkpt lat="-27.1237406" lon="152.7960746">
<ele>432.272</ele>
<time>2015-12-27T00:16:12.802Z</time>
</trkpt>
<trkpt lat="-27.1238645" lon="152.7958976">
<ele>433.004</ele>
<time>2015-12-27T00:16:14.907Z</time>
</trkpt>
<trkpt lat="-27.1239322" lon="152.7956054">
<ele>433.063</ele>
<time>2015-12-27T00:16:17.843Z</time>
</trkpt>
<trkpt lat="-27.1238568" lon="152.7954056">
<ele>432.621</ele>
<time>2015-12-27T00:16:19.797Z</time>
</trkpt>
<trkpt lat="-27.1237337" lon="152.7952181">
<ele>432.169</ele>
<time>2015-12-27T00:16:21.680Z</time>
</trkpt>
<trkpt lat="-27.1235895" lon="152.7950015">
<ele>432.314</ele>
<time>2015-12-27T00:16:23.731Z</time>
</trkpt>
<trkpt lat="-27.1233868" lon="152.7946712">
<ele>433.436</ele>
<time>2015-12-27T00:16:26.664Z</time>
</trkpt>
<trkpt lat="-27.1231757" lon="152.7943062">
<ele>435.404</ele>
<time>2015-12-27T00:16:29.730Z</time>
</trkpt>
<trkpt lat="-27.1229410" lon="152.7939690">
<ele>437.543</ele>
<time>2015-12-27T00:16:32.679Z</time>
</trkpt>
<trkpt lat="-27.1226874" lon="152.7936485">
<ele>439.150</ele>
<time>2015-12-27T00:16:35.588Z</time>
</trkpt>
<trkpt lat="-27.1223906" lon="152.7933359">
<ele>440.022</ele>
<time>2015-12-27T00:16:38.622Z</time>
</trkpt>
<trkpt lat="-27.1220607" lon="152.7930709">
<ele>440.820</ele>
<time>2015-12-27T00:16:41.561Z</time>
</trkpt>
<trkpt lat="-27.1218158" lon="152.7929125">
<ele>442.161</ele>
<time>2015-12-27T00:16:43.547Z</time>
</trkpt>
<trkpt lat="-27.1214201" lon="152.7927288">
<ele>443.790</ele>
<time>2015-12-27T00:16:46.512Z</time>
</trkpt>
<trkpt lat="-27.1210104" lon="152.7925296">
<ele>445.327</ele>
<time>2015-12-27T00:16:49.609Z</time>
</trkpt>
<trkpt lat="-27.1206495" lon="152.7923017">
<ele>446.657</ele>
<time>2015-12-27T00:16:52.554Z</time>
</trkpt>
<trkpt lat="-27.1204369" lon="152.7921106">
<ele>447.419</ele>
<time>2015-12-27T00:16:54.514Z</time>
</trkpt>
<trkpt lat="-27.1201528" lon="152.7917845">
<ele>447.519</ele>
<time>2015-12-27T00:16:57.458Z</time>
</trkpt>
<trkpt lat="-27.1199373" lon="152.7914071">
<ele>447.565</ele>
<time>2015-12-27T00:17:00.422Z</time>
</trkpt>
<trkpt lat="-27.1198308" lon="152.7911387">
<ele>448.018</ele>
<time>2015-12-27T00:17:02.461Z</time>
</trkpt>
<trkpt lat="-27.1197321" lon="152.7907457">
<ele>448.577</ele>
<time>2015-12-27T00:17:05.441Z</time>
</trkpt>
<trkpt lat="-27.1196551" lon="152.7904866">
<ele>448.655</ele>
<time>2015-12-27T00:17:07.581Z</time>
</trkpt>
<trkpt lat="-27.1195280" lon="152.7901713">
<ele>448.142</ele>
<time>2015-12-27T00:17:10.205Z</time>
</trkpt>
<trkpt lat="-27.1192648" lon="152.7898467">
<ele>447.468</ele>
<time>2015-12-27T00:17:13.200Z</time>
</trkpt>
<trkpt lat="-27.1190749" lon="152.7895951">
<ele>447.069</ele>
<time>2015-12-27T00:17:15.221Z</time>
</trkpt>
<trkpt lat="-27.1188137" lon="152.7891834">
<ele>447.023</ele>
<time>2015-12-27T00:17:18.324Z</time>
</trkpt>
<trkpt lat="-27.1184980" lon="152.7889009">
<ele>447.348</ele>
<time>2015-12-27T00:17:21.212Z</time>
</trkpt>
<trkpt lat="-27.1181004" lon="152.7887347">
<ele>448.099</ele>
<time>2015-12-27T00:17:24.202Z</time>
</trkpt>
<trkpt lat="-27.1176938" lon="152.7885599">
<ele>449.703</ele>
<time>2015-12-27T00:17:27.172Z</time>
</trkpt>
<trkpt lat="-27.1174377" lon="152.7884060">
<ele>452.270</ele>
<time>2015-12-27T00:17:29.206Z</time>
</trkpt>
<trkpt lat="-27.1170724" lon="152.7881869">
<ele>454.872</ele>
<time>2015-12-27T00:17:32.175Z</time>
</trkpt>
<trkpt lat="-27.1167743" lon="152.7878078">
<ele>456.784</ele>
<time>2015-12-27T00:17:35.391Z</time>
</trkpt>
<trkpt lat="-27.1165028" lon="152.7873801">
<ele>458.557</ele>
<time>2015-12-27T00:17:38.659Z</time>
</trkpt>
<trkpt lat="-27.1163800" lon="152.7871016">
<ele>460.672</ele>
<time>2015-12-27T00:17:40.593Z</time>
</trkpt>
<trkpt lat="-27.1162537" lon="152.7866588">
<ele>462.724</ele>
<time>2015-12-27T00:17:43.487Z</time>
</trkpt>
<trkpt lat="-27.1161920" lon="152.7861763">
<ele>464.120</ele>
<time>2015-12-27T00:17:46.518Z</time>
</trkpt>
<trkpt lat="-27.1161757" lon="152.7857136">
<ele>464.743</ele>
<time>2015-12-27T00:17:49.378Z</time>
</trkpt>
<trkpt lat="-27.1161706" lon="152.7852388">
<ele>464.705</ele>
<time>2015-12-27T00:17:52.316Z</time>
</trkpt>
<trkpt lat="-27.1161874" lon="152.7847888">
<ele>463.942</ele>
<time>2015-12-27T00:17:55.179Z</time>
</trkpt>
<trkpt lat="-27.1161894" lon="152.7843445">
<ele>462.489</ele>
<time>2015-12-27T00:17:58.061Z</time>
</trkpt>
<trkpt lat="-27.1161910" lon="152.7838700">
<ele>460.529</ele>
<time>2015-12-27T00:18:01.080Z</time>
</trkpt>
<trkpt lat="-27.1161594" lon="152.7833699">
<ele>458.279</ele>
<time>2015-12-27T00:18:04.115Z</time>
</trkpt>
<trkpt lat="-27.1161176" lon="152.7828453">
<ele>456.270</ele>
<time>2015-12-27T00:18:07.196Z</time>
</trkpt>
<trkpt lat="-27.1160875" lon="152.7825227">
<ele>454.797</ele>
<time>2015-12-27T00:18:09.094Z</time>
</trkpt>
<trkpt lat="-27.1161037" lon="152.7820142">
<ele>453.612</ele>
<time>2015-12-27T00:18:12.080Z</time>
</trkpt>
<trkpt lat="-27.1161545" lon="152.7816742">
<ele>452.702</ele>
<time>2015-12-27T00:18:14.114Z</time>
</trkpt>
<trkpt lat="-27.1163033" lon="152.7812122">
<ele>452.216</ele>
<time>2015-12-27T00:18:17.035Z</time>
</trkpt>
<trkpt lat="-27.1165591" lon="152.7807985">
<ele>452.104</ele>
<time>2015-12-27T00:18:20.004Z</time>
</trkpt>
<trkpt lat="-27.1169071" lon="152.7804153">
<ele>452.393</ele>
<time>2015-12-27T00:18:23.153Z</time>
</trkpt>
<trkpt lat="-27.1172642" lon="152.7800704">
<ele>453.360</ele>
<time>2015-12-27T00:18:26.163Z</time>
</trkpt>
<trkpt lat="-27.1176333" lon="152.7797342">
<ele>455.211</ele>
<time>2015-12-27T00:18:29.214Z</time>
</trkpt>
<trkpt lat="-27.1178620" lon="152.7794986">
<ele>457.635</ele>
<time>2015-12-27T00:18:31.230Z</time>
</trkpt>
<trkpt lat="-27.1181893" lon="152.7791566">
<ele>459.855</ele>
<time>2015-12-27T00:18:34.162Z</time>
</trkpt>
<trkpt lat="-27.1184016" lon="152.7789147">
<ele>461.416</ele>
<time>2015-12-27T00:18:36.170Z</time>
</trkpt>
<trkpt lat="-27.1187124" lon="152.7785599">
<ele>462.429</ele>
<time>2015-12-27T00:18:39.122Z</time>
</trkpt>
<trkpt lat="-27.1190335" lon="152.7782107">
<ele>462.986</ele>
<time>2015-12-27T00:18:42.075Z</time>
</trkpt>
<trkpt lat="-27.1192238" lon="152.7779347">
<ele>463.017</ele>
<time>2015-12-27T00:18:44.089Z</time>
</trkpt>
<trkpt lat="-27.1193961" lon="152.7776278">
<ele>462.663</ele>
<time>2015-12-27T00:18:46.155Z</time>
</trkpt>
<trkpt lat="-27.1195399" lon="152.7773141">
<ele>462.413</ele>
<time>2015-12-27T00:18:48.164Z</time>
</trkpt>
<trkpt lat="-27.1197650" lon="152.7768666">
<ele>462.602</ele>
<time>2015-12-27T00:18:51.097Z</time>
</trkpt>
<trkpt lat="-27.1199366" lon="152.7763788">
<ele>463.153</ele>
<time>2015-12-27T00:18:54.065Z</time>
</trkpt>
<trkpt lat="-27.1200738" lon="152.7760696">
<ele>464.059</ele>
<time>2015-12-27T00:18:56.008Z</time>
</trkpt>
<trkpt lat="-27.1203404" lon="152.7756205">
<ele>465.387</ele>
<time>2015-12-27T00:18:59.067Z</time>
</trkpt>
<trkpt lat="-27.1205638" lon="152.7753767">
<ele>466.856</ele>
<time>2015-12-27T00:19:01.087Z</time>
</trkpt>
<trkpt lat="-27.1209019" lon="152.7750188">
<ele>467.964</ele>
<time>2015-12-27T00:19:04.180Z</time>
</trkpt>
<trkpt lat="-27.1212285" lon="152.7747128">
<ele>468.370</ele>
<time>2015-12-27T00:19:07.176Z</time>
</trkpt>
<trkpt lat="-27.1214339" lon="152.7745328">
<ele>467.957</ele>
<time>2015-12-27T00:19:09.130Z</time>
</trkpt>
<trkpt lat="-27.1217364" lon="152.7742615">
<ele>466.809</ele>
<time>2015-12-27T00:19:12.048Z</time>
</trkpt>
<trkpt lat="-27.1220509" lon="152.7739308">
<ele>465.439</ele>
<time>2015-12-27T00:19:15.109Z</time>
</trkpt>
<trkpt lat="-27.1222603" lon="152.7736846">
<ele>464.496</ele>
<time>2015-12-27T00:19:17.068Z</time>
</trkpt>
<trkpt lat="-27.1225874" lon="152.7732543">
<ele>464.156</ele>
<time>2015-12-27T00:19:20.148Z</time>
</trkpt>
<trkpt lat="-27.1228089" lon="152.7729420">
<ele>464.226</ele>
<time>2015-12-27T00:19:22.228Z</time>
</trkpt>
<trkpt lat="-27.1230308" lon="152.7726534">
<ele>464.495</ele>
<time>2015-12-27T00:19:24.260Z</time>
</trkpt>
<trkpt lat="-27.1233879" lon="152.7722926">
<ele>464.754</ele>
<time>2015-12-27T00:19:27.235Z</time>
</trkpt>
<trkpt lat="-27.1237789" lon="152.7720116">
<ele>464.942</ele>
<time>2015-12-27T00:19:30.170Z</time>
</trkpt>
<trkpt lat="-27.1242151" lon="152.7717771">
<ele>465.121</ele>
<time>2015-12-27T00:19:33.218Z</time>
</trkpt>
<trkpt lat="-27.1244831" lon="152.7716107">
<ele>465.557</ele>
<time>2015-12-27T00:19:35.225Z</time>
</trkpt>
<trkpt lat="-27.1246937" lon="152.7714091">
<ele>466.380</ele>
<time>2015-12-27T00:19:37.143Z</time>
</trkpt>
<trkpt lat="-27.1248443" lon="152.7711527">
<ele>467.140</ele>
<time>2015-12-27T00:19:39.087Z</time>
</trkpt>
<trkpt lat="-27.1249690" lon="152.7706923">
<ele>467.376</ele>
<time>2015-12-27T00:19:42.114Z</time>
</trkpt>
<trkpt lat="-27.1250468" lon="152.7703862">
<ele>467.214</ele>
<time>2015-12-27T00:19:44.091Z</time>
</trkpt>
<trkpt lat="-27.1251174" lon="152.7700774">
<ele>466.841</ele>
<time>2015-12-27T00:19:46.065Z</time>
</trkpt>
<trkpt lat="-27.1253126" lon="152.7696211">
<ele>466.358</ele>
<time>2015-12-27T00:19:49.178Z</time>
</trkpt>
<trkpt lat="-27.1255254" lon="152.7693989">
<ele>465.652</ele>
<time>2015-12-27T00:19:51.196Z</time>
</trkpt>
<trkpt lat="-27.1258096" lon="152.7693021">
<ele>464.495</ele>
<time>2015-12-27T00:19:53.272Z</time>
</trkpt>
<trkpt lat="-27.1260838" lon="152.7692385">
<ele>463.000</ele>
<time>2015-12-27T00:19:55.202Z</time>
</trkpt>
<trkpt lat="-27.1265259" lon="152.7691619">
<ele>461.601</ele>
<time>2015-12-27T00:19:58.283Z</time>
</trkpt>
<trkpt lat="-27.1267940" lon="152.7690982">
<ele>460.564</ele>
<time>2015-12-27T00:20:00.279Z</time>
</trkpt>
<trkpt lat="-27.1271161" lon="152.7689049">
<ele>459.978</ele>
<time>2015-12-27T00:20:03.069Z</time>
</trkpt>
<trkpt lat="-27.1273682" lon="152.7686128">
<ele>459.948</ele>
<time>2015-12-27T00:20:05.952Z</time>
</trkpt>
<trkpt lat="-27.1275074" lon="152.7682095">
<ele>460.607</ele>
<time>2015-12-27T00:20:08.999Z</time>
</trkpt>
<trkpt lat="-27.1275178" lon="152.7679029">
<ele>462.024</ele>
<time>2015-12-27T00:20:11.038Z</time>
</trkpt>
<trkpt lat="-27.1274770" lon="152.7675869">
<ele>464.161</ele>
<time>2015-12-27T00:20:13.040Z</time>
</trkpt>
<trkpt lat="-27.1273301" lon="152.7672709">
<ele>466.659</ele>
<time>2015-12-27T00:20:15.155Z</time>
</trkpt>
<trkpt lat="-27.1270326" lon="152.7668762">
<ele>469.164</ele>
<time>2015-12-27T00:20:18.124Z</time>
</trkpt>
<trkpt lat="-27.1266350" lon="152.7665771">
<ele>471.871</ele>
<time>2015-12-27T00:20:21.120Z</time>
</trkpt>
<trkpt lat="-27.1263644" lon="152.7663783">
<ele>475.080</ele>
<time>2015-12-27T00:20:23.137Z</time>
</trkpt>
<trkpt lat="-27.1260953" lon="152.7662119">
<ele>478.519</ele>
<time>2015-12-27T00:20:25.132Z</time>
</trkpt>
<trkpt lat="-27.1256925" lon="152.7660363">
<ele>481.432</ele>
<time>2015-12-27T00:20:28.086Z</time>
</trkpt>
<trkpt lat="-27.1252998" lon="152.7658898">
<ele>483.385</ele>
<time>2015-12-27T00:20:31.112Z</time>
</trkpt>
<trkpt lat="-27.1250729" lon="152.7657558">
<ele>484.551</ele>
<time>2015-12-27T00:20:33.095Z</time>
</trkpt>
<trkpt lat="-27.1248818" lon="152.7655874">
<ele>485.374</ele>
<time>2015-12-27T00:20:34.987Z</time>
</trkpt>
<trkpt lat="-27.1246831" lon="152.7653756">
<ele>486.261</ele>
<time>2015-12-27T00:20:37.061Z</time>
</trkpt>
<trkpt lat="-27.1245720" lon="152.7650985">
<ele>487.255</ele>
<time>2015-12-27T00:20:39.032Z</time>
</trkpt>
<trkpt lat="-27.1243739" lon="152.7646557">
<ele>488.139</ele>
<time>2015-12-27T00:20:42.132Z</time>
</trkpt>
<trkpt lat="-27.1242718" lon="152.7643535">
<ele>488.797</ele>
<time>2015-12-27T00:20:44.100Z</time>
</trkpt>
<trkpt lat="-27.1241863" lon="152.7640531">
<ele>489.139</ele>
<time>2015-12-27T00:20:45.989Z</time>
</trkpt>
<trkpt lat="-27.1240818" lon="152.7635556">
<ele>489.097</ele>
<time>2015-12-27T00:20:48.957Z</time>
</trkpt>
<trkpt lat="-27.1239952" lon="152.7632104">
<ele>488.802</ele>
<time>2015-12-27T00:20:50.916Z</time>
</trkpt>
<trkpt lat="-27.1239346" lon="152.7627948">
<ele>488.612</ele>
<time>2015-12-27T00:20:53.117Z</time>
</trkpt>
<trkpt lat="-27.1238719" lon="152.7622273">
<ele>488.999</ele>
<time>2015-12-27T00:20:56.064Z</time>
</trkpt>
<trkpt lat="-27.1238000" lon="152.7616268">
<ele>490.293</ele>
<time>2015-12-27T00:20:59.240Z</time>
</trkpt>
<trkpt lat="-27.1237719" lon="152.7612759">
<ele>492.335</ele>
<time>2015-12-27T00:21:01.235Z</time>
</trkpt>
<trkpt lat="-27.1236539" lon="152.7607818">
<ele>494.310</ele>
<time>2015-12-27T00:21:04.362Z</time>
</trkpt>
<trkpt lat="-27.1235908" lon="152.7605170">
<ele>495.259</ele>
<time>2015-12-27T00:21:06.519Z</time>
</trkpt>
<trkpt lat="-27.1235006" lon="152.7602863">
<ele>494.644</ele>
<time>2015-12-27T00:21:09.153Z</time>
</trkpt>
<trkpt lat="-27.1234412" lon="152.7601358">
<ele>492.568</ele>
<time>2015-12-27T00:21:11.878Z</time>
</trkpt>
<trkpt lat="-27.1235075" lon="152.7600544">
<ele>490.001</ele>
<time>2015-12-27T00:21:14.597Z</time>
</trkpt>
<trkpt lat="-27.1236282" lon="152.7600193">
<ele>488.185</ele>
<time>2015-12-27T00:21:18.186Z</time>
</trkpt>
<trkpt lat="-27.1237361" lon="152.7599940">
<ele>487.684</ele>
<time>2015-12-27T00:21:20.454Z</time>
</trkpt>
<trkpt lat="-27.1238340" lon="152.7600283">
<ele>488.406</ele>
<time>2015-12-27T00:21:22.449Z</time>
</trkpt>
<trkpt lat="-27.1239338" lon="152.7600628">
<ele>490.043</ele>
<time>2015-12-27T00:21:24.558Z</time>
</trkpt>
<trkpt lat="-27.1240139" lon="152.7601775">
<ele>492.095</ele>
<time>2015-12-27T00:21:27.319Z</time>
</trkpt>
<trkpt lat="-27.1241047" lon="152.7602436">
<ele>494.071</ele>
<time>2015-12-27T00:21:30.000Z</time>
</trkpt>
<trkpt lat="-27.1241047" lon="152.7602436">
<ele>495.585</ele>
<time>2015-12-27T00:21:36.000Z</time>
</trkpt>
<trkpt lat="-27.1241047" lon="152.7602436">
<ele>496.213</ele>
<time>2015-12-27T00:54:48.470Z</time>
</trkpt>
<trkpt lat="-27.1240448" lon="152.7601344">
<ele>495.929</ele>
<time>2015-12-27T00:54:56.470Z</time>
</trkpt>
<trkpt lat="-27.1240071" lon="152.7600236">
<ele>499.008</ele>
<time>2015-12-27T00:55:00.209Z</time>
</trkpt>
<trkpt lat="-27.1239222" lon="152.7599212">
<ele>508.163</ele>
<time>2015-12-27T00:55:03.917Z</time>
</trkpt>
<trkpt lat="-27.1238065" lon="152.7598856">
<ele>517.733</ele>
<time>2015-12-27T00:55:06.890Z</time>
</trkpt>
<trkpt lat="-27.1237117" lon="152.7599200">
<ele>522.042</ele>
<time>2015-12-27T00:55:09.138Z</time>
</trkpt>
<trkpt lat="-27.1235631" lon="152.7599890">
<ele>522.056</ele>
<time>2015-12-27T00:55:12.800Z</time>
</trkpt>
<trkpt lat="-27.1234346" lon="152.7600237">
<ele>520.032</ele>
<time>2015-12-27T00:55:15.672Z</time>
</trkpt>
<trkpt lat="-27.1233466" lon="152.7599229">
<ele>517.422</ele>
<time>2015-12-27T00:55:17.449Z</time>
</trkpt>
<trkpt lat="-27.1232600" lon="152.7597166">
<ele>515.193</ele>
<time>2015-12-27T00:55:19.395Z</time>
</trkpt>
<trkpt lat="-27.1231733" lon="152.7594695">
<ele>514.360</ele>
<time>2015-12-27T00:55:21.230Z</time>
</trkpt>
<trkpt lat="-27.1229873" lon="152.7590086">
<ele>515.336</ele>
<time>2015-12-27T00:55:24.335Z</time>
</trkpt>
<trkpt lat="-27.1228613" lon="152.7586031">
<ele>517.770</ele>
<time>2015-12-27T00:55:26.629Z</time>
</trkpt>
<trkpt lat="-27.1226472" lon="152.7580156">
<ele>520.836</ele>
<time>2015-12-27T00:55:29.869Z</time>
</trkpt>
<trkpt lat="-27.1223387" lon="152.7575250">
<ele>523.328</ele>
<time>2015-12-27T00:55:32.794Z</time>
</trkpt>
<trkpt lat="-27.1219209" lon="152.7570651">
<ele>524.451</ele>
<time>2015-12-27T00:55:35.679Z</time>
</trkpt>
<trkpt lat="-27.1215900" lon="152.7567588">
<ele>524.517</ele>
<time>2015-12-27T00:55:37.732Z</time>
</trkpt>
<trkpt lat="-27.1212335" lon="152.7565179">
<ele>524.209</ele>
<time>2015-12-27T00:55:39.771Z</time>
</trkpt>
<trkpt lat="-27.1208912" lon="152.7562975">
<ele>523.864</ele>
<time>2015-12-27T00:55:41.731Z</time>
</trkpt>
<trkpt lat="-27.1203678" lon="152.7559440">
<ele>523.515</ele>
<time>2015-12-27T00:55:44.759Z</time>
</trkpt>
<trkpt lat="-27.1198344" lon="152.7556007">
<ele>523.556</ele>
<time>2015-12-27T00:55:47.873Z</time>
</trkpt>
<trkpt lat="-27.1195033" lon="152.7553962">
<ele>524.690</ele>
<time>2015-12-27T00:55:49.837Z</time>
</trkpt>
<trkpt lat="-27.1190044" lon="152.7550906">
<ele>526.957</ele>
<time>2015-12-27T00:55:52.830Z</time>
</trkpt>
<trkpt lat="-27.1186579" lon="152.7549175">
<ele>529.436</ele>
<time>2015-12-27T00:55:54.811Z</time>
</trkpt>
<trkpt lat="-27.1180671" lon="152.7547111">
<ele>531.301</ele>
<time>2015-12-27T00:55:57.997Z</time>
</trkpt>
<trkpt lat="-27.1176895" lon="152.7545796">
<ele>532.648</ele>
<time>2015-12-27T00:56:00.033Z</time>
</trkpt>
<trkpt lat="-27.1171306" lon="152.7543877">
<ele>534.194</ele>
<time>2015-12-27T00:56:03.154Z</time>
</trkpt>
<trkpt lat="-27.1168086" lon="152.7542259">
<ele>536.225</ele>
<time>2015-12-27T00:56:05.077Z</time>
</trkpt>
<trkpt lat="-27.1163646" lon="152.7538330">
<ele>538.101</ele>
<time>2015-12-27T00:56:08.143Z</time>
</trkpt>
<trkpt lat="-27.1159559" lon="152.7533902">
<ele>539.181</ele>
<time>2015-12-27T00:56:11.156Z</time>
</trkpt>
<trkpt lat="-27.1156954" lon="152.7530875">
<ele>539.784</ele>
<time>2015-12-27T00:56:13.123Z</time>
</trkpt>
<trkpt lat="-27.1154237" lon="152.7527754">
<ele>540.640</ele>
<time>2015-12-27T00:56:15.147Z</time>
</trkpt>
<trkpt lat="-27.1149627" lon="152.7523958">
<ele>541.903</ele>
<time>2015-12-27T00:56:17.981Z</time>
</trkpt>
<trkpt lat="-27.1145818" lon="152.7522084">
<ele>543.082</ele>
<time>2015-12-27T00:56:19.977Z</time>
</trkpt>
<trkpt lat="-27.1140059" lon="152.7519031">
<ele>543.828</ele>
<time>2015-12-27T00:56:22.908Z</time>
</trkpt>
<trkpt lat="-27.1134003" lon="152.7516104">
<ele>544.551</ele>
<time>2015-12-27T00:56:25.874Z</time>
</trkpt>
<trkpt lat="-27.1127657" lon="152.7513602">
<ele>545.594</ele>
<time>2015-12-27T00:56:28.868Z</time>
</trkpt>
<trkpt lat="-27.1121273" lon="152.7510718">
<ele>546.286</ele>
<time>2015-12-27T00:56:32.012Z</time>
</trkpt>
<trkpt lat="-27.1117544" lon="152.7508975">
<ele>545.791</ele>
<time>2015-12-27T00:56:33.887Z</time>
</trkpt>
<trkpt lat="-27.1111372" lon="152.7507027">
<ele>544.434</ele>
<time>2015-12-27T00:56:36.883Z</time>
</trkpt>
<trkpt lat="-27.1107258" lon="152.7505924">
<ele>542.969</ele>
<time>2015-12-27T00:56:38.891Z</time>
</trkpt>
<trkpt lat="-27.1103084" lon="152.7505209">
<ele>541.750</ele>
<time>2015-12-27T00:56:40.912Z</time>
</trkpt>
<trkpt lat="-27.1096779" lon="152.7504827">
<ele>540.738</ele>
<time>2015-12-27T00:56:43.930Z</time>
</trkpt>
<trkpt lat="-27.1092555" lon="152.7505105">
<ele>539.883</ele>
<time>2015-12-27T00:56:45.938Z</time>
</trkpt>
<trkpt lat="-27.1088675" lon="152.7505526">
<ele>539.532</ele>
<time>2015-12-27T00:56:47.748Z</time>
</trkpt>
<trkpt lat="-27.1082332" lon="152.7507054">
<ele>539.952</ele>
<time>2015-12-27T00:56:50.589Z</time>
</trkpt>
<trkpt lat="-27.1075021" lon="152.7508394">
<ele>540.966</ele>
<time>2015-12-27T00:56:53.639Z</time>
</trkpt>
<trkpt lat="-27.1070085" lon="152.7509344">
<ele>542.258</ele>
<time>2015-12-27T00:56:55.622Z</time>
</trkpt>
<trkpt lat="-27.1064837" lon="152.7510419">
<ele>543.445</ele>
<time>2015-12-27T00:56:57.729Z</time>
</trkpt>
<trkpt lat="-27.1059845" lon="152.7511510">
<ele>544.256</ele>
<time>2015-12-27T00:56:59.765Z</time>
</trkpt>
<trkpt lat="-27.1052633" lon="152.7513213">
<ele>544.657</ele>
<time>2015-12-27T00:57:02.883Z</time>
</trkpt>
<trkpt lat="-27.1048063" lon="152.7514133">
<ele>544.558</ele>
<time>2015-12-27T00:57:04.949Z</time>
</trkpt>
<trkpt lat="-27.1043574" lon="152.7514545">
<ele>543.648</ele>
<time>2015-12-27T00:57:06.993Z</time>
</trkpt>
<trkpt lat="-27.1037223" lon="152.7513841">
<ele>541.393</ele>
<time>2015-12-27T00:57:10.131Z</time>
</trkpt>
<trkpt lat="-27.1031678" lon="152.7512461">
<ele>535.470</ele>
<time>2015-12-27T00:57:13.167Z</time>
</trkpt>
<trkpt lat="-27.1026592" lon="152.7510876">
<ele>525.448</ele>
<time>2015-12-27T00:57:15.965Z</time>
</trkpt>
<trkpt lat="-27.1022841" lon="152.7509592">
<ele>515.442</ele>
<time>2015-12-27T00:57:17.982Z</time>
</trkpt>
<trkpt lat="-27.1017474" lon="152.7506531">
<ele>508.800</ele>
<time>2015-12-27T00:57:21.044Z</time>
</trkpt>
<trkpt lat="-27.1013052" lon="152.7502181">
<ele>505.036</ele>
<time>2015-12-27T00:57:24.297Z</time>
</trkpt>
<trkpt lat="-27.1010850" lon="152.7499432">
<ele>502.059</ele>
<time>2015-12-27T00:57:26.183Z</time>
</trkpt>
<trkpt lat="-27.1008715" lon="152.7496490">
<ele>498.500</ele>
<time>2015-12-27T00:57:28.105Z</time>
</trkpt>
<trkpt lat="-27.1004837" lon="152.7492263">
<ele>495.913</ele>
<time>2015-12-27T00:57:31.013Z</time>
</trkpt>
<trkpt lat="-27.1001808" lon="152.7489747">
<ele>495.795</ele>
<time>2015-12-27T00:57:33.007Z</time>
</trkpt>
<trkpt lat="-27.0996585" lon="152.7486582">
<ele>497.556</ele>
<time>2015-12-27T00:57:36.154Z</time>
</trkpt>
<trkpt lat="-27.0991434" lon="152.7484490">
<ele>499.832</ele>
<time>2015-12-27T00:57:39.053Z</time>
</trkpt>
<trkpt lat="-27.0987567" lon="152.7483387">
<ele>501.411</ele>
<time>2015-12-27T00:57:41.158Z</time>
</trkpt>
<trkpt lat="-27.0981871" lon="152.7482078">
<ele>501.599</ele>
<time>2015-12-27T00:57:44.221Z</time>
</trkpt>
<trkpt lat="-27.0977984" lon="152.7482351">
<ele>500.419</ele>
<time>2015-12-27T00:57:46.264Z</time>
</trkpt>
<trkpt lat="-27.0972317" lon="152.7483047">
<ele>498.716</ele>
<time>2015-12-27T00:57:49.217Z</time>
</trkpt>
<trkpt lat="-27.0966670" lon="152.7483957">
<ele>497.823</ele>
<time>2015-12-27T00:57:52.153Z</time>
</trkpt>
<trkpt lat="-27.0961002" lon="152.7485383">
<ele>498.440</ele>
<time>2015-12-27T00:57:55.228Z</time>
</trkpt>
<trkpt lat="-27.0957451" lon="152.7486080">
<ele>500.116</ele>
<time>2015-12-27T00:57:57.173Z</time>
</trkpt>
<trkpt lat="-27.0953862" lon="152.7486766">
<ele>502.475</ele>
<time>2015-12-27T00:57:59.154Z</time>
</trkpt>
<trkpt lat="-27.0950143" lon="152.7487375">
<ele>505.710</ele>
<time>2015-12-27T00:58:01.227Z</time>
</trkpt>
<trkpt lat="-27.0946525" lon="152.7487518">
<ele>509.416</ele>
<time>2015-12-27T00:58:03.246Z</time>
</trkpt>
<trkpt lat="-27.0941272" lon="152.7486593">
<ele>512.497</ele>
<time>2015-12-27T00:58:06.307Z</time>
</trkpt>
<trkpt lat="-27.0936465" lon="152.7484327">
<ele>514.326</ele>
<time>2015-12-27T00:58:09.369Z</time>
</trkpt>
<trkpt lat="-27.0933547" lon="152.7482548">
<ele>515.724</ele>
<time>2015-12-27T00:58:11.317Z</time>
</trkpt>
<trkpt lat="-27.0929579" lon="152.7479316">
<ele>517.831</ele>
<time>2015-12-27T00:58:14.167Z</time>
</trkpt>
<trkpt lat="-27.0925487" lon="152.7475632">
<ele>520.265</ele>
<time>2015-12-27T00:58:17.204Z</time>
</trkpt>
<trkpt lat="-27.0922768" lon="152.7473343">
<ele>522.016</ele>
<time>2015-12-27T00:58:19.225Z</time>
</trkpt>
<trkpt lat="-27.0919926" lon="152.7471133">
<ele>522.762</ele>
<time>2015-12-27T00:58:21.321Z</time>
</trkpt>
<trkpt lat="-27.0915463" lon="152.7468934">
<ele>522.736</ele>
<time>2015-12-27T00:58:24.365Z</time>
</trkpt>
<trkpt lat="-27.0912418" lon="152.7467940">
<ele>522.807</ele>
<time>2015-12-27T00:58:26.346Z</time>
</trkpt>
<trkpt lat="-27.0907600" lon="152.7467014">
<ele>523.756</ele>
<time>2015-12-27T00:58:29.360Z</time>
</trkpt>
<trkpt lat="-27.0904368" lon="152.7466906">
<ele>526.130</ele>
<time>2015-12-27T00:58:31.319Z</time>
</trkpt>
<trkpt lat="-27.0899346" lon="152.7467629">
<ele>529.658</ele>
<time>2015-12-27T00:58:34.302Z</time>
</trkpt>
<trkpt lat="-27.0896249" lon="152.7468906">
<ele>532.908</ele>
<time>2015-12-27T00:58:36.236Z</time>
</trkpt>
<trkpt lat="-27.0891856" lon="152.7471623">
<ele>536.184</ele>
<time>2015-12-27T00:58:39.139Z</time>
</trkpt>
<trkpt lat="-27.0889039" lon="152.7474068">
<ele>540.533</ele>
<time>2015-12-27T00:58:41.162Z</time>
</trkpt>
<trkpt lat="-27.0886419" lon="152.7476829">
<ele>544.307</ele>
<time>2015-12-27T00:58:43.203Z</time>
</trkpt>
<trkpt lat="-27.0884621" lon="152.7480161">
<ele>545.875</ele>
<time>2015-12-27T00:58:45.183Z</time>
</trkpt>
<trkpt lat="-27.0882140" lon="152.7485209">
<ele>545.917</ele>
<time>2015-12-27T00:58:48.128Z</time>
</trkpt>
<trkpt lat="-27.0881019" lon="152.7488986">
<ele>545.421</ele>
<time>2015-12-27T00:58:50.158Z</time>
</trkpt>
<trkpt lat="-27.0880028" lon="152.7492725">
<ele>544.655</ele>
<time>2015-12-27T00:58:52.141Z</time>
</trkpt>
<trkpt lat="-27.0878676" lon="152.7498304">
<ele>543.358</ele>
<time>2015-12-27T00:58:54.949Z</time>
</trkpt>
<trkpt lat="-27.0877505" lon="152.7502233">
<ele>541.495</ele>
<time>2015-12-27T00:58:56.886Z</time>
</trkpt>
<trkpt lat="-27.0876537" lon="152.7506501">
<ele>539.320</ele>
<time>2015-12-27T00:58:58.915Z</time>
</trkpt>
<trkpt lat="-27.0875560" lon="152.7510610">
<ele>536.953</ele>
<time>2015-12-27T00:59:00.864Z</time>
</trkpt>
<trkpt lat="-27.0873999" lon="152.7516890">
<ele>534.201</ele>
<time>2015-12-27T00:59:03.879Z</time>
</trkpt>
<trkpt lat="-27.0872454" lon="152.7523134">
<ele>530.776</ele>
<time>2015-12-27T00:59:06.914Z</time>
</trkpt>
<trkpt lat="-27.0870943" lon="152.7529132">
<ele>526.715</ele>
<time>2015-12-27T00:59:09.767Z</time>
</trkpt>
<trkpt lat="-27.0869192" lon="152.7535415">
<ele>522.369</ele>
<time>2015-12-27T00:59:12.663Z</time>
</trkpt>
<trkpt lat="-27.0867508" lon="152.7539632">
<ele>518.107</ele>
<time>2015-12-27T00:59:14.677Z</time>
</trkpt>
<trkpt lat="-27.0864712" lon="152.7545669">
<ele>514.336</ele>
<time>2015-12-27T00:59:17.726Z</time>
</trkpt>
<trkpt lat="-27.0862597" lon="152.7549220">
<ele>510.991</ele>
<time>2015-12-27T00:59:19.696Z</time>
</trkpt>
<trkpt lat="-27.0860904" lon="152.7553087">
<ele>507.940</ele>
<time>2015-12-27T00:59:21.699Z</time>
</trkpt>
<trkpt lat="-27.0858920" lon="152.7559228">
<ele>505.454</ele>
<time>2015-12-27T00:59:24.707Z</time>
</trkpt>
<trkpt lat="-27.0857521" lon="152.7565458">
<ele>503.673</ele>
<time>2015-12-27T00:59:27.690Z</time>
</trkpt>
<trkpt lat="-27.0856378" lon="152.7569565">
<ele>502.632</ele>
<time>2015-12-27T00:59:29.702Z</time>
</trkpt>
<trkpt lat="-27.0853884" lon="152.7575447">
<ele>502.226</ele>
<time>2015-12-27T00:59:32.734Z</time>
</trkpt>
<trkpt lat="-27.0851897" lon="152.7579077">
<ele>501.909</ele>
<time>2015-12-27T00:59:34.714Z</time>
</trkpt>
<trkpt lat="-27.0849444" lon="152.7582386">
<ele>501.506</ele>
<time>2015-12-27T00:59:36.735Z</time>
</trkpt>
<trkpt lat="-27.0847027" lon="152.7585495">
<ele>501.121</ele>
<time>2015-12-27T00:59:38.690Z</time>
</trkpt>
<trkpt lat="-27.0843411" lon="152.7590186">
<ele>500.331</ele>
<time>2015-12-27T00:59:41.702Z</time>
</trkpt>
<trkpt lat="-27.0839935" lon="152.7594788">
<ele>498.493</ele>
<time>2015-12-27T00:59:44.828Z</time>
</trkpt>
<trkpt lat="-27.0837601" lon="152.7597624">
<ele>495.730</ele>
<time>2015-12-27T00:59:46.947Z</time>
</trkpt>
<trkpt lat="-27.0833805" lon="152.7600788">
<ele>493.077</ele>
<time>2015-12-27T00:59:50.041Z</time>
</trkpt>
<trkpt lat="-27.0831063" lon="152.7602217">
<ele>491.161</ele>
<time>2015-12-27T00:59:52.096Z</time>
</trkpt>
<trkpt lat="-27.0828255" lon="152.7603570">
<ele>489.529</ele>
<time>2015-12-27T00:59:54.224Z</time>
</trkpt>
<trkpt lat="-27.0824712" lon="152.7606166">
<ele>487.885</ele>
<time>2015-12-27T00:59:57.267Z</time>
</trkpt>
<trkpt lat="-27.0823200" lon="152.7608790">
<ele>486.540</ele>
<time>2015-12-27T00:59:59.253Z</time>
</trkpt>
<trkpt lat="-27.0823199" lon="152.7613606">
<ele>485.637</ele>
<time>2015-12-27T01:00:02.158Z</time>
</trkpt>
<trkpt lat="-27.0823702" lon="152.7618747">
<ele>485.338</ele>
<time>2015-12-27T01:00:05.122Z</time>
</trkpt>
<trkpt lat="-27.0824057" lon="152.7622265">
<ele>485.999</ele>
<time>2015-12-27T01:00:07.163Z</time>
</trkpt>
<trkpt lat="-27.0824041" lon="152.7625614">
<ele>487.305</ele>
<time>2015-12-27T01:00:09.050Z</time>
</trkpt>
<trkpt lat="-27.0823329" lon="152.7629013">
<ele>488.390</ele>
<time>2015-12-27T01:00:10.980Z</time>
</trkpt>
<trkpt lat="-27.0820811" lon="152.7633946">
<ele>488.920</ele>
<time>2015-12-27T01:00:13.902Z</time>
</trkpt>
<trkpt lat="-27.0818517" lon="152.7636974">
<ele>489.884</ele>
<time>2015-12-27T01:00:15.932Z</time>
</trkpt>
<trkpt lat="-27.0815251" lon="152.7641310">
<ele>492.273</ele>
<time>2015-12-27T01:00:18.977Z</time>
</trkpt>
<trkpt lat="-27.0812719" lon="152.7645850">
<ele>495.252</ele>
<time>2015-12-27T01:00:21.868Z</time>
</trkpt>
<trkpt lat="-27.0811604" lon="152.7649299">
<ele>497.113</ele>
<time>2015-12-27T01:00:23.812Z</time>
</trkpt>
<trkpt lat="-27.0810519" lon="152.7654750">
<ele>497.470</ele>
<time>2015-12-27T01:00:26.625Z</time>
</trkpt>
<trkpt lat="-27.0810395" lon="152.7658700">
<ele>496.697</ele>
<time>2015-12-27T01:00:28.545Z</time>
</trkpt>
<trkpt lat="-27.0810127" lon="152.7662872">
<ele>495.276</ele>
<time>2015-12-27T01:00:30.590Z</time>
</trkpt>
<trkpt lat="-27.0809842" lon="152.7668984">
<ele>494.105</ele>
<time>2015-12-27T01:00:33.825Z</time>
</trkpt>
<trkpt lat="-27.0809799" lon="152.7672665">
<ele>493.760</ele>
<time>2015-12-27T01:00:35.936Z</time>
</trkpt>
<trkpt lat="-27.0809526" lon="152.7677551">
<ele>493.904</ele>
<time>2015-12-27T01:00:38.967Z</time>
</trkpt>
<trkpt lat="-27.0809240" lon="152.7682366">
<ele>494.198</ele>
<time>2015-12-27T01:00:41.977Z</time>
</trkpt>
<trkpt lat="-27.0808993" lon="152.7685483">
<ele>494.591</ele>
<time>2015-12-27T01:00:43.912Z</time>
</trkpt>
<trkpt lat="-27.0808701" lon="152.7690280">
<ele>494.989</ele>
<time>2015-12-27T01:00:46.909Z</time>
</trkpt>
<trkpt lat="-27.0807977" lon="152.7695024">
<ele>495.032</ele>
<time>2015-12-27T01:00:50.182Z</time>
</trkpt>
<trkpt lat="-27.0806677" lon="152.7698978">
<ele>494.272</ele>
<time>2015-12-27T01:00:53.714Z</time>
</trkpt>
<trkpt lat="-27.0805595" lon="152.7702003">
<ele>492.889</ele>
<time>2015-12-27T01:00:56.803Z</time>
</trkpt>
<trkpt lat="-27.0805628" lon="152.7704105">
<ele>491.382</ele>
<time>2015-12-27T01:00:58.667Z</time>
</trkpt>
<trkpt lat="-27.0806579" lon="152.7707354">
<ele>490.002</ele>
<time>2015-12-27T01:01:01.394Z</time>
</trkpt>
<trkpt lat="-27.0807841" lon="152.7710840">
<ele>488.932</ele>
<time>2015-12-27T01:01:04.226Z</time>
</trkpt>
<trkpt lat="-27.0808286" lon="152.7713524">
<ele>488.205</ele>
<time>2015-12-27T01:01:06.329Z</time>
</trkpt>
<trkpt lat="-27.0807848" lon="152.7717483">
<ele>487.459</ele>
<time>2015-12-27T01:01:09.572Z</time>
</trkpt>
<trkpt lat="-27.0807570" lon="152.7719810">
<ele>486.262</ele>
<time>2015-12-27T01:01:11.482Z</time>
</trkpt>
<trkpt lat="-27.0806644" lon="152.7723322">
<ele>484.615</ele>
<time>2015-12-27T01:01:14.298Z</time>
</trkpt>
<trkpt lat="-27.0805428" lon="152.7725469">
<ele>483.176</ele>
<time>2015-12-27T01:01:16.071Z</time>
</trkpt>
<trkpt lat="-27.0803672" lon="152.7727696">
<ele>482.615</ele>
<time>2015-12-27T01:01:17.976Z</time>
</trkpt>
<trkpt lat="-27.0801606" lon="152.7729683">
<ele>483.097</ele>
<time>2015-12-27T01:01:19.851Z</time>
</trkpt>
<trkpt lat="-27.0797940" lon="152.7733052">
<ele>484.174</ele>
<time>2015-12-27T01:01:22.917Z</time>
</trkpt>
<trkpt lat="-27.0796033" lon="152.7735551">
<ele>485.311</ele>
<time>2015-12-27T01:01:24.778Z</time>
</trkpt>
<trkpt lat="-27.0793267" lon="152.7740106">
<ele>486.661</ele>
<time>2015-12-27T01:01:27.875Z</time>
</trkpt>
<trkpt lat="-27.0791847" lon="152.7743206">
<ele>488.533</ele>
<time>2015-12-27T01:01:29.835Z</time>
</trkpt>
<trkpt lat="-27.0790634" lon="152.7746465">
<ele>490.420</ele>
<time>2015-12-27T01:01:31.812Z</time>
</trkpt>
<trkpt lat="-27.0789096" lon="152.7749814">
<ele>491.565</ele>
<time>2015-12-27T01:01:33.905Z</time>
</trkpt>
<trkpt lat="-27.0788472" lon="152.7753208">
<ele>491.947</ele>
<time>2015-12-27T01:01:35.829Z</time>
</trkpt>
<trkpt lat="-27.0788457" lon="152.7756850">
<ele>492.140</ele>
<time>2015-12-27T01:01:37.860Z</time>
</trkpt>
<trkpt lat="-27.0789231" lon="152.7762159">
<ele>492.463</ele>
<time>2015-12-27T01:01:40.863Z</time>
</trkpt>
<trkpt lat="-27.0790703" lon="152.7767214">
<ele>492.645</ele>
<time>2015-12-27T01:01:43.812Z</time>
</trkpt>
<trkpt lat="-27.0791468" lon="152.7772686">
<ele>492.137</ele>
<time>2015-12-27T01:01:46.975Z</time>
</trkpt>
<trkpt lat="-27.0791663" lon="152.7777901">
<ele>490.998</ele>
<time>2015-12-27T01:01:50.242Z</time>
</trkpt>
<trkpt lat="-27.0791696" lon="152.7781000">
<ele>490.204</ele>
<time>2015-12-27T01:01:52.227Z</time>
</trkpt>
<trkpt lat="-27.0791383" lon="152.7785493">
<ele>490.359</ele>
<time>2015-12-27T01:01:55.011Z</time>
</trkpt>
<trkpt lat="-27.0791029" lon="152.7788671">
<ele>490.857</ele>
<time>2015-12-27T01:01:56.940Z</time>
</trkpt>
<trkpt lat="-27.0789747" lon="152.7793543">
<ele>490.883</ele>
<time>2015-12-27T01:01:59.826Z</time>
</trkpt>
<trkpt lat="-27.0788529" lon="152.7796747">
<ele>490.024</ele>
<time>2015-12-27T01:02:01.713Z</time>
</trkpt>
<trkpt lat="-27.0785786" lon="152.7801413">
<ele>488.463</ele>
<time>2015-12-27T01:02:04.599Z</time>
</trkpt>
<trkpt lat="-27.0782229" lon="152.7805939">
<ele>486.533</ele>
<time>2015-12-27T01:02:07.674Z</time>
</trkpt>
<trkpt lat="-27.0780065" lon="152.7808930">
<ele>483.918</ele>
<time>2015-12-27T01:02:09.619Z</time>
</trkpt>
<trkpt lat="-27.0777657" lon="152.7811827">
<ele>480.498</ele>
<time>2015-12-27T01:02:11.600Z</time>
</trkpt>
<trkpt lat="-27.0773252" lon="152.7815344">
<ele>477.196</ele>
<time>2015-12-27T01:02:14.602Z</time>
</trkpt>
<trkpt lat="-27.0770042" lon="152.7817105">
<ele>474.556</ele>
<time>2015-12-27T01:02:16.553Z</time>
</trkpt>
<trkpt lat="-27.0764740" lon="152.7818848">
<ele>472.441</ele>
<time>2015-12-27T01:02:19.469Z</time>
</trkpt>
<trkpt lat="-27.0760923" lon="152.7819350">
<ele>470.895</ele>
<time>2015-12-27T01:02:21.429Z</time>
</trkpt>
<trkpt lat="-27.0756970" lon="152.7819336">
<ele>470.050</ele>
<time>2015-12-27T01:02:23.421Z</time>
</trkpt>
<trkpt lat="-27.0751238" lon="152.7818231">
<ele>469.785</ele>
<time>2015-12-27T01:02:26.408Z</time>
</trkpt>
<trkpt lat="-27.0745669" lon="152.7817529">
<ele>469.886</ele>
<time>2015-12-27T01:02:29.333Z</time>
</trkpt>
<trkpt lat="-27.0741805" lon="152.7817751">
<ele>470.069</ele>
<time>2015-12-27T01:02:31.333Z</time>
</trkpt>
<trkpt lat="-27.0735899" lon="152.7818770">
<ele>470.201</ele>
<time>2015-12-27T01:02:34.366Z</time>
</trkpt>
<trkpt lat="-27.0731883" lon="152.7819130">
<ele>470.309</ele>
<time>2015-12-27T01:02:36.392Z</time>
</trkpt>
<trkpt lat="-27.0726051" lon="152.7818132">
<ele>470.680</ele>
<time>2015-12-27T01:02:39.343Z</time>
</trkpt>
<trkpt lat="-27.0720134" lon="152.7816425">
<ele>471.967</ele>
<time>2015-12-27T01:02:42.464Z</time>
</trkpt>
<trkpt lat="-27.0716737" lon="152.7815564">
<ele>474.780</ele>
<time>2015-12-27T01:02:44.329Z</time>
</trkpt>
<trkpt lat="-27.0712901" lon="152.7815390">
<ele>478.817</ele>
<time>2015-12-27T01:02:46.392Z</time>
</trkpt>
<trkpt lat="-27.0707429" lon="152.7815816">
<ele>482.824</ele>
<time>2015-12-27T01:02:49.330Z</time>
</trkpt>
<trkpt lat="-27.0703592" lon="152.7815920">
<ele>485.982</ele>
<time>2015-12-27T01:02:51.383Z</time>
</trkpt>
<trkpt lat="-27.0697960" lon="152.7814737">
<ele>488.435</ele>
<time>2015-12-27T01:02:54.421Z</time>
</trkpt>
<trkpt lat="-27.0694266" lon="152.7813951">
<ele>490.195</ele>
<time>2015-12-27T01:02:56.421Z</time>
</trkpt>
<trkpt lat="-27.0688720" lon="152.7812469">
<ele>491.273</ele>
<time>2015-12-27T01:02:59.483Z</time>
</trkpt>
<trkpt lat="-27.0684953" lon="152.7811448">
<ele>492.296</ele>
<time>2015-12-27T01:03:01.573Z</time>
</trkpt>
<trkpt lat="-27.0679448" lon="152.7810494">
<ele>493.560</ele>
<time>2015-12-27T01:03:04.535Z</time>
</trkpt>
<trkpt lat="-27.0673580" lon="152.7809578">
<ele>494.800</ele>
<time>2015-12-27T01:03:07.654Z</time>
</trkpt>
<trkpt lat="-27.0669986" lon="152.7808912">
<ele>495.917</ele>
<time>2015-12-27T01:03:09.614Z</time>
</trkpt>
<trkpt lat="-27.0664719" lon="152.7808177">
<ele>496.818</ele>
<time>2015-12-27T01:03:12.629Z</time>
</trkpt>
<trkpt lat="-27.0659834" lon="152.7807658">
<ele>496.870</ele>
<time>2015-12-27T01:03:15.776Z</time>
</trkpt>
<trkpt lat="-27.0655480" lon="152.7807798">
<ele>495.400</ele>
<time>2015-12-27T01:03:19.008Z</time>
</trkpt>
<trkpt lat="-27.0651696" lon="152.7807911">
<ele>492.215</ele>
<time>2015-12-27T01:03:21.659Z</time>
</trkpt>
<trkpt lat="-27.0646957" lon="152.7807801">
<ele>488.082</ele>
<time>2015-12-27T01:03:24.445Z</time>
</trkpt>
<trkpt lat="-27.0643163" lon="152.7806917">
<ele>484.632</ele>
<time>2015-12-27T01:03:26.473Z</time>
</trkpt>
<trkpt lat="-27.0637942" lon="152.7804488">
<ele>482.957</ele>
<time>2015-12-27T01:03:29.330Z</time>
</trkpt>
<trkpt lat="-27.0634828" lon="152.7802355">
<ele>482.352</ele>
<time>2015-12-27T01:03:31.096Z</time>
</trkpt>
<trkpt lat="-27.0630006" lon="152.7798192">
<ele>481.288</ele>
<time>2015-12-27T01:03:33.849Z</time>
</trkpt>
<trkpt lat="-27.0624370" lon="152.7793173">
<ele>479.350</ele>
<time>2015-12-27T01:03:36.900Z</time>
</trkpt>
<trkpt lat="-27.0620669" lon="152.7789676">
<ele>477.527</ele>
<time>2015-12-27T01:03:38.923Z</time>
</trkpt>
<trkpt lat="-27.0617179" lon="152.7786293">
<ele>476.041</ele>
<time>2015-12-27T01:03:40.840Z</time>
</trkpt>
<trkpt lat="-27.0611726" lon="152.7780490">
<ele>473.757</ele>
<time>2015-12-27T01:03:43.943Z</time>
</trkpt>
<trkpt lat="-27.0608290" lon="152.7776385">
<ele>470.188</ele>
<time>2015-12-27T01:03:46.076Z</time>
</trkpt>
<trkpt lat="-27.0603842" lon="152.7770698">
<ele>466.007</ele>
<time>2015-12-27T01:03:49.035Z</time>
</trkpt>
<trkpt lat="-27.0599609" lon="152.7765026">
<ele>461.734</ele>
<time>2015-12-27T01:03:52.041Z</time>
</trkpt>
<trkpt lat="-27.0596803" lon="152.7761277">
<ele>457.850</ele>
<time>2015-12-27T01:03:54.100Z</time>
</trkpt>
<trkpt lat="-27.0592786" lon="152.7755814">
<ele>455.185</ele>
<time>2015-12-27T01:03:57.195Z</time>
</trkpt>
<trkpt lat="-27.0590092" lon="152.7752886">
<ele>453.472</ele>
<time>2015-12-27T01:03:59.170Z</time>
</trkpt>
<trkpt lat="-27.0585611" lon="152.7749292">
<ele>451.393</ele>
<time>2015-12-27T01:04:02.093Z</time>
</trkpt>
<trkpt lat="-27.0580243" lon="152.7746821">
<ele>448.653</ele>
<time>2015-12-27T01:04:05.049Z</time>
</trkpt>
<trkpt lat="-27.0576262" lon="152.7745433">
<ele>446.246</ele>
<time>2015-12-27T01:04:06.912Z</time>
</trkpt>
<trkpt lat="-27.0569345" lon="152.7743645">
<ele>445.075</ele>
<time>2015-12-27T01:04:09.784Z</time>
</trkpt>
<trkpt lat="-27.0561284" lon="152.7741408">
<ele>445.854</ele>
<time>2015-12-27T01:04:12.815Z</time>
</trkpt>
<trkpt lat="-27.0555797" lon="152.7739842">
<ele>449.636</ele>
<time>2015-12-27T01:04:14.846Z</time>
</trkpt>
<trkpt lat="-27.0550418" lon="152.7738243">
<ele>455.529</ele>
<time>2015-12-27T01:04:16.931Z</time>
</trkpt>
<trkpt lat="-27.0545620" lon="152.7736829">
<ele>459.528</ele>
<time>2015-12-27T01:04:18.941Z</time>
</trkpt>
<trkpt lat="-27.0538781" lon="152.7734434">
<ele>458.867</ele>
<time>2015-12-27T01:04:21.982Z</time>
</trkpt>
<trkpt lat="-27.0534969" lon="152.7732410">
<ele>454.374</ele>
<time>2015-12-27T01:04:23.855Z</time>
</trkpt>
<trkpt lat="-27.0531346" lon="152.7729467">
<ele>448.805</ele>
<time>2015-12-27T01:04:25.822Z</time>
</trkpt>
<trkpt lat="-27.0526078" lon="152.7724551">
<ele>445.086</ele>
<time>2015-12-27T01:04:28.825Z</time>
</trkpt>
<trkpt lat="-27.0520889" lon="152.7719691">
<ele>444.682</ele>
<time>2015-12-27T01:04:31.790Z</time>
</trkpt>
<trkpt lat="-27.0517313" lon="152.7716500">
<ele>446.712</ele>
<time>2015-12-27T01:04:33.803Z</time>
</trkpt>
<trkpt lat="-27.0513642" lon="152.7713492">
<ele>449.435</ele>
<time>2015-12-27T01:04:35.906Z</time>
</trkpt>
<trkpt lat="-27.0508133" lon="152.7710172">
<ele>451.708</ele>
<time>2015-12-27T01:04:38.945Z</time>
</trkpt>
<trkpt lat="-27.0504497" lon="152.7708894">
<ele>453.142</ele>
<time>2015-12-27T01:04:40.910Z</time>
</trkpt>
<trkpt lat="-27.0498778" lon="152.7708600">
<ele>453.675</ele>
<time>2015-12-27T01:04:43.964Z</time>
</trkpt>
<trkpt lat="-27.0493880" lon="152.7709907">
<ele>453.671</ele>
<time>2015-12-27T01:04:46.717Z</time>
</trkpt>
<trkpt lat="-27.0490490" lon="152.7711372">
<ele>453.172</ele>
<time>2015-12-27T01:04:48.650Z</time>
</trkpt>
<trkpt lat="-27.0485213" lon="152.7713810">
<ele>451.912</ele>
<time>2015-12-27T01:04:51.656Z</time>
</trkpt>
<trkpt lat="-27.0481755" lon="152.7715543">
<ele>449.439</ele>
<time>2015-12-27T01:04:53.675Z</time>
</trkpt>
<trkpt lat="-27.0477183" lon="152.7717911">
<ele>445.531</ele>
<time>2015-12-27T01:04:56.430Z</time>
</trkpt>
<trkpt lat="-27.0473949" lon="152.7719593">
<ele>441.367</ele>
<time>2015-12-27T01:04:58.535Z</time>
</trkpt>
<trkpt lat="-27.0470868" lon="152.7720985">
<ele>438.323</ele>
<time>2015-12-27T01:05:00.645Z</time>
</trkpt>
<trkpt lat="-27.0467392" lon="152.7723060">
<ele>435.755</ele>
<time>2015-12-27T01:05:03.364Z</time>
</trkpt>
<trkpt lat="-27.0463894" lon="152.7726015">
<ele>432.597</ele>
<time>2015-12-27T01:05:06.446Z</time>
</trkpt>
<trkpt lat="-27.0462315" lon="152.7730869">
<ele>428.838</ele>
<time>2015-12-27T01:05:09.657Z</time>
</trkpt>
<trkpt lat="-27.0461488" lon="152.7733955">
<ele>424.739</ele>
<time>2015-12-27T01:05:11.756Z</time>
</trkpt>
<trkpt lat="-27.0461070" lon="152.7736733">
<ele>420.767</ele>
<time>2015-12-27T01:05:13.774Z</time>
</trkpt>
<trkpt lat="-27.0462146" lon="152.7740271">
<ele>417.315</ele>
<time>2015-12-27T01:05:16.531Z</time>
</trkpt>
<trkpt lat="-27.0463153" lon="152.7744189">
<ele>414.082</ele>
<time>2015-12-27T01:05:19.508Z</time>
</trkpt>
<trkpt lat="-27.0463222" lon="152.7747072">
<ele>410.711</ele>
<time>2015-12-27T01:05:21.533Z</time>
</trkpt>
<trkpt lat="-27.0463618" lon="152.7751291">
<ele>407.457</ele>
<time>2015-12-27T01:05:24.518Z</time>
</trkpt>
<trkpt lat="-27.0463157" lon="152.7753972">
<ele>404.333</ele>
<time>2015-12-27T01:05:26.528Z</time>
</trkpt>
<trkpt lat="-27.0460937" lon="152.7757388">
<ele>401.128</ele>
<time>2015-12-27T01:05:29.878Z</time>
</trkpt>
<trkpt lat="-27.0458605" lon="152.7759127">
<ele>397.665</ele>
<time>2015-12-27T01:05:32.686Z</time>
</trkpt>
<trkpt lat="-27.0455922" lon="152.7760356">
<ele>393.742</ele>
<time>2015-12-27T01:05:35.738Z</time>
</trkpt>
<trkpt lat="-27.0454541" lon="152.7762438">
<ele>389.400</ele>
<time>2015-12-27T01:05:38.034Z</time>
</trkpt>
<trkpt lat="-27.0454735" lon="152.7764972">
<ele>385.344</ele>
<time>2015-12-27T01:05:40.217Z</time>
</trkpt>
<trkpt lat="-27.0453340" lon="152.7768132">
<ele>382.281</ele>
<time>2015-12-27T01:05:43.397Z</time>
</trkpt>
<trkpt lat="-27.0451292" lon="152.7770103">
<ele>379.892</ele>
<time>2015-12-27T01:05:46.072Z</time>
</trkpt>
<trkpt lat="-27.0448341" lon="152.7771101">
<ele>377.414</ele>
<time>2015-12-27T01:05:48.381Z</time>
</trkpt>
<trkpt lat="-27.0443258" lon="152.7772934">
<ele>375.100</ele>
<time>2015-12-27T01:05:51.835Z</time>
</trkpt>
<trkpt lat="-27.0438683" lon="152.7774807">
<ele>373.059</ele>
<time>2015-12-27T01:05:54.839Z</time>
</trkpt>
<trkpt lat="-27.0435715" lon="152.7775553">
<ele>370.384</ele>
<time>2015-12-27T01:05:56.690Z</time>
</trkpt>
<trkpt lat="-27.0432382" lon="152.7775837">
<ele>366.833</ele>
<time>2015-12-27T01:05:58.640Z</time>
</trkpt>
<trkpt lat="-27.0426727" lon="152.7776008">
<ele>363.142</ele>
<time>2015-12-27T01:06:01.875Z</time>
</trkpt>
<trkpt lat="-27.0421704" lon="152.7775293">
<ele>359.434</ele>
<time>2015-12-27T01:06:04.833Z</time>
</trkpt>
<trkpt lat="-27.0418320" lon="152.7774926">
<ele>355.324</ele>
<time>2015-12-27T01:06:06.884Z</time>
</trkpt>
<trkpt lat="-27.0413910" lon="152.7775039">
<ele>350.881</ele>
<time>2015-12-27T01:06:09.565Z</time>
</trkpt>
<trkpt lat="-27.0410594" lon="152.7774881">
<ele>346.186</ele>
<time>2015-12-27T01:06:11.523Z</time>
</trkpt>
<trkpt lat="-27.0405352" lon="152.7774177">
<ele>341.542</ele>
<time>2015-12-27T01:06:14.706Z</time>
</trkpt>
<trkpt lat="-27.0402166" lon="152.7773518">
<ele>337.300</ele>
<time>2015-12-27T01:06:16.907Z</time>
</trkpt>
<trkpt lat="-27.0399373" lon="152.7773056">
<ele>332.923</ele>
<time>2015-12-27T01:06:18.995Z</time>
</trkpt>
<trkpt lat="-27.0395746" lon="152.7773099">
<ele>328.080</ele>
<time>2015-12-27T01:06:22.164Z</time>
</trkpt>
<trkpt lat="-27.0393472" lon="152.7771178">
<ele>322.946</ele>
<time>2015-12-27T01:06:24.958Z</time>
</trkpt>
<trkpt lat="-27.0390748" lon="152.7769646">
<ele>317.583</ele>
<time>2015-12-27T01:06:27.979Z</time>
</trkpt>
<trkpt lat="-27.0388558" lon="152.7770215">
<ele>312.336</ele>
<time>2015-12-27T01:06:30.092Z</time>
</trkpt>
<trkpt lat="-27.0385785" lon="152.7772074">
<ele>307.903</ele>
<time>2015-12-27T01:06:32.975Z</time>
</trkpt>
<trkpt lat="-27.0382638" lon="152.7772887">
<ele>304.576</ele>
<time>2015-12-27T01:06:35.892Z</time>
</trkpt>
<trkpt lat="-27.0378758" lon="152.7771877">
<ele>301.744</ele>
<time>2015-12-27T01:06:39.592Z</time>
</trkpt>
<trkpt lat="-27.0375989" lon="152.7772675">
<ele>298.400</ele>
<time>2015-12-27T01:06:42.140Z</time>
</trkpt>
<trkpt lat="-27.0373224" lon="152.7773751">
<ele>294.370</ele>
<time>2015-12-27T01:06:44.711Z</time>
</trkpt>
<trkpt lat="-27.0370121" lon="152.7772950">
<ele>290.211</ele>
<time>2015-12-27T01:06:47.635Z</time>
</trkpt>
<trkpt lat="-27.0368064" lon="152.7772909">
<ele>286.321</ele>
<time>2015-12-27T01:06:49.509Z</time>
</trkpt>
<trkpt lat="-27.0365864" lon="152.7773560">
<ele>282.700</ele>
<time>2015-12-27T01:06:51.529Z</time>
</trkpt>
<trkpt lat="-27.0362666" lon="152.7774218">
<ele>279.582</ele>
<time>2015-12-27T01:06:54.218Z</time>
</trkpt>
<trkpt lat="-27.0358324" lon="152.7772606">
<ele>277.137</ele>
<time>2015-12-27T01:06:57.885Z</time>
</trkpt>
<trkpt lat="-27.0356414" lon="152.7771108">
<ele>275.020</ele>
<time>2015-12-27T01:06:59.958Z</time>
</trkpt>
<trkpt lat="-27.0353378" lon="152.7769817">
<ele>272.618</ele>
<time>2015-12-27T01:07:03.085Z</time>
</trkpt>
<trkpt lat="-27.0351144" lon="152.7769000">
<ele>269.121</ele>
<time>2015-12-27T01:07:05.440Z</time>
</trkpt>
<trkpt lat="-27.0349048" lon="152.7766649">
<ele>264.556</ele>
<time>2015-12-27T01:07:08.569Z</time>
</trkpt>
<trkpt lat="-27.0347644" lon="152.7765252">
<ele>259.973</ele>
<time>2015-12-27T01:07:10.542Z</time>
</trkpt>
<trkpt lat="-27.0344710" lon="152.7765268">
<ele>256.045</ele>
<time>2015-12-27T01:07:13.288Z</time>
</trkpt>
<trkpt lat="-27.0343249" lon="152.7766996">
<ele>252.673</ele>
<time>2015-12-27T01:07:15.081Z</time>
</trkpt>
<trkpt lat="-27.0340760" lon="152.7769778">
<ele>249.705</ele>
<time>2015-12-27T01:07:17.874Z</time>
</trkpt>
<trkpt lat="-27.0337204" lon="152.7771586">
<ele>246.965</ele>
<time>2015-12-27T01:07:20.886Z</time>
</trkpt>
<trkpt lat="-27.0333898" lon="152.7774638">
<ele>243.956</ele>
<time>2015-12-27T01:07:24.178Z</time>
</trkpt>
<trkpt lat="-27.0331516" lon="152.7776223">
<ele>239.818</ele>
<time>2015-12-27T01:07:26.358Z</time>
</trkpt>
<trkpt lat="-27.0328288" lon="152.7778228">
<ele>234.636</ele>
<time>2015-12-27T01:07:29.253Z</time>
</trkpt>
<trkpt lat="-27.0325501" lon="152.7780507">
<ele>229.228</ele>
<time>2015-12-27T01:07:31.855Z</time>
</trkpt>
<trkpt lat="-27.0321577" lon="152.7781183">
<ele>224.217</ele>
<time>2015-12-27T01:07:34.637Z</time>
</trkpt>
<trkpt lat="-27.0318732" lon="152.7781356">
<ele>219.816</ele>
<time>2015-12-27T01:07:36.571Z</time>
</trkpt>
<trkpt lat="-27.0314333" lon="152.7781531">
<ele>215.926</ele>
<time>2015-12-27T01:07:39.450Z</time>
</trkpt>
<trkpt lat="-27.0311402" lon="152.7782222">
<ele>211.958</ele>
<time>2015-12-27T01:07:41.316Z</time>
</trkpt>
<trkpt lat="-27.0308480" lon="152.7783805">
<ele>207.736</ele>
<time>2015-12-27T01:07:43.222Z</time>
</trkpt>
<trkpt lat="-27.0305841" lon="152.7786448">
<ele>203.771</ele>
<time>2015-12-27T01:07:45.249Z</time>
</trkpt>
<trkpt lat="-27.0301298" lon="152.7789950">
<ele>200.789</ele>
<time>2015-12-27T01:07:48.370Z</time>
</trkpt>
<trkpt lat="-27.0296264" lon="152.7792140">
<ele>198.990</ele>
<time>2015-12-27T01:07:51.449Z</time>
</trkpt>
<trkpt lat="-27.0290657" lon="152.7793158">
<ele>198.144</ele>
<time>2015-12-27T01:07:54.855Z</time>
</trkpt>
<trkpt lat="-27.0287286" lon="152.7792742">
<ele>198.099</ele>
<time>2015-12-27T01:07:57.132Z</time>
</trkpt>
<trkpt lat="-27.0284936" lon="152.7792047">
<ele>198.939</ele>
<time>2015-12-27T01:07:58.801Z</time>
</trkpt>
<trkpt lat="-27.0280549" lon="152.7791485">
<ele>200.502</ele>
<time>2015-12-27T01:08:01.934Z</time>
</trkpt>
<trkpt lat="-27.0276707" lon="152.7793052">
<ele>202.677</ele>
<time>2015-12-27T01:08:05.046Z</time>
</trkpt>
<trkpt lat="-27.0274213" lon="152.7793960">
<ele>205.558</ele>
<time>2015-12-27T01:08:07.151Z</time>
</trkpt>
<trkpt lat="-27.0270807" lon="152.7792931">
<ele>208.730</ele>
<time>2015-12-27T01:08:09.955Z</time>
</trkpt>
<trkpt lat="-27.0267846" lon="152.7790018">
<ele>211.744</ele>
<time>2015-12-27T01:08:12.886Z</time>
</trkpt>
<trkpt lat="-27.0265873" lon="152.7787881">
<ele>215.171</ele>
<time>2015-12-27T01:08:15.007Z</time>
</trkpt>
<trkpt lat="-27.0263750" lon="152.7785878">
<ele>219.309</ele>
<time>2015-12-27T01:08:17.333Z</time>
</trkpt>
<trkpt lat="-27.0260922" lon="152.7783250">
<ele>223.453</ele>
<time>2015-12-27T01:08:20.932Z</time>
</trkpt>
<trkpt lat="-27.0258099" lon="152.7781890">
<ele>227.101</ele>
<time>2015-12-27T01:08:24.672Z</time>
</trkpt>
<trkpt lat="-27.0257128" lon="152.7781772">
<ele>229.913</ele>
<time>2015-12-27T01:08:25.868Z</time>
</trkpt>
<trkpt lat="-27.0256186" lon="152.7782996">
<ele>231.402</ele>
<time>2015-12-27T01:08:27.460Z</time>
</trkpt>
<trkpt lat="-27.0255324" lon="152.7785614">
<ele>231.735</ele>
<time>2015-12-27T01:08:29.974Z</time>
</trkpt>
<trkpt lat="-27.0256626" lon="152.7788401">
<ele>231.560</ele>
<time>2015-12-27T01:08:32.521Z</time>
</trkpt>
<trkpt lat="-27.0255784" lon="152.7790758">
<ele>231.289</ele>
<time>2015-12-27T01:08:34.386Z</time>
</trkpt>
<trkpt lat="-27.0254256" lon="152.7792767">
<ele>230.989</ele>
<time>2015-12-27T01:08:36.267Z</time>
</trkpt>
<trkpt lat="-27.0250488" lon="152.7794328">
<ele>230.655</ele>
<time>2015-12-27T01:08:39.577Z</time>
</trkpt>
<trkpt lat="-27.0246983" lon="152.7794545">
<ele>230.381</ele>
<time>2015-12-27T01:08:42.737Z</time>
</trkpt>
<trkpt lat="-27.0243604" lon="152.7794379">
<ele>229.524</ele>
<time>2015-12-27T01:08:45.834Z</time>
</trkpt>
<trkpt lat="-27.0241698" lon="152.7795379">
<ele>226.883</ele>
<time>2015-12-27T01:08:47.603Z</time>
</trkpt>
<trkpt lat="-27.0240260" lon="152.7797314">
<ele>222.894</ele>
<time>2015-12-27T01:08:49.333Z</time>
</trkpt>
<trkpt lat="-27.0239468" lon="152.7799971">
<ele>219.576</ele>
<time>2015-12-27T01:08:51.157Z</time>
</trkpt>
<trkpt lat="-27.0238946" lon="152.7803039">
<ele>217.792</ele>
<time>2015-12-27T01:08:53.198Z</time>
</trkpt>
<trkpt lat="-27.0236629" lon="152.7806974">
<ele>216.707</ele>
<time>2015-12-27T01:08:56.349Z</time>
</trkpt>
<trkpt lat="-27.0234491" lon="152.7808757">
<ele>215.272</ele>
<time>2015-12-27T01:08:58.346Z</time>
</trkpt>
<trkpt lat="-27.0231899" lon="152.7809454">
<ele>213.412</ele>
<time>2015-12-27T01:09:00.105Z</time>
</trkpt>
<trkpt lat="-27.0227725" lon="152.7808743">
<ele>211.738</ele>
<time>2015-12-27T01:09:02.575Z</time>
</trkpt>
<trkpt lat="-27.0221925" lon="152.7806552">
<ele>210.627</ele>
<time>2015-12-27T01:09:05.480Z</time>
</trkpt>
<trkpt lat="-27.0217939" lon="152.7804801">
<ele>210.186</ele>
<time>2015-12-27T01:09:07.387Z</time>
</trkpt>
<trkpt lat="-27.0211138" lon="152.7801604">
<ele>210.345</ele>
<time>2015-12-27T01:09:10.517Z</time>
</trkpt>
<trkpt lat="-27.0206383" lon="152.7799789">
<ele>210.432</ele>
<time>2015-12-27T01:09:12.747Z</time>
</trkpt>
<trkpt lat="-27.0201818" lon="152.7798206">
<ele>209.868</ele>
<time>2015-12-27T01:09:14.939Z</time>
</trkpt>
<trkpt lat="-27.0195862" lon="152.7795695">
<ele>208.766</ele>
<time>2015-12-27T01:09:17.915Z</time>
</trkpt>
<trkpt lat="-27.0189730" lon="152.7793443">
<ele>206.497</ele>
<time>2015-12-27T01:09:20.809Z</time>
</trkpt>
<trkpt lat="-27.0185302" lon="152.7791794">
<ele>202.364</ele>
<time>2015-12-27T01:09:22.773Z</time>
</trkpt>
<trkpt lat="-27.0180632" lon="152.7791045">
<ele>197.838</ele>
<time>2015-12-27T01:09:24.719Z</time>
</trkpt>
<trkpt lat="-27.0175499" lon="152.7790922">
<ele>194.895</ele>
<time>2015-12-27T01:09:26.842Z</time>
</trkpt>
<trkpt lat="-27.0168454" lon="152.7789690">
<ele>193.722</ele>
<time>2015-12-27T01:09:29.817Z</time>
</trkpt>
<trkpt lat="-27.0163868" lon="152.7788868">
<ele>192.902</ele>
<time>2015-12-27T01:09:31.758Z</time>
</trkpt>
<trkpt lat="-27.0156549" lon="152.7787842">
<ele>191.024</ele>
<time>2015-12-27T01:09:34.834Z</time>
</trkpt>
<trkpt lat="-27.0152022" lon="152.7787923">
<ele>188.226</ele>
<time>2015-12-27T01:09:36.724Z</time>
</trkpt>
<trkpt lat="-27.0147255" lon="152.7788061">
<ele>185.412</ele>
<time>2015-12-27T01:09:38.724Z</time>
</trkpt>
<trkpt lat="-27.0142676" lon="152.7788111">
<ele>183.200</ele>
<time>2015-12-27T01:09:40.624Z</time>
</trkpt>
<trkpt lat="-27.0137915" lon="152.7787581">
<ele>182.042</ele>
<time>2015-12-27T01:09:42.595Z</time>
</trkpt>
<trkpt lat="-27.0130861" lon="152.7786547">
<ele>181.796</ele>
<time>2015-12-27T01:09:45.486Z</time>
</trkpt>
<trkpt lat="-27.0123726" lon="152.7785532">
<ele>181.737</ele>
<time>2015-12-27T01:09:48.439Z</time>
</trkpt>
<trkpt lat="-27.0118559" lon="152.7784715">
<ele>181.377</ele>
<time>2015-12-27T01:09:50.646Z</time>
</trkpt>
<trkpt lat="-27.0111777" lon="152.7783739">
<ele>180.811</ele>
<time>2015-12-27T01:09:53.630Z</time>
</trkpt>
<trkpt lat="-27.0104836" lon="152.7783327">
<ele>179.645</ele>
<time>2015-12-27T01:09:56.716Z</time>
</trkpt>
<trkpt lat="-27.0100479" lon="152.7783499">
<ele>177.421</ele>
<time>2015-12-27T01:09:58.662Z</time>
</trkpt>
<trkpt lat="-27.0093634" lon="152.7783920">
<ele>174.689</ele>
<time>2015-12-27T01:10:01.699Z</time>
</trkpt>
<trkpt lat="-27.0086877" lon="152.7784951">
<ele>171.860</ele>
<time>2015-12-27T01:10:04.627Z</time>
</trkpt>
<trkpt lat="-27.0082311" lon="152.7785713">
<ele>168.653</ele>
<time>2015-12-27T01:10:06.581Z</time>
</trkpt>
<trkpt lat="-27.0075361" lon="152.7787755">
<ele>165.491</ele>
<time>2015-12-27T01:10:09.599Z</time>
</trkpt>
<trkpt lat="-27.0068693" lon="152.7790882">
<ele>163.203</ele>
<time>2015-12-27T01:10:12.665Z</time>
</trkpt>
<trkpt lat="-27.0064896" lon="152.7793263">
<ele>161.978</ele>
<time>2015-12-27T01:10:14.508Z</time>
</trkpt>
<trkpt lat="-27.0058858" lon="152.7797429">
<ele>161.400</ele>
<time>2015-12-27T01:10:17.472Z</time>
</trkpt>
<trkpt lat="-27.0055131" lon="152.7800645">
<ele>161.084</ele>
<time>2015-12-27T01:10:19.405Z</time>
</trkpt>
<trkpt lat="-27.0051356" lon="152.7804346">
<ele>160.891</ele>
<time>2015-12-27T01:10:21.443Z</time>
</trkpt>
<trkpt lat="-27.0046300" lon="152.7810284">
<ele>160.827</ele>
<time>2015-12-27T01:10:24.347Z</time>
</trkpt>
<trkpt lat="-27.0043190" lon="152.7814830">
<ele>160.927</ele>
<time>2015-12-27T01:10:26.372Z</time>
</trkpt>
<trkpt lat="-27.0039395" lon="152.7821834">
<ele>161.177</ele>
<time>2015-12-27T01:10:29.303Z</time>
</trkpt>
<trkpt lat="-27.0036578" lon="152.7826446">
<ele>161.309</ele>
<time>2015-12-27T01:10:31.313Z</time>
</trkpt>
<trkpt lat="-27.0032386" lon="152.7833492">
<ele>161.026</ele>
<time>2015-12-27T01:10:34.517Z</time>
</trkpt>
<trkpt lat="-27.0029583" lon="152.7837905">
<ele>160.415</ele>
<time>2015-12-27T01:10:36.698Z</time>
</trkpt>
<trkpt lat="-27.0026151" lon="152.7843971">
<ele>159.819</ele>
<time>2015-12-27T01:10:39.809Z</time>
</trkpt>
<trkpt lat="-27.0023939" lon="152.7847840">
<ele>158.929</ele>
<time>2015-12-27T01:10:41.824Z</time>
</trkpt>
<trkpt lat="-27.0021067" lon="152.7853856">
<ele>157.277</ele>
<time>2015-12-27T01:10:44.817Z</time>
</trkpt>
<trkpt lat="-27.0018810" lon="152.7860226">
<ele>155.399</ele>
<time>2015-12-27T01:10:47.857Z</time>
</trkpt>
<trkpt lat="-27.0016958" lon="152.7866585">
<ele>154.128</ele>
<time>2015-12-27T01:10:50.852Z</time>
</trkpt>
<trkpt lat="-27.0016233" lon="152.7870830">
<ele>153.195</ele>
<time>2015-12-27T01:10:52.748Z</time>
</trkpt>
<trkpt lat="-27.0015640" lon="152.7875264">
<ele>152.129</ele>
<time>2015-12-27T01:10:54.716Z</time>
</trkpt>
<trkpt lat="-27.0014864" lon="152.7882141">
<ele>151.361</ele>
<time>2015-12-27T01:10:57.777Z</time>
</trkpt>
<trkpt lat="-27.0014486" lon="152.7886511">
<ele>151.434</ele>
<time>2015-12-27T01:10:59.715Z</time>
</trkpt>
<trkpt lat="-27.0013997" lon="152.7893215">
<ele>152.013</ele>
<time>2015-12-27T01:11:02.649Z</time>
</trkpt>
<trkpt lat="-27.0013514" lon="152.7897774">
<ele>152.498</ele>
<time>2015-12-27T01:11:04.645Z</time>
</trkpt>
<trkpt lat="-27.0013127" lon="152.7902447">
<ele>152.592</ele>
<time>2015-12-27T01:11:06.721Z</time>
</trkpt>
<trkpt lat="-27.0012791" lon="152.7906820">
<ele>152.371</ele>
<time>2015-12-27T01:11:08.727Z</time>
</trkpt>
<trkpt lat="-27.0012215" lon="152.7911049">
<ele>151.880</ele>
<time>2015-12-27T01:11:10.711Z</time>
</trkpt>
<trkpt lat="-27.0010905" lon="152.7917118">
<ele>150.699</ele>
<time>2015-12-27T01:11:13.660Z</time>
</trkpt>
<trkpt lat="-27.0009491" lon="152.7921032">
<ele>148.686</ele>
<time>2015-12-27T01:11:15.649Z</time>
</trkpt>
<trkpt lat="-27.0006334" lon="152.7926473">
<ele>146.675</ele>
<time>2015-12-27T01:11:18.690Z</time>
</trkpt>
<trkpt lat="-27.0003728" lon="152.7929630">
<ele>145.524</ele>
<time>2015-12-27T01:11:20.743Z</time>
</trkpt>
<trkpt lat="-27.0000847" lon="152.7932203">
<ele>145.226</ele>
<time>2015-12-27T01:11:22.721Z</time>
</trkpt>
<trkpt lat="-26.9996047" lon="152.7935190">
<ele>145.334</ele>
<time>2015-12-27T01:11:25.646Z</time>
</trkpt>
<trkpt lat="-26.9992468" lon="152.7936670">
<ele>145.684</ele>
<time>2015-12-27T01:11:27.637Z</time>
</trkpt>
<trkpt lat="-26.9988795" lon="152.7937680">
<ele>146.340</ele>
<time>2015-12-27T01:11:29.556Z</time>
</trkpt>
<trkpt lat="-26.9984902" lon="152.7938521">
<ele>147.078</ele>
<time>2015-12-27T01:11:31.536Z</time>
</trkpt>
<trkpt lat="-26.9980695" lon="152.7939209">
<ele>147.563</ele>
<time>2015-12-27T01:11:33.638Z</time>
</trkpt>
<trkpt lat="-26.9974559" lon="152.7940093">
<ele>147.737</ele>
<time>2015-12-27T01:11:36.731Z</time>
</trkpt>
<trkpt lat="-26.9970525" lon="152.7940770">
<ele>147.590</ele>
<time>2015-12-27T01:11:38.820Z</time>
</trkpt>
<trkpt lat="-26.9966630" lon="152.7941258">
<ele>146.956</ele>
<time>2015-12-27T01:11:40.835Z</time>
</trkpt>
<trkpt lat="-26.9960888" lon="152.7942188">
<ele>145.984</ele>
<time>2015-12-27T01:11:43.826Z</time>
</trkpt>
<trkpt lat="-26.9955048" lon="152.7943002">
<ele>145.210</ele>
<time>2015-12-27T01:11:46.846Z</time>
</trkpt>
<trkpt lat="-26.9951236" lon="152.7943510">
<ele>144.910</ele>
<time>2015-12-27T01:11:48.818Z</time>
</trkpt>
<trkpt lat="-26.9947244" lon="152.7944131">
<ele>144.907</ele>
<time>2015-12-27T01:11:50.902Z</time>
</trkpt>
<trkpt lat="-26.9941652" lon="152.7945019">
<ele>144.953</ele>
<time>2015-12-27T01:11:53.863Z</time>
</trkpt>
<trkpt lat="-26.9937972" lon="152.7945659">
<ele>144.920</ele>
<time>2015-12-27T01:11:55.781Z</time>
</trkpt>
<trkpt lat="-26.9934393" lon="152.7946264">
<ele>144.911</ele>
<time>2015-12-27T01:11:57.622Z</time>
</trkpt>
<trkpt lat="-26.9928409" lon="152.7947023">
<ele>145.035</ele>
<time>2015-12-27T01:12:00.585Z</time>
</trkpt>
<trkpt lat="-26.9924323" lon="152.7947481">
<ele>145.043</ele>
<time>2015-12-27T01:12:02.572Z</time>
</trkpt>
<trkpt lat="-26.9918139" lon="152.7948383">
<ele>144.495</ele>
<time>2015-12-27T01:12:05.541Z</time>
</trkpt>
<trkpt lat="-26.9911714" lon="152.7949368">
<ele>142.944</ele>
<time>2015-12-27T01:12:08.663Z</time>
</trkpt>
<trkpt lat="-26.9907722" lon="152.7950345">
<ele>140.060</ele>
<time>2015-12-27T01:12:10.651Z</time>
</trkpt>
<trkpt lat="-26.9901778" lon="152.7952239">
<ele>136.539</ele>
<time>2015-12-27T01:12:13.679Z</time>
</trkpt>
<trkpt lat="-26.9896238" lon="152.7954733">
<ele>133.640</ele>
<time>2015-12-27T01:12:16.614Z</time>
</trkpt>
<trkpt lat="-26.9892745" lon="152.7956957">
<ele>131.841</ele>
<time>2015-12-27T01:12:18.589Z</time>
</trkpt>
<trkpt lat="-26.9889346" lon="152.7959294">
<ele>131.147</ele>
<time>2015-12-27T01:12:20.583Z</time>
</trkpt>
<trkpt lat="-26.9884449" lon="152.7963091">
<ele>131.733</ele>
<time>2015-12-27T01:12:23.762Z</time>
</trkpt>
<trkpt lat="-26.9880511" lon="152.7967140">
<ele>133.616</ele>
<time>2015-12-27T01:12:27.074Z</time>
</trkpt>
<trkpt lat="-26.9878295" lon="152.7969757">
<ele>136.087</ele>
<time>2015-12-27T01:12:29.561Z</time>
</trkpt>
<trkpt lat="-26.9876242" lon="152.7972128">
<ele>138.145</ele>
<time>2015-12-27T01:12:32.624Z</time>
</trkpt>
<trkpt lat="-26.9873782" lon="152.7975021">
<ele>139.461</ele>
<time>2015-12-27T01:12:40.281Z</time>
</trkpt>
<trkpt lat="-26.9872117" lon="152.7976727">
<ele>139.949</ele>
<time>2015-12-27T01:12:43.625Z</time>
</trkpt>
<trkpt lat="-26.9871101" lon="152.7977382">
<ele>139.475</ele>
<time>2015-12-27T01:12:44.759Z</time>
</trkpt>
<trkpt lat="-26.9870183" lon="152.7976574">
<ele>138.500</ele>
<time>2015-12-27T01:12:45.667Z</time>
</trkpt>
<trkpt lat="-26.9868955" lon="152.7975098">
<ele>137.955</ele>
<time>2015-12-27T01:12:46.976Z</time>
</trkpt>
<trkpt lat="-26.9867150" lon="152.7973226">
<ele>138.507</ele>
<time>2015-12-27T01:12:48.557Z</time>
</trkpt>
<trkpt lat="-26.9864867" lon="152.7971012">
<ele>140.046</ele>
<time>2015-12-27T01:12:50.390Z</time>
</trkpt>
<trkpt lat="-26.9860978" lon="152.7967254">
<ele>142.030</ele>
<time>2015-12-27T01:12:53.244Z</time>
</trkpt>
<trkpt lat="-26.9857864" lon="152.7964695">
<ele>144.142</ele>
<time>2015-12-27T01:12:55.292Z</time>
</trkpt>
<trkpt lat="-26.9853018" lon="152.7961233">
<ele>146.124</ele>
<time>2015-12-27T01:12:58.183Z</time>
</trkpt>
<trkpt lat="-26.9849592" lon="152.7959008">
<ele>147.591</ele>
<time>2015-12-27T01:13:00.069Z</time>
</trkpt>
<trkpt lat="-26.9845784" lon="152.7956853">
<ele>148.372</ele>
<time>2015-12-27T01:13:01.980Z</time>
</trkpt>
<trkpt lat="-26.9841707" lon="152.7954781">
<ele>148.872</ele>
<time>2015-12-27T01:13:03.921Z</time>
</trkpt>
<trkpt lat="-26.9834943" lon="152.7951863">
<ele>149.502</ele>
<time>2015-12-27T01:13:06.909Z</time>
</trkpt>
<trkpt lat="-26.9830369" lon="152.7949920">
<ele>150.311</ele>
<time>2015-12-27T01:13:08.898Z</time>
</trkpt>
<trkpt lat="-26.9823439" lon="152.7946973">
<ele>151.126</ele>
<time>2015-12-27T01:13:11.884Z</time>
</trkpt>
<trkpt lat="-26.9816662" lon="152.7943609">
<ele>151.309</ele>
<time>2015-12-27T01:13:14.903Z</time>
</trkpt>
<trkpt lat="-26.9810519" lon="152.7940121">
<ele>149.977</ele>
<time>2015-12-27T01:13:17.734Z</time>
</trkpt>
<trkpt lat="-26.9804077" lon="152.7936070">
<ele>147.509</ele>
<time>2015-12-27T01:13:20.744Z</time>
</trkpt>
<trkpt lat="-26.9799802" lon="152.7933272">
<ele>145.262</ele>
<time>2015-12-27T01:13:22.742Z</time>
</trkpt>
<trkpt lat="-26.9793552" lon="152.7928677">
<ele>143.987</ele>
<time>2015-12-27T01:13:25.754Z</time>
</trkpt>
<trkpt lat="-26.9789226" lon="152.7925830">
<ele>144.366</ele>
<time>2015-12-27T01:13:27.793Z</time>
</trkpt>
<trkpt lat="-26.9785124" lon="152.7922983">
<ele>146.509</ele>
<time>2015-12-27T01:13:29.753Z</time>
</trkpt>
<trkpt lat="-26.9778821" lon="152.7918603">
<ele>148.749</ele>
<time>2015-12-27T01:13:32.721Z</time>
</trkpt>
<trkpt lat="-26.9774487" lon="152.7915705">
<ele>149.451</ele>
<time>2015-12-27T01:13:34.748Z</time>
</trkpt>
<trkpt lat="-26.9770552" lon="152.7912579">
<ele>148.780</ele>
<time>2015-12-27T01:13:36.710Z</time>
</trkpt>
<trkpt lat="-26.9766445" lon="152.7909698">
<ele>147.653</ele>
<time>2015-12-27T01:13:38.702Z</time>
</trkpt>
<trkpt lat="-26.9760541" lon="152.7905314">
<ele>146.435</ele>
<time>2015-12-27T01:13:41.633Z</time>
</trkpt>
<trkpt lat="-26.9754285" lon="152.7901105">
<ele>145.007</ele>
<time>2015-12-27T01:13:44.646Z</time>
</trkpt>
<trkpt lat="-26.9750251" lon="152.7898183">
<ele>143.500</ele>
<time>2015-12-27T01:13:46.625Z</time>
</trkpt>
<trkpt lat="-26.9746068" lon="152.7895256">
<ele>142.083</ele>
<time>2015-12-27T01:13:48.648Z</time>
</trkpt>
<trkpt lat="-26.9741920" lon="152.7892284">
<ele>140.936</ele>
<time>2015-12-27T01:13:50.654Z</time>
</trkpt>
<trkpt lat="-26.9735423" lon="152.7887926">
<ele>140.303</ele>
<time>2015-12-27T01:13:53.688Z</time>
</trkpt>
<trkpt lat="-26.9731049" lon="152.7885229">
<ele>140.141</ele>
<time>2015-12-27T01:13:55.678Z</time>
</trkpt>
<trkpt lat="-26.9726746" lon="152.7882249">
<ele>140.260</ele>
<time>2015-12-27T01:13:57.702Z</time>
</trkpt>
<trkpt lat="-26.9720392" lon="152.7877757">
<ele>140.506</ele>
<time>2015-12-27T01:14:00.737Z</time>
</trkpt>
<trkpt lat="-26.9716166" lon="152.7874790">
<ele>140.732</ele>
<time>2015-12-27T01:14:02.754Z</time>
</trkpt>
<trkpt lat="-26.9712143" lon="152.7871754">
<ele>140.992</ele>
<time>2015-12-27T01:14:04.702Z</time>
</trkpt>
<trkpt lat="-26.9706107" lon="152.7866922">
<ele>141.444</ele>
<time>2015-12-27T01:14:07.634Z</time>
</trkpt>
<trkpt lat="-26.9699831" lon="152.7861826">
<ele>141.947</ele>
<time>2015-12-27T01:14:10.682Z</time>
</trkpt>
<trkpt lat="-26.9693767" lon="152.7856496">
<ele>142.374</ele>
<time>2015-12-27T01:14:13.705Z</time>
</trkpt>
<trkpt lat="-26.9689764" lon="152.7852919">
<ele>142.865</ele>
<time>2015-12-27T01:14:15.715Z</time>
</trkpt>
<trkpt lat="-26.9685785" lon="152.7849433">
<ele>143.424</ele>
<time>2015-12-27T01:14:17.714Z</time>
</trkpt>
<trkpt lat="-26.9679980" lon="152.7844283">
<ele>143.872</ele>
<time>2015-12-27T01:14:20.734Z</time>
</trkpt>
<trkpt lat="-26.9674508" lon="152.7839223">
<ele>143.637</ele>
<time>2015-12-27T01:14:23.726Z</time>
</trkpt>
<trkpt lat="-26.9669018" lon="152.7834338">
<ele>142.125</ele>
<time>2015-12-27T01:14:26.808Z</time>
</trkpt>
<trkpt lat="-26.9665630" lon="152.7831250">
<ele>139.241</ele>
<time>2015-12-27T01:14:28.774Z</time>
</trkpt>
<trkpt lat="-26.9660319" lon="152.7826767">
<ele>135.354</ele>
<time>2015-12-27T01:14:31.939Z</time>
</trkpt>
<trkpt lat="-26.9656809" lon="152.7824079">
<ele>131.294</ele>
<time>2015-12-27T01:14:34.172Z</time>
</trkpt>
<trkpt lat="-26.9652341" lon="152.7821255">
<ele>127.678</ele>
<time>2015-12-27T01:14:37.457Z</time>
</trkpt>
<trkpt lat="-26.9649710" lon="152.7819772">
<ele>123.680</ele>
<time>2015-12-27T01:14:39.432Z</time>
</trkpt>
<trkpt lat="-26.9647131" lon="152.7818329">
<ele>118.904</ele>
<time>2015-12-27T01:14:41.365Z</time>
</trkpt>
<trkpt lat="-26.9643077" lon="152.7815950">
<ele>114.863</ele>
<time>2015-12-27T01:14:44.452Z</time>
</trkpt>
<trkpt lat="-26.9640455" lon="152.7814425">
<ele>112.762</ele>
<time>2015-12-27T01:14:46.462Z</time>
</trkpt>
<trkpt lat="-26.9636587" lon="152.7812288">
<ele>112.120</ele>
<time>2015-12-27T01:14:49.417Z</time>
</trkpt>
<trkpt lat="-26.9632644" lon="152.7809990">
<ele>112.337</ele>
<time>2015-12-27T01:14:52.552Z</time>
</trkpt>
<trkpt lat="-26.9629054" lon="152.7807881">
<ele>113.091</ele>
<time>2015-12-27T01:14:55.477Z</time>
</trkpt>
<trkpt lat="-26.9626528" lon="152.7806514">
<ele>114.160</ele>
<time>2015-12-27T01:14:57.508Z</time>
</trkpt>
<trkpt lat="-26.9622903" lon="152.7804447">
<ele>115.471</ele>
<time>2015-12-27T01:15:00.524Z</time>
</trkpt>
<trkpt lat="-26.9620611" lon="152.7803092">
<ele>116.781</ele>
<time>2015-12-27T01:15:02.469Z</time>
</trkpt>
<trkpt lat="-26.9617069" lon="152.7801077">
<ele>117.709</ele>
<time>2015-12-27T01:15:05.386Z</time>
</trkpt>
<trkpt lat="-26.9613359" lon="152.7798966">
<ele>118.295</ele>
<time>2015-12-27T01:15:08.299Z</time>
</trkpt>
<trkpt lat="-26.9609406" lon="152.7796897">
<ele>118.796</ele>
<time>2015-12-27T01:15:11.245Z</time>
</trkpt>
<trkpt lat="-26.9606585" lon="152.7795622">
<ele>119.352</ele>
<time>2015-12-27T01:15:13.305Z</time>
</trkpt>
<trkpt lat="-26.9602563" lon="152.7794104">
<ele>120.133</ele>
<time>2015-12-27T01:15:16.245Z</time>
</trkpt>
<trkpt lat="-26.9599799" lon="152.7793364">
<ele>121.147</ele>
<time>2015-12-27T01:15:18.222Z</time>
</trkpt>
<trkpt lat="-26.9595703" lon="152.7792333">
<ele>121.985</ele>
<time>2015-12-27T01:15:21.093Z</time>
</trkpt>
<trkpt lat="-26.9592825" lon="152.7791532">
<ele>122.353</ele>
<time>2015-12-27T01:15:23.093Z</time>
</trkpt>
<trkpt lat="-26.9590341" lon="152.7790933">
<ele>122.289</ele>
<time>2015-12-27T01:15:24.803Z</time>
</trkpt>
<trkpt lat="-26.9587173" lon="152.7789989">
<ele>121.961</ele>
<time>2015-12-27T01:15:27.017Z</time>
</trkpt>
<trkpt lat="-26.9582861" lon="152.7788879">
<ele>121.642</ele>
<time>2015-12-27T01:15:30.026Z</time>
</trkpt>
<trkpt lat="-26.9580079" lon="152.7788116">
<ele>121.630</ele>
<time>2015-12-27T01:15:31.970Z</time>
</trkpt>
<trkpt lat="-26.9575557" lon="152.7786926">
<ele>122.061</ele>
<time>2015-12-27T01:15:35.128Z</time>
</trkpt>
<trkpt lat="-26.9572724" lon="152.7786092">
<ele>122.739</ele>
<time>2015-12-27T01:15:37.194Z</time>
</trkpt>
<trkpt lat="-26.9570115" lon="152.7785481">
<ele>123.283</ele>
<time>2015-12-27T01:15:39.125Z</time>
</trkpt>
<trkpt lat="-26.9566422" lon="152.7784411">
<ele>123.463</ele>
<time>2015-12-27T01:15:42.094Z</time>
</trkpt>
<trkpt lat="-26.9563931" lon="152.7783653">
<ele>123.246</ele>
<time>2015-12-27T01:15:44.152Z</time>
</trkpt>
<trkpt lat="-26.9560123" lon="152.7782450">
<ele>122.744</ele>
<time>2015-12-27T01:15:47.549Z</time>
</trkpt>
<trkpt lat="-26.9556941" lon="152.7781632">
<ele>122.172</ele>
<time>2015-12-27T01:15:50.716Z</time>
</trkpt>
<trkpt lat="-26.9554925" lon="152.7780934">
<ele>121.558</ele>
<time>2015-12-27T01:15:53.027Z</time>
</trkpt>
<trkpt lat="-26.9552177" lon="152.7780121">
<ele>120.757</ele>
<time>2015-12-27T01:15:56.727Z</time>
</trkpt>
<trkpt lat="-26.9550017" lon="152.7779412">
<ele>119.655</ele>
<time>2015-12-27T01:16:00.114Z</time>
</trkpt>
<trkpt lat="-26.9548311" lon="152.7778718">
<ele>118.396</ele>
<time>2015-12-27T01:16:02.600Z</time>
</trkpt>
<trkpt lat="-26.9546439" lon="152.7778148">
<ele>117.409</ele>
<time>2015-12-27T01:16:04.924Z</time>
</trkpt>
<trkpt lat="-26.9543963" lon="152.7777517">
<ele>117.274</ele>
<time>2015-12-27T01:16:07.597Z</time>
</trkpt>
<trkpt lat="-26.9542322" lon="152.7776991">
<ele>118.249</ele>
<time>2015-12-27T01:16:09.301Z</time>
</trkpt>
<trkpt lat="-26.9540619" lon="152.7776316">
<ele>119.920</ele>
<time>2015-12-27T01:16:11.084Z</time>
</trkpt>
<trkpt lat="-26.9537676" lon="152.7775449">
<ele>121.453</ele>
<time>2015-12-27T01:16:13.977Z</time>
</trkpt>
<trkpt lat="-26.9535662" lon="152.7774916">
<ele>122.503</ele>
<time>2015-12-27T01:16:15.932Z</time>
</trkpt>
<trkpt lat="-26.9532472" lon="152.7773792">
<ele>123.188</ele>
<time>2015-12-27T01:16:19.007Z</time>
</trkpt>
<trkpt lat="-26.9529254" lon="152.7772535">
<ele>123.369</ele>
<time>2015-12-27T01:16:22.059Z</time>
</trkpt>
<trkpt lat="-26.9527113" lon="152.7771805">
<ele>122.931</ele>
<time>2015-12-27T01:16:24.070Z</time>
</trkpt>
<trkpt lat="-26.9524955" lon="152.7771043">
<ele>122.239</ele>
<time>2015-12-27T01:16:26.089Z</time>
</trkpt>
<trkpt lat="-26.9521435" lon="152.7769732">
<ele>121.583</ele>
<time>2015-12-27T01:16:29.267Z</time>
</trkpt>
<trkpt lat="-26.9519432" lon="152.7769137">
<ele>121.036</ele>
<time>2015-12-27T01:16:30.975Z</time>
</trkpt>
<trkpt lat="-26.9515515" lon="152.7768028">
<ele>120.783</ele>
<time>2015-12-27T01:16:33.918Z</time>
</trkpt>
<trkpt lat="-26.9511218" lon="152.7766717">
<ele>120.868</ele>
<time>2015-12-27T01:16:36.974Z</time>
</trkpt>
<trkpt lat="-26.9508497" lon="152.7765844">
<ele>121.024</ele>
<time>2015-12-27T01:16:38.897Z</time>
</trkpt>
<trkpt lat="-26.9505561" lon="152.7764962">
<ele>120.936</ele>
<time>2015-12-27T01:16:40.942Z</time>
</trkpt>
<trkpt lat="-26.9501432" lon="152.7762957">
<ele>120.539</ele>
<time>2015-12-27T01:16:43.934Z</time>
</trkpt>
<trkpt lat="-26.9498013" lon="152.7759759">
<ele>119.928</ele>
<time>2015-12-27T01:16:46.949Z</time>
</trkpt>
<trkpt lat="-26.9495045" lon="152.7756202">
<ele>119.202</ele>
<time>2015-12-27T01:16:50.049Z</time>
</trkpt>
<trkpt lat="-26.9493271" lon="152.7753788">
<ele>118.282</ele>
<time>2015-12-27T01:16:52.068Z</time>
</trkpt>
<trkpt lat="-26.9490640" lon="152.7750479">
<ele>117.121</ele>
<time>2015-12-27T01:16:54.821Z</time>
</trkpt>
<trkpt lat="-26.9488696" lon="152.7748074">
<ele>116.074</ele>
<time>2015-12-27T01:16:56.734Z</time>
</trkpt>
<trkpt lat="-26.9486510" lon="152.7745600">
<ele>115.578</ele>
<time>2015-12-27T01:16:58.753Z</time>
</trkpt>
<trkpt lat="-26.9484474" lon="152.7742905">
<ele>115.669</ele>
<time>2015-12-27T01:17:00.822Z</time>
</trkpt>
<trkpt lat="-26.9481292" lon="152.7739357">
<ele>116.070</ele>
<time>2015-12-27T01:17:03.752Z</time>
</trkpt>
<trkpt lat="-26.9478051" lon="152.7735677">
<ele>116.414</ele>
<time>2015-12-27T01:17:06.642Z</time>
</trkpt>
<trkpt lat="-26.9475619" lon="152.7733280">
<ele>116.476</ele>
<time>2015-12-27T01:17:08.627Z</time>
</trkpt>
<trkpt lat="-26.9472098" lon="152.7729756">
<ele>116.222</ele>
<time>2015-12-27T01:17:11.409Z</time>
</trkpt>
<trkpt lat="-26.9469302" lon="152.7727608">
<ele>115.821</ele>
<time>2015-12-27T01:17:13.295Z</time>
</trkpt>
<trkpt lat="-26.9464703" lon="152.7724092">
<ele>115.641</ele>
<time>2015-12-27T01:17:16.347Z</time>
</trkpt>
<trkpt lat="-26.9461472" lon="152.7721934">
<ele>115.862</ele>
<time>2015-12-27T01:17:18.496Z</time>
</trkpt>
<trkpt lat="-26.9458567" lon="152.7719872">
<ele>116.252</ele>
<time>2015-12-27T01:17:20.537Z</time>
</trkpt>
<trkpt lat="-26.9454700" lon="152.7716562">
<ele>116.388</ele>
<time>2015-12-27T01:17:23.426Z</time>
</trkpt>
<trkpt lat="-26.9451919" lon="152.7714323">
<ele>116.056</ele>
<time>2015-12-27T01:17:25.375Z</time>
</trkpt>
<trkpt lat="-26.9447382" lon="152.7711089">
<ele>115.471</ele>
<time>2015-12-27T01:17:28.229Z</time>
</trkpt>
<trkpt lat="-26.9442410" lon="152.7707231">
<ele>115.280</ele>
<time>2015-12-27T01:17:31.171Z</time>
</trkpt>
<trkpt lat="-26.9438915" lon="152.7704234">
<ele>115.954</ele>
<time>2015-12-27T01:17:33.165Z</time>
</trkpt>
<trkpt lat="-26.9433797" lon="152.7699502">
<ele>117.288</ele>
<time>2015-12-27T01:17:36.091Z</time>
</trkpt>
<trkpt lat="-26.9428651" lon="152.7694265">
<ele>118.597</ele>
<time>2015-12-27T01:17:39.094Z</time>
</trkpt>
<trkpt lat="-26.9423801" lon="152.7688726">
<ele>119.363</ele>
<time>2015-12-27T01:17:42.134Z</time>
</trkpt>
<trkpt lat="-26.9419450" lon="152.7683311">
<ele>119.628</ele>
<time>2015-12-27T01:17:45.059Z</time>
</trkpt>
<trkpt lat="-26.9415352" lon="152.7677392">
<ele>119.726</ele>
<time>2015-12-27T01:17:48.102Z</time>
</trkpt>
<trkpt lat="-26.9411527" lon="152.7671564">
<ele>120.149</ele>
<time>2015-12-27T01:17:51.091Z</time>
</trkpt>
<trkpt lat="-26.9407793" lon="152.7665753">
<ele>121.400</ele>
<time>2015-12-27T01:17:54.075Z</time>
</trkpt>
<trkpt lat="-26.9404274" lon="152.7659821">
<ele>123.183</ele>
<time>2015-12-27T01:17:57.036Z</time>
</trkpt>
<trkpt lat="-26.9401777" lon="152.7655801">
<ele>124.661</ele>
<time>2015-12-27T01:17:59.051Z</time>
</trkpt>
<trkpt lat="-26.9398193" lon="152.7649965">
<ele>125.501</ele>
<time>2015-12-27T01:18:01.980Z</time>
</trkpt>
<trkpt lat="-26.9395617" lon="152.7646161">
<ele>125.811</ele>
<time>2015-12-27T01:18:04.004Z</time>
</trkpt>
<trkpt lat="-26.9393410" lon="152.7642416">
<ele>125.787</ele>
<time>2015-12-27T01:18:05.926Z</time>
</trkpt>
<trkpt lat="-26.9390596" lon="152.7638945">
<ele>125.539</ele>
<time>2015-12-27T01:18:07.919Z</time>
</trkpt>
<trkpt lat="-26.9385668" lon="152.7634409">
<ele>124.839</ele>
<time>2015-12-27T01:18:10.931Z</time>
</trkpt>
<trkpt lat="-26.9381890" lon="152.7632045">
<ele>123.366</ele>
<time>2015-12-27T01:18:12.949Z</time>
</trkpt>
<trkpt lat="-26.9376087" lon="152.7628674">
<ele>121.131</ele>
<time>2015-12-27T01:18:16.013Z</time>
</trkpt>
<trkpt lat="-26.9372362" lon="152.7626534">
<ele>118.796</ele>
<time>2015-12-27T01:18:18.063Z</time>
</trkpt>
<trkpt lat="-26.9367310" lon="152.7623457">
<ele>117.149</ele>
<time>2015-12-27T01:18:20.952Z</time>
</trkpt>
<trkpt lat="-26.9363946" lon="152.7621298">
<ele>115.973</ele>
<time>2015-12-27T01:18:22.934Z</time>
</trkpt>
<trkpt lat="-26.9358934" lon="152.7617995">
<ele>114.651</ele>
<time>2015-12-27T01:18:25.934Z</time>
</trkpt>
<trkpt lat="-26.9354323" lon="152.7614449">
<ele>113.429</ele>
<time>2015-12-27T01:18:28.866Z</time>
</trkpt>
<trkpt lat="-26.9349531" lon="152.7610987">
<ele>112.748</ele>
<time>2015-12-27T01:18:31.873Z</time>
</trkpt>
<trkpt lat="-26.9345018" lon="152.7607310">
<ele>112.576</ele>
<time>2015-12-27T01:18:34.808Z</time>
</trkpt>
<trkpt lat="-26.9341920" lon="152.7604684">
<ele>112.737</ele>
<time>2015-12-27T01:18:36.838Z</time>
</trkpt>
<trkpt lat="-26.9338944" lon="152.7601891">
<ele>113.053</ele>
<time>2015-12-27T01:18:38.850Z</time>
</trkpt>
<trkpt lat="-26.9334782" lon="152.7597541">
<ele>113.405</ele>
<time>2015-12-27T01:18:41.795Z</time>
</trkpt>
<trkpt lat="-26.9331950" lon="152.7594609">
<ele>113.793</ele>
<time>2015-12-27T01:18:43.814Z</time>
</trkpt>
<trkpt lat="-26.9327692" lon="152.7590422">
<ele>114.221</ele>
<time>2015-12-27T01:18:46.813Z</time>
</trkpt>
<trkpt lat="-26.9325088" lon="152.7587682">
<ele>114.685</ele>
<time>2015-12-27T01:18:48.759Z</time>
</trkpt>
<trkpt lat="-26.9321196" lon="152.7583165">
<ele>115.116</ele>
<time>2015-12-27T01:18:51.822Z</time>
</trkpt>
<trkpt lat="-26.9317339" lon="152.7578409">
<ele>115.376</ele>
<time>2015-12-27T01:18:55.021Z</time>
</trkpt>
<trkpt lat="-26.9313901" lon="152.7574338">
<ele>115.351</ele>
<time>2015-12-27T01:18:58.000Z</time>
</trkpt>
<trkpt lat="-26.9311913" lon="152.7571627">
<ele>114.852</ele>
<time>2015-12-27T01:19:00.339Z</time>
</trkpt>
<trkpt lat="-26.9310442" lon="152.7569659">
<ele>113.817</ele>
<time>2015-12-27T01:19:02.838Z</time>
</trkpt>
<trkpt lat="-26.9309462" lon="152.7568246">
<ele>112.306</ele>
<time>2015-12-27T01:19:05.155Z</time>
</trkpt>
<trkpt lat="-26.9308303" lon="152.7566693">
<ele>110.599</ele>
<time>2015-12-27T01:19:08.686Z</time>
</trkpt>
<trkpt lat="-26.9307125" lon="152.7565506">
<ele>109.160</ele>
<time>2015-12-27T01:19:11.606Z</time>
</trkpt>
<trkpt lat="-26.9305695" lon="152.7565792">
<ele>108.234</ele>
<time>2015-12-27T01:19:13.596Z</time>
</trkpt>
<trkpt lat="-26.9304346" lon="152.7566803">
<ele>107.861</ele>
<time>2015-12-27T01:19:15.391Z</time>
</trkpt>
<trkpt lat="-26.9302181" lon="152.7569388">
<ele>108.105</ele>
<time>2015-12-27T01:19:18.424Z</time>
</trkpt>
<trkpt lat="-26.9300542" lon="152.7571091">
<ele>108.860</ele>
<time>2015-12-27T01:19:20.481Z</time>
</trkpt>
<trkpt lat="-26.9298042" lon="152.7573658">
<ele>109.821</ele>
<time>2015-12-27T01:19:23.692Z</time>
</trkpt>
<trkpt lat="-26.9296773" lon="152.7575310">
<ele>110.428</ele>
<time>2015-12-27T01:19:25.552Z</time>
</trkpt>
<trkpt lat="-26.9294412" lon="152.7577696">
<ele>110.411</ele>
<time>2015-12-27T01:19:28.560Z</time>
</trkpt>
<trkpt lat="-26.9292235" lon="152.7580233">
<ele>110.095</ele>
<time>2015-12-27T01:19:31.474Z</time>
</trkpt>
<trkpt lat="-26.9291038" lon="152.7582140">
<ele>109.906</ele>
<time>2015-12-27T01:19:33.404Z</time>
</trkpt>
<trkpt lat="-26.9288919" lon="152.7584837">
<ele>109.968</ele>
<time>2015-12-27T01:19:36.452Z</time>
</trkpt>
<trkpt lat="-26.9286802" lon="152.7587176">
<ele>109.971</ele>
<time>2015-12-27T01:19:39.274Z</time>
</trkpt>
<trkpt lat="-26.9285204" lon="152.7588629">
<ele>109.652</ele>
<time>2015-12-27T01:19:41.197Z</time>
</trkpt>
<trkpt lat="-26.9283785" lon="152.7590406">
<ele>109.186</ele>
<time>2015-12-27T01:19:43.157Z</time>
</trkpt>
<trkpt lat="-26.9281397" lon="152.7593117">
<ele>108.737</ele>
<time>2015-12-27T01:19:46.239Z</time>
</trkpt>
<trkpt lat="-26.9279771" lon="152.7594857">
<ele>108.320</ele>
<time>2015-12-27T01:19:48.177Z</time>
</trkpt>
<trkpt lat="-26.9278068" lon="152.7596654">
<ele>108.028</ele>
<time>2015-12-27T01:19:49.980Z</time>
</trkpt>
<trkpt lat="-26.9275207" lon="152.7599929">
<ele>107.950</ele>
<time>2015-12-27T01:19:52.813Z</time>
</trkpt>
<trkpt lat="-26.9271820" lon="152.7603690">
<ele>108.284</ele>
<time>2015-12-27T01:19:55.726Z</time>
</trkpt>
<trkpt lat="-26.9269279" lon="152.7606505">
<ele>109.161</ele>
<time>2015-12-27T01:19:57.647Z</time>
</trkpt>
<trkpt lat="-26.9265173" lon="152.7611263">
<ele>110.281</ele>
<time>2015-12-27T01:20:00.625Z</time>
</trkpt>
<trkpt lat="-26.9260652" lon="152.7616323">
<ele>111.492</ele>
<time>2015-12-27T01:20:03.645Z</time>
</trkpt>
<trkpt lat="-26.9257667" lon="152.7619712">
<ele>113.160</ele>
<time>2015-12-27T01:20:05.572Z</time>
</trkpt>
<trkpt lat="-26.9252899" lon="152.7624941">
<ele>115.107</ele>
<time>2015-12-27T01:20:08.519Z</time>
</trkpt>
<trkpt lat="-26.9249483" lon="152.7628709">
<ele>116.673</ele>
<time>2015-12-27T01:20:10.622Z</time>
</trkpt>
<trkpt lat="-26.9244521" lon="152.7634075">
<ele>117.862</ele>
<time>2015-12-27T01:20:13.854Z</time>
</trkpt>
<trkpt lat="-26.9240590" lon="152.7638521">
<ele>118.898</ele>
<time>2015-12-27T01:20:16.872Z</time>
</trkpt>
<trkpt lat="-26.9237088" lon="152.7642353">
<ele>119.298</ele>
<time>2015-12-27T01:20:19.883Z</time>
</trkpt>
<trkpt lat="-26.9235036" lon="152.7644550">
<ele>118.457</ele>
<time>2015-12-27T01:20:21.766Z</time>
</trkpt>
<trkpt lat="-26.9231890" lon="152.7648101">
<ele>116.737</ele>
<time>2015-12-27T01:20:24.737Z</time>
</trkpt>
<trkpt lat="-26.9229787" lon="152.7650468">
<ele>115.288</ele>
<time>2015-12-27T01:20:26.729Z</time>
</trkpt>
<trkpt lat="-26.9227701" lon="152.7652657">
<ele>114.750</ele>
<time>2015-12-27T01:20:28.617Z</time>
</trkpt>
<trkpt lat="-26.9224477" lon="152.7656401">
<ele>114.856</ele>
<time>2015-12-27T01:20:31.658Z</time>
</trkpt>
<trkpt lat="-26.9221162" lon="152.7659845">
<ele>115.108</ele>
<time>2015-12-27T01:20:34.605Z</time>
</trkpt>
<trkpt lat="-26.9219006" lon="152.7662258">
<ele>115.134</ele>
<time>2015-12-27T01:20:36.605Z</time>
</trkpt>
<trkpt lat="-26.9215742" lon="152.7665811">
<ele>114.772</ele>
<time>2015-12-27T01:20:39.635Z</time>
</trkpt>
<trkpt lat="-26.9213585" lon="152.7667998">
<ele>113.796</ele>
<time>2015-12-27T01:20:41.587Z</time>
</trkpt>
<trkpt lat="-26.9211509" lon="152.7670423">
<ele>112.272</ele>
<time>2015-12-27T01:20:43.588Z</time>
</trkpt>
<trkpt lat="-26.9209450" lon="152.7672914">
<ele>110.897</ele>
<time>2015-12-27T01:20:45.648Z</time>
</trkpt>
<trkpt lat="-26.9206561" lon="152.7676620">
<ele>110.322</ele>
<time>2015-12-27T01:20:48.665Z</time>
</trkpt>
<trkpt lat="-26.9204440" lon="152.7678982">
<ele>110.572</ele>
<time>2015-12-27T01:20:50.706Z</time>
</trkpt>
<trkpt lat="-26.9201011" lon="152.7682133">
<ele>111.317</ele>
<time>2015-12-27T01:20:53.711Z</time>
</trkpt>
<trkpt lat="-26.9197448" lon="152.7685155">
<ele>112.150</ele>
<time>2015-12-27T01:20:56.738Z</time>
</trkpt>
<trkpt lat="-26.9193824" lon="152.7687953">
<ele>112.787</ele>
<time>2015-12-27T01:20:59.766Z</time>
</trkpt>
<trkpt lat="-26.9191645" lon="152.7689689">
<ele>113.143</ele>
<time>2015-12-27T01:21:01.631Z</time>
</trkpt>
<trkpt lat="-26.9187795" lon="152.7692055">
<ele>113.247</ele>
<time>2015-12-27T01:21:04.685Z</time>
</trkpt>
<trkpt lat="-26.9183968" lon="152.7694419">
<ele>113.169</ele>
<time>2015-12-27T01:21:07.712Z</time>
</trkpt>
<trkpt lat="-26.9181517" lon="152.7696028">
<ele>112.990</ele>
<time>2015-12-27T01:21:09.662Z</time>
</trkpt>
<trkpt lat="-26.9178903" lon="152.7697645">
<ele>112.617</ele>
<time>2015-12-27T01:21:11.688Z</time>
</trkpt>
<trkpt lat="-26.9174949" lon="152.7699982">
<ele>111.976</ele>
<time>2015-12-27T01:21:14.695Z</time>
</trkpt>
<trkpt lat="-26.9171154" lon="152.7702511">
<ele>111.242</ele>
<time>2015-12-27T01:21:17.633Z</time>
</trkpt>
<trkpt lat="-26.9168270" lon="152.7704133">
<ele>110.615</ele>
<time>2015-12-27T01:21:19.787Z</time>
</trkpt>
<trkpt lat="-26.9164314" lon="152.7706369">
<ele>110.226</ele>
<time>2015-12-27T01:21:22.777Z</time>
</trkpt>
<trkpt lat="-26.9161758" lon="152.7708052">
<ele>110.117</ele>
<time>2015-12-27T01:21:24.788Z</time>
</trkpt>
<trkpt lat="-26.9159255" lon="152.7709649">
<ele>110.155</ele>
<time>2015-12-27T01:21:26.712Z</time>
</trkpt>
<trkpt lat="-26.9155077" lon="152.7712008">
<ele>110.368</ele>
<time>2015-12-27T01:21:29.804Z</time>
</trkpt>
<trkpt lat="-26.9152209" lon="152.7713586">
<ele>110.847</ele>
<time>2015-12-27T01:21:31.917Z</time>
</trkpt>
<trkpt lat="-26.9149583" lon="152.7714989">
<ele>111.389</ele>
<time>2015-12-27T01:21:33.846Z</time>
</trkpt>
<trkpt lat="-26.9145502" lon="152.7717349">
<ele>111.638</ele>
<time>2015-12-27T01:21:36.867Z</time>
</trkpt>
<trkpt lat="-26.9142387" lon="152.7718907">
<ele>111.536</ele>
<time>2015-12-27T01:21:39.098Z</time>
</trkpt>
<trkpt lat="-26.9138131" lon="152.7721207">
<ele>111.394</ele>
<time>2015-12-27T01:21:42.211Z</time>
</trkpt>
<trkpt lat="-26.9134182" lon="152.7723583">
<ele>111.466</ele>
<time>2015-12-27T01:21:45.151Z</time>
</trkpt>
<trkpt lat="-26.9130294" lon="152.7726208">
<ele>111.665</ele>
<time>2015-12-27T01:21:47.934Z</time>
</trkpt>
<trkpt lat="-26.9126450" lon="152.7729380">
<ele>112.078</ele>
<time>2015-12-27T01:21:50.582Z</time>
</trkpt>
<trkpt lat="-26.9123188" lon="152.7731929">
<ele>113.365</ele>
<time>2015-12-27T01:21:52.529Z</time>
</trkpt>
<trkpt lat="-26.9119574" lon="152.7734699">
<ele>115.620</ele>
<time>2015-12-27T01:21:54.483Z</time>
</trkpt>
<trkpt lat="-26.9115735" lon="152.7737743">
<ele>118.085</ele>
<time>2015-12-27T01:21:56.442Z</time>
</trkpt>
<trkpt lat="-26.9109839" lon="152.7742881">
<ele>120.506</ele>
<time>2015-12-27T01:21:59.466Z</time>
</trkpt>
<trkpt lat="-26.9104086" lon="152.7747980">
<ele>122.812</ele>
<time>2015-12-27T01:22:02.401Z</time>
</trkpt>
<trkpt lat="-26.9098306" lon="152.7753490">
<ele>124.368</ele>
<time>2015-12-27T01:22:05.450Z</time>
</trkpt>
<trkpt lat="-26.9094240" lon="152.7756807">
<ele>125.251</ele>
<time>2015-12-27T01:22:07.469Z</time>
</trkpt>
<trkpt lat="-26.9089846" lon="152.7759765">
<ele>126.211</ele>
<time>2015-12-27T01:22:09.526Z</time>
</trkpt>
<trkpt lat="-26.9083433" lon="152.7763973">
<ele>127.599</ele>
<time>2015-12-27T01:22:12.497Z</time>
</trkpt>
<trkpt lat="-26.9078698" lon="152.7766299">
<ele>129.221</ele>
<time>2015-12-27T01:22:14.535Z</time>
</trkpt>
<trkpt lat="-26.9071346" lon="152.7769268">
<ele>130.555</ele>
<time>2015-12-27T01:22:17.602Z</time>
</trkpt>
<trkpt lat="-26.9066895" lon="152.7770934">
<ele>131.174</ele>
<time>2015-12-27T01:22:19.441Z</time>
</trkpt>
<trkpt lat="-26.9059305" lon="152.7772488">
<ele>131.215</ele>
<time>2015-12-27T01:22:22.461Z</time>
</trkpt>
<trkpt lat="-26.9054278" lon="152.7773202">
<ele>131.310</ele>
<time>2015-12-27T01:22:24.465Z</time>
</trkpt>
<trkpt lat="-26.9046659" lon="152.7773876">
<ele>131.862</ele>
<time>2015-12-27T01:22:27.541Z</time>
</trkpt>
<trkpt lat="-26.9039360" lon="152.7774008">
<ele>132.138</ele>
<time>2015-12-27T01:22:30.542Z</time>
</trkpt>
<trkpt lat="-26.9034711" lon="152.7774436">
<ele>131.056</ele>
<time>2015-12-27T01:22:32.476Z</time>
</trkpt>
<trkpt lat="-26.9027208" lon="152.7775082">
<ele>128.811</ele>
<time>2015-12-27T01:22:35.584Z</time>
</trkpt>
<trkpt lat="-26.9019932" lon="152.7776633">
<ele>126.678</ele>
<time>2015-12-27T01:22:38.621Z</time>
</trkpt>
<trkpt lat="-26.9015410" lon="152.7778052">
<ele>125.859</ele>
<time>2015-12-27T01:22:40.525Z</time>
</trkpt>
<trkpt lat="-26.9010513" lon="152.7779846">
<ele>126.545</ele>
<time>2015-12-27T01:22:42.583Z</time>
</trkpt>
<trkpt lat="-26.9005967" lon="152.7782011">
<ele>127.867</ele>
<time>2015-12-27T01:22:44.557Z</time>
</trkpt>
<trkpt lat="-26.8999487" lon="152.7785660">
<ele>128.871</ele>
<time>2015-12-27T01:22:47.475Z</time>
</trkpt>
<trkpt lat="-26.8993146" lon="152.7789707">
<ele>128.601</ele>
<time>2015-12-27T01:22:50.432Z</time>
</trkpt>
<trkpt lat="-26.8986483" lon="152.7793632">
<ele>126.719</ele>
<time>2015-12-27T01:22:53.481Z</time>
</trkpt>
<trkpt lat="-26.8979762" lon="152.7797607">
<ele>124.500</ele>
<time>2015-12-27T01:22:56.558Z</time>
</trkpt>
<trkpt lat="-26.8973194" lon="152.7801501">
<ele>123.269</ele>
<time>2015-12-27T01:22:59.574Z</time>
</trkpt>
<trkpt lat="-26.8969085" lon="152.7804205">
<ele>122.878</ele>
<time>2015-12-27T01:23:01.506Z</time>
</trkpt>
<trkpt lat="-26.8962474" lon="152.7808334">
<ele>122.754</ele>
<time>2015-12-27T01:23:04.556Z</time>
</trkpt>
<trkpt lat="-26.8957990" lon="152.7811249">
<ele>123.241</ele>
<time>2015-12-27T01:23:06.719Z</time>
</trkpt>
<trkpt lat="-26.8952385" lon="152.7815208">
<ele>125.080</ele>
<time>2015-12-27T01:23:09.671Z</time>
</trkpt>
<trkpt lat="-26.8949129" lon="152.7817591">
<ele>127.611</ele>
<time>2015-12-27T01:23:11.600Z</time>
</trkpt>
<trkpt lat="-26.8945897" lon="152.7819921">
<ele>129.338</ele>
<time>2015-12-27T01:23:13.632Z</time>
</trkpt>
<trkpt lat="-26.8942872" lon="152.7822119">
<ele>129.462</ele>
<time>2015-12-27T01:23:15.698Z</time>
</trkpt>
<trkpt lat="-26.8938727" lon="152.7825096">
<ele>128.294</ele>
<time>2015-12-27T01:23:18.855Z</time>
</trkpt>
<trkpt lat="-26.8935541" lon="152.7827710">
<ele>126.588</ele>
<time>2015-12-27T01:23:21.957Z</time>
</trkpt>
<trkpt lat="-26.8933691" lon="152.7829031">
<ele>123.941</ele>
<time>2015-12-27T01:23:24.039Z</time>
</trkpt>
<trkpt lat="-26.8932090" lon="152.7830304">
<ele>119.720</ele>
<time>2015-12-27T01:23:25.834Z</time>
</trkpt>
<trkpt lat="-26.8930162" lon="152.7831766">
<ele>115.360</ele>
<time>2015-12-27T01:23:27.604Z</time>
</trkpt>
<trkpt lat="-26.8926336" lon="152.7834274">
<ele>112.770</ele>
<time>2015-12-27T01:23:30.593Z</time>
</trkpt>
<trkpt lat="-26.8923486" lon="152.7836434">
<ele>112.214</ele>
<time>2015-12-27T01:23:32.538Z</time>
</trkpt>
<trkpt lat="-26.8918691" lon="152.7840146">
<ele>113.073</ele>
<time>2015-12-27T01:23:35.593Z</time>
</trkpt>
<trkpt lat="-26.8913861" lon="152.7843755">
<ele>114.748</ele>
<time>2015-12-27T01:23:38.417Z</time>
</trkpt>
<trkpt lat="-26.8910226" lon="152.7846553">
<ele>116.750</ele>
<time>2015-12-27T01:23:40.507Z</time>
</trkpt>
<trkpt lat="-26.8906687" lon="152.7849157">
<ele>118.536</ele>
<time>2015-12-27T01:23:42.569Z</time>
</trkpt>
<trkpt lat="-26.8901802" lon="152.7852701">
<ele>119.468</ele>
<time>2015-12-27T01:23:45.523Z</time>
</trkpt>
<trkpt lat="-26.8897019" lon="152.7856189">
<ele>118.932</ele>
<time>2015-12-27T01:23:48.379Z</time>
</trkpt>
<trkpt lat="-26.8891515" lon="152.7860038">
<ele>117.200</ele>
<time>2015-12-27T01:23:51.395Z</time>
</trkpt>
<trkpt lat="-26.8885320" lon="152.7863521">
<ele>116.016</ele>
<time>2015-12-27T01:23:54.421Z</time>
</trkpt>
<trkpt lat="-26.8880987" lon="152.7865668">
<ele>116.717</ele>
<time>2015-12-27T01:23:56.469Z</time>
</trkpt>
<trkpt lat="-26.8876685" lon="152.7867305">
<ele>118.755</ele>
<time>2015-12-27T01:23:58.475Z</time>
</trkpt>
<trkpt lat="-26.8872232" lon="152.7868317">
<ele>120.895</ele>
<time>2015-12-27T01:24:00.511Z</time>
</trkpt>
<trkpt lat="-26.8865918" lon="152.7869769">
<ele>122.482</ele>
<time>2015-12-27T01:24:03.387Z</time>
</trkpt>
<trkpt lat="-26.8859024" lon="152.7870475">
<ele>123.761</ele>
<time>2015-12-27T01:24:06.405Z</time>
</trkpt>
<trkpt lat="-26.8854283" lon="152.7870422">
<ele>125.227</ele>
<time>2015-12-27T01:24:08.406Z</time>
</trkpt>
<trkpt lat="-26.8847127" lon="152.7870024">
<ele>126.634</ele>
<time>2015-12-27T01:24:11.386Z</time>
</trkpt>
<trkpt lat="-26.8842145" lon="152.7869800">
<ele>127.460</ele>
<time>2015-12-27T01:24:13.442Z</time>
</trkpt>
<trkpt lat="-26.8834846" lon="152.7869354">
<ele>127.645</ele>
<time>2015-12-27T01:24:16.498Z</time>
</trkpt>
<trkpt lat="-26.8828100" lon="152.7869045">
<ele>127.356</ele>
<time>2015-12-27T01:24:19.392Z</time>
</trkpt>
<trkpt lat="-26.8821206" lon="152.7869386">
<ele>126.794</ele>
<time>2015-12-27T01:24:22.376Z</time>
</trkpt>
<trkpt lat="-26.8816587" lon="152.7870178">
<ele>126.649</ele>
<time>2015-12-27T01:24:24.382Z</time>
</trkpt>
<trkpt lat="-26.8810092" lon="152.7871903">
<ele>127.392</ele>
<time>2015-12-27T01:24:27.212Z</time>
</trkpt>
<trkpt lat="-26.8802738" lon="152.7874078">
<ele>128.606</ele>
<time>2015-12-27T01:24:30.370Z</time>
</trkpt>
<trkpt lat="-26.8798812" lon="152.7876539">
<ele>129.805</ele>
<time>2015-12-27T01:24:32.254Z</time>
</trkpt>
<trkpt lat="-26.8792808" lon="152.7880338">
<ele>130.772</ele>
<time>2015-12-27T01:24:35.190Z</time>
</trkpt>
<trkpt lat="-26.8787198" lon="152.7884589">
<ele>131.266</ele>
<time>2015-12-27T01:24:38.117Z</time>
</trkpt>
<trkpt lat="-26.8781992" lon="152.7889445">
<ele>131.097</ele>
<time>2015-12-27T01:24:41.039Z</time>
</trkpt>
<trkpt lat="-26.8776657" lon="152.7894910">
<ele>130.354</ele>
<time>2015-12-27T01:24:44.122Z</time>
</trkpt>
<trkpt lat="-26.8772496" lon="152.7901305">
<ele>129.550</ele>
<time>2015-12-27T01:24:47.140Z</time>
</trkpt>
<trkpt lat="-26.8769961" lon="152.7905579">
<ele>128.958</ele>
<time>2015-12-27T01:24:49.130Z</time>
</trkpt>
<trkpt lat="-26.8767809" lon="152.7910101">
<ele>128.442</ele>
<time>2015-12-27T01:24:51.124Z</time>
</trkpt>
<trkpt lat="-26.8764587" lon="152.7916988">
<ele>128.102</ele>
<time>2015-12-27T01:24:54.142Z</time>
</trkpt>
<trkpt lat="-26.8761599" lon="152.7923824">
<ele>128.068</ele>
<time>2015-12-27T01:24:57.076Z</time>
</trkpt>
<trkpt lat="-26.8759508" lon="152.7928618">
<ele>128.180</ele>
<time>2015-12-27T01:24:59.092Z</time>
</trkpt>
<trkpt lat="-26.8757533" lon="152.7933492">
<ele>128.328</ele>
<time>2015-12-27T01:25:01.070Z</time>
</trkpt>
<trkpt lat="-26.8754107" lon="152.7940759">
<ele>128.795</ele>
<time>2015-12-27T01:25:04.078Z</time>
</trkpt>
<trkpt lat="-26.8751921" lon="152.7945674">
<ele>129.738</ele>
<time>2015-12-27T01:25:06.087Z</time>
</trkpt>
<trkpt lat="-26.8749717" lon="152.7950408">
<ele>130.748</ele>
<time>2015-12-27T01:25:08.049Z</time>
</trkpt>
<trkpt lat="-26.8746353" lon="152.7957664">
<ele>131.552</ele>
<time>2015-12-27T01:25:11.066Z</time>
</trkpt>
<trkpt lat="-26.8742970" lon="152.7964764">
<ele>132.473</ele>
<time>2015-12-27T01:25:14.059Z</time>
</trkpt>
<trkpt lat="-26.8740666" lon="152.7969251">
<ele>133.764</ele>
<time>2015-12-27T01:25:16.002Z</time>
</trkpt>
<trkpt lat="-26.8738579" lon="152.7974087">
<ele>135.295</ele>
<time>2015-12-27T01:25:18.009Z</time>
</trkpt>
<trkpt lat="-26.8736375" lon="152.7978968">
<ele>136.851</ele>
<time>2015-12-27T01:25:20.034Z</time>
</trkpt>
<trkpt lat="-26.8734161" lon="152.7983754">
<ele>138.195</ele>
<time>2015-12-27T01:25:22.009Z</time>
</trkpt>
<trkpt lat="-26.8730671" lon="152.7991073">
<ele>139.289</ele>
<time>2015-12-27T01:25:25.018Z</time>
</trkpt>
<trkpt lat="-26.8728525" lon="152.7996042">
<ele>140.331</ele>
<time>2015-12-27T01:25:27.002Z</time>
</trkpt>
<trkpt lat="-26.8725278" lon="152.8003484">
<ele>141.276</ele>
<time>2015-12-27T01:25:29.974Z</time>
</trkpt>
<trkpt lat="-26.8723257" lon="152.8008561">
<ele>141.877</ele>
<time>2015-12-27T01:25:31.965Z</time>
</trkpt>
<trkpt lat="-26.8721032" lon="152.8013466">
<ele>142.171</ele>
<time>2015-12-27T01:25:33.933Z</time>
</trkpt>
<trkpt lat="-26.8718095" lon="152.8021070">
<ele>142.389</ele>
<time>2015-12-27T01:25:36.895Z</time>
</trkpt>
<trkpt lat="-26.8716297" lon="152.8026219">
<ele>142.814</ele>
<time>2015-12-27T01:25:38.864Z</time>
</trkpt>
<trkpt lat="-26.8714663" lon="152.8031615">
<ele>143.532</ele>
<time>2015-12-27T01:25:40.884Z</time>
</trkpt>
<trkpt lat="-26.8712532" lon="152.8039686">
<ele>144.268</ele>
<time>2015-12-27T01:25:43.861Z</time>
</trkpt>
<trkpt lat="-26.8711241" lon="152.8045065">
<ele>144.677</ele>
<time>2015-12-27T01:25:45.836Z</time>
</trkpt>
<trkpt lat="-26.8709993" lon="152.8050654">
<ele>144.724</ele>
<time>2015-12-27T01:25:47.874Z</time>
</trkpt>
<trkpt lat="-26.8708106" lon="152.8058895">
<ele>144.584</ele>
<time>2015-12-27T01:25:50.875Z</time>
</trkpt>
<trkpt lat="-26.8706005" lon="152.8066925">
<ele>144.385</ele>
<time>2015-12-27T01:25:53.838Z</time>
</trkpt>
<trkpt lat="-26.8703212" lon="152.8074808">
<ele>144.150</ele>
<time>2015-12-27T01:25:56.838Z</time>
</trkpt>
<trkpt lat="-26.8699483" lon="152.8082110">
<ele>143.836</ele>
<time>2015-12-27T01:25:59.799Z</time>
</trkpt>
<trkpt lat="-26.8695167" lon="152.8088989">
<ele>143.103</ele>
<time>2015-12-27T01:26:02.772Z</time>
</trkpt>
<trkpt lat="-26.8692002" lon="152.8093415">
<ele>141.468</ele>
<time>2015-12-27T01:26:04.789Z</time>
</trkpt>
<trkpt lat="-26.8686548" lon="152.8099549">
<ele>139.129</ele>
<time>2015-12-27T01:26:07.850Z</time>
</trkpt>
<trkpt lat="-26.8682347" lon="152.8103766">
<ele>136.646</ele>
<time>2015-12-27T01:26:10.047Z</time>
</trkpt>
<trkpt lat="-26.8676587" lon="152.8108945">
<ele>134.279</ele>
<time>2015-12-27T01:26:12.920Z</time>
</trkpt>
<trkpt lat="-26.8673024" lon="152.8112421">
<ele>132.321</ele>
<time>2015-12-27T01:26:14.781Z</time>
</trkpt>
<trkpt lat="-26.8667185" lon="152.8117959">
<ele>131.101</ele>
<time>2015-12-27T01:26:17.819Z</time>
</trkpt>
<trkpt lat="-26.8663326" lon="152.8121254">
<ele>130.549</ele>
<time>2015-12-27T01:26:19.777Z</time>
</trkpt>
<trkpt lat="-26.8657800" lon="152.8126729">
<ele>130.390</ele>
<time>2015-12-27T01:26:22.797Z</time>
</trkpt>
<trkpt lat="-26.8652076" lon="152.8131926">
<ele>130.390</ele>
<time>2015-12-27T01:26:25.830Z</time>
</trkpt>
<trkpt lat="-26.8648293" lon="152.8135412">
<ele>130.421</ele>
<time>2015-12-27T01:26:27.846Z</time>
</trkpt>
<trkpt lat="-26.8644689" lon="152.8138619">
<ele>130.550</ele>
<time>2015-12-27T01:26:29.736Z</time>
</trkpt>
<trkpt lat="-26.8638726" lon="152.8143482">
<ele>130.866</ele>
<time>2015-12-27T01:26:32.764Z</time>
</trkpt>
<trkpt lat="-26.8634531" lon="152.8146156">
<ele>131.346</ele>
<time>2015-12-27T01:26:34.763Z</time>
</trkpt>
<trkpt lat="-26.8627954" lon="152.8149812">
<ele>131.913</ele>
<time>2015-12-27T01:26:37.830Z</time>
</trkpt>
<trkpt lat="-26.8623272" lon="152.8151782">
<ele>132.394</ele>
<time>2015-12-27T01:26:39.902Z</time>
</trkpt>
<trkpt lat="-26.8616183" lon="152.8154033">
<ele>132.623</ele>
<time>2015-12-27T01:26:42.912Z</time>
</trkpt>
<trkpt lat="-26.8611139" lon="152.8154790">
<ele>132.775</ele>
<time>2015-12-27T01:26:44.978Z</time>
</trkpt>
<trkpt lat="-26.8603825" lon="152.8155258">
<ele>133.246</ele>
<time>2015-12-27T01:26:47.955Z</time>
</trkpt>
<trkpt lat="-26.8599103" lon="152.8155551">
<ele>134.077</ele>
<time>2015-12-27T01:26:49.891Z</time>
</trkpt>
<trkpt lat="-26.8593999" lon="152.8155391">
<ele>134.926</ele>
<time>2015-12-27T01:26:51.988Z</time>
</trkpt>
<trkpt lat="-26.8589073" lon="152.8155541">
<ele>135.632</ele>
<time>2015-12-27T01:26:54.055Z</time>
</trkpt>
<trkpt lat="-26.8582383" lon="152.8155699">
<ele>136.173</ele>
<time>2015-12-27T01:26:56.980Z</time>
</trkpt>
<trkpt lat="-26.8578039" lon="152.8155774">
<ele>136.441</ele>
<time>2015-12-27T01:26:58.982Z</time>
</trkpt>
<trkpt lat="-26.8573740" lon="152.8155914">
<ele>136.461</ele>
<time>2015-12-27T01:27:00.998Z</time>
</trkpt>
<trkpt lat="-26.8567422" lon="152.8155899">
<ele>136.488</ele>
<time>2015-12-27T01:27:04.029Z</time>
</trkpt>
<trkpt lat="-26.8563672" lon="152.8156018">
<ele>136.961</ele>
<time>2015-12-27T01:27:05.932Z</time>
</trkpt>
<trkpt lat="-26.8560029" lon="152.8156266">
<ele>138.012</ele>
<time>2015-12-27T01:27:07.831Z</time>
</trkpt>
<trkpt lat="-26.8556158" lon="152.8156277">
<ele>139.435</ele>
<time>2015-12-27T01:27:09.826Z</time>
</trkpt>
<trkpt lat="-26.8549992" lon="152.8156172">
<ele>141.457</ele>
<time>2015-12-27T01:27:12.943Z</time>
</trkpt>
<trkpt lat="-26.8543931" lon="152.8156157">
<ele>144.771</ele>
<time>2015-12-27T01:27:15.957Z</time>
</trkpt>
<trkpt lat="-26.8539592" lon="152.8156112">
<ele>149.628</ele>
<time>2015-12-27T01:27:18.118Z</time>
</trkpt>
<trkpt lat="-26.8533739" lon="152.8156279">
<ele>154.814</ele>
<time>2015-12-27T01:27:21.084Z</time>
</trkpt>
<trkpt lat="-26.8530235" lon="152.8156405">
<ele>158.521</ele>
<time>2015-12-27T01:27:22.905Z</time>
</trkpt>
<trkpt lat="-26.8526621" lon="152.8156471">
<ele>160.685</ele>
<time>2015-12-27T01:27:24.809Z</time>
</trkpt>
<trkpt lat="-26.8523189" lon="152.8156554">
<ele>162.253</ele>
<time>2015-12-27T01:27:26.653Z</time>
</trkpt>
<trkpt lat="-26.8519725" lon="152.8156758">
<ele>163.468</ele>
<time>2015-12-27T01:27:28.549Z</time>
</trkpt>
<trkpt lat="-26.8516001" lon="152.8156989">
<ele>164.460</ele>
<time>2015-12-27T01:27:30.583Z</time>
</trkpt>
<trkpt lat="-26.8510384" lon="152.8157164">
<ele>165.336</ele>
<time>2015-12-27T01:27:33.631Z</time>
</trkpt>
<trkpt lat="-26.8504880" lon="152.8157328">
<ele>165.612</ele>
<time>2015-12-27T01:27:36.656Z</time>
</trkpt>
<trkpt lat="-26.8501411" lon="152.8157437">
<ele>164.402</ele>
<time>2015-12-27T01:27:38.608Z</time>
</trkpt>
<trkpt lat="-26.8495833" lon="152.8157996">
<ele>161.847</ele>
<time>2015-12-27T01:27:41.810Z</time>
</trkpt>
<trkpt lat="-26.8492835" lon="152.8159459">
<ele>159.453</ele>
<time>2015-12-27T01:27:43.711Z</time>
</trkpt>
<trkpt lat="-26.8490016" lon="152.8161675">
<ele>158.202</ele>
<time>2015-12-27T01:27:45.733Z</time>
</trkpt>
<trkpt lat="-26.8486247" lon="152.8165920">
<ele>158.136</ele>
<time>2015-12-27T01:27:48.790Z</time>
</trkpt>
<trkpt lat="-26.8484404" lon="152.8169583">
<ele>159.495</ele>
<time>2015-12-27T01:27:50.877Z</time>
</trkpt>
<trkpt lat="-26.8483516" lon="152.8174756">
<ele>162.352</ele>
<time>2015-12-27T01:27:53.543Z</time>
</trkpt>
<trkpt lat="-26.8483184" lon="152.8178686">
<ele>165.996</ele>
<time>2015-12-27T01:27:55.605Z</time>
</trkpt>
<trkpt lat="-26.8482769" lon="152.8184318">
<ele>169.313</ele>
<time>2015-12-27T01:27:58.559Z</time>
</trkpt>
<trkpt lat="-26.8481206" lon="152.8190035">
<ele>171.765</ele>
<time>2015-12-27T01:28:01.695Z</time>
</trkpt>
<trkpt lat="-26.8479314" lon="152.8193258">
<ele>173.567</ele>
<time>2015-12-27T01:28:03.716Z</time>
</trkpt>
<trkpt lat="-26.8475444" lon="152.8197282">
<ele>174.998</ele>
<time>2015-12-27T01:28:06.820Z</time>
</trkpt>
<trkpt lat="-26.8472367" lon="152.8198693">
<ele>176.541</ele>
<time>2015-12-27T01:28:08.806Z</time>
</trkpt>
<trkpt lat="-26.8467560" lon="152.8199649">
<ele>178.825</ele>
<time>2015-12-27T01:28:11.795Z</time>
</trkpt>
<trkpt lat="-26.8464182" lon="152.8198479">
<ele>181.896</ele>
<time>2015-12-27T01:28:13.966Z</time>
</trkpt>
<trkpt lat="-26.8461131" lon="152.8196663">
<ele>185.242</ele>
<time>2015-12-27T01:28:16.031Z</time>
</trkpt>
<trkpt lat="-26.8457051" lon="152.8193150">
<ele>188.348</ele>
<time>2015-12-27T01:28:19.201Z</time>
</trkpt>
<trkpt lat="-26.8453906" lon="152.8190180">
<ele>191.038</ele>
<time>2015-12-27T01:28:22.009Z</time>
</trkpt>
<trkpt lat="-26.8451402" lon="152.8188456">
<ele>193.293</ele>
<time>2015-12-27T01:28:24.128Z</time>
</trkpt>
<trkpt lat="-26.8447235" lon="152.8186516">
<ele>195.292</ele>
<time>2015-12-27T01:28:27.316Z</time>
</trkpt>
<trkpt lat="-26.8444690" lon="152.8186083">
<ele>197.527</ele>
<time>2015-12-27T01:28:29.101Z</time>
</trkpt>
<trkpt lat="-26.8441468" lon="152.8186165">
<ele>200.249</ele>
<time>2015-12-27T01:28:31.296Z</time>
</trkpt>
<trkpt lat="-26.8438660" lon="152.8186003">
<ele>203.358</ele>
<time>2015-12-27T01:28:33.201Z</time>
</trkpt>
<trkpt lat="-26.8434568" lon="152.8185314">
<ele>206.724</ele>
<time>2015-12-27T01:28:36.032Z</time>
</trkpt>
<trkpt lat="-26.8432172" lon="152.8183695">
<ele>209.897</ele>
<time>2015-12-27T01:28:37.977Z</time>
</trkpt>
<trkpt lat="-26.8430234" lon="152.8181462">
<ele>212.424</ele>
<time>2015-12-27T01:28:39.943Z</time>
</trkpt>
<trkpt lat="-26.8428364" lon="152.8179203">
<ele>214.347</ele>
<time>2015-12-27T01:28:41.933Z</time>
</trkpt>
<trkpt lat="-26.8424917" lon="152.8177035">
<ele>215.873</ele>
<time>2015-12-27T01:28:44.904Z</time>
</trkpt>
<trkpt lat="-26.8422350" lon="152.8176664">
<ele>217.210</ele>
<time>2015-12-27T01:28:46.868Z</time>
</trkpt>
<trkpt lat="-26.8418440" lon="152.8176202">
<ele>218.801</ele>
<time>2015-12-27T01:28:49.898Z</time>
</trkpt>
<trkpt lat="-26.8416271" lon="152.8174681">
<ele>220.968</ele>
<time>2015-12-27T01:28:51.842Z</time>
</trkpt>
<trkpt lat="-26.8413454" lon="152.8171017">
<ele>223.372</ele>
<time>2015-12-27T01:28:54.911Z</time>
</trkpt>
<trkpt lat="-26.8411696" lon="152.8168396">
<ele>225.644</ele>
<time>2015-12-27T01:28:56.926Z</time>
</trkpt>
<trkpt lat="-26.8408793" lon="152.8165214">
<ele>227.805</ele>
<time>2015-12-27T01:28:59.849Z</time>
</trkpt>
<trkpt lat="-26.8405282" lon="152.8163616">
<ele>229.756</ele>
<time>2015-12-27T01:29:02.688Z</time>
</trkpt>
<trkpt lat="-26.8402831" lon="152.8163262">
<ele>231.583</ele>
<time>2015-12-27T01:29:04.500Z</time>
</trkpt>
<trkpt lat="-26.8400082" lon="152.8163931">
<ele>234.045</ele>
<time>2015-12-27T01:29:06.506Z</time>
</trkpt>
<trkpt lat="-26.8396589" lon="152.8166324">
<ele>237.306</ele>
<time>2015-12-27T01:29:09.358Z</time>
</trkpt>
<trkpt lat="-26.8394596" lon="152.8169026">
<ele>240.492</ele>
<time>2015-12-27T01:29:11.419Z</time>
</trkpt>
<trkpt lat="-26.8391890" lon="152.8173514">
<ele>242.822</ele>
<time>2015-12-27T01:29:14.452Z</time>
</trkpt>
<trkpt lat="-26.8389172" lon="152.8175308">
<ele>244.472</ele>
<time>2015-12-27T01:29:16.479Z</time>
</trkpt>
<trkpt lat="-26.8384709" lon="152.8176047">
<ele>246.043</ele>
<time>2015-12-27T01:29:19.458Z</time>
</trkpt>
<trkpt lat="-26.8379673" lon="152.8174884">
<ele>247.912</ele>
<time>2015-12-27T01:29:22.673Z</time>
</trkpt>
<trkpt lat="-26.8376564" lon="152.8174214">
<ele>250.226</ele>
<time>2015-12-27T01:29:24.649Z</time>
</trkpt>
<trkpt lat="-26.8372284" lon="152.8174365">
<ele>252.568</ele>
<time>2015-12-27T01:29:27.489Z</time>
</trkpt>
<trkpt lat="-26.8369520" lon="152.8175723">
<ele>254.287</ele>
<time>2015-12-27T01:29:29.607Z</time>
</trkpt>
<trkpt lat="-26.8365406" lon="152.8175968">
<ele>255.533</ele>
<time>2015-12-27T01:29:32.611Z</time>
</trkpt>
<trkpt lat="-26.8362157" lon="152.8175285">
<ele>256.748</ele>
<time>2015-12-27T01:29:35.197Z</time>
</trkpt>
<trkpt lat="-26.8359000" lon="152.8174927">
<ele>257.907</ele>
<time>2015-12-27T01:29:37.883Z</time>
</trkpt>
<trkpt lat="-26.8356660" lon="152.8174690">
<ele>258.752</ele>
<time>2015-12-27T01:29:40.255Z</time>
</trkpt>
<trkpt lat="-26.8355947" lon="152.8173668">
<ele>259.064</ele>
<time>2015-12-27T01:29:41.585Z</time>
</trkpt>
<trkpt lat="-26.8354852" lon="152.8170879">
<ele>258.915</ele>
<time>2015-12-27T01:29:45.121Z</time>
</trkpt>
<trkpt lat="-26.8352694" lon="152.8167459">
<ele>259.156</ele>
<time>2015-12-27T01:29:48.758Z</time>
</trkpt>
<trkpt lat="-26.8350885" lon="152.8164943">
<ele>261.019</ele>
<time>2015-12-27T01:29:50.953Z</time>
</trkpt>
<trkpt lat="-26.8348831" lon="152.8162081">
<ele>264.402</ele>
<time>2015-12-27T01:29:53.153Z</time>
</trkpt>
<trkpt lat="-26.8346719" lon="152.8159413">
<ele>268.003</ele>
<time>2015-12-27T01:29:55.188Z</time>
</trkpt>
<trkpt lat="-26.8344447" lon="152.8156758">
<ele>270.760</ele>
<time>2015-12-27T01:29:57.243Z</time>
</trkpt>
<trkpt lat="-26.8341214" lon="152.8153194">
<ele>271.932</ele>
<time>2015-12-27T01:30:00.117Z</time>
</trkpt>
<trkpt lat="-26.8338523" lon="152.8151275">
<ele>271.420</ele>
<time>2015-12-27T01:30:02.179Z</time>
</trkpt>
<trkpt lat="-26.8335686" lon="152.8149717">
<ele>270.239</ele>
<time>2015-12-27T01:30:04.227Z</time>
</trkpt>
<trkpt lat="-26.8331178" lon="152.8148288">
<ele>269.582</ele>
<time>2015-12-27T01:30:07.273Z</time>
</trkpt>
<trkpt lat="-26.8326860" lon="152.8146867">
<ele>270.075</ele>
<time>2015-12-27T01:30:10.201Z</time>
</trkpt>
<trkpt lat="-26.8323012" lon="152.8143970">
<ele>271.709</ele>
<time>2015-12-27T01:30:13.251Z</time>
</trkpt>
<trkpt lat="-26.8320899" lon="152.8141176">
<ele>274.126</ele>
<time>2015-12-27T01:30:15.388Z</time>
</trkpt>
<trkpt lat="-26.8319179" lon="152.8138612">
<ele>276.796</ele>
<time>2015-12-27T01:30:17.269Z</time>
</trkpt>
<trkpt lat="-26.8316064" lon="152.8134748">
<ele>279.049</ele>
<time>2015-12-27T01:30:20.355Z</time>
</trkpt>
<trkpt lat="-26.8312579" lon="152.8130889">
<ele>280.816</ele>
<time>2015-12-27T01:30:23.510Z</time>
</trkpt>
<trkpt lat="-26.8309997" lon="152.8128752">
<ele>282.898</ele>
<time>2015-12-27T01:30:25.537Z</time>
</trkpt>
<trkpt lat="-26.8306026" lon="152.8126089">
<ele>285.645</ele>
<time>2015-12-27T01:30:28.531Z</time>
</trkpt>
<trkpt lat="-26.8302915" lon="152.8125188">
<ele>288.577</ele>
<time>2015-12-27T01:30:30.614Z</time>
</trkpt>
<trkpt lat="-26.8299805" lon="152.8124461">
<ele>291.066</ele>
<time>2015-12-27T01:30:32.644Z</time>
</trkpt>
<trkpt lat="-26.8295241" lon="152.8124846">
<ele>292.900</ele>
<time>2015-12-27T01:30:35.557Z</time>
</trkpt>
<trkpt lat="-26.8290327" lon="152.8126465">
<ele>294.797</ele>
<time>2015-12-27T01:30:38.840Z</time>
</trkpt>
<trkpt lat="-26.8286067" lon="152.8128065">
<ele>297.766</ele>
<time>2015-12-27T01:30:41.860Z</time>
</trkpt>
<trkpt lat="-26.8282065" lon="152.8126866">
<ele>301.239</ele>
<time>2015-12-27T01:30:44.831Z</time>
</trkpt>
<trkpt lat="-26.8279387" lon="152.8125574">
<ele>303.212</ele>
<time>2015-12-27T01:30:46.930Z</time>
</trkpt>
<trkpt lat="-26.8276493" lon="152.8122155">
<ele>302.916</ele>
<time>2015-12-27T01:30:49.995Z</time>
</trkpt>
<trkpt lat="-26.8277628" lon="152.8118552">
<ele>301.907</ele>
<time>2015-12-27T01:30:52.611Z</time>
</trkpt>
<trkpt lat="-26.8280072" lon="152.8112536">
<ele>301.980</ele>
<time>2015-12-27T01:30:56.700Z</time>
</trkpt>
<trkpt lat="-26.8281043" lon="152.8106895">
<ele>303.466</ele>
<time>2015-12-27T01:30:59.802Z</time>
</trkpt>
<trkpt lat="-26.8280115" lon="152.8101013">
<ele>305.410</ele>
<time>2015-12-27T01:31:02.792Z</time>
</trkpt>
<trkpt lat="-26.8277101" lon="152.8095353">
<ele>307.107</ele>
<time>2015-12-27T01:31:05.972Z</time>
</trkpt>
<trkpt lat="-26.8274743" lon="152.8089866">
<ele>308.975</ele>
<time>2015-12-27T01:31:08.972Z</time>
</trkpt>
<trkpt lat="-26.8273581" lon="152.8086043">
<ele>311.258</ele>
<time>2015-12-27T01:31:10.946Z</time>
</trkpt>
<trkpt lat="-26.8271298" lon="152.8080322">
<ele>313.436</ele>
<time>2015-12-27T01:31:13.836Z</time>
</trkpt>
<trkpt lat="-26.8269412" lon="152.8076273">
<ele>315.594</ele>
<time>2015-12-27T01:31:15.913Z</time>
</trkpt>
<trkpt lat="-26.8267384" lon="152.8072786">
<ele>318.668</ele>
<time>2015-12-27T01:31:17.803Z</time>
</trkpt>
<trkpt lat="-26.8263150" lon="152.8067966">
<ele>322.531</ele>
<time>2015-12-27T01:31:20.801Z</time>
</trkpt>
<trkpt lat="-26.8260255" lon="152.8064818">
<ele>326.555</ele>
<time>2015-12-27T01:31:22.819Z</time>
</trkpt>
<trkpt lat="-26.8257426" lon="152.8061672">
<ele>330.743</ele>
<time>2015-12-27T01:31:24.845Z</time>
</trkpt>
<trkpt lat="-26.8253272" lon="152.8057189">
<ele>334.808</ele>
<time>2015-12-27T01:31:28.037Z</time>
</trkpt>
<trkpt lat="-26.8249788" lon="152.8053758">
<ele>338.555</ele>
<time>2015-12-27T01:31:31.047Z</time>
</trkpt>
<trkpt lat="-26.8247906" lon="152.8049899">
<ele>342.080</ele>
<time>2015-12-27T01:31:33.818Z</time>
</trkpt>
<trkpt lat="-26.8247283" lon="152.8046808">
<ele>344.662</ele>
<time>2015-12-27T01:31:35.754Z</time>
</trkpt>
<trkpt lat="-26.8248356" lon="152.8041894">
<ele>346.067</ele>
<time>2015-12-27T01:31:38.561Z</time>
</trkpt>
<trkpt lat="-26.8249954" lon="152.8038512">
<ele>347.586</ele>
<time>2015-12-27T01:31:40.520Z</time>
</trkpt>
<trkpt lat="-26.8251934" lon="152.8035079">
<ele>350.463</ele>
<time>2015-12-27T01:31:42.519Z</time>
</trkpt>
<trkpt lat="-26.8255937" lon="152.8030386">
<ele>354.254</ele>
<time>2015-12-27T01:31:45.585Z</time>
</trkpt>
<trkpt lat="-26.8258890" lon="152.8027476">
<ele>357.926</ele>
<time>2015-12-27T01:31:47.651Z</time>
</trkpt>
<trkpt lat="-26.8261582" lon="152.8024552">
<ele>360.907</ele>
<time>2015-12-27T01:31:49.637Z</time>
</trkpt>
<trkpt lat="-26.8265576" lon="152.8019988">
<ele>363.093</ele>
<time>2015-12-27T01:31:52.689Z</time>
</trkpt>
<trkpt lat="-26.8267760" lon="152.8016558">
<ele>365.613</ele>
<time>2015-12-27T01:31:54.694Z</time>
</trkpt>
<trkpt lat="-26.8270382" lon="152.8010866">
<ele>369.425</ele>
<time>2015-12-27T01:31:57.618Z</time>
</trkpt>
<trkpt lat="-26.8272117" lon="152.8004451">
<ele>373.564</ele>
<time>2015-12-27T01:32:00.603Z</time>
</trkpt>
<trkpt lat="-26.8271641" lon="152.7998032">
<ele>376.774</ele>
<time>2015-12-27T01:32:03.472Z</time>
</trkpt>
<trkpt lat="-26.8271040" lon="152.7991243">
<ele>378.659</ele>
<time>2015-12-27T01:32:06.522Z</time>
</trkpt>
<trkpt lat="-26.8270659" lon="152.7986857">
<ele>379.335</ele>
<time>2015-12-27T01:32:08.550Z</time>
</trkpt>
<trkpt lat="-26.8270018" lon="152.7980638">
<ele>379.399</ele>
<time>2015-12-27T01:32:11.651Z</time>
</trkpt>
<trkpt lat="-26.8269921" lon="152.7974927">
<ele>379.426</ele>
<time>2015-12-27T01:32:14.668Z</time>
</trkpt>
<trkpt lat="-26.8270706" lon="152.7971420">
<ele>379.300</ele>
<time>2015-12-27T01:32:16.507Z</time>
</trkpt>
<trkpt lat="-26.8271908" lon="152.7965108">
<ele>378.775</ele>
<time>2015-12-27T01:32:19.522Z</time>
</trkpt>
<trkpt lat="-26.8272257" lon="152.7960617">
<ele>378.183</ele>
<time>2015-12-27T01:32:21.573Z</time>
</trkpt>
<trkpt lat="-26.8272170" lon="152.7956305">
<ele>377.959</ele>
<time>2015-12-27T01:32:23.564Z</time>
</trkpt>
<trkpt lat="-26.8272229" lon="152.7951988">
<ele>378.197</ele>
<time>2015-12-27T01:32:25.585Z</time>
</trkpt>
<trkpt lat="-26.8272727" lon="152.7945919">
<ele>378.715</ele>
<time>2015-12-27T01:32:28.483Z</time>
</trkpt>
<trkpt lat="-26.8274109" lon="152.7941812">
<ele>379.211</ele>
<time>2015-12-27T01:32:30.598Z</time>
</trkpt>
<trkpt lat="-26.8275738" lon="152.7936112">
<ele>379.607</ele>
<time>2015-12-27T01:32:33.535Z</time>
</trkpt>
<trkpt lat="-26.8275399" lon="152.7931845">
<ele>380.221</ele>
<time>2015-12-27T01:32:35.749Z</time>
</trkpt>
<trkpt lat="-26.8275283" lon="152.7927975">
<ele>381.348</ele>
<time>2015-12-27T01:32:37.946Z</time>
</trkpt>
<trkpt lat="-26.8274970" lon="152.7924693">
<ele>382.853</ele>
<time>2015-12-27T01:32:39.988Z</time>
</trkpt>
<trkpt lat="-26.8274438" lon="152.7921586">
<ele>384.270</ele>
<time>2015-12-27T01:32:42.007Z</time>
</trkpt>
<trkpt lat="-26.8272295" lon="152.7917481">
<ele>385.247</ele>
<time>2015-12-27T01:32:45.081Z</time>
</trkpt>
<trkpt lat="-26.8269413" lon="152.7916826">
<ele>385.981</ele>
<time>2015-12-27T01:32:47.131Z</time>
</trkpt>
<trkpt lat="-26.8264697" lon="152.7915521">
<ele>386.974</ele>
<time>2015-12-27T01:32:50.839Z</time>
</trkpt>
<trkpt lat="-26.8262723" lon="152.7913786">
<ele>388.541</ele>
<time>2015-12-27T01:32:53.010Z</time>
</trkpt>
<trkpt lat="-26.8259724" lon="152.7911943">
<ele>390.579</ele>
<time>2015-12-27T01:32:55.928Z</time>
</trkpt>
<trkpt lat="-26.8257865" lon="152.7910955">
<ele>392.612</ele>
<time>2015-12-27T01:32:57.523Z</time>
</trkpt>
<trkpt lat="-26.8252914" lon="152.7909771">
<ele>394.163</ele>
<time>2015-12-27T01:33:00.883Z</time>
</trkpt>
<trkpt lat="-26.8249534" lon="152.7906038">
<ele>395.126</ele>
<time>2015-12-27T01:33:03.667Z</time>
</trkpt>
<trkpt lat="-26.8246628" lon="152.7901110">
<ele>395.846</ele>
<time>2015-12-27T01:33:06.575Z</time>
</trkpt>
<trkpt lat="-26.8244611" lon="152.7897753">
<ele>397.063</ele>
<time>2015-12-27T01:33:08.585Z</time>
</trkpt>
<trkpt lat="-26.8241016" lon="152.7893489">
<ele>398.792</ele>
<time>2015-12-27T01:33:11.630Z</time>
</trkpt>
<trkpt lat="-26.8238689" lon="152.7890423">
<ele>399.850</ele>
<time>2015-12-27T01:33:13.958Z</time>
</trkpt>
<trkpt lat="-26.8237495" lon="152.7887175">
<ele>399.339</ele>
<time>2015-12-27T01:33:16.048Z</time>
</trkpt>
<trkpt lat="-26.8237472" lon="152.7882090">
<ele>397.910</ele>
<time>2015-12-27T01:33:18.883Z</time>
</trkpt>
<trkpt lat="-26.8239542" lon="152.7878522">
<ele>396.882</ele>
<time>2015-12-27T01:33:21.066Z</time>
</trkpt>
<trkpt lat="-26.8243724" lon="152.7874231">
<ele>396.761</ele>
<time>2015-12-27T01:33:24.098Z</time>
</trkpt>
<trkpt lat="-26.8245993" lon="152.7871128">
<ele>397.053</ele>
<time>2015-12-27T01:33:25.930Z</time>
</trkpt>
<trkpt lat="-26.8248691" lon="152.7865440">
<ele>396.929</ele>
<time>2015-12-27T01:33:28.703Z</time>
</trkpt>
<trkpt lat="-26.8250102" lon="152.7860868">
<ele>396.048</ele>
<time>2015-12-27T01:33:30.764Z</time>
</trkpt>
<trkpt lat="-26.8250505" lon="152.7854095">
<ele>394.928</ele>
<time>2015-12-27T01:33:33.757Z</time>
</trkpt>
<trkpt lat="-26.8250502" lon="152.7849740">
<ele>394.384</ele>
<time>2015-12-27T01:33:35.726Z</time>
</trkpt>
<trkpt lat="-26.8250468" lon="152.7843319">
<ele>394.576</ele>
<time>2015-12-27T01:33:38.671Z</time>
</trkpt>
<trkpt lat="-26.8250653" lon="152.7838970">
<ele>395.026</ele>
<time>2015-12-27T01:33:40.685Z</time>
</trkpt>
<trkpt lat="-26.8250855" lon="152.7834650">
<ele>395.406</ele>
<time>2015-12-27T01:33:42.720Z</time>
</trkpt>
<trkpt lat="-26.8251058" lon="152.7828268">
<ele>395.921</ele>
<time>2015-12-27T01:33:45.865Z</time>
</trkpt>
<trkpt lat="-26.8250905" lon="152.7824381">
<ele>397.041</ele>
<time>2015-12-27T01:33:47.883Z</time>
</trkpt>
<trkpt lat="-26.8251154" lon="152.7820374">
<ele>398.679</ele>
<time>2015-12-27T01:33:50.027Z</time>
</trkpt>
<trkpt lat="-26.8250718" lon="152.7815094">
<ele>399.927</ele>
<time>2015-12-27T01:33:52.925Z</time>
</trkpt>
<trkpt lat="-26.8247522" lon="152.7810944">
<ele>400.257</ele>
<time>2015-12-27T01:33:55.833Z</time>
</trkpt>
<trkpt lat="-26.8245478" lon="152.7807932">
<ele>400.631</ele>
<time>2015-12-27T01:33:57.808Z</time>
</trkpt>
<trkpt lat="-26.8242927" lon="152.7803037">
<ele>402.369</ele>
<time>2015-12-27T01:34:00.645Z</time>
</trkpt>
<trkpt lat="-26.8242854" lon="152.7798907">
<ele>405.356</ele>
<time>2015-12-27T01:34:02.544Z</time>
</trkpt>
<trkpt lat="-26.8242561" lon="152.7794664">
<ele>408.487</ele>
<time>2015-12-27T01:34:04.453Z</time>
</trkpt>
<trkpt lat="-26.8241109" lon="152.7787951">
<ele>410.938</ele>
<time>2015-12-27T01:34:07.435Z</time>
</trkpt>
<trkpt lat="-26.8238565" lon="152.7781491">
<ele>412.297</ele>
<time>2015-12-27T01:34:10.430Z</time>
</trkpt>
<trkpt lat="-26.8235692" lon="152.7775239">
<ele>413.003</ele>
<time>2015-12-27T01:34:13.425Z</time>
</trkpt>
<trkpt lat="-26.8233766" lon="152.7771264">
<ele>413.769</ele>
<time>2015-12-27T01:34:15.368Z</time>
</trkpt>
<trkpt lat="-26.8230320" lon="152.7765415">
<ele>414.863</ele>
<time>2015-12-27T01:34:18.493Z</time>
</trkpt>
<trkpt lat="-26.8227125" lon="152.7759901">
<ele>416.799</ele>
<time>2015-12-27T01:34:21.798Z</time>
</trkpt>
<trkpt lat="-26.8225098" lon="152.7754708">
<ele>419.778</ele>
<time>2015-12-27T01:34:25.213Z</time>
</trkpt>
<trkpt lat="-26.8222935" lon="152.7752542">
<ele>423.154</ele>
<time>2015-12-27T01:34:27.464Z</time>
</trkpt>
<trkpt lat="-26.8220005" lon="152.7749602">
<ele>426.430</ele>
<time>2015-12-27T01:34:31.205Z</time>
</trkpt>
<trkpt lat="-26.8219067" lon="152.7748402">
<ele>429.576</ele>
<time>2015-12-27T01:34:32.561Z</time>
</trkpt>
<trkpt lat="-26.8220905" lon="152.7746630">
<ele>432.540</ele>
<time>2015-12-27T01:34:34.589Z</time>
</trkpt>
<trkpt lat="-26.8222648" lon="152.7742581">
<ele>435.310</ele>
<time>2015-12-27T01:34:37.524Z</time>
</trkpt>
<trkpt lat="-26.8222446" lon="152.7739657">
<ele>438.479</ele>
<time>2015-12-27T01:34:39.292Z</time>
</trkpt>
<trkpt lat="-26.8220889" lon="152.7734935">
<ele>442.791</ele>
<time>2015-12-27T01:34:42.500Z</time>
</trkpt>
<trkpt lat="-26.8219507" lon="152.7731757">
<ele>448.239</ele>
<time>2015-12-27T01:34:45.185Z</time>
</trkpt>
<trkpt lat="-26.8217923" lon="152.7728047">
<ele>454.060</ele>
<time>2015-12-27T01:34:48.594Z</time>
</trkpt>
<trkpt lat="-26.8217804" lon="152.7725707">
<ele>459.247</ele>
<time>2015-12-27T01:34:50.413Z</time>
</trkpt>
<trkpt lat="-26.8218708" lon="152.7723645">
<ele>463.285</ele>
<time>2015-12-27T01:34:52.045Z</time>
</trkpt>
<trkpt lat="-26.8222971" lon="152.7721685">
<ele>466.591</ele>
<time>2015-12-27T01:34:55.532Z</time>
</trkpt>
<trkpt lat="-26.8225072" lon="152.7720304">
<ele>470.385</ele>
<time>2015-12-27T01:34:57.221Z</time>
</trkpt>
<trkpt lat="-26.8226621" lon="152.7715866">
<ele>475.041</ele>
<time>2015-12-27T01:34:59.847Z</time>
</trkpt>
<trkpt lat="-26.8227270" lon="152.7712637">
<ele>479.884</ele>
<time>2015-12-27T01:35:01.599Z</time>
</trkpt>
<trkpt lat="-26.8227973" lon="152.7708912">
<ele>484.868</ele>
<time>2015-12-27T01:35:03.635Z</time>
</trkpt>
<trkpt lat="-26.8228731" lon="152.7703146">
<ele>490.277</ele>
<time>2015-12-27T01:35:06.817Z</time>
</trkpt>
<trkpt lat="-26.8228709" lon="152.7699645">
<ele>496.522</ele>
<time>2015-12-27T01:35:08.739Z</time>
</trkpt>
<trkpt lat="-26.8227401" lon="152.7694155">
<ele>503.718</ele>
<time>2015-12-27T01:35:11.864Z</time>
</trkpt>
<trkpt lat="-26.8226284" lon="152.7690908">
<ele>510.994</ele>
<time>2015-12-27T01:35:13.710Z</time>
</trkpt>
<trkpt lat="-26.8223476" lon="152.7686612">
<ele>517.593</ele>
<time>2015-12-27T01:35:16.416Z</time>
</trkpt>
<trkpt lat="-26.8221124" lon="152.7683807">
<ele>522.729</ele>
<time>2015-12-27T01:35:18.302Z</time>
</trkpt>
<trkpt lat="-26.8218213" lon="152.7681747">
<ele>525.526</ele>
<time>2015-12-27T01:35:20.115Z</time>
</trkpt>
<trkpt lat="-26.8213076" lon="152.7678964">
<ele>526.596</ele>
<time>2015-12-27T01:35:22.947Z</time>
</trkpt>
<trkpt lat="-26.8209264" lon="152.7677676">
<ele>527.393</ele>
<time>2015-12-27T01:35:24.868Z</time>
</trkpt>
<trkpt lat="-26.8205159" lon="152.7676493">
<ele>528.546</ele>
<time>2015-12-27T01:35:26.921Z</time>
</trkpt>
<trkpt lat="-26.8199107" lon="152.7674717">
<ele>529.609</ele>
<time>2015-12-27T01:35:30.022Z</time>
</trkpt>
<trkpt lat="-26.8195138" lon="152.7673525">
<ele>530.022</ele>
<time>2015-12-27T01:35:32.115Z</time>
</trkpt>
<trkpt lat="-26.8191484" lon="152.7672506">
<ele>529.679</ele>
<time>2015-12-27T01:35:34.030Z</time>
</trkpt>
<trkpt lat="-26.8185785" lon="152.7670839">
<ele>528.936</ele>
<time>2015-12-27T01:35:36.981Z</time>
</trkpt>
<trkpt lat="-26.8182104" lon="152.7669338">
<ele>528.520</ele>
<time>2015-12-27T01:35:38.861Z</time>
</trkpt>
<trkpt lat="-26.8178531" lon="152.7667243">
<ele>528.822</ele>
<time>2015-12-27T01:35:40.781Z</time>
</trkpt>
<trkpt lat="-26.8173035" lon="152.7663598">
<ele>529.408</ele>
<time>2015-12-27T01:35:43.837Z</time>
</trkpt>
<trkpt lat="-26.8169481" lon="152.7661136">
<ele>529.564</ele>
<time>2015-12-27T01:35:45.883Z</time>
</trkpt>
<trkpt lat="-26.8164360" lon="152.7657682">
<ele>528.966</ele>
<time>2015-12-27T01:35:48.887Z</time>
</trkpt>
<trkpt lat="-26.8160869" lon="152.7655206">
<ele>527.579</ele>
<time>2015-12-27T01:35:51.015Z</time>
</trkpt>
<trkpt lat="-26.8156502" lon="152.7650677">
<ele>525.841</ele>
<time>2015-12-27T01:35:54.286Z</time>
</trkpt>
<trkpt lat="-26.8154163" lon="152.7647527">
<ele>524.721</ele>
<time>2015-12-27T01:35:56.386Z</time>
</trkpt>
<trkpt lat="-26.8150147" lon="152.7643866">
<ele>524.768</ele>
<time>2015-12-27T01:35:59.413Z</time>
</trkpt>
<trkpt lat="-26.8145114" lon="152.7642530">
<ele>525.618</ele>
<time>2015-12-27T01:36:02.494Z</time>
</trkpt>
<trkpt lat="-26.8141842" lon="152.7642513">
<ele>526.807</ele>
<time>2015-12-27T01:36:04.448Z</time>
</trkpt>
<trkpt lat="-26.8138526" lon="152.7643198">
<ele>527.995</ele>
<time>2015-12-27T01:36:06.423Z</time>
</trkpt>
<trkpt lat="-26.8134260" lon="152.7646883">
<ele>528.627</ele>
<time>2015-12-27T01:36:09.367Z</time>
</trkpt>
<trkpt lat="-26.8132130" lon="152.7649791">
<ele>528.389</ele>
<time>2015-12-27T01:36:11.077Z</time>
</trkpt>
<trkpt lat="-26.8129513" lon="152.7655473">
<ele>527.552</ele>
<time>2015-12-27T01:36:13.881Z</time>
</trkpt>
<trkpt lat="-26.8126885" lon="152.7661869">
<ele>526.613</ele>
<time>2015-12-27T01:36:16.977Z</time>
</trkpt>
<trkpt lat="-26.8124401" lon="152.7668090">
<ele>526.027</ele>
<time>2015-12-27T01:36:20.094Z</time>
</trkpt>
<trkpt lat="-26.8122350" lon="152.7671908">
<ele>526.124</ele>
<time>2015-12-27T01:36:22.140Z</time>
</trkpt>
<trkpt lat="-26.8118677" lon="152.7676700">
<ele>527.164</ele>
<time>2015-12-27T01:36:25.001Z</time>
</trkpt>
<trkpt lat="-26.8115728" lon="152.7679885">
<ele>529.562</ele>
<time>2015-12-27T01:36:27.084Z</time>
</trkpt>
<trkpt lat="-26.8111506" lon="152.7684630">
<ele>533.186</ele>
<time>2015-12-27T01:36:30.169Z</time>
</trkpt>
<trkpt lat="-26.8107470" lon="152.7688928">
<ele>536.871</ele>
<time>2015-12-27T01:36:33.113Z</time>
</trkpt>
<trkpt lat="-26.8104336" lon="152.7691311">
<ele>539.611</ele>
<time>2015-12-27T01:36:35.183Z</time>
</trkpt>
<trkpt lat="-26.8099148" lon="152.7693512">
<ele>541.424</ele>
<time>2015-12-27T01:36:38.420Z</time>
</trkpt>
<trkpt lat="-26.8096160" lon="152.7695041">
<ele>543.316</ele>
<time>2015-12-27T01:36:40.365Z</time>
</trkpt>
<trkpt lat="-26.8093709" lon="152.7697287">
<ele>545.904</ele>
<time>2015-12-27T01:36:42.228Z</time>
</trkpt>
<trkpt lat="-26.8090579" lon="152.7701922">
<ele>548.536</ele>
<time>2015-12-27T01:36:45.310Z</time>
</trkpt>
<trkpt lat="-26.8089483" lon="152.7705335">
<ele>550.784</ele>
<time>2015-12-27T01:36:47.232Z</time>
</trkpt>
<trkpt lat="-26.8089126" lon="152.7709022">
<ele>552.731</ele>
<time>2015-12-27T01:36:49.191Z</time>
</trkpt>
<trkpt lat="-26.8089744" lon="152.7714758">
<ele>553.943</ele>
<time>2015-12-27T01:36:52.198Z</time>
</trkpt>
<trkpt lat="-26.8090967" lon="152.7720199">
<ele>554.291</ele>
<time>2015-12-27T01:36:55.010Z</time>
</trkpt>
<trkpt lat="-26.8094062" lon="152.7725218">
<ele>554.130</ele>
<time>2015-12-27T01:36:57.953Z</time>
</trkpt>
<trkpt lat="-26.8096191" lon="152.7728898">
<ele>553.640</ele>
<time>2015-12-27T01:37:00.018Z</time>
</trkpt>
<trkpt lat="-26.8097739" lon="152.7732657">
<ele>552.415</ele>
<time>2015-12-27T01:37:01.964Z</time>
</trkpt>
<trkpt lat="-26.8098708" lon="152.7739178">
<ele>550.074</ele>
<time>2015-12-27T01:37:05.115Z</time>
</trkpt>
<trkpt lat="-26.8098519" lon="152.7744769">
<ele>547.339</ele>
<time>2015-12-27T01:37:07.797Z</time>
</trkpt>
<trkpt lat="-26.8097568" lon="152.7748840">
<ele>545.509</ele>
<time>2015-12-27T01:37:09.806Z</time>
</trkpt>
<trkpt lat="-26.8095319" lon="152.7754648">
<ele>544.872</ele>
<time>2015-12-27T01:37:12.858Z</time>
</trkpt>
<trkpt lat="-26.8093387" lon="152.7760207">
<ele>544.677</ele>
<time>2015-12-27T01:37:15.760Z</time>
</trkpt>
<trkpt lat="-26.8092971" lon="152.7766273">
<ele>543.742</ele>
<time>2015-12-27T01:37:18.584Z</time>
</trkpt>
<trkpt lat="-26.8094048" lon="152.7770366">
<ele>541.297</ele>
<time>2015-12-27T01:37:20.510Z</time>
</trkpt>
<trkpt lat="-26.8097054" lon="152.7776504">
<ele>538.095</ele>
<time>2015-12-27T01:37:23.709Z</time>
</trkpt>
<trkpt lat="-26.8099571" lon="152.7782347">
<ele>535.745</ele>
<time>2015-12-27T01:37:26.898Z</time>
</trkpt>
<trkpt lat="-26.8100307" lon="152.7786297">
<ele>534.858</ele>
<time>2015-12-27T01:37:28.918Z</time>
</trkpt>
<trkpt lat="-26.8100208" lon="152.7790308">
<ele>535.165</ele>
<time>2015-12-27T01:37:30.939Z</time>
</trkpt>
<trkpt lat="-26.8098809" lon="152.7794105">
<ele>536.539</ele>
<time>2015-12-27T01:37:33.027Z</time>
</trkpt>
<trkpt lat="-26.8097944" lon="152.7799994">
<ele>539.082</ele>
<time>2015-12-27T01:37:35.971Z</time>
</trkpt>
<trkpt lat="-26.8098582" lon="152.7803823">
<ele>542.579</ele>
<time>2015-12-27T01:37:37.786Z</time>
</trkpt>
<trkpt lat="-26.8100531" lon="152.7809801">
<ele>545.993</ele>
<time>2015-12-27T01:37:40.584Z</time>
</trkpt>
<trkpt lat="-26.8102006" lon="152.7814115">
<ele>549.100</ele>
<time>2015-12-27T01:37:42.630Z</time>
</trkpt>
<trkpt lat="-26.8104364" lon="152.7820306">
<ele>552.378</ele>
<time>2015-12-27T01:37:45.762Z</time>
</trkpt>
<trkpt lat="-26.8106575" lon="152.7825933">
<ele>555.057</ele>
<time>2015-12-27T01:37:48.777Z</time>
</trkpt>
<trkpt lat="-26.8110129" lon="152.7830475">
<ele>555.605</ele>
<time>2015-12-27T01:37:51.832Z</time>
</trkpt>
<trkpt lat="-26.8112740" lon="152.7833233">
<ele>553.471</ele>
<time>2015-12-27T01:37:53.862Z</time>
</trkpt>
<trkpt lat="-26.8114836" lon="152.7836346">
<ele>549.607</ele>
<time>2015-12-27T01:37:55.796Z</time>
</trkpt>
<trkpt lat="-26.8116766" lon="152.7841924">
<ele>545.760</ele>
<time>2015-12-27T01:37:58.659Z</time>
</trkpt>
<trkpt lat="-26.8116583" lon="152.7848290">
<ele>542.617</ele>
<time>2015-12-27T01:38:01.566Z</time>
</trkpt>
<trkpt lat="-26.8114222" lon="152.7854536">
<ele>540.152</ele>
<time>2015-12-27T01:38:04.552Z</time>
</trkpt>
<trkpt lat="-26.8112662" lon="152.7858609">
<ele>538.543</ele>
<time>2015-12-27T01:38:06.480Z</time>
</trkpt>
<trkpt lat="-26.8110061" lon="152.7864844">
<ele>537.502</ele>
<time>2015-12-27T01:38:09.456Z</time>
</trkpt>
<trkpt lat="-26.8108082" lon="152.7868932">
<ele>535.786</ele>
<time>2015-12-27T01:38:11.487Z</time>
</trkpt>
<trkpt lat="-26.8105704" lon="152.7872687">
<ele>532.573</ele>
<time>2015-12-27T01:38:13.526Z</time>
</trkpt>
<trkpt lat="-26.8103034" lon="152.7876065">
<ele>528.676</ele>
<time>2015-12-27T01:38:15.552Z</time>
</trkpt>
<trkpt lat="-26.8100607" lon="152.7879316">
<ele>525.595</ele>
<time>2015-12-27T01:38:17.462Z</time>
</trkpt>
<trkpt lat="-26.8097184" lon="152.7884572">
<ele>524.234</ele>
<time>2015-12-27T01:38:20.416Z</time>
</trkpt>
<trkpt lat="-26.8095223" lon="152.7888457">
<ele>524.461</ele>
<time>2015-12-27T01:38:22.450Z</time>
</trkpt>
<trkpt lat="-26.8092593" lon="152.7894388">
<ele>525.431</ele>
<time>2015-12-27T01:38:25.445Z</time>
</trkpt>
<trkpt lat="-26.8089350" lon="152.7899900">
<ele>526.484</ele>
<time>2015-12-27T01:38:28.328Z</time>
</trkpt>
<trkpt lat="-26.8086745" lon="152.7903544">
<ele>527.305</ele>
<time>2015-12-27T01:38:30.343Z</time>
</trkpt>
<trkpt lat="-26.8083146" lon="152.7909140">
<ele>527.495</ele>
<time>2015-12-27T01:38:33.315Z</time>
</trkpt>
<trkpt lat="-26.8080739" lon="152.7912718">
<ele>526.112</ele>
<time>2015-12-27T01:38:35.247Z</time>
</trkpt>
<trkpt lat="-26.8076282" lon="152.7917253">
<ele>522.911</ele>
<time>2015-12-27T01:38:38.144Z</time>
</trkpt>
<trkpt lat="-26.8072713" lon="152.7920020">
<ele>518.632</ele>
<time>2015-12-27T01:38:40.243Z</time>
</trkpt>
<trkpt lat="-26.8069184" lon="152.7922352">
<ele>513.850</ele>
<time>2015-12-27T01:38:42.259Z</time>
</trkpt>
<trkpt lat="-26.8065454" lon="152.7923890">
<ele>508.896</ele>
<time>2015-12-27T01:38:44.264Z</time>
</trkpt>
<trkpt lat="-26.8061692" lon="152.7924880">
<ele>504.592</ele>
<time>2015-12-27T01:38:46.244Z</time>
</trkpt>
<trkpt lat="-26.8055871" lon="152.7925572">
<ele>501.810</ele>
<time>2015-12-27T01:38:49.458Z</time>
</trkpt>
<trkpt lat="-26.8052424" lon="152.7926184">
<ele>501.312</ele>
<time>2015-12-27T01:38:51.463Z</time>
</trkpt>
<trkpt lat="-26.8048893" lon="152.7927138">
<ele>502.709</ele>
<time>2015-12-27T01:38:53.551Z</time>
</trkpt>
<trkpt lat="-26.8044172" lon="152.7929698">
<ele>504.453</ele>
<time>2015-12-27T01:38:56.486Z</time>
</trkpt>
<trkpt lat="-26.8041432" lon="152.7932704">
<ele>505.650</ele>
<time>2015-12-27T01:38:58.561Z</time>
</trkpt>
<trkpt lat="-26.8039192" lon="152.7935926">
<ele>507.052</ele>
<time>2015-12-27T01:39:00.516Z</time>
</trkpt>
<trkpt lat="-26.8036566" lon="152.7941451">
<ele>509.385</ele>
<time>2015-12-27T01:39:03.494Z</time>
</trkpt>
<trkpt lat="-26.8034585" lon="152.7944696">
<ele>512.007</ele>
<time>2015-12-27T01:39:05.369Z</time>
</trkpt>
<trkpt lat="-26.8030245" lon="152.7949273">
<ele>513.273</ele>
<time>2015-12-27T01:39:08.617Z</time>
</trkpt>
<trkpt lat="-26.8027105" lon="152.7951291">
<ele>511.805</ele>
<time>2015-12-27T01:39:10.583Z</time>
</trkpt>
<trkpt lat="-26.8023689" lon="152.7951963">
<ele>507.969</ele>
<time>2015-12-27T01:39:12.439Z</time>
</trkpt>
<trkpt lat="-26.8018033" lon="152.7953149">
<ele>504.008</ele>
<time>2015-12-27T01:39:15.403Z</time>
</trkpt>
<trkpt lat="-26.8012430" lon="152.7955506">
<ele>501.884</ele>
<time>2015-12-27T01:39:18.457Z</time>
</trkpt>
<trkpt lat="-26.8008940" lon="152.7957402">
<ele>501.654</ele>
<time>2015-12-27T01:39:20.447Z</time>
</trkpt>
<trkpt lat="-26.8003334" lon="152.7960124">
<ele>502.281</ele>
<time>2015-12-27T01:39:23.621Z</time>
</trkpt>
<trkpt lat="-26.7997691" lon="152.7961463">
<ele>503.018</ele>
<time>2015-12-27T01:39:26.668Z</time>
</trkpt>
<trkpt lat="-26.7992196" lon="152.7961671">
<ele>503.666</ele>
<time>2015-12-27T01:39:29.554Z</time>
</trkpt>
<trkpt lat="-26.7986707" lon="152.7960010">
<ele>504.893</ele>
<time>2015-12-27T01:39:32.373Z</time>
</trkpt>
<trkpt lat="-26.7983096" lon="152.7958019">
<ele>507.545</ele>
<time>2015-12-27T01:39:34.309Z</time>
</trkpt>
<trkpt lat="-26.7977891" lon="152.7954022">
<ele>510.769</ele>
<time>2015-12-27T01:39:37.324Z</time>
</trkpt>
<trkpt lat="-26.7974838" lon="152.7950883">
<ele>512.338</ele>
<time>2015-12-27T01:39:39.377Z</time>
</trkpt>
<trkpt lat="-26.7972038" lon="152.7947757">
<ele>511.397</ele>
<time>2015-12-27T01:39:41.401Z</time>
</trkpt>
<trkpt lat="-26.7969341" lon="152.7944565">
<ele>508.961</ele>
<time>2015-12-27T01:39:43.454Z</time>
</trkpt>
<trkpt lat="-26.7966305" lon="152.7941711">
<ele>506.580</ele>
<time>2015-12-27T01:39:45.589Z</time>
</trkpt>
<trkpt lat="-26.7962229" lon="152.7937538">
<ele>505.238</ele>
<time>2015-12-27T01:39:48.769Z</time>
</trkpt>
<trkpt lat="-26.7959275" lon="152.7935635">
<ele>505.027</ele>
<time>2015-12-27T01:39:50.773Z</time>
</trkpt>
<trkpt lat="-26.7954699" lon="152.7933821">
<ele>505.314</ele>
<time>2015-12-27T01:39:53.647Z</time>
</trkpt>
<trkpt lat="-26.7951214" lon="152.7934008">
<ele>505.744</ele>
<time>2015-12-27T01:39:55.665Z</time>
</trkpt>
<trkpt lat="-26.7947998" lon="152.7935457">
<ele>506.271</ele>
<time>2015-12-27T01:39:57.608Z</time>
</trkpt>
<trkpt lat="-26.7944025" lon="152.7939464">
<ele>506.575</ele>
<time>2015-12-27T01:40:00.364Z</time>
</trkpt>
<trkpt lat="-26.7941536" lon="152.7942759">
<ele>506.424</ele>
<time>2015-12-27T01:40:02.283Z</time>
</trkpt>
<trkpt lat="-26.7937850" lon="152.7948184">
<ele>505.969</ele>
<time>2015-12-27T01:40:05.258Z</time>
</trkpt>
<trkpt lat="-26.7934027" lon="152.7953610">
<ele>505.164</ele>
<time>2015-12-27T01:40:08.302Z</time>
</trkpt>
<trkpt lat="-26.7931435" lon="152.7957100">
<ele>503.565</ele>
<time>2015-12-27T01:40:10.295Z</time>
</trkpt>
<trkpt lat="-26.7928519" lon="152.7960312">
<ele>500.962</ele>
<time>2015-12-27T01:40:12.306Z</time>
</trkpt>
<trkpt lat="-26.7923543" lon="152.7964207">
<ele>497.882</ele>
<time>2015-12-27T01:40:15.353Z</time>
</trkpt>
<trkpt lat="-26.7918211" lon="152.7966488">
<ele>494.738</ele>
<time>2015-12-27T01:40:18.355Z</time>
</trkpt>
<trkpt lat="-26.7914754" lon="152.7968223">
<ele>491.438</ele>
<time>2015-12-27T01:40:20.383Z</time>
</trkpt>
<trkpt lat="-26.7910362" lon="152.7971812">
<ele>488.480</ele>
<time>2015-12-27T01:40:23.331Z</time>
</trkpt>
<trkpt lat="-26.7906567" lon="152.7976618">
<ele>486.727</ele>
<time>2015-12-27T01:40:26.439Z</time>
</trkpt>
<trkpt lat="-26.7904073" lon="152.7979708">
<ele>486.739</ele>
<time>2015-12-27T01:40:28.528Z</time>
</trkpt>
<trkpt lat="-26.7901879" lon="152.7983064">
<ele>488.711</ele>
<time>2015-12-27T01:40:30.770Z</time>
</trkpt>
<trkpt lat="-26.7899792" lon="152.7985780">
<ele>491.995</ele>
<time>2015-12-27T01:40:32.791Z</time>
</trkpt>
<trkpt lat="-26.7897658" lon="152.7988013">
<ele>495.581</ele>
<time>2015-12-27T01:40:34.597Z</time>
</trkpt>
<trkpt lat="-26.7894794" lon="152.7989763">
<ele>499.093</ele>
<time>2015-12-27T01:40:36.550Z</time>
</trkpt>
<trkpt lat="-26.7891497" lon="152.7991249">
<ele>502.728</ele>
<time>2015-12-27T01:40:38.703Z</time>
</trkpt>
<trkpt lat="-26.7887207" lon="152.7993844">
<ele>506.720</ele>
<time>2015-12-27T01:40:41.823Z</time>
</trkpt>
<trkpt lat="-26.7884467" lon="152.7997042">
<ele>511.110</ele>
<time>2015-12-27T01:40:44.438Z</time>
</trkpt>
<trkpt lat="-26.7882076" lon="152.7999281">
<ele>515.917</ele>
<time>2015-12-27T01:40:46.468Z</time>
</trkpt>
<trkpt lat="-26.7879301" lon="152.8001345">
<ele>520.697</ele>
<time>2015-12-27T01:40:48.609Z</time>
</trkpt>
<trkpt lat="-26.7875494" lon="152.8004235">
<ele>524.265</ele>
<time>2015-12-27T01:40:51.397Z</time>
</trkpt>
<trkpt lat="-26.7872489" lon="152.8006484">
<ele>525.994</ele>
<time>2015-12-27T01:40:53.479Z</time>
</trkpt>
<trkpt lat="-26.7869578" lon="152.8008956">
<ele>526.337</ele>
<time>2015-12-27T01:40:55.559Z</time>
</trkpt>
<trkpt lat="-26.7865104" lon="152.8011907">
<ele>525.913</ele>
<time>2015-12-27T01:40:58.461Z</time>
</trkpt>
<trkpt lat="-26.7862173" lon="152.8013605">
<ele>524.379</ele>
<time>2015-12-27T01:41:00.346Z</time>
</trkpt>
<trkpt lat="-26.7858988" lon="152.8015513">
<ele>521.185</ele>
<time>2015-12-27T01:41:02.445Z</time>
</trkpt>
<trkpt lat="-26.7854906" lon="152.8018522">
<ele>516.841</ele>
<time>2015-12-27T01:41:05.262Z</time>
</trkpt>
<trkpt lat="-26.7852008" lon="152.8021205">
<ele>512.029</ele>
<time>2015-12-27T01:41:07.319Z</time>
</trkpt>
<trkpt lat="-26.7849382" lon="152.8024257">
<ele>507.023</ele>
<time>2015-12-27T01:41:09.372Z</time>
</trkpt>
<trkpt lat="-26.7845593" lon="152.8028834">
<ele>502.352</ele>
<time>2015-12-27T01:41:12.483Z</time>
</trkpt>
<trkpt lat="-26.7843251" lon="152.8031453">
<ele>497.963</ele>
<time>2015-12-27T01:41:14.329Z</time>
</trkpt>
<trkpt lat="-26.7840401" lon="152.8033458">
<ele>493.456</ele>
<time>2015-12-27T01:41:16.188Z</time>
</trkpt>
<trkpt lat="-26.7835221" lon="152.8035566">
<ele>489.244</ele>
<time>2015-12-27T01:41:19.081Z</time>
</trkpt>
<trkpt lat="-26.7831763" lon="152.8037316">
<ele>486.247</ele>
<time>2015-12-27T01:41:21.014Z</time>
</trkpt>
<trkpt lat="-26.7828134" lon="152.8039045">
<ele>485.310</ele>
<time>2015-12-27T01:41:23.007Z</time>
</trkpt>
<trkpt lat="-26.7822710" lon="152.8041724">
<ele>486.736</ele>
<time>2015-12-27T01:41:25.996Z</time>
</trkpt>
<trkpt lat="-26.7819083" lon="152.8043660">
<ele>490.217</ele>
<time>2015-12-27T01:41:28.035Z</time>
</trkpt>
<trkpt lat="-26.7813634" lon="152.8046233">
<ele>494.538</ele>
<time>2015-12-27T01:41:31.119Z</time>
</trkpt>
<trkpt lat="-26.7810092" lon="152.8047974">
<ele>497.777</ele>
<time>2015-12-27T01:41:33.234Z</time>
</trkpt>
<trkpt lat="-26.7806822" lon="152.8049670">
<ele>498.990</ele>
<time>2015-12-27T01:41:35.242Z</time>
</trkpt>
<trkpt lat="-26.7802130" lon="152.8052319">
<ele>498.546</ele>
<time>2015-12-27T01:41:38.138Z</time>
</trkpt>
<trkpt lat="-26.7799285" lon="152.8054672">
<ele>496.798</ele>
<time>2015-12-27T01:41:40.039Z</time>
</trkpt>
<trkpt lat="-26.7795564" lon="152.8059587">
<ele>494.179</ele>
<time>2015-12-27T01:41:42.964Z</time>
</trkpt>
<trkpt lat="-26.7793546" lon="152.8063507">
<ele>491.426</ele>
<time>2015-12-27T01:41:44.982Z</time>
</trkpt>
<trkpt lat="-26.7790994" lon="152.8069486">
<ele>488.904</ele>
<time>2015-12-27T01:41:47.889Z</time>
</trkpt>
<trkpt lat="-26.7789275" lon="152.8073514">
<ele>485.915</ele>
<time>2015-12-27T01:41:49.842Z</time>
</trkpt>
<trkpt lat="-26.7786427" lon="152.8079603">
<ele>482.044</ele>
<time>2015-12-27T01:41:52.936Z</time>
</trkpt>
<trkpt lat="-26.7784009" lon="152.8085285">
<ele>478.514</ele>
<time>2015-12-27T01:41:55.940Z</time>
</trkpt>
<trkpt lat="-26.7782423" lon="152.8089027">
<ele>476.878</ele>
<time>2015-12-27T01:41:58.019Z</time>
</trkpt>
<trkpt lat="-26.7781018" lon="152.8092488">
<ele>477.642</ele>
<time>2015-12-27T01:41:59.968Z</time>
</trkpt>
<trkpt lat="-26.7779783" lon="152.8097828">
<ele>479.910</ele>
<time>2015-12-27T01:42:02.728Z</time>
</trkpt>
<trkpt lat="-26.7779738" lon="152.8102003">
<ele>482.125</ele>
<time>2015-12-27T01:42:04.735Z</time>
</trkpt>
<trkpt lat="-26.7779945" lon="152.8106132">
<ele>483.600</ele>
<time>2015-12-27T01:42:06.691Z</time>
</trkpt>
<trkpt lat="-26.7780228" lon="152.8110392">
<ele>484.441</ele>
<time>2015-12-27T01:42:08.708Z</time>
</trkpt>
<trkpt lat="-26.7780830" lon="152.8116763">
<ele>484.555</ele>
<time>2015-12-27T01:42:11.806Z</time>
</trkpt>
<trkpt lat="-26.7781080" lon="152.8120767">
<ele>483.462</ele>
<time>2015-12-27T01:42:13.791Z</time>
</trkpt>
<trkpt lat="-26.7781756" lon="152.8124740">
<ele>480.939</ele>
<time>2015-12-27T01:42:15.791Z</time>
</trkpt>
<trkpt lat="-26.7783598" lon="152.8130418">
<ele>477.642</ele>
<time>2015-12-27T01:42:18.605Z</time>
</trkpt>
<trkpt lat="-26.7786010" lon="152.8136737">
<ele>474.624</ele>
<time>2015-12-27T01:42:21.661Z</time>
</trkpt>
<trkpt lat="-26.7787579" lon="152.8140933">
<ele>471.995</ele>
<time>2015-12-27T01:42:23.701Z</time>
</trkpt>
<trkpt lat="-26.7789033" lon="152.8145061">
<ele>468.988</ele>
<time>2015-12-27T01:42:25.742Z</time>
</trkpt>
<trkpt lat="-26.7790479" lon="152.8148771">
<ele>465.391</ele>
<time>2015-12-27T01:42:27.637Z</time>
</trkpt>
<trkpt lat="-26.7792722" lon="152.8154274">
<ele>462.041</ele>
<time>2015-12-27T01:42:30.536Z</time>
</trkpt>
<trkpt lat="-26.7794156" lon="152.8158127">
<ele>459.800</ele>
<time>2015-12-27T01:42:32.576Z</time>
</trkpt>
<trkpt lat="-26.7795548" lon="152.8163963">
<ele>459.130</ele>
<time>2015-12-27T01:42:35.527Z</time>
</trkpt>
<trkpt lat="-26.7795928" lon="152.8168316">
<ele>460.181</ele>
<time>2015-12-27T01:42:37.617Z</time>
</trkpt>
<trkpt lat="-26.7794958" lon="152.8174675">
<ele>462.569</ele>
<time>2015-12-27T01:42:40.619Z</time>
</trkpt>
<trkpt lat="-26.7793902" lon="152.8178817">
<ele>465.460</ele>
<time>2015-12-27T01:42:42.626Z</time>
</trkpt>
<trkpt lat="-26.7793152" lon="152.8182926">
<ele>468.050</ele>
<time>2015-12-27T01:42:44.617Z</time>
</trkpt>
<trkpt lat="-26.7792573" lon="152.8187072">
<ele>469.764</ele>
<time>2015-12-27T01:42:46.640Z</time>
</trkpt>
<trkpt lat="-26.7792372" lon="152.8193082">
<ele>470.470</ele>
<time>2015-12-27T01:42:49.537Z</time>
</trkpt>
<trkpt lat="-26.7792981" lon="152.8197277">
<ele>470.612</ele>
<time>2015-12-27T01:42:51.586Z</time>
</trkpt>
<trkpt lat="-26.7795405" lon="152.8202896">
<ele>470.620</ele>
<time>2015-12-27T01:42:54.548Z</time>
</trkpt>
<trkpt lat="-26.7797836" lon="152.8206218">
<ele>470.729</ele>
<time>2015-12-27T01:42:56.526Z</time>
</trkpt>
<trkpt lat="-26.7800903" lon="152.8209240">
<ele>471.259</ele>
<time>2015-12-27T01:42:58.624Z</time>
</trkpt>
<trkpt lat="-26.7805725" lon="152.8212955">
<ele>472.248</ele>
<time>2015-12-27T01:43:01.759Z</time>
</trkpt>
<trkpt lat="-26.7810124" lon="152.8216220">
<ele>473.138</ele>
<time>2015-12-27T01:43:04.701Z</time>
</trkpt>
<trkpt lat="-26.7813860" lon="152.8220455">
<ele>473.285</ele>
<time>2015-12-27T01:43:07.673Z</time>
</trkpt>
<trkpt lat="-26.7815532" lon="152.8224012">
<ele>472.682</ele>
<time>2015-12-27T01:43:09.679Z</time>
</trkpt>
<trkpt lat="-26.7816762" lon="152.8229949">
<ele>471.976</ele>
<time>2015-12-27T01:43:12.750Z</time>
</trkpt>
<trkpt lat="-26.7816522" lon="152.8234133">
<ele>471.733</ele>
<time>2015-12-27T01:43:14.996Z</time>
</trkpt>
<trkpt lat="-26.7815511" lon="152.8237696">
<ele>471.874</ele>
<time>2015-12-27T01:43:17.081Z</time>
</trkpt>
<trkpt lat="-26.7813432" lon="152.8242309">
<ele>471.843</ele>
<time>2015-12-27T01:43:20.015Z</time>
</trkpt>
<trkpt lat="-26.7811256" lon="152.8246934">
<ele>471.310</ele>
<time>2015-12-27T01:43:23.038Z</time>
</trkpt>
<trkpt lat="-26.7808693" lon="152.8251128">
<ele>470.603</ele>
<time>2015-12-27T01:43:26.254Z</time>
</trkpt>
<trkpt lat="-26.7806605" lon="152.8254724">
<ele>469.771</ele>
<time>2015-12-27T01:43:29.053Z</time>
</trkpt>
<trkpt lat="-26.7805346" lon="152.8257413">
<ele>468.387</ele>
<time>2015-12-27T01:43:30.895Z</time>
</trkpt>
<trkpt lat="-26.7803670" lon="152.8260140">
<ele>466.729</ele>
<time>2015-12-27T01:43:32.814Z</time>
</trkpt>
<trkpt lat="-26.7800978" lon="152.8264816">
<ele>465.574</ele>
<time>2015-12-27T01:43:35.872Z</time>
</trkpt>
<trkpt lat="-26.7799287" lon="152.8267987">
<ele>465.164</ele>
<time>2015-12-27T01:43:37.902Z</time>
</trkpt>
<trkpt lat="-26.7797560" lon="152.8271142">
<ele>465.192</ele>
<time>2015-12-27T01:43:39.940Z</time>
</trkpt>
<trkpt lat="-26.7794958" lon="152.8275679">
<ele>465.181</ele>
<time>2015-12-27T01:43:42.842Z</time>
</trkpt>
<trkpt lat="-26.7792503" lon="152.8280620">
<ele>464.876</ele>
<time>2015-12-27T01:43:45.794Z</time>
</trkpt>
<trkpt lat="-26.7791140" lon="152.8284133">
<ele>464.491</ele>
<time>2015-12-27T01:43:47.764Z</time>
</trkpt>
<trkpt lat="-26.7790057" lon="152.8287822">
<ele>464.305</ele>
<time>2015-12-27T01:43:49.755Z</time>
</trkpt>
<trkpt lat="-26.7788558" lon="152.8293270">
<ele>464.461</ele>
<time>2015-12-27T01:43:52.744Z</time>
</trkpt>
<trkpt lat="-26.7787764" lon="152.8297020">
<ele>465.075</ele>
<time>2015-12-27T01:43:54.832Z</time>
</trkpt>
<trkpt lat="-26.7786954" lon="152.8302325">
<ele>466.046</ele>
<time>2015-12-27T01:43:57.916Z</time>
</trkpt>
<trkpt lat="-26.7786748" lon="152.8307309">
<ele>467.194</ele>
<time>2015-12-27T01:44:00.785Z</time>
</trkpt>
<trkpt lat="-26.7787511" lon="152.8310853">
<ele>468.668</ele>
<time>2015-12-27T01:44:02.838Z</time>
</trkpt>
<trkpt lat="-26.7788848" lon="152.8316025">
<ele>470.817</ele>
<time>2015-12-27T01:44:05.967Z</time>
</trkpt>
<trkpt lat="-26.7789743" lon="152.8319223">
<ele>473.701</ele>
<time>2015-12-27T01:44:07.980Z</time>
</trkpt>
<trkpt lat="-26.7790752" lon="152.8322454">
<ele>476.558</ele>
<time>2015-12-27T01:44:10.038Z</time>
</trkpt>
<trkpt lat="-26.7791935" lon="152.8327230">
<ele>478.246</ele>
<time>2015-12-27T01:44:12.947Z</time>
</trkpt>
<trkpt lat="-26.7792994" lon="152.8332059">
<ele>478.516</ele>
<time>2015-12-27T01:44:15.730Z</time>
</trkpt>
<trkpt lat="-26.7793409" lon="152.8335512">
<ele>477.673</ele>
<time>2015-12-27T01:44:17.624Z</time>
</trkpt>
<trkpt lat="-26.7793787" lon="152.8341020">
<ele>475.799</ele>
<time>2015-12-27T01:44:20.586Z</time>
</trkpt>
<trkpt lat="-26.7792757" lon="152.8346583">
<ele>473.068</ele>
<time>2015-12-27T01:44:23.845Z</time>
</trkpt>
<trkpt lat="-26.7790881" lon="152.8350882">
<ele>469.725</ele>
<time>2015-12-27T01:44:28.578Z</time>
</trkpt>
<trkpt lat="-26.7790122" lon="152.8352543">
<ele>466.104</ele>
<time>2015-12-27T01:44:31.375Z</time>
</trkpt>
<trkpt lat="-26.7789913" lon="152.8353675">
<ele>462.711</ele>
<time>2015-12-27T01:44:32.752Z</time>
</trkpt>
<trkpt lat="-26.7790961" lon="152.8354951">
<ele>460.069</ele>
<time>2015-12-27T01:44:34.590Z</time>
</trkpt>
<trkpt lat="-26.7792442" lon="152.8357540">
<ele>458.871</ele>
<time>2015-12-27T01:44:36.978Z</time>
</trkpt>
<trkpt lat="-26.7793196" lon="152.8360282">
<ele>459.750</ele>
<time>2015-12-27T01:44:38.934Z</time>
</trkpt>
<trkpt lat="-26.7794233" lon="152.8364840">
<ele>462.445</ele>
<time>2015-12-27T01:44:41.653Z</time>
</trkpt>
<trkpt lat="-26.7795271" lon="152.8368338">
<ele>465.482</ele>
<time>2015-12-27T01:44:43.636Z</time>
</trkpt>
<trkpt lat="-26.7797672" lon="152.8373563">
<ele>467.264</ele>
<time>2015-12-27T01:44:46.637Z</time>
</trkpt>
<trkpt lat="-26.7800407" lon="152.8378495">
<ele>467.288</ele>
<time>2015-12-27T01:44:49.572Z</time>
</trkpt>
<trkpt lat="-26.7803111" lon="152.8383575">
<ele>466.190</ele>
<time>2015-12-27T01:44:52.640Z</time>
</trkpt>
<trkpt lat="-26.7804660" lon="152.8386744">
<ele>465.217</ele>
<time>2015-12-27T01:44:54.531Z</time>
</trkpt>
<trkpt lat="-26.7806628" lon="152.8392018">
<ele>465.301</ele>
<time>2015-12-27T01:44:57.449Z</time>
</trkpt>
<trkpt lat="-26.7808268" lon="152.8397757">
<ele>466.644</ele>
<time>2015-12-27T01:45:00.483Z</time>
</trkpt>
<trkpt lat="-26.7809380" lon="152.8403295">
<ele>468.626</ele>
<time>2015-12-27T01:45:03.331Z</time>
</trkpt>
<trkpt lat="-26.7809945" lon="152.8407176">
<ele>470.135</ele>
<time>2015-12-27T01:45:05.292Z</time>
</trkpt>
<trkpt lat="-26.7810514" lon="152.8413352">
<ele>470.740</ele>
<time>2015-12-27T01:45:08.410Z</time>
</trkpt>
<trkpt lat="-26.7810867" lon="152.8417135">
<ele>470.999</ele>
<time>2015-12-27T01:45:10.391Z</time>
</trkpt>
<trkpt lat="-26.7811153" lon="152.8420726">
<ele>471.688</ele>
<time>2015-12-27T01:45:12.305Z</time>
</trkpt>
<trkpt lat="-26.7811598" lon="152.8426445">
<ele>472.892</ele>
<time>2015-12-27T01:45:15.416Z</time>
</trkpt>
<trkpt lat="-26.7811953" lon="152.8430081">
<ele>473.756</ele>
<time>2015-12-27T01:45:17.528Z</time>
</trkpt>
<trkpt lat="-26.7812130" lon="152.8433390">
<ele>473.262</ele>
<time>2015-12-27T01:45:19.481Z</time>
</trkpt>
<trkpt lat="-26.7812500" lon="152.8438406">
<ele>470.670</ele>
<time>2015-12-27T01:45:22.326Z</time>
</trkpt>
<trkpt lat="-26.7812937" lon="152.8443914">
<ele>466.593</ele>
<time>2015-12-27T01:45:25.306Z</time>
</trkpt>
<trkpt lat="-26.7813726" lon="152.8449512">
<ele>462.965</ele>
<time>2015-12-27T01:45:28.333Z</time>
</trkpt>
<trkpt lat="-26.7814681" lon="152.8452982">
<ele>460.418</ele>
<time>2015-12-27T01:45:30.315Z</time>
</trkpt>
<trkpt lat="-26.7816156" lon="152.8458249">
<ele>458.082</ele>
<time>2015-12-27T01:45:33.370Z</time>
</trkpt>
<trkpt lat="-26.7817871" lon="152.8463567">
<ele>455.629</ele>
<time>2015-12-27T01:45:36.475Z</time>
</trkpt>
<trkpt lat="-26.7818925" lon="152.8467108">
<ele>452.936</ele>
<time>2015-12-27T01:45:38.455Z</time>
</trkpt>
<trkpt lat="-26.7820706" lon="152.8472616">
<ele>449.946</ele>
<time>2015-12-27T01:45:41.514Z</time>
</trkpt>
<trkpt lat="-26.7821725" lon="152.8478170">
<ele>446.724</ele>
<time>2015-12-27T01:45:44.442Z</time>
</trkpt>
<trkpt lat="-26.7822299" lon="152.8481887">
<ele>443.203</ele>
<time>2015-12-27T01:45:46.351Z</time>
</trkpt>
<trkpt lat="-26.7823296" lon="152.8487848">
<ele>439.855</ele>
<time>2015-12-27T01:45:49.443Z</time>
</trkpt>
<trkpt lat="-26.7823909" lon="152.8491516">
<ele>437.644</ele>
<time>2015-12-27T01:45:51.430Z</time>
</trkpt>
<trkpt lat="-26.7823994" lon="152.8495343">
<ele>436.989</ele>
<time>2015-12-27T01:45:53.615Z</time>
</trkpt>
<trkpt lat="-26.7824858" lon="152.8500220">
<ele>437.958</ele>
<time>2015-12-27T01:45:56.687Z</time>
</trkpt>
<trkpt lat="-26.7824530" lon="152.8503399">
<ele>440.147</ele>
<time>2015-12-27T01:45:58.573Z</time>
</trkpt>
<trkpt lat="-26.7823649" lon="152.8506755">
<ele>442.766</ele>
<time>2015-12-27T01:46:00.502Z</time>
</trkpt>
<trkpt lat="-26.7822220" lon="152.8512046">
<ele>445.448</ele>
<time>2015-12-27T01:46:03.420Z</time>
</trkpt>
<trkpt lat="-26.7821183" lon="152.8515724">
<ele>448.001</ele>
<time>2015-12-27T01:46:05.423Z</time>
</trkpt>
<trkpt lat="-26.7820142" lon="152.8519420">
<ele>449.810</ele>
<time>2015-12-27T01:46:07.433Z</time>
</trkpt>
<trkpt lat="-26.7818456" lon="152.8524910">
<ele>450.398</ele>
<time>2015-12-27T01:46:10.446Z</time>
</trkpt>
<trkpt lat="-26.7817052" lon="152.8528396">
<ele>449.843</ele>
<time>2015-12-27T01:46:12.422Z</time>
</trkpt>
<trkpt lat="-26.7814543" lon="152.8533451">
<ele>448.753</ele>
<time>2015-12-27T01:46:15.392Z</time>
</trkpt>
<trkpt lat="-26.7812592" lon="152.8536743">
<ele>447.903</ele>
<time>2015-12-27T01:46:17.384Z</time>
</trkpt>
<trkpt lat="-26.7810774" lon="152.8540140">
<ele>447.553</ele>
<time>2015-12-27T01:46:19.381Z</time>
</trkpt>
<trkpt lat="-26.7807799" lon="152.8544855">
<ele>447.247</ele>
<time>2015-12-27T01:46:22.475Z</time>
</trkpt>
<trkpt lat="-26.7805817" lon="152.8547500">
<ele>446.353</ele>
<time>2015-12-27T01:46:24.540Z</time>
</trkpt>
<trkpt lat="-26.7803126" lon="152.8551014">
<ele>444.939</ele>
<time>2015-12-27T01:46:27.951Z</time>
</trkpt>
<trkpt lat="-26.7801694" lon="152.8553406">
<ele>443.043</ele>
<time>2015-12-27T01:46:30.385Z</time>
</trkpt>
<trkpt lat="-26.7800707" lon="152.8555455">
<ele>440.644</ele>
<time>2015-12-27T01:46:32.081Z</time>
</trkpt>
<trkpt lat="-26.7798982" lon="152.8559459">
<ele>438.644</ele>
<time>2015-12-27T01:46:34.908Z</time>
</trkpt>
<trkpt lat="-26.7797591" lon="152.8564489">
<ele>438.212</ele>
<time>2015-12-27T01:46:37.821Z</time>
</trkpt>
<trkpt lat="-26.7796212" lon="152.8570229">
<ele>439.203</ele>
<time>2015-12-27T01:46:40.882Z</time>
</trkpt>
<trkpt lat="-26.7795118" lon="152.8574031">
<ele>440.264</ele>
<time>2015-12-27T01:46:42.906Z</time>
</trkpt>
<trkpt lat="-26.7794141" lon="152.8577885">
<ele>440.121</ele>
<time>2015-12-27T01:46:44.957Z</time>
</trkpt>
<trkpt lat="-26.7792608" lon="152.8583315">
<ele>438.601</ele>
<time>2015-12-27T01:46:47.899Z</time>
</trkpt>
<trkpt lat="-26.7791696" lon="152.8586763">
<ele>436.032</ele>
<time>2015-12-27T01:46:49.750Z</time>
</trkpt>
<trkpt lat="-26.7790567" lon="152.8590684">
<ele>432.731</ele>
<time>2015-12-27T01:46:51.871Z</time>
</trkpt>
<trkpt lat="-26.7789467" lon="152.8594207">
<ele>429.090</ele>
<time>2015-12-27T01:46:53.852Z</time>
</trkpt>
<trkpt lat="-26.7787613" lon="152.8599465">
<ele>425.630</ele>
<time>2015-12-27T01:46:56.918Z</time>
</trkpt>
<trkpt lat="-26.7786521" lon="152.8602793">
<ele>422.996</ele>
<time>2015-12-27T01:46:58.888Z</time>
</trkpt>
<trkpt lat="-26.7785779" lon="152.8606276">
<ele>421.991</ele>
<time>2015-12-27T01:47:00.857Z</time>
</trkpt>
<trkpt lat="-26.7785556" lon="152.8609981">
<ele>422.828</ele>
<time>2015-12-27T01:47:02.838Z</time>
</trkpt>
<trkpt lat="-26.7785535" lon="152.8615914">
<ele>424.877</ele>
<time>2015-12-27T01:47:05.925Z</time>
</trkpt>
<trkpt lat="-26.7785807" lon="152.8619938">
<ele>427.903</ele>
<time>2015-12-27T01:47:07.971Z</time>
</trkpt>
<trkpt lat="-26.7786452" lon="152.8625925">
<ele>431.508</ele>
<time>2015-12-27T01:47:11.040Z</time>
</trkpt>
<trkpt lat="-26.7786766" lon="152.8629741">
<ele>434.843</ele>
<time>2015-12-27T01:47:12.997Z</time>
</trkpt>
<trkpt lat="-26.7787233" lon="152.8635372">
<ele>437.434</ele>
<time>2015-12-27T01:47:15.884Z</time>
</trkpt>
<trkpt lat="-26.7788407" lon="152.8640710">
<ele>438.875</ele>
<time>2015-12-27T01:47:18.652Z</time>
</trkpt>
<trkpt lat="-26.7790468" lon="152.8646329">
<ele>438.560</ele>
<time>2015-12-27T01:47:21.629Z</time>
</trkpt>
<trkpt lat="-26.7793354" lon="152.8651750">
<ele>436.932</ele>
<time>2015-12-27T01:47:24.635Z</time>
</trkpt>
<trkpt lat="-26.7795389" lon="152.8655419">
<ele>435.448</ele>
<time>2015-12-27T01:47:26.661Z</time>
</trkpt>
<trkpt lat="-26.7797319" lon="152.8658960">
<ele>435.033</ele>
<time>2015-12-27T01:47:28.646Z</time>
</trkpt>
<trkpt lat="-26.7799223" lon="152.8662444">
<ele>435.228</ele>
<time>2015-12-27T01:47:30.662Z</time>
</trkpt>
<trkpt lat="-26.7801198" lon="152.8665776">
<ele>435.057</ele>
<time>2015-12-27T01:47:32.704Z</time>
</trkpt>
<trkpt lat="-26.7803300" lon="152.8668791">
<ele>433.910</ele>
<time>2015-12-27T01:47:34.660Z</time>
</trkpt>
<trkpt lat="-26.7807689" lon="152.8672132">
<ele>432.234</ele>
<time>2015-12-27T01:47:37.663Z</time>
</trkpt>
<trkpt lat="-26.7811979" lon="152.8675545">
<ele>430.818</ele>
<time>2015-12-27T01:47:40.720Z</time>
</trkpt>
<trkpt lat="-26.7813893" lon="152.8678456">
<ele>429.808</ele>
<time>2015-12-27T01:47:42.781Z</time>
</trkpt>
<trkpt lat="-26.7814790" lon="152.8681756">
<ele>429.146</ele>
<time>2015-12-27T01:47:44.772Z</time>
</trkpt>
<trkpt lat="-26.7815245" lon="152.8685481">
<ele>429.043</ele>
<time>2015-12-27T01:47:46.826Z</time>
</trkpt>
<trkpt lat="-26.7814735" lon="152.8689201">
<ele>429.993</ele>
<time>2015-12-27T01:47:48.783Z</time>
</trkpt>
<trkpt lat="-26.7814180" lon="152.8695179">
<ele>432.347</ele>
<time>2015-12-27T01:47:51.914Z</time>
</trkpt>
<trkpt lat="-26.7813646" lon="152.8700691">
<ele>435.488</ele>
<time>2015-12-27T01:47:54.849Z</time>
</trkpt>
<trkpt lat="-26.7813351" lon="152.8704319">
<ele>438.126</ele>
<time>2015-12-27T01:47:56.786Z</time>
</trkpt>
<trkpt lat="-26.7813085" lon="152.8708014">
<ele>439.685</ele>
<time>2015-12-27T01:47:58.775Z</time>
</trkpt>
<trkpt lat="-26.7812725" lon="152.8713501">
<ele>440.635</ele>
<time>2015-12-27T01:48:01.719Z</time>
</trkpt>
<trkpt lat="-26.7812272" lon="152.8719171">
<ele>441.400</ele>
<time>2015-12-27T01:48:04.751Z</time>
</trkpt>
<trkpt lat="-26.7811999" lon="152.8722824">
<ele>441.791</ele>
<time>2015-12-27T01:48:06.770Z</time>
</trkpt>
<trkpt lat="-26.7811774" lon="152.8726405">
<ele>441.566</ele>
<time>2015-12-27T01:48:08.799Z</time>
</trkpt>
<trkpt lat="-26.7811491" lon="152.8731628">
<ele>440.947</ele>
<time>2015-12-27T01:48:11.797Z</time>
</trkpt>
<trkpt lat="-26.7811510" lon="152.8736528">
<ele>440.455</ele>
<time>2015-12-27T01:48:14.631Z</time>
</trkpt>
<trkpt lat="-26.7811540" lon="152.8741798">
<ele>440.816</ele>
<time>2015-12-27T01:48:17.672Z</time>
</trkpt>
<trkpt lat="-26.7811367" lon="152.8745421">
<ele>442.173</ele>
<time>2015-12-27T01:48:19.765Z</time>
</trkpt>
<trkpt lat="-26.7811262" lon="152.8748943">
<ele>443.611</ele>
<time>2015-12-27T01:48:21.862Z</time>
</trkpt>
<trkpt lat="-26.7811040" lon="152.8753604">
<ele>444.096</ele>
<time>2015-12-27T01:48:24.715Z</time>
</trkpt>
<trkpt lat="-26.7810715" lon="152.8758480">
<ele>443.304</ele>
<time>2015-12-27T01:48:27.788Z</time>
</trkpt>
<trkpt lat="-26.7810578" lon="152.8761538">
<ele>441.544</ele>
<time>2015-12-27T01:48:29.708Z</time>
</trkpt>
<trkpt lat="-26.7810436" lon="152.8766606">
<ele>439.732</ele>
<time>2015-12-27T01:48:32.839Z</time>
</trkpt>
<trkpt lat="-26.7810489" lon="152.8771271">
<ele>438.735</ele>
<time>2015-12-27T01:48:35.724Z</time>
</trkpt>
<trkpt lat="-26.7810603" lon="152.8774392">
<ele>438.656</ele>
<time>2015-12-27T01:48:37.679Z</time>
</trkpt>
<trkpt lat="-26.7811013" lon="152.8777547">
<ele>438.763</ele>
<time>2015-12-27T01:48:39.691Z</time>
</trkpt>
<trkpt lat="-26.7811292" lon="152.8780530">
<ele>438.492</ele>
<time>2015-12-27T01:48:41.600Z</time>
</trkpt>
<trkpt lat="-26.7812436" lon="152.8785381">
<ele>438.081</ele>
<time>2015-12-27T01:48:44.765Z</time>
</trkpt>
<trkpt lat="-26.7813202" lon="152.8788446">
<ele>437.904</ele>
<time>2015-12-27T01:48:46.742Z</time>
</trkpt>
<trkpt lat="-26.7813709" lon="152.8791492">
<ele>437.922</ele>
<time>2015-12-27T01:48:48.676Z</time>
</trkpt>
<trkpt lat="-26.7814786" lon="152.8796069">
<ele>437.654</ele>
<time>2015-12-27T01:48:51.639Z</time>
</trkpt>
<trkpt lat="-26.7815170" lon="152.8799293">
<ele>436.730</ele>
<time>2015-12-27T01:48:53.756Z</time>
</trkpt>
<trkpt lat="-26.7815654" lon="152.8801935">
<ele>435.358</ele>
<time>2015-12-27T01:48:55.775Z</time>
</trkpt>
<trkpt lat="-26.7816200" lon="152.8803986">
<ele>433.933</ele>
<time>2015-12-27T01:48:58.032Z</time>
</trkpt>
<trkpt lat="-26.7816558" lon="152.8805601">
<ele>432.348</ele>
<time>2015-12-27T01:49:00.618Z</time>
</trkpt>
<trkpt lat="-26.7816879" lon="152.8806887">
<ele>430.405</ele>
<time>2015-12-27T01:49:03.443Z</time>
</trkpt>
<trkpt lat="-26.7817267" lon="152.8808220">
<ele>428.558</ele>
<time>2015-12-27T01:49:06.556Z</time>
</trkpt>
<trkpt lat="-26.7817575" lon="152.8810065">
<ele>427.501</ele>
<time>2015-12-27T01:49:09.106Z</time>
</trkpt>
<trkpt lat="-26.7817390" lon="152.8812950">
<ele>427.347</ele>
<time>2015-12-27T01:49:12.344Z</time>
</trkpt>
<trkpt lat="-26.7817107" lon="152.8814704">
<ele>428.005</ele>
<time>2015-12-27T01:49:14.771Z</time>
</trkpt>
<trkpt lat="-26.7817001" lon="152.8816185">
<ele>429.122</ele>
<time>2015-12-27T01:49:17.635Z</time>
</trkpt>
<trkpt lat="-26.7816043" lon="152.8816036">
<ele>429.920</ele>
<time>2015-12-27T01:49:20.315Z</time>
</trkpt>
<trkpt lat="-26.7815232" lon="152.8815223">
<ele>429.973</ele>
<time>2015-12-27T01:49:23.587Z</time>
</trkpt>
<trkpt lat="-26.7815289" lon="152.8813652">
<ele>429.606</ele>
<time>2015-12-27T01:49:27.102Z</time>
</trkpt>
<trkpt lat="-26.7815297" lon="152.8812379">
<ele>429.245</ele>
<time>2015-12-27T01:49:29.659Z</time>
</trkpt>
<trkpt lat="-26.7815407" lon="152.8810451">
<ele>429.001</ele>
<time>2015-12-27T01:49:33.415Z</time>
</trkpt>
<trkpt lat="-26.7815025" lon="152.8809178">
<ele>428.756</ele>
<time>2015-12-27T01:49:36.321Z</time>
</trkpt>
<trkpt lat="-26.7814205" lon="152.8808281">
<ele>428.427</ele>
<time>2015-12-27T01:49:39.586Z</time>
</trkpt>
<trkpt lat="-26.7813417" lon="152.8807676">
<ele>428.076</ele>
<time>2015-12-27T01:49:43.000Z</time>
</trkpt>
<trkpt lat="-26.7813417" lon="152.8807676">
<ele>427.796</ele>
<time>2015-12-27T01:49:47.000Z</time>
</trkpt>
<trkpt lat="-26.7813417" lon="152.8807676">
<ele>427.583</ele>
<time>2015-12-27T04:34:18.579Z</time>
</trkpt>
<trkpt lat="-26.7813898" lon="152.8809321">
<ele>427.451</ele>
<time>2015-12-27T04:34:29.188Z</time>
</trkpt>
<trkpt lat="-26.7814067" lon="152.8810395">
<ele>428.359</ele>
<time>2015-12-27T04:34:32.410Z</time>
</trkpt>
<trkpt lat="-26.7814157" lon="152.8811503">
<ele>430.863</ele>
<time>2015-12-27T04:34:34.946Z</time>
</trkpt>
<trkpt lat="-26.7814784" lon="152.8812808">
<ele>433.559</ele>
<time>2015-12-27T04:34:37.998Z</time>
</trkpt>
<trkpt lat="-26.7815289" lon="152.8813957">
<ele>435.034</ele>
<time>2015-12-27T04:34:40.943Z</time>
</trkpt>
<trkpt lat="-26.7815214" lon="152.8815137">
<ele>435.431</ele>
<time>2015-12-27T04:34:44.074Z</time>
</trkpt>
<trkpt lat="-26.7814707" lon="152.8816059">
<ele>435.305</ele>
<time>2015-12-27T04:34:47.402Z</time>
</trkpt>
<trkpt lat="-26.7815110" lon="152.8816984">
<ele>435.093</ele>
<time>2015-12-27T04:34:51.000Z</time>
</trkpt>
<trkpt lat="-26.7815110" lon="152.8816984">
<ele>434.957</ele>
<time>2015-12-27T04:34:58.000Z</time>
</trkpt>
<trkpt lat="-26.7815110" lon="152.8816984">
<ele>434.850</ele>
<time>2015-12-27T04:35:17.395Z</time>
</trkpt>
<trkpt lat="-26.7816390" lon="152.8819459">
<ele>434.722</ele>
<time>2015-12-27T04:35:24.842Z</time>
</trkpt>
<trkpt lat="-26.7816208" lon="152.8821063">
<ele>434.946</ele>
<time>2015-12-27T04:35:26.752Z</time>
</trkpt>
<trkpt lat="-26.7816012" lon="152.8822874">
<ele>435.759</ele>
<time>2015-12-27T04:35:29.070Z</time>
</trkpt>
<trkpt lat="-26.7815664" lon="152.8823936">
<ele>436.456</ele>
<time>2015-12-27T04:35:30.747Z</time>
</trkpt>
<trkpt lat="-26.7815719" lon="152.8825165">
<ele>436.277</ele>
<time>2015-12-27T04:35:33.000Z</time>
</trkpt>
<trkpt lat="-26.7815719" lon="152.8825165">
<ele>435.504</ele>
<time>2015-12-27T04:35:38.000Z</time>
</trkpt>
<trkpt lat="-26.7815719" lon="152.8825165">
<ele>434.882</ele>
<time>2015-12-27T04:36:15.299Z</time>
</trkpt>
<trkpt lat="-26.7815333" lon="152.8827448">
<ele>434.804</ele>
<time>2015-12-27T04:36:20.435Z</time>
</trkpt>
<trkpt lat="-26.7815503" lon="152.8829517">
<ele>435.121</ele>
<time>2015-12-27T04:36:22.598Z</time>
</trkpt>
<trkpt lat="-26.7814760" lon="152.8832994">
<ele>435.641</ele>
<time>2015-12-27T04:36:25.777Z</time>
</trkpt>
<trkpt lat="-26.7813948" lon="152.8835879">
<ele>436.368</ele>
<time>2015-12-27T04:36:27.932Z</time>
</trkpt>
<trkpt lat="-26.7813150" lon="152.8840692">
<ele>437.127</ele>
<time>2015-12-27T04:36:31.133Z</time>
</trkpt>
<trkpt lat="-26.7811897" lon="152.8845758">
<ele>437.483</ele>
<time>2015-12-27T04:36:34.369Z</time>
</trkpt>
<trkpt lat="-26.7811349" lon="152.8849455">
<ele>437.178</ele>
<time>2015-12-27T04:36:36.575Z</time>
</trkpt>
<trkpt lat="-26.7810504" lon="152.8854739">
<ele>436.317</ele>
<time>2015-12-27T04:36:39.724Z</time>
</trkpt>
<trkpt lat="-26.7809314" lon="152.8859196">
<ele>435.347</ele>
<time>2015-12-27T04:36:42.561Z</time>
</trkpt>
<trkpt lat="-26.7809218" lon="152.8862399">
<ele>434.624</ele>
<time>2015-12-27T04:36:44.575Z</time>
</trkpt>
<trkpt lat="-26.7808753" lon="152.8865083">
<ele>434.095</ele>
<time>2015-12-27T04:36:46.305Z</time>
</trkpt>
<trkpt lat="-26.7808103" lon="152.8869685">
<ele>433.741</ele>
<time>2015-12-27T04:36:49.253Z</time>
</trkpt>
<trkpt lat="-26.7807312" lon="152.8874223">
<ele>433.753</ele>
<time>2015-12-27T04:36:52.163Z</time>
</trkpt>
<trkpt lat="-26.7806366" lon="152.8877290">
<ele>434.186</ele>
<time>2015-12-27T04:36:54.170Z</time>
</trkpt>
<trkpt lat="-26.7805151" lon="152.8880153">
<ele>434.812</ele>
<time>2015-12-27T04:36:56.180Z</time>
</trkpt>
<trkpt lat="-26.7803501" lon="152.8883917">
<ele>435.299</ele>
<time>2015-12-27T04:36:58.891Z</time>
</trkpt>
<trkpt lat="-26.7801444" lon="152.8887779">
<ele>435.398</ele>
<time>2015-12-27T04:37:01.763Z</time>
</trkpt>
<trkpt lat="-26.7799930" lon="152.8890456">
<ele>435.131</ele>
<time>2015-12-27T04:37:03.730Z</time>
</trkpt>
<trkpt lat="-26.7797913" lon="152.8894626">
<ele>434.604</ele>
<time>2015-12-27T04:37:06.649Z</time>
</trkpt>
<trkpt lat="-26.7796511" lon="152.8897113">
<ele>434.001</ele>
<time>2015-12-27T04:37:08.527Z</time>
</trkpt>
<trkpt lat="-26.7793870" lon="152.8900496">
<ele>433.397</ele>
<time>2015-12-27T04:37:11.495Z</time>
</trkpt>
<trkpt lat="-26.7792202" lon="152.8902510">
<ele>432.753</ele>
<time>2015-12-27T04:37:13.453Z</time>
</trkpt>
<trkpt lat="-26.7789679" lon="152.8905236">
<ele>432.174</ele>
<time>2015-12-27T04:37:16.396Z</time>
</trkpt>
<trkpt lat="-26.7787273" lon="152.8907769">
<ele>431.523</ele>
<time>2015-12-27T04:37:19.254Z</time>
</trkpt>
<trkpt lat="-26.7784693" lon="152.8910425">
<ele>430.566</ele>
<time>2015-12-27T04:37:22.225Z</time>
</trkpt>
<trkpt lat="-26.7781953" lon="152.8912815">
<ele>429.805</ele>
<time>2015-12-27T04:37:25.106Z</time>
</trkpt>
<trkpt lat="-26.7779791" lon="152.8914044">
<ele>429.748</ele>
<time>2015-12-27T04:37:27.029Z</time>
</trkpt>
<trkpt lat="-26.7775475" lon="152.8915579">
<ele>430.228</ele>
<time>2015-12-27T04:37:30.466Z</time>
</trkpt>
<trkpt lat="-26.7771663" lon="152.8916767">
<ele>431.189</ele>
<time>2015-12-27T04:37:33.435Z</time>
</trkpt>
<trkpt lat="-26.7769350" lon="152.8917696">
<ele>432.749</ele>
<time>2015-12-27T04:37:35.350Z</time>
</trkpt>
<trkpt lat="-26.7766118" lon="152.8919334">
<ele>434.609</ele>
<time>2015-12-27T04:37:38.201Z</time>
</trkpt>
<trkpt lat="-26.7764152" lon="152.8922351">
<ele>436.612</ele>
<time>2015-12-27T04:37:40.984Z</time>
</trkpt>
<trkpt lat="-26.7763009" lon="152.8924348">
<ele>438.997</ele>
<time>2015-12-27T04:37:42.905Z</time>
</trkpt>
<trkpt lat="-26.7761586" lon="152.8926532">
<ele>441.334</ele>
<time>2015-12-27T04:37:45.334Z</time>
</trkpt>
<trkpt lat="-26.7760997" lon="152.8927702">
<ele>442.460</ele>
<time>2015-12-27T04:37:46.816Z</time>
</trkpt>
<trkpt lat="-26.7759546" lon="152.8928194">
<ele>442.044</ele>
<time>2015-12-27T04:37:49.000Z</time>
</trkpt>
<trkpt lat="-26.7759546" lon="152.8928194">
<ele>440.995</ele>
<time>2015-12-27T04:37:54.000Z</time>
</trkpt>
<trkpt lat="-26.7759546" lon="152.8928194">
<ele>440.297</ele>
<time>2015-12-27T04:38:08.659Z</time>
</trkpt>
<trkpt lat="-26.7758185" lon="152.8925861">
<ele>440.193</ele>
<time>2015-12-27T04:38:14.539Z</time>
</trkpt>
<trkpt lat="-26.7756813" lon="152.8922986">
<ele>440.428</ele>
<time>2015-12-27T04:38:17.504Z</time>
</trkpt>
<trkpt lat="-26.7754525" lon="152.8919753">
<ele>441.010</ele>
<time>2015-12-27T04:38:20.440Z</time>
</trkpt>
<trkpt lat="-26.7752504" lon="152.8917455">
<ele>442.519</ele>
<time>2015-12-27T04:38:22.469Z</time>
</trkpt>
<trkpt lat="-26.7749318" lon="152.8913975">
<ele>444.976</ele>
<time>2015-12-27T04:38:25.518Z</time>
</trkpt>
<trkpt lat="-26.7747192" lon="152.8911571">
<ele>447.364</ele>
<time>2015-12-27T04:38:27.537Z</time>
</trkpt>
<trkpt lat="-26.7745080" lon="152.8909094">
<ele>448.813</ele>
<time>2015-12-27T04:38:29.559Z</time>
</trkpt>
<trkpt lat="-26.7741974" lon="152.8905559">
<ele>449.117</ele>
<time>2015-12-27T04:38:32.496Z</time>
</trkpt>
<trkpt lat="-26.7739793" lon="152.8903312">
<ele>448.350</ele>
<time>2015-12-27T04:38:34.461Z</time>
</trkpt>
<trkpt lat="-26.7737417" lon="152.8901201">
<ele>446.915</ele>
<time>2015-12-27T04:38:36.447Z</time>
</trkpt>
<trkpt lat="-26.7733521" lon="152.8898429">
<ele>445.362</ele>
<time>2015-12-27T04:38:39.442Z</time>
</trkpt>
<trkpt lat="-26.7729325" lon="152.8896465">
<ele>443.809</ele>
<time>2015-12-27T04:38:42.378Z</time>
</trkpt>
<trkpt lat="-26.7726377" lon="152.8895226">
<ele>441.971</ele>
<time>2015-12-27T04:38:44.412Z</time>
</trkpt>
<trkpt lat="-26.7723458" lon="152.8894445">
<ele>439.804</ele>
<time>2015-12-27T04:38:46.349Z</time>
</trkpt>
<trkpt lat="-26.7720393" lon="152.8893462">
<ele>437.669</ele>
<time>2015-12-27T04:38:48.396Z</time>
</trkpt>
<trkpt lat="-26.7717290" lon="152.8892561">
<ele>435.884</ele>
<time>2015-12-27T04:38:50.440Z</time>
</trkpt>
<trkpt lat="-26.7712775" lon="152.8891273">
<ele>434.450</ele>
<time>2015-12-27T04:38:53.397Z</time>
</trkpt>
<trkpt lat="-26.7708353" lon="152.8889931">
<ele>433.364</ele>
<time>2015-12-27T04:38:56.322Z</time>
</trkpt>
<trkpt lat="-26.7705346" lon="152.8889046">
<ele>432.749</ele>
<time>2015-12-27T04:38:58.333Z</time>
</trkpt>
<trkpt lat="-26.7701038" lon="152.8887307">
<ele>432.854</ele>
<time>2015-12-27T04:39:01.327Z</time>
</trkpt>
<trkpt lat="-26.7698452" lon="152.8885623">
<ele>433.896</ele>
<time>2015-12-27T04:39:03.306Z</time>
</trkpt>
<trkpt lat="-26.7696129" lon="152.8883563">
<ele>435.753</ele>
<time>2015-12-27T04:39:05.256Z</time>
</trkpt>
<trkpt lat="-26.7693935" lon="152.8881097">
<ele>437.945</ele>
<time>2015-12-27T04:39:07.293Z</time>
</trkpt>
<trkpt lat="-26.7692123" lon="152.8878405">
<ele>440.060</ele>
<time>2015-12-27T04:39:09.283Z</time>
</trkpt>
<trkpt lat="-26.7689977" lon="152.8873969">
<ele>441.784</ele>
<time>2015-12-27T04:39:12.298Z</time>
</trkpt>
<trkpt lat="-26.7688561" lon="152.8871099">
<ele>443.123</ele>
<time>2015-12-27T04:39:14.317Z</time>
</trkpt>
<trkpt lat="-26.7686550" lon="152.8867097">
<ele>444.329</ele>
<time>2015-12-27T04:39:17.196Z</time>
</trkpt>
<trkpt lat="-26.7684642" lon="152.8862892">
<ele>445.371</ele>
<time>2015-12-27T04:39:20.159Z</time>
</trkpt>
<trkpt lat="-26.7683521" lon="152.8859899">
<ele>445.988</ele>
<time>2015-12-27T04:39:22.210Z</time>
</trkpt>
<trkpt lat="-26.7682657" lon="152.8855529">
<ele>446.193</ele>
<time>2015-12-27T04:39:25.315Z</time>
</trkpt>
<trkpt lat="-26.7682935" lon="152.8852320">
<ele>446.141</ele>
<time>2015-12-27T04:39:28.231Z</time>
</trkpt>
<trkpt lat="-26.7682582" lon="152.8850312">
<ele>445.479</ele>
<time>2015-12-27T04:39:30.631Z</time>
</trkpt>
<trkpt lat="-26.7679969" lon="152.8850080">
<ele>443.808</ele>
<time>2015-12-27T04:39:34.064Z</time>
</trkpt>
<trkpt lat="-26.7677843" lon="152.8850918">
<ele>441.826</ele>
<time>2015-12-27T04:39:36.242Z</time>
</trkpt>
<trkpt lat="-26.7674283" lon="152.8852031">
<ele>440.590</ele>
<time>2015-12-27T04:39:39.334Z</time>
</trkpt>
<trkpt lat="-26.7670611" lon="152.8853088">
<ele>440.204</ele>
<time>2015-12-27T04:39:42.309Z</time>
</trkpt>
<trkpt lat="-26.7668106" lon="152.8853907">
<ele>439.886</ele>
<time>2015-12-27T04:39:44.324Z</time>
</trkpt>
<trkpt lat="-26.7664308" lon="152.8854875">
<ele>438.810</ele>
<time>2015-12-27T04:39:47.253Z</time>
</trkpt>
<trkpt lat="-26.7661506" lon="152.8855601">
<ele>437.044</ele>
<time>2015-12-27T04:39:49.294Z</time>
</trkpt>
<trkpt lat="-26.7658669" lon="152.8856306">
<ele>435.399</ele>
<time>2015-12-27T04:39:51.278Z</time>
</trkpt>
<trkpt lat="-26.7654357" lon="152.8857786">
<ele>434.421</ele>
<time>2015-12-27T04:39:54.297Z</time>
</trkpt>
<trkpt lat="-26.7649922" lon="152.8859137">
<ele>433.918</ele>
<time>2015-12-27T04:39:57.318Z</time>
</trkpt>
<trkpt lat="-26.7646808" lon="152.8860109">
<ele>433.445</ele>
<time>2015-12-27T04:39:59.455Z</time>
</trkpt>
<trkpt lat="-26.7642616" lon="152.8861477">
<ele>432.765</ele>
<time>2015-12-27T04:40:02.387Z</time>
</trkpt>
<trkpt lat="-26.7638455" lon="152.8862862">
<ele>431.903</ele>
<time>2015-12-27T04:40:05.305Z</time>
</trkpt>
<trkpt lat="-26.7634022" lon="152.8864051">
<ele>431.147</ele>
<time>2015-12-27T04:40:08.347Z</time>
</trkpt>
<trkpt lat="-26.7631211" lon="152.8864995">
<ele>430.739</ele>
<time>2015-12-27T04:40:10.311Z</time>
</trkpt>
<trkpt lat="-26.7626796" lon="152.8866358">
<ele>430.600</ele>
<time>2015-12-27T04:40:13.345Z</time>
</trkpt>
<trkpt lat="-26.7622250" lon="152.8867691">
<ele>430.587</ele>
<time>2015-12-27T04:40:16.413Z</time>
</trkpt>
<trkpt lat="-26.7617755" lon="152.8869006">
<ele>430.664</ele>
<time>2015-12-27T04:40:19.440Z</time>
</trkpt>
<trkpt lat="-26.7613348" lon="152.8870334">
<ele>430.880</ele>
<time>2015-12-27T04:40:22.419Z</time>
</trkpt>
<trkpt lat="-26.7610356" lon="152.8871205">
<ele>431.212</ele>
<time>2015-12-27T04:40:24.454Z</time>
</trkpt>
<trkpt lat="-26.7607489" lon="152.8871966">
<ele>431.512</ele>
<time>2015-12-27T04:40:26.409Z</time>
</trkpt>
<trkpt lat="-26.7604647" lon="152.8872720">
<ele>431.684</ele>
<time>2015-12-27T04:40:28.292Z</time>
</trkpt>
<trkpt lat="-26.7599512" lon="152.8874168">
<ele>431.742</ele>
<time>2015-12-27T04:40:31.427Z</time>
</trkpt>
<trkpt lat="-26.7596000" lon="152.8875111">
<ele>431.746</ele>
<time>2015-12-27T04:40:33.436Z</time>
</trkpt>
<trkpt lat="-26.7592462" lon="152.8875944">
<ele>431.747</ele>
<time>2015-12-27T04:40:35.445Z</time>
</trkpt>
<trkpt lat="-26.7587524" lon="152.8877554">
<ele>431.507</ele>
<time>2015-12-27T04:40:38.331Z</time>
</trkpt>
<trkpt lat="-26.7582286" lon="152.8878574">
<ele>430.218</ele>
<time>2015-12-27T04:40:41.343Z</time>
</trkpt>
<trkpt lat="-26.7578797" lon="152.8878032">
<ele>427.479</ele>
<time>2015-12-27T04:40:43.346Z</time>
</trkpt>
<trkpt lat="-26.7575379" lon="152.8877374">
<ele>424.061</ele>
<time>2015-12-27T04:40:45.313Z</time>
</trkpt>
<trkpt lat="-26.7572173" lon="152.8875761">
<ele>420.984</ele>
<time>2015-12-27T04:40:47.268Z</time>
</trkpt>
<trkpt lat="-26.7568720" lon="152.8873645">
<ele>418.350</ele>
<time>2015-12-27T04:40:49.397Z</time>
</trkpt>
<trkpt lat="-26.7564071" lon="152.8869961">
<ele>415.615</ele>
<time>2015-12-27T04:40:52.469Z</time>
</trkpt>
<trkpt lat="-26.7559128" lon="152.8867894">
<ele>412.290</ele>
<time>2015-12-27T04:40:55.383Z</time>
</trkpt>
<trkpt lat="-26.7554131" lon="152.8866743">
<ele>408.328</ele>
<time>2015-12-27T04:40:58.273Z</time>
</trkpt>
<trkpt lat="-26.7550462" lon="152.8867611">
<ele>404.601</ele>
<time>2015-12-27T04:41:00.384Z</time>
</trkpt>
<trkpt lat="-26.7547071" lon="152.8868781">
<ele>402.417</ele>
<time>2015-12-27T04:41:02.323Z</time>
</trkpt>
<trkpt lat="-26.7543725" lon="152.8870772">
<ele>402.086</ele>
<time>2015-12-27T04:41:04.342Z</time>
</trkpt>
<trkpt lat="-26.7539449" lon="152.8874816">
<ele>402.841</ele>
<time>2015-12-27T04:41:07.280Z</time>
</trkpt>
<trkpt lat="-26.7535662" lon="152.8879418">
<ele>403.872</ele>
<time>2015-12-27T04:41:10.185Z</time>
</trkpt>
<trkpt lat="-26.7531872" lon="152.8884285">
<ele>404.722</ele>
<time>2015-12-27T04:41:13.225Z</time>
</trkpt>
<trkpt lat="-26.7529239" lon="152.8886978">
<ele>404.876</ele>
<time>2015-12-27T04:41:15.173Z</time>
</trkpt>
<trkpt lat="-26.7524921" lon="152.8890385">
<ele>403.681</ele>
<time>2015-12-27T04:41:18.073Z</time>
</trkpt>
<trkpt lat="-26.7519656" lon="152.8892832">
<ele>401.117</ele>
<time>2015-12-27T04:41:21.157Z</time>
</trkpt>
<trkpt lat="-26.7514006" lon="152.8893032">
<ele>397.883</ele>
<time>2015-12-27T04:41:24.188Z</time>
</trkpt>
<trkpt lat="-26.7510313" lon="152.8892707">
<ele>394.726</ele>
<time>2015-12-27T04:41:26.188Z</time>
</trkpt>
<trkpt lat="-26.7506681" lon="152.8892046">
<ele>392.198</ele>
<time>2015-12-27T04:41:28.182Z</time>
</trkpt>
<trkpt lat="-26.7501636" lon="152.8889463">
<ele>390.674</ele>
<time>2015-12-27T04:41:31.196Z</time>
</trkpt>
<trkpt lat="-26.7498467" lon="152.8887406">
<ele>390.167</ele>
<time>2015-12-27T04:41:33.239Z</time>
</trkpt>
<trkpt lat="-26.7494115" lon="152.8884352">
<ele>390.336</ele>
<time>2015-12-27T04:41:36.225Z</time>
</trkpt>
<trkpt lat="-26.7489808" lon="152.8881989">
<ele>390.790</ele>
<time>2015-12-27T04:41:39.243Z</time>
</trkpt>
<trkpt lat="-26.7485673" lon="152.8880719">
<ele>391.698</ele>
<time>2015-12-27T04:41:42.190Z</time>
</trkpt>
<trkpt lat="-26.7482947" lon="152.8880369">
<ele>393.179</ele>
<time>2015-12-27T04:41:44.157Z</time>
</trkpt>
<trkpt lat="-26.7478706" lon="152.8880362">
<ele>394.511</ele>
<time>2015-12-27T04:41:47.146Z</time>
</trkpt>
<trkpt lat="-26.7475771" lon="152.8881181">
<ele>394.977</ele>
<time>2015-12-27T04:41:49.162Z</time>
</trkpt>
<trkpt lat="-26.7471289" lon="152.8882688">
<ele>394.675</ele>
<time>2015-12-27T04:41:52.129Z</time>
</trkpt>
<trkpt lat="-26.7466412" lon="152.8885368">
<ele>394.039</ele>
<time>2015-12-27T04:41:55.364Z</time>
</trkpt>
<trkpt lat="-26.7463086" lon="152.8886956">
<ele>392.741</ele>
<time>2015-12-27T04:41:57.438Z</time>
</trkpt>
<trkpt lat="-26.7459776" lon="152.8888624">
<ele>390.293</ele>
<time>2015-12-27T04:41:59.470Z</time>
</trkpt>
<trkpt lat="-26.7454696" lon="152.8891145">
<ele>387.679</ele>
<time>2015-12-27T04:42:02.517Z</time>
</trkpt>
<trkpt lat="-26.7449488" lon="152.8893418">
<ele>386.203</ele>
<time>2015-12-27T04:42:05.583Z</time>
</trkpt>
<trkpt lat="-26.7446686" lon="152.8895156">
<ele>385.838</ele>
<time>2015-12-27T04:42:07.395Z</time>
</trkpt>
<trkpt lat="-26.7442719" lon="152.8898734">
<ele>385.786</ele>
<time>2015-12-27T04:42:10.290Z</time>
</trkpt>
<trkpt lat="-26.7440642" lon="152.8901641">
<ele>385.313</ele>
<time>2015-12-27T04:42:12.168Z</time>
</trkpt>
<trkpt lat="-26.7439119" lon="152.8904855">
<ele>384.325</ele>
<time>2015-12-27T04:42:13.997Z</time>
</trkpt>
<trkpt lat="-26.7437351" lon="152.8910240">
<ele>383.000</ele>
<time>2015-12-27T04:42:16.863Z</time>
</trkpt>
<trkpt lat="-26.7435958" lon="152.8914576">
<ele>381.121</ele>
<time>2015-12-27T04:42:19.065Z</time>
</trkpt>
<trkpt lat="-26.7433975" lon="152.8920890">
<ele>378.452</ele>
<time>2015-12-27T04:42:22.110Z</time>
</trkpt>
<trkpt lat="-26.7431932" lon="152.8924900">
<ele>374.701</ele>
<time>2015-12-27T04:42:24.084Z</time>
</trkpt>
<trkpt lat="-26.7429462" lon="152.8928971">
<ele>370.095</ele>
<time>2015-12-27T04:42:26.123Z</time>
</trkpt>
<trkpt lat="-26.7426976" lon="152.8932796">
<ele>366.171</ele>
<time>2015-12-27T04:42:28.071Z</time>
</trkpt>
<trkpt lat="-26.7422260" lon="152.8937927">
<ele>364.396</ele>
<time>2015-12-27T04:42:31.094Z</time>
</trkpt>
<trkpt lat="-26.7417632" lon="152.8943089">
<ele>365.366</ele>
<time>2015-12-27T04:42:34.088Z</time>
</trkpt>
<trkpt lat="-26.7414947" lon="152.8946683">
<ele>369.549</ele>
<time>2015-12-27T04:42:36.041Z</time>
</trkpt>
<trkpt lat="-26.7411566" lon="152.8952383">
<ele>376.099</ele>
<time>2015-12-27T04:42:38.977Z</time>
</trkpt>
<trkpt lat="-26.7409896" lon="152.8955947">
<ele>382.784</ele>
<time>2015-12-27T04:42:40.853Z</time>
</trkpt>
<trkpt lat="-26.7407960" lon="152.8958965">
<ele>388.006</ele>
<time>2015-12-27T04:42:42.802Z</time>
</trkpt>
<trkpt lat="-26.7405253" lon="152.8962342">
<ele>391.360</ele>
<time>2015-12-27T04:42:45.483Z</time>
</trkpt>
<trkpt lat="-26.7403614" lon="152.8964344">
<ele>392.971</ele>
<time>2015-12-27T04:42:47.335Z</time>
</trkpt>
<trkpt lat="-26.7402009" lon="152.8966436">
<ele>393.350</ele>
<time>2015-12-27T04:42:49.311Z</time>
</trkpt>
<trkpt lat="-26.7400573" lon="152.8968853">
<ele>393.169</ele>
<time>2015-12-27T04:42:51.372Z</time>
</trkpt>
<trkpt lat="-26.7399269" lon="152.8971233">
<ele>393.041</ele>
<time>2015-12-27T04:42:53.331Z</time>
</trkpt>
<trkpt lat="-26.7397943" lon="152.8973431">
<ele>393.235</ele>
<time>2015-12-27T04:42:55.186Z</time>
</trkpt>
<trkpt lat="-26.7396600" lon="152.8975725">
<ele>393.641</ele>
<time>2015-12-27T04:42:57.069Z</time>
</trkpt>
<trkpt lat="-26.7394151" lon="152.8979576">
<ele>394.040</ele>
<time>2015-12-27T04:43:00.055Z</time>
</trkpt>
<trkpt lat="-26.7390403" lon="152.8983730">
<ele>394.280</ele>
<time>2015-12-27T04:43:03.294Z</time>
</trkpt>
<trkpt lat="-26.7386214" lon="152.8987504">
<ele>394.209</ele>
<time>2015-12-27T04:43:06.331Z</time>
</trkpt>
<trkpt lat="-26.7383373" lon="152.8989685">
<ele>393.377</ele>
<time>2015-12-27T04:43:08.250Z</time>
</trkpt>
<trkpt lat="-26.7378938" lon="152.8993109">
<ele>391.453</ele>
<time>2015-12-27T04:43:11.303Z</time>
</trkpt>
<trkpt lat="-26.7376041" lon="152.8995065">
<ele>388.936</ele>
<time>2015-12-27T04:43:13.300Z</time>
</trkpt>
<trkpt lat="-26.7372411" lon="152.8997556">
<ele>386.643</ele>
<time>2015-12-27T04:43:16.076Z</time>
</trkpt>
<trkpt lat="-26.7370233" lon="152.8999177">
<ele>384.965</ele>
<time>2015-12-27T04:43:18.000Z</time>
</trkpt>
<trkpt lat="-26.7367701" lon="152.9001047">
<ele>384.006</ele>
<time>2015-12-27T04:43:20.141Z</time>
</trkpt>
<trkpt lat="-26.7363301" lon="152.9003853">
<ele>384.196</ele>
<time>2015-12-27T04:43:23.270Z</time>
</trkpt>
<trkpt lat="-26.7358294" lon="152.9007134">
<ele>386.597</ele>
<time>2015-12-27T04:43:26.422Z</time>
</trkpt>
<trkpt lat="-26.7353085" lon="152.9011334">
<ele>391.380</ele>
<time>2015-12-27T04:43:29.578Z</time>
</trkpt>
<trkpt lat="-26.7349578" lon="152.9013801">
<ele>396.728</ele>
<time>2015-12-27T04:43:31.543Z</time>
</trkpt>
<trkpt lat="-26.7343836" lon="152.9016580">
<ele>400.459</ele>
<time>2015-12-27T04:43:34.535Z</time>
</trkpt>
<trkpt lat="-26.7337527" lon="152.9018085">
<ele>401.820</ele>
<time>2015-12-27T04:43:37.595Z</time>
</trkpt>
<trkpt lat="-26.7333300" lon="152.9018518">
<ele>401.099</ele>
<time>2015-12-27T04:43:39.565Z</time>
</trkpt>
<trkpt lat="-26.7326393" lon="152.9018812">
<ele>398.948</ele>
<time>2015-12-27T04:43:42.689Z</time>
</trkpt>
<trkpt lat="-26.7321972" lon="152.9018083">
<ele>396.003</ele>
<time>2015-12-27T04:43:44.679Z</time>
</trkpt>
<trkpt lat="-26.7317844" lon="152.9016963">
<ele>392.703</ele>
<time>2015-12-27T04:43:46.599Z</time>
</trkpt>
<trkpt lat="-26.7311817" lon="152.9014360">
<ele>389.264</ele>
<time>2015-12-27T04:43:49.560Z</time>
</trkpt>
<trkpt lat="-26.7308156" lon="152.9011911">
<ele>386.119</ele>
<time>2015-12-27T04:43:51.532Z</time>
</trkpt>
<trkpt lat="-26.7304196" lon="152.9009575">
<ele>383.990</ele>
<time>2015-12-27T04:43:53.605Z</time>
</trkpt>
<trkpt lat="-26.7298882" lon="152.9005936">
<ele>383.424</ele>
<time>2015-12-27T04:43:56.500Z</time>
</trkpt>
<trkpt lat="-26.7295229" lon="152.9003582">
<ele>384.760</ele>
<time>2015-12-27T04:43:58.479Z</time>
</trkpt>
<trkpt lat="-26.7289820" lon="152.9000141">
<ele>387.714</ele>
<time>2015-12-27T04:44:01.445Z</time>
</trkpt>
<trkpt lat="-26.7283739" lon="152.8998520">
<ele>391.176</ele>
<time>2015-12-27T04:44:04.543Z</time>
</trkpt>
<trkpt lat="-26.7278699" lon="152.8997046">
<ele>394.054</ele>
<time>2015-12-27T04:44:07.297Z</time>
</trkpt>
<trkpt lat="-26.7275242" lon="152.8996493">
<ele>395.558</ele>
<time>2015-12-27T04:44:09.261Z</time>
</trkpt>
<trkpt lat="-26.7270092" lon="152.8995841">
<ele>395.421</ele>
<time>2015-12-27T04:44:12.227Z</time>
</trkpt>
<trkpt lat="-26.7266464" lon="152.8995289">
<ele>394.027</ele>
<time>2015-12-27T04:44:14.336Z</time>
</trkpt>
<trkpt lat="-26.7261427" lon="152.8994735">
<ele>391.782</ele>
<time>2015-12-27T04:44:17.250Z</time>
</trkpt>
<trkpt lat="-26.7256129" lon="152.8994223">
<ele>388.761</ele>
<time>2015-12-27T04:44:20.276Z</time>
</trkpt>
<trkpt lat="-26.7250267" lon="152.8994782">
<ele>384.835</ele>
<time>2015-12-27T04:44:23.494Z</time>
</trkpt>
<trkpt lat="-26.7244539" lon="152.8995399">
<ele>380.029</ele>
<time>2015-12-27T04:44:26.522Z</time>
</trkpt>
<trkpt lat="-26.7240789" lon="152.8995460">
<ele>374.546</ele>
<time>2015-12-27T04:44:28.453Z</time>
</trkpt>
<trkpt lat="-26.7236917" lon="152.8995289">
<ele>369.090</ele>
<time>2015-12-27T04:44:30.423Z</time>
</trkpt>
<trkpt lat="-26.7230858" lon="152.8994318">
<ele>364.520</ele>
<time>2015-12-27T04:44:33.469Z</time>
</trkpt>
<trkpt lat="-26.7224483" lon="152.8992115">
<ele>360.701</ele>
<time>2015-12-27T04:44:36.605Z</time>
</trkpt>
<trkpt lat="-26.7220262" lon="152.8990699">
<ele>357.522</ele>
<time>2015-12-27T04:44:38.616Z</time>
</trkpt>
<trkpt lat="-26.7216191" lon="152.8989226">
<ele>355.614</ele>
<time>2015-12-27T04:44:40.586Z</time>
</trkpt>
<trkpt lat="-26.7209983" lon="152.8987182">
<ele>355.098</ele>
<time>2015-12-27T04:44:43.583Z</time>
</trkpt>
<trkpt lat="-26.7206724" lon="152.8985606">
<ele>355.914</ele>
<time>2015-12-27T04:44:45.284Z</time>
</trkpt>
<trkpt lat="-26.7201229" lon="152.8983703">
<ele>357.807</ele>
<time>2015-12-27T04:44:48.193Z</time>
</trkpt>
<trkpt lat="-26.7197523" lon="152.8982814">
<ele>359.558</ele>
<time>2015-12-27T04:44:50.163Z</time>
</trkpt>
<trkpt lat="-26.7191398" lon="152.8982060">
<ele>360.279</ele>
<time>2015-12-27T04:44:53.324Z</time>
</trkpt>
<trkpt lat="-26.7185813" lon="152.8983259">
<ele>360.517</ele>
<time>2015-12-27T04:44:56.184Z</time>
</trkpt>
<trkpt lat="-26.7181981" lon="152.8984238">
<ele>360.945</ele>
<time>2015-12-27T04:44:58.164Z</time>
</trkpt>
<trkpt lat="-26.7178420" lon="152.8985922">
<ele>361.744</ele>
<time>2015-12-27T04:45:00.165Z</time>
</trkpt>
<trkpt lat="-26.7175174" lon="152.8987626">
<ele>363.208</ele>
<time>2015-12-27T04:45:02.093Z</time>
</trkpt>
<trkpt lat="-26.7170325" lon="152.8989915">
<ele>365.764</ele>
<time>2015-12-27T04:45:04.996Z</time>
</trkpt>
<trkpt lat="-26.7165498" lon="152.8991466">
<ele>369.127</ele>
<time>2015-12-27T04:45:07.864Z</time>
</trkpt>
<trkpt lat="-26.7160535" lon="152.8992759">
<ele>372.433</ele>
<time>2015-12-27T04:45:10.837Z</time>
</trkpt>
<trkpt lat="-26.7157169" lon="152.8993984">
<ele>374.990</ele>
<time>2015-12-27T04:45:12.918Z</time>
</trkpt>
<trkpt lat="-26.7154004" lon="152.8995494">
<ele>376.535</ele>
<time>2015-12-27T04:45:14.946Z</time>
</trkpt>
<trkpt lat="-26.7150008" lon="152.8997613">
<ele>377.001</ele>
<time>2015-12-27T04:45:17.583Z</time>
</trkpt>
<trkpt lat="-26.7146658" lon="152.8997930">
<ele>376.405</ele>
<time>2015-12-27T04:45:19.618Z</time>
</trkpt>
<trkpt lat="-26.7141894" lon="152.8995929">
<ele>375.036</ele>
<time>2015-12-27T04:45:22.675Z</time>
</trkpt>
<trkpt lat="-26.7137555" lon="152.8992287">
<ele>373.582</ele>
<time>2015-12-27T04:45:25.833Z</time>
</trkpt>
<trkpt lat="-26.7133885" lon="152.8987984">
<ele>372.687</ele>
<time>2015-12-27T04:45:28.895Z</time>
</trkpt>
<trkpt lat="-26.7131902" lon="152.8985114">
<ele>372.765</ele>
<time>2015-12-27T04:45:30.855Z</time>
</trkpt>
<trkpt lat="-26.7130213" lon="152.8982373">
<ele>373.982</ele>
<time>2015-12-27T04:45:32.761Z</time>
</trkpt>
<trkpt lat="-26.7127967" lon="152.8980326">
<ele>375.915</ele>
<time>2015-12-27T04:45:34.684Z</time>
</trkpt>
<trkpt lat="-26.7126041" lon="152.8978284">
<ele>377.966</ele>
<time>2015-12-27T04:45:36.501Z</time>
</trkpt>
<trkpt lat="-26.7123541" lon="152.8976575">
<ele>380.028</ele>
<time>2015-12-27T04:45:38.697Z</time>
</trkpt>
<trkpt lat="-26.7121601" lon="152.8977849">
<ele>382.452</ele>
<time>2015-12-27T04:45:40.521Z</time>
</trkpt>
<trkpt lat="-26.7116051" lon="152.8981249">
<ele>385.461</ele>
<time>2015-12-27T04:45:45.663Z</time>
</trkpt>
<trkpt lat="-26.7111444" lon="152.8982984">
<ele>388.545</ele>
<time>2015-12-27T04:45:48.755Z</time>
</trkpt>
<trkpt lat="-26.7107399" lon="152.8984438">
<ele>390.795</ele>
<time>2015-12-27T04:45:51.591Z</time>
</trkpt>
<trkpt lat="-26.7104469" lon="152.8985479">
<ele>391.266</ele>
<time>2015-12-27T04:45:54.000Z</time>
</trkpt>
<trkpt lat="-26.7104469" lon="152.8985479">
<ele>389.932</ele>
<time>2015-12-27T04:46:00.000Z</time>
</trkpt>
<trkpt lat="-26.7104469" lon="152.8985479">
<ele>388.512</ele>
<time>2015-12-27T04:46:00.834Z</time>
</trkpt>
<trkpt lat="-26.7102065" lon="152.8986964">
<ele>388.344</ele>
<time>2015-12-27T04:46:07.977Z</time>
</trkpt>
<trkpt lat="-26.7100621" lon="152.8987704">
<ele>388.004</ele>
<time>2015-12-27T04:46:09.489Z</time>
</trkpt>
<trkpt lat="-26.7096455" lon="152.8990471">
<ele>386.131</ele>
<time>2015-12-27T04:46:13.286Z</time>
</trkpt>
<trkpt lat="-26.7091518" lon="152.8993717">
<ele>384.475</ele>
<time>2015-12-27T04:46:16.940Z</time>
</trkpt>
<trkpt lat="-26.7088547" lon="152.8995722">
<ele>385.175</ele>
<time>2015-12-27T04:46:19.036Z</time>
</trkpt>
<trkpt lat="-26.7083420" lon="152.8998019">
<ele>387.432</ele>
<time>2015-12-27T04:46:21.977Z</time>
</trkpt>
<trkpt lat="-26.7079314" lon="152.8999279">
<ele>388.721</ele>
<time>2015-12-27T04:46:24.169Z</time>
</trkpt>
<trkpt lat="-26.7073849" lon="152.9000120">
<ele>387.603</ele>
<time>2015-12-27T04:46:27.151Z</time>
</trkpt>
<trkpt lat="-26.7070273" lon="152.9000944">
<ele>384.583</ele>
<time>2015-12-27T04:46:29.193Z</time>
</trkpt>
<trkpt lat="-26.7065357" lon="152.9003027">
<ele>381.226</ele>
<time>2015-12-27T04:46:32.237Z</time>
</trkpt>
<trkpt lat="-26.7060979" lon="152.9005909">
<ele>379.200</ele>
<time>2015-12-27T04:46:35.235Z</time>
</trkpt>
<trkpt lat="-26.7058377" lon="152.9008003">
<ele>379.289</ele>
<time>2015-12-27T04:46:37.168Z</time>
</trkpt>
<trkpt lat="-26.7055631" lon="152.9010024">
<ele>380.667</ele>
<time>2015-12-27T04:46:39.163Z</time>
</trkpt>
<trkpt lat="-26.7052924" lon="152.9012082">
<ele>381.986</ele>
<time>2015-12-27T04:46:41.138Z</time>
</trkpt>
<trkpt lat="-26.7048793" lon="152.9015123">
<ele>382.564</ele>
<time>2015-12-27T04:46:44.065Z</time>
</trkpt>
<trkpt lat="-26.7044521" lon="152.9018370">
<ele>382.441</ele>
<time>2015-12-27T04:46:47.155Z</time>
</trkpt>
<trkpt lat="-26.7041770" lon="152.9020548">
<ele>381.944</ele>
<time>2015-12-27T04:46:49.192Z</time>
</trkpt>
<trkpt lat="-26.7039357" lon="152.9023248">
<ele>381.614</ele>
<time>2015-12-27T04:46:51.257Z</time>
</trkpt>
<trkpt lat="-26.7036479" lon="152.9027631">
<ele>381.748</ele>
<time>2015-12-27T04:46:54.172Z</time>
</trkpt>
<trkpt lat="-26.7033966" lon="152.9032734">
<ele>382.374</ele>
<time>2015-12-27T04:46:57.352Z</time>
</trkpt>
<trkpt lat="-26.7032102" lon="152.9035629">
<ele>383.977</ele>
<time>2015-12-27T04:46:59.392Z</time>
</trkpt>
<trkpt lat="-26.7029932" lon="152.9037759">
<ele>386.603</ele>
<time>2015-12-27T04:47:01.231Z</time>
</trkpt>
<trkpt lat="-26.7026644" lon="152.9038776">
<ele>389.147</ele>
<time>2015-12-27T04:47:03.374Z</time>
</trkpt>
<trkpt lat="-26.7021515" lon="152.9039059">
<ele>390.832</ele>
<time>2015-12-27T04:47:06.487Z</time>
</trkpt>
<trkpt lat="-26.7016873" lon="152.9040867">
<ele>391.765</ele>
<time>2015-12-27T04:47:09.415Z</time>
</trkpt>
<trkpt lat="-26.7012409" lon="152.9043056">
<ele>391.539</ele>
<time>2015-12-27T04:47:12.288Z</time>
</trkpt>
<trkpt lat="-26.7009439" lon="152.9044460">
<ele>389.332</ele>
<time>2015-12-27T04:47:14.177Z</time>
</trkpt>
<trkpt lat="-26.7004721" lon="152.9046830">
<ele>385.463</ele>
<time>2015-12-27T04:47:17.167Z</time>
</trkpt>
<trkpt lat="-26.6999867" lon="152.9048885">
<ele>381.734</ele>
<time>2015-12-27T04:47:20.134Z</time>
</trkpt>
<trkpt lat="-26.6996283" lon="152.9049393">
<ele>380.139</ele>
<time>2015-12-27T04:47:22.181Z</time>
</trkpt>
<trkpt lat="-26.6990966" lon="152.9048552">
<ele>381.612</ele>
<time>2015-12-27T04:47:25.254Z</time>
</trkpt>
<trkpt lat="-26.6985835" lon="152.9048077">
<ele>385.463</ele>
<time>2015-12-27T04:47:28.309Z</time>
</trkpt>
<trkpt lat="-26.6982512" lon="152.9047463">
<ele>389.821</ele>
<time>2015-12-27T04:47:30.346Z</time>
</trkpt>
<trkpt lat="-26.6977771" lon="152.9046365">
<ele>392.914</ele>
<time>2015-12-27T04:47:33.446Z</time>
</trkpt>
<trkpt lat="-26.6974872" lon="152.9045574">
<ele>393.786</ele>
<time>2015-12-27T04:47:35.397Z</time>
</trkpt>
<trkpt lat="-26.6972158" lon="152.9044114">
<ele>391.942</ele>
<time>2015-12-27T04:47:37.356Z</time>
</trkpt>
<trkpt lat="-26.6969555" lon="152.9039484">
<ele>387.912</ele>
<time>2015-12-27T04:47:40.462Z</time>
</trkpt>
<trkpt lat="-26.6968564" lon="152.9036138">
<ele>383.524</ele>
<time>2015-12-27T04:47:42.453Z</time>
</trkpt>
<trkpt lat="-26.6966806" lon="152.9030890">
<ele>380.380</ele>
<time>2015-12-27T04:47:45.670Z</time>
</trkpt>
<trkpt lat="-26.6964704" lon="152.9026398">
<ele>378.922</ele>
<time>2015-12-27T04:47:48.626Z</time>
</trkpt>
<trkpt lat="-26.6962717" lon="152.9023804">
<ele>378.870</ele>
<time>2015-12-27T04:47:50.614Z</time>
</trkpt>
<trkpt lat="-26.6959292" lon="152.9020385">
<ele>379.713</ele>
<time>2015-12-27T04:47:53.604Z</time>
</trkpt>
<trkpt lat="-26.6957045" lon="152.9017896">
<ele>380.871</ele>
<time>2015-12-27T04:47:55.620Z</time>
</trkpt>
<trkpt lat="-26.6955172" lon="152.9015185">
<ele>381.686</ele>
<time>2015-12-27T04:47:57.515Z</time>
</trkpt>
<trkpt lat="-26.6953815" lon="152.9011739">
<ele>381.706</ele>
<time>2015-12-27T04:47:59.579Z</time>
</trkpt>
<trkpt lat="-26.6951663" lon="152.9006711">
<ele>381.069</ele>
<time>2015-12-27T04:48:02.770Z</time>
</trkpt>
<trkpt lat="-26.6949632" lon="152.9002237">
<ele>380.593</ele>
<time>2015-12-27T04:48:05.805Z</time>
</trkpt>
<trkpt lat="-26.6948309" lon="152.8999378">
<ele>380.845</ele>
<time>2015-12-27T04:48:07.755Z</time>
</trkpt>
<trkpt lat="-26.6946254" lon="152.8994989">
<ele>381.725</ele>
<time>2015-12-27T04:48:10.756Z</time>
</trkpt>
<trkpt lat="-26.6944835" lon="152.8992121">
<ele>383.339</ele>
<time>2015-12-27T04:48:12.733Z</time>
</trkpt>
<trkpt lat="-26.6943468" lon="152.8989275">
<ele>385.661</ele>
<time>2015-12-27T04:48:14.682Z</time>
</trkpt>
<trkpt lat="-26.6941502" lon="152.8984875">
<ele>388.170</ele>
<time>2015-12-27T04:48:17.651Z</time>
</trkpt>
<trkpt lat="-26.6939731" lon="152.8980419">
<ele>390.281</ele>
<time>2015-12-27T04:48:20.619Z</time>
</trkpt>
<trkpt lat="-26.6937773" lon="152.8976036">
<ele>391.420</ele>
<time>2015-12-27T04:48:23.702Z</time>
</trkpt>
<trkpt lat="-26.6936271" lon="152.8971831">
<ele>390.950</ele>
<time>2015-12-27T04:48:26.797Z</time>
</trkpt>
<trkpt lat="-26.6935561" lon="152.8969091">
<ele>388.636</ele>
<time>2015-12-27T04:48:28.834Z</time>
</trkpt>
<trkpt lat="-26.6934351" lon="152.8965510">
<ele>385.245</ele>
<time>2015-12-27T04:48:31.625Z</time>
</trkpt>
<trkpt lat="-26.6932342" lon="152.8962004">
<ele>382.331</ele>
<time>2015-12-27T04:48:34.705Z</time>
</trkpt>
<trkpt lat="-26.6930015" lon="152.8959231">
<ele>381.018</ele>
<time>2015-12-27T04:48:37.661Z</time>
</trkpt>
<trkpt lat="-26.6928355" lon="152.8957479">
<ele>381.444</ele>
<time>2015-12-27T04:48:39.862Z</time>
</trkpt>
<trkpt lat="-26.6925963" lon="152.8955198">
<ele>383.061</ele>
<time>2015-12-27T04:48:43.980Z</time>
</trkpt>
<trkpt lat="-26.6924625" lon="152.8953324">
<ele>384.940</ele>
<time>2015-12-27T04:48:47.862Z</time>
</trkpt>
<trkpt lat="-26.6924716" lon="152.8951647">
<ele>386.045</ele>
<time>2015-12-27T04:48:50.157Z</time>
</trkpt>
<trkpt lat="-26.6925817" lon="152.8950268">
<ele>386.077</ele>
<time>2015-12-27T04:48:52.336Z</time>
</trkpt>
<trkpt lat="-26.6926950" lon="152.8947457">
<ele>385.967</ele>
<time>2015-12-27T04:48:55.466Z</time>
</trkpt>
<trkpt lat="-26.6927429" lon="152.8945217">
<ele>386.808</ele>
<time>2015-12-27T04:48:57.713Z</time>
</trkpt>
<trkpt lat="-26.6928152" lon="152.8942085">
<ele>388.419</ele>
<time>2015-12-27T04:49:00.933Z</time>
</trkpt>
<trkpt lat="-26.6928767" lon="152.8940080">
<ele>389.879</ele>
<time>2015-12-27T04:49:03.049Z</time>
</trkpt>
<trkpt lat="-26.6929262" lon="152.8938247">
<ele>390.954</ele>
<time>2015-12-27T04:49:04.939Z</time>
</trkpt>
<trkpt lat="-26.6929642" lon="152.8936348">
<ele>391.987</ele>
<time>2015-12-27T04:49:06.654Z</time>
</trkpt>
<trkpt lat="-26.6929922" lon="152.8933369">
<ele>393.243</ele>
<time>2015-12-27T04:49:09.093Z</time>
</trkpt>
<trkpt lat="-26.6931211" lon="152.8929471">
<ele>395.049</ele>
<time>2015-12-27T04:49:12.017Z</time>
</trkpt>
<trkpt lat="-26.6932007" lon="152.8926323">
<ele>397.238</ele>
<time>2015-12-27T04:49:14.202Z</time>
</trkpt>
<trkpt lat="-26.6932909" lon="152.8923577">
<ele>398.981</ele>
<time>2015-12-27T04:49:16.161Z</time>
</trkpt>
<trkpt lat="-26.6933473" lon="152.8920659">
<ele>399.816</ele>
<time>2015-12-27T04:49:18.127Z</time>
</trkpt>
<trkpt lat="-26.6933657" lon="152.8916178">
<ele>400.018</ele>
<time>2015-12-27T04:49:20.996Z</time>
</trkpt>
<trkpt lat="-26.6933328" lon="152.8910981">
<ele>399.789</ele>
<time>2015-12-27T04:49:24.247Z</time>
</trkpt>
<trkpt lat="-26.6932817" lon="152.8907906">
<ele>398.907</ele>
<time>2015-12-27T04:49:26.288Z</time>
</trkpt>
<trkpt lat="-26.6932082" lon="152.8903314">
<ele>397.368</ele>
<time>2015-12-27T04:49:29.474Z</time>
</trkpt>
<trkpt lat="-26.6932155" lon="152.8900509">
<ele>395.908</ele>
<time>2015-12-27T04:49:31.356Z</time>
</trkpt>
<trkpt lat="-26.6933822" lon="152.8896132">
<ele>395.398</ele>
<time>2015-12-27T04:49:34.385Z</time>
</trkpt>
<trkpt lat="-26.6934540" lon="152.8893272">
<ele>396.304</ele>
<time>2015-12-27T04:49:36.213Z</time>
</trkpt>
<trkpt lat="-26.6934760" lon="152.8888333">
<ele>398.268</ele>
<time>2015-12-27T04:49:39.236Z</time>
</trkpt>
<trkpt lat="-26.6934389" lon="152.8883514">
<ele>400.384</ele>
<time>2015-12-27T04:49:42.295Z</time>
</trkpt>
<trkpt lat="-26.6934189" lon="152.8880369">
<ele>402.011</ele>
<time>2015-12-27T04:49:44.350Z</time>
</trkpt>
<trkpt lat="-26.6933686" lon="152.8877446">
<ele>402.775</ele>
<time>2015-12-27T04:49:46.260Z</time>
</trkpt>
<trkpt lat="-26.6932649" lon="152.8874417">
<ele>402.644</ele>
<time>2015-12-27T04:49:48.307Z</time>
</trkpt>
<trkpt lat="-26.6929854" lon="152.8870927">
<ele>402.111</ele>
<time>2015-12-27T04:49:51.224Z</time>
</trkpt>
<trkpt lat="-26.6926959" lon="152.8867455">
<ele>401.644</ele>
<time>2015-12-27T04:49:54.166Z</time>
</trkpt>
<trkpt lat="-26.6923933" lon="152.8864028">
<ele>401.780</ele>
<time>2015-12-27T04:49:57.171Z</time>
</trkpt>
<trkpt lat="-26.6921450" lon="152.8860163">
<ele>403.058</ele>
<time>2015-12-27T04:50:00.161Z</time>
</trkpt>
<trkpt lat="-26.6919334" lon="152.8856049">
<ele>405.012</ele>
<time>2015-12-27T04:50:03.143Z</time>
</trkpt>
<trkpt lat="-26.6918036" lon="152.8853219">
<ele>406.526</ele>
<time>2015-12-27T04:50:05.140Z</time>
</trkpt>
<trkpt lat="-26.6915930" lon="152.8849138">
<ele>407.217</ele>
<time>2015-12-27T04:50:08.107Z</time>
</trkpt>
<trkpt lat="-26.6914698" lon="152.8846243">
<ele>407.419</ele>
<time>2015-12-27T04:50:10.134Z</time>
</trkpt>
<trkpt lat="-26.6912683" lon="152.8842232">
<ele>407.516</ele>
<time>2015-12-27T04:50:13.066Z</time>
</trkpt>
<trkpt lat="-26.6911360" lon="152.8839512">
<ele>407.663</ele>
<time>2015-12-27T04:50:15.078Z</time>
</trkpt>
<trkpt lat="-26.6909740" lon="152.8835283">
<ele>407.723</ele>
<time>2015-12-27T04:50:18.216Z</time>
</trkpt>
<trkpt lat="-26.6909322" lon="152.8832448">
<ele>407.544</ele>
<time>2015-12-27T04:50:20.269Z</time>
</trkpt>
<trkpt lat="-26.6909019" lon="152.8829480">
<ele>407.078</ele>
<time>2015-12-27T04:50:22.399Z</time>
</trkpt>
<trkpt lat="-26.6908246" lon="152.8825588">
<ele>406.289</ele>
<time>2015-12-27T04:50:25.198Z</time>
</trkpt>
<trkpt lat="-26.6907156" lon="152.8822728">
<ele>405.375</ele>
<time>2015-12-27T04:50:27.325Z</time>
</trkpt>
<trkpt lat="-26.6904528" lon="152.8819666">
<ele>404.827</ele>
<time>2015-12-27T04:50:30.085Z</time>
</trkpt>
<trkpt lat="-26.6902299" lon="152.8817719">
<ele>404.932</ele>
<time>2015-12-27T04:50:32.082Z</time>
</trkpt>
<trkpt lat="-26.6899055" lon="152.8814654">
<ele>405.696</ele>
<time>2015-12-27T04:50:35.037Z</time>
</trkpt>
<trkpt lat="-26.6895863" lon="152.8811412">
<ele>406.814</ele>
<time>2015-12-27T04:50:38.067Z</time>
</trkpt>
<trkpt lat="-26.6894193" lon="152.8808930">
<ele>407.639</ele>
<time>2015-12-27T04:50:39.983Z</time>
</trkpt>
<trkpt lat="-26.6893212" lon="152.8805880">
<ele>407.807</ele>
<time>2015-12-27T04:50:41.981Z</time>
</trkpt>
<trkpt lat="-26.6892335" lon="152.8801176">
<ele>407.570</ele>
<time>2015-12-27T04:50:44.983Z</time>
</trkpt>
<trkpt lat="-26.6891266" lon="152.8798351">
<ele>407.302</ele>
<time>2015-12-27T04:50:46.896Z</time>
</trkpt>
<trkpt lat="-26.6888734" lon="152.8794733">
<ele>407.008</ele>
<time>2015-12-27T04:50:49.710Z</time>
</trkpt>
<trkpt lat="-26.6885171" lon="152.8791536">
<ele>406.566</ele>
<time>2015-12-27T04:50:52.779Z</time>
</trkpt>
<trkpt lat="-26.6881816" lon="152.8788503">
<ele>406.158</ele>
<time>2015-12-27T04:50:55.691Z</time>
</trkpt>
<trkpt lat="-26.6879570" lon="152.8786489">
<ele>405.823</ele>
<time>2015-12-27T04:50:57.673Z</time>
</trkpt>
<trkpt lat="-26.6876194" lon="152.8783247">
<ele>405.349</ele>
<time>2015-12-27T04:51:00.940Z</time>
</trkpt>
<trkpt lat="-26.6874729" lon="152.8780870">
<ele>404.811</ele>
<time>2015-12-27T04:51:02.881Z</time>
</trkpt>
<trkpt lat="-26.6873475" lon="152.8778489">
<ele>404.447</ele>
<time>2015-12-27T04:51:04.726Z</time>
</trkpt>
<trkpt lat="-26.6871643" lon="152.8774477">
<ele>404.371</ele>
<time>2015-12-27T04:51:07.667Z</time>
</trkpt>
<trkpt lat="-26.6870091" lon="152.8772080">
<ele>404.723</ele>
<time>2015-12-27T04:51:09.554Z</time>
</trkpt>
<trkpt lat="-26.6866738" lon="152.8768900">
<ele>405.646</ele>
<time>2015-12-27T04:51:12.563Z</time>
</trkpt>
<trkpt lat="-26.6864565" lon="152.8766692">
<ele>407.099</ele>
<time>2015-12-27T04:51:14.559Z</time>
</trkpt>
<trkpt lat="-26.6861416" lon="152.8763391">
<ele>408.815</ele>
<time>2015-12-27T04:51:17.488Z</time>
</trkpt>
<trkpt lat="-26.6859205" lon="152.8761172">
<ele>410.371</ele>
<time>2015-12-27T04:51:19.507Z</time>
</trkpt>
<trkpt lat="-26.6856937" lon="152.8758997">
<ele>411.410</ele>
<time>2015-12-27T04:51:21.555Z</time>
</trkpt>
<trkpt lat="-26.6853796" lon="152.8755727">
<ele>412.049</ele>
<time>2015-12-27T04:51:24.541Z</time>
</trkpt>
<trkpt lat="-26.6850726" lon="152.8752536">
<ele>412.592</ele>
<time>2015-12-27T04:51:27.459Z</time>
</trkpt>
<trkpt lat="-26.6848336" lon="152.8748546">
<ele>413.253</ele>
<time>2015-12-27T04:51:30.478Z</time>
</trkpt>
<trkpt lat="-26.6846734" lon="152.8745940">
<ele>414.751</ele>
<time>2015-12-27T04:51:32.479Z</time>
</trkpt>
<trkpt lat="-26.6843444" lon="152.8743113">
<ele>417.541</ele>
<time>2015-12-27T04:51:35.442Z</time>
</trkpt>
<trkpt lat="-26.6840911" lon="152.8741882">
<ele>420.679</ele>
<time>2015-12-27T04:51:37.417Z</time>
</trkpt>
<trkpt lat="-26.6838164" lon="152.8741112">
<ele>422.884</ele>
<time>2015-12-27T04:51:39.419Z</time>
</trkpt>
<trkpt lat="-26.6835785" lon="152.8739267">
<ele>423.670</ele>
<time>2015-12-27T04:51:41.437Z</time>
</trkpt>
<trkpt lat="-26.6832624" lon="152.8736264">
<ele>423.326</ele>
<time>2015-12-27T04:51:44.206Z</time>
</trkpt>
<trkpt lat="-26.6830511" lon="152.8733620">
<ele>422.194</ele>
<time>2015-12-27T04:51:46.350Z</time>
</trkpt>
<trkpt lat="-26.6828635" lon="152.8730878">
<ele>420.533</ele>
<time>2015-12-27T04:51:48.510Z</time>
</trkpt>
<trkpt lat="-26.6827099" lon="152.8728056">
<ele>418.815</ele>
<time>2015-12-27T04:51:50.591Z</time>
</trkpt>
<trkpt lat="-26.6825771" lon="152.8723521">
<ele>417.481</ele>
<time>2015-12-27T04:51:53.532Z</time>
</trkpt>
<trkpt lat="-26.6824865" lon="152.8720625">
<ele>416.841</ele>
<time>2015-12-27T04:51:55.392Z</time>
</trkpt>
<trkpt lat="-26.6824047" lon="152.8715762">
<ele>416.967</ele>
<time>2015-12-27T04:51:58.373Z</time>
</trkpt>
<trkpt lat="-26.6823658" lon="152.8712270">
<ele>416.976</ele>
<time>2015-12-27T04:52:00.517Z</time>
</trkpt>
<trkpt lat="-26.6823125" lon="152.8708814">
<ele>416.051</ele>
<time>2015-12-27T04:52:02.686Z</time>
</trkpt>
<trkpt lat="-26.6822380" lon="152.8704199">
<ele>414.493</ele>
<time>2015-12-27T04:52:05.715Z</time>
</trkpt>
<trkpt lat="-26.6821738" lon="152.8701373">
<ele>412.965</ele>
<time>2015-12-27T04:52:07.781Z</time>
</trkpt>
<trkpt lat="-26.6821220" lon="152.8698464">
<ele>411.464</ele>
<time>2015-12-27T04:52:10.136Z</time>
</trkpt>
<trkpt lat="-26.6820925" lon="152.8694669">
<ele>409.573</ele>
<time>2015-12-27T04:52:14.045Z</time>
</trkpt>
<trkpt lat="-26.6820448" lon="152.8692092">
<ele>407.361</ele>
<time>2015-12-27T04:52:17.618Z</time>
</trkpt>
<trkpt lat="-26.6819793" lon="152.8689890">
<ele>405.009</ele>
<time>2015-12-27T04:52:21.206Z</time>
</trkpt>
<trkpt lat="-26.6819306" lon="152.8688667">
<ele>402.624</ele>
<time>2015-12-27T04:52:23.312Z</time>
</trkpt>
<trkpt lat="-26.6818854" lon="152.8687438">
<ele>400.838</ele>
<time>2015-12-27T04:52:25.369Z</time>
</trkpt>
<trkpt lat="-26.6818013" lon="152.8685836">
<ele>400.115</ele>
<time>2015-12-27T04:52:28.031Z</time>
</trkpt>
<trkpt lat="-26.6817133" lon="152.8684396">
<ele>400.066</ele>
<time>2015-12-27T04:52:30.360Z</time>
</trkpt>
<trkpt lat="-26.6816404" lon="152.8682408">
<ele>400.266</ele>
<time>2015-12-27T04:52:33.261Z</time>
</trkpt>
<trkpt lat="-26.6815874" lon="152.8681031">
<ele>400.493</ele>
<time>2015-12-27T04:52:35.362Z</time>
</trkpt>
<trkpt lat="-26.6815461" lon="152.8679546">
<ele>400.618</ele>
<time>2015-12-27T04:52:37.766Z</time>
</trkpt>
<trkpt lat="-26.6815134" lon="152.8677390">
<ele>400.506</ele>
<time>2015-12-27T04:52:40.798Z</time>
</trkpt>
<trkpt lat="-26.6816105" lon="152.8676203">
<ele>400.067</ele>
<time>2015-12-27T04:52:42.602Z</time>
</trkpt>
<trkpt lat="-26.6817381" lon="152.8675976">
<ele>399.334</ele>
<time>2015-12-27T04:52:43.915Z</time>
</trkpt>
<trkpt lat="-26.6820087" lon="152.8675524">
<ele>398.418</ele>
<time>2015-12-27T04:52:46.429Z</time>
</trkpt>
<trkpt lat="-26.6823645" lon="152.8674815">
<ele>397.193</ele>
<time>2015-12-27T04:52:49.349Z</time>
</trkpt>
<trkpt lat="-26.6826013" lon="152.8674361">
<ele>395.013</ele>
<time>2015-12-27T04:52:51.178Z</time>
</trkpt>
<trkpt lat="-26.6828703" lon="152.8674047">
<ele>391.376</ele>
<time>2015-12-27T04:52:53.200Z</time>
</trkpt>
<trkpt lat="-26.6832592" lon="152.8673443">
<ele>386.775</ele>
<time>2015-12-27T04:52:56.065Z</time>
</trkpt>
<trkpt lat="-26.6836414" lon="152.8672400">
<ele>381.582</ele>
<time>2015-12-27T04:52:58.924Z</time>
</trkpt>
<trkpt lat="-26.6838887" lon="152.8671345">
<ele>375.220</ele>
<time>2015-12-27T04:53:00.847Z</time>
</trkpt>
<trkpt lat="-26.6841301" lon="152.8669990">
<ele>367.936</ele>
<time>2015-12-27T04:53:02.818Z</time>
</trkpt>
<trkpt lat="-26.6843599" lon="152.8668254">
<ele>361.194</ele>
<time>2015-12-27T04:53:04.859Z</time>
</trkpt>
<trkpt lat="-26.6846712" lon="152.8665823">
<ele>355.649</ele>
<time>2015-12-27T04:53:07.677Z</time>
</trkpt>
<trkpt lat="-26.6850167" lon="152.8663997">
<ele>350.472</ele>
<time>2015-12-27T04:53:10.434Z</time>
</trkpt>
<trkpt lat="-26.6854226" lon="152.8662458">
<ele>344.131</ele>
<time>2015-12-27T04:53:13.418Z</time>
</trkpt>
<trkpt lat="-26.6856484" lon="152.8661378">
<ele>335.943</ele>
<time>2015-12-27T04:53:15.092Z</time>
</trkpt>
<trkpt lat="-26.6859897" lon="152.8659928">
<ele>327.252</ele>
<time>2015-12-27T04:53:17.553Z</time>
</trkpt>
<trkpt lat="-26.6862899" lon="152.8659301">
<ele>319.512</ele>
<time>2015-12-27T04:53:19.534Z</time>
</trkpt>
<trkpt lat="-26.6866334" lon="152.8658774">
<ele>312.765</ele>
<time>2015-12-27T04:53:21.715Z</time>
</trkpt>
<trkpt lat="-26.6871124" lon="152.8659742">
<ele>306.696</ele>
<time>2015-12-27T04:53:24.774Z</time>
</trkpt>
<trkpt lat="-26.6873759" lon="152.8659908">
<ele>300.911</ele>
<time>2015-12-27T04:53:26.481Z</time>
</trkpt>
<trkpt lat="-26.6878345" lon="152.8659603">
<ele>295.239</ele>
<time>2015-12-27T04:53:29.505Z</time>
</trkpt>
<trkpt lat="-26.6882628" lon="152.8659927">
<ele>289.596</ele>
<time>2015-12-27T04:53:32.361Z</time>
</trkpt>
<trkpt lat="-26.6885467" lon="152.8660646">
<ele>283.563</ele>
<time>2015-12-27T04:53:34.251Z</time>
</trkpt>
<trkpt lat="-26.6888161" lon="152.8662348">
<ele>277.523</ele>
<time>2015-12-27T04:53:36.201Z</time>
</trkpt>
<trkpt lat="-26.6891209" lon="152.8666516">
<ele>272.480</ele>
<time>2015-12-27T04:53:39.207Z</time>
</trkpt>
<trkpt lat="-26.6892130" lon="152.8670049">
<ele>268.314</ele>
<time>2015-12-27T04:53:41.325Z</time>
</trkpt>
<trkpt lat="-26.6893421" lon="152.8674696">
<ele>264.551</ele>
<time>2015-12-27T04:53:44.242Z</time>
</trkpt>
<trkpt lat="-26.6895329" lon="152.8678396">
<ele>261.278</ele>
<time>2015-12-27T04:53:46.935Z</time>
</trkpt>
<trkpt lat="-26.6896223" lon="152.8681001">
<ele>258.899</ele>
<time>2015-12-27T04:53:48.762Z</time>
</trkpt>
<trkpt lat="-26.6897615" lon="152.8685201">
<ele>257.809</ele>
<time>2015-12-27T04:53:51.724Z</time>
</trkpt>
<trkpt lat="-26.6899131" lon="152.8689222">
<ele>258.248</ele>
<time>2015-12-27T04:53:54.613Z</time>
</trkpt>
<trkpt lat="-26.6900333" lon="152.8691831">
<ele>260.172</ele>
<time>2015-12-27T04:53:56.576Z</time>
</trkpt>
<trkpt lat="-26.6902756" lon="152.8695835">
<ele>263.062</ele>
<time>2015-12-27T04:53:59.841Z</time>
</trkpt>
<trkpt lat="-26.6904648" lon="152.8697687">
<ele>265.993</ele>
<time>2015-12-27T04:54:01.831Z</time>
</trkpt>
<trkpt lat="-26.6907065" lon="152.8700634">
<ele>268.349</ele>
<time>2015-12-27T04:54:04.763Z</time>
</trkpt>
<trkpt lat="-26.6908712" lon="152.8702604">
<ele>270.045</ele>
<time>2015-12-27T04:54:06.728Z</time>
</trkpt>
<trkpt lat="-26.6912381" lon="152.8704870">
<ele>271.150</ele>
<time>2015-12-27T04:54:10.004Z</time>
</trkpt>
<trkpt lat="-26.6915033" lon="152.8706198">
<ele>271.720</ele>
<time>2015-12-27T04:54:12.203Z</time>
</trkpt>
<trkpt lat="-26.6917358" lon="152.8706013">
<ele>271.768</ele>
<time>2015-12-27T04:54:13.970Z</time>
</trkpt>
<trkpt lat="-26.6920589" lon="152.8705788">
<ele>271.248</ele>
<time>2015-12-27T04:54:16.317Z</time>
</trkpt>
<trkpt lat="-26.6925303" lon="152.8705496">
<ele>270.077</ele>
<time>2015-12-27T04:54:19.609Z</time>
</trkpt>
<trkpt lat="-26.6927723" lon="152.8705500">
<ele>268.106</ele>
<time>2015-12-27T04:54:21.317Z</time>
</trkpt>
<trkpt lat="-26.6932104" lon="152.8704237">
<ele>265.090</ele>
<time>2015-12-27T04:54:24.622Z</time>
</trkpt>
<trkpt lat="-26.6935906" lon="152.8703304">
<ele>261.150</ele>
<time>2015-12-27T04:54:27.581Z</time>
</trkpt>
<trkpt lat="-26.6938601" lon="152.8702454">
<ele>256.911</ele>
<time>2015-12-27T04:54:29.614Z</time>
</trkpt>
<trkpt lat="-26.6942720" lon="152.8700928">
<ele>253.371</ele>
<time>2015-12-27T04:54:32.658Z</time>
</trkpt>
<trkpt lat="-26.6945485" lon="152.8699768">
<ele>251.263</ele>
<time>2015-12-27T04:54:34.679Z</time>
</trkpt>
<trkpt lat="-26.6949606" lon="152.8698587">
<ele>250.136</ele>
<time>2015-12-27T04:54:37.546Z</time>
</trkpt>
<trkpt lat="-26.6952575" lon="152.8698080">
<ele>248.766</ele>
<time>2015-12-27T04:54:39.560Z</time>
</trkpt>
<trkpt lat="-26.6956336" lon="152.8697525">
<ele>246.532</ele>
<time>2015-12-27T04:54:42.226Z</time>
</trkpt>
<trkpt lat="-26.6958534" lon="152.8698395">
<ele>243.446</ele>
<time>2015-12-27T04:54:44.008Z</time>
</trkpt>
<trkpt lat="-26.6962029" lon="152.8700711">
<ele>239.997</ele>
<time>2015-12-27T04:54:47.093Z</time>
</trkpt>
<trkpt lat="-26.6964389" lon="152.8702961">
<ele>237.099</ele>
<time>2015-12-27T04:54:49.243Z</time>
</trkpt>
<trkpt lat="-26.6968343" lon="152.8705418">
<ele>235.199</ele>
<time>2015-12-27T04:54:52.249Z</time>
</trkpt>
<trkpt lat="-26.6971245" lon="152.8706714">
<ele>233.331</ele>
<time>2015-12-27T04:54:54.295Z</time>
</trkpt>
<trkpt lat="-26.6975762" lon="152.8707129">
<ele>230.488</ele>
<time>2015-12-27T04:54:57.307Z</time>
</trkpt>
<trkpt lat="-26.6978477" lon="152.8707152">
<ele>226.390</ele>
<time>2015-12-27T04:54:59.185Z</time>
</trkpt>
<trkpt lat="-26.6981233" lon="152.8705358">
<ele>221.639</ele>
<time>2015-12-27T04:55:01.489Z</time>
</trkpt>
<trkpt lat="-26.6983197" lon="152.8704357">
<ele>217.818</ele>
<time>2015-12-27T04:55:03.177Z</time>
</trkpt>
<trkpt lat="-26.6985745" lon="152.8701341">
<ele>216.187</ele>
<time>2015-12-27T04:55:06.323Z</time>
</trkpt>
<trkpt lat="-26.6986900" lon="152.8699597">
<ele>216.625</ele>
<time>2015-12-27T04:55:08.408Z</time>
</trkpt>
<trkpt lat="-26.6987914" lon="152.8697858">
<ele>218.275</ele>
<time>2015-12-27T04:55:10.926Z</time>
</trkpt>
<trkpt lat="-26.6988992" lon="152.8698208">
<ele>219.932</ele>
<time>2015-12-27T04:55:13.045Z</time>
</trkpt>
<trkpt lat="-26.6989806" lon="152.8698690">
<ele>220.839</ele>
<time>2015-12-27T04:55:15.661Z</time>
</trkpt>
<trkpt lat="-26.6990677" lon="152.8699115">
<ele>221.058</ele>
<time>2015-12-27T04:55:18.498Z</time>
</trkpt>
<trkpt lat="-26.6991511" lon="152.8699638">
<ele>220.931</ele>
<time>2015-12-27T04:55:21.658Z</time>
</trkpt>
<trkpt lat="-26.6992349" lon="152.8700619">
<ele>220.726</ele>
<time>2015-12-27T04:55:25.491Z</time>
</trkpt>
<trkpt lat="-26.6993233" lon="152.8701814">
<ele>220.483</ele>
<time>2015-12-27T04:55:28.940Z</time>
</trkpt>
<trkpt lat="-26.6994094" lon="152.8702737">
<ele>220.038</ele>
<time>2015-12-27T04:55:32.031Z</time>
</trkpt>
<trkpt lat="-26.6994640" lon="152.8703601">
<ele>219.312</ele>
<time>2015-12-27T04:55:35.632Z</time>
</trkpt>
<trkpt lat="-26.6995380" lon="152.8704621">
<ele>218.563</ele>
<time>2015-12-27T04:55:40.110Z</time>
</trkpt>
<trkpt lat="-26.6996154" lon="152.8706455">
<ele>218.106</ele>
<time>2015-12-27T04:55:46.636Z</time>
</trkpt>
<trkpt lat="-26.6997067" lon="152.8707250">
<ele>218.004</ele>
<time>2015-12-27T04:55:49.521Z</time>
</trkpt>
<trkpt lat="-26.6997990" lon="152.8707956">
<ele>218.198</ele>
<time>2015-12-27T04:55:52.438Z</time>
</trkpt>
<trkpt lat="-26.6998538" lon="152.8709374">
<ele>218.650</ele>
<time>2015-12-27T04:55:56.753Z</time>
</trkpt>
<trkpt lat="-26.6998892" lon="152.8710751">
<ele>219.419</ele>
<time>2015-12-27T04:55:59.913Z</time>
</trkpt>
<trkpt lat="-26.6999004" lon="152.8711820">
<ele>220.765</ele>
<time>2015-12-27T04:56:02.093Z</time>
</trkpt>
<trkpt lat="-26.6999326" lon="152.8713307">
<ele>222.694</ele>
<time>2015-12-27T04:56:04.836Z</time>
</trkpt>
<trkpt lat="-26.6999763" lon="152.8714282">
<ele>224.665</ele>
<time>2015-12-27T04:56:06.656Z</time>
</trkpt>
<trkpt lat="-26.7000475" lon="152.8716123">
<ele>226.167</ele>
<time>2015-12-27T04:56:10.365Z</time>
</trkpt>
<trkpt lat="-26.7001278" lon="152.8716975">
<ele>227.258</ele>
<time>2015-12-27T04:56:13.055Z</time>
</trkpt>
<trkpt lat="-26.7002085" lon="152.8717645">
<ele>228.376</ele>
<time>2015-12-27T04:56:16.262Z</time>
</trkpt>
<trkpt lat="-26.7002930" lon="152.8717266">
<ele>229.587</ele>
<time>2015-12-27T04:56:20.000Z</time>
</trkpt>
<trkpt lat="-26.7002930" lon="152.8717266">
<ele>230.440</ele>
<time>2015-12-27T04:56:28.000Z</time>
</trkpt>
<trkpt lat="-26.7002930" lon="152.8717266">
<ele>230.680</ele>
<time>2015-12-27T04:56:57.136Z</time>
</trkpt>
<trkpt lat="-26.7002421" lon="152.8715445">
<ele>230.455</ele>
<time>2015-12-27T04:57:07.624Z</time>
</trkpt>
<trkpt lat="-26.7001711" lon="152.8714758">
<ele>230.046</ele>
<time>2015-12-27T04:57:10.447Z</time>
</trkpt>
<trkpt lat="-26.7000819" lon="152.8713873">
<ele>229.605</ele>
<time>2015-12-27T04:57:13.592Z</time>
</trkpt>
<trkpt lat="-26.7000215" lon="152.8712725">
<ele>228.990</ele>
<time>2015-12-27T04:57:16.630Z</time>
</trkpt>
<trkpt lat="-26.6999755" lon="152.8711608">
<ele>228.030</ele>
<time>2015-12-27T04:57:19.724Z</time>
</trkpt>
<trkpt lat="-26.6999610" lon="152.8710590">
<ele>226.758</ele>
<time>2015-12-27T04:57:22.518Z</time>
</trkpt>
<trkpt lat="-26.6999518" lon="152.8709435">
<ele>225.292</ele>
<time>2015-12-27T04:57:25.711Z</time>
</trkpt>
<trkpt lat="-26.6999511" lon="152.8708293">
<ele>223.693</ele>
<time>2015-12-27T04:57:28.652Z</time>
</trkpt>
<trkpt lat="-26.6998843" lon="152.8707303">
<ele>222.053</ele>
<time>2015-12-27T04:57:31.326Z</time>
</trkpt>
<trkpt lat="-26.6998053" lon="152.8706652">
<ele>220.713</ele>
<time>2015-12-27T04:57:33.368Z</time>
</trkpt>
<trkpt lat="-26.6996609" lon="152.8705694">
<ele>219.920</ele>
<time>2015-12-27T04:57:36.533Z</time>
</trkpt>
<trkpt lat="-26.6996117" lon="152.8704667">
<ele>219.553</ele>
<time>2015-12-27T04:57:38.364Z</time>
</trkpt>
<trkpt lat="-26.6995158" lon="152.8703020">
<ele>219.426</ele>
<time>2015-12-27T04:57:41.253Z</time>
</trkpt>
<trkpt lat="-26.6994448" lon="152.8701975">
<ele>219.464</ele>
<time>2015-12-27T04:57:43.017Z</time>
</trkpt>
<trkpt lat="-26.6993613" lon="152.8700840">
<ele>219.640</ele>
<time>2015-12-27T04:57:44.787Z</time>
</trkpt>
<trkpt lat="-26.6992020" lon="152.8698930">
<ele>219.980</ele>
<time>2015-12-27T04:57:47.876Z</time>
</trkpt>
<trkpt lat="-26.6990894" lon="152.8698699">
<ele>220.640</ele>
<time>2015-12-27T04:57:49.562Z</time>
</trkpt>
<trkpt lat="-26.6989912" lon="152.8697797">
<ele>221.580</ele>
<time>2015-12-27T04:57:51.852Z</time>
</trkpt>
<trkpt lat="-26.6989084" lon="152.8697213">
<ele>222.302</ele>
<time>2015-12-27T04:57:54.000Z</time>
</trkpt>
<trkpt lat="-26.6989084" lon="152.8697213">
<ele>222.472</ele>
<time>2015-12-27T04:57:58.000Z</time>
</trkpt>
<trkpt lat="-26.6989084" lon="152.8697213">
<ele>222.312</ele>
<time>2015-12-27T05:01:07.708Z</time>
</trkpt>
<trkpt lat="-26.6987067" lon="152.8698086">
<ele>222.148</ele>
<time>2015-12-27T05:01:14.486Z</time>
</trkpt>
<trkpt lat="-26.6985182" lon="152.8701047">
<ele>222.290</ele>
<time>2015-12-27T05:01:17.916Z</time>
</trkpt>
<trkpt lat="-26.6983283" lon="152.8703259">
<ele>222.794</ele>
<time>2015-12-27T05:01:20.080Z</time>
</trkpt>
<trkpt lat="-26.6980706" lon="152.8705213">
<ele>223.121</ele>
<time>2015-12-27T05:01:22.331Z</time>
</trkpt>
<trkpt lat="-26.6975884" lon="152.8706793">
<ele>222.759</ele>
<time>2015-12-27T05:01:25.565Z</time>
</trkpt>
<trkpt lat="-26.6972552" lon="152.8706791">
<ele>221.991</ele>
<time>2015-12-27T05:01:27.543Z</time>
</trkpt>
<trkpt lat="-26.6967378" lon="152.8705907">
<ele>221.762</ele>
<time>2015-12-27T05:01:30.721Z</time>
</trkpt>
<trkpt lat="-26.6963521" lon="152.8703376">
<ele>223.170</ele>
<time>2015-12-27T05:01:33.624Z</time>
</trkpt>
<trkpt lat="-26.6961452" lon="152.8700873">
<ele>226.567</ele>
<time>2015-12-27T05:01:35.714Z</time>
</trkpt>
<trkpt lat="-26.6959183" lon="152.8699028">
<ele>231.037</ele>
<time>2015-12-27T05:01:37.732Z</time>
</trkpt>
<trkpt lat="-26.6956867" lon="152.8697113">
<ele>235.128</ele>
<time>2015-12-27T05:01:39.874Z</time>
</trkpt>
<trkpt lat="-26.6953119" lon="152.8695594">
<ele>238.030</ele>
<time>2015-12-27T05:01:42.830Z</time>
</trkpt>
<trkpt lat="-26.6950078" lon="152.8695498">
<ele>240.120</ele>
<time>2015-12-27T05:01:44.817Z</time>
</trkpt>
<trkpt lat="-26.6946070" lon="152.8697652">
<ele>242.356</ele>
<time>2015-12-27T05:01:47.481Z</time>
</trkpt>
<trkpt lat="-26.6940920" lon="152.8699851">
<ele>245.224</ele>
<time>2015-12-27T05:01:50.679Z</time>
</trkpt>
<trkpt lat="-26.6935991" lon="152.8701581">
<ele>248.665</ele>
<time>2015-12-27T05:01:53.737Z</time>
</trkpt>
<trkpt lat="-26.6931328" lon="152.8703172">
<ele>252.293</ele>
<time>2015-12-27T05:01:56.577Z</time>
</trkpt>
<trkpt lat="-26.6925751" lon="152.8704886">
<ele>255.576</ele>
<time>2015-12-27T05:01:59.897Z</time>
</trkpt>
<trkpt lat="-26.6920609" lon="152.8705374">
<ele>258.628</ele>
<time>2015-12-27T05:02:02.854Z</time>
</trkpt>
<trkpt lat="-26.6916966" lon="152.8705346">
<ele>262.310</ele>
<time>2015-12-27T05:02:04.974Z</time>
</trkpt>
<trkpt lat="-26.6912318" lon="152.8703833">
<ele>266.835</ele>
<time>2015-12-27T05:02:07.860Z</time>
</trkpt>
<trkpt lat="-26.6908536" lon="152.8700048">
<ele>271.536</ele>
<time>2015-12-27T05:02:10.936Z</time>
</trkpt>
<trkpt lat="-26.6904713" lon="152.8696795">
<ele>275.555</ele>
<time>2015-12-27T05:02:13.881Z</time>
</trkpt>
<trkpt lat="-26.6902642" lon="152.8694170">
<ele>278.112</ele>
<time>2015-12-27T05:02:15.743Z</time>
</trkpt>
<trkpt lat="-26.6900093" lon="152.8689314">
<ele>278.891</ele>
<time>2015-12-27T05:02:18.571Z</time>
</trkpt>
<trkpt lat="-26.6897598" lon="152.8683793">
<ele>278.237</ele>
<time>2015-12-27T05:02:21.529Z</time>
</trkpt>
<trkpt lat="-26.6895817" lon="152.8679975">
<ele>276.326</ele>
<time>2015-12-27T05:02:23.621Z</time>
</trkpt>
<trkpt lat="-26.6893529" lon="152.8674628">
<ele>273.291</ele>
<time>2015-12-27T05:02:26.672Z</time>
</trkpt>
<trkpt lat="-26.6892381" lon="152.8671379">
<ele>269.865</ele>
<time>2015-12-27T05:02:28.526Z</time>
</trkpt>
<trkpt lat="-26.6890009" lon="152.8666534">
<ele>267.038</ele>
<time>2015-12-27T05:02:31.568Z</time>
</trkpt>
<trkpt lat="-26.6886369" lon="152.8662740">
<ele>265.349</ele>
<time>2015-12-27T05:02:34.867Z</time>
</trkpt>
<trkpt lat="-26.6884145" lon="152.8660753">
<ele>265.146</ele>
<time>2015-12-27T05:02:36.768Z</time>
</trkpt>
<trkpt lat="-26.6881420" lon="152.8659279">
<ele>266.602</ele>
<time>2015-12-27T05:02:38.752Z</time>
</trkpt>
<trkpt lat="-26.6876578" lon="152.8658454">
<ele>269.482</ele>
<time>2015-12-27T05:02:41.778Z</time>
</trkpt>
<trkpt lat="-26.6873218" lon="152.8658606">
<ele>273.622</ele>
<time>2015-12-27T05:02:43.807Z</time>
</trkpt>
<trkpt lat="-26.6868002" lon="152.8658643">
<ele>278.961</ele>
<time>2015-12-27T05:02:46.968Z</time>
</trkpt>
<trkpt lat="-26.6863245" lon="152.8658228">
<ele>285.239</ele>
<time>2015-12-27T05:02:49.931Z</time>
</trkpt>
<trkpt lat="-26.6859944" lon="152.8658389">
<ele>291.897</ele>
<time>2015-12-27T05:02:52.075Z</time>
</trkpt>
<trkpt lat="-26.6856859" lon="152.8659104">
<ele>298.023</ele>
<time>2015-12-27T05:02:54.230Z</time>
</trkpt>
<trkpt lat="-26.6852894" lon="152.8660718">
<ele>303.009</ele>
<time>2015-12-27T05:02:57.320Z</time>
</trkpt>
<trkpt lat="-26.6849381" lon="152.8662515">
<ele>307.902</ele>
<time>2015-12-27T05:03:00.349Z</time>
</trkpt>
<trkpt lat="-26.6847028" lon="152.8663681">
<ele>314.079</ele>
<time>2015-12-27T05:03:02.477Z</time>
</trkpt>
<trkpt lat="-26.6844800" lon="152.8664806">
<ele>321.242</ele>
<time>2015-12-27T05:03:04.614Z</time>
</trkpt>
<trkpt lat="-26.6841782" lon="152.8666696">
<ele>327.927</ele>
<time>2015-12-27T05:03:07.831Z</time>
</trkpt>
<trkpt lat="-26.6839510" lon="152.8668920">
<ele>333.699</ele>
<time>2015-12-27T05:03:10.810Z</time>
</trkpt>
<trkpt lat="-26.6837136" lon="152.8670785">
<ele>339.435</ele>
<time>2015-12-27T05:03:13.696Z</time>
</trkpt>
<trkpt lat="-26.6835360" lon="152.8671616">
<ele>345.738</ele>
<time>2015-12-27T05:03:15.553Z</time>
</trkpt>
<trkpt lat="-26.6833404" lon="152.8672272">
<ele>351.723</ele>
<time>2015-12-27T05:03:17.457Z</time>
</trkpt>
<trkpt lat="-26.6831366" lon="152.8672779">
<ele>356.530</ele>
<time>2015-12-27T05:03:19.275Z</time>
</trkpt>
<trkpt lat="-26.6829133" lon="152.8673221">
<ele>360.587</ele>
<time>2015-12-27T05:03:21.207Z</time>
</trkpt>
<trkpt lat="-26.6825540" lon="152.8673733">
<ele>364.678</ele>
<time>2015-12-27T05:03:24.268Z</time>
</trkpt>
<trkpt lat="-26.6822021" lon="152.8674181">
<ele>369.412</ele>
<time>2015-12-27T05:03:27.305Z</time>
</trkpt>
<trkpt lat="-26.6819820" lon="152.8674656">
<ele>375.295</ele>
<time>2015-12-27T05:03:29.408Z</time>
</trkpt>
<trkpt lat="-26.6816604" lon="152.8675189">
<ele>381.484</ele>
<time>2015-12-27T05:03:33.435Z</time>
</trkpt>
<trkpt lat="-26.6813866" lon="152.8675608">
<ele>387.047</ele>
<time>2015-12-27T05:03:39.855Z</time>
</trkpt>
<trkpt lat="-26.6812832" lon="152.8676182">
<ele>392.355</ele>
<time>2015-12-27T05:03:42.063Z</time>
</trkpt>
<trkpt lat="-26.6812499" lon="152.8677120">
<ele>396.981</ele>
<time>2015-12-27T05:03:43.076Z</time>
</trkpt>
<trkpt lat="-26.6813779" lon="152.8679848">
<ele>399.706</ele>
<time>2015-12-27T05:03:45.541Z</time>
</trkpt>
<trkpt lat="-26.6814699" lon="152.8682260">
<ele>400.961</ele>
<time>2015-12-27T05:03:47.340Z</time>
</trkpt>
<trkpt lat="-26.6816416" lon="152.8686677">
<ele>402.118</ele>
<time>2015-12-27T05:03:50.171Z</time>
</trkpt>
<trkpt lat="-26.6818553" lon="152.8691687">
<ele>403.957</ele>
<time>2015-12-27T05:03:53.237Z</time>
</trkpt>
<trkpt lat="-26.6819596" lon="152.8695118">
<ele>406.278</ele>
<time>2015-12-27T05:03:55.214Z</time>
</trkpt>
<trkpt lat="-26.6820123" lon="152.8698344">
<ele>408.234</ele>
<time>2015-12-27T05:03:56.995Z</time>
</trkpt>
<trkpt lat="-26.6821329" lon="152.8703756">
<ele>409.383</ele>
<time>2015-12-27T05:03:59.940Z</time>
</trkpt>
<trkpt lat="-26.6822529" lon="152.8709256">
<ele>410.381</ele>
<time>2015-12-27T05:04:02.883Z</time>
</trkpt>
<trkpt lat="-26.6823281" lon="152.8715028">
<ele>412.052</ele>
<time>2015-12-27T05:04:05.973Z</time>
</trkpt>
<trkpt lat="-26.6823919" lon="152.8720456">
<ele>414.412</ele>
<time>2015-12-27T05:04:09.040Z</time>
</trkpt>
<trkpt lat="-26.6824475" lon="152.8723993">
<ele>416.677</ele>
<time>2015-12-27T05:04:11.150Z</time>
</trkpt>
<trkpt lat="-26.6826076" lon="152.8728696">
<ele>418.035</ele>
<time>2015-12-27T05:04:14.208Z</time>
</trkpt>
<trkpt lat="-26.6827716" lon="152.8731206">
<ele>418.317</ele>
<time>2015-12-27T05:04:16.024Z</time>
</trkpt>
<trkpt lat="-26.6831184" lon="152.8735106">
<ele>417.988</ele>
<time>2015-12-27T05:04:19.091Z</time>
</trkpt>
<trkpt lat="-26.6833453" lon="152.8737654">
<ele>417.954</ele>
<time>2015-12-27T05:04:21.160Z</time>
</trkpt>
<trkpt lat="-26.6836843" lon="152.8741059">
<ele>418.751</ele>
<time>2015-12-27T05:04:24.176Z</time>
</trkpt>
<trkpt lat="-26.6839588" lon="152.8742579">
<ele>420.060</ele>
<time>2015-12-27T05:04:26.202Z</time>
</trkpt>
<trkpt lat="-26.6842635" lon="152.8743498">
<ele>421.443</ele>
<time>2015-12-27T05:04:28.307Z</time>
</trkpt>
<trkpt lat="-26.6846561" lon="152.8745829">
<ele>422.633</ele>
<time>2015-12-27T05:04:31.307Z</time>
</trkpt>
<trkpt lat="-26.6849210" lon="152.8749888">
<ele>423.321</ele>
<time>2015-12-27T05:04:34.234Z</time>
</trkpt>
<trkpt lat="-26.6850652" lon="152.8752840">
<ele>423.321</ele>
<time>2015-12-27T05:04:36.147Z</time>
</trkpt>
<trkpt lat="-26.6854174" lon="152.8756516">
<ele>422.366</ele>
<time>2015-12-27T05:04:39.123Z</time>
</trkpt>
<trkpt lat="-26.6857530" lon="152.8760362">
<ele>420.284</ele>
<time>2015-12-27T05:04:42.089Z</time>
</trkpt>
<trkpt lat="-26.6861095" lon="152.8763749">
<ele>417.529</ele>
<time>2015-12-27T05:04:45.020Z</time>
</trkpt>
<trkpt lat="-26.6864565" lon="152.8767383">
<ele>415.133</ele>
<time>2015-12-27T05:04:48.072Z</time>
</trkpt>
<trkpt lat="-26.6866817" lon="152.8769633">
<ele>413.596</ele>
<time>2015-12-27T05:04:50.026Z</time>
</trkpt>
<trkpt lat="-26.6870133" lon="152.8773127">
<ele>412.480</ele>
<time>2015-12-27T05:04:53.097Z</time>
</trkpt>
<trkpt lat="-26.6872560" lon="152.8777065">
<ele>411.438</ele>
<time>2015-12-27T05:04:56.091Z</time>
</trkpt>
<trkpt lat="-26.6874216" lon="152.8781590">
<ele>410.299</ele>
<time>2015-12-27T05:04:59.045Z</time>
</trkpt>
<trkpt lat="-26.6875705" lon="152.8784425">
<ele>408.840</ele>
<time>2015-12-27T05:05:00.909Z</time>
</trkpt>
<trkpt lat="-26.6878510" lon="152.8786907">
<ele>407.429</ele>
<time>2015-12-27T05:05:03.112Z</time>
</trkpt>
<trkpt lat="-26.6882252" lon="152.8790244">
<ele>406.805</ele>
<time>2015-12-27T05:05:06.082Z</time>
</trkpt>
<trkpt lat="-26.6885965" lon="152.8793571">
<ele>407.060</ele>
<time>2015-12-27T05:05:09.225Z</time>
</trkpt>
<trkpt lat="-26.6888200" lon="152.8795677">
<ele>407.602</ele>
<time>2015-12-27T05:05:11.228Z</time>
</trkpt>
<trkpt lat="-26.6890092" lon="152.8797965">
<ele>407.934</ele>
<time>2015-12-27T05:05:13.164Z</time>
</trkpt>
<trkpt lat="-26.6891796" lon="152.8802384">
<ele>408.060</ele>
<time>2015-12-27T05:05:16.130Z</time>
</trkpt>
<trkpt lat="-26.6892160" lon="152.8805548">
<ele>408.086</ele>
<time>2015-12-27T05:05:18.087Z</time>
</trkpt>
<trkpt lat="-26.6893093" lon="152.8808597">
<ele>407.964</ele>
<time>2015-12-27T05:05:20.014Z</time>
</trkpt>
<trkpt lat="-26.6894721" lon="152.8811362">
<ele>407.692</ele>
<time>2015-12-27T05:05:21.931Z</time>
</trkpt>
<trkpt lat="-26.6897021" lon="152.8813763">
<ele>407.449</ele>
<time>2015-12-27T05:05:23.940Z</time>
</trkpt>
<trkpt lat="-26.6900575" lon="152.8817270">
<ele>407.536</ele>
<time>2015-12-27T05:05:26.960Z</time>
</trkpt>
<trkpt lat="-26.6904069" lon="152.8820637">
<ele>408.308</ele>
<time>2015-12-27T05:05:29.994Z</time>
</trkpt>
<trkpt lat="-26.6907115" lon="152.8824264">
<ele>409.578</ele>
<time>2015-12-27T05:05:33.100Z</time>
</trkpt>
<trkpt lat="-26.6908469" lon="152.8828601">
<ele>410.369</ele>
<time>2015-12-27T05:05:35.936Z</time>
</trkpt>
<trkpt lat="-26.6908784" lon="152.8831839">
<ele>410.179</ele>
<time>2015-12-27T05:05:37.876Z</time>
</trkpt>
<trkpt lat="-26.6909921" lon="152.8836922">
<ele>409.479</ele>
<time>2015-12-27T05:05:40.766Z</time>
</trkpt>
<trkpt lat="-26.6911353" lon="152.8840239">
<ele>408.991</ele>
<time>2015-12-27T05:05:42.707Z</time>
</trkpt>
<trkpt lat="-26.6912981" lon="152.8843663">
<ele>409.137</ele>
<time>2015-12-27T05:05:44.717Z</time>
</trkpt>
<trkpt lat="-26.6915371" lon="152.8848701">
<ele>409.973</ele>
<time>2015-12-27T05:05:47.639Z</time>
</trkpt>
<trkpt lat="-26.6917815" lon="152.8853819">
<ele>411.113</ele>
<time>2015-12-27T05:05:50.634Z</time>
</trkpt>
<trkpt lat="-26.6919436" lon="152.8857201">
<ele>411.996</ele>
<time>2015-12-27T05:05:52.652Z</time>
</trkpt>
<trkpt lat="-26.6921171" lon="152.8860395">
<ele>412.223</ele>
<time>2015-12-27T05:05:54.635Z</time>
</trkpt>
<trkpt lat="-26.6924438" lon="152.8864776">
<ele>411.732</ele>
<time>2015-12-27T05:05:57.692Z</time>
</trkpt>
<trkpt lat="-26.6927677" lon="152.8868908">
<ele>410.822</ele>
<time>2015-12-27T05:06:00.712Z</time>
</trkpt>
<trkpt lat="-26.6931016" lon="152.8872779">
<ele>409.905</ele>
<time>2015-12-27T05:06:03.769Z</time>
</trkpt>
<trkpt lat="-26.6932948" lon="152.8875445">
<ele>408.810</ele>
<time>2015-12-27T05:06:05.794Z</time>
</trkpt>
<trkpt lat="-26.6933629" lon="152.8880349">
<ele>407.274</ele>
<time>2015-12-27T05:06:08.684Z</time>
</trkpt>
<trkpt lat="-26.6933908" lon="152.8884112">
<ele>405.785</ele>
<time>2015-12-27T05:06:10.824Z</time>
</trkpt>
<trkpt lat="-26.6934386" lon="152.8889345">
<ele>404.946</ele>
<time>2015-12-27T05:06:13.966Z</time>
</trkpt>
<trkpt lat="-26.6934114" lon="152.8892721">
<ele>404.645</ele>
<time>2015-12-27T05:06:16.099Z</time>
</trkpt>
<trkpt lat="-26.6933665" lon="152.8896109">
<ele>404.402</ele>
<time>2015-12-27T05:06:18.311Z</time>
</trkpt>
<trkpt lat="-26.6932090" lon="152.8900047">
<ele>403.841</ele>
<time>2015-12-27T05:06:21.148Z</time>
</trkpt>
<trkpt lat="-26.6931633" lon="152.8904370">
<ele>402.666</ele>
<time>2015-12-27T05:06:23.763Z</time>
</trkpt>
<trkpt lat="-26.6932127" lon="152.8909952">
<ele>401.091</ele>
<time>2015-12-27T05:06:26.885Z</time>
</trkpt>
<trkpt lat="-26.6932851" lon="152.8915247">
<ele>399.881</ele>
<time>2015-12-27T05:06:30.056Z</time>
</trkpt>
<trkpt lat="-26.6933050" lon="152.8918087">
<ele>399.442</ele>
<time>2015-12-27T05:06:31.866Z</time>
</trkpt>
<trkpt lat="-26.6932820" lon="152.8921135">
<ele>399.532</ele>
<time>2015-12-27T05:06:33.785Z</time>
</trkpt>
<trkpt lat="-26.6932165" lon="152.8924361">
<ele>399.936</ele>
<time>2015-12-27T05:06:35.782Z</time>
</trkpt>
<trkpt lat="-26.6931227" lon="152.8927588">
<ele>400.824</ele>
<time>2015-12-27T05:06:37.802Z</time>
</trkpt>
<trkpt lat="-26.6929877" lon="152.8932162">
<ele>402.093</ele>
<time>2015-12-27T05:06:40.731Z</time>
</trkpt>
<trkpt lat="-26.6929072" lon="152.8935233">
<ele>403.077</ele>
<time>2015-12-27T05:06:42.681Z</time>
</trkpt>
<trkpt lat="-26.6928353" lon="152.8938410">
<ele>403.364</ele>
<time>2015-12-27T05:06:44.649Z</time>
</trkpt>
<trkpt lat="-26.6927325" lon="152.8943379">
<ele>402.906</ele>
<time>2015-12-27T05:06:47.804Z</time>
</trkpt>
<trkpt lat="-26.6926613" lon="152.8946646">
<ele>401.383</ele>
<time>2015-12-27T05:06:50.226Z</time>
</trkpt>
<trkpt lat="-26.6925635" lon="152.8950000">
<ele>398.845</ele>
<time>2015-12-27T05:06:55.201Z</time>
</trkpt>
<trkpt lat="-26.6924987" lon="152.8951351">
<ele>395.822</ele>
<time>2015-12-27T05:07:00.292Z</time>
</trkpt>
<trkpt lat="-26.6924387" lon="152.8952468">
<ele>392.595</ele>
<time>2015-12-27T05:07:02.926Z</time>
</trkpt>
<trkpt lat="-26.6924183" lon="152.8953492">
<ele>389.524</ele>
<time>2015-12-27T05:07:04.073Z</time>
</trkpt>
<trkpt lat="-26.6925522" lon="152.8955340">
<ele>387.381</ele>
<time>2015-12-27T05:07:06.088Z</time>
</trkpt>
<trkpt lat="-26.6927884" lon="152.8957268">
<ele>386.769</ele>
<time>2015-12-27T05:07:08.375Z</time>
</trkpt>
<trkpt lat="-26.6931092" lon="152.8960436">
<ele>387.484</ele>
<time>2015-12-27T05:07:11.207Z</time>
</trkpt>
<trkpt lat="-26.6933004" lon="152.8962965">
<ele>388.497</ele>
<time>2015-12-27T05:07:13.125Z</time>
</trkpt>
<trkpt lat="-26.6934506" lon="152.8965899">
<ele>388.935</ele>
<time>2015-12-27T05:07:15.102Z</time>
</trkpt>
<trkpt lat="-26.6935167" lon="152.8969298">
<ele>388.647</ele>
<time>2015-12-27T05:07:17.196Z</time>
</trkpt>
<trkpt lat="-26.6936035" lon="152.8972597">
<ele>387.806</ele>
<time>2015-12-27T05:07:19.297Z</time>
</trkpt>
<trkpt lat="-26.6937741" lon="152.8976806">
<ele>386.817</ele>
<time>2015-12-27T05:07:22.096Z</time>
</trkpt>
<trkpt lat="-26.6939795" lon="152.8981360">
<ele>386.540</ele>
<time>2015-12-27T05:07:25.062Z</time>
</trkpt>
<trkpt lat="-26.6941275" lon="152.8984482">
<ele>387.982</ele>
<time>2015-12-27T05:07:27.089Z</time>
</trkpt>
<trkpt lat="-26.6942613" lon="152.8987493">
<ele>391.062</ele>
<time>2015-12-27T05:07:29.008Z</time>
</trkpt>
<trkpt lat="-26.6944813" lon="152.8992221">
<ele>394.261</ele>
<time>2015-12-27T05:07:32.047Z</time>
</trkpt>
<trkpt lat="-26.6946107" lon="152.8995314">
<ele>396.153</ele>
<time>2015-12-27T05:07:33.959Z</time>
</trkpt>
<trkpt lat="-26.6947586" lon="152.8998530">
<ele>396.352</ele>
<time>2015-12-27T05:07:35.933Z</time>
</trkpt>
<trkpt lat="-26.6948995" lon="152.9001713">
<ele>395.137</ele>
<time>2015-12-27T05:07:37.853Z</time>
</trkpt>
<trkpt lat="-26.6950509" lon="152.9005062">
<ele>393.188</ele>
<time>2015-12-27T05:07:39.887Z</time>
</trkpt>
<trkpt lat="-26.6952722" lon="152.9009954">
<ele>391.103</ele>
<time>2015-12-27T05:07:42.995Z</time>
</trkpt>
<trkpt lat="-26.6953929" lon="152.9012957">
<ele>388.640</ele>
<time>2015-12-27T05:07:44.901Z</time>
</trkpt>
<trkpt lat="-26.6955519" lon="152.9016050">
<ele>385.743</ele>
<time>2015-12-27T05:07:46.925Z</time>
</trkpt>
<trkpt lat="-26.6957291" lon="152.9018711">
<ele>383.378</ele>
<time>2015-12-27T05:07:48.764Z</time>
</trkpt>
<trkpt lat="-26.6960844" lon="152.9022602">
<ele>382.545</ele>
<time>2015-12-27T05:07:51.746Z</time>
</trkpt>
<trkpt lat="-26.6963360" lon="152.9025144">
<ele>383.358</ele>
<time>2015-12-27T05:07:53.781Z</time>
</trkpt>
<trkpt lat="-26.6966123" lon="152.9029428">
<ele>385.004</ele>
<time>2015-12-27T05:07:56.594Z</time>
</trkpt>
<trkpt lat="-26.6967604" lon="152.9032960">
<ele>386.158</ele>
<time>2015-12-27T05:07:58.610Z</time>
</trkpt>
<trkpt lat="-26.6968423" lon="152.9036918">
<ele>386.275</ele>
<time>2015-12-27T05:08:00.684Z</time>
</trkpt>
<trkpt lat="-26.6970370" lon="152.9042531">
<ele>385.760</ele>
<time>2015-12-27T05:08:03.963Z</time>
</trkpt>
<trkpt lat="-26.6973787" lon="152.9045969">
<ele>385.105</ele>
<time>2015-12-27T05:08:06.994Z</time>
</trkpt>
<trkpt lat="-26.6977740" lon="152.9048129">
<ele>384.609</ele>
<time>2015-12-27T05:08:09.788Z</time>
</trkpt>
<trkpt lat="-26.6982659" lon="152.9048934">
<ele>385.019</ele>
<time>2015-12-27T05:08:12.811Z</time>
</trkpt>
<trkpt lat="-26.6987841" lon="152.9049083">
<ele>387.424</ele>
<time>2015-12-27T05:08:15.975Z</time>
</trkpt>
<trkpt lat="-26.6992694" lon="152.9049520">
<ele>391.236</ele>
<time>2015-12-27T05:08:18.981Z</time>
</trkpt>
<trkpt lat="-26.6997967" lon="152.9049286">
<ele>394.076</ele>
<time>2015-12-27T05:08:22.185Z</time>
</trkpt>
<trkpt lat="-26.7001025" lon="152.9048874">
<ele>394.313</ele>
<time>2015-12-27T05:08:24.021Z</time>
</trkpt>
<trkpt lat="-26.7005822" lon="152.9047158">
<ele>392.021</ele>
<time>2015-12-27T05:08:26.969Z</time>
</trkpt>
<trkpt lat="-26.7010406" lon="152.9044917">
<ele>388.138</ele>
<time>2015-12-27T05:08:29.976Z</time>
</trkpt>
<trkpt lat="-26.7014694" lon="152.9042469">
<ele>384.262</ele>
<time>2015-12-27T05:08:32.888Z</time>
</trkpt>
<trkpt lat="-26.7017550" lon="152.9040561">
<ele>381.890</ele>
<time>2015-12-27T05:08:34.901Z</time>
</trkpt>
<trkpt lat="-26.7022078" lon="152.9038691">
<ele>381.800</ele>
<time>2015-12-27T05:08:37.961Z</time>
</trkpt>
<trkpt lat="-26.7026580" lon="152.9037972">
<ele>384.221</ele>
<time>2015-12-27T05:08:40.983Z</time>
</trkpt>
<trkpt lat="-26.7030882" lon="152.9036252">
<ele>388.172</ele>
<time>2015-12-27T05:08:43.998Z</time>
</trkpt>
<trkpt lat="-26.7033465" lon="152.9034082">
<ele>391.525</ele>
<time>2015-12-27T05:08:46.057Z</time>
</trkpt>
<trkpt lat="-26.7036087" lon="152.9029455">
<ele>393.105</ele>
<time>2015-12-27T05:08:48.939Z</time>
</trkpt>
<trkpt lat="-26.7037779" lon="152.9026071">
<ele>393.132</ele>
<time>2015-12-27T05:08:50.920Z</time>
</trkpt>
<trkpt lat="-26.7039805" lon="152.9022871">
<ele>391.999</ele>
<time>2015-12-27T05:08:52.918Z</time>
</trkpt>
<trkpt lat="-26.7042338" lon="152.9020412">
<ele>389.957</ele>
<time>2015-12-27T05:08:54.843Z</time>
</trkpt>
<trkpt lat="-26.7046496" lon="152.9017168">
<ele>387.636</ele>
<time>2015-12-27T05:08:57.747Z</time>
</trkpt>
<trkpt lat="-26.7050888" lon="152.9013682">
<ele>385.978</ele>
<time>2015-12-27T05:09:00.772Z</time>
</trkpt>
<trkpt lat="-26.7053946" lon="152.9011542">
<ele>385.333</ele>
<time>2015-12-27T05:09:02.803Z</time>
</trkpt>
<trkpt lat="-26.7056771" lon="152.9009329">
<ele>385.346</ele>
<time>2015-12-27T05:09:04.756Z</time>
</trkpt>
<trkpt lat="-26.7061095" lon="152.9005911">
<ele>385.553</ele>
<time>2015-12-27T05:09:07.751Z</time>
</trkpt>
<trkpt lat="-26.7064167" lon="152.9003951">
<ele>385.679</ele>
<time>2015-12-27T05:09:09.744Z</time>
</trkpt>
<trkpt lat="-26.7067456" lon="152.9002329">
<ele>385.630</ele>
<time>2015-12-27T05:09:11.772Z</time>
</trkpt>
<trkpt lat="-26.7070931" lon="152.9001128">
<ele>385.317</ele>
<time>2015-12-27T05:09:13.835Z</time>
</trkpt>
<trkpt lat="-26.7076099" lon="152.9000146">
<ele>384.769</ele>
<time>2015-12-27T05:09:16.853Z</time>
</trkpt>
<trkpt lat="-26.7081266" lon="152.8998923">
<ele>383.879</ele>
<time>2015-12-27T05:09:19.947Z</time>
</trkpt>
<trkpt lat="-26.7084339" lon="152.8997908">
<ele>382.637</ele>
<time>2015-12-27T05:09:21.829Z</time>
</trkpt>
<trkpt lat="-26.7089010" lon="152.8995445">
<ele>381.881</ele>
<time>2015-12-27T05:09:24.819Z</time>
</trkpt>
<trkpt lat="-26.7093530" lon="152.8992438">
<ele>382.907</ele>
<time>2015-12-27T05:09:27.842Z</time>
</trkpt>
<trkpt lat="-26.7096380" lon="152.8990586">
<ele>385.659</ele>
<time>2015-12-27T05:09:29.720Z</time>
</trkpt>
<trkpt lat="-26.7099441" lon="152.8988540">
<ele>388.500</ele>
<time>2015-12-27T05:09:31.752Z</time>
</trkpt>
<trkpt lat="-26.7104155" lon="152.8986123">
<ele>390.024</ele>
<time>2015-12-27T05:09:34.697Z</time>
</trkpt>
<trkpt lat="-26.7107552" lon="152.8984922">
<ele>390.288</ele>
<time>2015-12-27T05:09:36.699Z</time>
</trkpt>
<trkpt lat="-26.7110984" lon="152.8983938">
<ele>390.048</ele>
<time>2015-12-27T05:09:38.708Z</time>
</trkpt>
<trkpt lat="-26.7115884" lon="152.8981996">
<ele>390.167</ele>
<time>2015-12-27T05:09:41.714Z</time>
</trkpt>
<trkpt lat="-26.7120892" lon="152.8980154">
<ele>391.236</ele>
<time>2015-12-27T05:09:44.913Z</time>
</trkpt>
<trkpt lat="-26.7123868" lon="152.8979537">
<ele>392.872</ele>
<time>2015-12-27T05:09:46.845Z</time>
</trkpt>
<trkpt lat="-26.7126978" lon="152.8979580">
<ele>393.461</ele>
<time>2015-12-27T05:09:48.853Z</time>
</trkpt>
<trkpt lat="-26.7131301" lon="152.8981363">
<ele>391.957</ele>
<time>2015-12-27T05:09:51.712Z</time>
</trkpt>
<trkpt lat="-26.7134302" lon="152.8986657">
<ele>389.168</ele>
<time>2015-12-27T05:09:54.951Z</time>
</trkpt>
<trkpt lat="-26.7136096" lon="152.8990146">
<ele>386.255</ele>
<time>2015-12-27T05:09:56.975Z</time>
</trkpt>
<trkpt lat="-26.7137971" lon="152.8993212">
<ele>383.107</ele>
<time>2015-12-27T05:09:58.858Z</time>
</trkpt>
<trkpt lat="-26.7140501" lon="152.8995947">
<ele>379.380</ele>
<time>2015-12-27T05:10:00.877Z</time>
</trkpt>
<trkpt lat="-26.7145443" lon="152.8998065">
<ele>375.504</ele>
<time>2015-12-27T05:10:03.977Z</time>
</trkpt>
<trkpt lat="-26.7150325" lon="152.8997991">
<ele>372.450</ele>
<time>2015-12-27T05:10:06.759Z</time>
</trkpt>
<trkpt lat="-26.7154062" lon="152.8996392">
<ele>371.089</ele>
<time>2015-12-27T05:10:08.982Z</time>
</trkpt>
<trkpt lat="-26.7158942" lon="152.8993917">
<ele>371.782</ele>
<time>2015-12-27T05:10:11.907Z</time>
</trkpt>
<trkpt lat="-26.7164540" lon="152.8992434">
<ele>373.733</ele>
<time>2015-12-27T05:10:14.887Z</time>
</trkpt>
<trkpt lat="-26.7170145" lon="152.8990019">
<ele>375.570</ele>
<time>2015-12-27T05:10:17.752Z</time>
</trkpt>
<trkpt lat="-26.7174275" lon="152.8987925">
<ele>376.574</ele>
<time>2015-12-27T05:10:19.851Z</time>
</trkpt>
<trkpt lat="-26.7180144" lon="152.8985007">
<ele>376.735</ele>
<time>2015-12-27T05:10:22.827Z</time>
</trkpt>
<trkpt lat="-26.7186193" lon="152.8983175">
<ele>375.441</ele>
<time>2015-12-27T05:10:25.709Z</time>
</trkpt>
<trkpt lat="-26.7192690" lon="152.8982306">
<ele>371.819</ele>
<time>2015-12-27T05:10:28.705Z</time>
</trkpt>
<trkpt lat="-26.7196984" lon="152.8982720">
<ele>366.969</ele>
<time>2015-12-27T05:10:30.670Z</time>
</trkpt>
<trkpt lat="-26.7201238" lon="152.8983694">
<ele>363.462</ele>
<time>2015-12-27T05:10:32.622Z</time>
</trkpt>
<trkpt lat="-26.7205478" lon="152.8984982">
<ele>362.201</ele>
<time>2015-12-27T05:10:34.566Z</time>
</trkpt>
<trkpt lat="-26.7212043" lon="152.8987428">
<ele>362.118</ele>
<time>2015-12-27T05:10:37.606Z</time>
</trkpt>
<trkpt lat="-26.7216293" lon="152.8989004">
<ele>361.899</ele>
<time>2015-12-27T05:10:39.575Z</time>
</trkpt>
<trkpt lat="-26.7222539" lon="152.8991361">
<ele>360.796</ele>
<time>2015-12-27T05:10:42.505Z</time>
</trkpt>
<trkpt lat="-26.7228812" lon="152.8993530">
<ele>358.816</ele>
<time>2015-12-27T05:10:45.488Z</time>
</trkpt>
<trkpt lat="-26.7235167" lon="152.8995002">
<ele>356.724</ele>
<time>2015-12-27T05:10:48.485Z</time>
</trkpt>
<trkpt lat="-26.7239406" lon="152.8995370">
<ele>355.525</ele>
<time>2015-12-27T05:10:50.475Z</time>
</trkpt>
<trkpt lat="-26.7245722" lon="152.8995402">
<ele>355.961</ele>
<time>2015-12-27T05:10:53.492Z</time>
</trkpt>
<trkpt lat="-26.7249707" lon="152.8995220">
<ele>358.577</ele>
<time>2015-12-27T05:10:55.442Z</time>
</trkpt>
<trkpt lat="-26.7253709" lon="152.8995453">
<ele>363.125</ele>
<time>2015-12-27T05:10:57.400Z</time>
</trkpt>
<trkpt lat="-26.7257765" lon="152.8995955">
<ele>368.467</ele>
<time>2015-12-27T05:10:59.374Z</time>
</trkpt>
<trkpt lat="-26.7264013" lon="152.8996281">
<ele>373.728</ele>
<time>2015-12-27T05:11:02.364Z</time>
</trkpt>
<trkpt lat="-26.7270358" lon="152.8996969">
<ele>378.529</ele>
<time>2015-12-27T05:11:05.400Z</time>
</trkpt>
<trkpt lat="-26.7276571" lon="152.8997688">
<ele>383.148</ele>
<time>2015-12-27T05:11:08.490Z</time>
</trkpt>
<trkpt lat="-26.7280282" lon="152.8998584">
<ele>387.964</ele>
<time>2015-12-27T05:11:10.478Z</time>
</trkpt>
<trkpt lat="-26.7283863" lon="152.8999461">
<ele>391.993</ele>
<time>2015-12-27T05:11:12.406Z</time>
</trkpt>
<trkpt lat="-26.7287515" lon="152.9000591">
<ele>393.949</ele>
<time>2015-12-27T05:11:14.343Z</time>
</trkpt>
<trkpt lat="-26.7293047" lon="152.9003167">
<ele>394.033</ele>
<time>2015-12-27T05:11:17.252Z</time>
</trkpt>
<trkpt lat="-26.7296742" lon="152.9005455">
<ele>393.296</ele>
<time>2015-12-27T05:11:19.165Z</time>
</trkpt>
<trkpt lat="-26.7300807" lon="152.9007920">
<ele>392.424</ele>
<time>2015-12-27T05:11:21.205Z</time>
</trkpt>
<trkpt lat="-26.7306612" lon="152.9011522">
<ele>391.318</ele>
<time>2015-12-27T05:11:24.147Z</time>
</trkpt>
<trkpt lat="-26.7312571" lon="152.9014844">
<ele>389.034</ele>
<time>2015-12-27T05:11:27.137Z</time>
</trkpt>
<trkpt lat="-26.7316591" lon="152.9016788">
<ele>385.116</ele>
<time>2015-12-27T05:11:29.143Z</time>
</trkpt>
<trkpt lat="-26.7320534" lon="152.9018186">
<ele>381.051</ele>
<time>2015-12-27T05:11:31.066Z</time>
</trkpt>
<trkpt lat="-26.7326825" lon="152.9019298">
<ele>378.837</ele>
<time>2015-12-27T05:11:34.058Z</time>
</trkpt>
<trkpt lat="-26.7330956" lon="152.9019316">
<ele>379.104</ele>
<time>2015-12-27T05:11:36.027Z</time>
</trkpt>
<trkpt lat="-26.7337193" lon="152.9018730">
<ele>381.140</ele>
<time>2015-12-27T05:11:39.024Z</time>
</trkpt>
<trkpt lat="-26.7343254" lon="152.9017019">
<ele>384.013</ele>
<time>2015-12-27T05:11:41.998Z</time>
</trkpt>
<trkpt lat="-26.7349443" lon="152.9013864">
<ele>387.269</ele>
<time>2015-12-27T05:11:45.195Z</time>
</trkpt>
<trkpt lat="-26.7353081" lon="152.9011641">
<ele>390.541</ele>
<time>2015-12-27T05:11:47.129Z</time>
</trkpt>
<trkpt lat="-26.7358407" lon="152.9007569">
<ele>393.197</ele>
<time>2015-12-27T05:11:50.088Z</time>
</trkpt>
<trkpt lat="-26.7364066" lon="152.9003471">
<ele>394.772</ele>
<time>2015-12-27T05:11:53.120Z</time>
</trkpt>
<trkpt lat="-26.7367709" lon="152.9000675">
<ele>395.266</ele>
<time>2015-12-27T05:11:55.104Z</time>
</trkpt>
<trkpt lat="-26.7373154" lon="152.8996805">
<ele>394.893</ele>
<time>2015-12-27T05:11:58.031Z</time>
</trkpt>
<trkpt lat="-26.7376796" lon="152.8994317">
<ele>393.394</ele>
<time>2015-12-27T05:11:59.999Z</time>
</trkpt>
<trkpt lat="-26.7380329" lon="152.8991772">
<ele>390.661</ele>
<time>2015-12-27T05:12:01.963Z</time>
</trkpt>
<trkpt lat="-26.7385538" lon="152.8987905">
<ele>387.629</ele>
<time>2015-12-27T05:12:04.911Z</time>
</trkpt>
<trkpt lat="-26.7388771" lon="152.8985055">
<ele>385.555</ele>
<time>2015-12-27T05:12:06.854Z</time>
</trkpt>
<trkpt lat="-26.7392046" lon="152.8981597">
<ele>384.996</ele>
<time>2015-12-27T05:12:08.969Z</time>
</trkpt>
<trkpt lat="-26.7396202" lon="152.8976212">
<ele>386.070</ele>
<time>2015-12-27T05:12:11.985Z</time>
</trkpt>
<trkpt lat="-26.7398429" lon="152.8972514">
<ele>388.723</ele>
<time>2015-12-27T05:12:13.932Z</time>
</trkpt>
<trkpt lat="-26.7400461" lon="152.8968818">
<ele>392.040</ele>
<time>2015-12-27T05:12:15.864Z</time>
</trkpt>
<trkpt lat="-26.7404168" lon="152.8963549">
<ele>394.534</ele>
<time>2015-12-27T05:12:18.892Z</time>
</trkpt>
<trkpt lat="-26.7408146" lon="152.8958938">
<ele>395.456</ele>
<time>2015-12-27T05:12:21.833Z</time>
</trkpt>
<trkpt lat="-26.7410493" lon="152.8955532">
<ele>394.973</ele>
<time>2015-12-27T05:12:23.799Z</time>
</trkpt>
<trkpt lat="-26.7412458" lon="152.8951719">
<ele>393.369</ele>
<time>2015-12-27T05:12:25.819Z</time>
</trkpt>
<trkpt lat="-26.7415552" lon="152.8946304">
<ele>390.856</ele>
<time>2015-12-27T05:12:28.746Z</time>
</trkpt>
<trkpt lat="-26.7418297" lon="152.8942682">
<ele>387.251</ele>
<time>2015-12-27T05:12:30.821Z</time>
</trkpt>
<trkpt lat="-26.7422453" lon="152.8937539">
<ele>382.427</ele>
<time>2015-12-27T05:12:33.788Z</time>
</trkpt>
<trkpt lat="-26.7425235" lon="152.8934192">
<ele>376.660</ele>
<time>2015-12-27T05:12:35.698Z</time>
</trkpt>
<trkpt lat="-26.7428057" lon="152.8930704">
<ele>370.504</ele>
<time>2015-12-27T05:12:37.700Z</time>
</trkpt>
<trkpt lat="-26.7431560" lon="152.8925135">
<ele>364.794</ele>
<time>2015-12-27T05:12:40.665Z</time>
</trkpt>
<trkpt lat="-26.7434290" lon="152.8919044">
<ele>360.652</ele>
<time>2015-12-27T05:12:43.683Z</time>
</trkpt>
<trkpt lat="-26.7435703" lon="152.8914919">
<ele>359.254</ele>
<time>2015-12-27T05:12:45.629Z</time>
</trkpt>
<trkpt lat="-26.7436952" lon="152.8910566">
<ele>361.018</ele>
<time>2015-12-27T05:12:47.689Z</time>
</trkpt>
<trkpt lat="-26.7438983" lon="152.8904725">
<ele>364.857</ele>
<time>2015-12-27T05:12:50.584Z</time>
</trkpt>
<trkpt lat="-26.7442102" lon="152.8899561">
<ele>369.109</ele>
<time>2015-12-27T05:12:53.465Z</time>
</trkpt>
<trkpt lat="-26.7446842" lon="152.8895592">
<ele>372.918</ele>
<time>2015-12-27T05:12:56.384Z</time>
</trkpt>
<trkpt lat="-26.7450758" lon="152.8893255">
<ele>376.511</ele>
<time>2015-12-27T05:12:58.423Z</time>
</trkpt>
<trkpt lat="-26.7456856" lon="152.8890182">
<ele>380.256</ele>
<time>2015-12-27T05:13:01.422Z</time>
</trkpt>
<trkpt lat="-26.7462988" lon="152.8887150">
<ele>383.687</ele>
<time>2015-12-27T05:13:04.448Z</time>
</trkpt>
<trkpt lat="-26.7468775" lon="152.8884016">
<ele>386.000</ele>
<time>2015-12-27T05:13:07.473Z</time>
</trkpt>
<trkpt lat="-26.7472414" lon="152.8882107">
<ele>387.015</ele>
<time>2015-12-27T05:13:09.512Z</time>
</trkpt>
<trkpt lat="-26.7477771" lon="152.8880745">
<ele>387.285</ele>
<time>2015-12-27T05:13:12.465Z</time>
</trkpt>
<trkpt lat="-26.7481247" lon="152.8880446">
<ele>387.707</ele>
<time>2015-12-27T05:13:14.473Z</time>
</trkpt>
<trkpt lat="-26.7486264" lon="152.8880988">
<ele>388.763</ele>
<time>2015-12-27T05:13:17.383Z</time>
</trkpt>
<trkpt lat="-26.7491083" lon="152.8883081">
<ele>390.011</ele>
<time>2015-12-27T05:13:20.277Z</time>
</trkpt>
<trkpt lat="-26.7496116" lon="152.8886244">
<ele>390.815</ele>
<time>2015-12-27T05:13:23.378Z</time>
</trkpt>
<trkpt lat="-26.7499310" lon="152.8888533">
<ele>390.833</ele>
<time>2015-12-27T05:13:25.402Z</time>
</trkpt>
<trkpt lat="-26.7502448" lon="152.8890616">
<ele>389.758</ele>
<time>2015-12-27T05:13:27.402Z</time>
</trkpt>
<trkpt lat="-26.7505635" lon="152.8892252">
<ele>387.698</ele>
<time>2015-12-27T05:13:29.352Z</time>
</trkpt>
<trkpt lat="-26.7510852" lon="152.8893405">
<ele>385.516</ele>
<time>2015-12-27T05:13:32.312Z</time>
</trkpt>
<trkpt lat="-26.7516407" lon="152.8893245">
<ele>384.190</ele>
<time>2015-12-27T05:13:35.366Z</time>
</trkpt>
<trkpt lat="-26.7520000" lon="152.8892441">
<ele>383.922</ele>
<time>2015-12-27T05:13:37.372Z</time>
</trkpt>
<trkpt lat="-26.7524900" lon="152.8890077">
<ele>384.282</ele>
<time>2015-12-27T05:13:40.284Z</time>
</trkpt>
<trkpt lat="-26.7529437" lon="152.8886386">
<ele>385.108</ele>
<time>2015-12-27T05:13:43.320Z</time>
</trkpt>
<trkpt lat="-26.7532005" lon="152.8883477">
<ele>386.570</ele>
<time>2015-12-27T05:13:45.301Z</time>
</trkpt>
<trkpt lat="-26.7535704" lon="152.8879165">
<ele>388.780</ele>
<time>2015-12-27T05:13:48.229Z</time>
</trkpt>
<trkpt lat="-26.7538356" lon="152.8875828">
<ele>391.407</ele>
<time>2015-12-27T05:13:50.502Z</time>
</trkpt>
<trkpt lat="-26.7540876" lon="152.8873161">
<ele>393.680</ele>
<time>2015-12-27T05:13:52.548Z</time>
</trkpt>
<trkpt lat="-26.7543321" lon="152.8870897">
<ele>395.046</ele>
<time>2015-12-27T05:13:54.427Z</time>
</trkpt>
<trkpt lat="-26.7547747" lon="152.8868379">
<ele>395.621</ele>
<time>2015-12-27T05:13:57.336Z</time>
</trkpt>
<trkpt lat="-26.7551073" lon="152.8867463">
<ele>395.785</ele>
<time>2015-12-27T05:13:59.273Z</time>
</trkpt>
<trkpt lat="-26.7554792" lon="152.8867136">
<ele>395.937</ele>
<time>2015-12-27T05:14:01.329Z</time>
</trkpt>
<trkpt lat="-26.7558250" lon="152.8867779">
<ele>396.334</ele>
<time>2015-12-27T05:14:03.250Z</time>
</trkpt>
<trkpt lat="-26.7563406" lon="152.8869909">
<ele>396.949</ele>
<time>2015-12-27T05:14:06.264Z</time>
</trkpt>
<trkpt lat="-26.7568279" lon="152.8872990">
<ele>397.895</ele>
<time>2015-12-27T05:14:09.325Z</time>
</trkpt>
<trkpt lat="-26.7571345" lon="152.8875182">
<ele>399.612</ele>
<time>2015-12-27T05:14:11.347Z</time>
</trkpt>
<trkpt lat="-26.7574314" lon="152.8877094">
<ele>402.088</ele>
<time>2015-12-27T05:14:13.334Z</time>
</trkpt>
<trkpt lat="-26.7579156" lon="152.8878281">
<ele>404.516</ele>
<time>2015-12-27T05:14:16.284Z</time>
</trkpt>
<trkpt lat="-26.7582489" lon="152.8878590">
<ele>406.543</ele>
<time>2015-12-27T05:14:18.274Z</time>
</trkpt>
<trkpt lat="-26.7585890" lon="152.8878289">
<ele>408.657</ele>
<time>2015-12-27T05:14:20.246Z</time>
</trkpt>
<trkpt lat="-26.7589382" lon="152.8877254">
<ele>411.094</ele>
<time>2015-12-27T05:14:22.258Z</time>
</trkpt>
<trkpt lat="-26.7594685" lon="152.8875503">
<ele>413.727</ele>
<time>2015-12-27T05:14:25.299Z</time>
</trkpt>
<trkpt lat="-26.7597894" lon="152.8874207">
<ele>416.592</ele>
<time>2015-12-27T05:14:27.289Z</time>
</trkpt>
<trkpt lat="-26.7601810" lon="152.8872666">
<ele>419.284</ele>
<time>2015-12-27T05:14:29.873Z</time>
</trkpt>
<trkpt lat="-26.7604596" lon="152.8872144">
<ele>421.166</ele>
<time>2015-12-27T05:14:31.783Z</time>
</trkpt>
<trkpt lat="-26.7607300" lon="152.8871099">
<ele>422.260</ele>
<time>2015-12-27T05:14:33.762Z</time>
</trkpt>
<trkpt lat="-26.7611440" lon="152.8870091">
<ele>422.964</ele>
<time>2015-12-27T05:14:36.676Z</time>
</trkpt>
<trkpt lat="-26.7615748" lon="152.8868993">
<ele>423.456</ele>
<time>2015-12-27T05:14:39.644Z</time>
</trkpt>
<trkpt lat="-26.7619076" lon="152.8868204">
<ele>423.890</ele>
<time>2015-12-27T05:14:41.868Z</time>
</trkpt>
<trkpt lat="-26.7622051" lon="152.8867484">
<ele>424.226</ele>
<time>2015-12-27T05:14:43.833Z</time>
</trkpt>
<trkpt lat="-26.7626500" lon="152.8866222">
<ele>424.348</ele>
<time>2015-12-27T05:14:46.815Z</time>
</trkpt>
<trkpt lat="-26.7630813" lon="152.8864720">
<ele>424.283</ele>
<time>2015-12-27T05:14:49.799Z</time>
</trkpt>
<trkpt lat="-26.7635277" lon="152.8863481">
<ele>424.090</ele>
<time>2015-12-27T05:14:52.856Z</time>
</trkpt>
<trkpt lat="-26.7639567" lon="152.8862200">
<ele>423.789</ele>
<time>2015-12-27T05:14:55.793Z</time>
</trkpt>
<trkpt lat="-26.7643839" lon="152.8860965">
<ele>423.443</ele>
<time>2015-12-27T05:14:58.710Z</time>
</trkpt>
<trkpt lat="-26.7646659" lon="152.8860195">
<ele>423.183</ele>
<time>2015-12-27T05:15:00.632Z</time>
</trkpt>
<trkpt lat="-26.7650973" lon="152.8858833">
<ele>423.111</ele>
<time>2015-12-27T05:15:03.589Z</time>
</trkpt>
<trkpt lat="-26.7653884" lon="152.8857906">
<ele>423.327</ele>
<time>2015-12-27T05:15:05.583Z</time>
</trkpt>
<trkpt lat="-26.7658338" lon="152.8856352">
<ele>423.886</ele>
<time>2015-12-27T05:15:08.666Z</time>
</trkpt>
<trkpt lat="-26.7661320" lon="152.8855600">
<ele>424.653</ele>
<time>2015-12-27T05:15:10.691Z</time>
</trkpt>
<trkpt lat="-26.7665784" lon="152.8854246">
<ele>425.550</ele>
<time>2015-12-27T05:15:13.761Z</time>
</trkpt>
<trkpt lat="-26.7668672" lon="152.8853554">
<ele>426.584</ele>
<time>2015-12-27T05:15:15.733Z</time>
</trkpt>
<trkpt lat="-26.7671615" lon="152.8852713">
<ele>427.674</ele>
<time>2015-12-27T05:15:17.818Z</time>
</trkpt>
<trkpt lat="-26.7675718" lon="152.8851627">
<ele>428.784</ele>
<time>2015-12-27T05:15:20.924Z</time>
</trkpt>
<trkpt lat="-26.7677720" lon="152.8851055">
<ele>429.997</ele>
<time>2015-12-27T05:15:22.761Z</time>
</trkpt>
<trkpt lat="-26.7680049" lon="152.8850825">
<ele>431.231</ele>
<time>2015-12-27T05:15:25.400Z</time>
</trkpt>
<trkpt lat="-26.7681376" lon="152.8850962">
<ele>432.123</ele>
<time>2015-12-27T05:15:27.935Z</time>
</trkpt>
<trkpt lat="-26.7681871" lon="152.8851843">
<ele>432.475</ele>
<time>2015-12-27T05:15:30.465Z</time>
</trkpt>
<trkpt lat="-26.7682037" lon="152.8853720">
<ele>432.558</ele>
<time>2015-12-27T05:15:33.442Z</time>
</trkpt>
<trkpt lat="-26.7681945" lon="152.8855802">
<ele>433.102</ele>
<time>2015-12-27T05:15:35.508Z</time>
</trkpt>
<trkpt lat="-26.7683053" lon="152.8859787">
<ele>434.828</ele>
<time>2015-12-27T05:15:38.628Z</time>
</trkpt>
<trkpt lat="-26.7685110" lon="152.8864408">
<ele>437.574</ele>
<time>2015-12-27T05:15:41.721Z</time>
</trkpt>
<trkpt lat="-26.7686756" lon="152.8867779">
<ele>440.382</ele>
<time>2015-12-27T05:15:43.791Z</time>
</trkpt>
<trkpt lat="-26.7688358" lon="152.8871225">
<ele>442.349</ele>
<time>2015-12-27T05:15:45.802Z</time>
</trkpt>
<trkpt lat="-26.7690789" lon="152.8876296">
<ele>443.030</ele>
<time>2015-12-27T05:15:48.759Z</time>
</trkpt>
<trkpt lat="-26.7693608" lon="152.8881101">
<ele>442.256</ele>
<time>2015-12-27T05:15:51.727Z</time>
</trkpt>
<trkpt lat="-26.7697415" lon="152.8885238">
<ele>440.346</ele>
<time>2015-12-27T05:15:54.769Z</time>
</trkpt>
<trkpt lat="-26.7702367" lon="152.8888356">
<ele>438.157</ele>
<time>2015-12-27T05:15:57.938Z</time>
</trkpt>
<trkpt lat="-26.7705690" lon="152.8889715">
<ele>436.016</ele>
<time>2015-12-27T05:15:59.853Z</time>
</trkpt>
<trkpt lat="-26.7711067" lon="152.8891263">
<ele>433.776</ele>
<time>2015-12-27T05:16:02.853Z</time>
</trkpt>
<trkpt lat="-26.7716125" lon="152.8892983">
<ele>431.247</ele>
<time>2015-12-27T05:16:05.790Z</time>
</trkpt>
<trkpt lat="-26.7719496" lon="152.8893797">
<ele>428.545</ele>
<time>2015-12-27T05:16:07.801Z</time>
</trkpt>
<trkpt lat="-26.7724199" lon="152.8895201">
<ele>426.506</ele>
<time>2015-12-27T05:16:10.699Z</time>
</trkpt>
<trkpt lat="-26.7728936" lon="152.8896451">
<ele>425.794</ele>
<time>2015-12-27T05:16:13.652Z</time>
</trkpt>
<trkpt lat="-26.7733351" lon="152.8898488">
<ele>426.270</ele>
<time>2015-12-27T05:16:16.606Z</time>
</trkpt>
<trkpt lat="-26.7736106" lon="152.8900670">
<ele>427.668</ele>
<time>2015-12-27T05:16:18.642Z</time>
</trkpt>
<trkpt lat="-26.7738712" lon="152.8903349">
<ele>429.533</ele>
<time>2015-12-27T05:16:20.685Z</time>
</trkpt>
<trkpt lat="-26.7742416" lon="152.8907563">
<ele>431.337</ele>
<time>2015-12-27T05:16:23.692Z</time>
</trkpt>
<trkpt lat="-26.7746151" lon="152.8911493">
<ele>432.828</ele>
<time>2015-12-27T05:16:26.700Z</time>
</trkpt>
<trkpt lat="-26.7748267" lon="152.8913918">
<ele>433.892</ele>
<time>2015-12-27T05:16:28.608Z</time>
</trkpt>
<trkpt lat="-26.7751359" lon="152.8917280">
<ele>434.378</ele>
<time>2015-12-27T05:16:31.514Z</time>
</trkpt>
<trkpt lat="-26.7753438" lon="152.8919403">
<ele>434.191</ele>
<time>2015-12-27T05:16:33.548Z</time>
</trkpt>
<trkpt lat="-26.7755219" lon="152.8921732">
<ele>433.342</ele>
<time>2015-12-27T05:16:35.627Z</time>
</trkpt>
<trkpt lat="-26.7756472" lon="152.8923983">
<ele>432.117</ele>
<time>2015-12-27T05:16:37.615Z</time>
</trkpt>
<trkpt lat="-26.7757255" lon="152.8925874">
<ele>430.775</ele>
<time>2015-12-27T05:16:39.466Z</time>
</trkpt>
<trkpt lat="-26.7757897" lon="152.8927340">
<ele>429.368</ele>
<time>2015-12-27T05:16:41.302Z</time>
</trkpt>
<trkpt lat="-26.7758998" lon="152.8928199">
<ele>428.033</ele>
<time>2015-12-27T05:16:43.568Z</time>
</trkpt>
<trkpt lat="-26.7760616" lon="152.8927637">
<ele>426.969</ele>
<time>2015-12-27T05:16:46.799Z</time>
</trkpt>
<trkpt lat="-26.7762231" lon="152.8925847">
<ele>426.294</ele>
<time>2015-12-27T05:16:50.289Z</time>
</trkpt>
<trkpt lat="-26.7763561" lon="152.8924458">
<ele>426.045</ele>
<time>2015-12-27T05:16:52.999Z</time>
</trkpt>
<trkpt lat="-26.7763561" lon="152.8924458">
<ele>425.963</ele>
<time>2015-12-27T05:16:58.999Z</time>
</trkpt>
<trkpt lat="-26.7763561" lon="152.8924458">
<ele>425.798</ele>
<time>2015-12-27T05:24:33.329Z</time>
</trkpt>
<trkpt lat="-26.7764205" lon="152.8922300">
<ele>425.601</ele>
<time>2015-12-27T05:24:42.266Z</time>
</trkpt>
<trkpt lat="-26.7764946" lon="152.8921118">
<ele>426.808</ele>
<time>2015-12-27T05:24:44.113Z</time>
</trkpt>
<trkpt lat="-26.7766274" lon="152.8919343">
<ele>430.305</ele>
<time>2015-12-27T05:24:46.253Z</time>
</trkpt>
<trkpt lat="-26.7769114" lon="152.8917233">
<ele>434.101</ele>
<time>2015-12-27T05:24:49.340Z</time>
</trkpt>
<trkpt lat="-26.7771439" lon="152.8916461">
<ele>435.861</ele>
<time>2015-12-27T05:24:51.322Z</time>
</trkpt>
<trkpt lat="-26.7773940" lon="152.8915648">
<ele>435.462</ele>
<time>2015-12-27T05:24:53.385Z</time>
</trkpt>
<trkpt lat="-26.7776235" lon="152.8914745">
<ele>433.855</ele>
<time>2015-12-27T05:24:55.292Z</time>
</trkpt>
<trkpt lat="-26.7779746" lon="152.8913541">
<ele>431.953</ele>
<time>2015-12-27T05:24:58.174Z</time>
</trkpt>
<trkpt lat="-26.7781979" lon="152.8912275">
<ele>430.096</ele>
<time>2015-12-27T05:25:00.171Z</time>
</trkpt>
<trkpt lat="-26.7783865" lon="152.8910502">
<ele>428.561</ele>
<time>2015-12-27T05:25:02.130Z</time>
</trkpt>
<trkpt lat="-26.7786439" lon="152.8907508">
<ele>427.596</ele>
<time>2015-12-27T05:25:05.009Z</time>
</trkpt>
<trkpt lat="-26.7789303" lon="152.8904383">
<ele>427.189</ele>
<time>2015-12-27T05:25:07.973Z</time>
</trkpt>
<trkpt lat="-26.7792398" lon="152.8901128">
<ele>427.344</ele>
<time>2015-12-27T05:25:10.946Z</time>
</trkpt>
<trkpt lat="-26.7795504" lon="152.8897094">
<ele>427.982</ele>
<time>2015-12-27T05:25:14.091Z</time>
</trkpt>
<trkpt lat="-26.7797993" lon="152.8892768">
<ele>428.966</ele>
<time>2015-12-27T05:25:17.077Z</time>
</trkpt>
<trkpt lat="-26.7800459" lon="152.8888440">
<ele>430.060</ele>
<time>2015-12-27T05:25:20.168Z</time>
</trkpt>
<trkpt lat="-26.7801872" lon="152.8886092">
<ele>430.781</ele>
<time>2015-12-27T05:25:21.980Z</time>
</trkpt>
<trkpt lat="-26.7803241" lon="152.8883566">
<ele>430.910</ele>
<time>2015-12-27T05:25:23.889Z</time>
</trkpt>
<trkpt lat="-26.7805385" lon="152.8879381">
<ele>430.971</ele>
<time>2015-12-27T05:25:26.968Z</time>
</trkpt>
<trkpt lat="-26.7806800" lon="152.8874861">
<ele>431.451</ele>
<time>2015-12-27T05:25:29.968Z</time>
</trkpt>
<trkpt lat="-26.7807382" lon="152.8871821">
<ele>432.123</ele>
<time>2015-12-27T05:25:31.855Z</time>
</trkpt>
<trkpt lat="-26.7807865" lon="152.8868703">
<ele>432.603</ele>
<time>2015-12-27T05:25:33.750Z</time>
</trkpt>
<trkpt lat="-26.7808839" lon="152.8863940">
<ele>432.874</ele>
<time>2015-12-27T05:25:36.664Z</time>
</trkpt>
<trkpt lat="-26.7809642" lon="152.8858850">
<ele>432.906</ele>
<time>2015-12-27T05:25:39.690Z</time>
</trkpt>
<trkpt lat="-26.7810600" lon="152.8853528">
<ele>432.686</ele>
<time>2015-12-27T05:25:42.832Z</time>
</trkpt>
<trkpt lat="-26.7811333" lon="152.8848440">
<ele>432.427</ele>
<time>2015-12-27T05:25:45.895Z</time>
</trkpt>
<trkpt lat="-26.7812096" lon="152.8843656">
<ele>432.332</ele>
<time>2015-12-27T05:25:48.843Z</time>
</trkpt>
<trkpt lat="-26.7812707" lon="152.8840353">
<ele>432.527</ele>
<time>2015-12-27T05:25:50.846Z</time>
</trkpt>
<trkpt lat="-26.7813638" lon="152.8835510">
<ele>433.096</ele>
<time>2015-12-27T05:25:53.786Z</time>
</trkpt>
<trkpt lat="-26.7813803" lon="152.8832433">
<ele>434.006</ele>
<time>2015-12-27T05:25:55.634Z</time>
</trkpt>
<trkpt lat="-26.7814501" lon="152.8827526">
<ele>435.173</ele>
<time>2015-12-27T05:25:58.566Z</time>
</trkpt>
<trkpt lat="-26.7815111" lon="152.8823999">
<ele>436.447</ele>
<time>2015-12-27T05:26:00.670Z</time>
</trkpt>
<trkpt lat="-26.7816447" lon="152.8819495">
<ele>437.528</ele>
<time>2015-12-27T05:26:03.521Z</time>
</trkpt>
<trkpt lat="-26.7817601" lon="152.8814758">
<ele>438.238</ele>
<time>2015-12-27T05:26:06.577Z</time>
</trkpt>
<trkpt lat="-26.7817795" lon="152.8811810">
<ele>438.624</ele>
<time>2015-12-27T05:26:08.548Z</time>
</trkpt>
<trkpt lat="-26.7817635" lon="152.8807608">
<ele>438.597</ele>
<time>2015-12-27T05:26:11.474Z</time>
</trkpt>
<trkpt lat="-26.7816589" lon="152.8803535">
<ele>438.054</ele>
<time>2015-12-27T05:26:14.470Z</time>
</trkpt>
<trkpt lat="-26.7816038" lon="152.8800615">
<ele>437.322</ele>
<time>2015-12-27T05:26:16.497Z</time>
</trkpt>
<trkpt lat="-26.7815050" lon="152.8796009">
<ele>436.993</ele>
<time>2015-12-27T05:26:19.567Z</time>
</trkpt>
<trkpt lat="-26.7814318" lon="152.8793087">
<ele>437.315</ele>
<time>2015-12-27T05:26:21.437Z</time>
</trkpt>
<trkpt lat="-26.7812875" lon="152.8787660">
<ele>438.023</ele>
<time>2015-12-27T05:26:24.873Z</time>
</trkpt>
<trkpt lat="-26.7812207" lon="152.8785243">
<ele>438.822</ele>
<time>2015-12-27T05:26:26.455Z</time>
</trkpt>
<trkpt lat="-26.7811543" lon="152.8782126">
<ele>439.714</ele>
<time>2015-12-27T05:26:28.388Z</time>
</trkpt>
<trkpt lat="-26.7810609" lon="152.8776986">
<ele>440.750</ele>
<time>2015-12-27T05:26:31.407Z</time>
</trkpt>
<trkpt lat="-26.7810255" lon="152.8773229">
<ele>441.961</ele>
<time>2015-12-27T05:26:33.485Z</time>
</trkpt>
<trkpt lat="-26.7810304" lon="152.8767989">
<ele>443.241</ele>
<time>2015-12-27T05:26:36.356Z</time>
</trkpt>
<trkpt lat="-26.7810488" lon="152.8764404">
<ele>444.496</ele>
<time>2015-12-27T05:26:38.243Z</time>
</trkpt>
<trkpt lat="-26.7810706" lon="152.8758103">
<ele>445.650</ele>
<time>2015-12-27T05:26:41.430Z</time>
</trkpt>
<trkpt lat="-26.7811514" lon="152.8752590">
<ele>446.433</ele>
<time>2015-12-27T05:26:44.229Z</time>
</trkpt>
<trkpt lat="-26.7811352" lon="152.8747045">
<ele>446.704</ele>
<time>2015-12-27T05:26:47.073Z</time>
</trkpt>
<trkpt lat="-26.7811324" lon="152.8743264">
<ele>447.023</ele>
<time>2015-12-27T05:26:49.022Z</time>
</trkpt>
<trkpt lat="-26.7811092" lon="152.8739310">
<ele>447.866</ele>
<time>2015-12-27T05:26:51.057Z</time>
</trkpt>
<trkpt lat="-26.7811432" lon="152.8733530">
<ele>449.061</ele>
<time>2015-12-27T05:26:54.032Z</time>
</trkpt>
<trkpt lat="-26.7811544" lon="152.8729626">
<ele>450.174</ele>
<time>2015-12-27T05:26:56.007Z</time>
</trkpt>
<trkpt lat="-26.7812068" lon="152.8723545">
<ele>450.541</ele>
<time>2015-12-27T05:26:59.038Z</time>
</trkpt>
<trkpt lat="-26.7812504" lon="152.8719432">
<ele>449.846</ele>
<time>2015-12-27T05:27:01.086Z</time>
</trkpt>
<trkpt lat="-26.7812707" lon="152.8715494">
<ele>448.791</ele>
<time>2015-12-27T05:27:03.070Z</time>
</trkpt>
<trkpt lat="-26.7812964" lon="152.8711661">
<ele>448.076</ele>
<time>2015-12-27T05:27:05.026Z</time>
</trkpt>
<trkpt lat="-26.7813315" lon="152.8705540">
<ele>447.849</ele>
<time>2015-12-27T05:27:08.137Z</time>
</trkpt>
<trkpt lat="-26.7813559" lon="152.8701305">
<ele>448.011</ele>
<time>2015-12-27T05:27:10.260Z</time>
</trkpt>
<trkpt lat="-26.7813909" lon="152.8697250">
<ele>448.110</ele>
<time>2015-12-27T05:27:12.310Z</time>
</trkpt>
<trkpt lat="-26.7814533" lon="152.8691373">
<ele>447.473</ele>
<time>2015-12-27T05:27:15.401Z</time>
</trkpt>
<trkpt lat="-26.7815110" lon="152.8686215">
<ele>445.766</ele>
<time>2015-12-27T05:27:18.289Z</time>
</trkpt>
<trkpt lat="-26.7815184" lon="152.8683036">
<ele>443.146</ele>
<time>2015-12-27T05:27:20.209Z</time>
</trkpt>
<trkpt lat="-26.7814700" lon="152.8680062">
<ele>440.186</ele>
<time>2015-12-27T05:27:22.171Z</time>
</trkpt>
<trkpt lat="-26.7812862" lon="152.8676445">
<ele>437.421</ele>
<time>2015-12-27T05:27:24.941Z</time>
</trkpt>
<trkpt lat="-26.7809578" lon="152.8673429">
<ele>435.011</ele>
<time>2015-12-27T05:27:27.955Z</time>
</trkpt>
<trkpt lat="-26.7805621" lon="152.8670275">
<ele>433.170</ele>
<time>2015-12-27T05:27:31.102Z</time>
</trkpt>
<trkpt lat="-26.7803019" lon="152.8668003">
<ele>432.561</ele>
<time>2015-12-27T05:27:33.144Z</time>
</trkpt>
<trkpt lat="-26.7800791" lon="152.8665280">
<ele>433.386</ele>
<time>2015-12-27T05:27:35.150Z</time>
</trkpt>
<trkpt lat="-26.7798109" lon="152.8660411">
<ele>434.820</ele>
<time>2015-12-27T05:27:38.215Z</time>
</trkpt>
<trkpt lat="-26.7796316" lon="152.8657203">
<ele>435.839</ele>
<time>2015-12-27T05:27:40.223Z</time>
</trkpt>
<trkpt lat="-26.7793571" lon="152.8652351">
<ele>436.536</ele>
<time>2015-12-27T05:27:43.238Z</time>
</trkpt>
<trkpt lat="-26.7791698" lon="152.8649052">
<ele>437.705</ele>
<time>2015-12-27T05:27:45.256Z</time>
</trkpt>
<trkpt lat="-26.7789315" lon="152.8643890">
<ele>439.290</ele>
<time>2015-12-27T05:27:48.230Z</time>
</trkpt>
<trkpt lat="-26.7787709" lon="152.8638225">
<ele>440.178</ele>
<time>2015-12-27T05:27:51.267Z</time>
</trkpt>
<trkpt lat="-26.7787247" lon="152.8634404">
<ele>439.883</ele>
<time>2015-12-27T05:27:53.276Z</time>
</trkpt>
<trkpt lat="-26.7786653" lon="152.8628733">
<ele>439.293</ele>
<time>2015-12-27T05:27:56.277Z</time>
</trkpt>
<trkpt lat="-26.7786107" lon="152.8624868">
<ele>439.480</ele>
<time>2015-12-27T05:27:58.321Z</time>
</trkpt>
<trkpt lat="-26.7785751" lon="152.8620999">
<ele>440.698</ele>
<time>2015-12-27T05:28:00.337Z</time>
</trkpt>
<trkpt lat="-26.7785276" lon="152.8615275">
<ele>442.336</ele>
<time>2015-12-27T05:28:03.283Z</time>
</trkpt>
<trkpt lat="-26.7785209" lon="152.8609447">
<ele>443.207</ele>
<time>2015-12-27T05:28:06.243Z</time>
</trkpt>
<trkpt lat="-26.7785621" lon="152.8605534">
<ele>442.260</ele>
<time>2015-12-27T05:28:08.239Z</time>
</trkpt>
<trkpt lat="-26.7787378" lon="152.8599442">
<ele>439.633</ele>
<time>2015-12-27T05:28:11.464Z</time>
</trkpt>
<trkpt lat="-26.7788823" lon="152.8595839">
<ele>436.063</ele>
<time>2015-12-27T05:28:13.512Z</time>
</trkpt>
<trkpt lat="-26.7790543" lon="152.8590918">
<ele>432.039</ele>
<time>2015-12-27T05:28:16.318Z</time>
</trkpt>
<trkpt lat="-26.7792025" lon="152.8585426">
<ele>428.511</ele>
<time>2015-12-27T05:28:19.388Z</time>
</trkpt>
<trkpt lat="-26.7793354" lon="152.8580218">
<ele>426.899</ele>
<time>2015-12-27T05:28:22.254Z</time>
</trkpt>
<trkpt lat="-26.7794369" lon="152.8576371">
<ele>427.925</ele>
<time>2015-12-27T05:28:24.332Z</time>
</trkpt>
<trkpt lat="-26.7795428" lon="152.8572643">
<ele>431.217</ele>
<time>2015-12-27T05:28:26.357Z</time>
</trkpt>
<trkpt lat="-26.7796860" lon="152.8567280">
<ele>435.273</ele>
<time>2015-12-27T05:28:29.333Z</time>
</trkpt>
<trkpt lat="-26.7797862" lon="152.8562733">
<ele>438.618</ele>
<time>2015-12-27T05:28:31.921Z</time>
</trkpt>
<trkpt lat="-26.7799322" lon="152.8557577">
<ele>441.168</ele>
<time>2015-12-27T05:28:34.921Z</time>
</trkpt>
<trkpt lat="-26.7801307" lon="152.8554329">
<ele>443.394</ele>
<time>2015-12-27T05:28:36.998Z</time>
</trkpt>
<trkpt lat="-26.7803555" lon="152.8551041">
<ele>445.080</ele>
<time>2015-12-27T05:28:39.134Z</time>
</trkpt>
<trkpt lat="-26.7806009" lon="152.8548133">
<ele>445.834</ele>
<time>2015-12-27T05:28:41.217Z</time>
</trkpt>
<trkpt lat="-26.7808040" lon="152.8545250">
<ele>445.718</ele>
<time>2015-12-27T05:28:43.153Z</time>
</trkpt>
<trkpt lat="-26.7809892" lon="152.8541973">
<ele>445.121</ele>
<time>2015-12-27T05:28:45.227Z</time>
</trkpt>
<trkpt lat="-26.7812481" lon="152.8537354">
<ele>444.566</ele>
<time>2015-12-27T05:28:48.190Z</time>
</trkpt>
<trkpt lat="-26.7814274" lon="152.8534430">
<ele>444.322</ele>
<time>2015-12-27T05:28:50.144Z</time>
</trkpt>
<trkpt lat="-26.7816834" lon="152.8529689">
<ele>444.505</ele>
<time>2015-12-27T05:28:53.192Z</time>
</trkpt>
<trkpt lat="-26.7818262" lon="152.8526255">
<ele>445.116</ele>
<time>2015-12-27T05:28:55.253Z</time>
</trkpt>
<trkpt lat="-26.7819748" lon="152.8520925">
<ele>445.905</ele>
<time>2015-12-27T05:28:58.272Z</time>
</trkpt>
<trkpt lat="-26.7820634" lon="152.8517252">
<ele>446.675</ele>
<time>2015-12-27T05:29:00.325Z</time>
</trkpt>
<trkpt lat="-26.7822001" lon="152.8511748">
<ele>447.477</ele>
<time>2015-12-27T05:29:03.455Z</time>
</trkpt>
<trkpt lat="-26.7823296" lon="152.8506872">
<ele>448.244</ele>
<time>2015-12-27T05:29:06.403Z</time>
</trkpt>
<trkpt lat="-26.7824429" lon="152.8502384">
<ele>448.683</ele>
<time>2015-12-27T05:29:09.272Z</time>
</trkpt>
<trkpt lat="-26.7824967" lon="152.8499160">
<ele>448.604</ele>
<time>2015-12-27T05:29:11.250Z</time>
</trkpt>
<trkpt lat="-26.7824434" lon="152.8493772">
<ele>448.070</ele>
<time>2015-12-27T05:29:14.309Z</time>
</trkpt>
<trkpt lat="-26.7823720" lon="152.8490063">
<ele>447.083</ele>
<time>2015-12-27T05:29:16.282Z</time>
</trkpt>
<trkpt lat="-26.7823002" lon="152.8486275">
<ele>445.373</ele>
<time>2015-12-27T05:29:18.285Z</time>
</trkpt>
<trkpt lat="-26.7821873" lon="152.8480670">
<ele>442.746</ele>
<time>2015-12-27T05:29:21.298Z</time>
</trkpt>
<trkpt lat="-26.7821631" lon="152.8477096">
<ele>439.914</ele>
<time>2015-12-27T05:29:23.231Z</time>
</trkpt>
<trkpt lat="-26.7820968" lon="152.8473354">
<ele>438.049</ele>
<time>2015-12-27T05:29:25.321Z</time>
</trkpt>
<trkpt lat="-26.7820267" lon="152.8469811">
<ele>437.507</ele>
<time>2015-12-27T05:29:27.330Z</time>
</trkpt>
<trkpt lat="-26.7819188" lon="152.8466697">
<ele>438.037</ele>
<time>2015-12-27T05:29:29.228Z</time>
</trkpt>
<trkpt lat="-26.7818054" lon="152.8463589">
<ele>439.440</ele>
<time>2015-12-27T05:29:31.195Z</time>
</trkpt>
<trkpt lat="-26.7817050" lon="152.8460503">
<ele>441.596</ele>
<time>2015-12-27T05:29:33.139Z</time>
</trkpt>
<trkpt lat="-26.7815638" lon="152.8455561">
<ele>444.285</ele>
<time>2015-12-27T05:29:36.211Z</time>
</trkpt>
<trkpt lat="-26.7814995" lon="152.8451976">
<ele>447.153</ele>
<time>2015-12-27T05:29:38.392Z</time>
</trkpt>
<trkpt lat="-26.7814250" lon="152.8448840">
<ele>449.909</ele>
<time>2015-12-27T05:29:40.319Z</time>
</trkpt>
<trkpt lat="-26.7813387" lon="152.8443881">
<ele>452.551</ele>
<time>2015-12-27T05:29:43.273Z</time>
</trkpt>
<trkpt lat="-26.7813000" lon="152.8438626">
<ele>455.448</ele>
<time>2015-12-27T05:29:46.302Z</time>
</trkpt>
<trkpt lat="-26.7812536" lon="152.8433338">
<ele>458.639</ele>
<time>2015-12-27T05:29:49.338Z</time>
</trkpt>
<trkpt lat="-26.7812352" lon="152.8429891">
<ele>461.490</ele>
<time>2015-12-27T05:29:51.284Z</time>
</trkpt>
<trkpt lat="-26.7811920" lon="152.8424469">
<ele>463.833</ele>
<time>2015-12-27T05:29:54.327Z</time>
</trkpt>
<trkpt lat="-26.7811664" lon="152.8420902">
<ele>466.555</ele>
<time>2015-12-27T05:29:56.381Z</time>
</trkpt>
<trkpt lat="-26.7811453" lon="152.8415883">
<ele>469.866</ele>
<time>2015-12-27T05:29:59.367Z</time>
</trkpt>
<trkpt lat="-26.7811203" lon="152.8412711">
<ele>472.581</ele>
<time>2015-12-27T05:30:01.328Z</time>
</trkpt>
<trkpt lat="-26.7810945" lon="152.8409469">
<ele>473.600</ele>
<time>2015-12-27T05:30:03.377Z</time>
</trkpt>
<trkpt lat="-26.7810336" lon="152.8404934">
<ele>472.898</ele>
<time>2015-12-27T05:30:06.302Z</time>
</trkpt>
<trkpt lat="-26.7809427" lon="152.8400368">
<ele>471.115</ele>
<time>2015-12-27T05:30:09.277Z</time>
</trkpt>
<trkpt lat="-26.7808304" lon="152.8397390">
<ele>469.296</ele>
<time>2015-12-27T05:30:11.280Z</time>
</trkpt>
<trkpt lat="-26.7806803" lon="152.8392749">
<ele>468.305</ele>
<time>2015-12-27T05:30:14.302Z</time>
</trkpt>
<trkpt lat="-26.7805871" lon="152.8389512">
<ele>468.231</ele>
<time>2015-12-27T05:30:16.374Z</time>
</trkpt>
<trkpt lat="-26.7803929" lon="152.8385170">
<ele>468.549</ele>
<time>2015-12-27T05:30:19.316Z</time>
</trkpt>
<trkpt lat="-26.7801565" lon="152.8380875">
<ele>468.677</ele>
<time>2015-12-27T05:30:22.335Z</time>
</trkpt>
<trkpt lat="-26.7799978" lon="152.8378082">
<ele>468.173</ele>
<time>2015-12-27T05:30:24.309Z</time>
</trkpt>
<trkpt lat="-26.7798361" lon="152.8375255">
<ele>466.843</ele>
<time>2015-12-27T05:30:26.319Z</time>
</trkpt>
<trkpt lat="-26.7796070" lon="152.8371024">
<ele>465.077</ele>
<time>2015-12-27T05:30:29.316Z</time>
</trkpt>
<trkpt lat="-26.7795096" lon="152.8367989">
<ele>463.657</ele>
<time>2015-12-27T05:30:31.325Z</time>
</trkpt>
<trkpt lat="-26.7793835" lon="152.8363434">
<ele>463.180</ele>
<time>2015-12-27T05:30:34.363Z</time>
</trkpt>
<trkpt lat="-26.7793099" lon="152.8360512">
<ele>464.030</ele>
<time>2015-12-27T05:30:36.469Z</time>
</trkpt>
<trkpt lat="-26.7792028" lon="152.8356807">
<ele>465.868</ele>
<time>2015-12-27T05:30:39.506Z</time>
</trkpt>
<trkpt lat="-26.7791505" lon="152.8355337">
<ele>467.336</ele>
<time>2015-12-27T05:30:41.374Z</time>
</trkpt>
<trkpt lat="-26.7790761" lon="152.8354484">
<ele>467.333</ele>
<time>2015-12-27T05:30:43.000Z</time>
</trkpt>
<trkpt lat="-26.7790761" lon="152.8354484">
<ele>466.199</ele>
<time>2015-12-27T05:30:46.999Z</time>
</trkpt>
<trkpt lat="-26.7790761" lon="152.8354484">
<ele>465.185</ele>
<time>2015-12-27T05:30:47.328Z</time>
</trkpt>
<trkpt lat="-26.7790255" lon="152.8352618">
<ele>465.009</ele>
<time>2015-12-27T05:30:53.589Z</time>
</trkpt>
<trkpt lat="-26.7791158" lon="152.8350983">
<ele>464.746</ele>
<time>2015-12-27T05:30:55.720Z</time>
</trkpt>
<trkpt lat="-26.7792069" lon="152.8348577">
<ele>463.560</ele>
<time>2015-12-27T05:30:57.798Z</time>
</trkpt>
<trkpt lat="-26.7793650" lon="152.8343706">
<ele>462.434</ele>
<time>2015-12-27T05:31:01.419Z</time>
</trkpt>
<trkpt lat="-26.7793877" lon="152.8338925">
<ele>462.844</ele>
<time>2015-12-27T05:31:04.469Z</time>
</trkpt>
<trkpt lat="-26.7793378" lon="152.8334114">
<ele>464.795</ele>
<time>2015-12-27T05:31:07.435Z</time>
</trkpt>
<trkpt lat="-26.7792890" lon="152.8330867">
<ele>467.463</ele>
<time>2015-12-27T05:31:09.435Z</time>
</trkpt>
<trkpt lat="-26.7791766" lon="152.8326132">
<ele>470.275</ele>
<time>2015-12-27T05:31:12.360Z</time>
</trkpt>
<trkpt lat="-26.7790344" lon="152.8321320">
<ele>473.112</ele>
<time>2015-12-27T05:31:15.310Z</time>
</trkpt>
<trkpt lat="-26.7789391" lon="152.8318033">
<ele>475.986</ele>
<time>2015-12-27T05:31:17.319Z</time>
</trkpt>
<trkpt lat="-26.7788464" lon="152.8314902">
<ele>478.498</ele>
<time>2015-12-27T05:31:19.261Z</time>
</trkpt>
<trkpt lat="-26.7787275" lon="152.8309878">
<ele>479.846</ele>
<time>2015-12-27T05:31:22.306Z</time>
</trkpt>
<trkpt lat="-26.7786687" lon="152.8304812">
<ele>479.668</ele>
<time>2015-12-27T05:31:25.217Z</time>
</trkpt>
<trkpt lat="-26.7787356" lon="152.8301072">
<ele>478.340</ele>
<time>2015-12-27T05:31:27.320Z</time>
</trkpt>
<trkpt lat="-26.7788309" lon="152.8295771">
<ele>476.619</ele>
<time>2015-12-27T05:31:30.275Z</time>
</trkpt>
<trkpt lat="-26.7789088" lon="152.8292296">
<ele>474.805</ele>
<time>2015-12-27T05:31:32.188Z</time>
</trkpt>
<trkpt lat="-26.7790722" lon="152.8286592">
<ele>472.927</ele>
<time>2015-12-27T05:31:35.313Z</time>
</trkpt>
<trkpt lat="-26.7791795" lon="152.8282804">
<ele>471.393</ele>
<time>2015-12-27T05:31:37.369Z</time>
</trkpt>
<trkpt lat="-26.7793918" lon="152.8277950">
<ele>470.421</ele>
<time>2015-12-27T05:31:40.185Z</time>
</trkpt>
<trkpt lat="-26.7795788" lon="152.8274697">
<ele>469.721</ele>
<time>2015-12-27T05:31:42.200Z</time>
</trkpt>
<trkpt lat="-26.7797504" lon="152.8271549">
<ele>469.116</ele>
<time>2015-12-27T05:31:44.128Z</time>
</trkpt>
<trkpt lat="-26.7799205" lon="152.8268380">
<ele>468.678</ele>
<time>2015-12-27T05:31:46.064Z</time>
</trkpt>
<trkpt lat="-26.7801051" lon="152.8265150">
<ele>468.540</ele>
<time>2015-12-27T05:31:48.070Z</time>
</trkpt>
<trkpt lat="-26.7802868" lon="152.8261911">
<ele>468.692</ele>
<time>2015-12-27T05:31:50.071Z</time>
</trkpt>
<trkpt lat="-26.7805550" lon="152.8257213">
<ele>469.003</ele>
<time>2015-12-27T05:31:52.988Z</time>
</trkpt>
<trkpt lat="-26.7807322" lon="152.8254012">
<ele>469.562</ele>
<time>2015-12-27T05:31:54.930Z</time>
</trkpt>
<trkpt lat="-26.7810209" lon="152.8249057">
<ele>470.427</ele>
<time>2015-12-27T05:31:57.971Z</time>
</trkpt>
<trkpt lat="-26.7811897" lon="152.8246105">
<ele>471.410</ele>
<time>2015-12-27T05:31:59.795Z</time>
</trkpt>
<trkpt lat="-26.7813748" lon="152.8242709">
<ele>472.460</ele>
<time>2015-12-27T05:32:01.907Z</time>
</trkpt>
<trkpt lat="-26.7815911" lon="152.8237735">
<ele>473.634</ele>
<time>2015-12-27T05:32:04.916Z</time>
</trkpt>
<trkpt lat="-26.7816653" lon="152.8234468">
<ele>474.672</ele>
<time>2015-12-27T05:32:06.794Z</time>
</trkpt>
<trkpt lat="-26.7816581" lon="152.8229202">
<ele>475.226</ele>
<time>2015-12-27T05:32:09.699Z</time>
</trkpt>
<trkpt lat="-26.7815880" lon="152.8225548">
<ele>475.191</ele>
<time>2015-12-27T05:32:11.709Z</time>
</trkpt>
<trkpt lat="-26.7813530" lon="152.8220468">
<ele>474.852</ele>
<time>2015-12-27T05:32:14.740Z</time>
</trkpt>
<trkpt lat="-26.7811339" lon="152.8217816">
<ele>474.489</ele>
<time>2015-12-27T05:32:16.768Z</time>
</trkpt>
<trkpt lat="-26.7807746" lon="152.8214722">
<ele>474.186</ele>
<time>2015-12-27T05:32:19.885Z</time>
</trkpt>
<trkpt lat="-26.7804603" lon="152.8212325">
<ele>473.839</ele>
<time>2015-12-27T05:32:23.001Z</time>
</trkpt>
<trkpt lat="-26.7802970" lon="152.8211265">
<ele>473.164</ele>
<time>2015-12-27T05:32:25.064Z</time>
</trkpt>
<trkpt lat="-26.7801530" lon="152.8210065">
<ele>472.037</ele>
<time>2015-12-27T05:32:27.664Z</time>
</trkpt>
<trkpt lat="-26.7800200" lon="152.8208831">
<ele>470.795</ele>
<time>2015-12-27T05:32:30.711Z</time>
</trkpt>
<trkpt lat="-26.7799489" lon="152.8208161">
<ele>469.721</ele>
<time>2015-12-27T05:32:32.164Z</time>
</trkpt>
<trkpt lat="-26.7798477" lon="152.8206823">
<ele>468.872</ele>
<time>2015-12-27T05:32:33.994Z</time>
</trkpt>
<trkpt lat="-26.7797348" lon="152.8205188">
<ele>468.436</ele>
<time>2015-12-27T05:32:35.537Z</time>
</trkpt>
<trkpt lat="-26.7794831" lon="152.8201285">
<ele>468.663</ele>
<time>2015-12-27T05:32:38.680Z</time>
</trkpt>
<trkpt lat="-26.7793604" lon="152.8197597">
<ele>469.830</ele>
<time>2015-12-27T05:32:40.786Z</time>
</trkpt>
<trkpt lat="-26.7792877" lon="152.8191280">
<ele>472.056</ele>
<time>2015-12-27T05:32:44.019Z</time>
</trkpt>
<trkpt lat="-26.7793017" lon="152.8187176">
<ele>474.541</ele>
<time>2015-12-27T05:32:46.061Z</time>
</trkpt>
<trkpt lat="-26.7793868" lon="152.8181550">
<ele>476.136</ele>
<time>2015-12-27T05:32:48.947Z</time>
</trkpt>
<trkpt lat="-26.7794852" lon="152.8175982">
<ele>476.817</ele>
<time>2015-12-27T05:32:51.889Z</time>
</trkpt>
<trkpt lat="-26.7795420" lon="152.8172551">
<ele>477.225</ele>
<time>2015-12-27T05:32:53.768Z</time>
</trkpt>
<trkpt lat="-26.7796015" lon="152.8167007">
<ele>477.324</ele>
<time>2015-12-27T05:32:56.759Z</time>
</trkpt>
<trkpt lat="-26.7795766" lon="152.8162846">
<ele>476.613</ele>
<time>2015-12-27T05:32:58.897Z</time>
</trkpt>
<trkpt lat="-26.7794799" lon="152.8158955">
<ele>475.252</ele>
<time>2015-12-27T05:33:00.742Z</time>
</trkpt>
<trkpt lat="-26.7792608" lon="152.8152159">
<ele>474.044</ele>
<time>2015-12-27T05:33:03.769Z</time>
</trkpt>
<trkpt lat="-26.7790509" lon="152.8147284">
<ele>473.435</ele>
<time>2015-12-27T05:33:05.881Z</time>
</trkpt>
<trkpt lat="-26.7787771" lon="152.8140124">
<ele>473.344</ele>
<time>2015-12-27T05:33:09.003Z</time>
</trkpt>
<trkpt lat="-26.7785239" lon="152.8133716">
<ele>473.584</ele>
<time>2015-12-27T05:33:12.059Z</time>
</trkpt>
<trkpt lat="-26.7783673" lon="152.8129972">
<ele>474.172</ele>
<time>2015-12-27T05:33:14.135Z</time>
</trkpt>
<trkpt lat="-26.7781951" lon="152.8124875">
<ele>475.278</ele>
<time>2015-12-27T05:33:16.995Z</time>
</trkpt>
<trkpt lat="-26.7781290" lon="152.8121216">
<ele>476.916</ele>
<time>2015-12-27T05:33:19.003Z</time>
</trkpt>
<trkpt lat="-26.7780903" lon="152.8117698">
<ele>479.072</ele>
<time>2015-12-27T05:33:20.872Z</time>
</trkpt>
<trkpt lat="-26.7780789" lon="152.8112030">
<ele>481.557</ele>
<time>2015-12-27T05:33:23.816Z</time>
</trkpt>
<trkpt lat="-26.7780470" lon="152.8106299">
<ele>484.091</ele>
<time>2015-12-27T05:33:26.791Z</time>
</trkpt>
<trkpt lat="-26.7780145" lon="152.8102518">
<ele>486.739</ele>
<time>2015-12-27T05:33:28.836Z</time>
</trkpt>
<trkpt lat="-26.7779870" lon="152.8099065">
<ele>489.194</ele>
<time>2015-12-27T05:33:30.770Z</time>
</trkpt>
<trkpt lat="-26.7780413" lon="152.8095475">
<ele>490.775</ele>
<time>2015-12-27T05:33:32.817Z</time>
</trkpt>
<trkpt lat="-26.7781632" lon="152.8090330">
<ele>491.572</ele>
<time>2015-12-27T05:33:35.756Z</time>
</trkpt>
<trkpt lat="-26.7783394" lon="152.8086936">
<ele>492.057</ele>
<time>2015-12-27T05:33:37.806Z</time>
</trkpt>
<trkpt lat="-26.7785671" lon="152.8081536">
<ele>492.189</ele>
<time>2015-12-27T05:33:40.781Z</time>
</trkpt>
<trkpt lat="-26.7787292" lon="152.8077473">
<ele>491.247</ele>
<time>2015-12-27T05:33:42.831Z</time>
</trkpt>
<trkpt lat="-26.7789867" lon="152.8071822">
<ele>488.889</ele>
<time>2015-12-27T05:33:45.756Z</time>
</trkpt>
<trkpt lat="-26.7791388" lon="152.8068126">
<ele>486.049</ele>
<time>2015-12-27T05:33:47.697Z</time>
</trkpt>
<trkpt lat="-26.7793002" lon="152.8064606">
<ele>484.027</ele>
<time>2015-12-27T05:33:49.629Z</time>
</trkpt>
<trkpt lat="-26.7794707" lon="152.8061189">
<ele>483.633</ele>
<time>2015-12-27T05:33:51.646Z</time>
</trkpt>
<trkpt lat="-26.7797476" lon="152.8056579">
<ele>485.131</ele>
<time>2015-12-27T05:33:54.644Z</time>
</trkpt>
<trkpt lat="-26.7799610" lon="152.8054093">
<ele>487.947</ele>
<time>2015-12-27T05:33:56.574Z</time>
</trkpt>
<trkpt lat="-26.7802062" lon="152.8051867">
<ele>491.088</ele>
<time>2015-12-27T05:33:58.471Z</time>
</trkpt>
<trkpt lat="-26.7806941" lon="152.8049690">
<ele>493.950</ele>
<time>2015-12-27T05:34:01.462Z</time>
</trkpt>
<trkpt lat="-26.7810704" lon="152.8048323">
<ele>496.850</ele>
<time>2015-12-27T05:34:03.560Z</time>
</trkpt>
<trkpt lat="-26.7815991" lon="152.8046094">
<ele>500.411</ele>
<time>2015-12-27T05:34:06.534Z</time>
</trkpt>
<trkpt lat="-26.7819558" lon="152.8044643">
<ele>503.942</ele>
<time>2015-12-27T05:34:08.542Z</time>
</trkpt>
<trkpt lat="-26.7823031" lon="152.8042693">
<ele>506.058</ele>
<time>2015-12-27T05:34:10.579Z</time>
</trkpt>
<trkpt lat="-26.7828217" lon="152.8040032">
<ele>506.472</ele>
<time>2015-12-27T05:34:13.512Z</time>
</trkpt>
<trkpt lat="-26.7833672" lon="152.8037290">
<ele>505.399</ele>
<time>2015-12-27T05:34:16.516Z</time>
</trkpt>
<trkpt lat="-26.7839225" lon="152.8034560">
<ele>502.736</ele>
<time>2015-12-27T05:34:19.593Z</time>
</trkpt>
<trkpt lat="-26.7844228" lon="152.8031792">
<ele>498.738</ele>
<time>2015-12-27T05:34:22.548Z</time>
</trkpt>
<trkpt lat="-26.7847019" lon="152.8029277">
<ele>494.735</ele>
<time>2015-12-27T05:34:24.509Z</time>
</trkpt>
<trkpt lat="-26.7849438" lon="152.8026494">
<ele>492.895</ele>
<time>2015-12-27T05:34:26.394Z</time>
</trkpt>
<trkpt lat="-26.7851884" lon="152.8023392">
<ele>494.590</ele>
<time>2015-12-27T05:34:28.396Z</time>
</trkpt>
<trkpt lat="-26.7856047" lon="152.8019147">
<ele>499.019</ele>
<time>2015-12-27T05:34:31.444Z</time>
</trkpt>
<trkpt lat="-26.7860756" lon="152.8015942">
<ele>504.436</ele>
<time>2015-12-27T05:34:34.391Z</time>
</trkpt>
<trkpt lat="-26.7864090" lon="152.8014156">
<ele>510.137</ele>
<time>2015-12-27T05:34:36.307Z</time>
</trkpt>
<trkpt lat="-26.7867647" lon="152.8011993">
<ele>516.222</ele>
<time>2015-12-27T05:34:38.418Z</time>
</trkpt>
<trkpt lat="-26.7870595" lon="152.8009827">
<ele>522.437</ele>
<time>2015-12-27T05:34:40.295Z</time>
</trkpt>
<trkpt lat="-26.7875246" lon="152.8006698">
<ele>528.087</ele>
<time>2015-12-27T05:34:43.253Z</time>
</trkpt>
<trkpt lat="-26.7878284" lon="152.8004034">
<ele>532.587</ele>
<time>2015-12-27T05:34:45.361Z</time>
</trkpt>
<trkpt lat="-26.7882931" lon="152.8000229">
<ele>535.546</ele>
<time>2015-12-27T05:34:48.498Z</time>
</trkpt>
<trkpt lat="-26.7887041" lon="152.7996554">
<ele>536.661</ele>
<time>2015-12-27T05:34:51.326Z</time>
</trkpt>
<trkpt lat="-26.7890216" lon="152.7993859">
<ele>535.944</ele>
<time>2015-12-27T05:34:53.397Z</time>
</trkpt>
<trkpt lat="-26.7895257" lon="152.7990447">
<ele>533.767</ele>
<time>2015-12-27T05:34:56.412Z</time>
</trkpt>
<trkpt lat="-26.7898844" lon="152.7988638">
<ele>530.085</ele>
<time>2015-12-27T05:34:58.428Z</time>
</trkpt>
<trkpt lat="-26.7901037" lon="152.7985453">
<ele>524.746</ele>
<time>2015-12-27T05:35:00.226Z</time>
</trkpt>
<trkpt lat="-26.7903829" lon="152.7982210">
<ele>518.668</ele>
<time>2015-12-27T05:35:02.091Z</time>
</trkpt>
<trkpt lat="-26.7908184" lon="152.7975982">
<ele>513.501</ele>
<time>2015-12-27T05:35:05.154Z</time>
</trkpt>
<trkpt lat="-26.7910905" lon="152.7971921">
<ele>509.625</ele>
<time>2015-12-27T05:35:07.092Z</time>
</trkpt>
<trkpt lat="-26.7915812" lon="152.7968181">
<ele>505.974</ele>
<time>2015-12-27T05:35:09.711Z</time>
</trkpt>
<trkpt lat="-26.7921650" lon="152.7965333">
<ele>502.126</ele>
<time>2015-12-27T05:35:12.628Z</time>
</trkpt>
<trkpt lat="-26.7925472" lon="152.7963115">
<ele>499.019</ele>
<time>2015-12-27T05:35:14.624Z</time>
</trkpt>
<trkpt lat="-26.7930511" lon="152.7958848">
<ele>497.444</ele>
<time>2015-12-27T05:35:17.590Z</time>
</trkpt>
<trkpt lat="-26.7934816" lon="152.7953444">
<ele>497.704</ele>
<time>2015-12-27T05:35:20.577Z</time>
</trkpt>
<trkpt lat="-26.7937486" lon="152.7948770">
<ele>500.321</ele>
<time>2015-12-27T05:35:22.774Z</time>
</trkpt>
<trkpt lat="-26.7941572" lon="152.7942590">
<ele>505.017</ele>
<time>2015-12-27T05:35:25.862Z</time>
</trkpt>
<trkpt lat="-26.7945376" lon="152.7937230">
<ele>509.878</ele>
<time>2015-12-27T05:35:28.835Z</time>
</trkpt>
<trkpt lat="-26.7950027" lon="152.7934654">
<ele>513.115</ele>
<time>2015-12-27T05:35:31.598Z</time>
</trkpt>
<trkpt lat="-26.7953357" lon="152.7933903">
<ele>514.487</ele>
<time>2015-12-27T05:35:33.516Z</time>
</trkpt>
<trkpt lat="-26.7958364" lon="152.7935262">
<ele>514.752</ele>
<time>2015-12-27T05:35:36.414Z</time>
</trkpt>
<trkpt lat="-26.7963289" lon="152.7939059">
<ele>514.746</ele>
<time>2015-12-27T05:35:39.504Z</time>
</trkpt>
<trkpt lat="-26.7968008" lon="152.7944286">
<ele>515.032</ele>
<time>2015-12-27T05:35:42.562Z</time>
</trkpt>
<trkpt lat="-26.7971513" lon="152.7947878">
<ele>515.755</ele>
<time>2015-12-27T05:35:44.608Z</time>
</trkpt>
<trkpt lat="-26.7976209" lon="152.7953372">
<ele>516.562</ele>
<time>2015-12-27T05:35:47.526Z</time>
</trkpt>
<trkpt lat="-26.7979782" lon="152.7956649">
<ele>516.825</ele>
<time>2015-12-27T05:35:49.545Z</time>
</trkpt>
<trkpt lat="-26.7983833" lon="152.7959324">
<ele>516.412</ele>
<time>2015-12-27T05:35:51.621Z</time>
</trkpt>
<trkpt lat="-26.7987457" lon="152.7961043">
<ele>516.088</ele>
<time>2015-12-27T05:35:53.409Z</time>
</trkpt>
<trkpt lat="-26.7993658" lon="152.7962166">
<ele>516.517</ele>
<time>2015-12-27T05:35:56.362Z</time>
</trkpt>
<trkpt lat="-26.8000061" lon="152.7961412">
<ele>517.313</ele>
<time>2015-12-27T05:35:59.376Z</time>
</trkpt>
<trkpt lat="-26.8006499" lon="152.7959385">
<ele>517.367</ele>
<time>2015-12-27T05:36:02.423Z</time>
</trkpt>
<trkpt lat="-26.8013431" lon="152.7955805">
<ele>516.287</ele>
<time>2015-12-27T05:36:05.704Z</time>
</trkpt>
<trkpt lat="-26.8017564" lon="152.7953813">
<ele>514.923</ele>
<time>2015-12-27T05:36:07.617Z</time>
</trkpt>
<trkpt lat="-26.8023878" lon="152.7951897">
<ele>514.110</ele>
<time>2015-12-27T05:36:10.521Z</time>
</trkpt>
<trkpt lat="-26.8030195" lon="152.7949711">
<ele>513.729</ele>
<time>2015-12-27T05:36:13.585Z</time>
</trkpt>
<trkpt lat="-26.8033780" lon="152.7947754">
<ele>513.259</ele>
<time>2015-12-27T05:36:15.507Z</time>
</trkpt>
<trkpt lat="-26.8036639" lon="152.7942090">
<ele>512.503</ele>
<time>2015-12-27T05:36:18.409Z</time>
</trkpt>
<trkpt lat="-26.8038401" lon="152.7937884">
<ele>512.952</ele>
<time>2015-12-27T05:36:20.481Z</time>
</trkpt>
<trkpt lat="-26.8040390" lon="152.7934250">
<ele>515.942</ele>
<time>2015-12-27T05:36:22.367Z</time>
</trkpt>
<trkpt lat="-26.8044691" lon="152.7929393">
<ele>519.904</ele>
<time>2015-12-27T05:36:25.391Z</time>
</trkpt>
<trkpt lat="-26.8050848" lon="152.7925569">
<ele>521.930</ele>
<time>2015-12-27T05:36:28.674Z</time>
</trkpt>
<trkpt lat="-26.8054468" lon="152.7925456">
<ele>521.097</ele>
<time>2015-12-27T05:36:30.329Z</time>
</trkpt>
<trkpt lat="-26.8058746" lon="152.7924996">
<ele>518.706</ele>
<time>2015-12-27T05:36:32.337Z</time>
</trkpt>
<trkpt lat="-26.8065157" lon="152.7923401">
<ele>516.317</ele>
<time>2015-12-27T05:36:35.450Z</time>
</trkpt>
<trkpt lat="-26.8070939" lon="152.7921552">
<ele>513.861</ele>
<time>2015-12-27T05:36:38.385Z</time>
</trkpt>
<trkpt lat="-26.8074240" lon="152.7919835">
<ele>511.148</ele>
<time>2015-12-27T05:36:40.245Z</time>
</trkpt>
<trkpt lat="-26.8078537" lon="152.7915759">
<ele>509.132</ele>
<time>2015-12-27T05:36:43.276Z</time>
</trkpt>
<trkpt lat="-26.8080901" lon="152.7913097">
<ele>509.230</ele>
<time>2015-12-27T05:36:45.170Z</time>
</trkpt>
<trkpt lat="-26.8082910" lon="152.7910265">
<ele>511.924</ele>
<time>2015-12-27T05:36:47.054Z</time>
</trkpt>
<trkpt lat="-26.8084945" lon="152.7907440">
<ele>516.123</ele>
<time>2015-12-27T05:36:48.986Z</time>
</trkpt>
<trkpt lat="-26.8088041" lon="152.7902799">
<ele>520.059</ele>
<time>2015-12-27T05:36:52.057Z</time>
</trkpt>
<trkpt lat="-26.8091131" lon="152.7898049">
<ele>523.271</ele>
<time>2015-12-27T05:36:55.061Z</time>
</trkpt>
<trkpt lat="-26.8093084" lon="152.7894557">
<ele>526.555</ele>
<time>2015-12-27T05:36:57.106Z</time>
</trkpt>
<trkpt lat="-26.8095325" lon="152.7889008">
<ele>529.990</ele>
<time>2015-12-27T05:37:00.078Z</time>
</trkpt>
<trkpt lat="-26.8098000" lon="152.7883403">
<ele>532.393</ele>
<time>2015-12-27T05:37:03.089Z</time>
</trkpt>
<trkpt lat="-26.8101850" lon="152.7878058">
<ele>533.377</ele>
<time>2015-12-27T05:37:06.184Z</time>
</trkpt>
<trkpt lat="-26.8105937" lon="152.7872525">
<ele>533.517</ele>
<time>2015-12-27T05:37:09.259Z</time>
</trkpt>
<trkpt lat="-26.8109361" lon="152.7866987">
<ele>533.235</ele>
<time>2015-12-27T05:37:12.098Z</time>
</trkpt>
<trkpt lat="-26.8111149" lon="152.7862912">
<ele>532.867</ele>
<time>2015-12-27T05:37:14.052Z</time>
</trkpt>
<trkpt lat="-26.8113888" lon="152.7856284">
<ele>532.937</ele>
<time>2015-12-27T05:37:17.236Z</time>
</trkpt>
<trkpt lat="-26.8116050" lon="152.7851030">
<ele>534.433</ele>
<time>2015-12-27T05:37:19.888Z</time>
</trkpt>
<trkpt lat="-26.8117010" lon="152.7847321">
<ele>537.398</ele>
<time>2015-12-27T05:37:21.804Z</time>
</trkpt>
<trkpt lat="-26.8117198" lon="152.7841260">
<ele>540.236</ele>
<time>2015-12-27T05:37:24.875Z</time>
</trkpt>
<trkpt lat="-26.8116065" lon="152.7837326">
<ele>542.128</ele>
<time>2015-12-27T05:37:26.942Z</time>
</trkpt>
<trkpt lat="-26.8112358" lon="152.7832288">
<ele>543.754</ele>
<time>2015-12-27T05:37:30.114Z</time>
</trkpt>
<trkpt lat="-26.8109449" lon="152.7829602">
<ele>545.873</ele>
<time>2015-12-27T05:37:32.112Z</time>
</trkpt>
<trkpt lat="-26.8106147" lon="152.7824362">
<ele>548.835</ele>
<time>2015-12-27T05:37:35.144Z</time>
</trkpt>
<trkpt lat="-26.8103753" lon="152.7818209">
<ele>552.380</ele>
<time>2015-12-27T05:37:38.223Z</time>
</trkpt>
<trkpt lat="-26.8102277" lon="152.7814084">
<ele>556.027</ele>
<time>2015-12-27T05:37:40.225Z</time>
</trkpt>
<trkpt lat="-26.8100373" lon="152.7808312">
<ele>559.116</ele>
<time>2015-12-27T05:37:43.092Z</time>
</trkpt>
<trkpt lat="-26.8099068" lon="152.7804677">
<ele>560.642</ele>
<time>2015-12-27T05:37:45.024Z</time>
</trkpt>
<trkpt lat="-26.8098319" lon="152.7801305">
<ele>560.243</ele>
<time>2015-12-27T05:37:46.845Z</time>
</trkpt>
<trkpt lat="-26.8098178" lon="152.7795636">
<ele>558.533</ele>
<time>2015-12-27T05:37:49.909Z</time>
</trkpt>
<trkpt lat="-26.8100279" lon="152.7789993">
<ele>556.295</ele>
<time>2015-12-27T05:37:53.036Z</time>
</trkpt>
<trkpt lat="-26.8100380" lon="152.7786155">
<ele>553.642</ele>
<time>2015-12-27T05:37:54.913Z</time>
</trkpt>
<trkpt lat="-26.8099196" lon="152.7779953">
<ele>550.348</ele>
<time>2015-12-27T05:37:58.032Z</time>
</trkpt>
<trkpt lat="-26.8097227" lon="152.7776274">
<ele>546.795</ele>
<time>2015-12-27T05:38:00.087Z</time>
</trkpt>
<trkpt lat="-26.8094554" lon="152.7770587">
<ele>543.845</ele>
<time>2015-12-27T05:38:03.135Z</time>
</trkpt>
<trkpt lat="-26.8093356" lon="152.7766853">
<ele>541.852</ele>
<time>2015-12-27T05:38:05.072Z</time>
</trkpt>
<trkpt lat="-26.8093198" lon="152.7760888">
<ele>540.675</ele>
<time>2015-12-27T05:38:08.040Z</time>
</trkpt>
<trkpt lat="-26.8095087" lon="152.7754888">
<ele>540.831</ele>
<time>2015-12-27T05:38:11.125Z</time>
</trkpt>
<trkpt lat="-26.8097465" lon="152.7748662">
<ele>543.272</ele>
<time>2015-12-27T05:38:14.299Z</time>
</trkpt>
<trkpt lat="-26.8098580" lon="152.7745122">
<ele>547.449</ele>
<time>2015-12-27T05:38:16.083Z</time>
</trkpt>
<trkpt lat="-26.8099096" lon="152.7738248">
<ele>551.328</ele>
<time>2015-12-27T05:38:19.309Z</time>
</trkpt>
<trkpt lat="-26.8098295" lon="152.7732043">
<ele>553.520</ele>
<time>2015-12-27T05:38:22.178Z</time>
</trkpt>
<trkpt lat="-26.8097101" lon="152.7728320">
<ele>554.170</ele>
<time>2015-12-27T05:38:24.058Z</time>
</trkpt>
<trkpt lat="-26.8094845" lon="152.7725086">
<ele>554.074</ele>
<time>2015-12-27T05:38:26.092Z</time>
</trkpt>
<trkpt lat="-26.8091716" lon="152.7720486">
<ele>554.088</ele>
<time>2015-12-27T05:38:29.062Z</time>
</trkpt>
<trkpt lat="-26.8090529" lon="152.7716775">
<ele>555.254</ele>
<time>2015-12-27T05:38:31.118Z</time>
</trkpt>
<trkpt lat="-26.8089587" lon="152.7712956">
<ele>557.783</ele>
<time>2015-12-27T05:38:33.140Z</time>
</trkpt>
<trkpt lat="-26.8089231" lon="152.7707521">
<ele>560.636</ele>
<time>2015-12-27T05:38:35.987Z</time>
</trkpt>
<trkpt lat="-26.8089332" lon="152.7703968">
<ele>562.730</ele>
<time>2015-12-27T05:38:37.954Z</time>
</trkpt>
<trkpt lat="-26.8090693" lon="152.7700713">
<ele>563.705</ele>
<time>2015-12-27T05:38:39.956Z</time>
</trkpt>
<trkpt lat="-26.8092623" lon="152.7697835">
<ele>563.663</ele>
<time>2015-12-27T05:38:41.967Z</time>
</trkpt>
<trkpt lat="-26.8095160" lon="152.7695443">
<ele>562.880</ele>
<time>2015-12-27T05:38:43.994Z</time>
</trkpt>
<trkpt lat="-26.8098354" lon="152.7693859">
<ele>561.722</ele>
<time>2015-12-27T05:38:45.989Z</time>
</trkpt>
<trkpt lat="-26.8103907" lon="152.7691177">
<ele>560.617</ele>
<time>2015-12-27T05:38:49.156Z</time>
</trkpt>
<trkpt lat="-26.8107390" lon="152.7688897">
<ele>559.363</ele>
<time>2015-12-27T05:38:51.165Z</time>
</trkpt>
<trkpt lat="-26.8112197" lon="152.7683661">
<ele>557.361</ele>
<time>2015-12-27T05:38:54.342Z</time>
</trkpt>
<trkpt lat="-26.8115231" lon="152.7680184">
<ele>554.860</ele>
<time>2015-12-27T05:38:56.356Z</time>
</trkpt>
<trkpt lat="-26.8119314" lon="152.7675734">
<ele>552.726</ele>
<time>2015-12-27T05:38:59.119Z</time>
</trkpt>
<trkpt lat="-26.8121784" lon="152.7672359">
<ele>550.985</ele>
<time>2015-12-27T05:39:01.117Z</time>
</trkpt>
<trkpt lat="-26.8124653" lon="152.7666447">
<ele>549.172</ele>
<time>2015-12-27T05:39:04.096Z</time>
</trkpt>
<trkpt lat="-26.8126499" lon="152.7661581">
<ele>546.966</ele>
<time>2015-12-27T05:39:06.245Z</time>
</trkpt>
<trkpt lat="-26.8129374" lon="152.7654507">
<ele>544.240</ele>
<time>2015-12-27T05:39:09.353Z</time>
</trkpt>
<trkpt lat="-26.8130788" lon="152.7650566">
<ele>541.134</ele>
<time>2015-12-27T05:39:11.125Z</time>
</trkpt>
<trkpt lat="-26.8132462" lon="152.7647610">
<ele>538.106</ele>
<time>2015-12-27T05:39:12.721Z</time>
</trkpt>
<trkpt lat="-26.8135000" lon="152.7645649">
<ele>535.833</ele>
<time>2015-12-27T05:39:14.443Z</time>
</trkpt>
<trkpt lat="-26.8139786" lon="152.7643100">
<ele>534.845</ele>
<time>2015-12-27T05:39:17.503Z</time>
</trkpt>
<trkpt lat="-26.8145843" lon="152.7642949">
<ele>535.428</ele>
<time>2015-12-27T05:39:20.881Z</time>
</trkpt>
<trkpt lat="-26.8149292" lon="152.7644445">
<ele>537.638</ele>
<time>2015-12-27T05:39:22.878Z</time>
</trkpt>
<trkpt lat="-26.8154120" lon="152.7648744">
<ele>540.499</ele>
<time>2015-12-27T05:39:26.027Z</time>
</trkpt>
<trkpt lat="-26.8158955" lon="152.7654133">
<ele>542.604</ele>
<time>2015-12-27T05:39:29.158Z</time>
</trkpt>
<trkpt lat="-26.8162727" lon="152.7657387">
<ele>543.457</ele>
<time>2015-12-27T05:39:31.217Z</time>
</trkpt>
<trkpt lat="-26.8168948" lon="152.7661518">
<ele>543.425</ele>
<time>2015-12-27T05:39:34.218Z</time>
</trkpt>
<trkpt lat="-26.8173154" lon="152.7664465">
<ele>543.155</ele>
<time>2015-12-27T05:39:36.235Z</time>
</trkpt>
<trkpt lat="-26.8178839" lon="152.7668244">
<ele>543.210</ele>
<time>2015-12-27T05:39:39.082Z</time>
</trkpt>
<trkpt lat="-26.8184668" lon="152.7671053">
<ele>543.747</ele>
<time>2015-12-27T05:39:42.011Z</time>
</trkpt>
<trkpt lat="-26.8191114" lon="152.7673070">
<ele>544.599</ele>
<time>2015-12-27T05:39:45.043Z</time>
</trkpt>
<trkpt lat="-26.8197624" lon="152.7674672">
<ele>546.201</ele>
<time>2015-12-27T05:39:47.976Z</time>
</trkpt>
<trkpt lat="-26.8204614" lon="152.7676625">
<ele>548.773</ele>
<time>2015-12-27T05:39:51.083Z</time>
</trkpt>
<trkpt lat="-26.8210740" lon="152.7678402">
<ele>551.058</ele>
<time>2015-12-27T05:39:53.895Z</time>
</trkpt>
<trkpt lat="-26.8214495" lon="152.7679972">
<ele>551.970</ele>
<time>2015-12-27T05:39:55.807Z</time>
</trkpt>
<trkpt lat="-26.8219899" lon="152.7683514">
<ele>551.906</ele>
<time>2015-12-27T05:39:58.877Z</time>
</trkpt>
<trkpt lat="-26.8224115" lon="152.7688348">
<ele>551.450</ele>
<time>2015-12-27T05:40:01.836Z</time>
</trkpt>
<trkpt lat="-26.8226209" lon="152.7692077">
<ele>550.747</ele>
<time>2015-12-27T05:40:03.777Z</time>
</trkpt>
<trkpt lat="-26.8227947" lon="152.7698242">
<ele>549.813</ele>
<time>2015-12-27T05:40:06.691Z</time>
</trkpt>
<trkpt lat="-26.8228547" lon="152.7705323">
<ele>548.337</ele>
<time>2015-12-27T05:40:09.850Z</time>
</trkpt>
<trkpt lat="-26.8227686" lon="152.7712036">
<ele>545.353</ele>
<time>2015-12-27T05:40:12.795Z</time>
</trkpt>
<trkpt lat="-26.8227535" lon="152.7714378">
<ele>539.947</ele>
<time>2015-12-27T05:40:13.930Z</time>
</trkpt>
<trkpt lat="-26.8226286" lon="152.7718452">
<ele>532.147</ele>
<time>2015-12-27T05:40:16.348Z</time>
</trkpt>
<trkpt lat="-26.8222427" lon="152.7721773">
<ele>523.069</ele>
<time>2015-12-27T05:40:19.801Z</time>
</trkpt>
<trkpt lat="-26.8218634" lon="152.7724510">
<ele>514.726</ele>
<time>2015-12-27T05:40:22.922Z</time>
</trkpt>
<trkpt lat="-26.8216860" lon="152.7726318">
<ele>508.179</ele>
<time>2015-12-27T05:40:24.595Z</time>
</trkpt>
<trkpt lat="-26.8215607" lon="152.7728266">
<ele>502.811</ele>
<time>2015-12-27T05:40:26.190Z</time>
</trkpt>
<trkpt lat="-26.8216777" lon="152.7731217">
<ele>498.123</ele>
<time>2015-12-27T05:40:28.617Z</time>
</trkpt>
<trkpt lat="-26.8219113" lon="152.7735905">
<ele>494.506</ele>
<time>2015-12-27T05:40:32.721Z</time>
</trkpt>
<trkpt lat="-26.8220588" lon="152.7741853">
<ele>491.562</ele>
<time>2015-12-27T05:40:36.426Z</time>
</trkpt>
<trkpt lat="-26.8221332" lon="152.7745176">
<ele>487.797</ele>
<time>2015-12-27T05:40:38.334Z</time>
</trkpt>
<trkpt lat="-26.8221333" lon="152.7748076">
<ele>482.363</ele>
<time>2015-12-27T05:40:40.043Z</time>
</trkpt>
<trkpt lat="-26.8218899" lon="152.7749914">
<ele>476.419</ele>
<time>2015-12-27T05:40:42.415Z</time>
</trkpt>
<trkpt lat="-26.8219188" lon="152.7753738">
<ele>470.932</ele>
<time>2015-12-27T05:40:45.620Z</time>
</trkpt>
<trkpt lat="-26.8221502" lon="152.7755076">
<ele>465.965</ele>
<time>2015-12-27T05:40:48.137Z</time>
</trkpt>
<trkpt lat="-26.8225929" lon="152.7758658">
<ele>462.131</ele>
<time>2015-12-27T05:40:52.127Z</time>
</trkpt>
<trkpt lat="-26.8228135" lon="152.7762735">
<ele>459.776</ele>
<time>2015-12-27T05:40:54.429Z</time>
</trkpt>
<trkpt lat="-26.8231966" lon="152.7769888">
<ele>458.254</ele>
<time>2015-12-27T05:40:57.981Z</time>
</trkpt>
<trkpt lat="-26.8234360" lon="152.7773773">
<ele>457.016</ele>
<time>2015-12-27T05:40:59.822Z</time>
</trkpt>
<trkpt lat="-26.8236697" lon="152.7778278">
<ele>455.528</ele>
<time>2015-12-27T05:41:01.810Z</time>
</trkpt>
<trkpt lat="-26.8238608" lon="152.7783114">
<ele>453.151</ele>
<time>2015-12-27T05:41:03.857Z</time>
</trkpt>
<trkpt lat="-26.8241173" lon="152.7789980">
<ele>449.901</ele>
<time>2015-12-27T05:41:06.849Z</time>
</trkpt>
<trkpt lat="-26.8242228" lon="152.7796975">
<ele>446.460</ele>
<time>2015-12-27T05:41:09.901Z</time>
</trkpt>
<trkpt lat="-26.8242450" lon="152.7801203">
<ele>443.669</ele>
<time>2015-12-27T05:41:11.968Z</time>
</trkpt>
<trkpt lat="-26.8244031" lon="152.7805809">
<ele>441.848</ele>
<time>2015-12-27T05:41:14.395Z</time>
</trkpt>
<trkpt lat="-26.8247457" lon="152.7811144">
<ele>440.380</ele>
<time>2015-12-27T05:41:17.572Z</time>
</trkpt>
<trkpt lat="-26.8249978" lon="152.7816470">
<ele>438.717</ele>
<time>2015-12-27T05:41:20.494Z</time>
</trkpt>
<trkpt lat="-26.8250804" lon="152.7820434">
<ele>436.604</ele>
<time>2015-12-27T05:41:22.499Z</time>
</trkpt>
<trkpt lat="-26.8250472" lon="152.7824731">
<ele>433.759</ele>
<time>2015-12-27T05:41:24.507Z</time>
</trkpt>
<trkpt lat="-26.8250139" lon="152.7829457">
<ele>430.927</ele>
<time>2015-12-27T05:41:26.568Z</time>
</trkpt>
<trkpt lat="-26.8249522" lon="152.7837295">
<ele>429.897</ele>
<time>2015-12-27T05:41:29.736Z</time>
</trkpt>
<trkpt lat="-26.8249345" lon="152.7842517">
<ele>430.980</ele>
<time>2015-12-27T05:41:31.765Z</time>
</trkpt>
<trkpt lat="-26.8248890" lon="152.7850037">
<ele>432.260</ele>
<time>2015-12-27T05:41:34.714Z</time>
</trkpt>
<trkpt lat="-26.8248455" lon="152.7855073">
<ele>431.718</ele>
<time>2015-12-27T05:41:36.737Z</time>
</trkpt>
<trkpt lat="-26.8247812" lon="152.7859727">
<ele>429.528</ele>
<time>2015-12-27T05:41:38.704Z</time>
</trkpt>
<trkpt lat="-26.8247429" lon="152.7864123">
<ele>427.249</ele>
<time>2015-12-27T05:41:40.676Z</time>
</trkpt>
<trkpt lat="-26.8246671" lon="152.7868393">
<ele>425.752</ele>
<time>2015-12-27T05:41:42.708Z</time>
</trkpt>
<trkpt lat="-26.8245622" lon="152.7872297">
<ele>424.873</ele>
<time>2015-12-27T05:41:44.618Z</time>
</trkpt>
<trkpt lat="-26.8242843" lon="152.7875383">
<ele>424.734</ele>
<time>2015-12-27T05:41:46.654Z</time>
</trkpt>
<trkpt lat="-26.8240357" lon="152.7878502">
<ele>425.439</ele>
<time>2015-12-27T05:41:48.653Z</time>
</trkpt>
<trkpt lat="-26.8237846" lon="152.7881364">
<ele>426.297</ele>
<time>2015-12-27T05:41:50.810Z</time>
</trkpt>
<trkpt lat="-26.8236851" lon="152.7886256">
<ele>426.589</ele>
<time>2015-12-27T05:41:53.783Z</time>
</trkpt>
<trkpt lat="-26.8237884" lon="152.7890671">
<ele>426.312</ele>
<time>2015-12-27T05:41:56.598Z</time>
</trkpt>
<trkpt lat="-26.8239762" lon="152.7893558">
<ele>425.890</ele>
<time>2015-12-27T05:41:58.608Z</time>
</trkpt>
<trkpt lat="-26.8241956" lon="152.7897215">
<ele>425.743</ele>
<time>2015-12-27T05:42:00.964Z</time>
</trkpt>
<trkpt lat="-26.8245320" lon="152.7901364">
<ele>425.993</ele>
<time>2015-12-27T05:42:03.923Z</time>
</trkpt>
<trkpt lat="-26.8247259" lon="152.7904790">
<ele>426.450</ele>
<time>2015-12-27T05:42:06.096Z</time>
</trkpt>
<trkpt lat="-26.8250504" lon="152.7909114">
<ele>426.605</ele>
<time>2015-12-27T05:42:09.313Z</time>
</trkpt>
<trkpt lat="-26.8253049" lon="152.7911047">
<ele>426.066</ele>
<time>2015-12-27T05:42:11.478Z</time>
</trkpt>
<trkpt lat="-26.8256819" lon="152.7912195">
<ele>425.107</ele>
<time>2015-12-27T05:42:14.387Z</time>
</trkpt>
<trkpt lat="-26.8260734" lon="152.7912377">
<ele>424.368</ele>
<time>2015-12-27T05:42:17.374Z</time>
</trkpt>
<trkpt lat="-26.8264614" lon="152.7914504">
<ele>423.975</ele>
<time>2015-12-27T05:42:20.496Z</time>
</trkpt>
<trkpt lat="-26.8267442" lon="152.7915842">
<ele>423.374</ele>
<time>2015-12-27T05:42:22.518Z</time>
</trkpt>
<trkpt lat="-26.8271571" lon="152.7917800">
<ele>422.164</ele>
<time>2015-12-27T05:42:25.489Z</time>
</trkpt>
<trkpt lat="-26.8273606" lon="152.7919490">
<ele>420.245</ele>
<time>2015-12-27T05:42:27.221Z</time>
</trkpt>
<trkpt lat="-26.8275621" lon="152.7924618">
<ele>417.968</ele>
<time>2015-12-27T05:42:30.379Z</time>
</trkpt>
<trkpt lat="-26.8275882" lon="152.7928747">
<ele>416.251</ele>
<time>2015-12-27T05:42:32.430Z</time>
</trkpt>
<trkpt lat="-26.8275321" lon="152.7933529">
<ele>415.596</ele>
<time>2015-12-27T05:42:34.709Z</time>
</trkpt>
<trkpt lat="-26.8274920" lon="152.7937632">
<ele>415.287</ele>
<time>2015-12-27T05:42:36.626Z</time>
</trkpt>
<trkpt lat="-26.8273169" lon="152.7943983">
<ele>414.573</ele>
<time>2015-12-27T05:42:39.669Z</time>
</trkpt>
<trkpt lat="-26.8272362" lon="152.7948349">
<ele>413.278</ele>
<time>2015-12-27T05:42:41.655Z</time>
</trkpt>
<trkpt lat="-26.8271371" lon="152.7955625">
<ele>411.716</ele>
<time>2015-12-27T05:42:44.846Z</time>
</trkpt>
<trkpt lat="-26.8270069" lon="152.7962611">
<ele>410.258</ele>
<time>2015-12-27T05:42:47.908Z</time>
</trkpt>
<trkpt lat="-26.8270472" lon="152.7967581">
<ele>408.775</ele>
<time>2015-12-27T05:42:50.090Z</time>
</trkpt>
<trkpt lat="-26.8270769" lon="152.7972901">
<ele>406.841</ele>
<time>2015-12-27T05:42:52.728Z</time>
</trkpt>
<trkpt lat="-26.8269729" lon="152.7976083">
<ele>404.816</ele>
<time>2015-12-27T05:42:54.464Z</time>
</trkpt>
<trkpt lat="-26.8269571" lon="152.7980213">
<ele>403.483</ele>
<time>2015-12-27T05:42:56.466Z</time>
</trkpt>
<trkpt lat="-26.8270241" lon="152.7987204">
<ele>403.397</ele>
<time>2015-12-27T05:42:59.533Z</time>
</trkpt>
<trkpt lat="-26.8270353" lon="152.7992292">
<ele>404.947</ele>
<time>2015-12-27T05:43:01.651Z</time>
</trkpt>
<trkpt lat="-26.8270623" lon="152.7997033">
<ele>407.544</ele>
<time>2015-12-27T05:43:03.683Z</time>
</trkpt>
<trkpt lat="-26.8270600" lon="152.8001779">
<ele>409.370</ele>
<time>2015-12-27T05:43:05.777Z</time>
</trkpt>
<trkpt lat="-26.8270203" lon="152.8006113">
<ele>409.361</ele>
<time>2015-12-27T05:43:07.725Z</time>
</trkpt>
<trkpt lat="-26.8269201" lon="152.8010368">
<ele>408.174</ele>
<time>2015-12-27T05:43:09.683Z</time>
</trkpt>
<trkpt lat="-26.8266640" lon="152.8016698">
<ele>406.918</ele>
<time>2015-12-27T05:43:12.641Z</time>
</trkpt>
<trkpt lat="-26.8262622" lon="152.8022452">
<ele>406.056</ele>
<time>2015-12-27T05:43:15.569Z</time>
</trkpt>
<trkpt lat="-26.8257483" lon="152.8027758">
<ele>405.256</ele>
<time>2015-12-27T05:43:18.656Z</time>
</trkpt>
<trkpt lat="-26.8254269" lon="152.8031302">
<ele>403.827</ele>
<time>2015-12-27T05:43:20.718Z</time>
</trkpt>
<trkpt lat="-26.8250258" lon="152.8036608">
<ele>401.334</ele>
<time>2015-12-27T05:43:23.791Z</time>
</trkpt>
<trkpt lat="-26.8248529" lon="152.8040517">
<ele>397.741</ele>
<time>2015-12-27T05:43:25.937Z</time>
</trkpt>
<trkpt lat="-26.8246643" lon="152.8045415">
<ele>393.627</ele>
<time>2015-12-27T05:43:28.892Z</time>
</trkpt>
<trkpt lat="-26.8246611" lon="152.8048780">
<ele>389.261</ele>
<time>2015-12-27T05:43:30.810Z</time>
</trkpt>
<trkpt lat="-26.8248573" lon="152.8053845">
<ele>384.623</ele>
<time>2015-12-27T05:43:33.721Z</time>
</trkpt>
<trkpt lat="-26.8252787" lon="152.8058342">
<ele>380.777</ele>
<time>2015-12-27T05:43:36.601Z</time>
</trkpt>
<trkpt lat="-26.8256275" lon="152.8062391">
<ele>378.807</ele>
<time>2015-12-27T05:43:38.830Z</time>
</trkpt>
<trkpt lat="-26.8259670" lon="152.8065946">
<ele>378.246</ele>
<time>2015-12-27T05:43:40.857Z</time>
</trkpt>
<trkpt lat="-26.8264571" lon="152.8071276">
<ele>377.562</ele>
<time>2015-12-27T05:43:43.882Z</time>
</trkpt>
<trkpt lat="-26.8268955" lon="152.8076591">
<ele>374.921</ele>
<time>2015-12-27T05:43:46.805Z</time>
</trkpt>
<trkpt lat="-26.8272706" lon="152.8082479">
<ele>369.836</ele>
<time>2015-12-27T05:43:49.820Z</time>
</trkpt>
<trkpt lat="-26.8273511" lon="152.8086918">
<ele>363.523</ele>
<time>2015-12-27T05:43:51.708Z</time>
</trkpt>
<trkpt lat="-26.8274933" lon="152.8091534">
<ele>357.458</ele>
<time>2015-12-27T05:43:53.740Z</time>
</trkpt>
<trkpt lat="-26.8276249" lon="152.8096068">
<ele>352.794</ele>
<time>2015-12-27T05:43:55.739Z</time>
</trkpt>
<trkpt lat="-26.8278941" lon="152.8102107">
<ele>349.906</ele>
<time>2015-12-27T05:43:58.779Z</time>
</trkpt>
<trkpt lat="-26.8280408" lon="152.8105715">
<ele>347.890</ele>
<time>2015-12-27T05:44:00.718Z</time>
</trkpt>
<trkpt lat="-26.8281808" lon="152.8110967">
<ele>345.530</ele>
<time>2015-12-27T05:44:03.629Z</time>
</trkpt>
<trkpt lat="-26.8281437" lon="152.8114594">
<ele>342.604</ele>
<time>2015-12-27T05:44:05.608Z</time>
</trkpt>
<trkpt lat="-26.8279528" lon="152.8120175">
<ele>339.703</ele>
<time>2015-12-27T05:44:09.220Z</time>
</trkpt>
<trkpt lat="-26.8278927" lon="152.8122717">
<ele>337.149</ele>
<time>2015-12-27T05:44:11.081Z</time>
</trkpt>
<trkpt lat="-26.8279320" lon="152.8125190">
<ele>334.759</ele>
<time>2015-12-27T05:44:12.934Z</time>
</trkpt>
<trkpt lat="-26.8282410" lon="152.8128240">
<ele>332.691</ele>
<time>2015-12-27T05:44:16.071Z</time>
</trkpt>
<trkpt lat="-26.8285856" lon="152.8128163">
<ele>331.610</ele>
<time>2015-12-27T05:44:18.316Z</time>
</trkpt>
<trkpt lat="-26.8291002" lon="152.8126075">
<ele>331.713</ele>
<time>2015-12-27T05:44:21.361Z</time>
</trkpt>
<trkpt lat="-26.8294640" lon="152.8124859">
<ele>332.614</ele>
<time>2015-12-27T05:44:23.417Z</time>
</trkpt>
<trkpt lat="-26.8298049" lon="152.8124648">
<ele>333.747</ele>
<time>2015-12-27T05:44:25.184Z</time>
</trkpt>
<trkpt lat="-26.8301853" lon="152.8125234">
<ele>334.220</ele>
<time>2015-12-27T05:44:27.060Z</time>
</trkpt>
<trkpt lat="-26.8305904" lon="152.8126871">
<ele>333.478</ele>
<time>2015-12-27T05:44:29.098Z</time>
</trkpt>
<trkpt lat="-26.8311470" lon="152.8130303">
<ele>331.904</ele>
<time>2015-12-27T05:44:31.953Z</time>
</trkpt>
<trkpt lat="-26.8316444" lon="152.8135456">
<ele>330.017</ele>
<time>2015-12-27T05:44:34.930Z</time>
</trkpt>
<trkpt lat="-26.8319197" lon="152.8139802">
<ele>328.226</ele>
<time>2015-12-27T05:44:37.099Z</time>
</trkpt>
<trkpt lat="-26.8323436" lon="152.8144640">
<ele>326.582</ele>
<time>2015-12-27T05:44:40.086Z</time>
</trkpt>
<trkpt lat="-26.8326910" lon="152.8147493">
<ele>323.631</ele>
<time>2015-12-27T05:44:42.329Z</time>
</trkpt>
<trkpt lat="-26.8330145" lon="152.8148579">
<ele>318.498</ele>
<time>2015-12-27T05:44:44.118Z</time>
</trkpt>
<trkpt lat="-26.8335606" lon="152.8149999">
<ele>313.105</ele>
<time>2015-12-27T05:44:46.999Z</time>
</trkpt>
<trkpt lat="-26.8339092" lon="152.8152019">
<ele>309.529</ele>
<time>2015-12-27T05:44:48.896Z</time>
</trkpt>
<trkpt lat="-26.8342377" lon="152.8155280">
<ele>307.691</ele>
<time>2015-12-27T05:44:50.960Z</time>
</trkpt>
<trkpt lat="-26.8346877" lon="152.8160612">
<ele>306.814</ele>
<time>2015-12-27T05:44:54.291Z</time>
</trkpt>
<trkpt lat="-26.8350076" lon="152.8165430">
<ele>306.507</ele>
<time>2015-12-27T05:44:57.713Z</time>
</trkpt>
<trkpt lat="-26.8352917" lon="152.8168784">
<ele>306.136</ele>
<time>2015-12-27T05:45:01.229Z</time>
</trkpt>
<trkpt lat="-26.8354640" lon="152.8171646">
<ele>304.478</ele>
<time>2015-12-27T05:45:05.032Z</time>
</trkpt>
<trkpt lat="-26.8355636" lon="152.8174113">
<ele>300.902</ele>
<time>2015-12-27T05:45:09.157Z</time>
</trkpt>
<trkpt lat="-26.8356485" lon="152.8175624">
<ele>296.139</ele>
<time>2015-12-27T05:45:11.154Z</time>
</trkpt>
<trkpt lat="-26.8358073" lon="152.8175231">
<ele>291.858</ele>
<time>2015-12-27T05:45:12.583Z</time>
</trkpt>
<trkpt lat="-26.8361746" lon="152.8175493">
<ele>289.529</ele>
<time>2015-12-27T05:45:15.457Z</time>
</trkpt>
<trkpt lat="-26.8364497" lon="152.8176062">
<ele>289.309</ele>
<time>2015-12-27T05:45:17.578Z</time>
</trkpt>
<trkpt lat="-26.8368063" lon="152.8176496">
<ele>290.140</ele>
<time>2015-12-27T05:45:20.205Z</time>
</trkpt>
<trkpt lat="-26.8372181" lon="152.8175397">
<ele>290.627</ele>
<time>2015-12-27T05:45:23.086Z</time>
</trkpt>
<trkpt lat="-26.8376607" lon="152.8174514">
<ele>290.083</ele>
<time>2015-12-27T05:45:25.921Z</time>
</trkpt>
<trkpt lat="-26.8381771" lon="152.8175443">
<ele>288.925</ele>
<time>2015-12-27T05:45:29.095Z</time>
</trkpt>
<trkpt lat="-26.8385024" lon="152.8175932">
<ele>287.657</ele>
<time>2015-12-27T05:45:31.094Z</time>
</trkpt>
<trkpt lat="-26.8390073" lon="152.8174773">
<ele>286.233</ele>
<time>2015-12-27T05:45:34.330Z</time>
</trkpt>
<trkpt lat="-26.8392485" lon="152.8172317">
<ele>284.206</ele>
<time>2015-12-27T05:45:36.469Z</time>
</trkpt>
<trkpt lat="-26.8395062" lon="152.8168213">
<ele>281.588</ele>
<time>2015-12-27T05:45:39.497Z</time>
</trkpt>
<trkpt lat="-26.8398088" lon="152.8164754">
<ele>279.068</ele>
<time>2015-12-27T05:45:42.407Z</time>
</trkpt>
<trkpt lat="-26.8400809" lon="152.8163104">
<ele>276.923</ele>
<time>2015-12-27T05:45:44.417Z</time>
</trkpt>
<trkpt lat="-26.8405287" lon="152.8162534">
<ele>275.116</ele>
<time>2015-12-27T05:45:47.188Z</time>
</trkpt>
<trkpt lat="-26.8410078" lon="152.8164584">
<ele>273.558</ele>
<time>2015-12-27T05:45:50.161Z</time>
</trkpt>
<trkpt lat="-26.8414007" lon="152.8168411">
<ele>271.560</ele>
<time>2015-12-27T05:45:53.256Z</time>
</trkpt>
<trkpt lat="-26.8416224" lon="152.8173437">
<ele>268.725</ele>
<time>2015-12-27T05:45:56.484Z</time>
</trkpt>
<trkpt lat="-26.8419759" lon="152.8176770">
<ele>265.328</ele>
<time>2015-12-27T05:45:59.615Z</time>
</trkpt>
<trkpt lat="-26.8424360" lon="152.8176273">
<ele>261.924</ele>
<time>2015-12-27T05:46:02.675Z</time>
</trkpt>
<trkpt lat="-26.8427222" lon="152.8177211">
<ele>259.159</ele>
<time>2015-12-27T05:46:04.598Z</time>
</trkpt>
<trkpt lat="-26.8429796" lon="152.8179200">
<ele>257.066</ele>
<time>2015-12-27T05:46:06.604Z</time>
</trkpt>
<trkpt lat="-26.8433262" lon="152.8183141">
<ele>255.206</ele>
<time>2015-12-27T05:46:09.787Z</time>
</trkpt>
<trkpt lat="-26.8435451" lon="152.8185228">
<ele>253.217</ele>
<time>2015-12-27T05:46:11.612Z</time>
</trkpt>
<trkpt lat="-26.8440397" lon="152.8185747">
<ele>251.119</ele>
<time>2015-12-27T05:46:14.693Z</time>
</trkpt>
<trkpt lat="-26.8443160" lon="152.8185551">
<ele>249.021</ele>
<time>2015-12-27T05:46:16.349Z</time>
</trkpt>
<trkpt lat="-26.8446437" lon="152.8185427">
<ele>246.791</ele>
<time>2015-12-27T05:46:18.200Z</time>
</trkpt>
<trkpt lat="-26.8449691" lon="152.8186591">
<ele>244.241</ele>
<time>2015-12-27T05:46:20.036Z</time>
</trkpt>
<trkpt lat="-26.8454672" lon="152.8189528">
<ele>241.567</ele>
<time>2015-12-27T05:46:22.924Z</time>
</trkpt>
<trkpt lat="-26.8457693" lon="152.8192610">
<ele>238.850</ele>
<time>2015-12-27T05:46:25.038Z</time>
</trkpt>
<trkpt lat="-26.8461938" lon="152.8196717">
<ele>235.808</ele>
<time>2015-12-27T05:46:28.011Z</time>
</trkpt>
<trkpt lat="-26.8467244" lon="152.8199323">
<ele>232.002</ele>
<time>2015-12-27T05:46:31.174Z</time>
</trkpt>
<trkpt lat="-26.8470819" lon="152.8198976">
<ele>227.612</ele>
<time>2015-12-27T05:46:33.101Z</time>
</trkpt>
<trkpt lat="-26.8475619" lon="152.8197225">
<ele>223.360</ele>
<time>2015-12-27T05:46:35.752Z</time>
</trkpt>
<trkpt lat="-26.8479535" lon="152.8193242">
<ele>219.522</ele>
<time>2015-12-27T05:46:38.426Z</time>
</trkpt>
<trkpt lat="-26.8481725" lon="152.8189640">
<ele>215.799</ele>
<time>2015-12-27T05:46:40.263Z</time>
</trkpt>
<trkpt lat="-26.8483027" lon="152.8184684">
<ele>212.317</ele>
<time>2015-12-27T05:46:42.380Z</time>
</trkpt>
<trkpt lat="-26.8483893" lon="152.8177033">
<ele>209.710</ele>
<time>2015-12-27T05:46:45.525Z</time>
</trkpt>
<trkpt lat="-26.8484450" lon="152.8172361">
<ele>208.182</ele>
<time>2015-12-27T05:46:47.518Z</time>
</trkpt>
<trkpt lat="-26.8485845" lon="152.8167875">
<ele>207.116</ele>
<time>2015-12-27T05:46:49.569Z</time>
</trkpt>
<trkpt lat="-26.8487938" lon="152.8163796">
<ele>205.606</ele>
<time>2015-12-27T05:46:51.613Z</time>
</trkpt>
<trkpt lat="-26.8490971" lon="152.8160812">
<ele>203.232</ele>
<time>2015-12-27T05:46:53.544Z</time>
</trkpt>
<trkpt lat="-26.8494609" lon="152.8158429">
<ele>200.217</ele>
<time>2015-12-27T05:46:55.540Z</time>
</trkpt>
<trkpt lat="-26.8500717" lon="152.8156618">
<ele>197.193</ele>
<time>2015-12-27T05:46:58.448Z</time>
</trkpt>
<trkpt lat="-26.8505441" lon="152.8156677">
<ele>194.904</ele>
<time>2015-12-27T05:47:00.576Z</time>
</trkpt>
<trkpt lat="-26.8509777" lon="152.8156591">
<ele>194.032</ele>
<time>2015-12-27T05:47:02.510Z</time>
</trkpt>
<trkpt lat="-26.8514151" lon="152.8157188">
<ele>194.541</ele>
<time>2015-12-27T05:47:04.474Z</time>
</trkpt>
<trkpt lat="-26.8520755" lon="152.8157340">
<ele>195.533</ele>
<time>2015-12-27T05:47:07.451Z</time>
</trkpt>
<trkpt lat="-26.8525198" lon="152.8157148">
<ele>196.498</ele>
<time>2015-12-27T05:47:09.469Z</time>
</trkpt>
<trkpt lat="-26.8531683" lon="152.8157216">
<ele>197.509</ele>
<time>2015-12-27T05:47:12.407Z</time>
</trkpt>
<trkpt lat="-26.8535918" lon="152.8157040">
<ele>198.355</ele>
<time>2015-12-27T05:47:14.300Z</time>
</trkpt>
<trkpt lat="-26.8540667" lon="152.8157179">
<ele>198.708</ele>
<time>2015-12-27T05:47:16.402Z</time>
</trkpt>
<trkpt lat="-26.8547575" lon="152.8156960">
<ele>198.317</ele>
<time>2015-12-27T05:47:19.395Z</time>
</trkpt>
<trkpt lat="-26.8554622" lon="152.8156805">
<ele>196.688</ele>
<time>2015-12-27T05:47:22.389Z</time>
</trkpt>
<trkpt lat="-26.8559330" lon="152.8156805">
<ele>193.715</ele>
<time>2015-12-27T05:47:24.368Z</time>
</trkpt>
<trkpt lat="-26.8564188" lon="152.8156842">
<ele>189.908</ele>
<time>2015-12-27T05:47:26.380Z</time>
</trkpt>
<trkpt lat="-26.8571536" lon="152.8156658">
<ele>185.782</ele>
<time>2015-12-27T05:47:29.312Z</time>
</trkpt>
<trkpt lat="-26.8576595" lon="152.8156454">
<ele>181.743</ele>
<time>2015-12-27T05:47:31.291Z</time>
</trkpt>
<trkpt lat="-26.8581557" lon="152.8156605">
<ele>178.329</ele>
<time>2015-12-27T05:47:33.230Z</time>
</trkpt>
<trkpt lat="-26.8589341" lon="152.8156626">
<ele>175.835</ele>
<time>2015-12-27T05:47:36.312Z</time>
</trkpt>
<trkpt lat="-26.8596847" lon="152.8156204">
<ele>173.989</ele>
<time>2015-12-27T05:47:39.346Z</time>
</trkpt>
<trkpt lat="-26.8601748" lon="152.8156136">
<ele>172.325</ele>
<time>2015-12-27T05:47:41.346Z</time>
</trkpt>
<trkpt lat="-26.8606486" lon="152.8155971">
<ele>170.538</ele>
<time>2015-12-27T05:47:43.282Z</time>
</trkpt>
<trkpt lat="-26.8611379" lon="152.8155424">
<ele>168.758</ele>
<time>2015-12-27T05:47:45.283Z</time>
</trkpt>
<trkpt lat="-26.8616130" lon="152.8154385">
<ele>167.518</ele>
<time>2015-12-27T05:47:47.251Z</time>
</trkpt>
<trkpt lat="-26.8623017" lon="152.8152022">
<ele>167.003</ele>
<time>2015-12-27T05:47:50.151Z</time>
</trkpt>
<trkpt lat="-26.8627765" lon="152.8150295">
<ele>166.703</ele>
<time>2015-12-27T05:47:52.143Z</time>
</trkpt>
<trkpt lat="-26.8634575" lon="152.8146705">
<ele>166.229</ele>
<time>2015-12-27T05:47:55.108Z</time>
</trkpt>
<trkpt lat="-26.8639033" lon="152.8143716">
<ele>165.726</ele>
<time>2015-12-27T05:47:57.189Z</time>
</trkpt>
<trkpt lat="-26.8643054" lon="152.8140581">
<ele>165.259</ele>
<time>2015-12-27T05:47:59.175Z</time>
</trkpt>
<trkpt lat="-26.8648670" lon="152.8135384">
<ele>164.517</ele>
<time>2015-12-27T05:48:02.175Z</time>
</trkpt>
<trkpt lat="-26.8654258" lon="152.8130373">
<ele>163.474</ele>
<time>2015-12-27T05:48:05.116Z</time>
</trkpt>
<trkpt lat="-26.8657807" lon="152.8127014">
<ele>162.538</ele>
<time>2015-12-27T05:48:07.010Z</time>
</trkpt>
<trkpt lat="-26.8663499" lon="152.8121762">
<ele>162.047</ele>
<time>2015-12-27T05:48:10.021Z</time>
</trkpt>
<trkpt lat="-26.8667221" lon="152.8118380">
<ele>161.993</ele>
<time>2015-12-27T05:48:11.986Z</time>
</trkpt>
<trkpt lat="-26.8670926" lon="152.8114980">
<ele>162.069</ele>
<time>2015-12-27T05:48:13.947Z</time>
</trkpt>
<trkpt lat="-26.8676690" lon="152.8109837">
<ele>162.040</ele>
<time>2015-12-27T05:48:16.941Z</time>
</trkpt>
<trkpt lat="-26.8680460" lon="152.8106196">
<ele>161.841</ele>
<time>2015-12-27T05:48:18.967Z</time>
</trkpt>
<trkpt lat="-26.8686025" lon="152.8100870">
<ele>161.530</ele>
<time>2015-12-27T05:48:21.968Z</time>
</trkpt>
<trkpt lat="-26.8689542" lon="152.8097030">
<ele>161.392</ele>
<time>2015-12-27T05:48:23.971Z</time>
</trkpt>
<trkpt lat="-26.8692951" lon="152.8092810">
<ele>161.807</ele>
<time>2015-12-27T05:48:26.013Z</time>
</trkpt>
<trkpt lat="-26.8697721" lon="152.8086100">
<ele>163.099</ele>
<time>2015-12-27T05:48:29.089Z</time>
</trkpt>
<trkpt lat="-26.8700196" lon="152.8081249">
<ele>165.168</ele>
<time>2015-12-27T05:48:31.118Z</time>
</trkpt>
<trkpt lat="-26.8703578" lon="152.8073945">
<ele>167.352</ele>
<time>2015-12-27T05:48:34.125Z</time>
</trkpt>
<trkpt lat="-26.8705551" lon="152.8068789">
<ele>169.190</ele>
<time>2015-12-27T05:48:36.161Z</time>
</trkpt>
<trkpt lat="-26.8707810" lon="152.8061185">
<ele>170.721</ele>
<time>2015-12-27T05:48:39.019Z</time>
</trkpt>
<trkpt lat="-26.8709045" lon="152.8055756">
<ele>171.988</ele>
<time>2015-12-27T05:48:41.002Z</time>
</trkpt>
<trkpt lat="-26.8710996" lon="152.8047712">
<ele>173.151</ele>
<time>2015-12-27T05:48:43.961Z</time>
</trkpt>
<trkpt lat="-26.8712227" lon="152.8042268">
<ele>174.256</ele>
<time>2015-12-27T05:48:45.973Z</time>
</trkpt>
<trkpt lat="-26.8713633" lon="152.8036886">
<ele>175.019</ele>
<time>2015-12-27T05:48:47.995Z</time>
</trkpt>
<trkpt lat="-26.8715840" lon="152.8029276">
<ele>175.308</ele>
<time>2015-12-27T05:48:50.934Z</time>
</trkpt>
<trkpt lat="-26.8718198" lon="152.8021781">
<ele>175.356</ele>
<time>2015-12-27T05:48:53.896Z</time>
</trkpt>
<trkpt lat="-26.8720041" lon="152.8016986">
<ele>175.372</ele>
<time>2015-12-27T05:48:55.847Z</time>
</trkpt>
<trkpt lat="-26.8723039" lon="152.8009567">
<ele>175.426</ele>
<time>2015-12-27T05:48:58.848Z</time>
</trkpt>
<trkpt lat="-26.8725176" lon="152.8004823">
<ele>175.502</ele>
<time>2015-12-27T05:49:00.790Z</time>
</trkpt>
<trkpt lat="-26.8727276" lon="152.7999888">
<ele>175.546</ele>
<time>2015-12-27T05:49:02.783Z</time>
</trkpt>
<trkpt lat="-26.8730554" lon="152.7992732">
<ele>175.467</ele>
<time>2015-12-27T05:49:05.662Z</time>
</trkpt>
<trkpt lat="-26.8733896" lon="152.7985180">
<ele>175.098</ele>
<time>2015-12-27T05:49:08.641Z</time>
</trkpt>
<trkpt lat="-26.8737408" lon="152.7978028">
<ele>174.439</ele>
<time>2015-12-27T05:49:11.539Z</time>
</trkpt>
<trkpt lat="-26.8740996" lon="152.7970537">
<ele>173.686</ele>
<time>2015-12-27T05:49:14.563Z</time>
</trkpt>
<trkpt lat="-26.8743272" lon="152.7965496">
<ele>172.826</ele>
<time>2015-12-27T05:49:16.579Z</time>
</trkpt>
<trkpt lat="-26.8746650" lon="152.7958103">
<ele>171.615</ele>
<time>2015-12-27T05:49:19.559Z</time>
</trkpt>
<trkpt lat="-26.8749085" lon="152.7953221">
<ele>170.060</ele>
<time>2015-12-27T05:49:21.561Z</time>
</trkpt>
<trkpt lat="-26.8751141" lon="152.7948197">
<ele>168.339</ele>
<time>2015-12-27T05:49:23.528Z</time>
</trkpt>
<trkpt lat="-26.8754350" lon="152.7940540">
<ele>166.663</ele>
<time>2015-12-27T05:49:26.537Z</time>
</trkpt>
<trkpt lat="-26.8757738" lon="152.7933185">
<ele>165.285</ele>
<time>2015-12-27T05:49:29.512Z</time>
</trkpt>
<trkpt lat="-26.8760937" lon="152.7925944">
<ele>164.390</ele>
<time>2015-12-27T05:49:32.463Z</time>
</trkpt>
<trkpt lat="-26.8763146" lon="152.7921261">
<ele>163.917</ele>
<time>2015-12-27T05:49:34.431Z</time>
</trkpt>
<trkpt lat="-26.8766467" lon="152.7914386">
<ele>163.718</ele>
<time>2015-12-27T05:49:37.352Z</time>
</trkpt>
<trkpt lat="-26.8768708" lon="152.7909646">
<ele>163.521</ele>
<time>2015-12-27T05:49:39.343Z</time>
</trkpt>
<trkpt lat="-26.8771093" lon="152.7905010">
<ele>163.154</ele>
<time>2015-12-27T05:49:41.311Z</time>
</trkpt>
<trkpt lat="-26.8775490" lon="152.7898431">
<ele>162.777</ele>
<time>2015-12-27T05:49:44.296Z</time>
</trkpt>
<trkpt lat="-26.8778752" lon="152.7894239">
<ele>162.619</ele>
<time>2015-12-27T05:49:46.296Z</time>
</trkpt>
<trkpt lat="-26.8782478" lon="152.7890498">
<ele>162.661</ele>
<time>2015-12-27T05:49:48.316Z</time>
</trkpt>
<trkpt lat="-26.8786088" lon="152.7886757">
<ele>162.767</ele>
<time>2015-12-27T05:49:50.312Z</time>
</trkpt>
<trkpt lat="-26.8790093" lon="152.7883557">
<ele>162.848</ele>
<time>2015-12-27T05:49:52.322Z</time>
</trkpt>
<trkpt lat="-26.8796228" lon="152.7879219">
<ele>162.987</ele>
<time>2015-12-27T05:49:55.337Z</time>
</trkpt>
<trkpt lat="-26.8800318" lon="152.7876553">
<ele>163.234</ele>
<time>2015-12-27T05:49:57.320Z</time>
</trkpt>
<trkpt lat="-26.8804856" lon="152.7874393">
<ele>163.723</ele>
<time>2015-12-27T05:49:59.352Z</time>
</trkpt>
<trkpt lat="-26.8809786" lon="152.7872732">
<ele>164.608</ele>
<time>2015-12-27T05:50:01.453Z</time>
</trkpt>
<trkpt lat="-26.8817006" lon="152.7870795">
<ele>165.484</ele>
<time>2015-12-27T05:50:04.472Z</time>
</trkpt>
<trkpt lat="-26.8821920" lon="152.7870226">
<ele>165.712</ele>
<time>2015-12-27T05:50:06.473Z</time>
</trkpt>
<trkpt lat="-26.8829417" lon="152.7869876">
<ele>165.366</ele>
<time>2015-12-27T05:50:09.504Z</time>
</trkpt>
<trkpt lat="-26.8834331" lon="152.7869963">
<ele>164.952</ele>
<time>2015-12-27T05:50:11.474Z</time>
</trkpt>
<trkpt lat="-26.8841791" lon="152.7870283">
<ele>164.735</ele>
<time>2015-12-27T05:50:14.453Z</time>
</trkpt>
<trkpt lat="-26.8846822" lon="152.7870507">
<ele>164.684</ele>
<time>2015-12-27T05:50:16.487Z</time>
</trkpt>
<trkpt lat="-26.8851705" lon="152.7870709">
<ele>164.792</ele>
<time>2015-12-27T05:50:18.493Z</time>
</trkpt>
<trkpt lat="-26.8856471" lon="152.7870947">
<ele>165.119</ele>
<time>2015-12-27T05:50:20.464Z</time>
</trkpt>
<trkpt lat="-26.8863617" lon="152.7870368">
<ele>165.587</ele>
<time>2015-12-27T05:50:23.428Z</time>
</trkpt>
<trkpt lat="-26.8868380" lon="152.7869621">
<ele>166.086</ele>
<time>2015-12-27T05:50:25.418Z</time>
</trkpt>
<trkpt lat="-26.8873027" lon="152.7868523">
<ele>166.539</ele>
<time>2015-12-27T05:50:27.387Z</time>
</trkpt>
<trkpt lat="-26.8879759" lon="152.7866167">
<ele>166.527</ele>
<time>2015-12-27T05:50:30.308Z</time>
</trkpt>
<trkpt lat="-26.8884272" lon="152.7864127">
<ele>165.698</ele>
<time>2015-12-27T05:50:32.305Z</time>
</trkpt>
<trkpt lat="-26.8888709" lon="152.7861931">
<ele>164.240</ele>
<time>2015-12-27T05:50:34.290Z</time>
</trkpt>
<trkpt lat="-26.8892946" lon="152.7859288">
<ele>162.573</ele>
<time>2015-12-27T05:50:36.261Z</time>
</trkpt>
<trkpt lat="-26.8899238" lon="152.7854691">
<ele>161.119</ele>
<time>2015-12-27T05:50:39.282Z</time>
</trkpt>
<trkpt lat="-26.8903411" lon="152.7851639">
<ele>160.111</ele>
<time>2015-12-27T05:50:41.270Z</time>
</trkpt>
<trkpt lat="-26.8909734" lon="152.7847137">
<ele>159.469</ele>
<time>2015-12-27T05:50:44.248Z</time>
</trkpt>
<trkpt lat="-26.8916075" lon="152.7842516">
<ele>159.077</ele>
<time>2015-12-27T05:50:47.249Z</time>
</trkpt>
<trkpt lat="-26.8920443" lon="152.7839281">
<ele>158.738</ele>
<time>2015-12-27T05:50:49.339Z</time>
</trkpt>
<trkpt lat="-26.8924508" lon="152.7836480">
<ele>158.446</ele>
<time>2015-12-27T05:50:51.265Z</time>
</trkpt>
<trkpt lat="-26.8930612" lon="152.7831878">
<ele>158.456</ele>
<time>2015-12-27T05:50:54.282Z</time>
</trkpt>
<trkpt lat="-26.8936517" lon="152.7827495">
<ele>158.979</ele>
<time>2015-12-27T05:50:57.267Z</time>
</trkpt>
<trkpt lat="-26.8940345" lon="152.7824623">
<ele>160.031</ele>
<time>2015-12-27T05:50:59.243Z</time>
</trkpt>
<trkpt lat="-26.8946048" lon="152.7820088">
<ele>161.269</ele>
<time>2015-12-27T05:51:02.196Z</time>
</trkpt>
<trkpt lat="-26.8952233" lon="152.7815659">
<ele>162.581</ele>
<time>2015-12-27T05:51:05.251Z</time>
</trkpt>
<trkpt lat="-26.8958068" lon="152.7811766">
<ele>164.170</ele>
<time>2015-12-27T05:51:08.051Z</time>
</trkpt>
<trkpt lat="-26.8964413" lon="152.7807324">
<ele>165.627</ele>
<time>2015-12-27T05:51:11.084Z</time>
</trkpt>
<trkpt lat="-26.8968935" lon="152.7804712">
<ele>165.930</ele>
<time>2015-12-27T05:51:13.138Z</time>
</trkpt>
<trkpt lat="-26.8975224" lon="152.7800654">
<ele>164.765</ele>
<time>2015-12-27T05:51:16.082Z</time>
</trkpt>
<trkpt lat="-26.8979562" lon="152.7797965">
<ele>162.290</ele>
<time>2015-12-27T05:51:18.105Z</time>
</trkpt>
<trkpt lat="-26.8985804" lon="152.7794162">
<ele>159.124</ele>
<time>2015-12-27T05:51:21.022Z</time>
</trkpt>
<trkpt lat="-26.8992245" lon="152.7790294">
<ele>156.875</ele>
<time>2015-12-27T05:51:24.024Z</time>
</trkpt>
<trkpt lat="-26.8998682" lon="152.7786452">
<ele>156.605</ele>
<time>2015-12-27T05:51:27.008Z</time>
</trkpt>
<trkpt lat="-26.9005244" lon="152.7782776">
<ele>157.499</ele>
<time>2015-12-27T05:51:30.019Z</time>
</trkpt>
<trkpt lat="-26.9009607" lon="152.7780724">
<ele>158.513</ele>
<time>2015-12-27T05:51:31.964Z</time>
</trkpt>
<trkpt lat="-26.9014297" lon="152.7779063">
<ele>159.321</ele>
<time>2015-12-27T05:51:33.943Z</time>
</trkpt>
<trkpt lat="-26.9019558" lon="152.7777689">
<ele>160.273</ele>
<time>2015-12-27T05:51:36.087Z</time>
</trkpt>
<trkpt lat="-26.9026757" lon="152.7775923">
<ele>161.512</ele>
<time>2015-12-27T05:51:39.028Z</time>
</trkpt>
<trkpt lat="-26.9031607" lon="152.7775071">
<ele>162.429</ele>
<time>2015-12-27T05:51:40.984Z</time>
</trkpt>
<trkpt lat="-26.9036419" lon="152.7774491">
<ele>162.377</ele>
<time>2015-12-27T05:51:42.914Z</time>
</trkpt>
<trkpt lat="-26.9041440" lon="152.7774251">
<ele>161.541</ele>
<time>2015-12-27T05:51:44.960Z</time>
</trkpt>
<trkpt lat="-26.9048763" lon="152.7773655">
<ele>160.694</ele>
<time>2015-12-27T05:51:47.986Z</time>
</trkpt>
<trkpt lat="-26.9053395" lon="152.7773123">
<ele>160.408</ele>
<time>2015-12-27T05:51:49.894Z</time>
</trkpt>
<trkpt lat="-26.9060738" lon="152.7771898">
<ele>160.940</ele>
<time>2015-12-27T05:51:52.895Z</time>
</trkpt>
<trkpt lat="-26.9065628" lon="152.7770657">
<ele>162.331</ele>
<time>2015-12-27T05:51:54.892Z</time>
</trkpt>
<trkpt lat="-26.9070524" lon="152.7769040">
<ele>164.092</ele>
<time>2015-12-27T05:51:56.933Z</time>
</trkpt>
<trkpt lat="-26.9075242" lon="152.7767195">
<ele>165.355</ele>
<time>2015-12-27T05:51:58.945Z</time>
</trkpt>
<trkpt lat="-26.9081738" lon="152.7763862">
<ele>165.563</ele>
<time>2015-12-27T05:52:01.836Z</time>
</trkpt>
<trkpt lat="-26.9086042" lon="152.7761557">
<ele>164.569</ele>
<time>2015-12-27T05:52:03.773Z</time>
</trkpt>
<trkpt lat="-26.9092439" lon="152.7757417">
<ele>162.772</ele>
<time>2015-12-27T05:52:06.770Z</time>
</trkpt>
<trkpt lat="-26.9096452" lon="152.7754215">
<ele>161.094</ele>
<time>2015-12-27T05:52:08.804Z</time>
</trkpt>
<trkpt lat="-26.9102226" lon="152.7749248">
<ele>160.204</ele>
<time>2015-12-27T05:52:11.830Z</time>
</trkpt>
<trkpt lat="-26.9107949" lon="152.7744037">
<ele>159.912</ele>
<time>2015-12-27T05:52:14.880Z</time>
</trkpt>
<trkpt lat="-26.9113859" lon="152.7739162">
<ele>159.607</ele>
<time>2015-12-27T05:52:17.924Z</time>
</trkpt>
<trkpt lat="-26.9119623" lon="152.7734921">
<ele>158.986</ele>
<time>2015-12-27T05:52:20.875Z</time>
</trkpt>
<trkpt lat="-26.9123342" lon="152.7732146">
<ele>158.252</ele>
<time>2015-12-27T05:52:22.955Z</time>
</trkpt>
<trkpt lat="-26.9126738" lon="152.7729662">
<ele>157.201</ele>
<time>2015-12-27T05:52:25.040Z</time>
</trkpt>
<trkpt lat="-26.9131596" lon="152.7726397">
<ele>155.071</ele>
<time>2015-12-27T05:52:28.184Z</time>
</trkpt>
<trkpt lat="-26.9134409" lon="152.7724544">
<ele>151.744</ele>
<time>2015-12-27T05:52:30.235Z</time>
</trkpt>
<trkpt lat="-26.9138332" lon="152.7722044">
<ele>148.362</ele>
<time>2015-12-27T05:52:33.179Z</time>
</trkpt>
<trkpt lat="-26.9140983" lon="152.7720391">
<ele>145.620</ele>
<time>2015-12-27T05:52:35.177Z</time>
</trkpt>
<trkpt lat="-26.9144979" lon="152.7718065">
<ele>143.281</ele>
<time>2015-12-27T05:52:38.165Z</time>
</trkpt>
<trkpt lat="-26.9147664" lon="152.7716429">
<ele>141.609</ele>
<time>2015-12-27T05:52:40.225Z</time>
</trkpt>
<trkpt lat="-26.9150380" lon="152.7714808">
<ele>140.987</ele>
<time>2015-12-27T05:52:42.312Z</time>
</trkpt>
<trkpt lat="-26.9154236" lon="152.7712518">
<ele>140.880</ele>
<time>2015-12-27T05:52:45.253Z</time>
</trkpt>
<trkpt lat="-26.9156935" lon="152.7710993">
<ele>140.756</ele>
<time>2015-12-27T05:52:47.267Z</time>
</trkpt>
<trkpt lat="-26.9160931" lon="152.7708870">
<ele>140.561</ele>
<time>2015-12-27T05:52:50.238Z</time>
</trkpt>
<trkpt lat="-26.9163579" lon="152.7707439">
<ele>140.440</ele>
<time>2015-12-27T05:52:52.240Z</time>
</trkpt>
<trkpt lat="-26.9166153" lon="152.7705841">
<ele>138.689</ele>
<time>2015-12-27T05:52:54.233Z</time>
</trkpt>
<trkpt lat="-26.9170312" lon="152.7703482">
<ele>134.229</ele>
<time>2015-12-27T05:52:57.333Z</time>
</trkpt>
<trkpt lat="-26.9172984" lon="152.7701994">
<ele>129.664</ele>
<time>2015-12-27T05:52:59.311Z</time>
</trkpt>
<trkpt lat="-26.9176905" lon="152.7699648">
<ele>127.512</ele>
<time>2015-12-27T05:53:02.312Z</time>
</trkpt>
<trkpt lat="-26.9179553" lon="152.7698117">
<ele>127.200</ele>
<time>2015-12-27T05:53:04.377Z</time>
</trkpt>
<trkpt lat="-26.9183273" lon="152.7695774">
<ele>127.524</ele>
<time>2015-12-27T05:53:07.325Z</time>
</trkpt>
<trkpt lat="-26.9185855" lon="152.7694206">
<ele>126.624</ele>
<time>2015-12-27T05:53:09.319Z</time>
</trkpt>
<trkpt lat="-26.9189602" lon="152.7691537">
<ele>123.705</ele>
<time>2015-12-27T05:53:12.304Z</time>
</trkpt>
<trkpt lat="-26.9192148" lon="152.7689549">
<ele>120.869</ele>
<time>2015-12-27T05:53:14.386Z</time>
</trkpt>
<trkpt lat="-26.9194496" lon="152.7687725">
<ele>119.996</ele>
<time>2015-12-27T05:53:16.305Z</time>
</trkpt>
<trkpt lat="-26.9196856" lon="152.7685624">
<ele>120.275</ele>
<time>2015-12-27T05:53:18.302Z</time>
</trkpt>
<trkpt lat="-26.9199156" lon="152.7683508">
<ele>120.340</ele>
<time>2015-12-27T05:53:20.249Z</time>
</trkpt>
<trkpt lat="-26.9202542" lon="152.7679997">
<ele>119.769</ele>
<time>2015-12-27T05:53:23.253Z</time>
</trkpt>
<trkpt lat="-26.9205685" lon="152.7676773">
<ele>118.773</ele>
<time>2015-12-27T05:53:26.033Z</time>
</trkpt>
<trkpt lat="-26.9207996" lon="152.7674383">
<ele>117.392</ele>
<time>2015-12-27T05:53:28.096Z</time>
</trkpt>
<trkpt lat="-26.9211374" lon="152.7670995">
<ele>115.836</ele>
<time>2015-12-27T05:53:31.075Z</time>
</trkpt>
<trkpt lat="-26.9213637" lon="152.7668695">
<ele>114.521</ele>
<time>2015-12-27T05:53:33.097Z</time>
</trkpt>
<trkpt lat="-26.9216862" lon="152.7665106">
<ele>113.559</ele>
<time>2015-12-27T05:53:36.127Z</time>
</trkpt>
<trkpt lat="-26.9220023" lon="152.7661586">
<ele>113.067</ele>
<time>2015-12-27T05:53:39.109Z</time>
</trkpt>
<trkpt lat="-26.9222247" lon="152.7659124">
<ele>113.326</ele>
<time>2015-12-27T05:53:41.197Z</time>
</trkpt>
<trkpt lat="-26.9225448" lon="152.7655659">
<ele>114.318</ele>
<time>2015-12-27T05:53:44.168Z</time>
</trkpt>
<trkpt lat="-26.9227587" lon="152.7653255">
<ele>115.552</ele>
<time>2015-12-27T05:53:46.198Z</time>
</trkpt>
<trkpt lat="-26.9229653" lon="152.7651010">
<ele>116.687</ele>
<time>2015-12-27T05:53:48.130Z</time>
</trkpt>
<trkpt lat="-26.9232833" lon="152.7647492">
<ele>117.811</ele>
<time>2015-12-27T05:53:51.067Z</time>
</trkpt>
<trkpt lat="-26.9236255" lon="152.7643948">
<ele>118.822</ele>
<time>2015-12-27T05:53:53.962Z</time>
</trkpt>
<trkpt lat="-26.9238710" lon="152.7641239">
<ele>119.460</ele>
<time>2015-12-27T05:53:55.857Z</time>
</trkpt>
<trkpt lat="-26.9242682" lon="152.7636800">
<ele>119.935</ele>
<time>2015-12-27T05:53:58.819Z</time>
</trkpt>
<trkpt lat="-26.9245688" lon="152.7633775">
<ele>120.493</ele>
<time>2015-12-27T05:54:00.882Z</time>
</trkpt>
<trkpt lat="-26.9249898" lon="152.7629219">
<ele>120.897</ele>
<time>2015-12-27T05:54:03.868Z</time>
</trkpt>
<trkpt lat="-26.9253827" lon="152.7624556">
<ele>120.798</ele>
<time>2015-12-27T05:54:06.789Z</time>
</trkpt>
<trkpt lat="-26.9256580" lon="152.7621604">
<ele>120.071</ele>
<time>2015-12-27T05:54:08.731Z</time>
</trkpt>
<trkpt lat="-26.9260666" lon="152.7617302">
<ele>118.954</ele>
<time>2015-12-27T05:54:11.586Z</time>
</trkpt>
<trkpt lat="-26.9264892" lon="152.7612580">
<ele>118.015</ele>
<time>2015-12-27T05:54:14.624Z</time>
</trkpt>
<trkpt lat="-26.9267628" lon="152.7609445">
<ele>117.548</ele>
<time>2015-12-27T05:54:16.625Z</time>
</trkpt>
<trkpt lat="-26.9271608" lon="152.7604847">
<ele>117.343</ele>
<time>2015-12-27T05:54:19.560Z</time>
</trkpt>
<trkpt lat="-26.9274390" lon="152.7601796">
<ele>117.189</ele>
<time>2015-12-27T05:54:21.561Z</time>
</trkpt>
<trkpt lat="-26.9277176" lon="152.7598679">
<ele>117.064</ele>
<time>2015-12-27T05:54:23.588Z</time>
</trkpt>
<trkpt lat="-26.9281384" lon="152.7594044">
<ele>117.035</ele>
<time>2015-12-27T05:54:26.646Z</time>
</trkpt>
<trkpt lat="-26.9285433" lon="152.7589509">
<ele>117.091</ele>
<time>2015-12-27T05:54:29.665Z</time>
</trkpt>
<trkpt lat="-26.9289346" lon="152.7585083">
<ele>117.221</ele>
<time>2015-12-27T05:54:32.658Z</time>
</trkpt>
<trkpt lat="-26.9292008" lon="152.7582202">
<ele>117.489</ele>
<time>2015-12-27T05:54:34.667Z</time>
</trkpt>
<trkpt lat="-26.9294697" lon="152.7579087">
<ele>117.851</ele>
<time>2015-12-27T05:54:36.827Z</time>
</trkpt>
<trkpt lat="-26.9298345" lon="152.7575176">
<ele>118.111</ele>
<time>2015-12-27T05:54:39.798Z</time>
</trkpt>
<trkpt lat="-26.9300557" lon="152.7572991">
<ele>118.052</ele>
<time>2015-12-27T05:54:41.790Z</time>
</trkpt>
<trkpt lat="-26.9302570" lon="152.7571029">
<ele>117.470</ele>
<time>2015-12-27T05:54:44.006Z</time>
</trkpt>
<trkpt lat="-26.9305061" lon="152.7569112">
<ele>116.237</ele>
<time>2015-12-27T05:54:46.941Z</time>
</trkpt>
<trkpt lat="-26.9307682" lon="152.7568972">
<ele>114.263</ele>
<time>2015-12-27T05:54:49.601Z</time>
</trkpt>
<trkpt lat="-26.9309752" lon="152.7570136">
<ele>111.977</ele>
<time>2015-12-27T05:54:51.499Z</time>
</trkpt>
<trkpt lat="-26.9311851" lon="152.7572434">
<ele>110.649</ele>
<time>2015-12-27T05:54:53.457Z</time>
</trkpt>
<trkpt lat="-26.9314195" lon="152.7575030">
<ele>111.111</ele>
<time>2015-12-27T05:54:55.272Z</time>
</trkpt>
<trkpt lat="-26.9318653" lon="152.7581032">
<ele>113.185</ele>
<time>2015-12-27T05:54:58.700Z</time>
</trkpt>
<trkpt lat="-26.9322123" lon="152.7584782">
<ele>116.476</ele>
<time>2015-12-27T05:55:00.849Z</time>
</trkpt>
<trkpt lat="-26.9325524" lon="152.7588627">
<ele>119.960</ele>
<time>2015-12-27T05:55:02.918Z</time>
</trkpt>
<trkpt lat="-26.9330786" lon="152.7594122">
<ele>122.048</ele>
<time>2015-12-27T05:55:05.911Z</time>
</trkpt>
<trkpt lat="-26.9336119" lon="152.7599286">
<ele>122.167</ele>
<time>2015-12-27T05:55:08.804Z</time>
</trkpt>
<trkpt lat="-26.9339992" lon="152.7602752">
<ele>121.189</ele>
<time>2015-12-27T05:55:10.811Z</time>
</trkpt>
<trkpt lat="-26.9343838" lon="152.7606284">
<ele>120.233</ele>
<time>2015-12-27T05:55:12.844Z</time>
</trkpt>
<trkpt lat="-26.9349518" lon="152.7610755">
<ele>119.784</ele>
<time>2015-12-27T05:55:15.702Z</time>
</trkpt>
<trkpt lat="-26.9353505" lon="152.7613820">
<ele>120.072</ele>
<time>2015-12-27T05:55:17.709Z</time>
</trkpt>
<trkpt lat="-26.9357421" lon="152.7616816">
<ele>121.055</ele>
<time>2015-12-27T05:55:19.681Z</time>
</trkpt>
<trkpt lat="-26.9361447" lon="152.7619673">
<ele>121.912</ele>
<time>2015-12-27T05:55:21.653Z</time>
</trkpt>
<trkpt lat="-26.9367664" lon="152.7623781">
<ele>121.878</ele>
<time>2015-12-27T05:55:24.624Z</time>
</trkpt>
<trkpt lat="-26.9371921" lon="152.7626458">
<ele>121.269</ele>
<time>2015-12-27T05:55:26.610Z</time>
</trkpt>
<trkpt lat="-26.9376267" lon="152.7629137">
<ele>120.799</ele>
<time>2015-12-27T05:55:28.649Z</time>
</trkpt>
<trkpt lat="-26.9382383" lon="152.7633121">
<ele>120.683</ele>
<time>2015-12-27T05:55:31.623Z</time>
</trkpt>
<trkpt lat="-26.9386157" lon="152.7635940">
<ele>120.622</ele>
<time>2015-12-27T05:55:33.569Z</time>
</trkpt>
<trkpt lat="-26.9389752" lon="152.7639364">
<ele>120.414</ele>
<time>2015-12-27T05:55:35.550Z</time>
</trkpt>
<trkpt lat="-26.9394697" lon="152.7645279">
<ele>120.581</ele>
<time>2015-12-27T05:55:38.528Z</time>
</trkpt>
<trkpt lat="-26.9397116" lon="152.7649704">
<ele>121.895</ele>
<time>2015-12-27T05:55:40.413Z</time>
</trkpt>
<trkpt lat="-26.9401120" lon="152.7656385">
<ele>124.215</ele>
<time>2015-12-27T05:55:43.344Z</time>
</trkpt>
<trkpt lat="-26.9403905" lon="152.7660883">
<ele>126.652</ele>
<time>2015-12-27T05:55:45.344Z</time>
</trkpt>
<trkpt lat="-26.9406631" lon="152.7665282">
<ele>128.508</ele>
<time>2015-12-27T05:55:47.302Z</time>
</trkpt>
<trkpt lat="-26.9410787" lon="152.7672103">
<ele>129.559</ele>
<time>2015-12-27T05:55:50.321Z</time>
</trkpt>
<trkpt lat="-26.9413898" lon="152.7676789">
<ele>129.867</ele>
<time>2015-12-27T05:55:52.451Z</time>
</trkpt>
<trkpt lat="-26.9418513" lon="152.7683194">
<ele>129.441</ele>
<time>2015-12-27T05:55:55.461Z</time>
</trkpt>
<trkpt lat="-26.9421672" lon="152.7687393">
<ele>128.275</ele>
<time>2015-12-27T05:55:57.474Z</time>
</trkpt>
<trkpt lat="-26.9426562" lon="152.7693093">
<ele>126.659</ele>
<time>2015-12-27T05:56:00.369Z</time>
</trkpt>
<trkpt lat="-26.9431920" lon="152.7698627">
<ele>125.055</ele>
<time>2015-12-27T05:56:03.371Z</time>
</trkpt>
<trkpt lat="-26.9435603" lon="152.7702044">
<ele>123.621</ele>
<time>2015-12-27T05:56:05.441Z</time>
</trkpt>
<trkpt lat="-26.9440714" lon="152.7706364">
<ele>122.420</ele>
<time>2015-12-27T05:56:08.391Z</time>
</trkpt>
<trkpt lat="-26.9445420" lon="152.7710139">
<ele>121.267</ele>
<time>2015-12-27T05:56:11.287Z</time>
</trkpt>
<trkpt lat="-26.9448344" lon="152.7712415">
<ele>119.442</ele>
<time>2015-12-27T05:56:13.187Z</time>
</trkpt>
<trkpt lat="-26.9451542" lon="152.7714656">
<ele>116.971</ele>
<time>2015-12-27T05:56:15.248Z</time>
</trkpt>
<trkpt lat="-26.9455983" lon="152.7718164">
<ele>115.021</ele>
<time>2015-12-27T05:56:18.246Z</time>
</trkpt>
<trkpt lat="-26.9458959" lon="152.7720263">
<ele>114.237</ele>
<time>2015-12-27T05:56:20.194Z</time>
</trkpt>
<trkpt lat="-26.9463154" lon="152.7723735">
<ele>114.257</ele>
<time>2015-12-27T05:56:23.099Z</time>
</trkpt>
<trkpt lat="-26.9467486" lon="152.7726971">
<ele>114.370</ele>
<time>2015-12-27T05:56:26.051Z</time>
</trkpt>
<trkpt lat="-26.9471439" lon="152.7730431">
<ele>114.126</ele>
<time>2015-12-27T05:56:28.963Z</time>
</trkpt>
<trkpt lat="-26.9475423" lon="152.7734069">
<ele>113.680</ele>
<time>2015-12-27T05:56:32.007Z</time>
</trkpt>
<trkpt lat="-26.9478972" lon="152.7737738">
<ele>113.233</ele>
<time>2015-12-27T05:56:34.999Z</time>
</trkpt>
<trkpt lat="-26.9480884" lon="152.7739948">
<ele>112.528</ele>
<time>2015-12-27T05:56:36.842Z</time>
</trkpt>
<trkpt lat="-26.9482900" lon="152.7742361">
<ele>111.483</ele>
<time>2015-12-27T05:56:38.889Z</time>
</trkpt>
<trkpt lat="-26.9485709" lon="152.7746098">
<ele>110.536</ele>
<time>2015-12-27T05:56:41.917Z</time>
</trkpt>
<trkpt lat="-26.9487691" lon="152.7748372">
<ele>110.151</ele>
<time>2015-12-27T05:56:43.874Z</time>
</trkpt>
<trkpt lat="-26.9490685" lon="152.7752039">
<ele>110.412</ele>
<time>2015-12-27T05:56:46.921Z</time>
</trkpt>
<trkpt lat="-26.9493525" lon="152.7756027">
<ele>111.061</ele>
<time>2015-12-27T05:56:50.037Z</time>
</trkpt>
<trkpt lat="-26.9496472" lon="152.7759615">
<ele>111.836</ele>
<time>2015-12-27T05:56:53.014Z</time>
</trkpt>
<trkpt lat="-26.9499673" lon="152.7762738">
<ele>112.636</ele>
<time>2015-12-27T05:56:55.941Z</time>
</trkpt>
<trkpt lat="-26.9502155" lon="152.7764319">
<ele>113.323</ele>
<time>2015-12-27T05:56:57.915Z</time>
</trkpt>
<trkpt lat="-26.9504722" lon="152.7765228">
<ele>114.012</ele>
<time>2015-12-27T05:56:59.760Z</time>
</trkpt>
<trkpt lat="-26.9507473" lon="152.7766137">
<ele>114.934</ele>
<time>2015-12-27T05:57:01.701Z</time>
</trkpt>
<trkpt lat="-26.9510381" lon="152.7767044">
<ele>115.900</ele>
<time>2015-12-27T05:57:03.722Z</time>
</trkpt>
<trkpt lat="-26.9514624" lon="152.7768550">
<ele>116.648</ele>
<time>2015-12-27T05:57:06.728Z</time>
</trkpt>
<trkpt lat="-26.9517262" lon="152.7769399">
<ele>117.371</ele>
<time>2015-12-27T05:57:08.655Z</time>
</trkpt>
<trkpt lat="-26.9519869" lon="152.7770227">
<ele>118.225</ele>
<time>2015-12-27T05:57:10.638Z</time>
</trkpt>
<trkpt lat="-26.9523881" lon="152.7771477">
<ele>119.007</ele>
<time>2015-12-27T05:57:13.896Z</time>
</trkpt>
<trkpt lat="-26.9527032" lon="152.7772531">
<ele>119.489</ele>
<time>2015-12-27T05:57:16.894Z</time>
</trkpt>
<trkpt lat="-26.9529207" lon="152.7773092">
<ele>119.682</ele>
<time>2015-12-27T05:57:19.516Z</time>
</trkpt>
<trkpt lat="-26.9530157" lon="152.7771520">
<ele>119.644</ele>
<time>2015-12-27T05:57:22.383Z</time>
</trkpt>
<trkpt lat="-26.9530228" lon="152.7770254">
<ele>119.466</ele>
<time>2015-12-27T05:57:25.000Z</time>
</trkpt>
<trkpt lat="-26.9530228" lon="152.7770254">
<ele>119.290</ele>
<time>2015-12-27T05:57:31.000Z</time>
</trkpt>
<trkpt lat="-26.9530228" lon="152.7770254">
<ele>119.202</ele>
<time>2015-12-27T05:57:35.139Z</time>
</trkpt>
<trkpt lat="-26.9529881" lon="152.7768281">
<ele>119.167</ele>
<time>2015-12-27T05:57:44.198Z</time>
</trkpt>
<trkpt lat="-26.9529248" lon="152.7767463">
<ele>119.071</ele>
<time>2015-12-27T05:57:47.781Z</time>
</trkpt>
<trkpt lat="-26.9528993" lon="152.7768610">
<ele>118.785</ele>
<time>2015-12-27T05:57:51.206Z</time>
</trkpt>
<trkpt lat="-26.9529335" lon="152.7769803">
<ele>118.376</ele>
<time>2015-12-27T05:57:54.604Z</time>
</trkpt>
<trkpt lat="-26.9529433" lon="152.7770812">
<ele>118.087</ele>
<time>2015-12-27T05:57:57.870Z</time>
</trkpt>
<trkpt lat="-26.9529457" lon="152.7772115">
<ele>118.014</ele>
<time>2015-12-27T05:58:01.498Z</time>
</trkpt>
<trkpt lat="-26.9529915" lon="152.7773528">
<ele>118.051</ele>
<time>2015-12-27T05:58:04.068Z</time>
</trkpt>
<trkpt lat="-26.9531340" lon="152.7774153">
<ele>118.087</ele>
<time>2015-12-27T05:58:06.070Z</time>
</trkpt>
<trkpt lat="-26.9532985" lon="152.7774596">
<ele>118.241</ele>
<time>2015-12-27T05:58:07.976Z</time>
</trkpt>
<trkpt lat="-26.9534926" lon="152.7774981">
<ele>118.857</ele>
<time>2015-12-27T05:58:09.722Z</time>
</trkpt>
<trkpt lat="-26.9539063" lon="152.7776740">
<ele>120.000</ele>
<time>2015-12-27T05:58:13.169Z</time>
</trkpt>
<trkpt lat="-26.9541812" lon="152.7777470">
<ele>121.467</ele>
<time>2015-12-27T05:58:15.176Z</time>
</trkpt>
<trkpt lat="-26.9544616" lon="152.7778340">
<ele>123.128</ele>
<time>2015-12-27T05:58:17.275Z</time>
</trkpt>
<trkpt lat="-26.9547195" lon="152.7779221">
<ele>124.675</ele>
<time>2015-12-27T05:58:19.145Z</time>
</trkpt>
<trkpt lat="-26.9550291" lon="152.7780222">
<ele>125.672</ele>
<time>2015-12-27T05:58:21.246Z</time>
</trkpt>
<trkpt lat="-26.9553452" lon="152.7781061">
<ele>126.099</ele>
<time>2015-12-27T05:58:23.378Z</time>
</trkpt>
<trkpt lat="-26.9557349" lon="152.7782859">
<ele>126.302</ele>
<time>2015-12-27T05:58:26.185Z</time>
</trkpt>
<trkpt lat="-26.9560669" lon="152.7783938">
<ele>126.585</ele>
<time>2015-12-27T05:58:28.474Z</time>
</trkpt>
<trkpt lat="-26.9564933" lon="152.7784874">
<ele>127.166</ele>
<time>2015-12-27T05:58:31.343Z</time>
</trkpt>
<trkpt lat="-26.9567882" lon="152.7785545">
<ele>128.004</ele>
<time>2015-12-27T05:58:33.353Z</time>
</trkpt>
<trkpt lat="-26.9572110" lon="152.7786612">
<ele>128.654</ele>
<time>2015-12-27T05:58:36.245Z</time>
</trkpt>
<trkpt lat="-26.9575073" lon="152.7787356">
<ele>128.706</ele>
<time>2015-12-27T05:58:38.239Z</time>
</trkpt>
<trkpt lat="-26.9579330" lon="152.7788661">
<ele>128.242</ele>
<time>2015-12-27T05:58:41.127Z</time>
</trkpt>
<trkpt lat="-26.9582264" lon="152.7789462">
<ele>127.609</ele>
<time>2015-12-27T05:58:43.046Z</time>
</trkpt>
<trkpt lat="-26.9586607" lon="152.7790971">
<ele>127.108</ele>
<time>2015-12-27T05:58:45.850Z</time>
</trkpt>
<trkpt lat="-26.9589888" lon="152.7791937">
<ele>126.847</ele>
<time>2015-12-27T05:58:47.961Z</time>
</trkpt>
<trkpt lat="-26.9593997" lon="152.7792862">
<ele>126.778</ele>
<time>2015-12-27T05:58:50.644Z</time>
</trkpt>
<trkpt lat="-26.9598331" lon="152.7793910">
<ele>126.794</ele>
<time>2015-12-27T05:58:53.549Z</time>
</trkpt>
<trkpt lat="-26.9601270" lon="152.7794742">
<ele>126.756</ele>
<time>2015-12-27T05:58:55.542Z</time>
</trkpt>
<trkpt lat="-26.9604260" lon="152.7795645">
<ele>126.526</ele>
<time>2015-12-27T05:58:57.575Z</time>
</trkpt>
<trkpt lat="-26.9607190" lon="152.7796477">
<ele>126.110</ele>
<time>2015-12-27T05:58:59.549Z</time>
</trkpt>
<trkpt lat="-26.9611553" lon="152.7798694">
<ele>125.744</ele>
<time>2015-12-27T05:59:02.677Z</time>
</trkpt>
<trkpt lat="-26.9614050" lon="152.7799990">
<ele>125.564</ele>
<time>2015-12-27T05:59:04.477Z</time>
</trkpt>
<trkpt lat="-26.9616731" lon="152.7801747">
<ele>125.434</ele>
<time>2015-12-27T05:59:06.534Z</time>
</trkpt>
<trkpt lat="-26.9620678" lon="152.7803963">
<ele>125.208</ele>
<time>2015-12-27T05:59:09.499Z</time>
</trkpt>
<trkpt lat="-26.9624741" lon="152.7806373">
<ele>124.799</ele>
<time>2015-12-27T05:59:12.589Z</time>
</trkpt>
<trkpt lat="-26.9627531" lon="152.7807660">
<ele>124.204</ele>
<time>2015-12-27T05:59:14.594Z</time>
</trkpt>
<trkpt lat="-26.9630123" lon="152.7809029">
<ele>123.565</ele>
<time>2015-12-27T05:59:16.518Z</time>
</trkpt>
<trkpt lat="-26.9632731" lon="152.7810522">
<ele>122.860</ele>
<time>2015-12-27T05:59:18.483Z</time>
</trkpt>
<trkpt lat="-26.9636634" lon="152.7812834">
<ele>122.004</ele>
<time>2015-12-27T05:59:21.428Z</time>
</trkpt>
<trkpt lat="-26.9640607" lon="152.7815195">
<ele>120.797</ele>
<time>2015-12-27T05:59:24.430Z</time>
</trkpt>
<trkpt lat="-26.9643108" lon="152.7816495">
<ele>119.246</ele>
<time>2015-12-27T05:59:26.275Z</time>
</trkpt>
<trkpt lat="-26.9647353" lon="152.7818629">
<ele>117.964</ele>
<time>2015-12-27T05:59:29.341Z</time>
</trkpt>
<trkpt lat="-26.9650173" lon="152.7820238">
<ele>117.793</ele>
<time>2015-12-27T05:59:31.282Z</time>
</trkpt>
<trkpt lat="-26.9654662" lon="152.7823097">
<ele>118.742</ele>
<time>2015-12-27T05:59:34.217Z</time>
</trkpt>
<trkpt lat="-26.9658015" lon="152.7825280">
<ele>120.423</ele>
<time>2015-12-27T05:59:36.169Z</time>
</trkpt>
<trkpt lat="-26.9663208" lon="152.7829319">
<ele>123.084</ele>
<time>2015-12-27T05:59:39.171Z</time>
</trkpt>
<trkpt lat="-26.9666597" lon="152.7832368">
<ele>126.964</ele>
<time>2015-12-27T05:59:41.128Z</time>
</trkpt>
<trkpt lat="-26.9670127" lon="152.7835497">
<ele>131.395</ele>
<time>2015-12-27T05:59:43.087Z</time>
</trkpt>
<trkpt lat="-26.9675696" lon="152.7840512">
<ele>135.379</ele>
<time>2015-12-27T05:59:46.121Z</time>
</trkpt>
<trkpt lat="-26.9681366" lon="152.7845496">
<ele>138.698</ele>
<time>2015-12-27T05:59:49.131Z</time>
</trkpt>
<trkpt lat="-26.9684987" lon="152.7848958">
<ele>142.034</ele>
<time>2015-12-27T05:59:51.090Z</time>
</trkpt>
<trkpt lat="-26.9689075" lon="152.7852397">
<ele>145.236</ele>
<time>2015-12-27T05:59:53.153Z</time>
</trkpt>
<trkpt lat="-26.9692850" lon="152.7855813">
<ele>147.502</ele>
<time>2015-12-27T05:59:55.095Z</time>
</trkpt>
<trkpt lat="-26.9696869" lon="152.7859298">
<ele>148.841</ele>
<time>2015-12-27T05:59:57.124Z</time>
</trkpt>
<trkpt lat="-26.9700724" lon="152.7862784">
<ele>149.553</ele>
<time>2015-12-27T05:59:59.101Z</time>
</trkpt>
<trkpt lat="-26.9704597" lon="152.7866230">
<ele>149.629</ele>
<time>2015-12-27T06:00:01.085Z</time>
</trkpt>
<trkpt lat="-26.9710244" lon="152.7871143">
<ele>149.134</ele>
<time>2015-12-27T06:00:03.972Z</time>
</trkpt>
<trkpt lat="-26.9714249" lon="152.7874034">
<ele>148.409</ele>
<time>2015-12-27T06:00:05.905Z</time>
</trkpt>
<trkpt lat="-26.9718535" lon="152.7877080">
<ele>147.758</ele>
<time>2015-12-27T06:00:07.961Z</time>
</trkpt>
<trkpt lat="-26.9722624" lon="152.7880084">
<ele>147.332</ele>
<time>2015-12-27T06:00:09.940Z</time>
</trkpt>
<trkpt lat="-26.9729149" lon="152.7884572">
<ele>147.186</ele>
<time>2015-12-27T06:00:13.053Z</time>
</trkpt>
<trkpt lat="-26.9734925" lon="152.7889164">
<ele>147.107</ele>
<time>2015-12-27T06:00:15.966Z</time>
</trkpt>
<trkpt lat="-26.9741196" lon="152.7893349">
<ele>146.359</ele>
<time>2015-12-27T06:00:18.988Z</time>
</trkpt>
<trkpt lat="-26.9745327" lon="152.7896241">
<ele>144.677</ele>
<time>2015-12-27T06:00:20.996Z</time>
</trkpt>
<trkpt lat="-26.9749242" lon="152.7899017">
<ele>143.009</ele>
<time>2015-12-27T06:00:22.902Z</time>
</trkpt>
<trkpt lat="-26.9755671" lon="152.7903323">
<ele>142.252</ele>
<time>2015-12-27T06:00:25.972Z</time>
</trkpt>
<trkpt lat="-26.9759773" lon="152.7906160">
<ele>142.192</ele>
<time>2015-12-27T06:00:27.935Z</time>
</trkpt>
<trkpt lat="-26.9763918" lon="152.7908911">
<ele>142.611</ele>
<time>2015-12-27T06:00:29.900Z</time>
</trkpt>
<trkpt lat="-26.9770124" lon="152.7913061">
<ele>143.560</ele>
<time>2015-12-27T06:00:32.845Z</time>
</trkpt>
<trkpt lat="-26.9774412" lon="152.7916060">
<ele>145.095</ele>
<time>2015-12-27T06:00:34.885Z</time>
</trkpt>
<trkpt lat="-26.9778508" lon="152.7919017">
<ele>146.926</ele>
<time>2015-12-27T06:00:36.854Z</time>
</trkpt>
<trkpt lat="-26.9782567" lon="152.7922054">
<ele>148.402</ele>
<time>2015-12-27T06:00:38.836Z</time>
</trkpt>
<trkpt lat="-26.9788581" lon="152.7926481">
<ele>148.841</ele>
<time>2015-12-27T06:00:41.752Z</time>
</trkpt>
<trkpt lat="-26.9795083" lon="152.7931135">
<ele>148.237</ele>
<time>2015-12-27T06:00:44.854Z</time>
</trkpt>
<trkpt lat="-26.9801583" lon="152.7935645">
<ele>147.163</ele>
<time>2015-12-27T06:00:47.906Z</time>
</trkpt>
<trkpt lat="-26.9805940" lon="152.7938613">
<ele>146.090</ele>
<time>2015-12-27T06:00:49.934Z</time>
</trkpt>
<trkpt lat="-26.9810344" lon="152.7941365">
<ele>145.061</ele>
<time>2015-12-27T06:00:51.947Z</time>
</trkpt>
<trkpt lat="-26.9816591" lon="152.7945022">
<ele>144.150</ele>
<time>2015-12-27T06:00:54.786Z</time>
</trkpt>
<trkpt lat="-26.9823374" lon="152.7947984">
<ele>143.565</ele>
<time>2015-12-27T06:00:57.751Z</time>
</trkpt>
<trkpt lat="-26.9828010" lon="152.7949904">
<ele>143.933</ele>
<time>2015-12-27T06:00:59.770Z</time>
</trkpt>
<trkpt lat="-26.9835107" lon="152.7953067">
<ele>145.454</ele>
<time>2015-12-27T06:01:02.970Z</time>
</trkpt>
<trkpt lat="-26.9840917" lon="152.7955271">
<ele>147.127</ele>
<time>2015-12-27T06:01:05.783Z</time>
</trkpt>
<trkpt lat="-26.9845656" lon="152.7957597">
<ele>147.445</ele>
<time>2015-12-27T06:01:08.434Z</time>
</trkpt>
<trkpt lat="-26.9850626" lon="152.7960390">
<ele>146.197</ele>
<time>2015-12-27T06:01:11.433Z</time>
</trkpt>
<trkpt lat="-26.9853650" lon="152.7962582">
<ele>144.702</ele>
<time>2015-12-27T06:01:13.370Z</time>
</trkpt>
<trkpt lat="-26.9858163" lon="152.7966235">
<ele>144.081</ele>
<time>2015-12-27T06:01:16.379Z</time>
</trkpt>
<trkpt lat="-26.9862561" lon="152.7970062">
<ele>144.104</ele>
<time>2015-12-27T06:01:19.500Z</time>
</trkpt>
<trkpt lat="-26.9866279" lon="152.7973547">
<ele>144.092</ele>
<time>2015-12-27T06:01:22.490Z</time>
</trkpt>
<trkpt lat="-26.9868891" lon="152.7976450">
<ele>143.499</ele>
<time>2015-12-27T06:01:25.167Z</time>
</trkpt>
<trkpt lat="-26.9869929" lon="152.7977483">
<ele>142.008</ele>
<time>2015-12-27T06:01:26.491Z</time>
</trkpt>
<trkpt lat="-26.9871030" lon="152.7977948">
<ele>139.716</ele>
<time>2015-12-27T06:01:27.877Z</time>
</trkpt>
<trkpt lat="-26.9872086" lon="152.7977510">
<ele>137.436</ele>
<time>2015-12-27T06:01:29.529Z</time>
</trkpt>
<trkpt lat="-26.9873293" lon="152.7976141">
<ele>136.100</ele>
<time>2015-12-27T06:01:32.266Z</time>
</trkpt>
<trkpt lat="-26.9875886" lon="152.7972978">
<ele>136.032</ele>
<time>2015-12-27T06:01:36.096Z</time>
</trkpt>
<trkpt lat="-26.9879133" lon="152.7969006">
<ele>137.059</ele>
<time>2015-12-27T06:01:39.331Z</time>
</trkpt>
<trkpt lat="-26.9882996" lon="152.7964816">
<ele>138.564</ele>
<time>2015-12-27T06:01:42.449Z</time>
</trkpt>
<trkpt lat="-26.9887001" lon="152.7961224">
<ele>139.738</ele>
<time>2015-12-27T06:01:45.297Z</time>
</trkpt>
<trkpt lat="-26.9890163" lon="152.7958844">
<ele>139.586</ele>
<time>2015-12-27T06:01:47.334Z</time>
</trkpt>
<trkpt lat="-26.9895365" lon="152.7955519">
<ele>137.866</ele>
<time>2015-12-27T06:01:50.389Z</time>
</trkpt>
<trkpt lat="-26.9898671" lon="152.7953851">
<ele>135.510</ele>
<time>2015-12-27T06:01:52.221Z</time>
</trkpt>
<trkpt lat="-26.9904352" lon="152.7951692">
<ele>133.150</ele>
<time>2015-12-27T06:01:55.313Z</time>
</trkpt>
<trkpt lat="-26.9909978" lon="152.7950093">
<ele>130.854</ele>
<time>2015-12-27T06:01:58.325Z</time>
</trkpt>
<trkpt lat="-26.9915589" lon="152.7949048">
<ele>129.131</ele>
<time>2015-12-27T06:02:01.302Z</time>
</trkpt>
<trkpt lat="-26.9919420" lon="152.7948437">
<ele>128.720</ele>
<time>2015-12-27T06:02:03.330Z</time>
</trkpt>
<trkpt lat="-26.9923037" lon="152.7948110">
<ele>129.899</ele>
<time>2015-12-27T06:02:05.242Z</time>
</trkpt>
<trkpt lat="-26.9926813" lon="152.7947770">
<ele>132.143</ele>
<time>2015-12-27T06:02:07.245Z</time>
</trkpt>
<trkpt lat="-26.9932765" lon="152.7946665">
<ele>134.877</ele>
<time>2015-12-27T06:02:10.369Z</time>
</trkpt>
<trkpt lat="-26.9938604" lon="152.7945687">
<ele>137.722</ele>
<time>2015-12-27T06:02:13.390Z</time>
</trkpt>
<trkpt lat="-26.9944383" lon="152.7944676">
<ele>140.232</ele>
<time>2015-12-27T06:02:16.384Z</time>
</trkpt>
<trkpt lat="-26.9948113" lon="152.7943998">
<ele>142.170</ele>
<time>2015-12-27T06:02:18.316Z</time>
</trkpt>
<trkpt lat="-26.9952098" lon="152.7943498">
<ele>143.419</ele>
<time>2015-12-27T06:02:20.362Z</time>
</trkpt>
<trkpt lat="-26.9957900" lon="152.7942859">
<ele>143.642</ele>
<time>2015-12-27T06:02:23.336Z</time>
</trkpt>
<trkpt lat="-26.9961802" lon="152.7942350">
<ele>142.896</ele>
<time>2015-12-27T06:02:25.342Z</time>
</trkpt>
<trkpt lat="-26.9967577" lon="152.7941541">
<ele>141.998</ele>
<time>2015-12-27T06:02:28.331Z</time>
</trkpt>
<trkpt lat="-26.9973130" lon="152.7940693">
<ele>141.803</ele>
<time>2015-12-27T06:02:31.257Z</time>
</trkpt>
<trkpt lat="-26.9976881" lon="152.7940196">
<ele>142.339</ele>
<time>2015-12-27T06:02:33.262Z</time>
</trkpt>
<trkpt lat="-26.9980477" lon="152.7939581">
<ele>142.884</ele>
<time>2015-12-27T06:02:35.214Z</time>
</trkpt>
<trkpt lat="-26.9984196" lon="152.7939021">
<ele>142.908</ele>
<time>2015-12-27T06:02:37.239Z</time>
</trkpt>
<trkpt lat="-26.9987643" lon="152.7938348">
<ele>142.600</ele>
<time>2015-12-27T06:02:39.147Z</time>
</trkpt>
<trkpt lat="-26.9992869" lon="152.7937119">
<ele>142.247</ele>
<time>2015-12-27T06:02:42.131Z</time>
</trkpt>
<trkpt lat="-26.9996248" lon="152.7935624">
<ele>141.966</ele>
<time>2015-12-27T06:02:44.171Z</time>
</trkpt>
<trkpt lat="-26.9999610" lon="152.7933624">
<ele>141.849</ele>
<time>2015-12-27T06:02:46.272Z</time>
</trkpt>
<trkpt lat="-27.0004042" lon="152.7929890">
<ele>141.889</ele>
<time>2015-12-27T06:02:49.293Z</time>
</trkpt>
<trkpt lat="-27.0006561" lon="152.7927145">
<ele>141.784</ele>
<time>2015-12-27T06:02:51.204Z</time>
</trkpt>
<trkpt lat="-27.0008591" lon="152.7923683">
<ele>141.248</ele>
<time>2015-12-27T06:02:53.234Z</time>
</trkpt>
<trkpt lat="-27.0010938" lon="152.7918262">
<ele>140.360</ele>
<time>2015-12-27T06:02:56.192Z</time>
</trkpt>
<trkpt lat="-27.0012303" lon="152.7914269">
<ele>139.365</ele>
<time>2015-12-27T06:02:58.238Z</time>
</trkpt>
<trkpt lat="-27.0012880" lon="152.7909557">
<ele>138.508</ele>
<time>2015-12-27T06:03:00.416Z</time>
</trkpt>
<trkpt lat="-27.0013374" lon="152.7905171">
<ele>137.802</ele>
<time>2015-12-27T06:03:02.375Z</time>
</trkpt>
<trkpt lat="-27.0014060" lon="152.7898308">
<ele>137.076</ele>
<time>2015-12-27T06:03:05.391Z</time>
</trkpt>
<trkpt lat="-27.0014460" lon="152.7893715">
<ele>136.464</ele>
<time>2015-12-27T06:03:07.387Z</time>
</trkpt>
<trkpt lat="-27.0014845" lon="152.7888782">
<ele>136.247</ele>
<time>2015-12-27T06:03:09.427Z</time>
</trkpt>
<trkpt lat="-27.0015385" lon="152.7880426">
<ele>137.016</ele>
<time>2015-12-27T06:03:12.545Z</time>
</trkpt>
<trkpt lat="-27.0016122" lon="152.7874306">
<ele>139.675</ele>
<time>2015-12-27T06:03:14.622Z</time>
</trkpt>
<trkpt lat="-27.0017136" lon="152.7868300">
<ele>143.530</ele>
<time>2015-12-27T06:03:16.629Z</time>
</trkpt>
<trkpt lat="-27.0018502" lon="152.7862681">
<ele>146.213</ele>
<time>2015-12-27T06:03:18.571Z</time>
</trkpt>
<trkpt lat="-27.0020023" lon="152.7857213">
<ele>146.573</ele>
<time>2015-12-27T06:03:20.537Z</time>
</trkpt>
<trkpt lat="-27.0023132" lon="152.7849808">
<ele>145.621</ele>
<time>2015-12-27T06:03:23.441Z</time>
</trkpt>
<trkpt lat="-27.0025837" lon="152.7844859">
<ele>144.873</ele>
<time>2015-12-27T06:03:25.518Z</time>
</trkpt>
<trkpt lat="-27.0030070" lon="152.7837646">
<ele>144.934</ele>
<time>2015-12-27T06:03:28.545Z</time>
</trkpt>
<trkpt lat="-27.0033924" lon="152.7830873">
<ele>145.332</ele>
<time>2015-12-27T06:03:31.379Z</time>
</trkpt>
<trkpt lat="-27.0037613" lon="152.7824185">
<ele>145.355</ele>
<time>2015-12-27T06:03:34.222Z</time>
</trkpt>
<trkpt lat="-27.0041715" lon="152.7817374">
<ele>144.900</ele>
<time>2015-12-27T06:03:37.245Z</time>
</trkpt>
<trkpt lat="-27.0045863" lon="152.7810915">
<ele>144.414</ele>
<time>2015-12-27T06:03:40.218Z</time>
</trkpt>
<trkpt lat="-27.0050583" lon="152.7804798">
<ele>144.280</ele>
<time>2015-12-27T06:03:43.236Z</time>
</trkpt>
<trkpt lat="-27.0056415" lon="152.7799576">
<ele>144.464</ele>
<time>2015-12-27T06:03:46.288Z</time>
</trkpt>
<trkpt lat="-27.0060273" lon="152.7796275">
<ele>145.085</ele>
<time>2015-12-27T06:03:48.244Z</time>
</trkpt>
<trkpt lat="-27.0066925" lon="152.7792064">
<ele>146.172</ele>
<time>2015-12-27T06:03:51.290Z</time>
</trkpt>
<trkpt lat="-27.0071558" lon="152.7789892">
<ele>147.336</ele>
<time>2015-12-27T06:03:53.281Z</time>
</trkpt>
<trkpt lat="-27.0076060" lon="152.7787769">
<ele>148.218</ele>
<time>2015-12-27T06:03:55.244Z</time>
</trkpt>
<trkpt lat="-27.0078532" lon="152.7786859">
<ele>148.469</ele>
<time>2015-12-27T06:03:56.306Z</time>
</trkpt>
<trkpt lat="-27.0088296" lon="152.7784827">
<ele>147.948</ele>
<time>2015-12-27T06:04:00.391Z</time>
</trkpt>
<trkpt lat="-27.0092775" lon="152.7784402">
<ele>147.412</ele>
<time>2015-12-27T06:04:02.258Z</time>
</trkpt>
<trkpt lat="-27.0098186" lon="152.7784122">
<ele>147.841</ele>
<time>2015-12-27T06:04:04.482Z</time>
</trkpt>
<trkpt lat="-27.0103082" lon="152.7784044">
<ele>149.622</ele>
<time>2015-12-27T06:04:06.481Z</time>
</trkpt>
<trkpt lat="-27.0110032" lon="152.7784441">
<ele>152.498</ele>
<time>2015-12-27T06:04:09.382Z</time>
</trkpt>
<trkpt lat="-27.0117449" lon="152.7785593">
<ele>155.685</ele>
<time>2015-12-27T06:04:12.474Z</time>
</trkpt>
<trkpt lat="-27.0124808" lon="152.7786898">
<ele>158.684</ele>
<time>2015-12-27T06:04:15.527Z</time>
</trkpt>
<trkpt lat="-27.0129579" lon="152.7787490">
<ele>161.323</ele>
<time>2015-12-27T06:04:17.530Z</time>
</trkpt>
<trkpt lat="-27.0136812" lon="152.7788773">
<ele>163.125</ele>
<time>2015-12-27T06:04:20.587Z</time>
</trkpt>
<trkpt lat="-27.0143955" lon="152.7789272">
<ele>163.876</ele>
<time>2015-12-27T06:04:23.566Z</time>
</trkpt>
<trkpt lat="-27.0148757" lon="152.7789065">
<ele>164.056</ele>
<time>2015-12-27T06:04:25.565Z</time>
</trkpt>
<trkpt lat="-27.0155822" lon="152.7788952">
<ele>164.389</ele>
<time>2015-12-27T06:04:28.506Z</time>
</trkpt>
<trkpt lat="-27.0163213" lon="152.7789782">
<ele>165.288</ele>
<time>2015-12-27T06:04:31.581Z</time>
</trkpt>
<trkpt lat="-27.0170461" lon="152.7790857">
<ele>166.516</ele>
<time>2015-12-27T06:04:34.580Z</time>
</trkpt>
<trkpt lat="-27.0175129" lon="152.7791280">
<ele>167.987</ele>
<time>2015-12-27T06:04:36.510Z</time>
</trkpt>
<trkpt lat="-27.0182310" lon="152.7792746">
<ele>169.901</ele>
<time>2015-12-27T06:04:39.559Z</time>
</trkpt>
<trkpt lat="-27.0186933" lon="152.7793385">
<ele>172.047</ele>
<time>2015-12-27T06:04:41.547Z</time>
</trkpt>
<trkpt lat="-27.0191573" lon="152.7794688">
<ele>174.216</ele>
<time>2015-12-27T06:04:43.607Z</time>
</trkpt>
<trkpt lat="-27.0198262" lon="152.7797776">
<ele>176.434</ele>
<time>2015-12-27T06:04:46.686Z</time>
</trkpt>
<trkpt lat="-27.0204234" lon="152.7800233">
<ele>178.875</ele>
<time>2015-12-27T06:04:49.435Z</time>
</trkpt>
<trkpt lat="-27.0210248" lon="152.7802362">
<ele>181.425</ele>
<time>2015-12-27T06:04:52.348Z</time>
</trkpt>
<trkpt lat="-27.0213836" lon="152.7803620">
<ele>183.554</ele>
<time>2015-12-27T06:04:54.202Z</time>
</trkpt>
<trkpt lat="-27.0218888" lon="152.7805397">
<ele>185.008</ele>
<time>2015-12-27T06:04:57.003Z</time>
</trkpt>
<trkpt lat="-27.0222083" lon="152.7806675">
<ele>185.968</ele>
<time>2015-12-27T06:04:58.927Z</time>
</trkpt>
<trkpt lat="-27.0224857" lon="152.7807744">
<ele>186.623</ele>
<time>2015-12-27T06:05:00.690Z</time>
</trkpt>
<trkpt lat="-27.0229159" lon="152.7809363">
<ele>187.087</ele>
<time>2015-12-27T06:05:03.611Z</time>
</trkpt>
<trkpt lat="-27.0233100" lon="152.7809722">
<ele>187.549</ele>
<time>2015-12-27T06:05:06.385Z</time>
</trkpt>
<trkpt lat="-27.0235779" lon="152.7808889">
<ele>188.361</ele>
<time>2015-12-27T06:05:08.424Z</time>
</trkpt>
<trkpt lat="-27.0237968" lon="152.7806697">
<ele>189.788</ele>
<time>2015-12-27T06:05:10.585Z</time>
</trkpt>
<trkpt lat="-27.0239608" lon="152.7802486">
<ele>191.909</ele>
<time>2015-12-27T06:05:13.586Z</time>
</trkpt>
<trkpt lat="-27.0240575" lon="152.7798445">
<ele>194.785</ele>
<time>2015-12-27T06:05:16.364Z</time>
</trkpt>
<trkpt lat="-27.0242736" lon="152.7795471">
<ele>197.895</ele>
<time>2015-12-27T06:05:19.086Z</time>
</trkpt>
<trkpt lat="-27.0246537" lon="152.7795726">
<ele>200.247</ele>
<time>2015-12-27T06:05:22.340Z</time>
</trkpt>
<trkpt lat="-27.0250335" lon="152.7795635">
<ele>201.654</ele>
<time>2015-12-27T06:05:25.479Z</time>
</trkpt>
<trkpt lat="-27.0253824" lon="152.7794024">
<ele>203.119</ele>
<time>2015-12-27T06:05:28.451Z</time>
</trkpt>
<trkpt lat="-27.0255601" lon="152.7792436">
<ele>205.472</ele>
<time>2015-12-27T06:05:30.320Z</time>
</trkpt>
<trkpt lat="-27.0256551" lon="152.7790446">
<ele>208.271</ele>
<time>2015-12-27T06:05:32.106Z</time>
</trkpt>
<trkpt lat="-27.0256900" lon="152.7787969">
<ele>210.437</ele>
<time>2015-12-27T06:05:34.204Z</time>
</trkpt>
<trkpt lat="-27.0256743" lon="152.7784625">
<ele>211.962</ele>
<time>2015-12-27T06:05:37.102Z</time>
</trkpt>
<trkpt lat="-27.0257755" lon="152.7782936">
<ele>213.331</ele>
<time>2015-12-27T06:05:38.941Z</time>
</trkpt>
<trkpt lat="-27.0259773" lon="152.7781674">
<ele>214.076</ele>
<time>2015-12-27T06:05:41.543Z</time>
</trkpt>
<trkpt lat="-27.0262744" lon="152.7783592">
<ele>213.816</ele>
<time>2015-12-27T06:05:45.344Z</time>
</trkpt>
<trkpt lat="-27.0266165" lon="152.7786390">
<ele>213.131</ele>
<time>2015-12-27T06:05:48.654Z</time>
</trkpt>
<trkpt lat="-27.0269190" lon="152.7790085">
<ele>212.582</ele>
<time>2015-12-27T06:05:51.685Z</time>
</trkpt>
<trkpt lat="-27.0271002" lon="152.7792372">
<ele>211.493</ele>
<time>2015-12-27T06:05:53.598Z</time>
</trkpt>
<trkpt lat="-27.0274350" lon="152.7794476">
<ele>208.782</ele>
<time>2015-12-27T06:05:56.511Z</time>
</trkpt>
<trkpt lat="-27.0278513" lon="152.7792644">
<ele>204.592</ele>
<time>2015-12-27T06:06:00.032Z</time>
</trkpt>
<trkpt lat="-27.0282400" lon="152.7791050">
<ele>200.058</ele>
<time>2015-12-27T06:06:03.132Z</time>
</trkpt>
<trkpt lat="-27.0285366" lon="152.7791287">
<ele>195.802</ele>
<time>2015-12-27T06:06:05.279Z</time>
</trkpt>
<trkpt lat="-27.0289361" lon="152.7793374">
<ele>191.964</ele>
<time>2015-12-27T06:06:08.355Z</time>
</trkpt>
<trkpt lat="-27.0292689" lon="152.7793170">
<ele>188.528</ele>
<time>2015-12-27T06:06:10.533Z</time>
</trkpt>
<trkpt lat="-27.0295804" lon="152.7792518">
<ele>185.687</ele>
<time>2015-12-27T06:06:12.523Z</time>
</trkpt>
<trkpt lat="-27.0300316" lon="152.7790409">
<ele>183.440</ele>
<time>2015-12-27T06:06:15.544Z</time>
</trkpt>
<trkpt lat="-27.0303267" lon="152.7788347">
<ele>181.465</ele>
<time>2015-12-27T06:06:17.710Z</time>
</trkpt>
<trkpt lat="-27.0305681" lon="152.7786306">
<ele>179.767</ele>
<time>2015-12-27T06:06:19.642Z</time>
</trkpt>
<trkpt lat="-27.0309493" lon="152.7783366">
<ele>178.808</ele>
<time>2015-12-27T06:06:22.642Z</time>
</trkpt>
<trkpt lat="-27.0313732" lon="152.7781641">
<ele>178.918</ele>
<time>2015-12-27T06:06:25.601Z</time>
</trkpt>
<trkpt lat="-27.0316814" lon="152.7781448">
<ele>180.328</ele>
<time>2015-12-27T06:06:27.610Z</time>
</trkpt>
<trkpt lat="-27.0321335" lon="152.7781217">
<ele>183.061</ele>
<time>2015-12-27T06:06:30.618Z</time>
</trkpt>
<trkpt lat="-27.0324040" lon="152.7780691">
<ele>187.049</ele>
<time>2015-12-27T06:06:32.630Z</time>
</trkpt>
<trkpt lat="-27.0326464" lon="152.7779417">
<ele>191.707</ele>
<time>2015-12-27T06:06:34.704Z</time>
</trkpt>
<trkpt lat="-27.0328674" lon="152.7777627">
<ele>195.940</ele>
<time>2015-12-27T06:06:36.884Z</time>
</trkpt>
<trkpt lat="-27.0331693" lon="152.7776045">
<ele>199.503</ele>
<time>2015-12-27T06:06:39.596Z</time>
</trkpt>
<trkpt lat="-27.0333690" lon="152.7774499">
<ele>203.057</ele>
<time>2015-12-27T06:06:41.547Z</time>
</trkpt>
<trkpt lat="-27.0335317" lon="152.7772280">
<ele>206.687</ele>
<time>2015-12-27T06:06:43.576Z</time>
</trkpt>
<trkpt lat="-27.0337591" lon="152.7771075">
<ele>210.186</ele>
<time>2015-12-27T06:06:45.574Z</time>
</trkpt>
<trkpt lat="-27.0340973" lon="152.7768955">
<ele>213.699</ele>
<time>2015-12-27T06:06:48.674Z</time>
</trkpt>
<trkpt lat="-27.0342729" lon="152.7766920">
<ele>217.365</ele>
<time>2015-12-27T06:06:50.851Z</time>
</trkpt>
<trkpt lat="-27.0345249" lon="152.7764668">
<ele>221.163</ele>
<time>2015-12-27T06:06:53.945Z</time>
</trkpt>
<trkpt lat="-27.0347241" lon="152.7764923">
<ele>224.962</ele>
<time>2015-12-27T06:06:56.205Z</time>
</trkpt>
<trkpt lat="-27.0348708" lon="152.7765550">
<ele>228.680</ele>
<time>2015-12-27T06:06:57.789Z</time>
</trkpt>
<trkpt lat="-27.0351541" lon="152.7768879">
<ele>232.367</ele>
<time>2015-12-27T06:07:01.475Z</time>
</trkpt>
<trkpt lat="-27.0354962" lon="152.7770179">
<ele>235.956</ele>
<time>2015-12-27T06:07:04.552Z</time>
</trkpt>
<trkpt lat="-27.0358033" lon="152.7772289">
<ele>239.508</ele>
<time>2015-12-27T06:07:07.636Z</time>
</trkpt>
<trkpt lat="-27.0360234" lon="152.7772945">
<ele>243.380</ele>
<time>2015-12-27T06:07:09.547Z</time>
</trkpt>
<trkpt lat="-27.0362590" lon="152.7773574">
<ele>247.423</ele>
<time>2015-12-27T06:07:11.497Z</time>
</trkpt>
<trkpt lat="-27.0366211" lon="152.7773275">
<ele>251.028</ele>
<time>2015-12-27T06:07:14.514Z</time>
</trkpt>
<trkpt lat="-27.0368242" lon="152.7772545">
<ele>254.130</ele>
<time>2015-12-27T06:07:16.465Z</time>
</trkpt>
<trkpt lat="-27.0370178" lon="152.7772730">
<ele>257.047</ele>
<time>2015-12-27T06:07:18.254Z</time>
</trkpt>
<trkpt lat="-27.0373738" lon="152.7774404">
<ele>259.547</ele>
<time>2015-12-27T06:07:21.606Z</time>
</trkpt>
<trkpt lat="-27.0376043" lon="152.7774076">
<ele>261.683</ele>
<time>2015-12-27T06:07:23.538Z</time>
</trkpt>
<trkpt lat="-27.0378539" lon="152.7772995">
<ele>264.176</ele>
<time>2015-12-27T06:07:25.772Z</time>
</trkpt>
<trkpt lat="-27.0381957" lon="152.7773261">
<ele>267.387</ele>
<time>2015-12-27T06:07:28.708Z</time>
</trkpt>
<trkpt lat="-27.0384131" lon="152.7772159">
<ele>271.363</ele>
<time>2015-12-27T06:07:30.666Z</time>
</trkpt>
<trkpt lat="-27.0386603" lon="152.7771106">
<ele>275.541</ele>
<time>2015-12-27T06:07:32.822Z</time>
</trkpt>
<trkpt lat="-27.0388850" lon="152.7770080">
<ele>278.849</ele>
<time>2015-12-27T06:07:34.869Z</time>
</trkpt>
<trkpt lat="-27.0392240" lon="152.7769620">
<ele>281.319</ele>
<time>2015-12-27T06:07:38.166Z</time>
</trkpt>
<trkpt lat="-27.0393873" lon="152.7770705">
<ele>283.711</ele>
<time>2015-12-27T06:07:39.952Z</time>
</trkpt>
<trkpt lat="-27.0395997" lon="152.7771714">
<ele>286.227</ele>
<time>2015-12-27T06:07:42.021Z</time>
</trkpt>
<trkpt lat="-27.0399397" lon="152.7772389">
<ele>288.860</ele>
<time>2015-12-27T06:07:44.679Z</time>
</trkpt>
<trkpt lat="-27.0403676" lon="152.7772339">
<ele>291.819</ele>
<time>2015-12-27T06:07:47.541Z</time>
</trkpt>
<trkpt lat="-27.0408542" lon="152.7773980">
<ele>295.827</ele>
<time>2015-12-27T06:07:50.714Z</time>
</trkpt>
<trkpt lat="-27.0413280" lon="152.7774177">
<ele>301.327</ele>
<time>2015-12-27T06:07:53.733Z</time>
</trkpt>
<trkpt lat="-27.0416443" lon="152.7773964">
<ele>307.669</ele>
<time>2015-12-27T06:07:55.770Z</time>
</trkpt>
<trkpt lat="-27.0419695" lon="152.7773942">
<ele>313.730</ele>
<time>2015-12-27T06:07:57.839Z</time>
</trkpt>
<trkpt lat="-27.0424653" lon="152.7774262">
<ele>318.602</ele>
<time>2015-12-27T06:08:01.105Z</time>
</trkpt>
<trkpt lat="-27.0429050" lon="152.7775155">
<ele>322.463</ele>
<time>2015-12-27T06:08:04.156Z</time>
</trkpt>
<trkpt lat="-27.0433453" lon="152.7775077">
<ele>326.395</ele>
<time>2015-12-27T06:08:07.030Z</time>
</trkpt>
<trkpt lat="-27.0436611" lon="152.7774333">
<ele>330.900</ele>
<time>2015-12-27T06:08:09.073Z</time>
</trkpt>
<trkpt lat="-27.0441349" lon="152.7773049">
<ele>335.662</ele>
<time>2015-12-27T06:08:12.083Z</time>
</trkpt>
<trkpt lat="-27.0444400" lon="152.7771767">
<ele>340.883</ele>
<time>2015-12-27T06:08:14.107Z</time>
</trkpt>
<trkpt lat="-27.0448707" lon="152.7769525">
<ele>346.301</ele>
<time>2015-12-27T06:08:17.470Z</time>
</trkpt>
<trkpt lat="-27.0451391" lon="152.7768839">
<ele>350.997</ele>
<time>2015-12-27T06:08:19.736Z</time>
</trkpt>
<trkpt lat="-27.0454390" lon="152.7767382">
<ele>354.457</ele>
<time>2015-12-27T06:08:22.850Z</time>
</trkpt>
<trkpt lat="-27.0456069" lon="152.7765825">
<ele>356.581</ele>
<time>2015-12-27T06:08:24.934Z</time>
</trkpt>
<trkpt lat="-27.0456586" lon="152.7763380">
<ele>357.805</ele>
<time>2015-12-27T06:08:27.014Z</time>
</trkpt>
<trkpt lat="-27.0457023" lon="152.7759307">
<ele>359.434</ele>
<time>2015-12-27T06:08:30.265Z</time>
</trkpt>
<trkpt lat="-27.0458307" lon="152.7757264">
<ele>361.971</ele>
<time>2015-12-27T06:08:32.232Z</time>
</trkpt>
<trkpt lat="-27.0461951" lon="152.7756370">
<ele>365.128</ele>
<time>2015-12-27T06:08:35.527Z</time>
</trkpt>
<trkpt lat="-27.0464326" lon="152.7753814">
<ele>368.653</ele>
<time>2015-12-27T06:08:38.177Z</time>
</trkpt>
<trkpt lat="-27.0463218" lon="152.7749879">
<ele>372.475</ele>
<time>2015-12-27T06:08:40.895Z</time>
</trkpt>
<trkpt lat="-27.0463213" lon="152.7746577">
<ele>376.474</ele>
<time>2015-12-27T06:08:43.129Z</time>
</trkpt>
<trkpt lat="-27.0462893" lon="152.7741953">
<ele>380.513</ele>
<time>2015-12-27T06:08:46.317Z</time>
</trkpt>
<trkpt lat="-27.0461652" lon="152.7739229">
<ele>384.473</ele>
<time>2015-12-27T06:08:48.291Z</time>
</trkpt>
<trkpt lat="-27.0460906" lon="152.7735124">
<ele>388.138</ele>
<time>2015-12-27T06:08:50.778Z</time>
</trkpt>
<trkpt lat="-27.0461629" lon="152.7731431">
<ele>391.744</ele>
<time>2015-12-27T06:08:52.895Z</time>
</trkpt>
<trkpt lat="-27.0464034" lon="152.7726592">
<ele>395.655</ele>
<time>2015-12-27T06:08:55.780Z</time>
</trkpt>
<trkpt lat="-27.0466355" lon="152.7723965">
<ele>399.702</ele>
<time>2015-12-27T06:08:57.514Z</time>
</trkpt>
<trkpt lat="-27.0471297" lon="152.7721276">
<ele>403.740</ele>
<time>2015-12-27T06:09:00.223Z</time>
</trkpt>
<trkpt lat="-27.0476825" lon="152.7718559">
<ele>408.119</ele>
<time>2015-12-27T06:09:02.974Z</time>
</trkpt>
<trkpt lat="-27.0482833" lon="152.7715419">
<ele>413.306</ele>
<time>2015-12-27T06:09:05.892Z</time>
</trkpt>
<trkpt lat="-27.0487016" lon="152.7713356">
<ele>419.418</ele>
<time>2015-12-27T06:09:07.979Z</time>
</trkpt>
<trkpt lat="-27.0491049" lon="152.7711363">
<ele>425.361</ele>
<time>2015-12-27T06:09:10.122Z</time>
</trkpt>
<trkpt lat="-27.0494955" lon="152.7709948">
<ele>429.490</ele>
<time>2015-12-27T06:09:12.171Z</time>
</trkpt>
<trkpt lat="-27.0498868" lon="152.7709175">
<ele>430.952</ele>
<time>2015-12-27T06:09:14.166Z</time>
</trkpt>
<trkpt lat="-27.0502776" lon="152.7709081">
<ele>430.408</ele>
<time>2015-12-27T06:09:16.108Z</time>
</trkpt>
<trkpt lat="-27.0508482" lon="152.7710559">
<ele>429.448</ele>
<time>2015-12-27T06:09:18.842Z</time>
</trkpt>
<trkpt lat="-27.0512184" lon="152.7712966">
<ele>429.101</ele>
<time>2015-12-27T06:09:20.734Z</time>
</trkpt>
<trkpt lat="-27.0517722" lon="152.7717729">
<ele>429.071</ele>
<time>2015-12-27T06:09:23.689Z</time>
</trkpt>
<trkpt lat="-27.0521329" lon="152.7721152">
<ele>428.625</ele>
<time>2015-12-27T06:09:25.707Z</time>
</trkpt>
<trkpt lat="-27.0526541" lon="152.7726089">
<ele>427.456</ele>
<time>2015-12-27T06:09:28.706Z</time>
</trkpt>
<trkpt lat="-27.0530002" lon="152.7729333">
<ele>425.725</ele>
<time>2015-12-27T06:09:30.728Z</time>
</trkpt>
<trkpt lat="-27.0535390" lon="152.7733585">
<ele>423.711</ele>
<time>2015-12-27T06:09:33.667Z</time>
</trkpt>
<trkpt lat="-27.0539410" lon="152.7735729">
<ele>421.369</ele>
<time>2015-12-27T06:09:35.581Z</time>
</trkpt>
<trkpt lat="-27.0543785" lon="152.7737239">
<ele>418.942</ele>
<time>2015-12-27T06:09:37.501Z</time>
</trkpt>
<trkpt lat="-27.0548415" lon="152.7738445">
<ele>417.620</ele>
<time>2015-12-27T06:09:39.479Z</time>
</trkpt>
<trkpt lat="-27.0555373" lon="152.7740372">
<ele>418.243</ele>
<time>2015-12-27T06:09:42.425Z</time>
</trkpt>
<trkpt lat="-27.0562457" lon="152.7742286">
<ele>420.086</ele>
<time>2015-12-27T06:09:45.417Z</time>
</trkpt>
<trkpt lat="-27.0569460" lon="152.7744237">
<ele>422.046</ele>
<time>2015-12-27T06:09:48.427Z</time>
</trkpt>
<trkpt lat="-27.0574006" lon="152.7745356">
<ele>423.686</ele>
<time>2015-12-27T06:09:50.426Z</time>
</trkpt>
<trkpt lat="-27.0580614" lon="152.7747395">
<ele>424.847</ele>
<time>2015-12-27T06:09:53.486Z</time>
</trkpt>
<trkpt lat="-27.0586428" lon="152.7750357">
<ele>425.396</ele>
<time>2015-12-27T06:09:56.368Z</time>
</trkpt>
<trkpt lat="-27.0591786" lon="152.7754762">
<ele>425.483</ele>
<time>2015-12-27T06:09:59.253Z</time>
</trkpt>
<trkpt lat="-27.0594447" lon="152.7758890">
<ele>425.392</ele>
<time>2015-12-27T06:10:01.130Z</time>
</trkpt>
<trkpt lat="-27.0597477" lon="152.7763133">
<ele>425.736</ele>
<time>2015-12-27T06:10:03.100Z</time>
</trkpt>
<trkpt lat="-27.0602358" lon="152.7769720">
<ele>427.421</ele>
<time>2015-12-27T06:10:06.196Z</time>
</trkpt>
<trkpt lat="-27.0606893" lon="152.7775949">
<ele>430.180</ele>
<time>2015-12-27T06:10:09.205Z</time>
</trkpt>
<trkpt lat="-27.0609935" lon="152.7779900">
<ele>432.466</ele>
<time>2015-12-27T06:10:11.180Z</time>
</trkpt>
<trkpt lat="-27.0614897" lon="152.7785356">
<ele>433.449</ele>
<time>2015-12-27T06:10:14.182Z</time>
</trkpt>
<trkpt lat="-27.0618371" lon="152.7789037">
<ele>433.644</ele>
<time>2015-12-27T06:10:16.332Z</time>
</trkpt>
<trkpt lat="-27.0623539" lon="152.7793773">
<ele>434.268</ele>
<time>2015-12-27T06:10:19.642Z</time>
</trkpt>
<trkpt lat="-27.0626499" lon="152.7796500">
<ele>436.081</ele>
<time>2015-12-27T06:10:21.602Z</time>
</trkpt>
<trkpt lat="-27.0630842" lon="152.7800476">
<ele>438.415</ele>
<time>2015-12-27T06:10:24.531Z</time>
</trkpt>
<trkpt lat="-27.0633931" lon="152.7803019">
<ele>440.568</ele>
<time>2015-12-27T06:10:26.540Z</time>
</trkpt>
<trkpt lat="-27.0637320" lon="152.7805318">
<ele>442.795</ele>
<time>2015-12-27T06:10:28.607Z</time>
</trkpt>
<trkpt lat="-27.0642650" lon="152.7807614">
<ele>445.407</ele>
<time>2015-12-27T06:10:31.522Z</time>
</trkpt>
<trkpt lat="-27.0646590" lon="152.7808335">
<ele>448.765</ele>
<time>2015-12-27T06:10:33.533Z</time>
</trkpt>
<trkpt lat="-27.0652636" lon="152.7808707">
<ele>452.878</ele>
<time>2015-12-27T06:10:36.548Z</time>
</trkpt>
<trkpt lat="-27.0658834" lon="152.7808568">
<ele>457.174</ele>
<time>2015-12-27T06:10:39.608Z</time>
</trkpt>
<trkpt lat="-27.0664944" lon="152.7808995">
<ele>461.449</ele>
<time>2015-12-27T06:10:42.600Z</time>
</trkpt>
<trkpt lat="-27.0668925" lon="152.7809543">
<ele>465.553</ele>
<time>2015-12-27T06:10:44.550Z</time>
</trkpt>
<trkpt lat="-27.0674761" lon="152.7810583">
<ele>468.919</ele>
<time>2015-12-27T06:10:47.441Z</time>
</trkpt>
<trkpt lat="-27.0680781" lon="152.7811470">
<ele>471.357</ele>
<time>2015-12-27T06:10:50.470Z</time>
</trkpt>
<trkpt lat="-27.0686606" lon="152.7812830">
<ele>472.932</ele>
<time>2015-12-27T06:10:53.433Z</time>
</trkpt>
<trkpt lat="-27.0690517" lon="152.7813783">
<ele>473.351</ele>
<time>2015-12-27T06:10:55.392Z</time>
</trkpt>
<trkpt lat="-27.0694451" lon="152.7814858">
<ele>472.487</ele>
<time>2015-12-27T06:10:57.366Z</time>
</trkpt>
<trkpt lat="-27.0700558" lon="152.7816609">
<ele>471.005</ele>
<time>2015-12-27T06:11:00.494Z</time>
</trkpt>
<trkpt lat="-27.0704062" lon="152.7816534">
<ele>469.372</ele>
<time>2015-12-27T06:11:02.259Z</time>
</trkpt>
<trkpt lat="-27.0708071" lon="152.7816353">
<ele>467.598</ele>
<time>2015-12-27T06:11:04.291Z</time>
</trkpt>
<trkpt lat="-27.0713966" lon="152.7816086">
<ele>466.124</ele>
<time>2015-12-27T06:11:07.328Z</time>
</trkpt>
<trkpt lat="-27.0719652" lon="152.7816912">
<ele>465.261</ele>
<time>2015-12-27T06:11:10.301Z</time>
</trkpt>
<trkpt lat="-27.0723363" lon="152.7817997">
<ele>464.318</ele>
<time>2015-12-27T06:11:12.269Z</time>
</trkpt>
<trkpt lat="-27.0727044" lon="152.7818980">
<ele>462.442</ele>
<time>2015-12-27T06:11:14.171Z</time>
</trkpt>
<trkpt lat="-27.0731016" lon="152.7819622">
<ele>459.503</ele>
<time>2015-12-27T06:11:16.165Z</time>
</trkpt>
<trkpt lat="-27.0737186" lon="152.7819153">
<ele>455.996</ele>
<time>2015-12-27T06:11:19.201Z</time>
</trkpt>
<trkpt lat="-27.0743462" lon="152.7818462">
<ele>452.346</ele>
<time>2015-12-27T06:11:22.263Z</time>
</trkpt>
<trkpt lat="-27.0747518" lon="152.7818496">
<ele>449.086</ele>
<time>2015-12-27T06:11:24.221Z</time>
</trkpt>
<trkpt lat="-27.0753757" lon="152.7819201">
<ele>446.982</ele>
<time>2015-12-27T06:11:27.257Z</time>
</trkpt>
<trkpt lat="-27.0757788" lon="152.7819886">
<ele>446.238</ele>
<time>2015-12-27T06:11:29.245Z</time>
</trkpt>
<trkpt lat="-27.0761842" lon="152.7819656">
<ele>446.143</ele>
<time>2015-12-27T06:11:31.225Z</time>
</trkpt>
<trkpt lat="-27.0767773" lon="152.7818182">
<ele>445.975</ele>
<time>2015-12-27T06:11:34.174Z</time>
</trkpt>
<trkpt lat="-27.0773354" lon="152.7815318">
<ele>445.617</ele>
<time>2015-12-27T06:11:37.187Z</time>
</trkpt>
<trkpt lat="-27.0778097" lon="152.7811329">
<ele>445.702</ele>
<time>2015-12-27T06:11:40.166Z</time>
</trkpt>
<trkpt lat="-27.0780888" lon="152.7808042">
<ele>446.841</ele>
<time>2015-12-27T06:11:42.343Z</time>
</trkpt>
<trkpt lat="-27.0783421" lon="152.7804898">
<ele>449.291</ele>
<time>2015-12-27T06:11:44.501Z</time>
</trkpt>
<trkpt lat="-27.0786673" lon="152.7800808">
<ele>452.632</ele>
<time>2015-12-27T06:11:47.592Z</time>
</trkpt>
<trkpt lat="-27.0788332" lon="152.7798035">
<ele>455.615</ele>
<time>2015-12-27T06:11:49.484Z</time>
</trkpt>
<trkpt lat="-27.0789841" lon="152.7794841">
<ele>457.412</ele>
<time>2015-12-27T06:11:51.517Z</time>
</trkpt>
<trkpt lat="-27.0791216" lon="152.7789770">
<ele>458.408</ele>
<time>2015-12-27T06:11:54.466Z</time>
</trkpt>
<trkpt lat="-27.0791689" lon="152.7786236">
<ele>459.562</ele>
<time>2015-12-27T06:11:56.475Z</time>
</trkpt>
<trkpt lat="-27.0792149" lon="152.7780946">
<ele>461.567</ele>
<time>2015-12-27T06:11:59.601Z</time>
</trkpt>
<trkpt lat="-27.0792295" lon="152.7777741">
<ele>464.395</ele>
<time>2015-12-27T06:12:01.484Z</time>
</trkpt>
<trkpt lat="-27.0792117" lon="152.7774463">
<ele>467.274</ele>
<time>2015-12-27T06:12:03.389Z</time>
</trkpt>
<trkpt lat="-27.0791342" lon="152.7769561">
<ele>468.910</ele>
<time>2015-12-27T06:12:06.205Z</time>
</trkpt>
<trkpt lat="-27.0790283" lon="152.7764453">
<ele>468.463</ele>
<time>2015-12-27T06:12:09.231Z</time>
</trkpt>
<trkpt lat="-27.0789319" lon="152.7759346">
<ele>466.741</ele>
<time>2015-12-27T06:12:12.299Z</time>
</trkpt>
<trkpt lat="-27.0789346" lon="152.7754310">
<ele>465.242</ele>
<time>2015-12-27T06:12:15.209Z</time>
</trkpt>
<trkpt lat="-27.0790169" lon="152.7749188">
<ele>464.849</ele>
<time>2015-12-27T06:12:18.165Z</time>
</trkpt>
<trkpt lat="-27.0791280" lon="152.7745798">
<ele>465.394</ele>
<time>2015-12-27T06:12:20.242Z</time>
</trkpt>
<trkpt lat="-27.0792602" lon="152.7742607">
<ele>466.007</ele>
<time>2015-12-27T06:12:22.295Z</time>
</trkpt>
<trkpt lat="-27.0794892" lon="152.7738116">
<ele>465.985</ele>
<time>2015-12-27T06:12:25.359Z</time>
</trkpt>
<trkpt lat="-27.0796328" lon="152.7735465">
<ele>465.424</ele>
<time>2015-12-27T06:12:27.158Z</time>
</trkpt>
<trkpt lat="-27.0800007" lon="152.7731791">
<ele>464.758</ele>
<time>2015-12-27T06:12:30.320Z</time>
</trkpt>
<trkpt lat="-27.0802314" lon="152.7729598">
<ele>463.906</ele>
<time>2015-12-27T06:12:32.356Z</time>
</trkpt>
<trkpt lat="-27.0805274" lon="152.7726276">
<ele>462.553</ele>
<time>2015-12-27T06:12:35.247Z</time>
</trkpt>
<trkpt lat="-27.0807320" lon="152.7721956">
<ele>461.101</ele>
<time>2015-12-27T06:12:38.155Z</time>
</trkpt>
<trkpt lat="-27.0807923" lon="152.7718673">
<ele>460.366</ele>
<time>2015-12-27T06:12:40.137Z</time>
</trkpt>
<trkpt lat="-27.0808411" lon="152.7715309">
<ele>460.493</ele>
<time>2015-12-27T06:12:42.167Z</time>
</trkpt>
<trkpt lat="-27.0808178" lon="152.7711949">
<ele>460.995</ele>
<time>2015-12-27T06:12:44.195Z</time>
</trkpt>
<trkpt lat="-27.0807352" lon="152.7708793">
<ele>461.566</ele>
<time>2015-12-27T06:12:46.269Z</time>
</trkpt>
<trkpt lat="-27.0806180" lon="152.7705851">
<ele>462.514</ele>
<time>2015-12-27T06:12:48.362Z</time>
</trkpt>
<trkpt lat="-27.0806033" lon="152.7701521">
<ele>464.078</ele>
<time>2015-12-27T06:12:51.112Z</time>
</trkpt>
<trkpt lat="-27.0807309" lon="152.7698574">
<ele>465.914</ele>
<time>2015-12-27T06:12:53.079Z</time>
</trkpt>
<trkpt lat="-27.0808781" lon="152.7693668">
<ele>467.619</ele>
<time>2015-12-27T06:12:55.978Z</time>
</trkpt>
<trkpt lat="-27.0809099" lon="152.7690016">
<ele>469.119</ele>
<time>2015-12-27T06:12:58.011Z</time>
</trkpt>
<trkpt lat="-27.0809210" lon="152.7684695">
<ele>470.593</ele>
<time>2015-12-27T06:13:00.974Z</time>
</trkpt>
<trkpt lat="-27.0809469" lon="152.7679398">
<ele>472.349</ele>
<time>2015-12-27T06:13:03.625Z</time>
</trkpt>
<trkpt lat="-27.0809908" lon="152.7672740">
<ele>474.666</ele>
<time>2015-12-27T06:13:06.532Z</time>
</trkpt>
<trkpt lat="-27.0810029" lon="152.7667919">
<ele>477.483</ele>
<time>2015-12-27T06:13:08.514Z</time>
</trkpt>
<trkpt lat="-27.0810225" lon="152.7663224">
<ele>480.062</ele>
<time>2015-12-27T06:13:10.460Z</time>
</trkpt>
<trkpt lat="-27.0810449" lon="152.7658547">
<ele>481.386</ele>
<time>2015-12-27T06:13:12.449Z</time>
</trkpt>
<trkpt lat="-27.0810881" lon="152.7653983">
<ele>481.324</ele>
<time>2015-12-27T06:13:14.455Z</time>
</trkpt>
<trkpt lat="-27.0811889" lon="152.7649715">
<ele>480.530</ele>
<time>2015-12-27T06:13:16.428Z</time>
</trkpt>
<trkpt lat="-27.0814091" lon="152.7643680">
<ele>479.636</ele>
<time>2015-12-27T06:13:19.385Z</time>
</trkpt>
<trkpt lat="-27.0817713" lon="152.7638708">
<ele>479.297</ele>
<time>2015-12-27T06:13:22.327Z</time>
</trkpt>
<trkpt lat="-27.0820088" lon="152.7635225">
<ele>479.772</ele>
<time>2015-12-27T06:13:24.410Z</time>
</trkpt>
<trkpt lat="-27.0822239" lon="152.7631862">
<ele>480.114</ele>
<time>2015-12-27T06:13:26.526Z</time>
</trkpt>
<trkpt lat="-27.0823516" lon="152.7628329">
<ele>479.001</ele>
<time>2015-12-27T06:13:28.622Z</time>
</trkpt>
<trkpt lat="-27.0824189" lon="152.7624762">
<ele>476.208</ele>
<time>2015-12-27T06:13:30.681Z</time>
</trkpt>
<trkpt lat="-27.0824078" lon="152.7619432">
<ele>472.989</ele>
<time>2015-12-27T06:13:33.600Z</time>
</trkpt>
<trkpt lat="-27.0823457" lon="152.7615924">
<ele>470.862</ele>
<time>2015-12-27T06:13:35.556Z</time>
</trkpt>
<trkpt lat="-27.0823100" lon="152.7612268">
<ele>470.160</ele>
<time>2015-12-27T06:13:37.687Z</time>
</trkpt>
<trkpt lat="-27.0824142" lon="152.7607818">
<ele>470.200</ele>
<time>2015-12-27T06:13:40.640Z</time>
</trkpt>
<trkpt lat="-27.0825602" lon="152.7605213">
<ele>469.690</ele>
<time>2015-12-27T06:13:42.675Z</time>
</trkpt>
<trkpt lat="-27.0827600" lon="152.7603848">
<ele>467.863</ele>
<time>2015-12-27T06:13:44.382Z</time>
</trkpt>
<trkpt lat="-27.0831525" lon="152.7602035">
<ele>465.680</ele>
<time>2015-12-27T06:13:47.297Z</time>
</trkpt>
<trkpt lat="-27.0835383" lon="152.7599330">
<ele>464.527</ele>
<time>2015-12-27T06:13:50.159Z</time>
</trkpt>
<trkpt lat="-27.0839054" lon="152.7595565">
<ele>465.137</ele>
<time>2015-12-27T06:13:53.043Z</time>
</trkpt>
<trkpt lat="-27.0842617" lon="152.7591181">
<ele>467.558</ele>
<time>2015-12-27T06:13:56.010Z</time>
</trkpt>
<trkpt lat="-27.0844995" lon="152.7588260">
<ele>470.593</ele>
<time>2015-12-27T06:13:58.002Z</time>
</trkpt>
<trkpt lat="-27.0847417" lon="152.7585285">
<ele>473.044</ele>
<time>2015-12-27T06:14:00.020Z</time>
</trkpt>
<trkpt lat="-27.0849840" lon="152.7582322">
<ele>474.955</ele>
<time>2015-12-27T06:14:02.016Z</time>
</trkpt>
<trkpt lat="-27.0853230" lon="152.7577553">
<ele>476.735</ele>
<time>2015-12-27T06:14:05.028Z</time>
</trkpt>
<trkpt lat="-27.0855208" lon="152.7574215">
<ele>478.530</ele>
<time>2015-12-27T06:14:06.979Z</time>
</trkpt>
<trkpt lat="-27.0857508" lon="152.7568415">
<ele>480.174</ele>
<time>2015-12-27T06:14:10.037Z</time>
</trkpt>
<trkpt lat="-27.0858502" lon="152.7564263">
<ele>481.314</ele>
<time>2015-12-27T06:14:12.083Z</time>
</trkpt>
<trkpt lat="-27.0859800" lon="152.7558213">
<ele>481.918</ele>
<time>2015-12-27T06:14:15.028Z</time>
</trkpt>
<trkpt lat="-27.0861773" lon="152.7552222">
<ele>482.282</ele>
<time>2015-12-27T06:14:18.021Z</time>
</trkpt>
<trkpt lat="-27.0864325" lon="152.7546610">
<ele>482.682</ele>
<time>2015-12-27T06:14:20.973Z</time>
</trkpt>
<trkpt lat="-27.0866250" lon="152.7543037">
<ele>483.308</ele>
<time>2015-12-27T06:14:22.926Z</time>
</trkpt>
<trkpt lat="-27.0868070" lon="152.7539266">
<ele>484.058</ele>
<time>2015-12-27T06:14:24.891Z</time>
</trkpt>
<trkpt lat="-27.0869659" lon="152.7535154">
<ele>485.059</ele>
<time>2015-12-27T06:14:26.878Z</time>
</trkpt>
<trkpt lat="-27.0871738" lon="152.7528811">
<ele>487.020</ele>
<time>2015-12-27T06:14:29.768Z</time>
</trkpt>
<trkpt lat="-27.0873407" lon="152.7521740">
<ele>490.626</ele>
<time>2015-12-27T06:14:32.736Z</time>
</trkpt>
<trkpt lat="-27.0874589" lon="152.7516871">
<ele>495.963</ele>
<time>2015-12-27T06:14:34.696Z</time>
</trkpt>
<trkpt lat="-27.0875789" lon="152.7511942">
<ele>502.069</ele>
<time>2015-12-27T06:14:36.677Z</time>
</trkpt>
<trkpt lat="-27.0876995" lon="152.7507153">
<ele>507.771</ele>
<time>2015-12-27T06:14:38.601Z</time>
</trkpt>
<trkpt lat="-27.0878322" lon="152.7501977">
<ele>512.774</ele>
<time>2015-12-27T06:14:40.663Z</time>
</trkpt>
<trkpt lat="-27.0879623" lon="152.7496989">
<ele>517.089</ele>
<time>2015-12-27T06:14:42.699Z</time>
</trkpt>
<trkpt lat="-27.0881379" lon="152.7489886">
<ele>520.810</ele>
<time>2015-12-27T06:14:45.730Z</time>
</trkpt>
<trkpt lat="-27.0883508" lon="152.7483677">
<ele>523.924</ele>
<time>2015-12-27T06:14:48.645Z</time>
</trkpt>
<trkpt lat="-27.0886671" lon="152.7478010">
<ele>525.902</ele>
<time>2015-12-27T06:14:51.613Z</time>
</trkpt>
<trkpt lat="-27.0891032" lon="152.7473296">
<ele>526.594</ele>
<time>2015-12-27T06:14:54.576Z</time>
</trkpt>
<trkpt lat="-27.0896298" lon="152.7469665">
<ele>526.581</ele>
<time>2015-12-27T06:14:57.634Z</time>
</trkpt>
<trkpt lat="-27.0899661" lon="152.7468097">
<ele>526.431</ele>
<time>2015-12-27T06:14:59.491Z</time>
</trkpt>
<trkpt lat="-27.0905833" lon="152.7467305">
<ele>526.059</ele>
<time>2015-12-27T06:15:02.628Z</time>
</trkpt>
<trkpt lat="-27.0909799" lon="152.7467476">
<ele>524.970</ele>
<time>2015-12-27T06:15:04.561Z</time>
</trkpt>
<trkpt lat="-27.0916137" lon="152.7469231">
<ele>523.078</ele>
<time>2015-12-27T06:15:07.666Z</time>
</trkpt>
<trkpt lat="-27.0921725" lon="152.7472581">
<ele>520.728</ele>
<time>2015-12-27T06:15:10.602Z</time>
</trkpt>
<trkpt lat="-27.0925107" lon="152.7475288">
<ele>518.111</ele>
<time>2015-12-27T06:15:12.508Z</time>
</trkpt>
<trkpt lat="-27.0930176" lon="152.7479621">
<ele>515.483</ele>
<time>2015-12-27T06:15:15.468Z</time>
</trkpt>
<trkpt lat="-27.0935302" lon="152.7483878">
<ele>513.198</ele>
<time>2015-12-27T06:15:18.499Z</time>
</trkpt>
<trkpt lat="-27.0939073" lon="152.7485933">
<ele>511.124</ele>
<time>2015-12-27T06:15:20.512Z</time>
</trkpt>
<trkpt lat="-27.0942956" lon="152.7487326">
<ele>508.910</ele>
<time>2015-12-27T06:15:22.431Z</time>
</trkpt>
<trkpt lat="-27.0949356" lon="152.7487704">
<ele>506.724</ele>
<time>2015-12-27T06:15:25.382Z</time>
</trkpt>
<trkpt lat="-27.0955860" lon="152.7486589">
<ele>504.580</ele>
<time>2015-12-27T06:15:28.329Z</time>
</trkpt>
<trkpt lat="-27.0960283" lon="152.7485644">
<ele>502.032</ele>
<time>2015-12-27T06:15:30.305Z</time>
</trkpt>
<trkpt lat="-27.0964804" lon="152.7484673">
<ele>498.942</ele>
<time>2015-12-27T06:15:32.307Z</time>
</trkpt>
<trkpt lat="-27.0969261" lon="152.7483533">
<ele>495.858</ele>
<time>2015-12-27T06:15:34.290Z</time>
</trkpt>
<trkpt lat="-27.0973788" lon="152.7482605">
<ele>493.421</ele>
<time>2015-12-27T06:15:36.310Z</time>
</trkpt>
<trkpt lat="-27.0978336" lon="152.7482147">
<ele>491.801</ele>
<time>2015-12-27T06:15:38.343Z</time>
</trkpt>
<trkpt lat="-27.0984990" lon="152.7482321">
<ele>490.836</ele>
<time>2015-12-27T06:15:41.341Z</time>
</trkpt>
<trkpt lat="-27.0991370" lon="152.7484421">
<ele>490.537</ele>
<time>2015-12-27T06:15:44.322Z</time>
</trkpt>
<trkpt lat="-27.0995688" lon="152.7486486">
<ele>490.962</ele>
<time>2015-12-27T06:15:46.406Z</time>
</trkpt>
<trkpt lat="-27.1001560" lon="152.7490112">
<ele>491.807</ele>
<time>2015-12-27T06:15:49.373Z</time>
</trkpt>
<trkpt lat="-27.1004977" lon="152.7492917">
<ele>492.428</ele>
<time>2015-12-27T06:15:51.250Z</time>
</trkpt>
<trkpt lat="-27.1008182" lon="152.7496530">
<ele>492.425</ele>
<time>2015-12-27T06:15:53.274Z</time>
</trkpt>
<trkpt lat="-27.1010877" lon="152.7500315">
<ele>491.865</ele>
<time>2015-12-27T06:15:55.241Z</time>
</trkpt>
<trkpt lat="-27.1015017" lon="152.7505717">
<ele>490.825</ele>
<time>2015-12-27T06:15:58.211Z</time>
</trkpt>
<trkpt lat="-27.1018723" lon="152.7508096">
<ele>489.398</ele>
<time>2015-12-27T06:16:00.275Z</time>
</trkpt>
<trkpt lat="-27.1022293" lon="152.7510020">
<ele>488.058</ele>
<time>2015-12-27T06:16:02.180Z</time>
</trkpt>
<trkpt lat="-27.1028530" lon="152.7511906">
<ele>487.919</ele>
<time>2015-12-27T06:16:05.231Z</time>
</trkpt>
<trkpt lat="-27.1034834" lon="152.7513607">
<ele>489.945</ele>
<time>2015-12-27T06:16:08.268Z</time>
</trkpt>
<trkpt lat="-27.1038750" lon="152.7514419">
<ele>493.271</ele>
<time>2015-12-27T06:16:10.159Z</time>
</trkpt>
<trkpt lat="-27.1043119" lon="152.7514351">
<ele>495.996</ele>
<time>2015-12-27T06:16:12.215Z</time>
</trkpt>
<trkpt lat="-27.1047578" lon="152.7513892">
<ele>497.523</ele>
<time>2015-12-27T06:16:14.259Z</time>
</trkpt>
<trkpt lat="-27.1052134" lon="152.7512922">
<ele>498.520</ele>
<time>2015-12-27T06:16:16.308Z</time>
</trkpt>
<trkpt lat="-27.1058983" lon="152.7511520">
<ele>499.751</ele>
<time>2015-12-27T06:16:19.326Z</time>
</trkpt>
<trkpt lat="-27.1066012" lon="152.7510022">
<ele>501.452</ele>
<time>2015-12-27T06:16:22.386Z</time>
</trkpt>
<trkpt lat="-27.1072881" lon="152.7508577">
<ele>503.414</ele>
<time>2015-12-27T06:16:25.376Z</time>
</trkpt>
<trkpt lat="-27.1077385" lon="152.7507685">
<ele>505.378</ele>
<time>2015-12-27T06:16:27.372Z</time>
</trkpt>
<trkpt lat="-27.1084018" lon="152.7506251">
<ele>506.908</ele>
<time>2015-12-27T06:16:30.408Z</time>
</trkpt>
<trkpt lat="-27.1087942" lon="152.7505364">
<ele>507.572</ele>
<time>2015-12-27T06:16:32.345Z</time>
</trkpt>
<trkpt lat="-27.1093766" lon="152.7504444">
<ele>507.399</ele>
<time>2015-12-27T06:16:35.280Z</time>
</trkpt>
<trkpt lat="-27.1097738" lon="152.7504523">
<ele>506.765</ele>
<time>2015-12-27T06:16:37.246Z</time>
</trkpt>
<trkpt lat="-27.1103959" lon="152.7504954">
<ele>506.089</ele>
<time>2015-12-27T06:16:40.249Z</time>
</trkpt>
<trkpt lat="-27.1110001" lon="152.7506120">
<ele>505.572</ele>
<time>2015-12-27T06:16:43.099Z</time>
</trkpt>
<trkpt lat="-27.1114534" lon="152.7507593">
<ele>505.289</ele>
<time>2015-12-27T06:16:45.182Z</time>
</trkpt>
<trkpt lat="-27.1121222" lon="152.7510473">
<ele>505.415</ele>
<time>2015-12-27T06:16:48.288Z</time>
</trkpt>
<trkpt lat="-27.1127251" lon="152.7513157">
<ele>506.092</ele>
<time>2015-12-27T06:16:51.200Z</time>
</trkpt>
<trkpt lat="-27.1132737" lon="152.7515877">
<ele>507.039</ele>
<time>2015-12-27T06:16:54.059Z</time>
</trkpt>
<trkpt lat="-27.1136547" lon="152.7517696">
<ele>507.735</ele>
<time>2015-12-27T06:16:56.096Z</time>
</trkpt>
<trkpt lat="-27.1139748" lon="152.7519284">
<ele>507.978</ele>
<time>2015-12-27T06:16:57.833Z</time>
</trkpt>
<trkpt lat="-27.1143749" lon="152.7521032">
<ele>507.955</ele>
<time>2015-12-27T06:16:59.988Z</time>
</trkpt>
<trkpt lat="-27.1147274" lon="152.7523009">
<ele>507.887</ele>
<time>2015-12-27T06:17:02.032Z</time>
</trkpt>
<trkpt lat="-27.1151834" lon="152.7526220">
<ele>507.872</ele>
<time>2015-12-27T06:17:04.928Z</time>
</trkpt>
<trkpt lat="-27.1154528" lon="152.7529011">
<ele>507.697</ele>
<time>2015-12-27T06:17:06.928Z</time>
</trkpt>
<trkpt lat="-27.1158352" lon="152.7533791">
<ele>507.209</ele>
<time>2015-12-27T06:17:09.997Z</time>
</trkpt>
<trkpt lat="-27.1162081" lon="152.7538546">
<ele>506.709</ele>
<time>2015-12-27T06:17:12.997Z</time>
</trkpt>
<trkpt lat="-27.1166721" lon="152.7542280">
<ele>506.491</ele>
<time>2015-12-27T06:17:16.076Z</time>
</trkpt>
<trkpt lat="-27.1169585" lon="152.7544074">
<ele>506.198</ele>
<time>2015-12-27T06:17:17.865Z</time>
</trkpt>
<trkpt lat="-27.1173346" lon="152.7545311">
<ele>505.296</ele>
<time>2015-12-27T06:17:19.964Z</time>
</trkpt>
<trkpt lat="-27.1178938" lon="152.7547010">
<ele>504.002</ele>
<time>2015-12-27T06:17:22.988Z</time>
</trkpt>
<trkpt lat="-27.1182826" lon="152.7548439">
<ele>502.705</ele>
<time>2015-12-27T06:17:25.083Z</time>
</trkpt>
<trkpt lat="-27.1186644" lon="152.7550022">
<ele>501.173</ele>
<time>2015-12-27T06:17:27.144Z</time>
</trkpt>
<trkpt lat="-27.1190193" lon="152.7552100">
<ele>499.423</ele>
<time>2015-12-27T06:17:29.152Z</time>
</trkpt>
<trkpt lat="-27.1195680" lon="152.7555288">
<ele>497.980</ele>
<time>2015-12-27T06:17:32.226Z</time>
</trkpt>
<trkpt lat="-27.1199079" lon="152.7557797">
<ele>496.866</ele>
<time>2015-12-27T06:17:34.227Z</time>
</trkpt>
<trkpt lat="-27.1204481" lon="152.7561422">
<ele>495.663</ele>
<time>2015-12-27T06:17:37.344Z</time>
</trkpt>
<trkpt lat="-27.1207703" lon="152.7563491">
<ele>493.784</ele>
<time>2015-12-27T06:17:39.248Z</time>
</trkpt>
<trkpt lat="-27.1211045" lon="152.7565538">
<ele>490.936</ele>
<time>2015-12-27T06:17:41.226Z</time>
</trkpt>
<trkpt lat="-27.1214370" lon="152.7567750">
<ele>487.988</ele>
<time>2015-12-27T06:17:43.230Z</time>
</trkpt>
<trkpt lat="-27.1219144" lon="152.7571507">
<ele>486.239</ele>
<time>2015-12-27T06:17:46.281Z</time>
</trkpt>
<trkpt lat="-27.1221665" lon="152.7574069">
<ele>485.851</ele>
<time>2015-12-27T06:17:48.112Z</time>
</trkpt>
<trkpt lat="-27.1224059" lon="152.7577233">
<ele>486.341</ele>
<time>2015-12-27T06:17:50.113Z</time>
</trkpt>
<trkpt lat="-27.1226577" lon="152.7582742">
<ele>487.289</ele>
<time>2015-12-27T06:17:53.050Z</time>
</trkpt>
<trkpt lat="-27.1228603" lon="152.7588751">
<ele>488.324</ele>
<time>2015-12-27T06:17:55.992Z</time>
</trkpt>
<trkpt lat="-27.1230356" lon="152.7593007">
<ele>489.626</ele>
<time>2015-12-27T06:17:58.038Z</time>
</trkpt>
<trkpt lat="-27.1232128" lon="152.7597261">
<ele>491.341</ele>
<time>2015-12-27T06:18:00.067Z</time>
</trkpt>
<trkpt lat="-27.1233823" lon="152.7601403">
<ele>492.666</ele>
<time>2015-12-27T06:18:02.098Z</time>
</trkpt>
<trkpt lat="-27.1235814" lon="152.7607214">
<ele>492.818</ele>
<time>2015-12-27T06:18:04.997Z</time>
</trkpt>
<trkpt lat="-27.1236564" lon="152.7610952">
<ele>491.850</ele>
<time>2015-12-27T06:18:06.856Z</time>
</trkpt>
<trkpt lat="-27.1237575" lon="152.7617117">
<ele>490.421</ele>
<time>2015-12-27T06:18:09.879Z</time>
</trkpt>
<trkpt lat="-27.1238346" lon="152.7621395">
<ele>489.376</ele>
<time>2015-12-27T06:18:11.941Z</time>
</trkpt>
<trkpt lat="-27.1238895" lon="152.7625705">
<ele>488.882</ele>
<time>2015-12-27T06:18:13.982Z</time>
</trkpt>
<trkpt lat="-27.1239739" lon="152.7632481">
<ele>488.402</ele>
<time>2015-12-27T06:18:17.077Z</time>
</trkpt>
<trkpt lat="-27.1241029" lon="152.7639162">
<ele>487.407</ele>
<time>2015-12-27T06:18:20.133Z</time>
</trkpt>
<trkpt lat="-27.1242047" lon="152.7643026">
<ele>485.960</ele>
<time>2015-12-27T06:18:22.018Z</time>
</trkpt>
<trkpt lat="-27.1244220" lon="152.7648577">
<ele>484.696</ele>
<time>2015-12-27T06:18:24.990Z</time>
</trkpt>
<trkpt lat="-27.1245740" lon="152.7651964">
<ele>484.054</ele>
<time>2015-12-27T06:18:26.992Z</time>
</trkpt>
<trkpt lat="-27.1247562" lon="152.7654744">
<ele>483.809</ele>
<time>2015-12-27T06:18:28.895Z</time>
</trkpt>
<trkpt lat="-27.1251742" lon="152.7658195">
<ele>483.493</ele>
<time>2015-12-27T06:18:32.101Z</time>
</trkpt>
<trkpt lat="-27.1254737" lon="152.7659637">
<ele>482.967</ele>
<time>2015-12-27T06:18:34.062Z</time>
</trkpt>
<trkpt lat="-27.1259328" lon="152.7661374">
<ele>482.255</ele>
<time>2015-12-27T06:18:36.951Z</time>
</trkpt>
<trkpt lat="-27.1262425" lon="152.7663198">
<ele>481.191</ele>
<time>2015-12-27T06:18:38.986Z</time>
</trkpt>
<trkpt lat="-27.1266528" lon="152.7666161">
<ele>479.874</ele>
<time>2015-12-27T06:18:41.798Z</time>
</trkpt>
<trkpt lat="-27.1269282" lon="152.7668412">
<ele>478.314</ele>
<time>2015-12-27T06:18:43.773Z</time>
</trkpt>
<trkpt lat="-27.1272980" lon="152.7672269">
<ele>476.175</ele>
<time>2015-12-27T06:18:46.701Z</time>
</trkpt>
<trkpt lat="-27.1274818" lon="152.7676156">
<ele>473.315</ele>
<time>2015-12-27T06:18:48.945Z</time>
</trkpt>
<trkpt lat="-27.1274911" lon="152.7679457">
<ele>470.011</ele>
<time>2015-12-27T06:18:50.657Z</time>
</trkpt>
<trkpt lat="-27.1274584" lon="152.7683160">
<ele>466.915</ele>
<time>2015-12-27T06:18:52.614Z</time>
</trkpt>
<trkpt lat="-27.1273539" lon="152.7688923">
<ele>464.496</ele>
<time>2015-12-27T06:18:55.677Z</time>
</trkpt>
<trkpt lat="-27.1271639" lon="152.7691258">
<ele>462.120</ele>
<time>2015-12-27T06:18:57.371Z</time>
</trkpt>
<trkpt lat="-27.1266566" lon="152.7693020">
<ele>459.324</ele>
<time>2015-12-27T06:19:00.693Z</time>
</trkpt>
<trkpt lat="-27.1262723" lon="152.7693167">
<ele>456.861</ele>
<time>2015-12-27T06:19:03.008Z</time>
</trkpt>
<trkpt lat="-27.1259227" lon="152.7693673">
<ele>455.474</ele>
<time>2015-12-27T06:19:05.057Z</time>
</trkpt>
<trkpt lat="-27.1255929" lon="152.7694403">
<ele>454.932</ele>
<time>2015-12-27T06:19:07.007Z</time>
</trkpt>
<trkpt lat="-27.1252581" lon="152.7695158">
<ele>454.765</ele>
<time>2015-12-27T06:19:09.055Z</time>
</trkpt>
<trkpt lat="-27.1251254" lon="152.7698761">
<ele>454.723</ele>
<time>2015-12-27T06:19:11.257Z</time>
</trkpt>
<trkpt lat="-27.1249424" lon="152.7703534">
<ele>454.907</ele>
<time>2015-12-27T06:19:14.246Z</time>
</trkpt>
<trkpt lat="-27.1248826" lon="152.7707179">
<ele>455.939</ele>
<time>2015-12-27T06:19:16.468Z</time>
</trkpt>
<trkpt lat="-27.1247416" lon="152.7711593">
<ele>457.852</ele>
<time>2015-12-27T06:19:19.394Z</time>
</trkpt>
<trkpt lat="-27.1244485" lon="152.7715189">
<ele>459.538</ele>
<time>2015-12-27T06:19:22.374Z</time>
</trkpt>
<trkpt lat="-27.1241827" lon="152.7717091">
<ele>460.352</ele>
<time>2015-12-27T06:19:24.312Z</time>
</trkpt>
<trkpt lat="-27.1238788" lon="152.7719211">
<ele>460.926</ele>
<time>2015-12-27T06:19:26.336Z</time>
</trkpt>
<trkpt lat="-27.1235428" lon="152.7721151">
<ele>461.902</ele>
<time>2015-12-27T06:19:28.350Z</time>
</trkpt>
<trkpt lat="-27.1231025" lon="152.7725298">
<ele>463.068</ele>
<time>2015-12-27T06:19:31.316Z</time>
</trkpt>
<trkpt lat="-27.1228525" lon="152.7728778">
<ele>463.732</ele>
<time>2015-12-27T06:19:33.287Z</time>
</trkpt>
<trkpt lat="-27.1224782" lon="152.7734233">
<ele>463.704</ele>
<time>2015-12-27T06:19:36.253Z</time>
</trkpt>
<trkpt lat="-27.1221971" lon="152.7737884">
<ele>463.467</ele>
<time>2015-12-27T06:19:38.298Z</time>
</trkpt>
<trkpt lat="-27.1219052" lon="152.7741283">
<ele>463.449</ele>
<time>2015-12-27T06:19:40.302Z</time>
</trkpt>
<trkpt lat="-27.1214318" lon="152.7745691">
<ele>463.817</ele>
<time>2015-12-27T06:19:43.281Z</time>
</trkpt>
<trkpt lat="-27.1211345" lon="152.7748534">
<ele>464.527</ele>
<time>2015-12-27T06:19:45.232Z</time>
</trkpt>
<trkpt lat="-27.1206843" lon="152.7752767">
<ele>465.190</ele>
<time>2015-12-27T06:19:48.233Z</time>
</trkpt>
<trkpt lat="-27.1202673" lon="152.7756939">
<ele>465.386</ele>
<time>2015-12-27T06:19:51.192Z</time>
</trkpt>
<trkpt lat="-27.1200597" lon="152.7760092">
<ele>465.112</ele>
<time>2015-12-27T06:19:53.091Z</time>
</trkpt>
<trkpt lat="-27.1198079" lon="152.7765873">
<ele>464.672</ele>
<time>2015-12-27T06:19:56.148Z</time>
</trkpt>
<trkpt lat="-27.1196659" lon="152.7769836">
<ele>464.238</ele>
<time>2015-12-27T06:19:58.106Z</time>
</trkpt>
<trkpt lat="-27.1194056" lon="152.7775664">
<ele>463.695</ele>
<time>2015-12-27T06:20:01.109Z</time>
</trkpt>
<trkpt lat="-27.1192318" lon="152.7778900">
<ele>462.688</ele>
<time>2015-12-27T06:20:02.907Z</time>
</trkpt>
<trkpt lat="-27.1188773" lon="152.7783574">
<ele>461.033</ele>
<time>2015-12-27T06:20:05.862Z</time>
</trkpt>
<trkpt lat="-27.1186177" lon="152.7786713">
<ele>459.325</ele>
<time>2015-12-27T06:20:07.878Z</time>
</trkpt>
<trkpt lat="-27.1181768" lon="152.7791622">
<ele>458.682</ele>
<time>2015-12-27T06:20:11.079Z</time>
</trkpt>
<trkpt lat="-27.1178902" lon="152.7794353">
<ele>459.328</ele>
<time>2015-12-27T06:20:12.984Z</time>
</trkpt>
<trkpt lat="-27.1174413" lon="152.7798549">
<ele>460.357</ele>
<time>2015-12-27T06:20:15.938Z</time>
</trkpt>
<trkpt lat="-27.1169773" lon="152.7802879">
<ele>460.837</ele>
<time>2015-12-27T06:20:19.013Z</time>
</trkpt>
<trkpt lat="-27.1165692" lon="152.7807133">
<ele>460.215</ele>
<time>2015-12-27T06:20:21.951Z</time>
</trkpt>
<trkpt lat="-27.1162795" lon="152.7812036">
<ele>458.082</ele>
<time>2015-12-27T06:20:24.833Z</time>
</trkpt>
<trkpt lat="-27.1161548" lon="152.7815887">
<ele>454.845</ele>
<time>2015-12-27T06:20:26.844Z</time>
</trkpt>
<trkpt lat="-27.1160818" lon="152.7822007">
<ele>451.668</ele>
<time>2015-12-27T06:20:29.790Z</time>
</trkpt>
<trkpt lat="-27.1160969" lon="152.7826365">
<ele>449.524</ele>
<time>2015-12-27T06:20:31.790Z</time>
</trkpt>
<trkpt lat="-27.1161250" lon="152.7833110">
<ele>448.728</ele>
<time>2015-12-27T06:20:34.803Z</time>
</trkpt>
<trkpt lat="-27.1161580" lon="152.7837638">
<ele>449.355</ele>
<time>2015-12-27T06:20:36.807Z</time>
</trkpt>
<trkpt lat="-27.1161614" lon="152.7844080">
<ele>451.009</ele>
<time>2015-12-27T06:20:39.690Z</time>
</trkpt>
<trkpt lat="-27.1161812" lon="152.7848351">
<ele>452.795</ele>
<time>2015-12-27T06:20:41.658Z</time>
</trkpt>
<trkpt lat="-27.1161910" lon="152.7852464">
<ele>454.394</ele>
<time>2015-12-27T06:20:43.593Z</time>
</trkpt>
<trkpt lat="-27.1161878" lon="152.7858656">
<ele>456.084</ele>
<time>2015-12-27T06:20:46.597Z</time>
</trkpt>
<trkpt lat="-27.1162037" lon="152.7862371">
<ele>457.744</ele>
<time>2015-12-27T06:20:48.532Z</time>
</trkpt>
<trkpt lat="-27.1162648" lon="152.7867398">
<ele>458.978</ele>
<time>2015-12-27T06:20:51.370Z</time>
</trkpt>
<trkpt lat="-27.1163649" lon="152.7870601">
<ele>459.529</ele>
<time>2015-12-27T06:20:53.336Z</time>
</trkpt>
<trkpt lat="-27.1165883" lon="152.7875366">
<ele>459.485</ele>
<time>2015-12-27T06:20:56.425Z</time>
</trkpt>
<trkpt lat="-27.1168333" lon="152.7879660">
<ele>459.170</ele>
<time>2015-12-27T06:20:59.373Z</time>
</trkpt>
<trkpt lat="-27.1171665" lon="152.7882834">
<ele>458.769</ele>
<time>2015-12-27T06:21:02.253Z</time>
</trkpt>
<trkpt lat="-27.1174246" lon="152.7884353">
<ele>457.841</ele>
<time>2015-12-27T06:21:04.194Z</time>
</trkpt>
<trkpt lat="-27.1178425" lon="152.7886300">
<ele>455.965</ele>
<time>2015-12-27T06:21:07.163Z</time>
</trkpt>
<trkpt lat="-27.1181266" lon="152.7887516">
<ele>453.533</ele>
<time>2015-12-27T06:21:09.144Z</time>
</trkpt>
<trkpt lat="-27.1185146" lon="152.7889565">
<ele>451.048</ele>
<time>2015-12-27T06:21:12.027Z</time>
</trkpt>
<trkpt lat="-27.1186954" lon="152.7891304">
<ele>448.556</ele>
<time>2015-12-27T06:21:13.770Z</time>
</trkpt>
<trkpt lat="-27.1188995" lon="152.7894962">
<ele>445.974</ele>
<time>2015-12-27T06:21:16.731Z</time>
</trkpt>
<trkpt lat="-27.1190357" lon="152.7897349">
<ele>443.206</ele>
<time>2015-12-27T06:21:18.658Z</time>
</trkpt>
<trkpt lat="-27.1193115" lon="152.7900689">
<ele>440.708</ele>
<time>2015-12-27T06:21:21.648Z</time>
</trkpt>
<trkpt lat="-27.1194797" lon="152.7903198">
<ele>439.334</ele>
<time>2015-12-27T06:21:23.652Z</time>
</trkpt>
<trkpt lat="-27.1196597" lon="152.7907904">
<ele>439.445</ele>
<time>2015-12-27T06:21:26.790Z</time>
</trkpt>
<trkpt lat="-27.1197459" lon="152.7911382">
<ele>440.900</ele>
<time>2015-12-27T06:21:28.874Z</time>
</trkpt>
<trkpt lat="-27.1199588" lon="152.7915904">
<ele>443.061</ele>
<time>2015-12-27T06:21:31.758Z</time>
</trkpt>
<trkpt lat="-27.1202388" lon="152.7920012">
<ele>444.820</ele>
<time>2015-12-27T06:21:34.703Z</time>
</trkpt>
<trkpt lat="-27.1204888" lon="152.7922356">
<ele>445.436</ele>
<time>2015-12-27T06:21:36.792Z</time>
</trkpt>
<trkpt lat="-27.1207592" lon="152.7924539">
<ele>444.935</ele>
<time>2015-12-27T06:21:38.903Z</time>
</trkpt>
<trkpt lat="-27.1211621" lon="152.7926936">
<ele>443.749</ele>
<time>2015-12-27T06:21:41.802Z</time>
</trkpt>
<trkpt lat="-27.1215722" lon="152.7928391">
<ele>442.296</ele>
<time>2015-12-27T06:21:44.635Z</time>
</trkpt>
<trkpt lat="-27.1218553" lon="152.7929866">
<ele>440.847</ele>
<time>2015-12-27T06:21:46.710Z</time>
</trkpt>
<trkpt lat="-27.1222300" lon="152.7932561">
<ele>439.704</ele>
<time>2015-12-27T06:21:49.649Z</time>
</trkpt>
<trkpt lat="-27.1224651" lon="152.7934661">
<ele>438.635</ele>
<time>2015-12-27T06:21:51.624Z</time>
</trkpt>
<trkpt lat="-27.1227919" lon="152.7938497">
<ele>437.164</ele>
<time>2015-12-27T06:21:54.679Z</time>
</trkpt>
<trkpt lat="-27.1230783" lon="152.7942666">
<ele>435.314</ele>
<time>2015-12-27T06:21:57.679Z</time>
</trkpt>
<trkpt lat="-27.1232559" lon="152.7945379">
<ele>433.408</ele>
<time>2015-12-27T06:21:59.617Z</time>
</trkpt>
<trkpt lat="-27.1234322" lon="152.7948104">
<ele>431.870</ele>
<time>2015-12-27T06:22:01.586Z</time>
</trkpt>
<trkpt lat="-27.1235991" lon="152.7950833">
<ele>431.060</ele>
<time>2015-12-27T06:22:03.557Z</time>
</trkpt>
<trkpt lat="-27.1237700" lon="152.7953358">
<ele>430.854</ele>
<time>2015-12-27T06:22:05.484Z</time>
</trkpt>
<trkpt lat="-27.1239015" lon="152.7957176">
<ele>430.535</ele>
<time>2015-12-27T06:22:08.139Z</time>
</trkpt>
<trkpt lat="-27.1237784" lon="152.7960594">
<ele>429.143</ele>
<time>2015-12-27T06:22:10.778Z</time>
</trkpt>
<trkpt lat="-27.1237086" lon="152.7962979">
<ele>426.907</ele>
<time>2015-12-27T06:22:12.681Z</time>
</trkpt>
<trkpt lat="-27.1236947" lon="152.7965440">
<ele>425.219</ele>
<time>2015-12-27T06:22:14.603Z</time>
</trkpt>
<trkpt lat="-27.1239387" lon="152.7969524">
<ele>424.726</ele>
<time>2015-12-27T06:22:18.363Z</time>
</trkpt>
<trkpt lat="-27.1241643" lon="152.7971133">
<ele>424.720</ele>
<time>2015-12-27T06:22:20.474Z</time>
</trkpt>
<trkpt lat="-27.1245716" lon="152.7973155">
<ele>424.497</ele>
<time>2015-12-27T06:22:23.673Z</time>
</trkpt>
<trkpt lat="-27.1248494" lon="152.7976906">
<ele>424.128</ele>
<time>2015-12-27T06:22:26.638Z</time>
</trkpt>
<trkpt lat="-27.1250689" lon="152.7981805">
<ele>423.907</ele>
<time>2015-12-27T06:22:29.806Z</time>
</trkpt>
<trkpt lat="-27.1252280" lon="152.7984691">
<ele>423.843</ele>
<time>2015-12-27T06:22:31.704Z</time>
</trkpt>
<trkpt lat="-27.1254542" lon="152.7987736">
<ele>423.582</ele>
<time>2015-12-27T06:22:34.215Z</time>
</trkpt>
<trkpt lat="-27.1256424" lon="152.7988670">
<ele>422.441</ele>
<time>2015-12-27T06:22:35.869Z</time>
</trkpt>
<trkpt lat="-27.1259379" lon="152.7989408">
<ele>420.327</ele>
<time>2015-12-27T06:22:38.683Z</time>
</trkpt>
<trkpt lat="-27.1261294" lon="152.7992211">
<ele>417.832</ele>
<time>2015-12-27T06:22:41.732Z</time>
</trkpt>
<trkpt lat="-27.1261695" lon="152.7995304">
<ele>415.646</ele>
<time>2015-12-27T06:22:44.310Z</time>
</trkpt>
<trkpt lat="-27.1262358" lon="152.7998854">
<ele>414.444</ele>
<time>2015-12-27T06:22:46.781Z</time>
</trkpt>
<trkpt lat="-27.1262560" lon="152.8002364">
<ele>414.369</ele>
<time>2015-12-27T06:22:48.860Z</time>
</trkpt>
<trkpt lat="-27.1261755" lon="152.8007206">
<ele>414.598</ele>
<time>2015-12-27T06:22:51.727Z</time>
</trkpt>
<trkpt lat="-27.1261321" lon="152.8012027">
<ele>413.996</ele>
<time>2015-12-27T06:22:54.653Z</time>
</trkpt>
<trkpt lat="-27.1262179" lon="152.8015201">
<ele>412.009</ele>
<time>2015-12-27T06:22:56.679Z</time>
</trkpt>
<trkpt lat="-27.1264493" lon="152.8019043">
<ele>409.323</ele>
<time>2015-12-27T06:22:59.505Z</time>
</trkpt>
<trkpt lat="-27.1268423" lon="152.8022562">
<ele>407.010</ele>
<time>2015-12-27T06:23:02.757Z</time>
</trkpt>
<trkpt lat="-27.1271378" lon="152.8024484">
<ele>405.291</ele>
<time>2015-12-27T06:23:04.821Z</time>
</trkpt>
<trkpt lat="-27.1273823" lon="152.8025959">
<ele>403.636</ele>
<time>2015-12-27T06:23:06.550Z</time>
</trkpt>
<trkpt lat="-27.1277894" lon="152.8027946">
<ele>401.473</ele>
<time>2015-12-27T06:23:09.481Z</time>
</trkpt>
<trkpt lat="-27.1280521" lon="152.8029343">
<ele>398.649</ele>
<time>2015-12-27T06:23:11.468Z</time>
</trkpt>
<trkpt lat="-27.1284154" lon="152.8031711">
<ele>395.816</ele>
<time>2015-12-27T06:23:14.482Z</time>
</trkpt>
<trkpt lat="-27.1287187" lon="152.8034581">
<ele>393.875</ele>
<time>2015-12-27T06:23:17.420Z</time>
</trkpt>
<trkpt lat="-27.1289694" lon="152.8039002">
<ele>393.021</ele>
<time>2015-12-27T06:23:20.727Z</time>
</trkpt>
<trkpt lat="-27.1292025" lon="152.8043288">
<ele>392.684</ele>
<time>2015-12-27T06:23:23.739Z</time>
</trkpt>
<trkpt lat="-27.1293699" lon="152.8045630">
<ele>392.038</ele>
<time>2015-12-27T06:23:25.593Z</time>
</trkpt>
<trkpt lat="-27.1296733" lon="152.8048600">
<ele>390.545</ele>
<time>2015-12-27T06:23:28.492Z</time>
</trkpt>
<trkpt lat="-27.1299022" lon="152.8050002">
<ele>388.378</ele>
<time>2015-12-27T06:23:30.382Z</time>
</trkpt>
<trkpt lat="-27.1301358" lon="152.8051768">
<ele>386.066</ele>
<time>2015-12-27T06:23:32.415Z</time>
</trkpt>
<trkpt lat="-27.1303270" lon="152.8053804">
<ele>384.013</ele>
<time>2015-12-27T06:23:34.346Z</time>
</trkpt>
<trkpt lat="-27.1305102" lon="152.8057730">
<ele>382.412</ele>
<time>2015-12-27T06:23:37.300Z</time>
</trkpt>
<trkpt lat="-27.1306180" lon="152.8061068">
<ele>381.281</ele>
<time>2015-12-27T06:23:39.566Z</time>
</trkpt>
<trkpt lat="-27.1307842" lon="152.8065689">
<ele>380.476</ele>
<time>2015-12-27T06:23:42.552Z</time>
</trkpt>
<trkpt lat="-27.1309617" lon="152.8068295">
<ele>379.865</ele>
<time>2015-12-27T06:23:44.535Z</time>
</trkpt>
<trkpt lat="-27.1311510" lon="152.8070208">
<ele>379.607</ele>
<time>2015-12-27T06:23:46.357Z</time>
</trkpt>
<trkpt lat="-27.1314488" lon="152.8071236">
<ele>379.783</ele>
<time>2015-12-27T06:23:48.878Z</time>
</trkpt>
<trkpt lat="-27.1316495" lon="152.8070619">
<ele>380.099</ele>
<time>2015-12-27T06:23:50.705Z</time>
</trkpt>
<trkpt lat="-27.1320021" lon="152.8069007">
<ele>380.278</ele>
<time>2015-12-27T06:23:54.070Z</time>
</trkpt>
<trkpt lat="-27.1322897" lon="152.8068351">
<ele>380.310</ele>
<time>2015-12-27T06:23:56.338Z</time>
</trkpt>
<trkpt lat="-27.1327247" lon="152.8067681">
<ele>380.303</ele>
<time>2015-12-27T06:23:59.410Z</time>
</trkpt>
<trkpt lat="-27.1331283" lon="152.8067724">
<ele>380.314</ele>
<time>2015-12-27T06:24:02.266Z</time>
</trkpt>
<trkpt lat="-27.1333969" lon="152.8068560">
<ele>380.195</ele>
<time>2015-12-27T06:24:04.303Z</time>
</trkpt>
<trkpt lat="-27.1338086" lon="152.8071162">
<ele>379.860</ele>
<time>2015-12-27T06:24:07.615Z</time>
</trkpt>
<trkpt lat="-27.1341791" lon="152.8074208">
<ele>379.861</ele>
<time>2015-12-27T06:24:10.632Z</time>
</trkpt>
<trkpt lat="-27.1345886" lon="152.8076107">
<ele>381.036</ele>
<time>2015-12-27T06:24:13.560Z</time>
</trkpt>
<trkpt lat="-27.1350295" lon="152.8077458">
<ele>383.208</ele>
<time>2015-12-27T06:24:16.645Z</time>
</trkpt>
<trkpt lat="-27.1353131" lon="152.8078111">
<ele>385.654</ele>
<time>2015-12-27T06:24:18.601Z</time>
</trkpt>
<trkpt lat="-27.1357486" lon="152.8079197">
<ele>388.034</ele>
<time>2015-12-27T06:24:21.618Z</time>
</trkpt>
<trkpt lat="-27.1360477" lon="152.8079921">
<ele>390.218</ele>
<time>2015-12-27T06:24:23.694Z</time>
</trkpt>
<trkpt lat="-27.1363167" lon="152.8080725">
<ele>392.197</ele>
<time>2015-12-27T06:24:25.613Z</time>
</trkpt>
<trkpt lat="-27.1367311" lon="152.8080963">
<ele>394.085</ele>
<time>2015-12-27T06:24:28.510Z</time>
</trkpt>
<trkpt lat="-27.1370357" lon="152.8080908">
<ele>395.937</ele>
<time>2015-12-27T06:24:30.615Z</time>
</trkpt>
<trkpt lat="-27.1373222" lon="152.8080424">
<ele>397.878</ele>
<time>2015-12-27T06:24:32.590Z</time>
</trkpt>
<trkpt lat="-27.1377359" lon="152.8079373">
<ele>399.634</ele>
<time>2015-12-27T06:24:35.504Z</time>
</trkpt>
<trkpt lat="-27.1381409" lon="152.8079046">
<ele>400.351</ele>
<time>2015-12-27T06:24:38.364Z</time>
</trkpt>
<trkpt lat="-27.1385360" lon="152.8080103">
<ele>399.396</ele>
<time>2015-12-27T06:24:41.243Z</time>
</trkpt>
<trkpt lat="-27.1387799" lon="152.8081253">
<ele>396.781</ele>
<time>2015-12-27T06:24:43.118Z</time>
</trkpt>
<trkpt lat="-27.1390371" lon="152.8082688">
<ele>393.257</ele>
<time>2015-12-27T06:24:45.179Z</time>
</trkpt>
<trkpt lat="-27.1392852" lon="152.8083944">
<ele>390.245</ele>
<time>2015-12-27T06:24:47.132Z</time>
</trkpt>
<trkpt lat="-27.1395470" lon="152.8085237">
<ele>388.516</ele>
<time>2015-12-27T06:24:49.129Z</time>
</trkpt>
<trkpt lat="-27.1399592" lon="152.8087133">
<ele>387.507</ele>
<time>2015-12-27T06:24:52.161Z</time>
</trkpt>
<trkpt lat="-27.1403422" lon="152.8088574">
<ele>386.256</ele>
<time>2015-12-27T06:24:54.974Z</time>
</trkpt>
<trkpt lat="-27.1405959" lon="152.8089092">
<ele>384.415</ele>
<time>2015-12-27T06:24:56.840Z</time>
</trkpt>
<trkpt lat="-27.1408483" lon="152.8089131">
<ele>382.604</ele>
<time>2015-12-27T06:24:58.760Z</time>
</trkpt>
<trkpt lat="-27.1410662" lon="152.8087974">
<ele>381.630</ele>
<time>2015-12-27T06:25:00.648Z</time>
</trkpt>
<trkpt lat="-27.1414078" lon="152.8087209">
<ele>381.494</ele>
<time>2015-12-27T06:25:03.467Z</time>
</trkpt>
<trkpt lat="-27.1416437" lon="152.8087751">
<ele>381.284</ele>
<time>2015-12-27T06:25:05.474Z</time>
</trkpt>
<trkpt lat="-27.1417968" lon="152.8089655">
<ele>380.240</ele>
<time>2015-12-27T06:25:07.448Z</time>
</trkpt>
<trkpt lat="-27.1419590" lon="152.8093054">
<ele>378.558</ele>
<time>2015-12-27T06:25:10.545Z</time>
</trkpt>
<trkpt lat="-27.1421010" lon="152.8094853">
<ele>376.888</ele>
<time>2015-12-27T06:25:12.524Z</time>
</trkpt>
<trkpt lat="-27.1424100" lon="152.8095839">
<ele>375.751</ele>
<time>2015-12-27T06:25:15.548Z</time>
</trkpt>
<trkpt lat="-27.1426258" lon="152.8096000">
<ele>375.253</ele>
<time>2015-12-27T06:25:17.557Z</time>
</trkpt>
<trkpt lat="-27.1428665" lon="152.8097470">
<ele>374.751</ele>
<time>2015-12-27T06:25:20.018Z</time>
</trkpt>
<trkpt lat="-27.1429676" lon="152.8099664">
<ele>373.457</ele>
<time>2015-12-27T06:25:21.976Z</time>
</trkpt>
<trkpt lat="-27.1430762" lon="152.8103295">
<ele>371.468</ele>
<time>2015-12-27T06:25:25.005Z</time>
</trkpt>
<trkpt lat="-27.1432541" lon="152.8106330">
<ele>369.352</ele>
<time>2015-12-27T06:25:27.905Z</time>
</trkpt>
<trkpt lat="-27.1434511" lon="152.8105970">
<ele>367.037</ele>
<time>2015-12-27T06:25:29.778Z</time>
</trkpt>
<trkpt lat="-27.1438175" lon="152.8105761">
<ele>364.379</ele>
<time>2015-12-27T06:25:33.330Z</time>
</trkpt>
<trkpt lat="-27.1440464" lon="152.8108052">
<ele>361.915</ele>
<time>2015-12-27T06:25:36.139Z</time>
</trkpt>
<trkpt lat="-27.1442630" lon="152.8111313">
<ele>360.187</ele>
<time>2015-12-27T06:25:39.376Z</time>
</trkpt>
<trkpt lat="-27.1445603" lon="152.8113682">
<ele>359.212</ele>
<time>2015-12-27T06:25:42.419Z</time>
</trkpt>
<trkpt lat="-27.1449709" lon="152.8114862">
<ele>358.338</ele>
<time>2015-12-27T06:25:45.645Z</time>
</trkpt>
<trkpt lat="-27.1452583" lon="152.8115482">
<ele>356.558</ele>
<time>2015-12-27T06:25:47.708Z</time>
</trkpt>
<trkpt lat="-27.1455247" lon="152.8117045">
<ele>353.799</ele>
<time>2015-12-27T06:25:49.761Z</time>
</trkpt>
<trkpt lat="-27.1458852" lon="152.8120511">
<ele>351.257</ele>
<time>2015-12-27T06:25:52.866Z</time>
</trkpt>
<trkpt lat="-27.1461010" lon="152.8122966">
<ele>349.338</ele>
<time>2015-12-27T06:25:54.807Z</time>
</trkpt>
<trkpt lat="-27.1463482" lon="152.8125062">
<ele>347.354</ele>
<time>2015-12-27T06:25:56.751Z</time>
</trkpt>
<trkpt lat="-27.1466075" lon="152.8126843">
<ele>345.001</ele>
<time>2015-12-27T06:25:58.652Z</time>
</trkpt>
<trkpt lat="-27.1470025" lon="152.8129666">
<ele>342.348</ele>
<time>2015-12-27T06:26:01.600Z</time>
</trkpt>
<trkpt lat="-27.1472473" lon="152.8131671">
<ele>339.522</ele>
<time>2015-12-27T06:26:03.537Z</time>
</trkpt>
<trkpt lat="-27.1474346" lon="152.8134298">
<ele>336.735</ele>
<time>2015-12-27T06:26:05.498Z</time>
</trkpt>
<trkpt lat="-27.1475817" lon="152.8138921">
<ele>334.038</ele>
<time>2015-12-27T06:26:08.454Z</time>
</trkpt>
<trkpt lat="-27.1475811" lon="152.8142215">
<ele>331.586</ele>
<time>2015-12-27T06:26:10.477Z</time>
</trkpt>
<trkpt lat="-27.1475317" lon="152.8145424">
<ele>329.736</ele>
<time>2015-12-27T06:26:12.514Z</time>
</trkpt>
<trkpt lat="-27.1475248" lon="152.8149716">
<ele>328.749</ele>
<time>2015-12-27T06:26:15.317Z</time>
</trkpt>
<trkpt lat="-27.1476102" lon="152.8152153">
<ele>328.630</ele>
<time>2015-12-27T06:26:17.104Z</time>
</trkpt>
<trkpt lat="-27.1477600" lon="152.8154334">
<ele>329.061</ele>
<time>2015-12-27T06:26:19.070Z</time>
</trkpt>
<trkpt lat="-27.1479786" lon="152.8156106">
<ele>329.480</ele>
<time>2015-12-27T06:26:21.240Z</time>
</trkpt>
<trkpt lat="-27.1482362" lon="152.8157012">
<ele>329.346</ele>
<time>2015-12-27T06:26:23.306Z</time>
</trkpt>
<trkpt lat="-27.1486061" lon="152.8157572">
<ele>328.644</ele>
<time>2015-12-27T06:26:26.037Z</time>
</trkpt>
<trkpt lat="-27.1489151" lon="152.8160547">
<ele>327.451</ele>
<time>2015-12-27T06:26:29.055Z</time>
</trkpt>
<trkpt lat="-27.1490588" lon="152.8164701">
<ele>325.228</ele>
<time>2015-12-27T06:26:32.128Z</time>
</trkpt>
<trkpt lat="-27.1491359" lon="152.8167400">
<ele>321.893</ele>
<time>2015-12-27T06:26:34.113Z</time>
</trkpt>
<trkpt lat="-27.1492361" lon="152.8171772">
<ele>318.750</ele>
<time>2015-12-27T06:26:37.236Z</time>
</trkpt>
<trkpt lat="-27.1494334" lon="152.8175442">
<ele>316.898</ele>
<time>2015-12-27T06:26:40.204Z</time>
</trkpt>
<trkpt lat="-27.1497913" lon="152.8178088">
<ele>316.133</ele>
<time>2015-12-27T06:26:43.463Z</time>
</trkpt>
<trkpt lat="-27.1500743" lon="152.8179260">
<ele>315.584</ele>
<time>2015-12-27T06:26:45.603Z</time>
</trkpt>
<trkpt lat="-27.1504758" lon="152.8180925">
<ele>314.706</ele>
<time>2015-12-27T06:26:48.509Z</time>
</trkpt>
<trkpt lat="-27.1507242" lon="152.8182009">
<ele>313.078</ele>
<time>2015-12-27T06:26:50.372Z</time>
</trkpt>
<trkpt lat="-27.1509152" lon="152.8184889">
<ele>310.713</ele>
<time>2015-12-27T06:26:52.899Z</time>
</trkpt>
<trkpt lat="-27.1508801" lon="152.8187754">
<ele>308.365</ele>
<time>2015-12-27T06:26:55.103Z</time>
</trkpt>
<trkpt lat="-27.1507609" lon="152.8191502">
<ele>306.521</ele>
<time>2015-12-27T06:26:58.142Z</time>
</trkpt>
<trkpt lat="-27.1508044" lon="152.8195493">
<ele>305.031</ele>
<time>2015-12-27T06:27:01.166Z</time>
</trkpt>
<trkpt lat="-27.1509242" lon="152.8197546">
<ele>303.779</ele>
<time>2015-12-27T06:27:03.036Z</time>
</trkpt>
<trkpt lat="-27.1512297" lon="152.8200449">
<ele>302.537</ele>
<time>2015-12-27T06:27:06.292Z</time>
</trkpt>
<trkpt lat="-27.1515150" lon="152.8203868">
<ele>300.889</ele>
<time>2015-12-27T06:27:09.374Z</time>
</trkpt>
<trkpt lat="-27.1516647" lon="152.8208207">
<ele>298.529</ele>
<time>2015-12-27T06:27:12.329Z</time>
</trkpt>
<trkpt lat="-27.1516476" lon="152.8213266">
<ele>295.757</ele>
<time>2015-12-27T06:27:15.447Z</time>
</trkpt>
<trkpt lat="-27.1516730" lon="152.8216700">
<ele>293.297</ele>
<time>2015-12-27T06:27:17.509Z</time>
</trkpt>
<trkpt lat="-27.1517246" lon="152.8220007">
<ele>291.683</ele>
<time>2015-12-27T06:27:19.507Z</time>
</trkpt>
<trkpt lat="-27.1517755" lon="152.8225099">
<ele>291.026</ele>
<time>2015-12-27T06:27:22.568Z</time>
</trkpt>
<trkpt lat="-27.1518336" lon="152.8229762">
<ele>290.398</ele>
<time>2015-12-27T06:27:25.426Z</time>
</trkpt>
<trkpt lat="-27.1518891" lon="152.8234028">
<ele>288.949</ele>
<time>2015-12-27T06:27:28.249Z</time>
</trkpt>
<trkpt lat="-27.1519721" lon="152.8236261">
<ele>287.310</ele>
<time>2015-12-27T06:27:29.975Z</time>
</trkpt>
<trkpt lat="-27.1522682" lon="152.8238819">
<ele>286.385</ele>
<time>2015-12-27T06:27:33.160Z</time>
</trkpt>
<trkpt lat="-27.1525003" lon="152.8240830">
<ele>285.729</ele>
<time>2015-12-27T06:27:35.509Z</time>
</trkpt>
<trkpt lat="-27.1528646" lon="152.8243292">
<ele>283.810</ele>
<time>2015-12-27T06:27:38.553Z</time>
</trkpt>
<trkpt lat="-27.1531595" lon="152.8246302">
<ele>279.552</ele>
<time>2015-12-27T06:27:41.348Z</time>
</trkpt>
<trkpt lat="-27.1533041" lon="152.8248976">
<ele>274.286</ele>
<time>2015-12-27T06:27:43.332Z</time>
</trkpt>
<trkpt lat="-27.1534605" lon="152.8251329">
<ele>270.449</ele>
<time>2015-12-27T06:27:45.228Z</time>
</trkpt>
<trkpt lat="-27.1536613" lon="152.8254665">
<ele>268.737</ele>
<time>2015-12-27T06:27:47.949Z</time>
</trkpt>
<trkpt lat="-27.1537864" lon="152.8257874">
<ele>267.179</ele>
<time>2015-12-27T06:27:50.536Z</time>
</trkpt>
<trkpt lat="-27.1539911" lon="152.8259480">
<ele>264.161</ele>
<time>2015-12-27T06:27:52.857Z</time>
</trkpt>
<trkpt lat="-27.1541573" lon="152.8259278">
<ele>260.876</ele>
<time>2015-12-27T06:27:54.595Z</time>
</trkpt>
<trkpt lat="-27.1544523" lon="152.8257418">
<ele>259.043</ele>
<time>2015-12-27T06:27:58.410Z</time>
</trkpt>
<trkpt lat="-27.1547214" lon="152.8255030">
<ele>258.556</ele>
<time>2015-12-27T06:28:01.840Z</time>
</trkpt>
<trkpt lat="-27.1549380" lon="152.8253916">
<ele>258.482</ele>
<time>2015-12-27T06:28:04.002Z</time>
</trkpt>
<trkpt lat="-27.1553305" lon="152.8253962">
<ele>257.826</ele>
<time>2015-12-27T06:28:07.241Z</time>
</trkpt>
<trkpt lat="-27.1555560" lon="152.8254248">
<ele>255.666</ele>
<time>2015-12-27T06:28:09.064Z</time>
</trkpt>
<trkpt lat="-27.1557499" lon="152.8253538">
<ele>251.952</ele>
<time>2015-12-27T06:28:10.763Z</time>
</trkpt>
<trkpt lat="-27.1559326" lon="152.8252165">
<ele>248.103</ele>
<time>2015-12-27T06:28:12.739Z</time>
</trkpt>
<trkpt lat="-27.1560376" lon="152.8250252">
<ele>244.692</ele>
<time>2015-12-27T06:28:14.613Z</time>
</trkpt>
<trkpt lat="-27.1561250" lon="152.8248045">
<ele>240.793</ele>
<time>2015-12-27T06:28:16.604Z</time>
</trkpt>
<trkpt lat="-27.1563330" lon="152.8245043">
<ele>236.230</ele>
<time>2015-12-27T06:28:19.668Z</time>
</trkpt>
<trkpt lat="-27.1566141" lon="152.8244270">
<ele>231.714</ele>
<time>2015-12-27T06:28:22.373Z</time>
</trkpt>
<trkpt lat="-27.1569183" lon="152.8245879">
<ele>228.146</ele>
<time>2015-12-27T06:28:25.702Z</time>
</trkpt>
<trkpt lat="-27.1572276" lon="152.8245918">
<ele>226.312</ele>
<time>2015-12-27T06:28:28.709Z</time>
</trkpt>
<trkpt lat="-27.1575382" lon="152.8247418">
<ele>225.824</ele>
<time>2015-12-27T06:28:31.825Z</time>
</trkpt>
<trkpt lat="-27.1578267" lon="152.8249117">
<ele>225.408</ele>
<time>2015-12-27T06:28:34.797Z</time>
</trkpt>
<trkpt lat="-27.1580938" lon="152.8248974">
<ele>224.021</ele>
<time>2015-12-27T06:28:37.359Z</time>
</trkpt>
<trkpt lat="-27.1583735" lon="152.8247710">
<ele>221.653</ele>
<time>2015-12-27T06:28:40.419Z</time>
</trkpt>
<trkpt lat="-27.1585614" lon="152.8247679">
<ele>218.927</ele>
<time>2015-12-27T06:28:42.361Z</time>
</trkpt>
<trkpt lat="-27.1587147" lon="152.8248717">
<ele>216.245</ele>
<time>2015-12-27T06:28:44.226Z</time>
</trkpt>
<trkpt lat="-27.1588975" lon="152.8251209">
<ele>213.810</ele>
<time>2015-12-27T06:28:47.311Z</time>
</trkpt>
<trkpt lat="-27.1590782" lon="152.8252483">
<ele>211.251</ele>
<time>2015-12-27T06:28:49.532Z</time>
</trkpt>
<trkpt lat="-27.1593121" lon="152.8252906">
<ele>208.343</ele>
<time>2015-12-27T06:28:51.866Z</time>
</trkpt>
<trkpt lat="-27.1596041" lon="152.8250147">
<ele>206.039</ele>
<time>2015-12-27T06:28:55.318Z</time>
</trkpt>
<trkpt lat="-27.1598262" lon="152.8248551">
<ele>204.558</ele>
<time>2015-12-27T06:28:57.477Z</time>
</trkpt>
<trkpt lat="-27.1600393" lon="152.8246621">
<ele>202.970</ele>
<time>2015-12-27T06:28:59.530Z</time>
</trkpt>
<trkpt lat="-27.1602429" lon="152.8244594">
<ele>201.250</ele>
<time>2015-12-27T06:29:01.505Z</time>
</trkpt>
<trkpt lat="-27.1605844" lon="152.8242453">
<ele>199.990</ele>
<time>2015-12-27T06:29:04.360Z</time>
</trkpt>
<trkpt lat="-27.1608349" lon="152.8242158">
<ele>199.191</ele>
<time>2015-12-27T06:29:06.270Z</time>
</trkpt>
<trkpt lat="-27.1610464" lon="152.8241317">
<ele>197.936</ele>
<time>2015-12-27T06:29:08.080Z</time>
</trkpt>
<trkpt lat="-27.1611857" lon="152.8238847">
<ele>195.717</ele>
<time>2015-12-27T06:29:10.250Z</time>
</trkpt>
<trkpt lat="-27.1613630" lon="152.8236560">
<ele>193.558</ele>
<time>2015-12-27T06:29:12.404Z</time>
</trkpt>
<trkpt lat="-27.1616618" lon="152.8233411">
<ele>192.347</ele>
<time>2015-12-27T06:29:15.394Z</time>
</trkpt>
<trkpt lat="-27.1619239" lon="152.8231657">
<ele>190.785</ele>
<time>2015-12-27T06:29:17.506Z</time>
</trkpt>
<trkpt lat="-27.1621895" lon="152.8230506">
<ele>187.420</ele>
<time>2015-12-27T06:29:19.446Z</time>
</trkpt>
<trkpt lat="-27.1624450" lon="152.8230399">
<ele>183.304</ele>
<time>2015-12-27T06:29:21.253Z</time>
</trkpt>
<trkpt lat="-27.1628437" lon="152.8231305">
<ele>179.578</ele>
<time>2015-12-27T06:29:24.258Z</time>
</trkpt>
<trkpt lat="-27.1631033" lon="152.8232829">
<ele>175.671</ele>
<time>2015-12-27T06:29:26.430Z</time>
</trkpt>
<trkpt lat="-27.1634879" lon="152.8235954">
<ele>171.990</ele>
<time>2015-12-27T06:29:29.653Z</time>
</trkpt>
<trkpt lat="-27.1637402" lon="152.8238430">
<ele>169.597</ele>
<time>2015-12-27T06:29:31.744Z</time>
</trkpt>
<trkpt lat="-27.1640544" lon="152.8241764">
<ele>167.844</ele>
<time>2015-12-27T06:29:34.471Z</time>
</trkpt>
<trkpt lat="-27.1642868" lon="152.8245190">
<ele>165.733</ele>
<time>2015-12-27T06:29:37.133Z</time>
</trkpt>
<trkpt lat="-27.1643342" lon="152.8247241">
<ele>163.497</ele>
<time>2015-12-27T06:29:38.543Z</time>
</trkpt>
<trkpt lat="-27.1641946" lon="152.8251694">
<ele>161.856</ele>
<time>2015-12-27T06:29:42.000Z</time>
</trkpt>
<trkpt lat="-27.1640437" lon="152.8256217">
<ele>160.906</ele>
<time>2015-12-27T06:29:45.371Z</time>
</trkpt>
<trkpt lat="-27.1638870" lon="152.8259894">
<ele>160.328</ele>
<time>2015-12-27T06:29:48.163Z</time>
</trkpt>
<trkpt lat="-27.1638186" lon="152.8262778">
<ele>159.831</ele>
<time>2015-12-27T06:29:50.269Z</time>
</trkpt>
<trkpt lat="-27.1637960" lon="152.8266011">
<ele>159.097</ele>
<time>2015-12-27T06:29:52.739Z</time>
</trkpt>
<trkpt lat="-27.1638699" lon="152.8268138">
<ele>157.750</ele>
<time>2015-12-27T06:29:54.604Z</time>
</trkpt>
<trkpt lat="-27.1641375" lon="152.8268917">
<ele>156.091</ele>
<time>2015-12-27T06:29:57.555Z</time>
</trkpt>
<trkpt lat="-27.1644042" lon="152.8269721">
<ele>154.573</ele>
<time>2015-12-27T06:30:00.337Z</time>
</trkpt>
<trkpt lat="-27.1650383" lon="152.8270448">
<ele>152.818</ele>
<time>2015-12-27T06:30:04.799Z</time>
</trkpt>
<trkpt lat="-27.1655411" lon="152.8269990">
<ele>150.665</ele>
<time>2015-12-27T06:30:07.861Z</time>
</trkpt>
<trkpt lat="-27.1658580" lon="152.8268924">
<ele>148.805</ele>
<time>2015-12-27T06:30:09.800Z</time>
</trkpt>
<trkpt lat="-27.1661697" lon="152.8268066">
<ele>147.628</ele>
<time>2015-12-27T06:30:11.648Z</time>
</trkpt>
<trkpt lat="-27.1666858" lon="152.8266606">
<ele>146.546</ele>
<time>2015-12-27T06:30:14.726Z</time>
</trkpt>
<trkpt lat="-27.1671811" lon="152.8265803">
<ele>144.985</ele>
<time>2015-12-27T06:30:17.698Z</time>
</trkpt>
<trkpt lat="-27.1674826" lon="152.8266449">
<ele>142.708</ele>
<time>2015-12-27T06:30:19.590Z</time>
</trkpt>
<trkpt lat="-27.1679395" lon="152.8268782">
<ele>139.677</ele>
<time>2015-12-27T06:30:22.729Z</time>
</trkpt>
<trkpt lat="-27.1682067" lon="152.8270407">
<ele>136.286</ele>
<time>2015-12-27T06:30:24.720Z</time>
</trkpt>
<trkpt lat="-27.1686126" lon="152.8272330">
<ele>133.499</ele>
<time>2015-12-27T06:30:27.788Z</time>
</trkpt>
<trkpt lat="-27.1690177" lon="152.8271317">
<ele>131.985</ele>
<time>2015-12-27T06:30:30.956Z</time>
</trkpt>
<trkpt lat="-27.1692919" lon="152.8268578">
<ele>131.652</ele>
<time>2015-12-27T06:30:33.864Z</time>
</trkpt>
<trkpt lat="-27.1693814" lon="152.8265986">
<ele>131.431</ele>
<time>2015-12-27T06:30:35.796Z</time>
</trkpt>
<trkpt lat="-27.1693781" lon="152.8262941">
<ele>129.760</ele>
<time>2015-12-27T06:30:37.819Z</time>
</trkpt>
<trkpt lat="-27.1694707" lon="152.8258191">
<ele>126.572</ele>
<time>2015-12-27T06:30:40.993Z</time>
</trkpt>
<trkpt lat="-27.1697334" lon="152.8256671">
<ele>123.139</ele>
<time>2015-12-27T06:30:43.059Z</time>
</trkpt>
<trkpt lat="-27.1699735" lon="152.8254813">
<ele>120.057</ele>
<time>2015-12-27T06:30:45.017Z</time>
</trkpt>
<trkpt lat="-27.1703269" lon="152.8252295">
<ele>117.665</ele>
<time>2015-12-27T06:30:47.883Z</time>
</trkpt>
<trkpt lat="-27.1705832" lon="152.8251036">
<ele>116.198</ele>
<time>2015-12-27T06:30:49.825Z</time>
</trkpt>
<trkpt lat="-27.1708715" lon="152.8250481">
<ele>115.148</ele>
<time>2015-12-27T06:30:51.791Z</time>
</trkpt>
<trkpt lat="-27.1711698" lon="152.8251353">
<ele>114.257</ele>
<time>2015-12-27T06:30:53.801Z</time>
</trkpt>
<trkpt lat="-27.1716387" lon="152.8252127">
<ele>112.718</ele>
<time>2015-12-27T06:30:56.904Z</time>
</trkpt>
<trkpt lat="-27.1719225" lon="152.8252087">
<ele>109.950</ele>
<time>2015-12-27T06:30:58.804Z</time>
</trkpt>
<trkpt lat="-27.1723576" lon="152.8250667">
<ele>107.211</ele>
<time>2015-12-27T06:31:01.834Z</time>
</trkpt>
<trkpt lat="-27.1728054" lon="152.8249763">
<ele>105.588</ele>
<time>2015-12-27T06:31:04.856Z</time>
</trkpt>
<trkpt lat="-27.1732592" lon="152.8250036">
<ele>104.259</ele>
<time>2015-12-27T06:31:07.842Z</time>
</trkpt>
<trkpt lat="-27.1735663" lon="152.8250014">
<ele>102.158</ele>
<time>2015-12-27T06:31:09.838Z</time>
</trkpt>
<trkpt lat="-27.1740209" lon="152.8250567">
<ele>99.316</ele>
<time>2015-12-27T06:31:12.825Z</time>
</trkpt>
<trkpt lat="-27.1744260" lon="152.8252471">
<ele>96.138</ele>
<time>2015-12-27T06:31:15.665Z</time>
</trkpt>
<trkpt lat="-27.1747837" lon="152.8255840">
<ele>92.123</ele>
<time>2015-12-27T06:31:18.607Z</time>
</trkpt>
<trkpt lat="-27.1751204" lon="152.8259744">
<ele>86.927</ele>
<time>2015-12-27T06:31:21.614Z</time>
</trkpt>
<trkpt lat="-27.1755347" lon="152.8262082">
<ele>81.472</ele>
<time>2015-12-27T06:31:24.441Z</time>
</trkpt>
<trkpt lat="-27.1758640" lon="152.8263273">
<ele>77.228</ele>
<time>2015-12-27T06:31:26.422Z</time>
</trkpt>
<trkpt lat="-27.1764097" lon="152.8264307">
<ele>74.664</ele>
<time>2015-12-27T06:31:29.498Z</time>
</trkpt>
<trkpt lat="-27.1769539" lon="152.8265766">
<ele>72.919</ele>
<time>2015-12-27T06:31:32.609Z</time>
</trkpt>
<trkpt lat="-27.1772864" lon="152.8266609">
<ele>71.253</ele>
<time>2015-12-27T06:31:34.597Z</time>
</trkpt>
<trkpt lat="-27.1777363" lon="152.8267562">
<ele>69.785</ele>
<time>2015-12-27T06:31:37.311Z</time>
</trkpt>
<trkpt lat="-27.1780828" lon="152.8268601">
<ele>68.714</ele>
<time>2015-12-27T06:31:39.439Z</time>
</trkpt>
<trkpt lat="-27.1784101" lon="152.8269272">
<ele>68.232</ele>
<time>2015-12-27T06:31:41.406Z</time>
</trkpt>
<trkpt lat="-27.1787325" lon="152.8270046">
<ele>68.416</ele>
<time>2015-12-27T06:31:43.374Z</time>
</trkpt>
<trkpt lat="-27.1792079" lon="152.8271340">
<ele>68.916</ele>
<time>2015-12-27T06:31:46.319Z</time>
</trkpt>
<trkpt lat="-27.1795510" lon="152.8272031">
<ele>69.095</ele>
<time>2015-12-27T06:31:48.428Z</time>
</trkpt>
<trkpt lat="-27.1798638" lon="152.8272967">
<ele>68.302</ele>
<time>2015-12-27T06:31:50.382Z</time>
</trkpt>
<trkpt lat="-27.1803511" lon="152.8274327">
<ele>66.666</ele>
<time>2015-12-27T06:31:53.430Z</time>
</trkpt>
<trkpt lat="-27.1806665" lon="152.8275113">
<ele>64.923</ele>
<time>2015-12-27T06:31:55.424Z</time>
</trkpt>
<trkpt lat="-27.1811400" lon="152.8275686">
<ele>63.418</ele>
<time>2015-12-27T06:31:58.382Z</time>
</trkpt>
<trkpt lat="-27.1814725" lon="152.8275738">
<ele>62.164</ele>
<time>2015-12-27T06:32:00.423Z</time>
</trkpt>
<trkpt lat="-27.1817639" lon="152.8275757">
<ele>61.204</ele>
<time>2015-12-27T06:32:02.225Z</time>
</trkpt>
<trkpt lat="-27.1820816" lon="152.8276436">
<ele>60.445</ele>
<time>2015-12-27T06:32:04.261Z</time>
</trkpt>
<trkpt lat="-27.1825173" lon="152.8277587">
<ele>59.880</ele>
<time>2015-12-27T06:32:07.128Z</time>
</trkpt>
<trkpt lat="-27.1828281" lon="152.8278336">
<ele>59.853</ele>
<time>2015-12-27T06:32:09.200Z</time>
</trkpt>
<trkpt lat="-27.1831333" lon="152.8279192">
<ele>60.488</ele>
<time>2015-12-27T06:32:11.258Z</time>
</trkpt>
<trkpt lat="-27.1835663" lon="152.8280509">
<ele>61.268</ele>
<time>2015-12-27T06:32:14.238Z</time>
</trkpt>
<trkpt lat="-27.1839723" lon="152.8282666">
<ele>61.722</ele>
<time>2015-12-27T06:32:17.332Z</time>
</trkpt>
<trkpt lat="-27.1843201" lon="152.8285493">
<ele>61.636</ele>
<time>2015-12-27T06:32:20.424Z</time>
</trkpt>
<trkpt lat="-27.1846303" lon="152.8288080">
<ele>60.713</ele>
<time>2015-12-27T06:32:23.425Z</time>
</trkpt>
<trkpt lat="-27.1848277" lon="152.8289124">
<ele>59.042</ele>
<time>2015-12-27T06:32:25.280Z</time>
</trkpt>
<trkpt lat="-27.1850675" lon="152.8289573">
<ele>57.113</ele>
<time>2015-12-27T06:32:27.314Z</time>
</trkpt>
<trkpt lat="-27.1854236" lon="152.8288376">
<ele>55.373</ele>
<time>2015-12-27T06:32:30.210Z</time>
</trkpt>
<trkpt lat="-27.1856691" lon="152.8286921">
<ele>54.046</ele>
<time>2015-12-27T06:32:32.068Z</time>
</trkpt>
<trkpt lat="-27.1860960" lon="152.8283754">
<ele>52.963</ele>
<time>2015-12-27T06:32:35.238Z</time>
</trkpt>
<trkpt lat="-27.1865304" lon="152.8281008">
<ele>51.074</ele>
<time>2015-12-27T06:32:38.270Z</time>
</trkpt>
<trkpt lat="-27.1867992" lon="152.8279170">
<ele>48.083</ele>
<time>2015-12-27T06:32:40.275Z</time>
</trkpt>
<trkpt lat="-27.1870489" lon="152.8277305">
<ele>45.665</ele>
<time>2015-12-27T06:32:42.255Z</time>
</trkpt>
<trkpt lat="-27.1873983" lon="152.8274249">
<ele>45.032</ele>
<time>2015-12-27T06:32:45.195Z</time>
</trkpt>
<trkpt lat="-27.1877064" lon="152.8270762">
<ele>45.281</ele>
<time>2015-12-27T06:32:48.078Z</time>
</trkpt>
<trkpt lat="-27.1880541" lon="152.8267216">
<ele>45.382</ele>
<time>2015-12-27T06:32:51.222Z</time>
</trkpt>
<trkpt lat="-27.1882828" lon="152.8265355">
<ele>45.500</ele>
<time>2015-12-27T06:32:53.196Z</time>
</trkpt>
<trkpt lat="-27.1885357" lon="152.8263929">
<ele>46.050</ele>
<time>2015-12-27T06:32:55.216Z</time>
</trkpt>
<trkpt lat="-27.1889459" lon="152.8263037">
<ele>46.700</ele>
<time>2015-12-27T06:32:58.146Z</time>
</trkpt>
<trkpt lat="-27.1892697" lon="152.8263558">
<ele>46.941</ele>
<time>2015-12-27T06:33:00.304Z</time>
</trkpt>
<trkpt lat="-27.1897113" lon="152.8264032">
<ele>46.379</ele>
<time>2015-12-27T06:33:03.208Z</time>
</trkpt>
<trkpt lat="-27.1900085" lon="152.8264098">
<ele>45.073</ele>
<time>2015-12-27T06:33:05.169Z</time>
</trkpt>
<trkpt lat="-27.1903347" lon="152.8264640">
<ele>43.918</ele>
<time>2015-12-27T06:33:07.318Z</time>
</trkpt>
<trkpt lat="-27.1906415" lon="152.8265257">
<ele>43.540</ele>
<time>2015-12-27T06:33:09.329Z</time>
</trkpt>
<trkpt lat="-27.1911407" lon="152.8265781">
<ele>43.269</ele>
<time>2015-12-27T06:33:12.581Z</time>
</trkpt>
<trkpt lat="-27.1915546" lon="152.8266045">
<ele>42.145</ele>
<time>2015-12-27T06:33:15.320Z</time>
</trkpt>
<trkpt lat="-27.1919908" lon="152.8266383">
<ele>40.461</ele>
<time>2015-12-27T06:33:18.252Z</time>
</trkpt>
<trkpt lat="-27.1923901" lon="152.8266758">
<ele>39.244</ele>
<time>2015-12-27T06:33:20.968Z</time>
</trkpt>
<trkpt lat="-27.1928084" lon="152.8266227">
<ele>38.819</ele>
<time>2015-12-27T06:33:23.859Z</time>
</trkpt>
<trkpt lat="-27.1931013" lon="152.8265978">
<ele>38.812</ele>
<time>2015-12-27T06:33:25.842Z</time>
</trkpt>
<trkpt lat="-27.1935714" lon="152.8264762">
<ele>38.830</ele>
<time>2015-12-27T06:33:28.993Z</time>
</trkpt>
<trkpt lat="-27.1938675" lon="152.8263924">
<ele>38.756</ele>
<time>2015-12-27T06:33:31.008Z</time>
</trkpt>
<trkpt lat="-27.1941269" lon="152.8262987">
<ele>38.726</ele>
<time>2015-12-27T06:33:32.930Z</time>
</trkpt>
<trkpt lat="-27.1943531" lon="152.8262279">
<ele>39.078</ele>
<time>2015-12-27T06:33:34.722Z</time>
</trkpt>
<trkpt lat="-27.1947405" lon="152.8261321">
<ele>39.935</ele>
<time>2015-12-27T06:33:38.053Z</time>
</trkpt>
<trkpt lat="-27.1950367" lon="152.8260298">
<ele>41.031</ele>
<time>2015-12-27T06:33:41.067Z</time>
</trkpt>
<trkpt lat="-27.1952156" lon="152.8259925">
<ele>42.077</ele>
<time>2015-12-27T06:33:43.260Z</time>
</trkpt>
<trkpt lat="-27.1953327" lon="152.8259943">
<ele>42.771</ele>
<time>2015-12-27T06:33:45.001Z</time>
</trkpt>
<trkpt lat="-27.1954444" lon="152.8259716">
<ele>42.614</ele>
<time>2015-12-27T06:33:47.476Z</time>
</trkpt>
<trkpt lat="-27.1955340" lon="152.8259620">
<ele>41.664</ele>
<time>2015-12-27T06:33:49.997Z</time>
</trkpt>
<trkpt lat="-27.1955340" lon="152.8259620">
<ele>40.849</ele>
<time>2015-12-27T06:33:52.997Z</time>
</trkpt>
<trkpt lat="-27.1955340" lon="152.8259620">
<ele>40.844</ele>
<time>2015-12-27T06:33:53.093Z</time>
</trkpt>
<trkpt lat="-27.1957021" lon="152.8259400">
<ele>41.141</ele>
<time>2015-12-27T06:34:01.127Z</time>
</trkpt>
<trkpt lat="-27.1957958" lon="152.8258214">
<ele>40.877</ele>
<time>2015-12-27T06:34:04.447Z</time>
</trkpt>
<trkpt lat="-27.1958370" lon="152.8256319">
<ele>39.708</ele>
<time>2015-12-27T06:34:06.853Z</time>
</trkpt>
<trkpt lat="-27.1958640" lon="152.8254075">
<ele>37.877</ele>
<time>2015-12-27T06:34:08.924Z</time>
</trkpt>
<trkpt lat="-27.1959140" lon="152.8250285">
<ele>36.062</ele>
<time>2015-12-27T06:34:11.993Z</time>
</trkpt>
<trkpt lat="-27.1959773" lon="152.8247591">
<ele>34.939</ele>
<time>2015-12-27T06:34:14.099Z</time>
</trkpt>
<trkpt lat="-27.1961409" lon="152.8243775">
<ele>34.603</ele>
<time>2015-12-27T06:34:17.322Z</time>
</trkpt>
<trkpt lat="-27.1962650" lon="152.8241629">
<ele>34.287</ele>
<time>2015-12-27T06:34:19.324Z</time>
</trkpt>
<trkpt lat="-27.1964315" lon="152.8238555">
<ele>33.380</ele>
<time>2015-12-27T06:34:22.144Z</time>
</trkpt>
<trkpt lat="-27.1965451" lon="152.8236347">
<ele>32.357</ele>
<time>2015-12-27T06:34:24.136Z</time>
</trkpt>
<trkpt lat="-27.1966727" lon="152.8234229">
<ele>31.970</ele>
<time>2015-12-27T06:34:26.162Z</time>
</trkpt>
<trkpt lat="-27.1967922" lon="152.8232192">
<ele>32.273</ele>
<time>2015-12-27T06:34:28.212Z</time>
</trkpt>
<trkpt lat="-27.1969475" lon="152.8229347">
<ele>32.952</ele>
<time>2015-12-27T06:34:31.457Z</time>
</trkpt>
<trkpt lat="-27.1970572" lon="152.8227539">
<ele>33.681</ele>
<time>2015-12-27T06:34:34.312Z</time>
</trkpt>
<trkpt lat="-27.1971110" lon="152.8226685">
<ele>34.495</ele>
<time>2015-12-27T06:34:36.023Z</time>
</trkpt>
<trkpt lat="-27.1972663" lon="152.8227468">
<ele>35.602</ele>
<time>2015-12-27T06:34:38.916Z</time>
</trkpt>
<trkpt lat="-27.1974245" lon="152.8228460">
<ele>36.823</ele>
<time>2015-12-27T06:34:41.062Z</time>
</trkpt>
<trkpt lat="-27.1977416" lon="152.8230442">
<ele>37.741</ele>
<time>2015-12-27T06:34:44.410Z</time>
</trkpt>
<trkpt lat="-27.1981283" lon="152.8231357">
<ele>37.843</ele>
<time>2015-12-27T06:34:47.518Z</time>
</trkpt>
<trkpt lat="-27.1983847" lon="152.8231896">
<ele>37.042</ele>
<time>2015-12-27T06:34:49.536Z</time>
</trkpt>
<trkpt lat="-27.1986259" lon="152.8232483">
<ele>36.078</ele>
<time>2015-12-27T06:34:51.496Z</time>
</trkpt>
<trkpt lat="-27.1989857" lon="152.8233289">
<ele>35.566</ele>
<time>2015-12-27T06:34:54.496Z</time>
</trkpt>
<trkpt lat="-27.1992139" lon="152.8233898">
<ele>35.351</ele>
<time>2015-12-27T06:34:56.411Z</time>
</trkpt>
<trkpt lat="-27.1995813" lon="152.8234843">
<ele>35.108</ele>
<time>2015-12-27T06:34:59.458Z</time>
</trkpt>
<trkpt lat="-27.1998226" lon="152.8235247">
<ele>34.711</ele>
<time>2015-12-27T06:35:01.448Z</time>
</trkpt>
<trkpt lat="-27.2001749" lon="152.8236463">
<ele>33.901</ele>
<time>2015-12-27T06:35:04.481Z</time>
</trkpt>
<trkpt lat="-27.2003682" lon="152.8238039">
<ele>32.618</ele>
<time>2015-12-27T06:35:06.343Z</time>
</trkpt>
<trkpt lat="-27.2006819" lon="152.8240980">
<ele>31.883</ele>
<time>2015-12-27T06:35:09.373Z</time>
</trkpt>
<trkpt lat="-27.2008798" lon="152.8242976">
<ele>32.445</ele>
<time>2015-12-27T06:35:11.240Z</time>
</trkpt>
<trkpt lat="-27.2012211" lon="152.8246128">
<ele>33.592</ele>
<time>2015-12-27T06:35:14.257Z</time>
</trkpt>
<trkpt lat="-27.2015746" lon="152.8249348">
<ele>34.387</ele>
<time>2015-12-27T06:35:17.219Z</time>
</trkpt>
<trkpt lat="-27.2019189" lon="152.8252755">
<ele>34.518</ele>
<time>2015-12-27T06:35:20.026Z</time>
</trkpt>
<trkpt lat="-27.2021935" lon="152.8255303">
<ele>34.180</ele>
<time>2015-12-27T06:35:22.017Z</time>
</trkpt>
<trkpt lat="-27.2024831" lon="152.8258180">
<ele>33.817</ele>
<time>2015-12-27T06:35:24.056Z</time>
</trkpt>
<trkpt lat="-27.2029130" lon="152.8262420">
<ele>33.372</ele>
<time>2015-12-27T06:35:27.023Z</time>
</trkpt>
<trkpt lat="-27.2032092" lon="152.8265256">
<ele>32.199</ele>
<time>2015-12-27T06:35:29.058Z</time>
</trkpt>
<trkpt lat="-27.2034948" lon="152.8267994">
<ele>30.352</ele>
<time>2015-12-27T06:35:31.046Z</time>
</trkpt>
<trkpt lat="-27.2039210" lon="152.8272028">
<ele>29.078</ele>
<time>2015-12-27T06:35:34.024Z</time>
</trkpt>
<trkpt lat="-27.2043515" lon="152.8275564">
<ele>29.641</ele>
<time>2015-12-27T06:35:36.870Z</time>
</trkpt>
<trkpt lat="-27.2048056" lon="152.8279562">
<ele>31.726</ele>
<time>2015-12-27T06:35:39.884Z</time>
</trkpt>
<trkpt lat="-27.2052934" lon="152.8283485">
<ele>33.429</ele>
<time>2015-12-27T06:35:42.930Z</time>
</trkpt>
<trkpt lat="-27.2056400" lon="152.8285674">
<ele>33.474</ele>
<time>2015-12-27T06:35:44.927Z</time>
</trkpt>
<trkpt lat="-27.2061845" lon="152.8288795">
<ele>32.639</ele>
<time>2015-12-27T06:35:48.009Z</time>
</trkpt>
<trkpt lat="-27.2066888" lon="152.8292191">
<ele>32.388</ele>
<time>2015-12-27T06:35:51.014Z</time>
</trkpt>
<trkpt lat="-27.2071722" lon="152.8295929">
<ele>33.139</ele>
<time>2015-12-27T06:35:54.035Z</time>
</trkpt>
<trkpt lat="-27.2076547" lon="152.8299341">
<ele>34.188</ele>
<time>2015-12-27T06:35:56.953Z</time>
</trkpt>
<trkpt lat="-27.2081656" lon="152.8302495">
<ele>34.928</ele>
<time>2015-12-27T06:35:59.950Z</time>
</trkpt>
<trkpt lat="-27.2084994" lon="152.8304799">
<ele>35.533</ele>
<time>2015-12-27T06:36:01.986Z</time>
</trkpt>
<trkpt lat="-27.2090177" lon="152.8307494">
<ele>36.486</ele>
<time>2015-12-27T06:36:04.946Z</time>
</trkpt>
<trkpt lat="-27.2095362" lon="152.8309981">
<ele>37.750</ele>
<time>2015-12-27T06:36:07.826Z</time>
</trkpt>
<trkpt lat="-27.2098932" lon="152.8311835">
<ele>39.028</ele>
<time>2015-12-27T06:36:09.798Z</time>
</trkpt>
<trkpt lat="-27.2104588" lon="152.8314596">
<ele>40.198</ele>
<time>2015-12-27T06:36:12.857Z</time>
</trkpt>
<trkpt lat="-27.2110254" lon="152.8317054">
<ele>40.114</ele>
<time>2015-12-27T06:36:15.866Z</time>
</trkpt>
<trkpt lat="-27.2115688" lon="152.8319211">
<ele>37.440</ele>
<time>2015-12-27T06:36:18.767Z</time>
</trkpt>
<trkpt lat="-27.2121236" lon="152.8321356">
<ele>33.402</ele>
<time>2015-12-27T06:36:21.757Z</time>
</trkpt>
<trkpt lat="-27.2125001" lon="152.8322998">
<ele>30.499</ele>
<time>2015-12-27T06:36:23.809Z</time>
</trkpt>
<trkpt lat="-27.2130654" lon="152.8325229">
<ele>29.465</ele>
<time>2015-12-27T06:36:26.844Z</time>
</trkpt>
<trkpt lat="-27.2134369" lon="152.8326702">
<ele>29.592</ele>
<time>2015-12-27T06:36:28.851Z</time>
</trkpt>
<trkpt lat="-27.2137890" lon="152.8328253">
<ele>30.192</ele>
<time>2015-12-27T06:36:30.810Z</time>
</trkpt>
<trkpt lat="-27.2141538" lon="152.8329626">
<ele>30.908</ele>
<time>2015-12-27T06:36:32.830Z</time>
</trkpt>
<trkpt lat="-27.2146910" lon="152.8331254">
<ele>31.569</ele>
<time>2015-12-27T06:36:35.755Z</time>
</trkpt>
<trkpt lat="-27.2150590" lon="152.8332114">
<ele>32.158</ele>
<time>2015-12-27T06:36:37.711Z</time>
</trkpt>
<trkpt lat="-27.2156447" lon="152.8333303">
<ele>32.847</ele>
<time>2015-12-27T06:36:40.781Z</time>
</trkpt>
<trkpt lat="-27.2160422" lon="152.8333540">
<ele>33.691</ele>
<time>2015-12-27T06:36:42.780Z</time>
</trkpt>
<trkpt lat="-27.2166531" lon="152.8333252">
<ele>34.457</ele>
<time>2015-12-27T06:36:45.754Z</time>
</trkpt>
<trkpt lat="-27.2173041" lon="152.8332404">
<ele>35.184</ele>
<time>2015-12-27T06:36:48.838Z</time>
</trkpt>
<trkpt lat="-27.2177119" lon="152.8331343">
<ele>36.248</ele>
<time>2015-12-27T06:36:50.788Z</time>
</trkpt>
<trkpt lat="-27.2181292" lon="152.8330153">
<ele>37.566</ele>
<time>2015-12-27T06:36:52.803Z</time>
</trkpt>
<trkpt lat="-27.2185338" lon="152.8328625">
<ele>38.703</ele>
<time>2015-12-27T06:36:54.821Z</time>
</trkpt>
<trkpt lat="-27.2189139" lon="152.8326820">
<ele>39.567</ele>
<time>2015-12-27T06:36:56.785Z</time>
</trkpt>
<trkpt lat="-27.2194714" lon="152.8324197">
<ele>40.217</ele>
<time>2015-12-27T06:36:59.658Z</time>
</trkpt>
<trkpt lat="-27.2198656" lon="152.8322212">
<ele>40.692</ele>
<time>2015-12-27T06:37:01.679Z</time>
</trkpt>
<trkpt lat="-27.2202816" lon="152.8320502">
<ele>40.837</ele>
<time>2015-12-27T06:37:03.715Z</time>
</trkpt>
<trkpt lat="-27.2208866" lon="152.8317787">
<ele>40.071</ele>
<time>2015-12-27T06:37:06.673Z</time>
</trkpt>
<trkpt lat="-27.2214755" lon="152.8314667">
<ele>38.489</ele>
<time>2015-12-27T06:37:09.619Z</time>
</trkpt>
<trkpt lat="-27.2218644" lon="152.8312691">
<ele>37.199</ele>
<time>2015-12-27T06:37:11.566Z</time>
</trkpt>
<trkpt lat="-27.2224880" lon="152.8309510">
<ele>36.789</ele>
<time>2015-12-27T06:37:13.997Z</time>
</trkpt>
<trkpt lat="-27.2230866" lon="152.8306377">
<ele>36.724</ele>
<time>2015-12-27T06:37:16.997Z</time>
</trkpt>
<trkpt lat="-27.2234513" lon="152.8304117">
<ele>36.452</ele>
<time>2015-12-27T06:37:18.926Z</time>
</trkpt>
<trkpt lat="-27.2238171" lon="152.8302234">
<ele>36.160</ele>
<time>2015-12-27T06:37:20.856Z</time>
</trkpt>
<trkpt lat="-27.2242245" lon="152.8300843">
<ele>36.336</ele>
<time>2015-12-27T06:37:22.920Z</time>
</trkpt>
<trkpt lat="-27.2248384" lon="152.8298930">
<ele>37.144</ele>
<time>2015-12-27T06:37:25.957Z</time>
</trkpt>
<trkpt lat="-27.2252456" lon="152.8297955">
<ele>38.611</ele>
<time>2015-12-27T06:37:27.931Z</time>
</trkpt>
<trkpt lat="-27.2258903" lon="152.8296851">
<ele>40.454</ele>
<time>2015-12-27T06:37:31.012Z</time>
</trkpt>
<trkpt lat="-27.2263282" lon="152.8296572">
<ele>42.277</ele>
<time>2015-12-27T06:37:33.061Z</time>
</trkpt>
<trkpt lat="-27.2267523" lon="152.8296561">
<ele>44.032</ele>
<time>2015-12-27T06:37:35.038Z</time>
</trkpt>
<trkpt lat="-27.2273791" lon="152.8297030">
<ele>45.549</ele>
<time>2015-12-27T06:37:37.965Z</time>
</trkpt>
<trkpt lat="-27.2280486" lon="152.8297600">
<ele>46.142</ele>
<time>2015-12-27T06:37:41.091Z</time>
</trkpt>
<trkpt lat="-27.2284714" lon="152.8297776">
<ele>45.653</ele>
<time>2015-12-27T06:37:43.067Z</time>
</trkpt>
<trkpt lat="-27.2288958" lon="152.8298020">
<ele>44.786</ele>
<time>2015-12-27T06:37:45.066Z</time>
</trkpt>
<trkpt lat="-27.2295252" lon="152.8298328">
<ele>44.479</ele>
<time>2015-12-27T06:37:48.074Z</time>
</trkpt>
<trkpt lat="-27.2299207" lon="152.8298581">
<ele>45.368</ele>
<time>2015-12-27T06:37:50.011Z</time>
</trkpt>
<trkpt lat="-27.2303074" lon="152.8298793">
<ele>47.284</ele>
<time>2015-12-27T06:37:51.980Z</time>
</trkpt>
<trkpt lat="-27.2306815" lon="152.8298938">
<ele>49.516</ele>
<time>2015-12-27T06:37:53.969Z</time>
</trkpt>
<trkpt lat="-27.2310458" lon="152.8299267">
<ele>51.635</ele>
<time>2015-12-27T06:37:55.966Z</time>
</trkpt>
<trkpt lat="-27.2315633" lon="152.8299874">
<ele>53.520</ele>
<time>2015-12-27T06:37:58.870Z</time>
</trkpt>
<trkpt lat="-27.2320966" lon="152.8300833">
<ele>54.971</ele>
<time>2015-12-27T06:38:01.909Z</time>
</trkpt>
<trkpt lat="-27.2324972" lon="152.8301872">
<ele>56.060</ele>
<time>2015-12-27T06:38:04.171Z</time>
</trkpt>
<trkpt lat="-27.2330681" lon="152.8303682">
<ele>57.194</ele>
<time>2015-12-27T06:38:07.333Z</time>
</trkpt>
<trkpt lat="-27.2334763" lon="152.8305220">
<ele>58.606</ele>
<time>2015-12-27T06:38:09.560Z</time>
</trkpt>
<trkpt lat="-27.2340363" lon="152.8307373">
<ele>60.458</ele>
<time>2015-12-27T06:38:12.565Z</time>
</trkpt>
<trkpt lat="-27.2344273" lon="152.8309002">
<ele>62.550</ele>
<time>2015-12-27T06:38:14.648Z</time>
</trkpt>
<trkpt lat="-27.2347772" lon="152.8310782">
<ele>63.992</ele>
<time>2015-12-27T06:38:16.539Z</time>
</trkpt>
<trkpt lat="-27.2353529" lon="152.8313555">
<ele>63.786</ele>
<time>2015-12-27T06:38:19.586Z</time>
</trkpt>
<trkpt lat="-27.2357194" lon="152.8315559">
<ele>61.964</ele>
<time>2015-12-27T06:38:21.554Z</time>
</trkpt>
<trkpt lat="-27.2362798" lon="152.8318311">
<ele>59.843</ele>
<time>2015-12-27T06:38:24.502Z</time>
</trkpt>
<trkpt lat="-27.2368713" lon="152.8320833">
<ele>58.955</ele>
<time>2015-12-27T06:38:27.532Z</time>
</trkpt>
<trkpt lat="-27.2374525" lon="152.8322842">
<ele>59.425</ele>
<time>2015-12-27T06:38:30.448Z</time>
</trkpt>
<trkpt lat="-27.2378541" lon="152.8324070">
<ele>60.426</ele>
<time>2015-12-27T06:38:32.430Z</time>
</trkpt>
<trkpt lat="-27.2383288" lon="152.8324972">
<ele>61.491</ele>
<time>2015-12-27T06:38:34.605Z</time>
</trkpt>
<trkpt lat="-27.2390381" lon="152.8325158">
<ele>62.638</ele>
<time>2015-12-27T06:38:37.660Z</time>
</trkpt>
<trkpt lat="-27.2394805" lon="152.8325047">
<ele>63.893</ele>
<time>2015-12-27T06:38:39.586Z</time>
</trkpt>
<trkpt lat="-27.2401423" lon="152.8325337">
<ele>65.191</ele>
<time>2015-12-27T06:38:42.575Z</time>
</trkpt>
<trkpt lat="-27.2405979" lon="152.8325922">
<ele>65.815</ele>
<time>2015-12-27T06:38:44.671Z</time>
</trkpt>
<trkpt lat="-27.2410469" lon="152.8327204">
<ele>65.102</ele>
<time>2015-12-27T06:38:46.746Z</time>
</trkpt>
<trkpt lat="-27.2414920" lon="152.8328796">
<ele>63.612</ele>
<time>2015-12-27T06:38:48.769Z</time>
</trkpt>
<trkpt lat="-27.2419549" lon="152.8330718">
<ele>62.356</ele>
<time>2015-12-27T06:38:50.857Z</time>
</trkpt>
<trkpt lat="-27.2426383" lon="152.8333464">
<ele>61.587</ele>
<time>2015-12-27T06:38:53.843Z</time>
</trkpt>
<trkpt lat="-27.2431144" lon="152.8335317">
<ele>60.961</ele>
<time>2015-12-27T06:38:55.905Z</time>
</trkpt>
<trkpt lat="-27.2438204" lon="152.8336626">
<ele>60.296</ele>
<time>2015-12-27T06:38:58.878Z</time>
</trkpt>
<trkpt lat="-27.2445101" lon="152.8337589">
<ele>59.628</ele>
<time>2015-12-27T06:39:01.868Z</time>
</trkpt>
<trkpt lat="-27.2449342" lon="152.8338844">
<ele>59.031</ele>
<time>2015-12-27T06:39:03.845Z</time>
</trkpt>
<trkpt lat="-27.2455363" lon="152.8341300">
<ele>58.383</ele>
<time>2015-12-27T06:39:06.792Z</time>
</trkpt>
<trkpt lat="-27.2459519" lon="152.8343841">
<ele>57.515</ele>
<time>2015-12-27T06:39:08.951Z</time>
</trkpt>
<trkpt lat="-27.2463281" lon="152.8346167">
<ele>56.252</ele>
<time>2015-12-27T06:39:10.891Z</time>
</trkpt>
<trkpt lat="-27.2468418" lon="152.8351173">
<ele>54.037</ele>
<time>2015-12-27T06:39:13.887Z</time>
</trkpt>
<trkpt lat="-27.2471785" lon="152.8354796">
<ele>51.035</ele>
<time>2015-12-27T06:39:15.887Z</time>
</trkpt>
<trkpt lat="-27.2474967" lon="152.8358596">
<ele>48.422</ele>
<time>2015-12-27T06:39:17.836Z</time>
</trkpt>
<trkpt lat="-27.2480394" lon="152.8364203">
<ele>46.506</ele>
<time>2015-12-27T06:39:20.878Z</time>
</trkpt>
<trkpt lat="-27.2485660" lon="152.8369871">
<ele>44.571</ele>
<time>2015-12-27T06:39:23.881Z</time>
</trkpt>
<trkpt lat="-27.2490580" lon="152.8375986">
<ele>42.449</ele>
<time>2015-12-27T06:39:26.921Z</time>
</trkpt>
<trkpt lat="-27.2494315" lon="152.8382696">
<ele>40.883</ele>
<time>2015-12-27T06:39:29.845Z</time>
</trkpt>
<trkpt lat="-27.2497286" lon="152.8389329">
<ele>40.356</ele>
<time>2015-12-27T06:39:32.626Z</time>
</trkpt>
<trkpt lat="-27.2499645" lon="152.8397742">
<ele>40.562</ele>
<time>2015-12-27T06:39:35.881Z</time>
</trkpt>
<trkpt lat="-27.2500717" lon="152.8403483">
<ele>41.258</ele>
<time>2015-12-27T06:39:37.950Z</time>
</trkpt>
<trkpt lat="-27.2501688" lon="152.8409278">
<ele>42.293</ele>
<time>2015-12-27T06:39:39.999Z</time>
</trkpt>
<trkpt lat="-27.2502847" lon="152.8414881">
<ele>43.234</ele>
<time>2015-12-27T06:39:42.013Z</time>
</trkpt>
<trkpt lat="-27.2504603" lon="152.8423005">
<ele>43.743</ele>
<time>2015-12-27T06:39:44.962Z</time>
</trkpt>
<trkpt lat="-27.2506115" lon="152.8428250">
<ele>43.525</ele>
<time>2015-12-27T06:39:46.914Z</time>
</trkpt>
<trkpt lat="-27.2508986" lon="152.8436043">
<ele>42.500</ele>
<time>2015-12-27T06:39:49.897Z</time>
</trkpt>
<trkpt lat="-27.2511405" lon="152.8441013">
<ele>41.027</ele>
<time>2015-12-27T06:39:51.914Z</time>
</trkpt>
<trkpt lat="-27.2514454" lon="152.8444969">
<ele>39.548</ele>
<time>2015-12-27T06:39:53.807Z</time>
</trkpt>
<trkpt lat="-27.2518742" lon="152.8451500">
<ele>38.521</ele>
<time>2015-12-27T06:39:56.778Z</time>
</trkpt>
<trkpt lat="-27.2521739" lon="152.8455785">
<ele>38.314</ele>
<time>2015-12-27T06:39:58.771Z</time>
</trkpt>
<trkpt lat="-27.2526405" lon="152.8462192">
<ele>38.744</ele>
<time>2015-12-27T06:40:01.785Z</time>
</trkpt>
<trkpt lat="-27.2530952" lon="152.8468544">
<ele>39.340</ele>
<time>2015-12-27T06:40:04.762Z</time>
</trkpt>
<trkpt lat="-27.2535564" lon="152.8474961">
<ele>39.781</ele>
<time>2015-12-27T06:40:07.779Z</time>
</trkpt>
<trkpt lat="-27.2538649" lon="152.8479247">
<ele>40.082</ele>
<time>2015-12-27T06:40:09.799Z</time>
</trkpt>
<trkpt lat="-27.2541627" lon="152.8483464">
<ele>40.379</ele>
<time>2015-12-27T06:40:11.795Z</time>
</trkpt>
<trkpt lat="-27.2546180" lon="152.8489461">
<ele>40.817</ele>
<time>2015-12-27T06:40:14.762Z</time>
</trkpt>
<trkpt lat="-27.2549629" lon="152.8492990">
<ele>41.539</ele>
<time>2015-12-27T06:40:16.763Z</time>
</trkpt>
<trkpt lat="-27.2553053" lon="152.8496523">
<ele>42.599</ele>
<time>2015-12-27T06:40:18.756Z</time>
</trkpt>
<trkpt lat="-27.2558658" lon="152.8501246">
<ele>43.913</ele>
<time>2015-12-27T06:40:21.761Z</time>
</trkpt>
<trkpt lat="-27.2564462" lon="152.8505386">
<ele>45.117</ele>
<time>2015-12-27T06:40:24.742Z</time>
</trkpt>
<trkpt lat="-27.2568642" lon="152.8507752">
<ele>45.656</ele>
<time>2015-12-27T06:40:26.785Z</time>
</trkpt>
<trkpt lat="-27.2572848" lon="152.8509824">
<ele>45.349</ele>
<time>2015-12-27T06:40:28.781Z</time>
</trkpt>
<trkpt lat="-27.2577394" lon="152.8512259">
<ele>44.663</ele>
<time>2015-12-27T06:40:30.951Z</time>
</trkpt>
<trkpt lat="-27.2584065" lon="152.8514225">
<ele>44.228</ele>
<time>2015-12-27T06:40:33.924Z</time>
</trkpt>
<trkpt lat="-27.2590867" lon="152.8515734">
<ele>44.156</ele>
<time>2015-12-27T06:40:36.927Z</time>
</trkpt>
<trkpt lat="-27.2595554" lon="152.8516507">
<ele>44.206</ele>
<time>2015-12-27T06:40:38.961Z</time>
</trkpt>
<trkpt lat="-27.2600168" lon="152.8516877">
<ele>44.234</ele>
<time>2015-12-27T06:40:40.922Z</time>
</trkpt>
<trkpt lat="-27.2604968" lon="152.8517179">
<ele>43.935</ele>
<time>2015-12-27T06:40:42.919Z</time>
</trkpt>
<trkpt lat="-27.2613115" lon="152.8516962">
<ele>42.908</ele>
<time>2015-12-27T06:40:46.250Z</time>
</trkpt>
<trkpt lat="-27.2617520" lon="152.8516028">
<ele>41.450</ele>
<time>2015-12-27T06:40:48.106Z</time>
</trkpt>
<trkpt lat="-27.2624626" lon="152.8514824">
<ele>40.455</ele>
<time>2015-12-27T06:40:51.124Z</time>
</trkpt>
<trkpt lat="-27.2629355" lon="152.8514051">
<ele>40.551</ele>
<time>2015-12-27T06:40:53.133Z</time>
</trkpt>
<trkpt lat="-27.2636559" lon="152.8512828">
<ele>41.713</ele>
<time>2015-12-27T06:40:56.161Z</time>
</trkpt>
<trkpt lat="-27.2643704" lon="152.8511512">
<ele>43.190</ele>
<time>2015-12-27T06:40:59.127Z</time>
</trkpt>
<trkpt lat="-27.2648437" lon="152.8510644">
<ele>43.944</ele>
<time>2015-12-27T06:41:01.092Z</time>
</trkpt>
<trkpt lat="-27.2655341" lon="152.8509479">
<ele>43.622</ele>
<time>2015-12-27T06:41:03.997Z</time>
</trkpt>
<trkpt lat="-27.2662290" lon="152.8508179">
<ele>42.885</ele>
<time>2015-12-27T06:41:06.995Z</time>
</trkpt>
<trkpt lat="-27.2669181" lon="152.8506913">
<ele>42.580</ele>
<time>2015-12-27T06:41:09.990Z</time>
</trkpt>
<trkpt lat="-27.2675933" lon="152.8505695">
<ele>43.143</ele>
<time>2015-12-27T06:41:12.926Z</time>
</trkpt>
<trkpt lat="-27.2682679" lon="152.8504131">
<ele>44.366</ele>
<time>2015-12-27T06:41:15.885Z</time>
</trkpt>
<trkpt lat="-27.2687577" lon="152.8503294">
<ele>44.931</ele>
<time>2015-12-27T06:41:17.973Z</time>
</trkpt>
<trkpt lat="-27.2694737" lon="152.8501953">
<ele>44.014</ele>
<time>2015-12-27T06:41:20.980Z</time>
</trkpt>
<trkpt lat="-27.2702401" lon="152.8500678">
<ele>42.723</ele>
<time>2015-12-27T06:41:24.128Z</time>
</trkpt>
<trkpt lat="-27.2707312" lon="152.8499682">
<ele>42.644</ele>
<time>2015-12-27T06:41:26.129Z</time>
</trkpt>
<trkpt lat="-27.2712149" lon="152.8498836">
<ele>43.889</ele>
<time>2015-12-27T06:41:28.099Z</time>
</trkpt>
<trkpt lat="-27.2719551" lon="152.8497488">
<ele>45.279</ele>
<time>2015-12-27T06:41:31.142Z</time>
</trkpt>
<trkpt lat="-27.2726756" lon="152.8496016">
<ele>45.797</ele>
<time>2015-12-27T06:41:34.171Z</time>
</trkpt>
<trkpt lat="-27.2731157" lon="152.8495197">
<ele>45.447</ele>
<time>2015-12-27T06:41:36.050Z</time>
</trkpt>
<trkpt lat="-27.2735831" lon="152.8494134">
<ele>44.648</ele>
<time>2015-12-27T06:41:38.059Z</time>
</trkpt>
<trkpt lat="-27.2743079" lon="152.8492621">
<ele>43.804</ele>
<time>2015-12-27T06:41:41.166Z</time>
</trkpt>
<trkpt lat="-27.2749902" lon="152.8490565">
<ele>43.237</ele>
<time>2015-12-27T06:41:44.189Z</time>
</trkpt>
<trkpt lat="-27.2754415" lon="152.8489195">
<ele>43.548</ele>
<time>2015-12-27T06:41:46.245Z</time>
</trkpt>
<trkpt lat="-27.2760862" lon="152.8487235">
<ele>45.081</ele>
<time>2015-12-27T06:41:49.227Z</time>
</trkpt>
<trkpt lat="-27.2765008" lon="152.8485652">
<ele>47.053</ele>
<time>2015-12-27T06:41:51.214Z</time>
</trkpt>
<trkpt lat="-27.2771196" lon="152.8483240">
<ele>48.391</ele>
<time>2015-12-27T06:41:54.209Z</time>
</trkpt>
<trkpt lat="-27.2777217" lon="152.8480423">
<ele>48.959</ele>
<time>2015-12-27T06:41:57.215Z</time>
</trkpt>
<trkpt lat="-27.2783198" lon="152.8477489">
<ele>49.372</ele>
<time>2015-12-27T06:42:00.230Z</time>
</trkpt>
<trkpt lat="-27.2787035" lon="152.8475293">
<ele>50.021</ele>
<time>2015-12-27T06:42:02.210Z</time>
</trkpt>
<trkpt lat="-27.2790936" lon="152.8473225">
<ele>50.093</ele>
<time>2015-12-27T06:42:04.174Z</time>
</trkpt>
<trkpt lat="-27.2797065" lon="152.8469809">
<ele>48.541</ele>
<time>2015-12-27T06:42:07.218Z</time>
</trkpt>
<trkpt lat="-27.2801431" lon="152.8467580">
<ele>45.522</ele>
<time>2015-12-27T06:42:09.310Z</time>
</trkpt>
<trkpt lat="-27.2807794" lon="152.8464547">
<ele>42.216</ele>
<time>2015-12-27T06:42:12.311Z</time>
</trkpt>
<trkpt lat="-27.2811842" lon="152.8462500">
<ele>39.549</ele>
<time>2015-12-27T06:42:14.223Z</time>
</trkpt>
<trkpt lat="-27.2818200" lon="152.8459074">
<ele>37.642</ele>
<time>2015-12-27T06:42:17.229Z</time>
</trkpt>
<trkpt lat="-27.2824544" lon="152.8455661">
<ele>36.403</ele>
<time>2015-12-27T06:42:20.195Z</time>
</trkpt>
<trkpt lat="-27.2827992" lon="152.8452581">
<ele>35.897</ele>
<time>2015-12-27T06:42:22.053Z</time>
</trkpt>
<trkpt lat="-27.2834341" lon="152.8448926">
<ele>35.652</ele>
<time>2015-12-27T06:42:25.066Z</time>
</trkpt>
<trkpt lat="-27.2840678" lon="152.8445474">
<ele>35.209</ele>
<time>2015-12-27T06:42:28.017Z</time>
</trkpt>
<trkpt lat="-27.2844857" lon="152.8442728">
<ele>34.732</ele>
<time>2015-12-27T06:42:30.039Z</time>
</trkpt>
<trkpt lat="-27.2849110" lon="152.8440302">
<ele>34.506</ele>
<time>2015-12-27T06:42:32.051Z</time>
</trkpt>
<trkpt lat="-27.2855757" lon="152.8437410">
<ele>34.476</ele>
<time>2015-12-27T06:42:35.074Z</time>
</trkpt>
<trkpt lat="-27.2862986" lon="152.8435028">
<ele>34.811</ele>
<time>2015-12-27T06:42:38.216Z</time>
</trkpt>
<trkpt lat="-27.2870232" lon="152.8432969">
<ele>36.328</ele>
<time>2015-12-27T06:42:41.267Z</time>
</trkpt>
<trkpt lat="-27.2874928" lon="152.8431844">
<ele>39.006</ele>
<time>2015-12-27T06:42:43.230Z</time>
</trkpt>
<trkpt lat="-27.2879585" lon="152.8430758">
<ele>41.352</ele>
<time>2015-12-27T06:42:45.190Z</time>
</trkpt>
<trkpt lat="-27.2886780" lon="152.8429165">
<ele>42.460</ele>
<time>2015-12-27T06:42:48.232Z</time>
</trkpt>
<trkpt lat="-27.2891494" lon="152.8427990">
<ele>42.783</ele>
<time>2015-12-27T06:42:50.270Z</time>
</trkpt>
<trkpt lat="-27.2896003" lon="152.8426823">
<ele>42.830</ele>
<time>2015-12-27T06:42:52.275Z</time>
</trkpt>
<trkpt lat="-27.2900418" lon="152.8425957">
<ele>42.665</ele>
<time>2015-12-27T06:42:54.284Z</time>
</trkpt>
<trkpt lat="-27.2906823" lon="152.8424416">
<ele>42.269</ele>
<time>2015-12-27T06:42:57.314Z</time>
</trkpt>
<trkpt lat="-27.2912554" lon="152.8423052">
<ele>41.953</ele>
<time>2015-12-27T06:43:00.105Z</time>
</trkpt>
<trkpt lat="-27.2916867" lon="152.8422120">
<ele>42.111</ele>
<time>2015-12-27T06:43:02.196Z</time>
</trkpt>
<trkpt lat="-27.2920715" lon="152.8421364">
<ele>42.662</ele>
<time>2015-12-27T06:43:04.049Z</time>
</trkpt>
<trkpt lat="-27.2925000" lon="152.8420933">
<ele>43.177</ele>
<time>2015-12-27T06:43:06.085Z</time>
</trkpt>
<trkpt lat="-27.2931519" lon="152.8420752">
<ele>43.425</ele>
<time>2015-12-27T06:43:09.136Z</time>
</trkpt>
<trkpt lat="-27.2935775" lon="152.8420966">
<ele>43.451</ele>
<time>2015-12-27T06:43:11.090Z</time>
</trkpt>
<trkpt lat="-27.2940092" lon="152.8421301">
<ele>43.409</ele>
<time>2015-12-27T06:43:13.053Z</time>
</trkpt>
<trkpt lat="-27.2946795" lon="152.8422233">
<ele>43.543</ele>
<time>2015-12-27T06:43:16.103Z</time>
</trkpt>
<trkpt lat="-27.2951104" lon="152.8422979">
<ele>43.971</ele>
<time>2015-12-27T06:43:18.066Z</time>
</trkpt>
<trkpt lat="-27.2955542" lon="152.8424201">
<ele>44.498</ele>
<time>2015-12-27T06:43:20.118Z</time>
</trkpt>
<trkpt lat="-27.2962207" lon="152.8425417">
<ele>44.849</ele>
<time>2015-12-27T06:43:23.153Z</time>
</trkpt>
<trkpt lat="-27.2968657" lon="152.8426839">
<ele>44.952</ele>
<time>2015-12-27T06:43:26.111Z</time>
</trkpt>
<trkpt lat="-27.2975432" lon="152.8428508">
<ele>44.951</ele>
<time>2015-12-27T06:43:29.219Z</time>
</trkpt>
<trkpt lat="-27.2979997" lon="152.8429484">
<ele>45.003</ele>
<time>2015-12-27T06:43:31.286Z</time>
</trkpt>
<trkpt lat="-27.2986419" lon="152.8431023">
<ele>45.141</ele>
<time>2015-12-27T06:43:34.216Z</time>
</trkpt>
<trkpt lat="-27.2992791" lon="152.8432567">
<ele>45.262</ele>
<time>2015-12-27T06:43:37.172Z</time>
</trkpt>
<trkpt lat="-27.2996907" lon="152.8433448">
<ele>45.235</ele>
<time>2015-12-27T06:43:39.139Z</time>
</trkpt>
<trkpt lat="-27.3003027" lon="152.8434399">
<ele>44.911</ele>
<time>2015-12-27T06:43:42.094Z</time>
</trkpt>
<trkpt lat="-27.3007388" lon="152.8434430">
<ele>44.345</ele>
<time>2015-12-27T06:43:44.166Z</time>
</trkpt>
<trkpt lat="-27.3011661" lon="152.8433970">
<ele>43.911</ele>
<time>2015-12-27T06:43:46.164Z</time>
</trkpt>
<trkpt lat="-27.3015983" lon="152.8433359">
<ele>44.070</ele>
<time>2015-12-27T06:43:48.193Z</time>
</trkpt>
<trkpt lat="-27.3022312" lon="152.8431915">
<ele>45.356</ele>
<time>2015-12-27T06:43:51.261Z</time>
</trkpt>
<trkpt lat="-27.3028311" lon="152.8430402">
<ele>47.736</ele>
<time>2015-12-27T06:43:54.272Z</time>
</trkpt>
<trkpt lat="-27.3032133" lon="152.8429523">
<ele>50.425</ele>
<time>2015-12-27T06:43:56.221Z</time>
</trkpt>
<trkpt lat="-27.3038029" lon="152.8428429">
<ele>52.920</ele>
<time>2015-12-27T06:43:59.207Z</time>
</trkpt>
<trkpt lat="-27.3044130" lon="152.8427391">
<ele>55.058</ele>
<time>2015-12-27T06:44:02.254Z</time>
</trkpt>
<trkpt lat="-27.3050428" lon="152.8426094">
<ele>56.755</ele>
<time>2015-12-27T06:44:05.358Z</time>
</trkpt>
<trkpt lat="-27.3054587" lon="152.8425380">
<ele>58.058</ele>
<time>2015-12-27T06:44:07.362Z</time>
</trkpt>
<trkpt lat="-27.3058806" lon="152.8424834">
<ele>58.757</ele>
<time>2015-12-27T06:44:09.348Z</time>
</trkpt>
<trkpt lat="-27.3065525" lon="152.8424708">
<ele>58.563</ele>
<time>2015-12-27T06:44:12.376Z</time>
</trkpt>
<trkpt lat="-27.3070052" lon="152.8425255">
<ele>57.754</ele>
<time>2015-12-27T06:44:14.409Z</time>
</trkpt>
<trkpt lat="-27.3076543" lon="152.8426760">
<ele>56.991</ele>
<time>2015-12-27T06:44:17.391Z</time>
</trkpt>
<trkpt lat="-27.3082924" lon="152.8429848">
<ele>57.025</ele>
<time>2015-12-27T06:44:20.529Z</time>
</trkpt>
<trkpt lat="-27.3087170" lon="152.8432583">
<ele>58.181</ele>
<time>2015-12-27T06:44:22.716Z</time>
</trkpt>
<trkpt lat="-27.3092697" lon="152.8436644">
<ele>60.301</ele>
<time>2015-12-27T06:44:25.636Z</time>
</trkpt>
<trkpt lat="-27.3096266" lon="152.8439903">
<ele>63.042</ele>
<time>2015-12-27T06:44:27.660Z</time>
</trkpt>
<trkpt lat="-27.3100704" lon="152.8445260">
<ele>65.651</ele>
<time>2015-12-27T06:44:30.536Z</time>
</trkpt>
<trkpt lat="-27.3103679" lon="152.8449393">
<ele>67.128</ele>
<time>2015-12-27T06:44:32.652Z</time>
</trkpt>
<trkpt lat="-27.3105711" lon="152.8453206">
<ele>67.191</ele>
<time>2015-12-27T06:44:34.449Z</time>
</trkpt>
<trkpt lat="-27.3107008" lon="152.8457739">
<ele>66.095</ele>
<time>2015-12-27T06:44:36.368Z</time>
</trkpt>
<trkpt lat="-27.3108914" lon="152.8464908">
<ele>64.374</ele>
<time>2015-12-27T06:44:39.363Z</time>
</trkpt>
<trkpt lat="-27.3110056" lon="152.8472205">
<ele>62.528</ele>
<time>2015-12-27T06:44:42.337Z</time>
</trkpt>
<trkpt lat="-27.3110369" lon="152.8479602">
<ele>60.693</ele>
<time>2015-12-27T06:44:45.345Z</time>
</trkpt>
<trkpt lat="-27.3110029" lon="152.8484486">
<ele>59.044</ele>
<time>2015-12-27T06:44:47.337Z</time>
</trkpt>
<trkpt lat="-27.3108505" lon="152.8491907">
<ele>57.946</ele>
<time>2015-12-27T06:44:50.450Z</time>
</trkpt>
<trkpt lat="-27.3107549" lon="152.8496565">
<ele>57.488</ele>
<time>2015-12-27T06:44:52.488Z</time>
</trkpt>
<trkpt lat="-27.3106551" lon="152.8500799">
<ele>57.216</ele>
<time>2015-12-27T06:44:54.419Z</time>
</trkpt>
<trkpt lat="-27.3105499" lon="152.8505293">
<ele>56.402</ele>
<time>2015-12-27T06:44:56.479Z</time>
</trkpt>
<trkpt lat="-27.3104021" lon="152.8511916">
<ele>55.085</ele>
<time>2015-12-27T06:44:59.491Z</time>
</trkpt>
<trkpt lat="-27.3103285" lon="152.8516298">
<ele>54.033</ele>
<time>2015-12-27T06:45:01.456Z</time>
</trkpt>
<trkpt lat="-27.3102912" lon="152.8520964">
<ele>53.722</ele>
<time>2015-12-27T06:45:03.522Z</time>
</trkpt>
<trkpt lat="-27.3103101" lon="152.8527721">
<ele>53.982</ele>
<time>2015-12-27T06:45:06.501Z</time>
</trkpt>
<trkpt lat="-27.3104260" lon="152.8534209">
<ele>54.753</ele>
<time>2015-12-27T06:45:09.396Z</time>
</trkpt>
<trkpt lat="-27.3106148" lon="152.8540738">
<ele>56.291</ele>
<time>2015-12-27T06:45:12.366Z</time>
</trkpt>
<trkpt lat="-27.3107900" lon="152.8545036">
<ele>58.810</ele>
<time>2015-12-27T06:45:14.414Z</time>
</trkpt>
<trkpt lat="-27.3111170" lon="152.8550754">
<ele>62.141</ele>
<time>2015-12-27T06:45:17.370Z</time>
</trkpt>
<trkpt lat="-27.3115123" lon="152.8556031">
<ele>65.479</ele>
<time>2015-12-27T06:45:20.345Z</time>
</trkpt>
<trkpt lat="-27.3118122" lon="152.8559124">
<ele>68.267</ele>
<time>2015-12-27T06:45:22.288Z</time>
</trkpt>
<trkpt lat="-27.3123152" lon="152.8563337">
<ele>70.788</ele>
<time>2015-12-27T06:45:25.273Z</time>
</trkpt>
<trkpt lat="-27.3127147" lon="152.8565702">
<ele>73.045</ele>
<time>2015-12-27T06:45:27.446Z</time>
</trkpt>
<trkpt lat="-27.3132768" lon="152.8568190">
<ele>74.604</ele>
<time>2015-12-27T06:45:30.428Z</time>
</trkpt>
<trkpt lat="-27.3136300" lon="152.8569119">
<ele>75.354</ele>
<time>2015-12-27T06:45:32.288Z</time>
</trkpt>
<trkpt lat="-27.3140044" lon="152.8570716">
<ele>75.678</ele>
<time>2015-12-27T06:45:34.390Z</time>
</trkpt>
<trkpt lat="-27.3144995" lon="152.8573445">
<ele>76.032</ele>
<time>2015-12-27T06:45:37.317Z</time>
</trkpt>
<trkpt lat="-27.3149828" lon="152.8576797">
<ele>76.434</ele>
<time>2015-12-27T06:45:40.316Z</time>
</trkpt>
<trkpt lat="-27.3152710" lon="152.8579723">
<ele>76.936</ele>
<time>2015-12-27T06:45:42.345Z</time>
</trkpt>
<trkpt lat="-27.3156420" lon="152.8584444">
<ele>77.739</ele>
<time>2015-12-27T06:45:45.291Z</time>
</trkpt>
<trkpt lat="-27.3158572" lon="152.8587775">
<ele>78.618</ele>
<time>2015-12-27T06:45:47.235Z</time>
</trkpt>
<trkpt lat="-27.3162466" lon="152.8592420">
<ele>78.999</ele>
<time>2015-12-27T06:45:50.236Z</time>
</trkpt>
<trkpt lat="-27.3167070" lon="152.8596565">
<ele>78.533</ele>
<time>2015-12-27T06:45:53.315Z</time>
</trkpt>
<trkpt lat="-27.3170386" lon="152.8598641">
<ele>77.493</ele>
<time>2015-12-27T06:45:55.271Z</time>
</trkpt>
<trkpt lat="-27.3174217" lon="152.8600358">
<ele>76.540</ele>
<time>2015-12-27T06:45:57.369Z</time>
</trkpt>
<trkpt lat="-27.3179730" lon="152.8602213">
<ele>75.794</ele>
<time>2015-12-27T06:46:00.259Z</time>
</trkpt>
<trkpt lat="-27.3185722" lon="152.8603904">
<ele>74.951</ele>
<time>2015-12-27T06:46:03.318Z</time>
</trkpt>
<trkpt lat="-27.3191451" lon="152.8605498">
<ele>74.209</ele>
<time>2015-12-27T06:46:06.250Z</time>
</trkpt>
<trkpt lat="-27.3197037" lon="152.8606813">
<ele>73.749</ele>
<time>2015-12-27T06:46:09.157Z</time>
</trkpt>
<trkpt lat="-27.3202277" lon="152.8608113">
<ele>73.067</ele>
<time>2015-12-27T06:46:11.987Z</time>
</trkpt>
<trkpt lat="-27.3207643" lon="152.8609418">
<ele>71.740</ele>
<time>2015-12-27T06:46:14.952Z</time>
</trkpt>
<trkpt lat="-27.3211271" lon="152.8610545">
<ele>70.046</ele>
<time>2015-12-27T06:46:16.950Z</time>
</trkpt>
<trkpt lat="-27.3215592" lon="152.8611758">
<ele>68.659</ele>
<time>2015-12-27T06:46:19.234Z</time>
</trkpt>
<trkpt lat="-27.3221314" lon="152.8613480">
<ele>67.988</ele>
<time>2015-12-27T06:46:22.245Z</time>
</trkpt>
<trkpt lat="-27.3225071" lon="152.8614622">
<ele>67.581</ele>
<time>2015-12-27T06:46:24.224Z</time>
</trkpt>
<trkpt lat="-27.3228942" lon="152.8615646">
<ele>66.850</ele>
<time>2015-12-27T06:46:26.224Z</time>
</trkpt>
<trkpt lat="-27.3234779" lon="152.8617573">
<ele>65.931</ele>
<time>2015-12-27T06:46:29.268Z</time>
</trkpt>
<trkpt lat="-27.3240157" lon="152.8620788">
<ele>65.200</ele>
<time>2015-12-27T06:46:32.332Z</time>
</trkpt>
<trkpt lat="-27.3243523" lon="152.8623275">
<ele>64.522</ele>
<time>2015-12-27T06:46:34.358Z</time>
</trkpt>
<trkpt lat="-27.3246648" lon="152.8626184">
<ele>63.495</ele>
<time>2015-12-27T06:46:36.367Z</time>
</trkpt>
<trkpt lat="-27.3250863" lon="152.8631603">
<ele>62.080</ele>
<time>2015-12-27T06:46:39.500Z</time>
</trkpt>
<trkpt lat="-27.3254547" lon="152.8636991">
<ele>60.761</ele>
<time>2015-12-27T06:46:42.464Z</time>
</trkpt>
<trkpt lat="-27.3257062" lon="152.8640559">
<ele>59.647</ele>
<time>2015-12-27T06:46:44.508Z</time>
</trkpt>
<trkpt lat="-27.3260861" lon="152.8645491">
<ele>58.361</ele>
<time>2015-12-27T06:46:47.478Z</time>
</trkpt>
<trkpt lat="-27.3263462" lon="152.8648724">
<ele>57.025</ele>
<time>2015-12-27T06:46:49.466Z</time>
</trkpt>
<trkpt lat="-27.3267412" lon="152.8653490">
<ele>56.087</ele>
<time>2015-12-27T06:46:52.434Z</time>
</trkpt>
<trkpt lat="-27.3270153" lon="152.8656611">
<ele>55.348</ele>
<time>2015-12-27T06:46:54.460Z</time>
</trkpt>
<trkpt lat="-27.3273061" lon="152.8659451">
<ele>54.492</ele>
<time>2015-12-27T06:46:56.475Z</time>
</trkpt>
<trkpt lat="-27.3277712" lon="152.8663225">
<ele>53.677</ele>
<time>2015-12-27T06:46:59.463Z</time>
</trkpt>
<trkpt lat="-27.3280975" lon="152.8665364">
<ele>53.068</ele>
<time>2015-12-27T06:47:01.391Z</time>
</trkpt>
<trkpt lat="-27.3284900" lon="152.8666838">
<ele>52.678</ele>
<time>2015-12-27T06:47:03.466Z</time>
</trkpt>
<trkpt lat="-27.3290987" lon="152.8668384">
<ele>52.517</ele>
<time>2015-12-27T06:47:06.577Z</time>
</trkpt>
<trkpt lat="-27.3294914" lon="152.8669767">
<ele>52.494</ele>
<time>2015-12-27T06:47:08.624Z</time>
</trkpt>
<trkpt lat="-27.3300593" lon="152.8672261">
<ele>52.622</ele>
<time>2015-12-27T06:47:11.635Z</time>
</trkpt>
<trkpt lat="-27.3304170" lon="152.8674086">
<ele>53.684</ele>
<time>2015-12-27T06:47:13.561Z</time>
</trkpt>
<trkpt lat="-27.3309461" lon="152.8677833">
<ele>56.473</ele>
<time>2015-12-27T06:47:16.642Z</time>
</trkpt>
<trkpt lat="-27.3312424" lon="152.8680607">
<ele>60.541</ele>
<time>2015-12-27T06:47:18.516Z</time>
</trkpt>
<trkpt lat="-27.3316776" lon="152.8685812">
<ele>65.016</ele>
<time>2015-12-27T06:47:21.607Z</time>
</trkpt>
<trkpt lat="-27.3319959" lon="152.8691399">
<ele>69.002</ele>
<time>2015-12-27T06:47:24.589Z</time>
</trkpt>
<trkpt lat="-27.3322644" lon="152.8697268">
<ele>71.338</ele>
<time>2015-12-27T06:47:27.695Z</time>
</trkpt>
<trkpt lat="-27.3324297" lon="152.8703053">
<ele>71.421</ele>
<time>2015-12-27T06:47:30.564Z</time>
</trkpt>
<trkpt lat="-27.3326421" lon="152.8709071">
<ele>69.156</ele>
<time>2015-12-27T06:47:33.538Z</time>
</trkpt>
<trkpt lat="-27.3329063" lon="152.8712478">
<ele>64.756</ele>
<time>2015-12-27T06:47:35.564Z</time>
</trkpt>
<trkpt lat="-27.3333556" lon="152.8716805">
<ele>59.221</ele>
<time>2015-12-27T06:47:38.513Z</time>
</trkpt>
<trkpt lat="-27.3337335" lon="152.8719134">
<ele>54.341</ele>
<time>2015-12-27T06:47:40.560Z</time>
</trkpt>
<trkpt lat="-27.3341549" lon="152.8720494">
<ele>51.848</ele>
<time>2015-12-27T06:47:42.640Z</time>
</trkpt>
<trkpt lat="-27.3347398" lon="152.8719071">
<ele>52.382</ele>
<time>2015-12-27T06:47:45.564Z</time>
</trkpt>
<trkpt lat="-27.3351195" lon="152.8718106">
<ele>55.671</ele>
<time>2015-12-27T06:47:47.563Z</time>
</trkpt>
<trkpt lat="-27.3356360" lon="152.8716240">
<ele>60.971</ele>
<time>2015-12-27T06:47:50.532Z</time>
</trkpt>
<trkpt lat="-27.3360872" lon="152.8714886">
<ele>66.602</ele>
<time>2015-12-27T06:47:53.251Z</time>
</trkpt>
<trkpt lat="-27.3366063" lon="152.8714603">
<ele>70.623</ele>
<time>2015-12-27T06:47:56.341Z</time>
</trkpt>
<trkpt lat="-27.3371229" lon="152.8714531">
<ele>72.512</ele>
<time>2015-12-27T06:47:59.379Z</time>
</trkpt>
<trkpt lat="-27.3374632" lon="152.8714655">
<ele>73.110</ele>
<time>2015-12-27T06:48:01.354Z</time>
</trkpt>
<trkpt lat="-27.3379976" lon="152.8714790">
<ele>73.197</ele>
<time>2015-12-27T06:48:04.423Z</time>
</trkpt>
<trkpt lat="-27.3383338" lon="152.8715008">
<ele>72.876</ele>
<time>2015-12-27T06:48:06.347Z</time>
</trkpt>
<trkpt lat="-27.3387002" lon="152.8715262">
<ele>72.144</ele>
<time>2015-12-27T06:48:08.456Z</time>
</trkpt>
<trkpt lat="-27.3392384" lon="152.8715449">
<ele>71.179</ele>
<time>2015-12-27T06:48:11.539Z</time>
</trkpt>
<trkpt lat="-27.3395903" lon="152.8715460">
<ele>69.882</ele>
<time>2015-12-27T06:48:13.502Z</time>
</trkpt>
<trkpt lat="-27.3401320" lon="152.8715517">
<ele>68.322</ele>
<time>2015-12-27T06:48:16.452Z</time>
</trkpt>
<trkpt lat="-27.3405227" lon="152.8715934">
<ele>67.697</ele>
<time>2015-12-27T06:48:18.477Z</time>
</trkpt>
<trkpt lat="-27.3411149" lon="152.8716459">
<ele>68.898</ele>
<time>2015-12-27T06:48:21.551Z</time>
</trkpt>
<trkpt lat="-27.3416163" lon="152.8716810">
<ele>71.348</ele>
<time>2015-12-27T06:48:24.287Z</time>
</trkpt>
<trkpt lat="-27.3419513" lon="152.8717154">
<ele>73.822</ele>
<time>2015-12-27T06:48:26.268Z</time>
</trkpt>
<trkpt lat="-27.3424449" lon="152.8718361">
<ele>75.413</ele>
<time>2015-12-27T06:48:29.319Z</time>
</trkpt>
<trkpt lat="-27.3429267" lon="152.8720666">
<ele>76.042</ele>
<time>2015-12-27T06:48:32.417Z</time>
</trkpt>
<trkpt lat="-27.3432284" lon="152.8722976">
<ele>76.255</ele>
<time>2015-12-27T06:48:34.411Z</time>
</trkpt>
<trkpt lat="-27.3437104" lon="152.8726626">
<ele>76.132</ele>
<time>2015-12-27T06:48:37.459Z</time>
</trkpt>
<trkpt lat="-27.3442167" lon="152.8730322">
<ele>74.965</ele>
<time>2015-12-27T06:48:40.645Z</time>
</trkpt>
<trkpt lat="-27.3445183" lon="152.8732475">
<ele>72.395</ele>
<time>2015-12-27T06:48:42.751Z</time>
</trkpt>
<trkpt lat="-27.3447432" lon="152.8734782">
<ele>69.500</ele>
<time>2015-12-27T06:48:44.656Z</time>
</trkpt>
<trkpt lat="-27.3450059" lon="152.8739279">
<ele>67.809</ele>
<time>2015-12-27T06:48:47.594Z</time>
</trkpt>
<trkpt lat="-27.3450975" lon="152.8744843">
<ele>68.442</ele>
<time>2015-12-27T06:48:50.527Z</time>
</trkpt>
<trkpt lat="-27.3451562" lon="152.8748827">
<ele>71.580</ele>
<time>2015-12-27T06:48:52.600Z</time>
</trkpt>
<trkpt lat="-27.3452569" lon="152.8752288">
<ele>75.503</ele>
<time>2015-12-27T06:48:54.514Z</time>
</trkpt>
<trkpt lat="-27.3453838" lon="152.8755826">
<ele>78.066</ele>
<time>2015-12-27T06:48:56.483Z</time>
</trkpt>
<trkpt lat="-27.3456070" lon="152.8761514">
<ele>78.900</ele>
<time>2015-12-27T06:48:59.641Z</time>
</trkpt>
<trkpt lat="-27.3457550" lon="152.8765140">
<ele>78.824</ele>
<time>2015-12-27T06:49:01.649Z</time>
</trkpt>
<trkpt lat="-27.3458986" lon="152.8768881">
<ele>78.657</ele>
<time>2015-12-27T06:49:03.708Z</time>
</trkpt>
<trkpt lat="-27.3460704" lon="152.8774322">
<ele>78.827</ele>
<time>2015-12-27T06:49:06.662Z</time>
</trkpt>
<trkpt lat="-27.3461219" lon="152.8778061">
<ele>79.432</ele>
<time>2015-12-27T06:49:08.665Z</time>
</trkpt>
<trkpt lat="-27.3462449" lon="152.8783598">
<ele>80.371</ele>
<time>2015-12-27T06:49:11.755Z</time>
</trkpt>
<trkpt lat="-27.3463862" lon="152.8786814">
<ele>81.351</ele>
<time>2015-12-27T06:49:13.682Z</time>
</trkpt>
<trkpt lat="-27.3467280" lon="152.8791393">
<ele>82.111</ele>
<time>2015-12-27T06:49:16.739Z</time>
</trkpt>
<trkpt lat="-27.3470463" lon="152.8796005">
<ele>82.595</ele>
<time>2015-12-27T06:49:19.639Z</time>
</trkpt>
<trkpt lat="-27.3472855" lon="152.8799101">
<ele>82.666</ele>
<time>2015-12-27T06:49:21.719Z</time>
</trkpt>
<trkpt lat="-27.3476167" lon="152.8803458">
<ele>81.880</ele>
<time>2015-12-27T06:49:24.711Z</time>
</trkpt>
<trkpt lat="-27.3478190" lon="152.8806165">
<ele>79.864</ele>
<time>2015-12-27T06:49:26.631Z</time>
</trkpt>
<trkpt lat="-27.3481741" lon="152.8810260">
<ele>77.154</ele>
<time>2015-12-27T06:49:29.818Z</time>
</trkpt>
<trkpt lat="-27.3485065" lon="152.8813600">
<ele>74.852</ele>
<time>2015-12-27T06:49:32.775Z</time>
</trkpt>
<trkpt lat="-27.3488354" lon="152.8816710">
<ele>73.114</ele>
<time>2015-12-27T06:49:35.982Z</time>
</trkpt>
<trkpt lat="-27.3491105" lon="152.8819091">
<ele>71.325</ele>
<time>2015-12-27T06:49:39.219Z</time>
</trkpt>
<trkpt lat="-27.3492348" lon="152.8820457">
<ele>68.835</ele>
<time>2015-12-27T06:49:41.201Z</time>
</trkpt>
<trkpt lat="-27.3493221" lon="152.8822079">
<ele>65.622</ele>
<time>2015-12-27T06:49:42.963Z</time>
</trkpt>
<trkpt lat="-27.3494302" lon="152.8824282">
<ele>62.826</ele>
<time>2015-12-27T06:49:44.793Z</time>
</trkpt>
<trkpt lat="-27.3496616" lon="152.8828199">
<ele>61.823</ele>
<time>2015-12-27T06:49:47.886Z</time>
</trkpt>
<trkpt lat="-27.3497831" lon="152.8831184">
<ele>63.569</ele>
<time>2015-12-27T06:49:49.822Z</time>
</trkpt>
<trkpt lat="-27.3498460" lon="152.8834642">
<ele>67.889</ele>
<time>2015-12-27T06:49:51.830Z</time>
</trkpt>
<trkpt lat="-27.3498627" lon="152.8840166">
<ele>72.982</ele>
<time>2015-12-27T06:49:54.944Z</time>
</trkpt>
<trkpt lat="-27.3498076" lon="152.8845538">
<ele>77.222</ele>
<time>2015-12-27T06:49:57.988Z</time>
</trkpt>
<trkpt lat="-27.3496890" lon="152.8850766">
<ele>80.435</ele>
<time>2015-12-27T06:50:01.039Z</time>
</trkpt>
<trkpt lat="-27.3494756" lon="152.8855157">
<ele>82.830</ele>
<time>2015-12-27T06:50:03.870Z</time>
</trkpt>
<trkpt lat="-27.3493040" lon="152.8858061">
<ele>84.294</ele>
<time>2015-12-27T06:50:05.795Z</time>
</trkpt>
<trkpt lat="-27.3490160" lon="152.8862946">
<ele>84.693</ele>
<time>2015-12-27T06:50:08.984Z</time>
</trkpt>
<trkpt lat="-27.3488384" lon="152.8866047">
<ele>84.368</ele>
<time>2015-12-27T06:50:11.006Z</time>
</trkpt>
<trkpt lat="-27.3486546" lon="152.8869014">
<ele>83.840</ele>
<time>2015-12-27T06:50:13.021Z</time>
</trkpt>
<trkpt lat="-27.3484687" lon="152.8871774">
<ele>83.075</ele>
<time>2015-12-27T06:50:14.945Z</time>
</trkpt>
<trkpt lat="-27.3481850" lon="152.8875871">
<ele>81.567</ele>
<time>2015-12-27T06:50:17.824Z</time>
</trkpt>
<trkpt lat="-27.3479646" lon="152.8878222">
<ele>79.251</ele>
<time>2015-12-27T06:50:19.681Z</time>
</trkpt>
<trkpt lat="-27.3475689" lon="152.8882118">
<ele>76.719</ele>
<time>2015-12-27T06:50:22.752Z</time>
</trkpt>
<trkpt lat="-27.3471902" lon="152.8886256">
<ele>74.771</ele>
<time>2015-12-27T06:50:25.728Z</time>
</trkpt>
<trkpt lat="-27.3469658" lon="152.8889379">
<ele>74.321</ele>
<time>2015-12-27T06:50:27.733Z</time>
</trkpt>
<trkpt lat="-27.3467649" lon="152.8892674">
<ele>75.455</ele>
<time>2015-12-27T06:50:29.736Z</time>
</trkpt>
<trkpt lat="-27.3465283" lon="152.8898079">
<ele>77.019</ele>
<time>2015-12-27T06:50:32.744Z</time>
</trkpt>
<trkpt lat="-27.3464314" lon="152.8903997">
<ele>78.144</ele>
<time>2015-12-27T06:50:35.698Z</time>
</trkpt>
<trkpt lat="-27.3464109" lon="152.8910047">
<ele>78.964</ele>
<time>2015-12-27T06:50:38.602Z</time>
</trkpt>
<trkpt lat="-27.3464413" lon="152.8914251">
<ele>79.540</ele>
<time>2015-12-27T06:50:40.557Z</time>
</trkpt>
<trkpt lat="-27.3465847" lon="152.8921010">
<ele>79.537</ele>
<time>2015-12-27T06:50:43.700Z</time>
</trkpt>
<trkpt lat="-27.3467253" lon="152.8925425">
<ele>78.918</ele>
<time>2015-12-27T06:50:45.782Z</time>
</trkpt>
<trkpt lat="-27.3468526" lon="152.8929788">
<ele>78.631</ele>
<time>2015-12-27T06:50:47.846Z</time>
</trkpt>
<trkpt lat="-27.3468779" lon="152.8936370">
<ele>79.568</ele>
<time>2015-12-27T06:50:50.792Z</time>
</trkpt>
<trkpt lat="-27.3468641" lon="152.8942934">
<ele>81.627</ele>
<time>2015-12-27T06:50:53.687Z</time>
</trkpt>
<trkpt lat="-27.3469547" lon="152.8949634">
<ele>84.388</ele>
<time>2015-12-27T06:50:56.648Z</time>
</trkpt>
<trkpt lat="-27.3470566" lon="152.8954178">
<ele>87.386</ele>
<time>2015-12-27T06:50:58.689Z</time>
</trkpt>
<trkpt lat="-27.3472382" lon="152.8960806">
<ele>89.851</ele>
<time>2015-12-27T06:51:01.720Z</time>
</trkpt>
<trkpt lat="-27.3473796" lon="152.8965187">
<ele>91.578</ele>
<time>2015-12-27T06:51:03.801Z</time>
</trkpt>
<trkpt lat="-27.3475358" lon="152.8969194">
<ele>93.502</ele>
<time>2015-12-27T06:51:05.766Z</time>
</trkpt>
<trkpt lat="-27.3477030" lon="152.8975462">
<ele>96.179</ele>
<time>2015-12-27T06:51:08.672Z</time>
</trkpt>
<trkpt lat="-27.3477995" lon="152.8982004">
<ele>98.890</ele>
<time>2015-12-27T06:51:11.551Z</time>
</trkpt>
<trkpt lat="-27.3477945" lon="152.8986829">
<ele>100.904</ele>
<time>2015-12-27T06:51:13.626Z</time>
</trkpt>
<trkpt lat="-27.3478104" lon="152.8991297">
<ele>102.021</ele>
<time>2015-12-27T06:51:15.589Z</time>
</trkpt>
<trkpt lat="-27.3478329" lon="152.8997930">
<ele>102.133</ele>
<time>2015-12-27T06:51:18.544Z</time>
</trkpt>
<trkpt lat="-27.3478762" lon="152.9002274">
<ele>101.368</ele>
<time>2015-12-27T06:51:20.517Z</time>
</trkpt>
<trkpt lat="-27.3479205" lon="152.9006726">
<ele>100.298</ele>
<time>2015-12-27T06:51:22.549Z</time>
</trkpt>
<trkpt lat="-27.3480088" lon="152.9013200">
<ele>99.811</ele>
<time>2015-12-27T06:51:25.500Z</time>
</trkpt>
<trkpt lat="-27.3480760" lon="152.9017652">
<ele>100.621</ele>
<time>2015-12-27T06:51:27.485Z</time>
</trkpt>
<trkpt lat="-27.3481285" lon="152.9022089">
<ele>102.531</ele>
<time>2015-12-27T06:51:29.432Z</time>
</trkpt>
<trkpt lat="-27.3481660" lon="152.9026661">
<ele>104.428</ele>
<time>2015-12-27T06:51:31.421Z</time>
</trkpt>
<trkpt lat="-27.3481229" lon="152.9033494">
<ele>105.462</ele>
<time>2015-12-27T06:51:34.376Z</time>
</trkpt>
<trkpt lat="-27.3480135" lon="152.9038050">
<ele>105.568</ele>
<time>2015-12-27T06:51:36.391Z</time>
</trkpt>
<trkpt lat="-27.3476324" lon="152.9044001">
<ele>104.961</ele>
<time>2015-12-27T06:51:39.507Z</time>
</trkpt>
<trkpt lat="-27.3472965" lon="152.9050210">
<ele>103.355</ele>
<time>2015-12-27T06:51:42.605Z</time>
</trkpt>
<trkpt lat="-27.3470661" lon="152.9054034">
<ele>100.186</ele>
<time>2015-12-27T06:51:44.627Z</time>
</trkpt>
<trkpt lat="-27.3467592" lon="152.9059798">
<ele>95.899</ele>
<time>2015-12-27T06:51:47.586Z</time>
</trkpt>
<trkpt lat="-27.3463666" lon="152.9065056">
<ele>91.138</ele>
<time>2015-12-27T06:51:50.610Z</time>
</trkpt>
<trkpt lat="-27.3459635" lon="152.9070065">
<ele>86.096</ele>
<time>2015-12-27T06:51:53.600Z</time>
</trkpt>
<trkpt lat="-27.3455543" lon="152.9074784">
<ele>81.016</ele>
<time>2015-12-27T06:51:56.553Z</time>
</trkpt>
<trkpt lat="-27.3452756" lon="152.9077981">
<ele>75.855</ele>
<time>2015-12-27T06:51:58.569Z</time>
</trkpt>
<trkpt lat="-27.3450059" lon="152.9081401">
<ele>70.488</ele>
<time>2015-12-27T06:52:00.622Z</time>
</trkpt>
<trkpt lat="-27.3447438" lon="152.9084544">
<ele>65.283</ele>
<time>2015-12-27T06:52:02.543Z</time>
</trkpt>
<trkpt lat="-27.3444488" lon="152.9087972">
<ele>60.353</ele>
<time>2015-12-27T06:52:04.657Z</time>
</trkpt>
<trkpt lat="-27.3440366" lon="152.9092652">
<ele>56.101</ele>
<time>2015-12-27T06:52:07.594Z</time>
</trkpt>
<trkpt lat="-27.3437702" lon="152.9095734">
<ele>52.679</ele>
<time>2015-12-27T06:52:09.551Z</time>
</trkpt>
<trkpt lat="-27.3435375" lon="152.9099320">
<ele>49.085</ele>
<time>2015-12-27T06:52:11.583Z</time>
</trkpt>
<trkpt lat="-27.3433142" lon="152.9105217">
<ele>44.290</ele>
<time>2015-12-27T06:52:14.512Z</time>
</trkpt>
<trkpt lat="-27.3432315" lon="152.9109434">
<ele>38.542</ele>
<time>2015-12-27T06:52:16.475Z</time>
</trkpt>
<trkpt lat="-27.3431878" lon="152.9116058">
<ele>32.915</ele>
<time>2015-12-27T06:52:19.480Z</time>
</trkpt>
<trkpt lat="-27.3432220" lon="152.9120366">
<ele>28.715</ele>
<time>2015-12-27T06:52:21.433Z</time>
</trkpt>
<trkpt lat="-27.3433004" lon="152.9126628">
<ele>26.647</ele>
<time>2015-12-27T06:52:24.303Z</time>
</trkpt>
<trkpt lat="-27.3433663" lon="152.9131002">
<ele>27.046</ele>
<time>2015-12-27T06:52:26.340Z</time>
</trkpt>
<trkpt lat="-27.3434384" lon="152.9135148">
<ele>29.488</ele>
<time>2015-12-27T06:52:28.328Z</time>
</trkpt>
<trkpt lat="-27.3434669" lon="152.9141423">
<ele>32.609</ele>
<time>2015-12-27T06:52:31.350Z</time>
</trkpt>
<trkpt lat="-27.3434029" lon="152.9145459">
<ele>35.847</ele>
<time>2015-12-27T06:52:33.363Z</time>
</trkpt>
<trkpt lat="-27.3431850" lon="152.9150849">
<ele>39.414</ele>
<time>2015-12-27T06:52:36.287Z</time>
</trkpt>
<trkpt lat="-27.3428042" lon="152.9155226">
<ele>42.975</ele>
<time>2015-12-27T06:52:39.335Z</time>
</trkpt>
<trkpt lat="-27.3425222" lon="152.9157226">
<ele>46.558</ele>
<time>2015-12-27T06:52:41.222Z</time>
</trkpt>
<trkpt lat="-27.3422033" lon="152.9158377">
<ele>50.183</ele>
<time>2015-12-27T06:52:43.114Z</time>
</trkpt>
<trkpt lat="-27.3416648" lon="152.9159233">
<ele>53.289</ele>
<time>2015-12-27T06:52:46.153Z</time>
</trkpt>
<trkpt lat="-27.3413090" lon="152.9159051">
<ele>55.950</ele>
<time>2015-12-27T06:52:48.076Z</time>
</trkpt>
<trkpt lat="-27.3409404" lon="152.9157854">
<ele>58.683</ele>
<time>2015-12-27T06:52:50.075Z</time>
</trkpt>
<trkpt lat="-27.3405484" lon="152.9156666">
<ele>61.711</ele>
<time>2015-12-27T06:52:52.153Z</time>
</trkpt>
<trkpt lat="-27.3399872" lon="152.9154554">
<ele>64.992</ele>
<time>2015-12-27T06:52:55.194Z</time>
</trkpt>
<trkpt lat="-27.3396233" lon="152.9153519">
<ele>67.879</ele>
<time>2015-12-27T06:52:57.160Z</time>
</trkpt>
<trkpt lat="-27.3392759" lon="152.9152383">
<ele>69.837</ele>
<time>2015-12-27T06:52:59.065Z</time>
</trkpt>
<trkpt lat="-27.3387196" lon="152.9150712">
<ele>71.176</ele>
<time>2015-12-27T06:53:02.093Z</time>
</trkpt>
<trkpt lat="-27.3383462" lon="152.9149776">
<ele>72.336</ele>
<time>2015-12-27T06:53:04.102Z</time>
</trkpt>
<trkpt lat="-27.3377773" lon="152.9149042">
<ele>73.322</ele>
<time>2015-12-27T06:53:07.129Z</time>
</trkpt>
<trkpt lat="-27.3372299" lon="152.9149896">
<ele>73.971</ele>
<time>2015-12-27T06:53:10.082Z</time>
</trkpt>
<trkpt lat="-27.3368728" lon="152.9151226">
<ele>74.212</ele>
<time>2015-12-27T06:53:12.071Z</time>
</trkpt>
<trkpt lat="-27.3363823" lon="152.9154674">
<ele>74.323</ele>
<time>2015-12-27T06:53:15.109Z</time>
</trkpt>
<trkpt lat="-27.3359987" lon="152.9159133">
<ele>74.916</ele>
<time>2015-12-27T06:53:18.040Z</time>
</trkpt>
<trkpt lat="-27.3356278" lon="152.9163993">
<ele>76.135</ele>
<time>2015-12-27T06:53:21.110Z</time>
</trkpt>
<trkpt lat="-27.3351948" lon="152.9167937">
<ele>77.791</ele>
<time>2015-12-27T06:53:24.146Z</time>
</trkpt>
<trkpt lat="-27.3346838" lon="152.9169713">
<ele>80.136</ele>
<time>2015-12-27T06:53:27.102Z</time>
</trkpt>
<trkpt lat="-27.3341516" lon="152.9169093">
<ele>83.322</ele>
<time>2015-12-27T06:53:30.088Z</time>
</trkpt>
<trkpt lat="-27.3338054" lon="152.9168228">
<ele>87.357</ele>
<time>2015-12-27T06:53:32.162Z</time>
</trkpt>
<trkpt lat="-27.3333677" lon="152.9167741">
<ele>92.093</ele>
<time>2015-12-27T06:53:34.918Z</time>
</trkpt>
<trkpt lat="-27.3329381" lon="152.9168819">
<ele>96.336</ele>
<time>2015-12-27T06:53:37.898Z</time>
</trkpt>
<trkpt lat="-27.3326607" lon="152.9172636">
<ele>99.039</ele>
<time>2015-12-27T06:53:40.893Z</time>
</trkpt>
<trkpt lat="-27.3325786" lon="152.9176028">
<ele>100.502</ele>
<time>2015-12-27T06:53:42.910Z</time>
</trkpt>
<trkpt lat="-27.3325367" lon="152.9182003">
<ele>101.388</ele>
<time>2015-12-27T06:53:46.094Z</time>
</trkpt>
<trkpt lat="-27.3325138" lon="152.9185738">
<ele>102.070</ele>
<time>2015-12-27T06:53:48.030Z</time>
</trkpt>
<trkpt lat="-27.3323399" lon="152.9190760">
<ele>102.654</ele>
<time>2015-12-27T06:53:50.880Z</time>
</trkpt>
<trkpt lat="-27.3320374" lon="152.9195329">
<ele>102.893</ele>
<time>2015-12-27T06:53:53.880Z</time>
</trkpt>
<trkpt lat="-27.3315820" lon="152.9198708">
<ele>102.594</ele>
<time>2015-12-27T06:53:56.972Z</time>
</trkpt>
<trkpt lat="-27.3312642" lon="152.9200722">
<ele>101.908</ele>
<time>2015-12-27T06:53:58.985Z</time>
</trkpt>
<trkpt lat="-27.3309267" lon="152.9202765">
<ele>100.814</ele>
<time>2015-12-27T06:54:01.082Z</time>
</trkpt>
<trkpt lat="-27.3306620" lon="152.9205045">
<ele>99.141</ele>
<time>2015-12-27T06:54:02.913Z</time>
</trkpt>
<trkpt lat="-27.3303957" lon="152.9210335">
<ele>97.230</ele>
<time>2015-12-27T06:54:05.917Z</time>
</trkpt>
<trkpt lat="-27.3302665" lon="152.9213975">
<ele>95.788</ele>
<time>2015-12-27T06:54:07.870Z</time>
</trkpt>
<trkpt lat="-27.3303292" lon="152.9220331">
<ele>94.926</ele>
<time>2015-12-27T06:54:10.962Z</time>
</trkpt>
<trkpt lat="-27.3304429" lon="152.9224556">
<ele>94.256</ele>
<time>2015-12-27T06:54:12.936Z</time>
</trkpt>
<trkpt lat="-27.3306299" lon="152.9231702">
<ele>93.682</ele>
<time>2015-12-27T06:54:16.110Z</time>
</trkpt>
<trkpt lat="-27.3307109" lon="152.9236200">
<ele>92.994</ele>
<time>2015-12-27T06:54:18.044Z</time>
</trkpt>
<trkpt lat="-27.3307560" lon="152.9242989">
<ele>91.690</ele>
<time>2015-12-27T06:54:20.982Z</time>
</trkpt>
<trkpt lat="-27.3307533" lon="152.9249366">
<ele>89.964</ele>
<time>2015-12-27T06:54:23.870Z</time>
</trkpt>
<trkpt lat="-27.3307874" lon="152.9255978">
<ele>88.514</ele>
<time>2015-12-27T06:54:26.994Z</time>
</trkpt>
<trkpt lat="-27.3308928" lon="152.9259978">
<ele>87.582</ele>
<time>2015-12-27T06:54:28.957Z</time>
</trkpt>
<trkpt lat="-27.3310902" lon="152.9266056">
<ele>87.045</ele>
<time>2015-12-27T06:54:31.936Z</time>
</trkpt>
<trkpt lat="-27.3312008" lon="152.9270302">
<ele>86.693</ele>
<time>2015-12-27T06:54:33.966Z</time>
</trkpt>
<trkpt lat="-27.3312810" lon="152.9274363">
<ele>86.115</ele>
<time>2015-12-27T06:54:35.903Z</time>
</trkpt>
<trkpt lat="-27.3312184" lon="152.9278962">
<ele>85.185</ele>
<time>2015-12-27T06:54:38.074Z</time>
</trkpt>
<trkpt lat="-27.3311277" lon="152.9285110">
<ele>84.267</ele>
<time>2015-12-27T06:54:41.009Z</time>
</trkpt>
<trkpt lat="-27.3310186" lon="152.9288977">
<ele>83.737</ele>
<time>2015-12-27T06:54:42.968Z</time>
</trkpt>
<trkpt lat="-27.3307457" lon="152.9294298">
<ele>83.719</ele>
<time>2015-12-27T06:54:45.954Z</time>
</trkpt>
<trkpt lat="-27.3303631" lon="152.9298841">
<ele>84.241</ele>
<time>2015-12-27T06:54:48.968Z</time>
</trkpt>
<trkpt lat="-27.3300701" lon="152.9301533">
<ele>85.160</ele>
<time>2015-12-27T06:54:51.002Z</time>
</trkpt>
<trkpt lat="-27.3297972" lon="152.9304111">
<ele>86.067</ele>
<time>2015-12-27T06:54:52.936Z</time>
</trkpt>
<trkpt lat="-27.3294388" lon="152.9308745">
<ele>86.225</ele>
<time>2015-12-27T06:54:55.913Z</time>
</trkpt>
<trkpt lat="-27.3291480" lon="152.9314129">
<ele>85.166</ele>
<time>2015-12-27T06:54:58.961Z</time>
</trkpt>
<trkpt lat="-27.3288927" lon="152.9319411">
<ele>82.924</ele>
<time>2015-12-27T06:55:01.927Z</time>
</trkpt>
<trkpt lat="-27.3286395" lon="152.9324540">
<ele>79.872</ele>
<time>2015-12-27T06:55:04.943Z</time>
</trkpt>
<trkpt lat="-27.3284639" lon="152.9327627">
<ele>76.515</ele>
<time>2015-12-27T06:55:06.904Z</time>
</trkpt>
<trkpt lat="-27.3281908" lon="152.9332304">
<ele>73.661</ele>
<time>2015-12-27T06:55:09.933Z</time>
</trkpt>
<trkpt lat="-27.3280401" lon="152.9335509">
<ele>72.210</ele>
<time>2015-12-27T06:55:11.917Z</time>
</trkpt>
<trkpt lat="-27.3278098" lon="152.9340150">
<ele>72.243</ele>
<time>2015-12-27T06:55:14.881Z</time>
</trkpt>
<trkpt lat="-27.3277166" lon="152.9345280">
<ele>72.462</ele>
<time>2015-12-27T06:55:17.841Z</time>
</trkpt>
<trkpt lat="-27.3277281" lon="152.9348876">
<ele>71.848</ele>
<time>2015-12-27T06:55:19.907Z</time>
</trkpt>
<trkpt lat="-27.3279118" lon="152.9353449">
<ele>70.242</ele>
<time>2015-12-27T06:55:22.805Z</time>
</trkpt>
<trkpt lat="-27.3282321" lon="152.9357370">
<ele>67.608</ele>
<time>2015-12-27T06:55:25.818Z</time>
</trkpt>
<trkpt lat="-27.3286485" lon="152.9360676">
<ele>64.657</ele>
<time>2015-12-27T06:55:28.902Z</time>
</trkpt>
<trkpt lat="-27.3289476" lon="152.9362955">
<ele>62.768</ele>
<time>2015-12-27T06:55:31.010Z</time>
</trkpt>
<trkpt lat="-27.3292678" lon="152.9367110">
<ele>62.246</ele>
<time>2015-12-27T06:55:33.856Z</time>
</trkpt>
<trkpt lat="-27.3294576" lon="152.9370336">
<ele>62.199</ele>
<time>2015-12-27T06:55:35.852Z</time>
</trkpt>
<trkpt lat="-27.3296381" lon="152.9375939">
<ele>61.698</ele>
<time>2015-12-27T06:55:38.889Z</time>
</trkpt>
<trkpt lat="-27.3296760" lon="152.9379981">
<ele>60.242</ele>
<time>2015-12-27T06:55:40.893Z</time>
</trkpt>
<trkpt lat="-27.3296801" lon="152.9384112">
<ele>58.088</ele>
<time>2015-12-27T06:55:42.850Z</time>
</trkpt>
<trkpt lat="-27.3296517" lon="152.9388657">
<ele>55.899</ele>
<time>2015-12-27T06:55:44.914Z</time>
</trkpt>
<trkpt lat="-27.3296065" lon="152.9395579">
<ele>53.668</ele>
<time>2015-12-27T06:55:47.955Z</time>
</trkpt>
<trkpt lat="-27.3295392" lon="152.9402462">
<ele>50.758</ele>
<time>2015-12-27T06:55:50.926Z</time>
</trkpt>
<trkpt lat="-27.3295069" lon="152.9407175">
<ele>46.375</ele>
<time>2015-12-27T06:55:52.994Z</time>
</trkpt>
<trkpt lat="-27.3294696" lon="152.9413688">
<ele>40.779</ele>
<time>2015-12-27T06:55:55.934Z</time>
</trkpt>
<trkpt lat="-27.3294194" lon="152.9420114">
<ele>35.683</ele>
<time>2015-12-27T06:55:58.891Z</time>
</trkpt>
<trkpt lat="-27.3293898" lon="152.9424518">
<ele>32.396</ele>
<time>2015-12-27T06:56:00.890Z</time>
</trkpt>
<trkpt lat="-27.3293385" lon="152.9431098">
<ele>30.918</ele>
<time>2015-12-27T06:56:03.876Z</time>
</trkpt>
<trkpt lat="-27.3293053" lon="152.9435456">
<ele>30.393</ele>
<time>2015-12-27T06:56:05.873Z</time>
</trkpt>
<trkpt lat="-27.3292790" lon="152.9439941">
<ele>29.856</ele>
<time>2015-12-27T06:56:07.923Z</time>
</trkpt>
<trkpt lat="-27.3292450" lon="152.9444536">
<ele>29.489</ele>
<time>2015-12-27T06:56:10.003Z</time>
</trkpt>
<trkpt lat="-27.3291794" lon="152.9451270">
<ele>30.005</ele>
<time>2015-12-27T06:56:13.033Z</time>
</trkpt>
<trkpt lat="-27.3291358" lon="152.9455732">
<ele>31.796</ele>
<time>2015-12-27T06:56:15.048Z</time>
</trkpt>
<trkpt lat="-27.3291056" lon="152.9461911">
<ele>34.460</ele>
<time>2015-12-27T06:56:17.846Z</time>
</trkpt>
<trkpt lat="-27.3291146" lon="152.9466489">
<ele>36.763</ele>
<time>2015-12-27T06:56:19.895Z</time>
</trkpt>
<trkpt lat="-27.3291501" lon="152.9470621">
<ele>37.516</ele>
<time>2015-12-27T06:56:21.725Z</time>
</trkpt>
<trkpt lat="-27.3292020" lon="152.9475285">
<ele>36.301</ele>
<time>2015-12-27T06:56:23.790Z</time>
</trkpt>
<trkpt lat="-27.3293513" lon="152.9481858">
<ele>33.977</ele>
<time>2015-12-27T06:56:26.805Z</time>
</trkpt>
<trkpt lat="-27.3295527" lon="152.9488070">
<ele>32.446</ele>
<time>2015-12-27T06:56:29.813Z</time>
</trkpt>
<trkpt lat="-27.3297070" lon="152.9491878">
<ele>32.631</ele>
<time>2015-12-27T06:56:31.767Z</time>
</trkpt>
<trkpt lat="-27.3298564" lon="152.9495869">
<ele>33.675</ele>
<time>2015-12-27T06:56:33.846Z</time>
</trkpt>
<trkpt lat="-27.3300667" lon="152.9501553">
<ele>34.219</ele>
<time>2015-12-27T06:56:36.853Z</time>
</trkpt>
<trkpt lat="-27.3302945" lon="152.9507216">
<ele>33.465</ele>
<time>2015-12-27T06:56:39.860Z</time>
</trkpt>
<trkpt lat="-27.3305107" lon="152.9513262">
<ele>31.230</ele>
<time>2015-12-27T06:56:42.939Z</time>
</trkpt>
<trkpt lat="-27.3306718" lon="152.9516961">
<ele>28.291</ele>
<time>2015-12-27T06:56:44.889Z</time>
</trkpt>
<trkpt lat="-27.3309331" lon="152.9522458">
<ele>25.825</ele>
<time>2015-12-27T06:56:47.909Z</time>
</trkpt>
<trkpt lat="-27.3311248" lon="152.9525689">
<ele>24.052</ele>
<time>2015-12-27T06:56:49.901Z</time>
</trkpt>
<trkpt lat="-27.3312980" lon="152.9528831">
<ele>22.430</ele>
<time>2015-12-27T06:56:51.879Z</time>
</trkpt>
<trkpt lat="-27.3315301" lon="152.9532695">
<ele>20.739</ele>
<time>2015-12-27T06:56:54.551Z</time>
</trkpt>
<trkpt lat="-27.3316991" lon="152.9535413">
<ele>18.781</ele>
<time>2015-12-27T06:56:56.543Z</time>
</trkpt>
<trkpt lat="-27.3319656" lon="152.9539353">
<ele>16.554</ele>
<time>2015-12-27T06:56:59.548Z</time>
</trkpt>
<trkpt lat="-27.3321337" lon="152.9542074">
<ele>14.689</ele>
<time>2015-12-27T06:57:01.547Z</time>
</trkpt>
<trkpt lat="-27.3322891" lon="152.9544635">
<ele>13.557</ele>
<time>2015-12-27T06:57:03.422Z</time>
</trkpt>
<trkpt lat="-27.3325328" lon="152.9548850">
<ele>12.763</ele>
<time>2015-12-27T06:57:06.473Z</time>
</trkpt>
<trkpt lat="-27.3327815" lon="152.9552697">
<ele>11.892</ele>
<time>2015-12-27T06:57:09.395Z</time>
</trkpt>
<trkpt lat="-27.3329492" lon="152.9555628">
<ele>10.974</ele>
<time>2015-12-27T06:57:11.519Z</time>
</trkpt>
<trkpt lat="-27.3331954" lon="152.9559869">
<ele>10.192</ele>
<time>2015-12-27T06:57:14.543Z</time>
</trkpt>
<trkpt lat="-27.3333654" lon="152.9562627">
<ele>9.606</ele>
<time>2015-12-27T06:57:16.527Z</time>
</trkpt>
<trkpt lat="-27.3336532" lon="152.9566702">
<ele>9.189</ele>
<time>2015-12-27T06:57:19.594Z</time>
</trkpt>
<trkpt lat="-27.3339711" lon="152.9570456">
<ele>8.814</ele>
<time>2015-12-27T06:57:22.657Z</time>
</trkpt>
<trkpt lat="-27.3341783" lon="152.9572789">
<ele>8.229</ele>
<time>2015-12-27T06:57:24.613Z</time>
</trkpt>
<trkpt lat="-27.3343789" lon="152.9575161">
<ele>7.458</ele>
<time>2015-12-27T06:57:26.557Z</time>
</trkpt>
<trkpt lat="-27.3345915" lon="152.9577689">
<ele>6.822</ele>
<time>2015-12-27T06:57:28.622Z</time>
</trkpt>
<trkpt lat="-27.3348874" lon="152.9581202">
<ele>6.582</ele>
<time>2015-12-27T06:57:31.487Z</time>
</trkpt>
<trkpt lat="-27.3351006" lon="152.9583568">
<ele>6.764</ele>
<time>2015-12-27T06:57:33.491Z</time>
</trkpt>
<trkpt lat="-27.3353864" lon="152.9587046">
<ele>7.161</ele>
<time>2015-12-27T06:57:36.344Z</time>
</trkpt>
<trkpt lat="-27.3356970" lon="152.9591013">
<ele>7.895</ele>
<time>2015-12-27T06:57:39.562Z</time>
</trkpt>
<trkpt lat="-27.3358388" lon="152.9593969">
<ele>9.120</ele>
<time>2015-12-27T06:57:41.635Z</time>
</trkpt>
<trkpt lat="-27.3359393" lon="152.9598595">
<ele>10.290</ele>
<time>2015-12-27T06:57:44.711Z</time>
</trkpt>
<trkpt lat="-27.3359864" lon="152.9602132">
<ele>10.851</ele>
<time>2015-12-27T06:57:47.418Z</time>
</trkpt>
<trkpt lat="-27.3360184" lon="152.9604495">
<ele>10.702</ele>
<time>2015-12-27T06:57:49.999Z</time>
</trkpt>
<trkpt lat="-27.3360184" lon="152.9604495">
<ele>9.988</ele>
<time>2015-12-27T06:57:54.999Z</time>
</trkpt>
<trkpt lat="-27.3360184" lon="152.9604495">
<ele>9.391</ele>
<time>2015-12-27T06:58:33.286Z</time>
</trkpt>
<trkpt lat="-27.3360986" lon="152.9606808">
<ele>9.397</ele>
<time>2015-12-27T06:58:39.700Z</time>
</trkpt>
<trkpt lat="-27.3362094" lon="152.9607875">
<ele>9.305</ele>
<time>2015-12-27T06:58:41.598Z</time>
</trkpt>
<trkpt lat="-27.3363834" lon="152.9608128">
<ele>8.489</ele>
<time>2015-12-27T06:58:43.379Z</time>
</trkpt>
<trkpt lat="-27.3365989" lon="152.9608139">
<ele>7.520</ele>
<time>2015-12-27T06:58:45.242Z</time>
</trkpt>
<trkpt lat="-27.3369447" lon="152.9607494">
<ele>7.212</ele>
<time>2015-12-27T06:58:48.131Z</time>
</trkpt>
<trkpt lat="-27.3371612" lon="152.9607189">
<ele>7.700</ele>
<time>2015-12-27T06:58:50.012Z</time>
</trkpt>
<trkpt lat="-27.3373826" lon="152.9606878">
<ele>8.574</ele>
<time>2015-12-27T06:58:52.243Z</time>
</trkpt>
<trkpt lat="-27.3376130" lon="152.9606578">
<ele>9.235</ele>
<time>2015-12-27T06:58:55.229Z</time>
</trkpt>
<trkpt lat="-27.3377156" lon="152.9606367">
<ele>9.323</ele>
<time>2015-12-27T06:58:56.999Z</time>
</trkpt>
<trkpt lat="-27.3377156" lon="152.9606367">
<ele>8.915</ele>
<time>2015-12-27T06:59:06.999Z</time>
</trkpt>
<trkpt lat="-27.3377156" lon="152.9606367">
<ele>8.525</ele>
<time>2015-12-27T06:59:18.376Z</time>
</trkpt>
<trkpt lat="-27.3379249" lon="152.9605994">
<ele>8.523</ele>
<time>2015-12-27T06:59:24.795Z</time>
</trkpt>
<trkpt lat="-27.3380466" lon="152.9605521">
<ele>8.726</ele>
<time>2015-12-27T06:59:26.205Z</time>
</trkpt>
<trkpt lat="-27.3386898" lon="152.9605981">
<ele>9.060</ele>
<time>2015-12-27T06:59:32.109Z</time>
</trkpt>
<trkpt lat="-27.3394111" lon="152.9608873">
<ele>9.516</ele>
<time>2015-12-27T06:59:37.595Z</time>
</trkpt>
<trkpt lat="-27.3396794" lon="152.9609880">
<ele>9.943</ele>
<time>2015-12-27T06:59:39.338Z</time>
</trkpt>
<trkpt lat="-27.3400345" lon="152.9610744">
<ele>9.960</ele>
<time>2015-12-27T06:59:41.474Z</time>
</trkpt>
<trkpt lat="-27.3405635" lon="152.9610933">
<ele>9.360</ele>
<time>2015-12-27T06:59:44.481Z</time>
</trkpt>
<trkpt lat="-27.3410969" lon="152.9611382">
<ele>7.856</ele>
<time>2015-12-27T06:59:47.392Z</time>
</trkpt>
<trkpt lat="-27.3416320" lon="152.9611804">
<ele>5.781</ele>
<time>2015-12-27T06:59:50.274Z</time>
</trkpt>
<trkpt lat="-27.3419419" lon="152.9611667">
<ele>4.148</ele>
<time>2015-12-27T06:59:51.948Z</time>
</trkpt>
<trkpt lat="-27.3424856" lon="152.9612190">
<ele>3.139</ele>
<time>2015-12-27T06:59:54.887Z</time>
</trkpt>
<trkpt lat="-27.3428589" lon="152.9612637">
<ele>2.163</ele>
<time>2015-12-27T06:59:56.911Z</time>
</trkpt>
<trkpt lat="-27.3433882" lon="152.9614034">
<ele>1.293</ele>
<time>2015-12-27T06:59:59.907Z</time>
</trkpt>
<trkpt lat="-27.3438755" lon="152.9615878">
<ele>0.910</ele>
<time>2015-12-27T07:00:02.947Z</time>
</trkpt>
<trkpt lat="-27.3442788" lon="152.9618727">
<ele>1.443</ele>
<time>2015-12-27T07:00:06.095Z</time>
</trkpt>
<trkpt lat="-27.3446132" lon="152.9621723">
<ele>3.104</ele>
<time>2015-12-27T07:00:09.171Z</time>
</trkpt>
<trkpt lat="-27.3448546" lon="152.9624319">
<ele>5.108</ele>
<time>2015-12-27T07:00:11.531Z</time>
</trkpt>
<trkpt lat="-27.3451674" lon="152.9628167">
<ele>6.510</ele>
<time>2015-12-27T07:00:14.647Z</time>
</trkpt>
<trkpt lat="-27.3453552" lon="152.9630818">
<ele>7.473</ele>
<time>2015-12-27T07:00:16.607Z</time>
</trkpt>
<trkpt lat="-27.3455999" lon="152.9635174">
<ele>8.420</ele>
<time>2015-12-27T07:00:19.503Z</time>
</trkpt>
<trkpt lat="-27.3458030" lon="152.9637971">
<ele>9.228</ele>
<time>2015-12-27T07:00:21.529Z</time>
</trkpt>
<trkpt lat="-27.3460880" lon="152.9642053">
<ele>9.680</ele>
<time>2015-12-27T07:00:24.488Z</time>
</trkpt>
<trkpt lat="-27.3462683" lon="152.9644793">
<ele>9.804</ele>
<time>2015-12-27T07:00:26.421Z</time>
</trkpt>
<trkpt lat="-27.3465437" lon="152.9648870">
<ele>9.595</ele>
<time>2015-12-27T07:00:29.318Z</time>
</trkpt>
<trkpt lat="-27.3466809" lon="152.9650598">
<ele>9.057</ele>
<time>2015-12-27T07:00:30.625Z</time>
</trkpt>
<trkpt lat="-27.3470096" lon="152.9653744">
<ele>8.380</ele>
<time>2015-12-27T07:00:33.283Z</time>
</trkpt>
<trkpt lat="-27.3472922" lon="152.9655862">
<ele>7.973</ele>
<time>2015-12-27T07:00:35.320Z</time>
</trkpt>
<trkpt lat="-27.3477476" lon="152.9658471">
<ele>8.028</ele>
<time>2015-12-27T07:00:38.370Z</time>
</trkpt>
<trkpt lat="-27.3482404" lon="152.9660428">
<ele>8.611</ele>
<time>2015-12-27T07:00:41.438Z</time>
</trkpt>
<trkpt lat="-27.3485709" lon="152.9661652">
<ele>9.713</ele>
<time>2015-12-27T07:00:43.430Z</time>
</trkpt>
<trkpt lat="-27.3488961" lon="152.9662782">
<ele>10.872</ele>
<time>2015-12-27T07:00:45.365Z</time>
</trkpt>
<trkpt lat="-27.3493876" lon="152.9664350">
<ele>11.585</ele>
<time>2015-12-27T07:00:48.328Z</time>
</trkpt>
<trkpt lat="-27.3498863" lon="152.9665221">
<ele>12.204</ele>
<time>2015-12-27T07:00:51.367Z</time>
</trkpt>
<trkpt lat="-27.3502290" lon="152.9665287">
<ele>13.608</ele>
<time>2015-12-27T07:00:53.497Z</time>
</trkpt>
<trkpt lat="-27.3507303" lon="152.9665235">
<ele>16.142</ele>
<time>2015-12-27T07:00:56.610Z</time>
</trkpt>
<trkpt lat="-27.3512451" lon="152.9665440">
<ele>19.159</ele>
<time>2015-12-27T07:00:59.693Z</time>
</trkpt>
<trkpt lat="-27.3515826" lon="152.9666050">
<ele>21.921</ele>
<time>2015-12-27T07:01:01.641Z</time>
</trkpt>
<trkpt lat="-27.3519343" lon="152.9667136">
<ele>24.261</ele>
<time>2015-12-27T07:01:03.656Z</time>
</trkpt>
<trkpt lat="-27.3524102" lon="152.9669732">
<ele>26.053</ele>
<time>2015-12-27T07:01:06.392Z</time>
</trkpt>
<trkpt lat="-27.3527357" lon="152.9672233">
<ele>26.807</ele>
<time>2015-12-27T07:01:08.293Z</time>
</trkpt>
<trkpt lat="-27.3530667" lon="152.9675413">
<ele>26.233</ele>
<time>2015-12-27T07:01:10.344Z</time>
</trkpt>
<trkpt lat="-27.3535159" lon="152.9680664">
<ele>24.775</ele>
<time>2015-12-27T07:01:13.505Z</time>
</trkpt>
<trkpt lat="-27.3540393" lon="152.9686292">
<ele>22.326</ele>
<time>2015-12-27T07:01:17.162Z</time>
</trkpt>
<trkpt lat="-27.3544124" lon="152.9689802">
<ele>21.295</ele>
<time>2015-12-27T07:01:19.678Z</time>
</trkpt>
<trkpt lat="-27.3546942" lon="152.9691533">
<ele>20.404</ele>
<time>2015-12-27T07:01:21.424Z</time>
</trkpt>
<trkpt lat="-27.3551383" lon="152.9693781">
<ele>20.018</ele>
<time>2015-12-27T07:01:24.180Z</time>
</trkpt>
<trkpt lat="-27.3554628" lon="152.9694966">
<ele>20.342</ele>
<time>2015-12-27T07:01:26.213Z</time>
</trkpt>
<trkpt lat="-27.3559334" lon="152.9695764">
<ele>21.262</ele>
<time>2015-12-27T07:01:29.079Z</time>
</trkpt>
<trkpt lat="-27.3564022" lon="152.9695608">
<ele>21.810</ele>
<time>2015-12-27T07:01:31.936Z</time>
</trkpt>
<trkpt lat="-27.3568733" lon="152.9695454">
<ele>21.047</ele>
<time>2015-12-27T07:01:34.966Z</time>
</trkpt>
<trkpt lat="-27.3572616" lon="152.9696035">
<ele>18.938</ele>
<time>2015-12-27T07:01:38.000Z</time>
</trkpt>
<trkpt lat="-27.3574836" lon="152.9695748">
<ele>15.717</ele>
<time>2015-12-27T07:01:40.242Z</time>
</trkpt>
<trkpt lat="-27.3576295" lon="152.9693817">
<ele>11.981</ele>
<time>2015-12-27T07:01:43.049Z</time>
</trkpt>
<trkpt lat="-27.3577099" lon="152.9692057">
<ele>9.000</ele>
<time>2015-12-27T07:01:45.173Z</time>
</trkpt>
<trkpt lat="-27.3577848" lon="152.9690453">
<ele>7.577</ele>
<time>2015-12-27T07:01:47.499Z</time>
</trkpt>
<trkpt lat="-27.3579942" lon="152.9690864">
<ele>7.346</ele>
<time>2015-12-27T07:01:51.555Z</time>
</trkpt>
<trkpt lat="-27.3580999" lon="152.9691433">
<ele>7.559</ele>
<time>2015-12-27T07:01:53.845Z</time>
</trkpt>
<trkpt lat="-27.3582089" lon="152.9692019">
<ele>7.816</ele>
<time>2015-12-27T07:01:56.043Z</time>
</trkpt>
<trkpt lat="-27.3583079" lon="152.9692577">
<ele>8.021</ele>
<time>2015-12-27T07:01:58.273Z</time>
</trkpt>
<trkpt lat="-27.3582675" lon="152.9694114">
<ele>7.998</ele>
<time>2015-12-27T07:02:02.401Z</time>
</trkpt>
<trkpt lat="-27.3581981" lon="152.9694996">
<ele>7.651</ele>
<time>2015-12-27T07:02:06.995Z</time>
</trkpt>
<trkpt lat="-27.3581981" lon="152.9694996">
<ele>7.249</ele>
<time>2015-12-27T07:02:20.000Z</time>
</trkpt>
<trkpt lat="-27.3581981" lon="152.9694996">
<ele>7.069</ele>
<time>2015-12-27T07:12:00.150Z</time>
</trkpt>
<trkpt lat="-27.3580353" lon="152.9694761">
<ele>7.088</ele>
<time>2015-12-27T07:13:12.000Z</time>
</trkpt>
<trkpt lat="-27.3580353" lon="152.9694761">
<ele>7.153</ele>
<time>2015-12-27T07:13:28.000Z</time>
</trkpt>
<trkpt lat="-27.3580353" lon="152.9694761">
<ele>7.155</ele>
<time>2015-12-27T07:13:54.641Z</time>
</trkpt>
<trkpt lat="-27.3581828" lon="152.9691879">
<ele>7.115</ele>
<time>2015-12-27T07:14:33.202Z</time>
</trkpt>
<trkpt lat="-27.3582703" lon="152.9692350">
<ele>6.682</ele>
<time>2015-12-27T07:14:37.385Z</time>
</trkpt>
<trkpt lat="-27.3583519" lon="152.9692789">
<ele>5.617</ele>
<time>2015-12-27T07:14:40.087Z</time>
</trkpt>
<trkpt lat="-27.3584597" lon="152.9693370">
<ele>4.533</ele>
<time>2015-12-27T07:14:42.919Z</time>
</trkpt>
<trkpt lat="-27.3585676" lon="152.9693951">
<ele>4.028</ele>
<time>2015-12-27T07:14:45.498Z</time>
</trkpt>
<trkpt lat="-27.3586824" lon="152.9694569">
<ele>3.976</ele>
<time>2015-12-27T07:14:48.102Z</time>
</trkpt>
<trkpt lat="-27.3587975" lon="152.9695188">
<ele>4.128</ele>
<time>2015-12-27T07:14:50.924Z</time>
</trkpt>
<trkpt lat="-27.3588889" lon="152.9695680">
<ele>4.325</ele>
<time>2015-12-27T07:14:54.434Z</time>
</trkpt>
<trkpt lat="-27.3589717" lon="152.9696126">
<ele>4.489</ele>
<time>2015-12-27T07:14:57.653Z</time>
</trkpt>
<trkpt lat="-27.3589877" lon="152.9695024">
<ele>4.579</ele>
<time>2015-12-27T07:15:02.000Z</time>
</trkpt>
<trkpt lat="-27.3589877" lon="152.9695024">
<ele>4.595</ele>
<time>2015-12-27T07:15:11.000Z</time>
</trkpt>
<trkpt lat="-27.3589877" lon="152.9695024">
<ele>4.581</ele>
<time>2015-12-27T07:21:28.725Z</time>
</trkpt>
<trkpt lat="-27.3587672" lon="152.9695025">
<ele>4.575</ele>
<time>2015-12-27T07:21:42.993Z</time>
</trkpt>
<trkpt lat="-27.3586771" lon="152.9694540">
<ele>7.775</ele>
<time>2015-12-27T07:21:46.280Z</time>
</trkpt>
<trkpt lat="-27.3585867" lon="152.9694054">
<ele>16.128</ele>
<time>2015-12-27T07:21:49.782Z</time>
</trkpt>
<trkpt lat="-27.3585799" lon="152.9692899">
<ele>24.733</ele>
<time>2015-12-27T07:21:53.837Z</time>
</trkpt>
<trkpt lat="-27.3585247" lon="152.9693719">
<ele>28.833</ele>
<time>2015-12-27T07:21:57.247Z</time>
</trkpt>
<trkpt lat="-27.3584383" lon="152.9693255">
<ele>29.349</ele>
<time>2015-12-27T07:21:59.515Z</time>
</trkpt>
<trkpt lat="-27.3583502" lon="152.9692780">
<ele>28.384</ele>
<time>2015-12-27T07:22:01.483Z</time>
</trkpt>
<trkpt lat="-27.3582561" lon="152.9692274">
<ele>27.463</ele>
<time>2015-12-27T07:22:03.648Z</time>
</trkpt>
<trkpt lat="-27.3581316" lon="152.9691604">
<ele>27.159</ele>
<time>2015-12-27T07:22:06.913Z</time>
</trkpt>
<trkpt lat="-27.3580047" lon="152.9690921">
<ele>27.339</ele>
<time>2015-12-27T07:22:10.796Z</time>
</trkpt>
<trkpt lat="-27.3579235" lon="152.9690474">
<ele>27.673</ele>
<time>2015-12-27T07:22:12.457Z</time>
</trkpt>
<trkpt lat="-27.3578510" lon="152.9689044">
<ele>27.905</ele>
<time>2015-12-27T07:22:14.259Z</time>
</trkpt>
<trkpt lat="-27.3579018" lon="152.9687840">
<ele>27.964</ele>
<time>2015-12-27T07:22:15.408Z</time>
</trkpt>
<trkpt lat="-27.3579900" lon="152.9685849">
<ele>27.990</ele>
<time>2015-12-27T07:22:17.235Z</time>
</trkpt>
<trkpt lat="-27.3580918" lon="152.9683593">
<ele>28.152</ele>
<time>2015-12-27T07:22:19.008Z</time>
</trkpt>
<trkpt lat="-27.3582972" lon="152.9679506">
<ele>28.654</ele>
<time>2015-12-27T07:22:21.817Z</time>
</trkpt>
<trkpt lat="-27.3585143" lon="152.9675065">
<ele>29.858</ele>
<time>2015-12-27T07:22:24.795Z</time>
</trkpt>
<trkpt lat="-27.3587026" lon="152.9670816">
<ele>31.905</ele>
<time>2015-12-27T07:22:27.610Z</time>
</trkpt>
<trkpt lat="-27.3588045" lon="152.9665879">
<ele>34.188</ele>
<time>2015-12-27T07:22:30.594Z</time>
</trkpt>
<trkpt lat="-27.3587843" lon="152.9660869">
<ele>35.999</ele>
<time>2015-12-27T07:22:33.578Z</time>
</trkpt>
<trkpt lat="-27.3586601" lon="152.9656190">
<ele>37.577</ele>
<time>2015-12-27T07:22:36.550Z</time>
</trkpt>
<trkpt lat="-27.3584608" lon="152.9652080">
<ele>39.360</ele>
<time>2015-12-27T07:22:39.441Z</time>
</trkpt>
<trkpt lat="-27.3581991" lon="152.9648471">
<ele>40.971</ele>
<time>2015-12-27T07:22:42.308Z</time>
</trkpt>
<trkpt lat="-27.3580230" lon="152.9646293">
<ele>41.853</ele>
<time>2015-12-27T07:22:44.107Z</time>
</trkpt>
<trkpt lat="-27.3577314" lon="152.9643189">
<ele>41.952</ele>
<time>2015-12-27T07:22:46.839Z</time>
</trkpt>
<trkpt lat="-27.3575061" lon="152.9640831">
<ele>41.242</ele>
<time>2015-12-27T07:22:48.928Z</time>
</trkpt>
<trkpt lat="-27.3573199" lon="152.9638782">
<ele>39.653</ele>
<time>2015-12-27T07:22:50.714Z</time>
</trkpt>
<trkpt lat="-27.3570067" lon="152.9635299">
<ele>37.413</ele>
<time>2015-12-27T07:22:53.725Z</time>
</trkpt>
<trkpt lat="-27.3567990" lon="152.9632878">
<ele>34.904</ele>
<time>2015-12-27T07:22:55.793Z</time>
</trkpt>
<trkpt lat="-27.3565943" lon="152.9628669">
<ele>32.476</ele>
<time>2015-12-27T07:22:58.794Z</time>
</trkpt>
<trkpt lat="-27.3564613" lon="152.9625931">
<ele>30.426</ele>
<time>2015-12-27T07:23:00.874Z</time>
</trkpt>
<trkpt lat="-27.3562293" lon="152.9622651">
<ele>28.829</ele>
<time>2015-12-27T07:23:03.794Z</time>
</trkpt>
<trkpt lat="-27.3561115" lon="152.9620352">
<ele>27.683</ele>
<time>2015-12-27T07:23:05.719Z</time>
</trkpt>
<trkpt lat="-27.3559178" lon="152.9616809">
<ele>26.971</ele>
<time>2015-12-27T07:23:08.849Z</time>
</trkpt>
<trkpt lat="-27.3557917" lon="152.9613970">
<ele>26.583</ele>
<time>2015-12-27T07:23:11.493Z</time>
</trkpt>
<trkpt lat="-27.3557916" lon="152.9611694">
<ele>26.369</ele>
<time>2015-12-27T07:23:13.506Z</time>
</trkpt>
<trkpt lat="-27.3555420" lon="152.9607842">
<ele>26.197</ele>
<time>2015-12-27T07:23:17.459Z</time>
</trkpt>
<trkpt lat="-27.3554553" lon="152.9605621">
<ele>26.205</ele>
<time>2015-12-27T07:23:19.201Z</time>
</trkpt>
<trkpt lat="-27.3553488" lon="152.9602940">
<ele>26.511</ele>
<time>2015-12-27T07:23:21.244Z</time>
</trkpt>
<trkpt lat="-27.3552448" lon="152.9600320">
<ele>26.886</ele>
<time>2015-12-27T07:23:23.253Z</time>
</trkpt>
<trkpt lat="-27.3551401" lon="152.9597727">
<ele>27.036</ele>
<time>2015-12-27T07:23:25.281Z</time>
</trkpt>
<trkpt lat="-27.3550182" lon="152.9593892">
<ele>26.941</ele>
<time>2015-12-27T07:23:28.212Z</time>
</trkpt>
<trkpt lat="-27.3549754" lon="152.9591155">
<ele>26.773</ele>
<time>2015-12-27T07:23:30.229Z</time>
</trkpt>
<trkpt lat="-27.3549656" lon="152.9589948">
<ele>26.655</ele>
<time>2015-12-27T07:23:31.109Z</time>
</trkpt>
<trkpt lat="-27.3549414" lon="152.9584355">
<ele>26.580</ele>
<time>2015-12-27T07:23:35.156Z</time>
</trkpt>
<trkpt lat="-27.3549274" lon="152.9580612">
<ele>26.515</ele>
<time>2015-12-27T07:23:37.940Z</time>
</trkpt>
<trkpt lat="-27.3549185" lon="152.9578202">
<ele>26.211</ele>
<time>2015-12-27T07:23:39.996Z</time>
</trkpt>
<trkpt lat="-27.3549093" lon="152.9575721">
<ele>25.382</ele>
<time>2015-12-27T07:23:42.511Z</time>
</trkpt>
<trkpt lat="-27.3549821" lon="152.9573768">
<ele>24.006</ele>
<time>2015-12-27T07:23:45.376Z</time>
</trkpt>
<trkpt lat="-27.3551883" lon="152.9573249">
<ele>22.457</ele>
<time>2015-12-27T07:23:48.451Z</time>
</trkpt>
<trkpt lat="-27.3554687" lon="152.9572848">
<ele>21.339</ele>
<time>2015-12-27T07:23:51.536Z</time>
</trkpt>
<trkpt lat="-27.3557805" lon="152.9571883">
<ele>21.006</ele>
<time>2015-12-27T07:23:54.606Z</time>
</trkpt>
<trkpt lat="-27.3560078" lon="152.9570572">
<ele>21.338</ele>
<time>2015-12-27T07:23:57.123Z</time>
</trkpt>
<trkpt lat="-27.3561595" lon="152.9569673">
<ele>21.958</ele>
<time>2015-12-27T07:23:58.990Z</time>
</trkpt>
<trkpt lat="-27.3563462" lon="152.9568218">
<ele>22.432</ele>
<time>2015-12-27T07:24:01.592Z</time>
</trkpt>
<trkpt lat="-27.3564743" lon="152.9567220">
<ele>22.635</ele>
<time>2015-12-27T07:24:03.569Z</time>
</trkpt>
<trkpt lat="-27.3565692" lon="152.9566480">
<ele>22.696</ele>
<time>2015-12-27T07:24:05.256Z</time>
</trkpt>
<trkpt lat="-27.3566489" lon="152.9565859">
<ele>22.718</ele>
<time>2015-12-27T07:24:06.999Z</time>
</trkpt>
<trkpt lat="-27.3566489" lon="152.9565859">
<ele>22.728</ele>
<time>2015-12-27T07:24:11.999Z</time>
</trkpt>
<trkpt lat="-27.3566489" lon="152.9565859">
<ele>22.723</ele>
<time>2015-12-27T07:24:24.036Z</time>
</trkpt>
<trkpt lat="-27.3568679" lon="152.9567080">
<ele>22.709</ele>
<time>2015-12-27T07:26:05.234Z</time>
</trkpt>
<trkpt lat="-27.3568986" lon="152.9568087">
<ele>23.160</ele>
<time>2015-12-27T07:26:44.047Z</time>
</trkpt>
<trkpt lat="-27.3569269" lon="152.9563026">
<ele>25.552</ele>
<time>2015-12-27T07:29:49.000Z</time>
</trkpt>
<trkpt lat="-27.3569269" lon="152.9563026">
<ele>26.020</ele>
<time>2015-12-27T07:29:57.000Z</time>
</trkpt>
<trkpt lat="-27.3568420" lon="152.9567828">
<ele>25.940</ele>
<time>2015-12-27T07:31:11.973Z</time>
</trkpt>
<trkpt lat="-27.3568420" lon="152.9567828">
<ele>25.940</ele>
<time>2015-12-27T07:31:11.973Z</time>
</trkpt>
<trkpt lat="-27.3567720" lon="152.9569123">
<ele>25.782</ele>
<time>2015-12-27T07:31:31.000Z</time>
</trkpt>
<trkpt lat="-27.3567720" lon="152.9569123">
<ele>25.770</ele>
<time>2015-12-27T07:31:35.000Z</time>
</trkpt>
<trkpt lat="-27.3567720" lon="152.9569123">
<ele>25.764</ele>
<time>2015-12-27T07:41:50.673Z</time>
</trkpt>
<trkpt lat="-27.3567796" lon="152.9566792">
<ele>25.756</ele>
<time>2015-12-27T07:42:16.999Z</time>
</trkpt>
<trkpt lat="-27.3567796" lon="152.9566792">
<ele>25.746</ele>
<time>2015-12-27T07:42:23.999Z</time>
</trkpt>
<trkpt lat="-27.3567796" lon="152.9566792">
<ele>25.733</ele>
<time>2015-12-27T07:42:39.999Z</time>
</trkpt>
<trkpt lat="-27.3567688" lon="152.9567444">
<ele>24.753</ele>
<time>2015-12-27T07:43:04.746Z</time>
</trkpt>
<trkpt lat="-27.3567688" lon="152.9567444">
<ele>24.753</ele>
<time>2015-12-27T07:43:04.746Z</time>
</trkpt>
<trkpt lat="-27.3566545" lon="152.9568703">
<ele>24.626</ele>
<time>2015-12-27T07:44:11.999Z</time>
</trkpt>
<trkpt lat="-27.3566545" lon="152.9568703">
<ele>24.615</ele>
<time>2015-12-27T07:47:12.000Z</time>
</trkpt>
<trkpt lat="-27.3569285" lon="152.9566081">
<ele>23.761</ele>
<time>2015-12-27T07:48:20.000Z</time>
</trkpt>
<trkpt lat="-27.3569285" lon="152.9566081">
<ele>23.750</ele>
<time>2015-12-27T07:48:23.000Z</time>
</trkpt>
<trkpt lat="-27.3569285" lon="152.9566081">
<ele>23.744</ele>
<time>2015-12-27T07:49:19.000Z</time>
</trkpt>
<trkpt lat="-27.3567671" lon="152.9566393">
<ele>23.535</ele>
<time>2015-12-27T07:49:34.000Z</time>
</trkpt>
</trkseg>
</trk>
<extensions>
<fpdata xmlns="http://www.motionx.com/GPX-Extensions/1/1" sfv="10" origin="MotionXGPSFull 24.1 Build 5049R64">
<bin enc="base64">
RgIAAAACAAAAgpFiTcaf1UEBAAAAJBDKCuaf1UEaL0v2t4TQQCEWAAB1a5cBzCNsRWqr
OEA3jRE6CIk3QAAAAAAUAAAATWFyeSBDYWlybmNyb3NzIFJ1bgAVAAAAMjcgRGVjIDIw
MTUgIDg6NDggYW0AAAAAAE0Qygrmn9VB34uQGuaf1UEP6eMARXvwMCCqmEAsAAAAAAAA
AJQT2QqfHmNAAxxMiC1bO8DMI2xFaqs4QAAAAAAAABRAAAAAAAAACEAAAAAAANisQAAA
AAAAAAAAAAAAAGdmZmZmDnBANRwpHMu3NkABAAAAMSO3u9ZOhb8BAAAAAQAAALQkU0an
Qsc/LBY+vnM3xb8BAAAAAQAAAAAAAAAAAAAAAAAAAAAAAAAAAAAAAQAAAA4AAABUcmFj
a18wMDEuZ3B4AAEAAAAhO/IK5p/VQQoAAAABAAAACgAAAFRyYWNrIDAwMQAAAAAADAAA
AAAAAAAAAAAAAgEAAFIIgAPmn9VBAAAAAAAAAAAAAAAAAAAAAP8lRLwCAAAAAAAAAAAA
AAABAAAAJwAAADI0LjEgQnVpbGQgNTA0OVI2NCwgTVhBRSA4LjEgYi4gNjI2UjY0AAAA
AADVYQAAAQAAAAE4AAAANRl/ViiYf1YE4geyTcaf1UHiB7JNxp/VQQAAABCa3fM/AAAA
AANm9bVqxp/VQWb1tWrGn9VBAAAA2GNTXUAAAAAABNo9c2/Gn9VB2j1zb8af1UEAAEAy
VghhQAAAAAADMZZzdMaf1UExlnN0xp/VQQAAwFWCiGNAAAAAAASUUXd3xp/VQZRRd3fG
n9VBAABAD2AKZUAAAAAAA4xJtZPGn9VBjEm1k8af1UEAAKABrpRxQAAAAAAERzxzmcaf
1UFHPHOZxp/VQQAAcLMqBHNAAAAAAAOkwXKhxp/VQaTBcqHGn9VBAACgBgwEdUAAAAAA
BEhss6XGn9VBSGyzpcaf1UEAAMCzNhR2QAAAAAAD1T1zqMaf1UHVPXOoxp/VQQAA0BIr
xHZAAAAAAAQplTbIxp/VQSmVNsjGn9VBAAAQ7wC1fkAAAAAAAyTsMtPGn9VBJOwy08af
1UEAANhTC7qAQAAAAAAEP1O01saf1UE/U7TWxp/VQQAASDk4KoFAAAAAAAMYWrTxxp/V
QRhatPHGn9VBAABYEjmKhEAAAAAABEbs8vTGn9VBRuzy9Maf1UEAACBaC/KEQAAAAAAC
m5FiTcaf1UE6l8eWyJ/VQQAA+CwoS6JAAAAAAAKQhso3yZ/VQaJ9hznJn9VBAACI5Q9Z
okAAAAAAAo3QSTzJn9VBke/FSsmf1UEAAKjd8MyiQAAAAAACQ3CJTsmf1UG1pYpXyZ/V
QQAAOIn6FKNAAAAAAAKi0IlYyZ/VQUjGB2fJn9VBAABoNuqIo0AAAAAAArfsSGjJn9VB
5paKdsmf1UEAAOCH9/qjQAAAAAACveSLeMmf1UGsGQbEy5/VQQAArJdkK7NAAAAAAALR
eIq3zZ/VQdgQx+7Qn9VBAADkeysEwEAAAAAAAhxBypTan9VBhgSHnNqf1UEAALgCpRPA
QAAAAAACiUTIotqf1UEB+Iam2p/VQQAAqGkiG8BAAAAAAAIwgciw2p/VQZiIh8jan9VB
AAB4eKBKwEAAAAAAAt4gSc3an9VBLlUHQtuf1UEAABjhHDTBQAAAAAACPneJQ9uf1UFZ
Fgbf25/VQQAATh8Wa8JAAAAAAAKHNkno25/VQXRghfXbn9VBAAAoc46FwkAAAAAAAqCq
SCbcn9VBF7rOEt2f1UEAABaSml7EQAAAAAACgv0Jht2f1UEtmMXh3Z/VQQAAbMcRFsVA
AAAAAAIpJAjj3Z/VQTQTyXLfn9VBAACCpZM1yEAAAAAAAqaXR3Xfn9VBUtNGlOGf1UEA
ANocknPMQAAAAAACHETMleGf1UGXOMj84p/VQQAA0AWKQc9AAAAAAAJUHooH45/VQfDE
xg7jn9VBAAAIUwNQz0AAAAAAAhISyxLjn9VBePAGP+Of1UEAANQPe6jPQAAAAAACIPAH
4uOf1UENNgfm45/VQQAArpt5sM9AAAAAAAI2ksj045/VQRRfx//jn9VBAABqNXfGz0AA
AAAAAm06ymDkn9VBlkAIh+Sf1UEAAN6geQnQQAAAAAAD1ZZd3eSf1UHVll3d5J/VQQAA
qo7OWdBAAAAAAAQrpYbt5J/VQSulhu3kn9VBAIDznPdp0EAAAAAAA8EdHu/kn9VBwR0e
7+Sf1UEAAJIVj2vQQAAAAAAEnUrH9OSf1UGdSsf05J/VQQDAaUI4cdBAAAAAAAIuqQiN
5J/VQXb9xvXkn9VBAAAm9Tdy0EAAAAAAAgq8Tpbln9VBCi0LmOWf1UEAACZm9HPQQAAA
AAADFLUgnOWf1UEUtSCc5Z/VQQAAJmb0c9BAAAAAAAS0dMqq5Z/VQbR0yqrln9VBAAAm
ZvRz0EAAAAAAAyrH4LDln9VBKsfgsOWf1UFQTeVxI3rQQAAAAAAE6UcJs+Wf1UHpRwmz
5Z/VQVANpPJLfNBAAAAAAAIoKsyq5Z/VQSfdCrPln9VBUI28h0180EAAAAAAA6hRHODl
n9VBqFEc4OWf1UFQjbyHTXzQQAAAAAAEbOoI8eWf1UFs6gjx5Z/VQVCNvIdNfNBAAAAA
AALPMArx5Z/VQew10/Hln9VB2/nAiLh90EAAAAAAAyrg3//ln9VBKuDf/+Wf1UHb+cCI
uH3QQAAAAAAEbcqHA+af1UFtyocD5p/VQdv5wIi4fdBAAAAAAAEs9YgD5p/VQVioPgrm
n9VBGi9L9reE0EAAAAAAAAAAAA==
</bin>
</fpdata>
</extensions>
</gpx>